﻿<?xml version="1.0" encoding="utf-8"?><gpx creator="Garmin Desktop App" version="1.1" xsi:schemaLocation="http://www.topografix.com/GPX/1/1 http://www.topografix.com/GPX/1/1/gpx.xsd http://www.garmin.com/xmlschemas/WaypointExtension/v1 http://www8.garmin.com/xmlschemas/WaypointExtensionv1.xsd http://www.garmin.com/xmlschemas/TrackPointExtension/v1 http://www.garmin.com/xmlschemas/TrackPointExtensionv1.xsd http://www.garmin.com/xmlschemas/GpxExtensions/v3 http://www8.garmin.com/xmlschemas/GpxExtensionsv3.xsd http://www.garmin.com/xmlschemas/ActivityExtension/v1 http://www8.garmin.com/xmlschemas/ActivityExtensionv1.xsd http://www.garmin.com/xmlschemas/AdventuresExtensions/v1 http://www8.garmin.com/xmlschemas/AdventuresExtensionv1.xsd http://www.garmin.com/xmlschemas/PressureExtension/v1 http://www.garmin.com/xmlschemas/PressureExtensionv1.xsd http://www.garmin.com/xmlschemas/TripExtensions/v1 http://www.garmin.com/xmlschemas/TripExtensionsv1.xsd http://www.garmin.com/xmlschemas/TripMetaDataExtensions/v1 http://www.garmin.com/xmlschemas/TripMetaDataExtensionsv1.xsd http://www.garmin.com/xmlschemas/ViaPointTransportationModeExtensions/v1 http://www.garmin.com/xmlschemas/ViaPointTransportationModeExtensionsv1.xsd http://www.garmin.com/xmlschemas/CreationTimeExtension/v1 http://www.garmin.com/xmlschemas/CreationTimeExtensionsv1.xsd http://www.garmin.com/xmlschemas/AccelerationExtension/v1 http://www.garmin.com/xmlschemas/AccelerationExtensionv1.xsd http://www.garmin.com/xmlschemas/PowerExtension/v1 http://www.garmin.com/xmlschemas/PowerExtensionv1.xsd http://www.garmin.com/xmlschemas/VideoExtension/v1 http://www.garmin.com/xmlschemas/VideoExtensionv1.xsd" xmlns="http://www.topografix.com/GPX/1/1" xmlns:xsi="http://www.w3.org/2001/XMLSchema-instance" xmlns:wptx1="http://www.garmin.com/xmlschemas/WaypointExtension/v1" xmlns:gpxtrx="http://www.garmin.com/xmlschemas/GpxExtensions/v3" xmlns:gpxtpx="http://www.garmin.com/xmlschemas/TrackPointExtension/v1" xmlns:gpxx="http://www.garmin.com/xmlschemas/GpxExtensions/v3" xmlns:trp="http://www.garmin.com/xmlschemas/TripExtensions/v1" xmlns:adv="http://www.garmin.com/xmlschemas/AdventuresExtensions/v1" xmlns:prs="http://www.garmin.com/xmlschemas/PressureExtension/v1" xmlns:tmd="http://www.garmin.com/xmlschemas/TripMetaDataExtensions/v1" xmlns:vptm="http://www.garmin.com/xmlschemas/ViaPointTransportationModeExtensions/v1" xmlns:ctx="http://www.garmin.com/xmlschemas/CreationTimeExtension/v1" xmlns:gpxacc="http://www.garmin.com/xmlschemas/AccelerationExtension/v1" xmlns:gpxpx="http://www.garmin.com/xmlschemas/PowerExtension/v1" xmlns:vidx1="http://www.garmin.com/xmlschemas/VideoExtension/v1">

  <metadata>
    <link href="http://www.garmin.com">
      <text>Garmin International</text>
    </link>
    <time>2025-05-07T16:17:26Z</time>
    <bounds maxlat="37.389805996790528" maxlon="-5.953045981004834" minlat="37.011272963136435" minlon="-8.849094025790691" />
  </metadata>

  <trk>
    <name>250507_G_Track</name>
    <extensions>
      <gpxx:TrackExtension>
        <gpxx:DisplayColor>DarkGray</gpxx:DisplayColor>
      </gpxx:TrackExtension>
    </extensions>
    <trkseg>
      <trkpt lat="37.074253996834159" lon="-8.849094025790691">
        <ele>36.189999999999998</ele>
        <time>2025-05-07T07:11:20Z</time>
      </trkpt>
      <trkpt lat="37.074245028197765" lon="-8.84907097555697">
        <ele>39.549999999999997</ele>
        <time>2025-05-07T07:11:42Z</time>
      </trkpt>
      <trkpt lat="37.074246034026146" lon="-8.84906804189086">
        <ele>40.990000000000002</ele>
        <time>2025-05-07T07:12:21Z</time>
      </trkpt>
      <trkpt lat="37.073988039046526" lon="-8.849022025242448">
        <ele>40.509999999999998</ele>
        <time>2025-05-07T07:12:49Z</time>
      </trkpt>
      <trkpt lat="37.073989966884255" lon="-8.849007021635771">
        <ele>40.990000000000002</ele>
        <time>2025-05-07T07:12:57Z</time>
      </trkpt>
      <trkpt lat="37.074137991294265" lon="-8.849024958908558">
        <ele>41.469999999999999</ele>
        <time>2025-05-07T07:13:00Z</time>
      </trkpt>
      <trkpt lat="37.074140002951026" lon="-8.849011966958642">
        <ele>41.469999999999999</ele>
        <time>2025-05-07T07:13:01Z</time>
      </trkpt>
      <trkpt lat="37.074143020436168" lon="-8.848991012200713">
        <ele>41.469999999999999</ele>
        <time>2025-05-07T07:13:02Z</time>
      </trkpt>
      <trkpt lat="37.074146037921309" lon="-8.848967961966991">
        <ele>41.469999999999999</ele>
        <time>2025-05-07T07:13:03Z</time>
      </trkpt>
      <trkpt lat="37.07414897158742" lon="-8.848944995552301">
        <ele>41.469999999999999</ele>
        <time>2025-05-07T07:13:04Z</time>
      </trkpt>
      <trkpt lat="37.07414897158742" lon="-8.848944995552301">
        <ele>41.469999999999999</ele>
        <time>2025-05-07T07:13:05Z</time>
      </trkpt>
      <trkpt lat="37.07414897158742" lon="-8.848944995552301">
        <ele>41.469999999999999</ele>
        <time>2025-05-07T07:13:25Z</time>
      </trkpt>
      <trkpt lat="37.074189959093928" lon="-8.848649030551314">
        <ele>40.509999999999998</ele>
        <time>2025-05-07T07:13:56Z</time>
      </trkpt>
      <trkpt lat="37.074201023206115" lon="-8.848568983376026">
        <ele>40.030000000000001</ele>
        <time>2025-05-07T07:13:57Z</time>
      </trkpt>
      <trkpt lat="37.074232036247849" lon="-8.848504023626447">
        <ele>40.030000000000001</ele>
        <time>2025-05-07T07:13:58Z</time>
      </trkpt>
      <trkpt lat="37.074287021532655" lon="-8.848392963409424">
        <ele>40.030000000000001</ele>
        <time>2025-05-07T07:13:59Z</time>
      </trkpt>
      <trkpt lat="37.074323985725641" lon="-8.848348958417773">
        <ele>40.030000000000001</ele>
        <time>2025-05-07T07:14:00Z</time>
      </trkpt>
      <trkpt lat="37.07438500598073" lon="-8.848276035860181">
        <ele>40.030000000000001</ele>
        <time>2025-05-07T07:14:01Z</time>
      </trkpt>
      <trkpt lat="37.074446026235819" lon="-8.848203029483557">
        <ele>40.030000000000001</ele>
        <time>2025-05-07T07:14:02Z</time>
      </trkpt>
      <trkpt lat="37.074500005692244" lon="-8.848137985914946">
        <ele>40.030000000000001</ele>
        <time>2025-05-07T07:14:03Z</time>
      </trkpt>
      <trkpt lat="37.074512997642159" lon="-8.84803899563849">
        <ele>40.030000000000001</ele>
        <time>2025-05-07T07:14:04Z</time>
      </trkpt>
      <trkpt lat="37.074520960450172" lon="-8.847963977605104">
        <ele>40.030000000000001</ele>
        <time>2025-05-07T07:14:05Z</time>
      </trkpt>
      <trkpt lat="37.07449397072196" lon="-8.847883008420467">
        <ele>40.030000000000001</ele>
        <time>2025-05-07T07:14:06Z</time>
      </trkpt>
      <trkpt lat="37.074445020407438" lon="-8.847827017307282">
        <ele>40.030000000000001</ele>
        <time>2025-05-07T07:14:07Z</time>
      </trkpt>
      <trkpt lat="37.074390035122633" lon="-8.84778200648725">
        <ele>39.549999999999997</ele>
        <time>2025-05-07T07:14:08Z</time>
      </trkpt>
      <trkpt lat="37.074265982955694" lon="-8.847877979278565">
        <ele>40.030000000000001</ele>
        <time>2025-05-07T07:14:09Z</time>
      </trkpt>
      <trkpt lat="37.074219966307282" lon="-8.847886025905609">
        <ele>40.030000000000001</ele>
        <time>2025-05-07T07:14:10Z</time>
      </trkpt>
      <trkpt lat="37.0741499774158" lon="-8.847897006198764">
        <ele>40.030000000000001</ele>
        <time>2025-05-07T07:14:11Z</time>
      </trkpt>
      <trkpt lat="37.074082000181079" lon="-8.847830034792423">
        <ele>40.030000000000001</ele>
        <time>2025-05-07T07:14:12Z</time>
      </trkpt>
      <trkpt lat="37.074046963825822" lon="-8.847763985395432">
        <ele>40.030000000000001</ele>
        <time>2025-05-07T07:14:13Z</time>
      </trkpt>
      <trkpt lat="37.074034977704287" lon="-8.847679998725653">
        <ele>40.030000000000001</ele>
        <time>2025-05-07T07:14:14Z</time>
      </trkpt>
      <trkpt lat="37.074048975482583" lon="-8.847603974863887">
        <ele>39.549999999999997</ele>
        <time>2025-05-07T07:14:15Z</time>
      </trkpt>
      <trkpt lat="37.074089040979743" lon="-8.84752401150763">
        <ele>39.549999999999997</ele>
        <time>2025-05-07T07:14:16Z</time>
      </trkpt>
      <trkpt lat="37.074093986302614" lon="-8.847513031214476">
        <ele>39.549999999999997</ele>
        <time>2025-05-07T07:14:17Z</time>
      </trkpt>
      <trkpt lat="37.074245028197765" lon="-8.84722301736474">
        <ele>39.549999999999997</ele>
        <time>2025-05-07T07:14:19Z</time>
      </trkpt>
      <trkpt lat="37.074266988784075" lon="-8.847100976854563">
        <ele>39.549999999999997</ele>
        <time>2025-05-07T07:14:20Z</time>
      </trkpt>
      <trkpt lat="37.074796976521611" lon="-8.845803961157799">
        <ele>39.07</ele>
        <time>2025-05-07T07:14:29Z</time>
      </trkpt>
      <trkpt lat="37.075766008347273" lon="-8.844744991511107">
        <ele>41.950000000000003</ele>
        <time>2025-05-07T07:14:37Z</time>
      </trkpt>
      <trkpt lat="37.077396959066391" lon="-8.843439007177949">
        <ele>53.490000000000002</ele>
        <time>2025-05-07T07:14:48Z</time>
      </trkpt>
      <trkpt lat="37.078129034489393" lon="-8.842358998954296">
        <ele>59.259999999999998</ele>
        <time>2025-05-07T07:14:55Z</time>
      </trkpt>
      <trkpt lat="37.078486019745469" lon="-8.84082100354135">
        <ele>62.619999999999997</ele>
        <time>2025-05-07T07:15:03Z</time>
      </trkpt>
      <trkpt lat="37.078476967290044" lon="-8.838785039260984">
        <ele>60.219999999999999</ele>
        <time>2025-05-07T07:15:12Z</time>
      </trkpt>
      <trkpt lat="37.078503035008907" lon="-8.837120980024338">
        <ele>58.299999999999997</ele>
        <time>2025-05-07T07:15:20Z</time>
      </trkpt>
      <trkpt lat="37.078739991411567" lon="-8.836012976244092">
        <ele>55.409999999999997</ele>
        <time>2025-05-07T07:15:27Z</time>
      </trkpt>
      <trkpt lat="37.078664973378181" lon="-8.835796974599361">
        <ele>55.409999999999997</ele>
        <time>2025-05-07T07:15:28Z</time>
      </trkpt>
      <trkpt lat="37.078664973378181" lon="-8.835796974599361">
        <ele>55.409999999999997</ele>
        <time>2025-05-07T07:15:29Z</time>
      </trkpt>
      <trkpt lat="37.078652987256646" lon="-8.835703013464809">
        <ele>55.409999999999997</ele>
        <time>2025-05-07T07:15:30Z</time>
      </trkpt>
      <trkpt lat="37.078643012791872" lon="-8.835625983774662">
        <ele>55.409999999999997</ele>
        <time>2025-05-07T07:15:31Z</time>
      </trkpt>
      <trkpt lat="37.078695986419916" lon="-8.835531016811729">
        <ele>55.409999999999997</ele>
        <time>2025-05-07T07:15:32Z</time>
      </trkpt>
      <trkpt lat="37.078739991411567" lon="-8.835451975464821">
        <ele>54.93</ele>
        <time>2025-05-07T07:15:33Z</time>
      </trkpt>
      <trkpt lat="37.078800005838275" lon="-8.83540797047317">
        <ele>54.93</ele>
        <time>2025-05-07T07:15:34Z</time>
      </trkpt>
      <trkpt lat="37.078835964202881" lon="-8.835390033200383">
        <ele>54.450000000000003</ele>
        <time>2025-05-07T07:15:35Z</time>
      </trkpt>
      <trkpt lat="37.078996980562806" lon="-8.835354996845126">
        <ele>53.969999999999999</ele>
        <time>2025-05-07T07:15:36Z</time>
      </trkpt>
      <trkpt lat="37.079036040231586" lon="-8.835281990468502">
        <ele>53.490000000000002</ele>
        <time>2025-05-07T07:15:37Z</time>
      </trkpt>
      <trkpt lat="37.079093959182501" lon="-8.835175037384033">
        <ele>53.490000000000002</ele>
        <time>2025-05-07T07:15:38Z</time>
      </trkpt>
      <trkpt lat="37.079134024679661" lon="-8.835113011300564">
        <ele>53.009999999999998</ele>
        <time>2025-05-07T07:15:39Z</time>
      </trkpt>
      <trkpt lat="37.079192027449608" lon="-8.835022989660502">
        <ele>53.009999999999998</ele>
        <time>2025-05-07T07:15:40Z</time>
      </trkpt>
      <trkpt lat="37.079857969656587" lon="-8.834134005010128">
        <ele>51.090000000000003</ele>
        <time>2025-05-07T07:15:48Z</time>
      </trkpt>
      <trkpt lat="37.080901013687253" lon="-8.832949977368116">
        <ele>46.280000000000001</ele>
        <time>2025-05-07T07:15:57Z</time>
      </trkpt>
      <trkpt lat="37.08242098800838" lon="-8.831249959766865">
        <ele>35.710000000000001</ele>
        <time>2025-05-07T07:16:09Z</time>
      </trkpt>
      <trkpt lat="37.083703000098467" lon="-8.830021005123854">
        <ele>31.859999999999999</ele>
        <time>2025-05-07T07:16:21Z</time>
      </trkpt>
      <trkpt lat="37.084973026067019" lon="-8.828846029937267">
        <ele>31.379999999999999</ele>
        <time>2025-05-07T07:16:33Z</time>
      </trkpt>
      <trkpt lat="37.085984973236918" lon="-8.827812038362026">
        <ele>28.5</ele>
        <time>2025-05-07T07:16:45Z</time>
      </trkpt>
      <trkpt lat="37.086169961839914" lon="-8.827625960111618">
        <ele>28.02</ele>
        <time>2025-05-07T07:16:48Z</time>
      </trkpt>
      <trkpt lat="37.086217990145087" lon="-8.827428985387087">
        <ele>27.530000000000001</ele>
        <time>2025-05-07T07:16:49Z</time>
      </trkpt>
      <trkpt lat="37.086279010400176" lon="-8.827286995947361">
        <ele>27.050000000000001</ele>
        <time>2025-05-07T07:16:51Z</time>
      </trkpt>
      <trkpt lat="37.086378000676632" lon="-8.827223964035511">
        <ele>27.050000000000001</ele>
        <time>2025-05-07T07:16:52Z</time>
      </trkpt>
      <trkpt lat="37.086431980133057" lon="-8.827193034812808">
        <ele>26.57</ele>
        <time>2025-05-07T07:16:53Z</time>
      </trkpt>
      <trkpt lat="37.086677988991141" lon="-8.827075017616153">
        <ele>26.57</ele>
        <time>2025-05-07T07:16:55Z</time>
      </trkpt>
      <trkpt lat="37.08676096983254" lon="-8.826977033168078">
        <ele>26.57</ele>
        <time>2025-05-07T07:16:56Z</time>
      </trkpt>
      <trkpt lat="37.087593963369727" lon="-8.826072039082646">
        <ele>28.5</ele>
        <time>2025-05-07T07:17:04Z</time>
      </trkpt>
      <trkpt lat="37.088944036513567" lon="-8.824607972055674">
        <ele>34.259999999999998</ele>
        <time>2025-05-07T07:17:17Z</time>
      </trkpt>
      <trkpt lat="37.090099984779954" lon="-8.823125967755914">
        <ele>37.630000000000003</ele>
        <time>2025-05-07T07:17:29Z</time>
      </trkpt>
      <trkpt lat="37.09071303717792" lon="-8.821575986221433">
        <ele>39.549999999999997</ele>
        <time>2025-05-07T07:17:37Z</time>
      </trkpt>
      <trkpt lat="37.091348972171545" lon="-8.818639973178506">
        <ele>32.82</ele>
        <time>2025-05-07T07:17:51Z</time>
      </trkpt>
      <trkpt lat="37.09191701374948" lon="-8.815928008407354">
        <ele>29.460000000000001</ele>
        <time>2025-05-07T07:18:05Z</time>
      </trkpt>
      <trkpt lat="37.09223703481257" lon="-8.81439202465117">
        <ele>28.5</ele>
        <time>2025-05-07T07:18:15Z</time>
      </trkpt>
      <trkpt lat="37.092525959014893" lon="-8.812859980389476">
        <ele>28.98</ele>
        <time>2025-05-07T07:18:27Z</time>
      </trkpt>
      <trkpt lat="37.092499975115061" lon="-8.812640961259604">
        <ele>28.98</ele>
        <time>2025-05-07T07:18:30Z</time>
      </trkpt>
      <trkpt lat="37.092471979558468" lon="-8.812550017610192">
        <ele>28.98</ele>
        <time>2025-05-07T07:18:31Z</time>
      </trkpt>
      <trkpt lat="37.092440966516733" lon="-8.812327980995178">
        <ele>28.98</ele>
        <time>2025-05-07T07:18:33Z</time>
      </trkpt>
      <trkpt lat="37.09249896928668" lon="-8.812231002375484">
        <ele>28.98</ele>
        <time>2025-05-07T07:18:34Z</time>
      </trkpt>
      <trkpt lat="37.092555966228247" lon="-8.812141986563802">
        <ele>28.98</ele>
        <time>2025-05-07T07:18:35Z</time>
      </trkpt>
      <trkpt lat="37.092616986483335" lon="-8.812038972973824">
        <ele>28.98</ele>
        <time>2025-05-07T07:18:36Z</time>
      </trkpt>
      <trkpt lat="37.092678006738424" lon="-8.811926990747452">
        <ele>28.98</ele>
        <time>2025-05-07T07:18:37Z</time>
      </trkpt>
      <trkpt lat="37.092738021165133" lon="-8.811806961894035">
        <ele>28.98</ele>
        <time>2025-05-07T07:18:38Z</time>
      </trkpt>
      <trkpt lat="37.092789988964796" lon="-8.811673019081354">
        <ele>28.98</ele>
        <time>2025-05-07T07:18:39Z</time>
      </trkpt>
      <trkpt lat="37.092821002006531" lon="-8.811527006328106">
        <ele>28.98</ele>
        <time>2025-05-07T07:18:40Z</time>
      </trkpt>
      <trkpt lat="37.092853020876646" lon="-8.811374958604574">
        <ele>28.98</ele>
        <time>2025-05-07T07:18:41Z</time>
      </trkpt>
      <trkpt lat="37.09326901473105" lon="-8.809421975165606">
        <ele>28.5</ele>
        <time>2025-05-07T07:18:53Z</time>
      </trkpt>
      <trkpt lat="37.093685008585453" lon="-8.806802965700626">
        <ele>35.710000000000001</ele>
        <time>2025-05-07T07:19:07Z</time>
      </trkpt>
      <trkpt lat="37.09346397779882" lon="-8.804926006123424">
        <ele>46.759999999999998</ele>
        <time>2025-05-07T07:19:17Z</time>
      </trkpt>
      <trkpt lat="37.092868024483323" lon="-8.802859028801322">
        <ele>55.890000000000001</ele>
        <time>2025-05-07T07:19:28Z</time>
      </trkpt>
      <trkpt lat="37.092593014240265" lon="-8.801122969016433">
        <ele>58.299999999999997</ele>
        <time>2025-05-07T07:19:37Z</time>
      </trkpt>
      <trkpt lat="37.092427974566817" lon="-8.798421984538436">
        <ele>53.969999999999999</ele>
        <time>2025-05-07T07:19:50Z</time>
      </trkpt>
      <trkpt lat="37.092328984290361" lon="-8.796829003840685">
        <ele>50.130000000000003</ele>
        <time>2025-05-07T07:20:00Z</time>
      </trkpt>
      <trkpt lat="37.09232403896749" lon="-8.796695983037353">
        <ele>49.649999999999999</ele>
        <time>2025-05-07T07:20:01Z</time>
      </trkpt>
      <trkpt lat="37.092319009825587" lon="-8.79658198915422">
        <ele>49.649999999999999</ele>
        <time>2025-05-07T07:20:02Z</time>
      </trkpt>
      <trkpt lat="37.092314986512065" lon="-8.79647696390748">
        <ele>49.649999999999999</ele>
        <time>2025-05-07T07:20:03Z</time>
      </trkpt>
      <trkpt lat="37.092205015942454" lon="-8.796379985287786">
        <ele>49.649999999999999</ele>
        <time>2025-05-07T07:20:04Z</time>
      </trkpt>
      <trkpt lat="37.092168973758817" lon="-8.796307984739542">
        <ele>49.649999999999999</ele>
        <time>2025-05-07T07:20:05Z</time>
      </trkpt>
      <trkpt lat="37.092128992080688" lon="-8.796228021383286">
        <ele>49.159999999999997</ele>
        <time>2025-05-07T07:20:06Z</time>
      </trkpt>
      <trkpt lat="37.092136032879353" lon="-8.79612903110683">
        <ele>49.159999999999997</ele>
        <time>2025-05-07T07:20:07Z</time>
      </trkpt>
      <trkpt lat="37.092155981808901" lon="-8.796038003638387">
        <ele>49.159999999999997</ele>
        <time>2025-05-07T07:20:08Z</time>
      </trkpt>
      <trkpt lat="37.092162016779184" lon="-8.796015037223697">
        <ele>49.159999999999997</ele>
        <time>2025-05-07T07:20:09Z</time>
      </trkpt>
      <trkpt lat="37.092279028147459" lon="-8.795819990336895">
        <ele>49.159999999999997</ele>
        <time>2025-05-07T07:20:10Z</time>
      </trkpt>
      <trkpt lat="37.092271987348795" lon="-8.795725023373961">
        <ele>49.159999999999997</ele>
        <time>2025-05-07T07:20:11Z</time>
      </trkpt>
      <trkpt lat="37.092264024540782" lon="-8.795627960935235">
        <ele>48.68</ele>
        <time>2025-05-07T07:20:12Z</time>
      </trkpt>
      <trkpt lat="37.092255977913737" lon="-8.795526959002018">
        <ele>48.68</ele>
        <time>2025-05-07T07:20:13Z</time>
      </trkpt>
      <trkpt lat="37.092248015105724" lon="-8.795420005917549">
        <ele>48.68</ele>
        <time>2025-05-07T07:20:14Z</time>
      </trkpt>
      <trkpt lat="37.092238962650299" lon="-8.795301988720894">
        <ele>48.68</ele>
        <time>2025-05-07T07:20:15Z</time>
      </trkpt>
      <trkpt lat="37.09219696931541" lon="-8.794735036790371">
        <ele>48.200000000000003</ele>
        <time>2025-05-07T07:20:20Z</time>
      </trkpt>
      <trkpt lat="37.092151958495378" lon="-8.79381000995636">
        <ele>47.240000000000002</ele>
        <time>2025-05-07T07:20:26Z</time>
      </trkpt>
      <trkpt lat="37.091961018741131" lon="-8.791062003001571">
        <ele>44.840000000000003</ele>
        <time>2025-05-07T07:20:40Z</time>
      </trkpt>
      <trkpt lat="37.091671004891396" lon="-8.788034040480852">
        <ele>32.340000000000003</ele>
        <time>2025-05-07T07:20:54Z</time>
      </trkpt>
      <trkpt lat="37.09116498939693" lon="-8.7856450304389">
        <ele>26.57</ele>
        <time>2025-05-07T07:21:06Z</time>
      </trkpt>
      <trkpt lat="37.090932978317142" lon="-8.784396965056658">
        <ele>24.649999999999999</ele>
        <time>2025-05-07T07:21:14Z</time>
      </trkpt>
      <trkpt lat="37.090895008295774" lon="-8.783860020339489">
        <ele>21.77</ele>
        <time>2025-05-07T07:21:21Z</time>
      </trkpt>
      <trkpt lat="37.090888973325491" lon="-8.783611999824643">
        <ele>19.359999999999999</ele>
        <time>2025-05-07T07:21:33Z</time>
      </trkpt>
      <trkpt lat="37.090877993032336" lon="-8.783190976828337">
        <ele>19.359999999999999</ele>
        <time>2025-05-07T07:21:39Z</time>
      </trkpt>
      <trkpt lat="37.090947981923819" lon="-8.782060006633401">
        <ele>18.879999999999999</ele>
        <time>2025-05-07T07:21:47Z</time>
      </trkpt>
      <trkpt lat="37.091247970238328" lon="-8.78038102760911">
        <ele>18.399999999999999</ele>
        <time>2025-05-07T07:21:56Z</time>
      </trkpt>
      <trkpt lat="37.091774018481374" lon="-8.778280019760132">
        <ele>18.879999999999999</ele>
        <time>2025-05-07T07:22:06Z</time>
      </trkpt>
      <trkpt lat="37.092382041737437" lon="-8.775807023048401">
        <ele>18.879999999999999</ele>
        <time>2025-05-07T07:22:19Z</time>
      </trkpt>
      <trkpt lat="37.09309802390635" lon="-8.77294996753335">
        <ele>18.399999999999999</ele>
        <time>2025-05-07T07:22:34Z</time>
      </trkpt>
      <trkpt lat="37.093794979155064" lon="-8.770364988595247">
        <ele>19.359999999999999</ele>
        <time>2025-05-07T07:22:48Z</time>
      </trkpt>
      <trkpt lat="37.094209967181087" lon="-8.768843002617359">
        <ele>19.359999999999999</ele>
        <time>2025-05-07T07:22:58Z</time>
      </trkpt>
      <trkpt lat="37.094292026013136" lon="-8.768504038453102">
        <ele>19.84</ele>
        <time>2025-05-07T07:23:01Z</time>
      </trkpt>
      <trkpt lat="37.094319015741348" lon="-8.768333969637752">
        <ele>19.84</ele>
        <time>2025-05-07T07:23:03Z</time>
      </trkpt>
      <trkpt lat="37.094326978549361" lon="-8.768260963261128">
        <ele>19.84</ele>
        <time>2025-05-07T07:23:04Z</time>
      </trkpt>
      <trkpt lat="37.094240980222821" lon="-8.768017971888185">
        <ele>20.32</ele>
        <time>2025-05-07T07:23:07Z</time>
      </trkpt>
      <trkpt lat="37.094265958294272" lon="-8.767943037673831">
        <ele>20.32</ele>
        <time>2025-05-07T07:23:08Z</time>
      </trkpt>
      <trkpt lat="37.094285991042852" lon="-8.767884029075503">
        <ele>20.32</ele>
        <time>2025-05-07T07:23:09Z</time>
      </trkpt>
      <trkpt lat="37.094285991042852" lon="-8.767884029075503">
        <ele>20.32</ele>
        <time>2025-05-07T07:23:10Z</time>
      </trkpt>
      <trkpt lat="37.094481959939003" lon="-8.767823008820415">
        <ele>20.32</ele>
        <time>2025-05-07T07:23:11Z</time>
      </trkpt>
      <trkpt lat="37.094510961323977" lon="-8.76775000244379">
        <ele>20.32</ele>
        <time>2025-05-07T07:23:12Z</time>
      </trkpt>
      <trkpt lat="37.094545997679234" lon="-8.76766299828887">
        <ele>20.32</ele>
        <time>2025-05-07T07:23:13Z</time>
      </trkpt>
      <trkpt lat="37.094578016549349" lon="-8.767566019669175">
        <ele>19.84</ele>
        <time>2025-05-07T07:23:14Z</time>
      </trkpt>
      <trkpt lat="37.094612969085574" lon="-8.767462000250816">
        <ele>19.84</ele>
        <time>2025-05-07T07:23:15Z</time>
      </trkpt>
      <trkpt lat="37.095000967383385" lon="-8.766202032566071">
        <ele>20.809999999999999</ele>
        <time>2025-05-07T07:23:25Z</time>
      </trkpt>
      <trkpt lat="37.095478987321258" lon="-8.764577032998204">
        <ele>18.879999999999999</ele>
        <time>2025-05-07T07:23:35Z</time>
      </trkpt>
      <trkpt lat="37.095587030053139" lon="-8.7642059661448">
        <ele>18.399999999999999</ele>
        <time>2025-05-07T07:23:37Z</time>
      </trkpt>
      <trkpt lat="37.095643021166325" lon="-8.764015026390553">
        <ele>18.399999999999999</ele>
        <time>2025-05-07T07:23:38Z</time>
      </trkpt>
      <trkpt lat="37.096309969201684" lon="-8.761756019666791">
        <ele>20.32</ele>
        <time>2025-05-07T07:23:50Z</time>
      </trkpt>
      <trkpt lat="37.09724698215723" lon="-8.759718965739012">
        <ele>25.129999999999999</ele>
        <time>2025-05-07T07:24:01Z</time>
      </trkpt>
      <trkpt lat="37.098656985908747" lon="-8.75722199678421">
        <ele>26.57</ele>
        <time>2025-05-07T07:24:15Z</time>
      </trkpt>
      <trkpt lat="37.099202983081341" lon="-8.755474034696817">
        <ele>28.5</ele>
        <time>2025-05-07T07:24:24Z</time>
      </trkpt>
      <trkpt lat="37.099448991939425" lon="-8.753140009939671">
        <ele>34.259999999999998</ele>
        <time>2025-05-07T07:24:35Z</time>
      </trkpt>
      <trkpt lat="37.099634986370802" lon="-8.751300014555454">
        <ele>36.189999999999998</ele>
        <time>2025-05-07T07:24:43Z</time>
      </trkpt>
      <trkpt lat="37.099773958325386" lon="-8.749818010255694">
        <ele>38.590000000000003</ele>
        <time>2025-05-07T07:24:51Z</time>
      </trkpt>
      <trkpt lat="37.099788039922714" lon="-8.748439019545913">
        <ele>39.07</ele>
        <time>2025-05-07T07:25:00Z</time>
      </trkpt>
      <trkpt lat="37.099783010780811" lon="-8.74834799207747">
        <ele>39.07</ele>
        <time>2025-05-07T07:25:01Z</time>
      </trkpt>
      <trkpt lat="37.099649989977479" lon="-8.748228969052434">
        <ele>39.549999999999997</ele>
        <time>2025-05-07T07:25:02Z</time>
      </trkpt>
      <trkpt lat="37.099627023562789" lon="-8.748098965734243">
        <ele>40.030000000000001</ele>
        <time>2025-05-07T07:25:04Z</time>
      </trkpt>
      <trkpt lat="37.099612019956112" lon="-8.748014979064465">
        <ele>40.509999999999998</ele>
        <time>2025-05-07T07:25:05Z</time>
      </trkpt>
      <trkpt lat="37.099606990814209" lon="-8.747993018478155">
        <ele>40.509999999999998</ele>
        <time>2025-05-07T07:25:06Z</time>
      </trkpt>
      <trkpt lat="37.099677985534072" lon="-8.747908025979996">
        <ele>41.469999999999999</ele>
        <time>2025-05-07T07:25:07Z</time>
      </trkpt>
      <trkpt lat="37.099687959998846" lon="-8.747751032933593">
        <ele>41.469999999999999</ele>
        <time>2025-05-07T07:25:08Z</time>
      </trkpt>
      <trkpt lat="37.099668011069298" lon="-8.747666040435433">
        <ele>41.950000000000003</ele>
        <time>2025-05-07T07:25:09Z</time>
      </trkpt>
      <trkpt lat="37.099646972492337" lon="-8.747581969946623">
        <ele>42.439999999999998</ele>
        <time>2025-05-07T07:25:10Z</time>
      </trkpt>
      <trkpt lat="37.099627023562789" lon="-8.747496977448463">
        <ele>42.920000000000002</ele>
        <time>2025-05-07T07:25:11Z</time>
      </trkpt>
      <trkpt lat="37.099604979157448" lon="-8.747405027970672">
        <ele>43.399999999999999</ele>
        <time>2025-05-07T07:25:12Z</time>
      </trkpt>
      <trkpt lat="37.099412027746439" lon="-8.746813014149666">
        <ele>46.759999999999998</ele>
        <time>2025-05-07T07:25:18Z</time>
      </trkpt>
      <trkpt lat="37.098910035565495" lon="-8.745753038674593">
        <ele>54.450000000000003</ele>
        <time>2025-05-07T07:25:27Z</time>
      </trkpt>
      <trkpt lat="37.098043011501431" lon="-8.744217976927757">
        <ele>64.069999999999993</ele>
        <time>2025-05-07T07:25:39Z</time>
      </trkpt>
      <trkpt lat="37.09793396294117" lon="-8.743940033018589">
        <ele>65.030000000000001</ele>
        <time>2025-05-07T07:25:41Z</time>
      </trkpt>
      <trkpt lat="37.097515035420656" lon="-8.742172960191965">
        <ele>71.760000000000005</ele>
        <time>2025-05-07T07:25:52Z</time>
      </trkpt>
      <trkpt lat="37.097578989341855" lon="-8.74054997228086">
        <ele>73.200000000000003</ele>
        <time>2025-05-07T07:26:01Z</time>
      </trkpt>
      <trkpt lat="37.097648978233337" lon="-8.740192987024784">
        <ele>73.200000000000003</ele>
        <time>2025-05-07T07:26:03Z</time>
      </trkpt>
      <trkpt lat="37.098121969029307" lon="-8.738889014348388">
        <ele>71.760000000000005</ele>
        <time>2025-05-07T07:26:11Z</time>
      </trkpt>
      <trkpt lat="37.098864018917084" lon="-8.73767196200788">
        <ele>68.870000000000005</ele>
        <time>2025-05-07T07:26:20Z</time>
      </trkpt>
      <trkpt lat="37.099375985562801" lon="-8.736967965960503">
        <ele>68.390000000000001</ele>
        <time>2025-05-07T07:26:28Z</time>
      </trkpt>
      <trkpt lat="37.09939300082624" lon="-8.736749030649662">
        <ele>68.390000000000001</ele>
        <time>2025-05-07T07:26:31Z</time>
      </trkpt>
      <trkpt lat="37.099397024139762" lon="-8.73672497458756">
        <ele>67.909999999999997</ele>
        <time>2025-05-07T07:26:32Z</time>
      </trkpt>
      <trkpt lat="37.099408004432917" lon="-8.73666001483798">
        <ele>67.909999999999997</ele>
        <time>2025-05-07T07:26:33Z</time>
      </trkpt>
      <trkpt lat="37.09945603273809" lon="-8.736578961834312">
        <ele>67.909999999999997</ele>
        <time>2025-05-07T07:26:34Z</time>
      </trkpt>
      <trkpt lat="37.09950003772974" lon="-8.736534034833312">
        <ele>68.390000000000001</ele>
        <time>2025-05-07T07:26:35Z</time>
      </trkpt>
      <trkpt lat="37.09952199831605" lon="-8.736512996256352">
        <ele>68.390000000000001</ele>
        <time>2025-05-07T07:26:36Z</time>
      </trkpt>
      <trkpt lat="37.09952199831605" lon="-8.736512996256352">
        <ele>68.390000000000001</ele>
        <time>2025-05-07T07:26:37Z</time>
      </trkpt>
      <trkpt lat="37.099668011069298" lon="-8.736414005979896">
        <ele>68.390000000000001</ele>
        <time>2025-05-07T07:26:38Z</time>
      </trkpt>
      <trkpt lat="37.099700029939413" lon="-8.736333958804607">
        <ele>68.390000000000001</ele>
        <time>2025-05-07T07:26:39Z</time>
      </trkpt>
      <trkpt lat="37.099735988304019" lon="-8.736244020983577">
        <ele>68.390000000000001</ele>
        <time>2025-05-07T07:26:40Z</time>
      </trkpt>
      <trkpt lat="37.099776975810528" lon="-8.736147964373231">
        <ele>68.870000000000005</ele>
        <time>2025-05-07T07:26:41Z</time>
      </trkpt>
      <trkpt lat="37.1001479588449" lon="-8.735201982781291">
        <ele>70.790000000000006</ele>
        <time>2025-05-07T07:26:50Z</time>
      </trkpt>
      <trkpt lat="37.100593959912658" lon="-8.733503976836801">
        <ele>71.760000000000005</ele>
        <time>2025-05-07T07:27:01Z</time>
      </trkpt>
      <trkpt lat="37.100795041769743" lon="-8.732551038265228">
        <ele>73.680000000000007</ele>
        <time>2025-05-07T07:27:08Z</time>
      </trkpt>
      <trkpt lat="37.100826976820827" lon="-8.732387004420161">
        <ele>75.120000000000005</ele>
        <time>2025-05-07T07:27:16Z</time>
      </trkpt>
      <trkpt lat="37.100875005125999" lon="-8.73214996419847">
        <ele>77.040000000000006</ele>
        <time>2025-05-07T07:27:39Z</time>
      </trkpt>
      <trkpt lat="37.101074997335672" lon="-8.731226027011871">
        <ele>76.560000000000002</ele>
        <time>2025-05-07T07:27:48Z</time>
      </trkpt>
      <trkpt lat="37.101534996181726" lon="-8.729100041091442">
        <ele>79.930000000000007</ele>
        <time>2025-05-07T07:27:59Z</time>
      </trkpt>
      <trkpt lat="37.102242009714246" lon="-8.726472984999418">
        <ele>82.329999999999998</ele>
        <time>2025-05-07T07:28:10Z</time>
      </trkpt>
      <trkpt lat="37.102958997711539" lon="-8.724321015179157">
        <ele>83.769999999999996</ele>
        <time>2025-05-07T07:28:19Z</time>
      </trkpt>
      <trkpt lat="37.103929035365582" lon="-8.721251981332898">
        <ele>93.870000000000005</ele>
        <time>2025-05-07T07:28:33Z</time>
      </trkpt>
      <trkpt lat="37.104590032249689" lon="-8.71878401376307">
        <ele>94.349999999999994</ele>
        <time>2025-05-07T07:28:44Z</time>
      </trkpt>
      <trkpt lat="37.105338033288717" lon="-8.716908982023597">
        <ele>89.540000000000006</ele>
        <time>2025-05-07T07:28:53Z</time>
      </trkpt>
      <trkpt lat="37.106625996530056" lon="-8.714055027812719">
        <ele>79.930000000000007</ele>
        <time>2025-05-07T07:29:06Z</time>
      </trkpt>
      <trkpt lat="37.107716985046864" lon="-8.711400981992483">
        <ele>72.719999999999999</ele>
        <time>2025-05-07T07:29:19Z</time>
      </trkpt>
      <trkpt lat="37.107953019440174" lon="-8.709608009085059">
        <ele>71.269999999999996</ele>
        <time>2025-05-07T07:29:27Z</time>
      </trkpt>
      <trkpt lat="37.107717990875244" lon="-8.708060039207339">
        <ele>67.909999999999997</ele>
        <time>2025-05-07T07:29:35Z</time>
      </trkpt>
      <trkpt lat="37.107602991163731" lon="-8.707666005939245">
        <ele>66.469999999999999</ele>
        <time>2025-05-07T07:29:38Z</time>
      </trkpt>
      <trkpt lat="37.107574995607138" lon="-8.707570033147931">
        <ele>65.989999999999995</ele>
        <time>2025-05-07T07:29:39Z</time>
      </trkpt>
      <trkpt lat="37.107517998665571" lon="-8.70750498957932">
        <ele>65.989999999999995</ele>
        <time>2025-05-07T07:29:40Z</time>
      </trkpt>
      <trkpt lat="37.107466030865908" lon="-8.707462996244431">
        <ele>65.510000000000005</ele>
        <time>2025-05-07T07:29:41Z</time>
      </trkpt>
      <trkpt lat="37.107411967590451" lon="-8.707419997081161">
        <ele>65.030000000000001</ele>
        <time>2025-05-07T07:29:42Z</time>
      </trkpt>
      <trkpt lat="37.107353964820504" lon="-8.707372974604368">
        <ele>64.549999999999997</ele>
        <time>2025-05-07T07:29:43Z</time>
      </trkpt>
      <trkpt lat="37.107290010899305" lon="-8.707366017624736">
        <ele>64.549999999999997</ele>
        <time>2025-05-07T07:29:44Z</time>
      </trkpt>
      <trkpt lat="37.107221027836204" lon="-8.707358976826072">
        <ele>64.069999999999993</ele>
        <time>2025-05-07T07:29:45Z</time>
      </trkpt>
      <trkpt lat="37.107136035338044" lon="-8.707331987097859">
        <ele>63.579999999999998</ele>
        <time>2025-05-07T07:29:46Z</time>
      </trkpt>
      <trkpt lat="37.107050959020853" lon="-8.707259986549616">
        <ele>63.579999999999998</ele>
        <time>2025-05-07T07:29:47Z</time>
      </trkpt>
      <trkpt lat="37.107010977342725" lon="-8.707168037071824">
        <ele>63.579999999999998</ele>
        <time>2025-05-07T07:29:48Z</time>
      </trkpt>
      <trkpt lat="37.107007037848234" lon="-8.707014983519912">
        <ele>63.579999999999998</ele>
        <time>2025-05-07T07:29:49Z</time>
      </trkpt>
      <trkpt lat="37.107028998434544" lon="-8.706894032657147">
        <ele>63.579999999999998</ele>
        <time>2025-05-07T07:29:50Z</time>
      </trkpt>
      <trkpt lat="37.107015000656247" lon="-8.706760006025434">
        <ele>63.579999999999998</ele>
        <time>2025-05-07T07:29:51Z</time>
      </trkpt>
      <trkpt lat="37.106993962079287" lon="-8.706614999100566">
        <ele>63.579999999999998</ele>
        <time>2025-05-07T07:29:52Z</time>
      </trkpt>
      <trkpt lat="37.1069569978863" lon="-8.706474015489221">
        <ele>63.579999999999998</ele>
        <time>2025-05-07T07:29:53Z</time>
      </trkpt>
      <trkpt lat="37.106894971802831" lon="-8.706329008564353">
        <ele>63.579999999999998</ele>
        <time>2025-05-07T07:29:54Z</time>
      </trkpt>
      <trkpt lat="37.106792964041233" lon="-8.706206968054175">
        <ele>63.579999999999998</ele>
        <time>2025-05-07T07:29:55Z</time>
      </trkpt>
      <trkpt lat="37.106683999300003" lon="-8.706075958907604">
        <ele>63.579999999999998</ele>
        <time>2025-05-07T07:29:56Z</time>
      </trkpt>
      <trkpt lat="37.105628969147801" lon="-8.704808028414846">
        <ele>64.549999999999997</ele>
        <time>2025-05-07T07:30:04Z</time>
      </trkpt>
      <trkpt lat="37.104139002040029" lon="-8.703021006658673">
        <ele>66.950000000000003</ele>
        <time>2025-05-07T07:30:14Z</time>
      </trkpt>
      <trkpt lat="37.102894959971309" lon="-8.701328029856086">
        <ele>67.430000000000007</ele>
        <time>2025-05-07T07:30:23Z</time>
      </trkpt>
      <trkpt lat="37.102675018832088" lon="-8.700852021574974">
        <ele>67.430000000000007</ele>
        <time>2025-05-07T07:30:25Z</time>
      </trkpt>
      <trkpt lat="37.102061966434121" lon="-8.698728969320655">
        <ele>65.989999999999995</ele>
        <time>2025-05-07T07:30:33Z</time>
      </trkpt>
      <trkpt lat="37.101843031123281" lon="-8.696055980399251">
        <ele>60.700000000000003</ele>
        <time>2025-05-07T07:30:43Z</time>
      </trkpt>
      <trkpt lat="37.101743035018444" lon="-8.695231033489108">
        <ele>56.859999999999999</ele>
        <time>2025-05-07T07:30:48Z</time>
      </trkpt>
      <trkpt lat="37.101704981178045" lon="-8.695111004635692">
        <ele>56.369999999999997</ele>
        <time>2025-05-07T07:30:49Z</time>
      </trkpt>
      <trkpt lat="37.101647984236479" lon="-8.69497898966074">
        <ele>55.890000000000001</ele>
        <time>2025-05-07T07:30:50Z</time>
      </trkpt>
      <trkpt lat="37.101464001461864" lon="-8.694830965250731">
        <ele>54.450000000000003</ele>
        <time>2025-05-07T07:30:52Z</time>
      </trkpt>
      <trkpt lat="37.101425025612116" lon="-8.694714037701488">
        <ele>54.450000000000003</ele>
        <time>2025-05-07T07:30:53Z</time>
      </trkpt>
      <trkpt lat="37.101410022005439" lon="-8.694585040211678">
        <ele>53.490000000000002</ele>
        <time>2025-05-07T07:30:54Z</time>
      </trkpt>
      <trkpt lat="37.101410022005439" lon="-8.694455958902836">
        <ele>52.530000000000001</ele>
        <time>2025-05-07T07:30:55Z</time>
      </trkpt>
      <trkpt lat="37.101441035047174" lon="-8.694331990554929">
        <ele>52.049999999999997</ele>
        <time>2025-05-07T07:30:56Z</time>
      </trkpt>
      <trkpt lat="37.101517980918288" lon="-8.694230988621712">
        <ele>51.57</ele>
        <time>2025-05-07T07:30:57Z</time>
      </trkpt>
      <trkpt lat="37.101597022265196" lon="-8.694166028872132">
        <ele>51.090000000000003</ele>
        <time>2025-05-07T07:30:58Z</time>
      </trkpt>
      <trkpt lat="37.101683020591736" lon="-8.693985985592008">
        <ele>50.609999999999999</ele>
        <time>2025-05-07T07:30:59Z</time>
      </trkpt>
      <trkpt lat="37.101674973964691" lon="-8.693853970617056">
        <ele>50.609999999999999</ele>
        <time>2025-05-07T07:31:00Z</time>
      </trkpt>
      <trkpt lat="37.101667011156678" lon="-8.693720027804375">
        <ele>50.130000000000003</ele>
        <time>2025-05-07T07:31:01Z</time>
      </trkpt>
      <trkpt lat="37.101660976186395" lon="-8.69358298368752">
        <ele>49.159999999999997</ele>
        <time>2025-05-07T07:31:02Z</time>
      </trkpt>
      <trkpt lat="37.101577995344996" lon="-8.692286973819137">
        <ele>44.840000000000003</ele>
        <time>2025-05-07T07:31:13Z</time>
      </trkpt>
      <trkpt lat="37.101561985909939" lon="-8.692001989111304">
        <ele>44.840000000000003</ele>
        <time>2025-05-07T07:31:17Z</time>
      </trkpt>
      <trkpt lat="37.101559974253178" lon="-8.691972987726331">
        <ele>44.840000000000003</ele>
        <time>2025-05-07T07:31:18Z</time>
      </trkpt>
      <trkpt lat="37.101590987294912" lon="-8.692011963576078">
        <ele>45.32</ele>
        <time>2025-05-07T07:31:20Z</time>
      </trkpt>
      <trkpt lat="37.101618982851505" lon="-8.692054962739348">
        <ele>44.840000000000003</ele>
        <time>2025-05-07T07:31:21Z</time>
      </trkpt>
      <trkpt lat="37.101645972579718" lon="-8.692096034064889">
        <ele>45.32</ele>
        <time>2025-05-07T07:31:22Z</time>
      </trkpt>
      <trkpt lat="37.101672040298581" lon="-8.692135009914637">
        <ele>45.32</ele>
        <time>2025-05-07T07:31:23Z</time>
      </trkpt>
      <trkpt lat="37.101731970906258" lon="-8.692224025726318">
        <ele>45.32</ele>
        <time>2025-05-07T07:31:24Z</time>
      </trkpt>
      <trkpt lat="37.101731970906258" lon="-8.692224025726318">
        <ele>45.32</ele>
        <time>2025-05-07T07:31:25Z</time>
      </trkpt>
      <trkpt lat="37.101724008098245" lon="-8.692279011011124">
        <ele>45.32</ele>
        <time>2025-05-07T07:31:26Z</time>
      </trkpt>
      <trkpt lat="37.101710010319948" lon="-8.692373977974057">
        <ele>45.32</ele>
        <time>2025-05-07T07:31:27Z</time>
      </trkpt>
      <trkpt lat="37.101719984784722" lon="-8.69244497269392">
        <ele>45.799999999999997</ele>
        <time>2025-05-07T07:31:28Z</time>
      </trkpt>
      <trkpt lat="37.101733982563019" lon="-8.692532982677221">
        <ele>45.799999999999997</ele>
        <time>2025-05-07T07:31:29Z</time>
      </trkpt>
      <trkpt lat="37.101838001981378" lon="-8.69285099208355">
        <ele>46.280000000000001</ele>
        <time>2025-05-07T07:31:37Z</time>
      </trkpt>
      <trkpt lat="37.101838001981378" lon="-8.69285099208355">
        <ele>46.759999999999998</ele>
        <time>2025-05-07T07:31:52Z</time>
      </trkpt>
      <trkpt lat="37.101965993642807" lon="-8.692858032882214">
        <ele>48.200000000000003</ele>
        <time>2025-05-07T07:34:40Z</time>
      </trkpt>
      <trkpt lat="37.101914025843143" lon="-8.692907989025116">
        <ele>41.950000000000003</ele>
        <time>2025-05-07T07:35:03Z</time>
      </trkpt>
      <trkpt lat="37.101873038336635" lon="-8.692918969318271">
        <ele>52.049999999999997</ele>
        <time>2025-05-07T07:35:40Z</time>
      </trkpt>
      <trkpt lat="37.101874966174364" lon="-8.692964985966682">
        <ele>50.609999999999999</ele>
        <time>2025-05-07T07:35:53Z</time>
      </trkpt>
      <trkpt lat="37.101881001144648" lon="-8.692986024543643">
        <ele>50.609999999999999</ele>
        <time>2025-05-07T07:35:54Z</time>
      </trkpt>
      <trkpt lat="37.10188795812428" lon="-8.693006979301572">
        <ele>50.609999999999999</ele>
        <time>2025-05-07T07:35:55Z</time>
      </trkpt>
      <trkpt lat="37.101897010579705" lon="-8.693032963201404">
        <ele>50.609999999999999</ele>
        <time>2025-05-07T07:35:56Z</time>
      </trkpt>
      <trkpt lat="37.101905979216099" lon="-8.693060958757997">
        <ele>50.130000000000003</ele>
        <time>2025-05-07T07:35:57Z</time>
      </trkpt>
      <trkpt lat="37.101917965337634" lon="-8.693099012598395">
        <ele>49.649999999999999</ele>
        <time>2025-05-07T07:35:58Z</time>
      </trkpt>
      <trkpt lat="37.101933974772692" lon="-8.693147040903568">
        <ele>49.159999999999997</ele>
        <time>2025-05-07T07:35:59Z</time>
      </trkpt>
      <trkpt lat="37.102192975580692" lon="-8.693523975089192">
        <ele>45.799999999999997</ele>
        <time>2025-05-07T07:36:07Z</time>
      </trkpt>
      <trkpt lat="37.102217031642795" lon="-8.693534033372998">
        <ele>45.32</ele>
        <time>2025-05-07T07:36:08Z</time>
      </trkpt>
      <trkpt lat="37.102267993614078" lon="-8.693554988130927">
        <ele>44.840000000000003</ele>
        <time>2025-05-07T07:36:09Z</time>
      </trkpt>
      <trkpt lat="37.102241003885865" lon="-8.693488016724587">
        <ele>44.359999999999999</ele>
        <time>2025-05-07T07:36:10Z</time>
      </trkpt>
      <trkpt lat="37.102221976965666" lon="-8.693437976762652">
        <ele>43.880000000000003</ele>
        <time>2025-05-07T07:36:11Z</time>
      </trkpt>
      <trkpt lat="37.102193981409073" lon="-8.693368993699551">
        <ele>43.399999999999999</ele>
        <time>2025-05-07T07:36:12Z</time>
      </trkpt>
      <trkpt lat="37.102160034701228" lon="-8.693285007029772">
        <ele>42.920000000000002</ele>
        <time>2025-05-07T07:36:13Z</time>
      </trkpt>
      <trkpt lat="37.102124998345971" lon="-8.69319599121809">
        <ele>42.439999999999998</ele>
        <time>2025-05-07T07:36:14Z</time>
      </trkpt>
      <trkpt lat="37.101674973964691" lon="-8.692139033228159">
        <ele>40.509999999999998</ele>
        <time>2025-05-07T07:36:25Z</time>
      </trkpt>
      <trkpt lat="37.101647984236479" lon="-8.692097961902618">
        <ele>40.990000000000002</ele>
        <time>2025-05-07T07:36:26Z</time>
      </trkpt>
      <trkpt lat="37.10162996314466" lon="-8.692071978002787">
        <ele>41.469999999999999</ele>
        <time>2025-05-07T07:36:27Z</time>
      </trkpt>
      <trkpt lat="37.10162996314466" lon="-8.692071978002787">
        <ele>41.950000000000003</ele>
        <time>2025-05-07T07:36:32Z</time>
      </trkpt>
      <trkpt lat="37.101566009223461" lon="-8.692068960517645">
        <ele>42.920000000000002</ele>
        <time>2025-05-07T07:36:34Z</time>
      </trkpt>
      <trkpt lat="37.101568020880222" lon="-8.692111037671566">
        <ele>43.399999999999999</ele>
        <time>2025-05-07T07:36:35Z</time>
      </trkpt>
      <trkpt lat="37.101572966203094" lon="-8.692191001027823">
        <ele>43.399999999999999</ele>
        <time>2025-05-07T07:36:36Z</time>
      </trkpt>
      <trkpt lat="37.101579001173377" lon="-8.692295020446181">
        <ele>43.880000000000003</ele>
        <time>2025-05-07T07:36:37Z</time>
      </trkpt>
      <trkpt lat="37.101585958153009" lon="-8.692418988794088">
        <ele>43.880000000000003</ele>
        <time>2025-05-07T07:36:38Z</time>
      </trkpt>
      <trkpt lat="37.10167002864182" lon="-8.693773001432419">
        <ele>48.200000000000003</ele>
        <time>2025-05-07T07:36:46Z</time>
      </trkpt>
      <trkpt lat="37.101678997278214" lon="-8.693932006135583">
        <ele>49.159999999999997</ele>
        <time>2025-05-07T07:36:47Z</time>
      </trkpt>
      <trkpt lat="37.101686960086226" lon="-8.694058991968632">
        <ele>49.649999999999999</ele>
        <time>2025-05-07T07:36:48Z</time>
      </trkpt>
      <trkpt lat="37.101882006973028" lon="-8.694154964759946">
        <ele>50.130000000000003</ele>
        <time>2025-05-07T07:36:49Z</time>
      </trkpt>
      <trkpt lat="37.101929029449821" lon="-8.694213973358274">
        <ele>50.130000000000003</ele>
        <time>2025-05-07T07:36:50Z</time>
      </trkpt>
      <trkpt lat="37.102007986977696" lon="-8.694312963634729">
        <ele>50.609999999999999</ele>
        <time>2025-05-07T07:36:51Z</time>
      </trkpt>
      <trkpt lat="37.102066995576024" lon="-8.694451013579965">
        <ele>51.090000000000003</ele>
        <time>2025-05-07T07:36:52Z</time>
      </trkpt>
      <trkpt lat="37.102064983919263" lon="-8.694587973877788">
        <ele>51.57</ele>
        <time>2025-05-07T07:36:53Z</time>
      </trkpt>
      <trkpt lat="37.102044029161334" lon="-8.694716971367598">
        <ele>52.049999999999997</ele>
        <time>2025-05-07T07:36:54Z</time>
      </trkpt>
      <trkpt lat="37.101996000856161" lon="-8.694837000221014">
        <ele>52.530000000000001</ele>
        <time>2025-05-07T07:36:55Z</time>
      </trkpt>
      <trkpt lat="37.10190799087286" lon="-8.694950994104147">
        <ele>52.530000000000001</ele>
        <time>2025-05-07T07:36:56Z</time>
      </trkpt>
      <trkpt lat="37.101797014474869" lon="-8.69497898966074">
        <ele>53.009999999999998</ele>
        <time>2025-05-07T07:36:57Z</time>
      </trkpt>
      <trkpt lat="37.10169299505651" lon="-8.694989969953895">
        <ele>53.490000000000002</ele>
        <time>2025-05-07T07:36:58Z</time>
      </trkpt>
      <trkpt lat="37.101598028093576" lon="-8.694945964962244">
        <ele>53.969999999999999</ele>
        <time>2025-05-07T07:36:59Z</time>
      </trkpt>
      <trkpt lat="37.101509012281895" lon="-8.694887040182948">
        <ele>53.969999999999999</ele>
        <time>2025-05-07T07:37:00Z</time>
      </trkpt>
      <trkpt lat="37.101447992026806" lon="-8.694785032421351">
        <ele>53.969999999999999</ele>
        <time>2025-05-07T07:37:01Z</time>
      </trkpt>
      <trkpt lat="37.101410022005439" lon="-8.694670032709837">
        <ele>54.450000000000003</ele>
        <time>2025-05-07T07:37:02Z</time>
      </trkpt>
      <trkpt lat="37.101410022005439" lon="-8.69452896527946">
        <ele>54.450000000000003</ele>
        <time>2025-05-07T07:37:03Z</time>
      </trkpt>
      <trkpt lat="37.101425025612116" lon="-8.694393010810018">
        <ele>54.450000000000003</ele>
        <time>2025-05-07T07:37:04Z</time>
      </trkpt>
      <trkpt lat="37.101453021168709" lon="-8.694283962249756">
        <ele>53.969999999999999</ele>
        <time>2025-05-07T07:37:05Z</time>
      </trkpt>
      <trkpt lat="37.101569026708603" lon="-8.694188995286822">
        <ele>53.969999999999999</ele>
        <time>2025-05-07T07:37:06Z</time>
      </trkpt>
      <trkpt lat="37.101682014763355" lon="-8.693979028612375">
        <ele>53.969999999999999</ele>
        <time>2025-05-07T07:37:07Z</time>
      </trkpt>
      <trkpt lat="37.10167296230793" lon="-8.693819018080831">
        <ele>53.490000000000002</ele>
        <time>2025-05-07T07:37:08Z</time>
      </trkpt>
      <trkpt lat="37.101663993671536" lon="-8.693649033084512">
        <ele>53.009999999999998</ele>
        <time>2025-05-07T07:37:09Z</time>
      </trkpt>
      <trkpt lat="37.101547988131642" lon="-8.691651038825512">
        <ele>48.68</ele>
        <time>2025-05-07T07:37:20Z</time>
      </trkpt>
      <trkpt lat="37.101451009511948" lon="-8.690112959593535">
        <ele>47.719999999999999</ele>
        <time>2025-05-07T07:37:30Z</time>
      </trkpt>
      <trkpt lat="37.101249005645514" lon="-8.688300037756562">
        <ele>46.280000000000001</ele>
        <time>2025-05-07T07:37:41Z</time>
      </trkpt>
      <trkpt lat="37.101225033402443" lon="-8.688187971711159">
        <ele>46.759999999999998</ele>
        <time>2025-05-07T07:37:42Z</time>
      </trkpt>
      <trkpt lat="37.10119703784585" lon="-8.688093004748225">
        <ele>46.759999999999998</ele>
        <time>2025-05-07T07:37:43Z</time>
      </trkpt>
      <trkpt lat="37.101163007318974" lon="-8.687999965623021">
        <ele>46.759999999999998</ele>
        <time>2025-05-07T07:37:44Z</time>
      </trkpt>
      <trkpt lat="37.101127970963717" lon="-8.687907010316849">
        <ele>46.759999999999998</ele>
        <time>2025-05-07T07:37:45Z</time>
      </trkpt>
      <trkpt lat="37.101079020649195" lon="-8.687820006161928">
        <ele>47.240000000000002</ele>
        <time>2025-05-07T07:37:46Z</time>
      </trkpt>
      <trkpt lat="37.101060999557376" lon="-8.687711963430047">
        <ele>47.240000000000002</ele>
        <time>2025-05-07T07:37:47Z</time>
      </trkpt>
      <trkpt lat="37.101090000942349" lon="-8.687626970931888">
        <ele>47.240000000000002</ele>
        <time>2025-05-07T07:37:48Z</time>
      </trkpt>
      <trkpt lat="37.101101987063885" lon="-8.687505014240742">
        <ele>47.240000000000002</ele>
        <time>2025-05-07T07:37:49Z</time>
      </trkpt>
      <trkpt lat="37.101078014820814" lon="-8.687298987060785">
        <ele>46.280000000000001</ele>
        <time>2025-05-07T07:37:51Z</time>
      </trkpt>
      <trkpt lat="37.101065022870898" lon="-8.687190022319555">
        <ele>46.280000000000001</ele>
        <time>2025-05-07T07:37:52Z</time>
      </trkpt>
      <trkpt lat="37.100890008732677" lon="-8.685946986079216">
        <ele>44.840000000000003</ele>
        <time>2025-05-07T07:38:01Z</time>
      </trkpt>
      <trkpt lat="37.100834017619491" lon="-8.685630988329649">
        <ele>44.359999999999999</ele>
        <time>2025-05-07T07:38:03Z</time>
      </trkpt>
      <trkpt lat="37.100807027891278" lon="-8.685473995283246">
        <ele>44.359999999999999</ele>
        <time>2025-05-07T07:38:04Z</time>
      </trkpt>
      <trkpt lat="37.100706025958061" lon="-8.684861026704311">
        <ele>46.280000000000001</ele>
        <time>2025-05-07T07:38:08Z</time>
      </trkpt>
      <trkpt lat="37.10068398155272" lon="-8.684719037264586">
        <ele>47.240000000000002</ele>
        <time>2025-05-07T07:38:09Z</time>
      </trkpt>
      <trkpt lat="37.100612986832857" lon="-8.684280999004841">
        <ele>49.649999999999999</ele>
        <time>2025-05-07T07:38:12Z</time>
      </trkpt>
      <trkpt lat="37.100590020418167" lon="-8.684132974594832">
        <ele>50.609999999999999</ele>
        <time>2025-05-07T07:38:13Z</time>
      </trkpt>
      <trkpt lat="37.100419029593468" lon="-8.683156985789537">
        <ele>55.890000000000001</ele>
        <time>2025-05-07T07:38:21Z</time>
      </trkpt>
      <trkpt lat="37.100415006279945" lon="-8.683132007718086">
        <ele>56.369999999999997</ele>
        <time>2025-05-07T07:38:22Z</time>
      </trkpt>
      <trkpt lat="37.100415006279945" lon="-8.683132007718086">
        <ele>56.369999999999997</ele>
        <time>2025-05-07T07:38:34Z</time>
      </trkpt>
      <trkpt lat="37.100412994623184" lon="-8.683124966919422">
        <ele>56.369999999999997</ele>
        <time>2025-05-07T07:38:37Z</time>
      </trkpt>
      <trkpt lat="37.100363960489631" lon="-8.682855991646648">
        <ele>56.859999999999999</ele>
        <time>2025-05-07T07:38:42Z</time>
      </trkpt>
      <trkpt lat="37.100352980196476" lon="-8.682795977219939">
        <ele>56.859999999999999</ele>
        <time>2025-05-07T07:38:43Z</time>
      </trkpt>
      <trkpt lat="37.100343005731702" lon="-8.682737974449992">
        <ele>56.369999999999997</ele>
        <time>2025-05-07T07:38:44Z</time>
      </trkpt>
      <trkpt lat="37.100322972983122" lon="-8.68262599222362">
        <ele>56.369999999999997</ele>
        <time>2025-05-07T07:38:46Z</time>
      </trkpt>
      <trkpt lat="37.100312998518348" lon="-8.682565977796912">
        <ele>55.890000000000001</ele>
        <time>2025-05-07T07:38:47Z</time>
      </trkpt>
      <trkpt lat="37.100305035710335" lon="-8.682520966976881">
        <ele>55.890000000000001</ele>
        <time>2025-05-07T07:38:48Z</time>
      </trkpt>
      <trkpt lat="37.100293971598148" lon="-8.682461036369205">
        <ele>55.409999999999997</ele>
        <time>2025-05-07T07:38:50Z</time>
      </trkpt>
      <trkpt lat="37.100254995748401" lon="-8.682147972285748">
        <ele>52.049999999999997</ele>
        <time>2025-05-07T07:38:59Z</time>
      </trkpt>
      <trkpt lat="37.10010102018714" lon="-8.681839015334845">
        <ele>49.159999999999997</ele>
        <time>2025-05-07T07:39:08Z</time>
      </trkpt>
      <trkpt lat="37.100180983543396" lon="-8.681600969284773">
        <ele>48.68</ele>
        <time>2025-05-07T07:39:09Z</time>
      </trkpt>
      <trkpt lat="37.100149970501661" lon="-8.68148404173553">
        <ele>48.200000000000003</ele>
        <time>2025-05-07T07:39:10Z</time>
      </trkpt>
      <trkpt lat="37.100118035450578" lon="-8.681363007053733">
        <ele>48.200000000000003</ele>
        <time>2025-05-07T07:39:11Z</time>
      </trkpt>
      <trkpt lat="37.100085010752082" lon="-8.681236021220684">
        <ele>48.200000000000003</ele>
        <time>2025-05-07T07:39:12Z</time>
      </trkpt>
      <trkpt lat="37.099817963317037" lon="-8.680337984114885">
        <ele>46.759999999999998</ele>
        <time>2025-05-07T07:39:19Z</time>
      </trkpt>
      <trkpt lat="37.099747974425554" lon="-8.680223990231752">
        <ele>46.759999999999998</ele>
        <time>2025-05-07T07:39:20Z</time>
      </trkpt>
      <trkpt lat="37.099665999412537" lon="-8.680115025490522">
        <ele>46.759999999999998</ele>
        <time>2025-05-07T07:39:21Z</time>
      </trkpt>
      <trkpt lat="37.099584024399519" lon="-8.68000497110188">
        <ele>46.759999999999998</ele>
        <time>2025-05-07T07:39:22Z</time>
      </trkpt>
      <trkpt lat="37.099496014416218" lon="-8.679912015795708">
        <ele>47.240000000000002</ele>
        <time>2025-05-07T07:39:23Z</time>
      </trkpt>
      <trkpt lat="37.099398029968143" lon="-8.67983196862042">
        <ele>47.719999999999999</ele>
        <time>2025-05-07T07:39:24Z</time>
      </trkpt>
      <trkpt lat="37.099299961701035" lon="-8.679752005264163">
        <ele>48.200000000000003</ele>
        <time>2025-05-07T07:39:25Z</time>
      </trkpt>
      <trkpt lat="37.099107010290027" lon="-8.67959400638938">
        <ele>48.68</ele>
        <time>2025-05-07T07:39:27Z</time>
      </trkpt>
      <trkpt lat="37.097968999296427" lon="-8.678846005350351">
        <ele>50.130000000000003</ele>
        <time>2025-05-07T07:39:38Z</time>
      </trkpt>
      <trkpt lat="37.096608029678464" lon="-8.678007982671261">
        <ele>53.969999999999999</ele>
        <time>2025-05-07T07:39:51Z</time>
      </trkpt>
      <trkpt lat="37.095842007547617" lon="-8.677136013284326">
        <ele>52.049999999999997</ele>
        <time>2025-05-07T07:40:00Z</time>
      </trkpt>
      <trkpt lat="37.09572097286582" lon="-8.676894027739763">
        <ele>51.57</ele>
        <time>2025-05-07T07:40:02Z</time>
      </trkpt>
      <trkpt lat="37.095445040613413" lon="-8.675682004541159">
        <ele>53.490000000000002</ele>
        <time>2025-05-07T07:40:11Z</time>
      </trkpt>
      <trkpt lat="37.095445040613413" lon="-8.675572033971548">
        <ele>53.490000000000002</ele>
        <time>2025-05-07T07:40:12Z</time>
      </trkpt>
      <trkpt lat="37.095445040613413" lon="-8.675471032038331">
        <ele>53.490000000000002</ele>
        <time>2025-05-07T07:40:13Z</time>
      </trkpt>
      <trkpt lat="37.095445040613413" lon="-8.67538302205503">
        <ele>53.009999999999998</ele>
        <time>2025-05-07T07:40:14Z</time>
      </trkpt>
      <trkpt lat="37.095445040613413" lon="-8.675309009850025">
        <ele>53.009999999999998</ele>
        <time>2025-05-07T07:40:15Z</time>
      </trkpt>
      <trkpt lat="37.095445040613413" lon="-8.675142964348197">
        <ele>52.049999999999997</ele>
        <time>2025-05-07T07:40:18Z</time>
      </trkpt>
      <trkpt lat="37.095445040613413" lon="-8.675085967406631">
        <ele>52.049999999999997</ele>
        <time>2025-05-07T07:40:19Z</time>
      </trkpt>
      <trkpt lat="37.095336997881532" lon="-8.674994017928839">
        <ele>51.57</ele>
        <time>2025-05-07T07:40:20Z</time>
      </trkpt>
      <trkpt lat="37.095319982618093" lon="-8.674925034865737">
        <ele>51.090000000000003</ele>
        <time>2025-05-07T07:40:22Z</time>
      </trkpt>
      <trkpt lat="37.095303973183036" lon="-8.674858985468745">
        <ele>50.609999999999999</ele>
        <time>2025-05-07T07:40:23Z</time>
      </trkpt>
      <trkpt lat="37.095313025638461" lon="-8.674756977707148">
        <ele>50.609999999999999</ele>
        <time>2025-05-07T07:40:24Z</time>
      </trkpt>
      <trkpt lat="37.09533398039639" lon="-8.674682965502143">
        <ele>50.130000000000003</ele>
        <time>2025-05-07T07:40:25Z</time>
      </trkpt>
      <trkpt lat="37.095336997881532" lon="-8.674671985208988">
        <ele>50.130000000000003</ele>
        <time>2025-05-07T07:40:26Z</time>
      </trkpt>
      <trkpt lat="37.095422996208072" lon="-8.674522032961249">
        <ele>49.649999999999999</ele>
        <time>2025-05-07T07:40:27Z</time>
      </trkpt>
      <trkpt lat="37.095422996208072" lon="-8.674429999664426">
        <ele>49.159999999999997</ele>
        <time>2025-05-07T07:40:28Z</time>
      </trkpt>
      <trkpt lat="37.095422996208072" lon="-8.674328997731209">
        <ele>49.159999999999997</ele>
        <time>2025-05-07T07:40:29Z</time>
      </trkpt>
      <trkpt lat="37.095456020906568" lon="-8.67306299507618">
        <ele>50.130000000000003</ele>
        <time>2025-05-07T07:40:39Z</time>
      </trkpt>
      <trkpt lat="37.095488039776683" lon="-8.671578979119659">
        <ele>48.68</ele>
        <time>2025-05-07T07:40:50Z</time>
      </trkpt>
      <trkpt lat="37.095544030889869" lon="-8.670255979523063">
        <ele>44.840000000000003</ele>
        <time>2025-05-07T07:41:01Z</time>
      </trkpt>
      <trkpt lat="37.095680991187692" lon="-8.669792963191867">
        <ele>42.439999999999998</ele>
        <time>2025-05-07T07:41:06Z</time>
      </trkpt>
      <trkpt lat="37.095762966200709" lon="-8.669602023437619">
        <ele>41.469999999999999</ele>
        <time>2025-05-07T07:41:08Z</time>
      </trkpt>
      <trkpt lat="37.096207039430737" lon="-8.669002968817949">
        <ele>38.109999999999999</ele>
        <time>2025-05-07T07:41:15Z</time>
      </trkpt>
      <trkpt lat="37.096288008615375" lon="-8.668953012675047">
        <ele>37.630000000000003</ele>
        <time>2025-05-07T07:41:16Z</time>
      </trkpt>
      <trkpt lat="37.096367971971631" lon="-8.668903978541493">
        <ele>37.149999999999999</ele>
        <time>2025-05-07T07:41:17Z</time>
      </trkpt>
      <trkpt lat="37.0964490249753" lon="-8.668854022398591">
        <ele>36.189999999999998</ele>
        <time>2025-05-07T07:41:18Z</time>
      </trkpt>
      <trkpt lat="37.096528988331556" lon="-8.668804988265038">
        <ele>35.710000000000001</ele>
        <time>2025-05-07T07:41:19Z</time>
      </trkpt>
      <trkpt lat="37.096667038276792" lon="-8.668719995766878">
        <ele>34.740000000000002</ele>
        <time>2025-05-07T07:41:21Z</time>
      </trkpt>
      <trkpt lat="37.096719006076455" lon="-8.66863701492548">
        <ele>34.259999999999998</ele>
        <time>2025-05-07T07:41:22Z</time>
      </trkpt>
      <trkpt lat="37.096817996352911" lon="-8.668512962758541">
        <ele>32.82</ele>
        <time>2025-05-07T07:41:25Z</time>
      </trkpt>
      <trkpt lat="37.096860995516181" lon="-8.668511034920812">
        <ele>32.340000000000003</ele>
        <time>2025-05-07T07:41:26Z</time>
      </trkpt>
      <trkpt lat="37.096905000507832" lon="-8.668509023264051">
        <ele>31.859999999999999</ele>
        <time>2025-05-07T07:41:27Z</time>
      </trkpt>
      <trkpt lat="37.096949005499482" lon="-8.668507011607289">
        <ele>31.379999999999999</ele>
        <time>2025-05-07T07:41:28Z</time>
      </trkpt>
      <trkpt lat="37.096989993005991" lon="-8.668504999950528">
        <ele>30.899999999999999</ele>
        <time>2025-05-07T07:41:29Z</time>
      </trkpt>
      <trkpt lat="37.097176993265748" lon="-8.668496031314135">
        <ele>28.02</ele>
        <time>2025-05-07T07:41:35Z</time>
      </trkpt>
      <trkpt lat="37.097196020185947" lon="-8.668495025485754">
        <ele>28.02</ele>
        <time>2025-05-07T07:41:36Z</time>
      </trkpt>
      <trkpt lat="37.097214041277766" lon="-8.668495025485754">
        <ele>27.530000000000001</ele>
        <time>2025-05-07T07:41:37Z</time>
      </trkpt>
      <trkpt lat="37.097228961065412" lon="-8.668494019657373">
        <ele>27.050000000000001</ele>
        <time>2025-05-07T07:41:51Z</time>
      </trkpt>
      <trkpt lat="37.097269026562572" lon="-8.668492008000612">
        <ele>26.09</ele>
        <time>2025-05-07T07:42:23Z</time>
      </trkpt>
      <trkpt lat="37.0973090082407" lon="-8.668523021042347">
        <ele>25.609999999999999</ele>
        <time>2025-05-07T07:42:24Z</time>
      </trkpt>
      <trkpt lat="37.097329962998629" lon="-8.668540036305785">
        <ele>25.129999999999999</ele>
        <time>2025-05-07T07:42:25Z</time>
      </trkpt>
      <trkpt lat="37.097349995747209" lon="-8.668555039912462">
        <ele>25.129999999999999</ele>
        <time>2025-05-07T07:42:26Z</time>
      </trkpt>
      <trkpt lat="37.097370028495789" lon="-8.668569959700108">
        <ele>24.649999999999999</ele>
        <time>2025-05-07T07:42:27Z</time>
      </trkpt>
      <trkpt lat="37.097387965768576" lon="-8.668584963306785">
        <ele>24.170000000000002</ele>
        <time>2025-05-07T07:42:28Z</time>
      </trkpt>
      <trkpt lat="37.09739601239562" lon="-8.668590998277068">
        <ele>24.170000000000002</ele>
        <time>2025-05-07T07:42:31Z</time>
      </trkpt>
      <trkpt lat="37.097416967153549" lon="-8.668608013540506">
        <ele>23.690000000000001</ele>
        <time>2025-05-07T07:42:32Z</time>
      </trkpt>
      <trkpt lat="37.097462983801961" lon="-8.668641960248351">
        <ele>23.210000000000001</ele>
        <time>2025-05-07T07:42:33Z</time>
      </trkpt>
      <trkpt lat="37.09752500988543" lon="-8.668646989390254">
        <ele>22.73</ele>
        <time>2025-05-07T07:42:34Z</time>
      </trkpt>
      <trkpt lat="37.097597010433674" lon="-8.668653024360538">
        <ele>22.25</ele>
        <time>2025-05-07T07:42:35Z</time>
      </trkpt>
      <trkpt lat="37.09767404012382" lon="-8.668658975511789">
        <ele>22.25</ele>
        <time>2025-05-07T07:42:36Z</time>
      </trkpt>
      <trkpt lat="37.098408965393901" lon="-8.668718989938498">
        <ele>17.440000000000001</ele>
        <time>2025-05-07T07:42:48Z</time>
      </trkpt>
      <trkpt lat="37.098464034497738" lon="-8.668724019080401">
        <ele>16.960000000000001</ele>
        <time>2025-05-07T07:42:49Z</time>
      </trkpt>
      <trkpt lat="37.098522959277034" lon="-8.668728964403272">
        <ele>16.960000000000001</ele>
        <time>2025-05-07T07:42:50Z</time>
      </trkpt>
      <trkpt lat="37.098581967875361" lon="-8.668732987716794">
        <ele>16.48</ele>
        <time>2025-05-07T07:42:51Z</time>
      </trkpt>
      <trkpt lat="37.098633013665676" lon="-8.668737011030316">
        <ele>16.48</ele>
        <time>2025-05-07T07:42:52Z</time>
      </trkpt>
      <trkpt lat="37.098672995343804" lon="-8.668740028515458">
        <ele>16</ele>
        <time>2025-05-07T07:42:53Z</time>
      </trkpt>
      <trkpt lat="37.098703002557158" lon="-8.668742962181568">
        <ele>16</ele>
        <time>2025-05-07T07:42:54Z</time>
      </trkpt>
      <trkpt lat="37.098723035305738" lon="-8.668743968009949">
        <ele>15.52</ele>
        <time>2025-05-07T07:42:55Z</time>
      </trkpt>
      <trkpt lat="37.098733009770513" lon="-8.668744973838329">
        <ele>15.039999999999999</ele>
        <time>2025-05-07T07:42:56Z</time>
      </trkpt>
      <trkpt lat="37.098652962595224" lon="-8.668837007135153">
        <ele>13.119999999999999</ele>
        <time>2025-05-07T07:43:04Z</time>
      </trkpt>
      <trkpt lat="37.098631002008915" lon="-8.668935997411609">
        <ele>18.399999999999999</ele>
        <time>2025-05-07T08:27:22Z</time>
      </trkpt>
      <trkpt lat="37.098623961210251" lon="-8.668914036825299">
        <ele>14.56</ele>
        <time>2025-05-07T08:28:03Z</time>
      </trkpt>
      <trkpt lat="37.098643993958831" lon="-8.668888974934816">
        <ele>14.08</ele>
        <time>2025-05-07T08:28:34Z</time>
      </trkpt>
      <trkpt lat="37.098704008385539" lon="-8.668877994641662">
        <ele>13.6</ele>
        <time>2025-05-07T08:28:56Z</time>
      </trkpt>
      <trkpt lat="37.098699985072017" lon="-8.668862991034985">
        <ele>13.6</ele>
        <time>2025-05-07T08:28:57Z</time>
      </trkpt>
      <trkpt lat="37.098709037527442" lon="-8.668768024072051">
        <ele>12.15</ele>
        <time>2025-05-07T08:29:10Z</time>
      </trkpt>
      <trkpt lat="37.098722029477358" lon="-8.668743968009949">
        <ele>12.15</ele>
        <time>2025-05-07T08:29:11Z</time>
      </trkpt>
      <trkpt lat="37.098752036690712" lon="-8.66874597966671">
        <ele>12.15</ele>
        <time>2025-05-07T08:29:12Z</time>
      </trkpt>
      <trkpt lat="37.098802998661995" lon="-8.668753020465374">
        <ele>11.67</ele>
        <time>2025-05-07T08:29:13Z</time>
      </trkpt>
      <trkpt lat="37.098868964239955" lon="-8.668771963566542">
        <ele>11.67</ele>
        <time>2025-05-07T08:29:14Z</time>
      </trkpt>
      <trkpt lat="37.098940964788198" lon="-8.668794007971883">
        <ele>11.19</ele>
        <time>2025-05-07T08:29:15Z</time>
      </trkpt>
      <trkpt lat="37.099097035825253" lon="-8.668841030448675">
        <ele>10.23</ele>
        <time>2025-05-07T08:29:17Z</time>
      </trkpt>
      <trkpt lat="37.099878983572125" lon="-8.669191980734468">
        <ele>8.310000000000001</ele>
        <time>2025-05-07T08:29:26Z</time>
      </trkpt>
      <trkpt lat="37.099979985505342" lon="-8.669254006817937">
        <ele>8.789999999999999</ele>
        <time>2025-05-07T08:29:27Z</time>
      </trkpt>
      <trkpt lat="37.100082999095321" lon="-8.669317960739136">
        <ele>9.27</ele>
        <time>2025-05-07T08:29:28Z</time>
      </trkpt>
      <trkpt lat="37.100731004029512" lon="-8.669895976781845">
        <ele>9.27</ele>
        <time>2025-05-07T08:29:37Z</time>
      </trkpt>
      <trkpt lat="37.100808033719659" lon="-8.669979041442275">
        <ele>9.27</ele>
        <time>2025-05-07T08:29:39Z</time>
      </trkpt>
      <trkpt lat="37.100843992084265" lon="-8.670019023120403">
        <ele>9.27</ele>
        <time>2025-05-07T08:29:40Z</time>
      </trkpt>
      <trkpt lat="37.100884979590774" lon="-8.670063028112054">
        <ele>9.75</ele>
        <time>2025-05-07T08:29:41Z</time>
      </trkpt>
      <trkpt lat="37.100936025381088" lon="-8.670118013396859">
        <ele>9.75</ele>
        <time>2025-05-07T08:29:42Z</time>
      </trkpt>
      <trkpt lat="37.100996961817145" lon="-8.670181967318058">
        <ele>10.23</ele>
        <time>2025-05-07T08:29:43Z</time>
      </trkpt>
      <trkpt lat="37.101441035047174" lon="-8.670611958950758">
        <ele>11.67</ele>
        <time>2025-05-07T08:29:51Z</time>
      </trkpt>
      <trkpt lat="37.101530972868204" lon="-8.670697035267949">
        <ele>11.67</ele>
        <time>2025-05-07T08:29:54Z</time>
      </trkpt>
      <trkpt lat="37.102003963664174" lon="-8.671120991930366">
        <ele>11.19</ele>
        <time>2025-05-07T08:30:02Z</time>
      </trkpt>
      <trkpt lat="37.102834023535252" lon="-8.671789029613137">
        <ele>6.87</ele>
        <time>2025-05-07T08:30:12Z</time>
      </trkpt>
      <trkpt lat="37.103426037356257" lon="-8.672224972397089">
        <ele>4.94</ele>
        <time>2025-05-07T08:30:20Z</time>
      </trkpt>
      <trkpt lat="37.103993995115161" lon="-8.672597967088223">
        <ele>5.42</ele>
        <time>2025-05-07T08:30:29Z</time>
      </trkpt>
      <trkpt lat="37.104085022583604" lon="-8.672665022313595">
        <ele>5.91</ele>
        <time>2025-05-07T08:30:31Z</time>
      </trkpt>
      <trkpt lat="37.104131039232016" lon="-8.67269997484982">
        <ele>5.91</ele>
        <time>2025-05-07T08:30:32Z</time>
      </trkpt>
      <trkpt lat="37.104180995374918" lon="-8.672735011205077">
        <ele>6.39</ele>
        <time>2025-05-07T08:30:33Z</time>
      </trkpt>
      <trkpt lat="37.104324996471405" lon="-8.672831989824772">
        <ele>6.39</ele>
        <time>2025-05-07T08:30:36Z</time>
      </trkpt>
      <trkpt lat="37.104481989517808" lon="-8.673008009791374">
        <ele>5.91</ele>
        <time>2025-05-07T08:30:39Z</time>
      </trkpt>
      <trkpt lat="37.104547033086419" lon="-8.673051008954644">
        <ele>5.42</ele>
        <time>2025-05-07T08:30:40Z</time>
      </trkpt>
      <trkpt lat="37.105100993067026" lon="-8.673433978110552">
        <ele>3.98</ele>
        <time>2025-05-07T08:30:49Z</time>
      </trkpt>
      <trkpt lat="37.105811024084687" lon="-8.673908980563283">
        <ele>2.06</ele>
        <time>2025-05-07T08:31:00Z</time>
      </trkpt>
      <trkpt lat="37.106543015688658" lon="-8.674434022977948">
        <ele>-0.82</ele>
        <time>2025-05-07T08:31:10Z</time>
      </trkpt>
      <trkpt lat="37.107626041397452" lon="-8.675176994875073">
        <ele>-0.82</ele>
        <time>2025-05-07T08:31:23Z</time>
      </trkpt>
      <trkpt lat="37.108689034357667" lon="-8.675918038934469">
        <ele>1.1</ele>
        <time>2025-05-07T08:31:36Z</time>
      </trkpt>
      <trkpt lat="37.109403004869819" lon="-8.67643503472209">
        <ele>0.62</ele>
        <time>2025-05-07T08:31:48Z</time>
      </trkpt>
      <trkpt lat="37.10970701649785" lon="-8.676637038588524">
        <ele>-1.3</ele>
        <time>2025-05-07T08:31:56Z</time>
      </trkpt>
      <trkpt lat="37.109995018690825" lon="-8.676857985556126">
        <ele>-2.75</ele>
        <time>2025-05-07T08:32:00Z</time>
      </trkpt>
      <trkpt lat="37.11026499979198" lon="-8.677137019112706">
        <ele>-1.79</ele>
        <time>2025-05-07T08:32:04Z</time>
      </trkpt>
      <trkpt lat="37.110298024490476" lon="-8.677181024104357">
        <ele>-1.3</ele>
        <time>2025-05-07T08:32:05Z</time>
      </trkpt>
      <trkpt lat="37.110384022817016" lon="-8.67729501798749">
        <ele>1.1</ele>
        <time>2025-05-07T08:32:14Z</time>
      </trkpt>
      <trkpt lat="37.110439008101821" lon="-8.677348997443914">
        <ele>2.54</ele>
        <time>2025-05-07T08:32:16Z</time>
      </trkpt>
      <trkpt lat="37.110577980056405" lon="-8.677371963858604">
        <ele>2.54</ele>
        <time>2025-05-07T08:32:17Z</time>
      </trkpt>
      <trkpt lat="37.110634976997972" lon="-8.677332988008857">
        <ele>3.02</ele>
        <time>2025-05-07T08:32:18Z</time>
      </trkpt>
      <trkpt lat="37.110699014738202" lon="-8.677290994673967">
        <ele>3.5</ele>
        <time>2025-05-07T08:32:19Z</time>
      </trkpt>
      <trkpt lat="37.11076196283102" lon="-8.677249001339078">
        <ele>3.98</ele>
        <time>2025-05-07T08:32:20Z</time>
      </trkpt>
      <trkpt lat="37.110820971429348" lon="-8.67720901966095">
        <ele>3.98</ele>
        <time>2025-05-07T08:32:21Z</time>
      </trkpt>
      <trkpt lat="37.110874028876424" lon="-8.677173983305693">
        <ele>4.46</ele>
        <time>2025-05-07T08:32:22Z</time>
      </trkpt>
      <trkpt lat="37.110927002504468" lon="-8.677140958607197">
        <ele>4.94</ele>
        <time>2025-05-07T08:32:23Z</time>
      </trkpt>
      <trkpt lat="37.111625969409943" lon="-8.676723958924413">
        <ele>7.83</ele>
        <time>2025-05-07T08:32:33Z</time>
      </trkpt>
      <trkpt lat="37.111892011016607" lon="-8.676565960049629">
        <ele>8.310000000000001</ele>
        <time>2025-05-07T08:32:38Z</time>
      </trkpt>
      <trkpt lat="37.112074987962842" lon="-8.676455989480019">
        <ele>8.310000000000001</ele>
        <time>2025-05-07T08:32:45Z</time>
      </trkpt>
      <trkpt lat="37.112113041803241" lon="-8.676434028893709">
        <ele>8.310000000000001</ele>
        <time>2025-05-07T08:32:46Z</time>
      </trkpt>
      <trkpt lat="37.112267017364502" lon="-8.676341995596886">
        <ele>8.310000000000001</ele>
        <time>2025-05-07T08:32:50Z</time>
      </trkpt>
      <trkpt lat="37.112310016527772" lon="-8.676317017525435">
        <ele>8.310000000000001</ele>
        <time>2025-05-07T08:32:51Z</time>
      </trkpt>
      <trkpt lat="37.112883003428578" lon="-8.676016023382545">
        <ele>7.35</ele>
        <time>2025-05-07T08:33:01Z</time>
      </trkpt>
      <trkpt lat="37.113435035571456" lon="-8.675572033971548">
        <ele>7.35</ele>
        <time>2025-05-07T08:33:12Z</time>
      </trkpt>
      <trkpt lat="37.113516004756093" lon="-8.675541020929813">
        <ele>7.35</ele>
        <time>2025-05-07T08:33:13Z</time>
      </trkpt>
      <trkpt lat="37.113582976162434" lon="-8.675570022314787">
        <ele>6.87</ele>
        <time>2025-05-07T08:33:14Z</time>
      </trkpt>
      <trkpt lat="37.113640978932381" lon="-8.675593994557858">
        <ele>6.39</ele>
        <time>2025-05-07T08:33:15Z</time>
      </trkpt>
      <trkpt lat="37.113699987530708" lon="-8.675801027566195">
        <ele>6.39</ele>
        <time>2025-05-07T08:33:16Z</time>
      </trkpt>
      <trkpt lat="37.113777017220855" lon="-8.675818964838982">
        <ele>6.39</ele>
        <time>2025-05-07T08:33:17Z</time>
      </trkpt>
      <trkpt lat="37.114012967795134" lon="-8.675875039771199">
        <ele>5.42</ele>
        <time>2025-05-07T08:33:20Z</time>
      </trkpt>
      <trkpt lat="37.114083962514997" lon="-8.675892977043986">
        <ele>5.42</ele>
        <time>2025-05-07T08:33:21Z</time>
      </trkpt>
      <trkpt lat="37.114135008305311" lon="-8.675902029499412">
        <ele>4.94</ele>
        <time>2025-05-07T08:33:22Z</time>
      </trkpt>
      <trkpt lat="37.114164009690285" lon="-8.675905968993902">
        <ele>4.94</ele>
        <time>2025-05-07T08:33:23Z</time>
      </trkpt>
      <trkpt lat="37.114182030782104" lon="-8.675908986479044">
        <ele>4.46</ele>
        <time>2025-05-07T08:33:24Z</time>
      </trkpt>
      <trkpt lat="37.114194016903639" lon="-8.675910998135805">
        <ele>4.46</ele>
        <time>2025-05-07T08:33:25Z</time>
      </trkpt>
      <trkpt lat="37.114285966381431" lon="-8.675924995914102">
        <ele>4.46</ele>
        <time>2025-05-07T08:33:31Z</time>
      </trkpt>
      <trkpt lat="37.114342041313648" lon="-8.675932958722115">
        <ele>4.46</ele>
        <time>2025-05-07T08:33:32Z</time>
      </trkpt>
      <trkpt lat="37.114630965515971" lon="-8.675885014235973">
        <ele>4.46</ele>
        <time>2025-05-07T08:33:36Z</time>
      </trkpt>
      <trkpt lat="37.114730961620808" lon="-8.675862969830632">
        <ele>3.98</ele>
        <time>2025-05-07T08:33:37Z</time>
      </trkpt>
      <trkpt lat="37.114826012402773" lon="-8.675803039222956">
        <ele>4.46</ele>
        <time>2025-05-07T08:33:38Z</time>
      </trkpt>
      <trkpt lat="37.114930031821132" lon="-8.675737995654345">
        <ele>4.46</ele>
        <time>2025-05-07T08:33:39Z</time>
      </trkpt>
      <trkpt lat="37.11503597907722" lon="-8.675672030076385">
        <ele>4.94</ele>
        <time>2025-05-07T08:33:40Z</time>
      </trkpt>
      <trkpt lat="37.115123989060521" lon="-8.675562981516123">
        <ele>4.94</ele>
        <time>2025-05-07T08:33:41Z</time>
      </trkpt>
      <trkpt lat="37.115203030407429" lon="-8.675449993461371">
        <ele>5.42</ele>
        <time>2025-05-07T08:33:42Z</time>
      </trkpt>
      <trkpt lat="37.116090003401041" lon="-8.674220032989979">
        <ele>7.35</ele>
        <time>2025-05-07T08:33:52Z</time>
      </trkpt>
      <trkpt lat="37.117175040766597" lon="-8.673426015302539">
        <ele>7.83</ele>
        <time>2025-05-07T08:33:59Z</time>
      </trkpt>
      <trkpt lat="37.11815002374351" lon="-8.673226023092866">
        <ele>7.83</ele>
        <time>2025-05-07T08:34:05Z</time>
      </trkpt>
      <trkpt lat="37.119042025879025" lon="-8.673189980909228">
        <ele>8.310000000000001</ele>
        <time>2025-05-07T08:34:13Z</time>
      </trkpt>
      <trkpt lat="37.120631989091635" lon="-8.673134995624423">
        <ele>6.87</ele>
        <time>2025-05-07T08:34:26Z</time>
      </trkpt>
      <trkpt lat="37.122713970020413" lon="-8.67308403365314">
        <ele>6.39</ele>
        <time>2025-05-07T08:34:40Z</time>
      </trkpt>
      <trkpt lat="37.124280966818333" lon="-8.672799970954657">
        <ele>10.23</ele>
        <time>2025-05-07T08:34:51Z</time>
      </trkpt>
      <trkpt lat="37.125010024756193" lon="-8.672532001510263">
        <ele>10.710000000000001</ele>
        <time>2025-05-07T08:34:59Z</time>
      </trkpt>
      <trkpt lat="37.12506802752614" lon="-8.672507023438811">
        <ele>10.23</ele>
        <time>2025-05-07T08:35:00Z</time>
      </trkpt>
      <trkpt lat="37.125122006982565" lon="-8.672481961548328">
        <ele>10.23</ele>
        <time>2025-05-07T08:35:01Z</time>
      </trkpt>
      <trkpt lat="37.125244969502091" lon="-8.672399986535311">
        <ele>10.23</ele>
        <time>2025-05-07T08:35:03Z</time>
      </trkpt>
      <trkpt lat="37.125395005568862" lon="-8.672299990430474">
        <ele>10.23</ele>
        <time>2025-05-07T08:35:05Z</time>
      </trkpt>
      <trkpt lat="37.125486033037305" lon="-8.672238970175386">
        <ele>10.23</ele>
        <time>2025-05-07T08:35:06Z</time>
      </trkpt>
      <trkpt lat="37.126416005194187" lon="-8.671616027131677">
        <ele>10.710000000000001</ele>
        <time>2025-05-07T08:35:14Z</time>
      </trkpt>
      <trkpt lat="37.127351006492972" lon="-8.670988976955414">
        <ele>11.19</ele>
        <time>2025-05-07T08:35:23Z</time>
      </trkpt>
      <trkpt lat="37.128483988344669" lon="-8.670196970924735">
        <ele>14.56</ele>
        <time>2025-05-07T08:35:34Z</time>
      </trkpt>
      <trkpt lat="37.129806987941265" lon="-8.669001962989569">
        <ele>21.289999999999999</ele>
        <time>2025-05-07T08:35:45Z</time>
      </trkpt>
      <trkpt lat="37.130908034741879" lon="-8.667793041095138">
        <ele>27.050000000000001</ele>
        <time>2025-05-07T08:35:56Z</time>
      </trkpt>
      <trkpt lat="37.131573976948857" lon="-8.667020983994007">
        <ele>28.98</ele>
        <time>2025-05-07T08:36:07Z</time>
      </trkpt>
      <trkpt lat="37.131761983036995" lon="-8.666754020377994">
        <ele>29.460000000000001</ele>
        <time>2025-05-07T08:36:16Z</time>
      </trkpt>
      <trkpt lat="37.131810011342168" lon="-8.66648999042809">
        <ele>29.460000000000001</ele>
        <time>2025-05-07T08:36:21Z</time>
      </trkpt>
      <trkpt lat="37.131846975535154" lon="-8.666418995708227">
        <ele>28.98</ele>
        <time>2025-05-07T08:36:22Z</time>
      </trkpt>
      <trkpt lat="37.131906989961863" lon="-8.666393011808395">
        <ele>28.98</ele>
        <time>2025-05-07T08:36:23Z</time>
      </trkpt>
      <trkpt lat="37.13196599856019" lon="-8.666368033736944">
        <ele>29.460000000000001</ele>
        <time>2025-05-07T08:36:24Z</time>
      </trkpt>
      <trkpt lat="37.13196599856019" lon="-8.666368033736944">
        <ele>28.98</ele>
        <time>2025-05-07T08:36:25Z</time>
      </trkpt>
      <trkpt lat="37.132186023518443" lon="-8.666395023465157">
        <ele>28.98</ele>
        <time>2025-05-07T08:36:26Z</time>
      </trkpt>
      <trkpt lat="37.13224402628839" lon="-8.666327968239784">
        <ele>28.98</ele>
        <time>2025-05-07T08:36:27Z</time>
      </trkpt>
      <trkpt lat="37.132317032665014" lon="-8.666243981570005">
        <ele>28.98</ele>
        <time>2025-05-07T08:36:28Z</time>
      </trkpt>
      <trkpt lat="37.132398001849651" lon="-8.666148008778691">
        <ele>28.98</ele>
        <time>2025-05-07T08:36:29Z</time>
      </trkpt>
      <trkpt lat="37.133272988721728" lon="-8.665161039680243">
        <ele>29.460000000000001</ele>
        <time>2025-05-07T08:36:37Z</time>
      </trkpt>
      <trkpt lat="37.134535973891616" lon="-8.66406200453639">
        <ele>29.460000000000001</ele>
        <time>2025-05-07T08:36:46Z</time>
      </trkpt>
      <trkpt lat="37.135221026837826" lon="-8.663707030937076">
        <ele>29.460000000000001</ele>
        <time>2025-05-07T08:36:52Z</time>
      </trkpt>
      <trkpt lat="37.136460039764643" lon="-8.663415005430579">
        <ele>28.02</ele>
        <time>2025-05-07T08:37:02Z</time>
      </trkpt>
      <trkpt lat="37.137672984972596" lon="-8.663230016827583">
        <ele>26.09</ele>
        <time>2025-05-07T08:37:10Z</time>
      </trkpt>
      <trkpt lat="37.13894996792078" lon="-8.663092972710729">
        <ele>26.09</ele>
        <time>2025-05-07T08:37:21Z</time>
      </trkpt>
      <trkpt lat="37.139047030359507" lon="-8.663081992417574">
        <ele>25.609999999999999</ele>
        <time>2025-05-07T08:37:22Z</time>
      </trkpt>
      <trkpt lat="37.139135040342808" lon="-8.663071012124419">
        <ele>25.609999999999999</ele>
        <time>2025-05-07T08:37:23Z</time>
      </trkpt>
      <trkpt lat="37.139362022280693" lon="-8.662740010768175">
        <ele>25.129999999999999</ele>
        <time>2025-05-07T08:37:26Z</time>
      </trkpt>
      <trkpt lat="37.139437962323427" lon="-8.662705980241299">
        <ele>25.129999999999999</ele>
        <time>2025-05-07T08:37:27Z</time>
      </trkpt>
      <trkpt lat="37.139522032812238" lon="-8.662724001333118">
        <ele>25.129999999999999</ele>
        <time>2025-05-07T08:37:28Z</time>
      </trkpt>
      <trkpt lat="37.139589004218578" lon="-8.662748979404569">
        <ele>25.129999999999999</ele>
        <time>2025-05-07T08:37:29Z</time>
      </trkpt>
      <trkpt lat="37.139625968411565" lon="-8.662762977182865">
        <ele>25.129999999999999</ele>
        <time>2025-05-07T08:37:30Z</time>
      </trkpt>
      <trkpt lat="37.139625968411565" lon="-8.662762977182865">
        <ele>25.129999999999999</ele>
        <time>2025-05-07T08:37:31Z</time>
      </trkpt>
      <trkpt lat="37.139881029725075" lon="-8.662928016856313">
        <ele>25.129999999999999</ele>
        <time>2025-05-07T08:37:33Z</time>
      </trkpt>
      <trkpt lat="37.139971973374486" lon="-8.662912007421255">
        <ele>24.649999999999999</ele>
        <time>2025-05-07T08:37:34Z</time>
      </trkpt>
      <trkpt lat="37.140068029984832" lon="-8.662889963015914">
        <ele>24.649999999999999</ele>
        <time>2025-05-07T08:37:35Z</time>
      </trkpt>
      <trkpt lat="37.141272006556392" lon="-8.662571031600237">
        <ele>23.690000000000001</ele>
        <time>2025-05-07T08:37:45Z</time>
      </trkpt>
      <trkpt lat="37.143225995823741" lon="-8.661984968930483">
        <ele>22.73</ele>
        <time>2025-05-07T08:37:59Z</time>
      </trkpt>
      <trkpt lat="37.144634993746877" lon="-8.661322966217995">
        <ele>21.77</ele>
        <time>2025-05-07T08:38:09Z</time>
      </trkpt>
      <trkpt lat="37.14560997672379" lon="-8.660784009844065">
        <ele>22.25</ele>
        <time>2025-05-07T08:38:18Z</time>
      </trkpt>
      <trkpt lat="37.146398965269327" lon="-8.66021596826613">
        <ele>23.210000000000001</ele>
        <time>2025-05-07T08:38:26Z</time>
      </trkpt>
      <trkpt lat="37.147217039018869" lon="-8.659443994984031">
        <ele>25.129999999999999</ele>
        <time>2025-05-07T08:38:36Z</time>
      </trkpt>
      <trkpt lat="37.147366991266608" lon="-8.659300999715924">
        <ele>25.129999999999999</ele>
        <time>2025-05-07T08:38:38Z</time>
      </trkpt>
      <trkpt lat="37.148119015619159" lon="-8.658546041697264">
        <ele>23.690000000000001</ele>
        <time>2025-05-07T08:38:49Z</time>
      </trkpt>
      <trkpt lat="37.14825002476573" lon="-8.65838997066021">
        <ele>23.210000000000001</ele>
        <time>2025-05-07T08:38:51Z</time>
      </trkpt>
      <trkpt lat="37.148366030305624" lon="-8.658219985663891">
        <ele>22.25</ele>
        <time>2025-05-07T08:38:53Z</time>
      </trkpt>
      <trkpt lat="37.148760985583067" lon="-8.657581033185124">
        <ele>19.84</ele>
        <time>2025-05-07T08:39:02Z</time>
      </trkpt>
      <trkpt lat="37.148784035816789" lon="-8.657540967687964">
        <ele>19.84</ele>
        <time>2025-05-07T08:39:03Z</time>
      </trkpt>
      <trkpt lat="37.148893000558019" lon="-8.657312979921699">
        <ele>19.359999999999999</ele>
        <time>2025-05-07T08:39:14Z</time>
      </trkpt>
      <trkpt lat="37.148975981399417" lon="-8.657111981883645">
        <ele>19.359999999999999</ele>
        <time>2025-05-07T08:39:26Z</time>
      </trkpt>
      <trkpt lat="37.149155018851161" lon="-8.65662700496614">
        <ele>19.359999999999999</ele>
        <time>2025-05-07T08:39:34Z</time>
      </trkpt>
      <trkpt lat="37.14919600635767" lon="-8.656503036618233">
        <ele>19.359999999999999</ele>
        <time>2025-05-07T08:39:36Z</time>
      </trkpt>
      <trkpt lat="37.149311006069183" lon="-8.656189972534776">
        <ele>19.84</ele>
        <time>2025-05-07T08:39:41Z</time>
      </trkpt>
      <trkpt lat="37.149342019110918" lon="-8.656105985864997">
        <ele>19.84</ele>
        <time>2025-05-07T08:39:42Z</time>
      </trkpt>
      <trkpt lat="37.14969196356833" lon="-8.655148018151522">
        <ele>20.809999999999999</ele>
        <time>2025-05-07T08:39:52Z</time>
      </trkpt>
      <trkpt lat="37.150171995162964" lon="-8.653573980554938">
        <ele>16.960000000000001</ele>
        <time>2025-05-07T08:40:05Z</time>
      </trkpt>
      <trkpt lat="37.150773983448744" lon="-8.651561988517642">
        <ele>12.15</ele>
        <time>2025-05-07T08:40:20Z</time>
      </trkpt>
      <trkpt lat="37.151336995884776" lon="-8.650219039991498">
        <ele>8.310000000000001</ele>
        <time>2025-05-07T08:40:30Z</time>
      </trkpt>
      <trkpt lat="37.152209971100092" lon="-8.648876007646322">
        <ele>4.94</ele>
        <time>2025-05-07T08:40:38Z</time>
      </trkpt>
      <trkpt lat="37.153621986508369" lon="-8.646757984533906">
        <ele>5.42</ele>
        <time>2025-05-07T08:40:50Z</time>
      </trkpt>
      <trkpt lat="37.155181020498276" lon="-8.644495038315654">
        <ele>7.35</ele>
        <time>2025-05-07T08:41:04Z</time>
      </trkpt>
      <trkpt lat="37.15688900090754" lon="-8.641711995005608">
        <ele>7.83</ele>
        <time>2025-05-07T08:41:19Z</time>
      </trkpt>
      <trkpt lat="37.157650999724865" lon="-8.639743002131581">
        <ele>6.87</ele>
        <time>2025-05-07T08:41:29Z</time>
      </trkpt>
      <trkpt lat="37.158236978575587" lon="-8.637396991252899">
        <ele>5.42</ele>
        <time>2025-05-07T08:41:41Z</time>
      </trkpt>
      <trkpt lat="37.158726984634995" lon="-8.634870015084744">
        <ele>4.94</ele>
        <time>2025-05-07T08:41:55Z</time>
      </trkpt>
      <trkpt lat="37.158697983250022" lon="-8.633470991626382">
        <ele>4.46</ele>
        <time>2025-05-07T08:42:04Z</time>
      </trkpt>
      <trkpt lat="37.158630006015301" lon="-8.632949972525239">
        <ele>4.94</ele>
        <time>2025-05-07T08:42:08Z</time>
      </trkpt>
      <trkpt lat="37.158577032387257" lon="-8.632829021662474">
        <ele>4.94</ele>
        <time>2025-05-07T08:42:09Z</time>
      </trkpt>
      <trkpt lat="37.158530009910464" lon="-8.632721984758973">
        <ele>4.94</ele>
        <time>2025-05-07T08:42:10Z</time>
      </trkpt>
      <trkpt lat="37.158337980508804" lon="-8.632516963407397">
        <ele>4.94</ele>
        <time>2025-05-07T08:42:12Z</time>
      </trkpt>
      <trkpt lat="37.15830797329545" lon="-8.632375979796052">
        <ele>4.94</ele>
        <time>2025-05-07T08:42:13Z</time>
      </trkpt>
      <trkpt lat="37.158297998830676" lon="-8.632257962599397">
        <ele>5.42</ele>
        <time>2025-05-07T08:42:14Z</time>
      </trkpt>
      <trkpt lat="37.158344015479088" lon="-8.632124019786716">
        <ele>5.42</ele>
        <time>2025-05-07T08:42:15Z</time>
      </trkpt>
      <trkpt lat="37.158402018249035" lon="-8.632027041167021">
        <ele>5.91</ele>
        <time>2025-05-07T08:42:16Z</time>
      </trkpt>
      <trkpt lat="37.15850000269711" lon="-8.631967026740313">
        <ele>5.91</ele>
        <time>2025-05-07T08:42:17Z</time>
      </trkpt>
      <trkpt lat="37.158589018508792" lon="-8.631937019526959">
        <ele>6.39</ele>
        <time>2025-05-07T08:42:18Z</time>
      </trkpt>
      <trkpt lat="37.158687002956867" lon="-8.631947999820113">
        <ele>6.39</ele>
        <time>2025-05-07T08:42:19Z</time>
      </trkpt>
      <trkpt lat="37.158785993233323" lon="-8.631994016468525">
        <ele>6.39</ele>
        <time>2025-05-07T08:42:20Z</time>
      </trkpt>
      <trkpt lat="37.15886402875185" lon="-8.632084960117936">
        <ele>6.39</ele>
        <time>2025-05-07T08:42:21Z</time>
      </trkpt>
      <trkpt lat="37.158895041793585" lon="-8.632121002301574">
        <ele>6.87</ele>
        <time>2025-05-07T08:42:22Z</time>
      </trkpt>
      <trkpt lat="37.159042982384562" lon="-8.632364999502897">
        <ele>6.87</ele>
        <time>2025-05-07T08:42:23Z</time>
      </trkpt>
      <trkpt lat="37.159155970439315" lon="-8.63237296231091">
        <ele>6.87</ele>
        <time>2025-05-07T08:42:24Z</time>
      </trkpt>
      <trkpt lat="37.159284967929125" lon="-8.63236902281642">
        <ele>6.39</ele>
        <time>2025-05-07T08:42:25Z</time>
      </trkpt>
      <trkpt lat="37.159414971247315" lon="-8.632343038916588">
        <ele>5.91</ele>
        <time>2025-05-07T08:42:26Z</time>
      </trkpt>
      <trkpt lat="37.15955201536417" lon="-8.632315965369344">
        <ele>5.91</ele>
        <time>2025-05-07T08:42:27Z</time>
      </trkpt>
      <trkpt lat="37.159700961783528" lon="-8.632277995347977">
        <ele>5.91</ele>
        <time>2025-05-07T08:42:28Z</time>
      </trkpt>
      <trkpt lat="37.159850997850299" lon="-8.632212029770017">
        <ele>5.91</ele>
        <time>2025-05-07T08:42:29Z</time>
      </trkpt>
      <trkpt lat="37.160011008381844" lon="-8.632142962887883">
        <ele>5.91</ele>
        <time>2025-05-07T08:42:30Z</time>
      </trkpt>
      <trkpt lat="37.161611029878259" lon="-8.63157500512898">
        <ele>5.91</ele>
        <time>2025-05-07T08:42:39Z</time>
      </trkpt>
      <trkpt lat="37.162720961496234" lon="-8.631399990990758">
        <ele>7.83</ele>
        <time>2025-05-07T08:42:45Z</time>
      </trkpt>
      <trkpt lat="37.162880972027779" lon="-8.631408037617803">
        <ele>8.310000000000001</ele>
        <time>2025-05-07T08:42:46Z</time>
      </trkpt>
      <trkpt lat="37.163035031408072" lon="-8.631429998204112">
        <ele>8.789999999999999</ele>
        <time>2025-05-07T08:42:47Z</time>
      </trkpt>
      <trkpt lat="37.163178026676178" lon="-8.63148900680244">
        <ele>9.75</ele>
        <time>2025-05-07T08:42:48Z</time>
      </trkpt>
      <trkpt lat="37.163316998630762" lon="-8.631544997915626">
        <ele>10.23</ele>
        <time>2025-05-07T08:42:49Z</time>
      </trkpt>
      <trkpt lat="37.163447001948953" lon="-8.63159897737205">
        <ele>10.710000000000001</ele>
        <time>2025-05-07T08:42:50Z</time>
      </trkpt>
      <trkpt lat="37.163557978346944" lon="-8.6316620092839">
        <ele>11.67</ele>
        <time>2025-05-07T08:42:51Z</time>
      </trkpt>
      <trkpt lat="37.163651017472148" lon="-8.631718000397086">
        <ele>12.15</ele>
        <time>2025-05-07T08:42:52Z</time>
      </trkpt>
      <trkpt lat="37.163885962218046" lon="-8.631594032049179">
        <ele>12.630000000000001</ele>
        <time>2025-05-07T08:42:54Z</time>
      </trkpt>
      <trkpt lat="37.163997022435069" lon="-8.631653962656856">
        <ele>12.630000000000001</ele>
        <time>2025-05-07T08:42:55Z</time>
      </trkpt>
      <trkpt lat="37.16404496692121" lon="-8.631712971255183">
        <ele>13.119999999999999</ele>
        <time>2025-05-07T08:42:56Z</time>
      </trkpt>
      <trkpt lat="37.164082014933228" lon="-8.631959985941649">
        <ele>13.119999999999999</ele>
        <time>2025-05-07T08:42:57Z</time>
      </trkpt>
      <trkpt lat="37.164179999381304" lon="-8.63202502951026">
        <ele>13.6</ele>
        <time>2025-05-07T08:42:58Z</time>
      </trkpt>
      <trkpt lat="37.164288964122534" lon="-8.632098035886884">
        <ele>14.08</ele>
        <time>2025-05-07T08:42:59Z</time>
      </trkpt>
      <trkpt lat="37.164411004632711" lon="-8.632179005071521">
        <ele>14.56</ele>
        <time>2025-05-07T08:43:00Z</time>
      </trkpt>
      <trkpt lat="37.164543019607663" lon="-8.632268020883203">
        <ele>15.52</ele>
        <time>2025-05-07T08:43:01Z</time>
      </trkpt>
      <trkpt lat="37.165869036689401" lon="-8.633107971400023">
        <ele>22.73</ele>
        <time>2025-05-07T08:43:09Z</time>
      </trkpt>
      <trkpt lat="37.167622027918696" lon="-8.633518014103174">
        <ele>31.859999999999999</ele>
        <time>2025-05-07T08:43:17Z</time>
      </trkpt>
      <trkpt lat="37.171164974570274" lon="-8.633712977170944">
        <ele>51.57</ele>
        <time>2025-05-07T08:43:33Z</time>
      </trkpt>
      <trkpt lat="37.172652008011937" lon="-8.633786989375949">
        <ele>57.340000000000003</ele>
        <time>2025-05-07T08:43:41Z</time>
      </trkpt>
      <trkpt lat="37.172804977744818" lon="-8.633795036002994">
        <ele>57.82</ele>
        <time>2025-05-07T08:43:42Z</time>
      </trkpt>
      <trkpt lat="37.172961970791221" lon="-8.633805010467768">
        <ele>58.299999999999997</ele>
        <time>2025-05-07T08:43:43Z</time>
      </trkpt>
      <trkpt lat="37.173825977370143" lon="-8.633891008794308">
        <ele>59.740000000000002</ele>
        <time>2025-05-07T08:43:49Z</time>
      </trkpt>
      <trkpt lat="37.174066035076976" lon="-8.633730998262763">
        <ele>60.219999999999999</ele>
        <time>2025-05-07T08:43:50Z</time>
      </trkpt>
      <trkpt lat="37.174167037010193" lon="-8.633711971342564">
        <ele>60.700000000000003</ele>
        <time>2025-05-07T08:43:52Z</time>
      </trkpt>
      <trkpt lat="37.174316989257932" lon="-8.633708031848073">
        <ele>60.700000000000003</ele>
        <time>2025-05-07T08:43:53Z</time>
      </trkpt>
      <trkpt lat="37.174381026998162" lon="-8.633793024346232">
        <ele>60.700000000000003</ele>
        <time>2025-05-07T08:43:54Z</time>
      </trkpt>
      <trkpt lat="37.174429977312684" lon="-8.633858989924192">
        <ele>60.219999999999999</ele>
        <time>2025-05-07T08:43:55Z</time>
      </trkpt>
      <trkpt lat="37.17446300201118" lon="-8.634124025702477">
        <ele>60.219999999999999</ele>
        <time>2025-05-07T08:43:56Z</time>
      </trkpt>
      <trkpt lat="37.174566015601158" lon="-8.634193008765578">
        <ele>60.219999999999999</ele>
        <time>2025-05-07T08:43:57Z</time>
      </trkpt>
      <trkpt lat="37.174709010869265" lon="-8.634287975728512">
        <ele>60.219999999999999</ele>
        <time>2025-05-07T08:43:58Z</time>
      </trkpt>
      <trkpt lat="37.17573101632297" lon="-8.635426992550492">
        <ele>58.299999999999997</ele>
        <time>2025-05-07T08:44:06Z</time>
      </trkpt>
      <trkpt lat="37.17622697353363" lon="-8.635890008881688">
        <ele>57.340000000000003</ele>
        <time>2025-05-07T08:44:09Z</time>
      </trkpt>
      <trkpt lat="37.176794009283185" lon="-8.636198965832591">
        <ele>55.890000000000001</ele>
        <time>2025-05-07T08:44:12Z</time>
      </trkpt>
      <trkpt lat="37.176988972350955" lon="-8.636287981644273">
        <ele>55.890000000000001</ele>
        <time>2025-05-07T08:44:13Z</time>
      </trkpt>
      <trkpt lat="37.177193993702531" lon="-8.63632301799953">
        <ele>56.369999999999997</ele>
        <time>2025-05-07T08:44:14Z</time>
      </trkpt>
      <trkpt lat="37.177404966205359" lon="-8.63634598441422">
        <ele>56.369999999999997</ele>
        <time>2025-05-07T08:44:15Z</time>
      </trkpt>
      <trkpt lat="37.177616022527218" lon="-8.636369034647942">
        <ele>56.859999999999999</ele>
        <time>2025-05-07T08:44:16Z</time>
      </trkpt>
      <trkpt lat="37.177825989201665" lon="-8.636354031041265">
        <ele>57.340000000000003</ele>
        <time>2025-05-07T08:44:17Z</time>
      </trkpt>
      <trkpt lat="37.178037967532873" lon="-8.636337015777826">
        <ele>57.340000000000003</ele>
        <time>2025-05-07T08:44:18Z</time>
      </trkpt>
      <trkpt lat="37.178236031904817" lon="-8.63630399107933">
        <ele>57.340000000000003</ele>
        <time>2025-05-07T08:44:19Z</time>
      </trkpt>
      <trkpt lat="37.178423032164574" lon="-8.636244982481003">
        <ele>57.82</ele>
        <time>2025-05-07T08:44:20Z</time>
      </trkpt>
      <trkpt lat="37.178605003282428" lon="-8.636180022731423">
        <ele>57.82</ele>
        <time>2025-05-07T08:44:21Z</time>
      </trkpt>
      <trkpt lat="37.179404972121119" lon="-8.635673001408577">
        <ele>58.299999999999997</ele>
        <time>2025-05-07T08:44:27Z</time>
      </trkpt>
      <trkpt lat="37.179489964619279" lon="-8.635605024173856">
        <ele>57.82</ele>
        <time>2025-05-07T08:44:28Z</time>
      </trkpt>
      <trkpt lat="37.179576968774199" lon="-8.635536041110754">
        <ele>57.82</ele>
        <time>2025-05-07T08:44:29Z</time>
      </trkpt>
      <trkpt lat="37.179594989866018" lon="-8.635361026972532">
        <ele>57.340000000000003</ele>
        <time>2025-05-07T08:44:30Z</time>
      </trkpt>
      <trkpt lat="37.179723987355828" lon="-8.635302018374205">
        <ele>57.82</ele>
        <time>2025-05-07T08:44:31Z</time>
      </trkpt>
      <trkpt lat="37.17985600233078" lon="-8.635330013930798">
        <ele>57.82</ele>
        <time>2025-05-07T08:44:32Z</time>
      </trkpt>
      <trkpt lat="37.179961027577519" lon="-8.635245021432638">
        <ele>57.82</ele>
        <time>2025-05-07T08:44:33Z</time>
      </trkpt>
      <trkpt lat="37.180079966783524" lon="-8.635148964822292">
        <ele>57.82</ele>
        <time>2025-05-07T08:44:34Z</time>
      </trkpt>
      <trkpt lat="37.180209970101714" lon="-8.635043017566204">
        <ele>57.82</ele>
        <time>2025-05-07T08:44:35Z</time>
      </trkpt>
      <trkpt lat="37.181417969986796" lon="-8.634242964908481">
        <ele>54.93</ele>
        <time>2025-05-07T08:44:42Z</time>
      </trkpt>
      <trkpt lat="37.182742981240153" lon="-8.633896037936211">
        <ele>49.159999999999997</ele>
        <time>2025-05-07T08:44:48Z</time>
      </trkpt>
      <trkpt lat="37.184223979711533" lon="-8.634207006543875">
        <ele>43.880000000000003</ele>
        <time>2025-05-07T08:44:54Z</time>
      </trkpt>
      <trkpt lat="37.185499034821987" lon="-8.635156005620956">
        <ele>44.359999999999999</ele>
        <time>2025-05-07T08:45:00Z</time>
      </trkpt>
      <trkpt lat="37.187444977462292" lon="-8.637290960177779">
        <ele>57.82</ele>
        <time>2025-05-07T08:45:11Z</time>
      </trkpt>
      <trkpt lat="37.188194990158081" lon="-8.637866964563727">
        <ele>59.740000000000002</ele>
        <time>2025-05-07T08:45:15Z</time>
      </trkpt>
      <trkpt lat="37.188399005681276" lon="-8.637979030609131">
        <ele>60.219999999999999</ele>
        <time>2025-05-07T08:45:16Z</time>
      </trkpt>
      <trkpt lat="37.188614001497626" lon="-8.638038039207459">
        <ele>60.219999999999999</ele>
        <time>2025-05-07T08:45:17Z</time>
      </trkpt>
      <trkpt lat="37.188828997313976" lon="-8.638095958158374">
        <ele>59.740000000000002</ele>
        <time>2025-05-07T08:45:18Z</time>
      </trkpt>
      <trkpt lat="37.18905002810061" lon="-8.638118002563715">
        <ele>59.740000000000002</ele>
        <time>2025-05-07T08:45:19Z</time>
      </trkpt>
      <trkpt lat="37.189269969239831" lon="-8.638127977028489">
        <ele>59.740000000000002</ele>
        <time>2025-05-07T08:45:20Z</time>
      </trkpt>
      <trkpt lat="37.189495023339987" lon="-8.638110039755702">
        <ele>59.740000000000002</ele>
        <time>2025-05-07T08:45:21Z</time>
      </trkpt>
      <trkpt lat="37.189722005277872" lon="-8.638092018663883">
        <ele>59.259999999999998</ele>
        <time>2025-05-07T08:45:22Z</time>
      </trkpt>
      <trkpt lat="37.191569963470101" lon="-8.638120014220476">
        <ele>55.409999999999997</ele>
        <time>2025-05-07T08:45:30Z</time>
      </trkpt>
      <trkpt lat="37.191796023398638" lon="-8.638196038082242">
        <ele>54.93</ele>
        <time>2025-05-07T08:45:31Z</time>
      </trkpt>
      <trkpt lat="37.192020993679762" lon="-8.638270972296596">
        <ele>54.450000000000003</ele>
        <time>2025-05-07T08:45:32Z</time>
      </trkpt>
      <trkpt lat="37.19223196618259" lon="-8.638379015028477">
        <ele>53.490000000000002</ele>
        <time>2025-05-07T08:45:33Z</time>
      </trkpt>
      <trkpt lat="37.192440005019307" lon="-8.638514969497919">
        <ele>53.009999999999998</ele>
        <time>2025-05-07T08:45:34Z</time>
      </trkpt>
      <trkpt lat="37.19263999722898" lon="-8.638668023049831">
        <ele>53.009999999999998</ele>
        <time>2025-05-07T08:45:35Z</time>
      </trkpt>
      <trkpt lat="37.19283202663064" lon="-8.638839013874531">
        <ele>52.530000000000001</ele>
        <time>2025-05-07T08:45:36Z</time>
      </trkpt>
      <trkpt lat="37.193021960556507" lon="-8.639014028012753">
        <ele>52.530000000000001</ele>
        <time>2025-05-07T08:45:37Z</time>
      </trkpt>
      <trkpt lat="37.194613013416529" lon="-8.64014801569283">
        <ele>54.93</ele>
        <time>2025-05-07T08:45:45Z</time>
      </trkpt>
      <trkpt lat="37.196814017370343" lon="-8.640758972615004">
        <ele>65.510000000000005</ele>
        <time>2025-05-07T08:45:55Z</time>
      </trkpt>
      <trkpt lat="37.198767000809312" lon="-8.640988972038031">
        <ele>75.599999999999994</ele>
        <time>2025-05-07T08:46:04Z</time>
      </trkpt>
      <trkpt lat="37.200271971523762" lon="-8.640388995409012">
        <ele>83.769999999999996</ele>
        <time>2025-05-07T08:46:11Z</time>
      </trkpt>
      <trkpt lat="37.201553983613849" lon="-8.640238037332892">
        <ele>91.939999999999998</ele>
        <time>2025-05-07T08:46:17Z</time>
      </trkpt>
      <trkpt lat="37.202787967398763" lon="-8.640714967623353">
        <ele>100.11</ele>
        <time>2025-05-07T08:46:23Z</time>
      </trkpt>
      <trkpt lat="37.204831978306174" lon="-8.641725992783904">
        <ele>112.13</ele>
        <time>2025-05-07T08:46:33Z</time>
      </trkpt>
      <trkpt lat="37.205484006553888" lon="-8.641930008307099">
        <ele>114.05</ele>
        <time>2025-05-07T08:46:36Z</time>
      </trkpt>
      <trkpt lat="37.205705037340522" lon="-8.641940988600254">
        <ele>114.53</ele>
        <time>2025-05-07T08:46:37Z</time>
      </trkpt>
      <trkpt lat="37.207008004188538" lon="-8.641703026369214">
        <ele>116.45999999999999</ele>
        <time>2025-05-07T08:46:43Z</time>
      </trkpt>
      <trkpt lat="37.208837019279599" lon="-8.640669034793973">
        <ele>115.01000000000001</ele>
        <time>2025-05-07T08:46:52Z</time>
      </trkpt>
      <trkpt lat="37.212205035611987" lon="-8.638681014999747">
        <ele>110.20999999999999</ele>
        <time>2025-05-07T08:47:08Z</time>
      </trkpt>
      <trkpt lat="37.214880958199501" lon="-8.637102032080293">
        <ele>106.36</ele>
        <time>2025-05-07T08:47:22Z</time>
      </trkpt>
      <trkpt lat="37.217642962932587" lon="-8.635360021144152">
        <ele>103.48</ele>
        <time>2025-05-07T08:47:39Z</time>
      </trkpt>
      <trkpt lat="37.2177769895643" lon="-8.635210990905762">
        <ele>103</ele>
        <time>2025-05-07T08:47:40Z</time>
      </trkpt>
      <trkpt lat="37.2178840264678" lon="-8.635033965110779">
        <ele>103</ele>
        <time>2025-05-07T08:47:41Z</time>
      </trkpt>
      <trkpt lat="37.217986034229398" lon="-8.634854005649686">
        <ele>103</ele>
        <time>2025-05-07T08:47:42Z</time>
      </trkpt>
      <trkpt lat="37.218084018677473" lon="-8.634662982076407">
        <ele>103</ele>
        <time>2025-05-07T08:47:43Z</time>
      </trkpt>
      <trkpt lat="37.218137998133898" lon="-8.634451003745198">
        <ele>102.52</ele>
        <time>2025-05-07T08:47:44Z</time>
      </trkpt>
      <trkpt lat="37.218193989247084" lon="-8.634237013757229">
        <ele>102.52</ele>
        <time>2025-05-07T08:47:45Z</time>
      </trkpt>
      <trkpt lat="37.218247968703508" lon="-8.634020006284118">
        <ele>102.52</ele>
        <time>2025-05-07T08:47:46Z</time>
      </trkpt>
      <trkpt lat="37.218273030593991" lon="-8.633797969669104">
        <ele>102.04000000000001</ele>
        <time>2025-05-07T08:47:47Z</time>
      </trkpt>
      <trkpt lat="37.218563966453075" lon="-8.63099698908627">
        <ele>91.939999999999998</ele>
        <time>2025-05-07T08:47:59Z</time>
      </trkpt>
      <trkpt lat="37.218614006415009" lon="-8.630788028240204">
        <ele>90.5</ele>
        <time>2025-05-07T08:48:00Z</time>
      </trkpt>
      <trkpt lat="37.218668991699815" lon="-8.630575966089964">
        <ele>87.620000000000005</ele>
        <time>2025-05-07T08:48:02Z</time>
      </trkpt>
      <trkpt lat="37.218831013888121" lon="-8.630197020247579">
        <ele>86.659999999999997</ele>
        <time>2025-05-07T08:48:03Z</time>
      </trkpt>
      <trkpt lat="37.219003010541201" lon="-8.629913963377476">
        <ele>84.25</ele>
        <time>2025-05-07T08:48:05Z</time>
      </trkpt>
      <trkpt lat="37.219100994989276" lon="-8.629745990037918">
        <ele>83.290000000000006</ele>
        <time>2025-05-07T08:48:06Z</time>
      </trkpt>
      <trkpt lat="37.219068976119161" lon="-8.629628978669643">
        <ele>82.810000000000002</ele>
        <time>2025-05-07T08:48:07Z</time>
      </trkpt>
      <trkpt lat="37.219040980562568" lon="-8.629524959251285">
        <ele>82.329999999999998</ele>
        <time>2025-05-07T08:48:08Z</time>
      </trkpt>
      <trkpt lat="37.219040980562568" lon="-8.629524959251285">
        <ele>82.329999999999998</ele>
        <time>2025-05-07T08:48:09Z</time>
      </trkpt>
      <trkpt lat="37.218868983909488" lon="-8.629138972610235">
        <ele>81.849999999999994</ele>
        <time>2025-05-07T08:48:10Z</time>
      </trkpt>
      <trkpt lat="37.218817016109824" lon="-8.629085998982191">
        <ele>81.849999999999994</ele>
        <time>2025-05-07T08:48:11Z</time>
      </trkpt>
      <trkpt lat="37.218698998913169" lon="-8.628967981785536">
        <ele>81.370000000000005</ele>
        <time>2025-05-07T08:48:12Z</time>
      </trkpt>
      <trkpt lat="37.217929037287831" lon="-8.627780014649034">
        <ele>80.890000000000001</ele>
        <time>2025-05-07T08:48:19Z</time>
      </trkpt>
      <trkpt lat="37.21762795932591" lon="-8.627241980284452">
        <ele>80.890000000000001</ele>
        <time>2025-05-07T08:48:22Z</time>
      </trkpt>
      <trkpt lat="37.217556964606047" lon="-8.627036958932877">
        <ele>80.890000000000001</ele>
        <time>2025-05-07T08:48:23Z</time>
      </trkpt>
      <trkpt lat="37.217473983764648" lon="-8.626800002530217">
        <ele>80.409999999999997</ele>
        <time>2025-05-07T08:48:24Z</time>
      </trkpt>
      <trkpt lat="37.217050027102232" lon="-8.625038964673877">
        <ele>76.560000000000002</ele>
        <time>2025-05-07T08:48:31Z</time>
      </trkpt>
      <trkpt lat="37.216801000759006" lon="-8.624323988333345">
        <ele>75.120000000000005</ele>
        <time>2025-05-07T08:48:34Z</time>
      </trkpt>
      <trkpt lat="37.216689018532634" lon="-8.624123996123672">
        <ele>75.120000000000005</ele>
        <time>2025-05-07T08:48:35Z</time>
      </trkpt>
      <trkpt lat="37.216550968587399" lon="-8.623944958671928">
        <ele>74.640000000000001</ele>
        <time>2025-05-07T08:48:36Z</time>
      </trkpt>
      <trkpt lat="37.216414008289576" lon="-8.623764999210835">
        <ele>74.640000000000001</ele>
        <time>2025-05-07T08:48:37Z</time>
      </trkpt>
      <trkpt lat="37.21627302467823" lon="-8.623581016436219">
        <ele>74.640000000000001</ele>
        <time>2025-05-07T08:48:38Z</time>
      </trkpt>
      <trkpt lat="37.21569299697876" lon="-8.623001994565129">
        <ele>75.599999999999994</ele>
        <time>2025-05-07T08:48:42Z</time>
      </trkpt>
      <trkpt lat="37.215624013915658" lon="-8.622814994305372">
        <ele>76.079999999999998</ele>
        <time>2025-05-07T08:48:43Z</time>
      </trkpt>
      <trkpt lat="37.21554497256875" lon="-8.622601004317403">
        <ele>76.560000000000002</ele>
        <time>2025-05-07T08:48:44Z</time>
      </trkpt>
      <trkpt lat="37.215069970116019" lon="-8.621287979185581">
        <ele>76.079999999999998</ele>
        <time>2025-05-07T08:48:50Z</time>
      </trkpt>
      <trkpt lat="37.214970979839563" lon="-8.621131991967559">
        <ele>75.599999999999994</ele>
        <time>2025-05-07T08:48:51Z</time>
      </trkpt>
      <trkpt lat="37.21487701870501" lon="-8.62098203971982">
        <ele>75.120000000000005</ele>
        <time>2025-05-07T08:48:52Z</time>
      </trkpt>
      <trkpt lat="37.21477098762989" lon="-8.62081297673285">
        <ele>74.640000000000001</ele>
        <time>2025-05-07T08:48:53Z</time>
      </trkpt>
      <trkpt lat="37.214737962931395" lon="-8.620651960372925">
        <ele>74.640000000000001</ele>
        <time>2025-05-07T08:48:54Z</time>
      </trkpt>
      <trkpt lat="37.214698987081647" lon="-8.620464038103819">
        <ele>74.159999999999997</ele>
        <time>2025-05-07T08:48:55Z</time>
      </trkpt>
      <trkpt lat="37.214657999575138" lon="-8.620266979560256">
        <ele>74.159999999999997</ele>
        <time>2025-05-07T08:48:56Z</time>
      </trkpt>
      <trkpt lat="37.214595973491669" lon="-8.62006195820868">
        <ele>74.159999999999997</ele>
        <time>2025-05-07T08:48:57Z</time>
      </trkpt>
      <trkpt lat="37.214366979897022" lon="-8.619426023215056">
        <ele>73.200000000000003</ele>
        <time>2025-05-07T08:49:00Z</time>
      </trkpt>
      <trkpt lat="37.21427796408534" lon="-8.619226031005383">
        <ele>72.719999999999999</ele>
        <time>2025-05-07T08:49:01Z</time>
      </trkpt>
      <trkpt lat="37.213085973635316" lon="-8.61728997901082">
        <ele>65.030000000000001</ele>
        <time>2025-05-07T08:49:11Z</time>
      </trkpt>
      <trkpt lat="37.211574967950583" lon="-8.614686978980899">
        <ele>50.609999999999999</ele>
        <time>2025-05-07T08:49:24Z</time>
      </trkpt>
      <trkpt lat="37.210929980501533" lon="-8.613560032099485">
        <ele>46.280000000000001</ele>
        <time>2025-05-07T08:49:32Z</time>
      </trkpt>
      <trkpt lat="37.210873989388347" lon="-8.613467998802662">
        <ele>46.759999999999998</ele>
        <time>2025-05-07T08:49:33Z</time>
      </trkpt>
      <trkpt lat="37.210843982174993" lon="-8.613417036831379">
        <ele>46.759999999999998</ele>
        <time>2025-05-07T08:49:34Z</time>
      </trkpt>
      <trkpt lat="37.210883041843772" lon="-8.613305976614356">
        <ele>46.280000000000001</ele>
        <time>2025-05-07T08:49:35Z</time>
      </trkpt>
      <trkpt lat="37.210938027128577" lon="-8.613278986886144">
        <ele>45.799999999999997</ele>
        <time>2025-05-07T08:49:36Z</time>
      </trkpt>
      <trkpt lat="37.211016984656453" lon="-8.613241016864777">
        <ele>45.799999999999997</ele>
        <time>2025-05-07T08:49:37Z</time>
      </trkpt>
      <trkpt lat="37.211115974932909" lon="-8.613192988559604">
        <ele>45.32</ele>
        <time>2025-05-07T08:49:38Z</time>
      </trkpt>
      <trkpt lat="37.212096992880106" lon="-8.612709017470479">
        <ele>47.719999999999999</ele>
        <time>2025-05-07T08:49:45Z</time>
      </trkpt>
      <trkpt lat="37.213974958285689" lon="-8.611581986770034">
        <ele>51.57</ele>
        <time>2025-05-07T08:49:57Z</time>
      </trkpt>
      <trkpt lat="37.215644968673587" lon="-8.610699037089944">
        <ele>50.130000000000003</ele>
        <time>2025-05-07T08:50:05Z</time>
      </trkpt>
      <trkpt lat="37.217077016830444" lon="-8.609911976382136">
        <ele>53.009999999999998</ele>
        <time>2025-05-07T08:50:13Z</time>
      </trkpt>
      <trkpt lat="37.217447999864817" lon="-8.609848022460938">
        <ele>53.969999999999999</ele>
        <time>2025-05-07T08:50:15Z</time>
      </trkpt>
      <trkpt lat="37.217645980417728" lon="-8.609848022460938">
        <ele>54.450000000000003</ele>
        <time>2025-05-07T08:50:16Z</time>
      </trkpt>
      <trkpt lat="37.217829963192344" lon="-8.609886998310685">
        <ele>54.93</ele>
        <time>2025-05-07T08:50:17Z</time>
      </trkpt>
      <trkpt lat="37.220046976581216" lon="-8.610604992136359">
        <ele>60.700000000000003</ele>
        <time>2025-05-07T08:50:28Z</time>
      </trkpt>
      <trkpt lat="37.221526969224215" lon="-8.611654993146658">
        <ele>64.549999999999997</ele>
        <time>2025-05-07T08:50:36Z</time>
      </trkpt>
      <trkpt lat="37.223097989335656" lon="-8.612284976989031">
        <ele>67.430000000000007</ele>
        <time>2025-05-07T08:50:44Z</time>
      </trkpt>
      <trkpt lat="37.223677011206746" lon="-8.612462002784014">
        <ele>67.909999999999997</ele>
        <time>2025-05-07T08:50:47Z</time>
      </trkpt>
      <trkpt lat="37.223877003416419" lon="-8.612481029704213">
        <ele>67.909999999999997</ele>
        <time>2025-05-07T08:50:48Z</time>
      </trkpt>
      <trkpt lat="37.224078001454473" lon="-8.612469965592027">
        <ele>67.430000000000007</ele>
        <time>2025-05-07T08:50:49Z</time>
      </trkpt>
      <trkpt lat="37.225998966023326" lon="-8.612415986135602">
        <ele>68.390000000000001</ele>
        <time>2025-05-07T08:50:59Z</time>
      </trkpt>
      <trkpt lat="37.226182026788592" lon="-8.612441970035434">
        <ele>68.870000000000005</ele>
        <time>2025-05-07T08:51:00Z</time>
      </trkpt>
      <trkpt lat="37.226366009563208" lon="-8.612483041360974">
        <ele>68.870000000000005</ele>
        <time>2025-05-07T08:51:01Z</time>
      </trkpt>
      <trkpt lat="37.22845695912838" lon="-8.613013029098511">
        <ele>70.310000000000002</ele>
        <time>2025-05-07T08:51:12Z</time>
      </trkpt>
      <trkpt lat="37.230257978662848" lon="-8.613070026040077">
        <ele>69.349999999999994</ele>
        <time>2025-05-07T08:51:21Z</time>
      </trkpt>
      <trkpt lat="37.232018010690808" lon="-8.613154012709856">
        <ele>68.390000000000001</ele>
        <time>2025-05-07T08:51:29Z</time>
      </trkpt>
      <trkpt lat="37.232196964323521" lon="-8.613260965794325">
        <ele>68.870000000000005</ele>
        <time>2025-05-07T08:51:30Z</time>
      </trkpt>
      <trkpt lat="37.232382958754897" lon="-8.613373031839728">
        <ele>69.349999999999994</ele>
        <time>2025-05-07T08:51:31Z</time>
      </trkpt>
      <trkpt lat="37.233695983886719" lon="-8.614010978490114">
        <ele>74.640000000000001</ele>
        <time>2025-05-07T08:51:38Z</time>
      </trkpt>
      <trkpt lat="37.234741039574146" lon="-8.614134024828672">
        <ele>78</ele>
        <time>2025-05-07T08:51:43Z</time>
      </trkpt>
      <trkpt lat="37.234933990985155" lon="-8.61413000151515">
        <ele>78.969999999999999</ele>
        <time>2025-05-07T08:51:44Z</time>
      </trkpt>
      <trkpt lat="37.235123002901673" lon="-8.614079961553216">
        <ele>79.450000000000003</ele>
        <time>2025-05-07T08:51:45Z</time>
      </trkpt>
      <trkpt lat="37.235312014818192" lon="-8.614007961004973">
        <ele>79.930000000000007</ele>
        <time>2025-05-07T08:51:46Z</time>
      </trkpt>
      <trkpt lat="37.235491974279284" lon="-8.61391399987042">
        <ele>80.890000000000001</ele>
        <time>2025-05-07T08:51:47Z</time>
      </trkpt>
      <trkpt lat="37.235651984810829" lon="-8.613790031522512">
        <ele>81.370000000000005</ele>
        <time>2025-05-07T08:51:48Z</time>
      </trkpt>
      <trkpt lat="37.235810989513993" lon="-8.613665979355574">
        <ele>82.329999999999998</ele>
        <time>2025-05-07T08:51:49Z</time>
      </trkpt>
      <trkpt lat="37.235957002267241" lon="-8.61352700740099">
        <ele>82.810000000000002</ele>
        <time>2025-05-07T08:51:50Z</time>
      </trkpt>
      <trkpt lat="37.236093962565064" lon="-8.613383006304503">
        <ele>83.769999999999996</ele>
        <time>2025-05-07T08:51:51Z</time>
      </trkpt>
      <trkpt lat="37.236368972808123" lon="-8.613109001889825">
        <ele>85.209999999999994</ele>
        <time>2025-05-07T08:51:53Z</time>
      </trkpt>
      <trkpt lat="37.236529989168048" lon="-8.613001964986324">
        <ele>85.689999999999998</ele>
        <time>2025-05-07T08:51:54Z</time>
      </trkpt>
      <trkpt lat="37.236697962507606" lon="-8.612919989973307">
        <ele>85.689999999999998</ele>
        <time>2025-05-07T08:51:55Z</time>
      </trkpt>
      <trkpt lat="37.236875994130969" lon="-8.612854024395347">
        <ele>85.689999999999998</ele>
        <time>2025-05-07T08:51:56Z</time>
      </trkpt>
      <trkpt lat="37.237064000219107" lon="-8.61281898804009">
        <ele>85.209999999999994</ele>
        <time>2025-05-07T08:51:57Z</time>
      </trkpt>
      <trkpt lat="37.237254017964005" lon="-8.61279996111989">
        <ele>84.730000000000004</ele>
        <time>2025-05-07T08:51:58Z</time>
      </trkpt>
      <trkpt lat="37.237602034583688" lon="-8.612766014412046">
        <ele>83.290000000000006</ele>
        <time>2025-05-07T08:52:00Z</time>
      </trkpt>
      <trkpt lat="37.237785011529922" lon="-8.612657971680164">
        <ele>82.329999999999998</ele>
        <time>2025-05-07T08:52:01Z</time>
      </trkpt>
      <trkpt lat="37.23795298486948" lon="-8.612558981403709">
        <ele>82.329999999999998</ele>
        <time>2025-05-07T08:52:02Z</time>
      </trkpt>
      <trkpt lat="37.239297023043036" lon="-8.611629009246826">
        <ele>78.969999999999999</ele>
        <time>2025-05-07T08:52:11Z</time>
      </trkpt>
      <trkpt lat="37.23943498916924" lon="-8.611634038388729">
        <ele>79.450000000000003</ele>
        <time>2025-05-07T08:52:12Z</time>
      </trkpt>
      <trkpt lat="37.239572033286095" lon="-8.6116389837116">
        <ele>79.930000000000007</ele>
        <time>2025-05-07T08:52:13Z</time>
      </trkpt>
      <trkpt lat="37.240538969635963" lon="-8.61153001897037">
        <ele>83.769999999999996</ele>
        <time>2025-05-07T08:52:21Z</time>
      </trkpt>
      <trkpt lat="37.240798976272345" lon="-8.611478973180056">
        <ele>85.209999999999994</ele>
        <time>2025-05-07T08:52:24Z</time>
      </trkpt>
      <trkpt lat="37.240834012627602" lon="-8.611478973180056">
        <ele>85.209999999999994</ele>
        <time>2025-05-07T08:52:25Z</time>
      </trkpt>
      <trkpt lat="37.240915987640619" lon="-8.611490959301591">
        <ele>85.689999999999998</ele>
        <time>2025-05-07T08:52:26Z</time>
      </trkpt>
      <trkpt lat="37.241049008443952" lon="-8.611600007861853">
        <ele>86.180000000000007</ele>
        <time>2025-05-07T08:52:28Z</time>
      </trkpt>
      <trkpt lat="37.241144981235266" lon="-8.611623980104923">
        <ele>86.659999999999997</ele>
        <time>2025-05-07T08:52:29Z</time>
      </trkpt>
      <trkpt lat="37.241249000653625" lon="-8.611593972891569">
        <ele>87.140000000000001</ele>
        <time>2025-05-07T08:52:30Z</time>
      </trkpt>
      <trkpt lat="37.241358971223235" lon="-8.611548962071538">
        <ele>87.620000000000005</ele>
        <time>2025-05-07T08:52:31Z</time>
      </trkpt>
      <trkpt lat="37.241477994248271" lon="-8.611501017585397">
        <ele>88.099999999999994</ele>
        <time>2025-05-07T08:52:32Z</time>
      </trkpt>
      <trkpt lat="37.241600034758449" lon="-8.611450977623463">
        <ele>88.579999999999998</ele>
        <time>2025-05-07T08:52:33Z</time>
      </trkpt>
      <trkpt lat="37.241718973964453" lon="-8.611393980681896">
        <ele>90.019999999999996</ele>
        <time>2025-05-07T08:52:34Z</time>
      </trkpt>
      <trkpt lat="37.242737961933017" lon="-8.610872039571405">
        <ele>94.829999999999998</ele>
        <time>2025-05-07T08:52:43Z</time>
      </trkpt>
      <trkpt lat="37.243207013234496" lon="-8.61062603071332">
        <ele>94.829999999999998</ele>
        <time>2025-05-07T08:52:47Z</time>
      </trkpt>
      <trkpt lat="37.243318995460868" lon="-8.610599040985107">
        <ele>94.829999999999998</ele>
        <time>2025-05-07T08:52:48Z</time>
      </trkpt>
      <trkpt lat="37.243439024314284" lon="-8.610599040985107">
        <ele>95.310000000000002</ele>
        <time>2025-05-07T08:52:49Z</time>
      </trkpt>
      <trkpt lat="37.24355997517705" lon="-8.610599040985107">
        <ele>94.829999999999998</ele>
        <time>2025-05-07T08:52:50Z</time>
      </trkpt>
      <trkpt lat="37.243686961010098" lon="-8.61062896437943">
        <ele>94.349999999999994</ele>
        <time>2025-05-07T08:52:51Z</time>
      </trkpt>
      <trkpt lat="37.243824005126953" lon="-8.610702976584435">
        <ele>94.349999999999994</ele>
        <time>2025-05-07T08:52:52Z</time>
      </trkpt>
      <trkpt lat="37.243959037587047" lon="-8.610775982961059">
        <ele>94.349999999999994</ele>
        <time>2025-05-07T08:52:53Z</time>
      </trkpt>
      <trkpt lat="37.244189037010074" lon="-8.610900035127997">
        <ele>93.870000000000005</ele>
        <time>2025-05-07T08:52:55Z</time>
      </trkpt>
      <trkpt lat="37.244742996990681" lon="-8.611104972660542">
        <ele>91.939999999999998</ele>
        <time>2025-05-07T08:53:00Z</time>
      </trkpt>
      <trkpt lat="37.244850033894181" lon="-8.611111007630825">
        <ele>91.939999999999998</ele>
        <time>2025-05-07T08:53:01Z</time>
      </trkpt>
      <trkpt lat="37.244967967271805" lon="-8.611106984317303">
        <ele>91.939999999999998</ele>
        <time>2025-05-07T08:53:02Z</time>
      </trkpt>
      <trkpt lat="37.246260959655046" lon="-8.611105978488922">
        <ele>95.790000000000006</ele>
        <time>2025-05-07T08:53:13Z</time>
      </trkpt>
      <trkpt lat="37.246509985998273" lon="-8.611154006794095">
        <ele>96.269999999999996</ele>
        <time>2025-05-07T08:53:15Z</time>
      </trkpt>
      <trkpt lat="37.246640995144844" lon="-8.611176973208785">
        <ele>96.269999999999996</ele>
        <time>2025-05-07T08:53:16Z</time>
      </trkpt>
      <trkpt lat="37.246774015948176" lon="-8.61114596016705">
        <ele>95.790000000000006</ele>
        <time>2025-05-07T08:53:17Z</time>
      </trkpt>
      <trkpt lat="37.246907036751509" lon="-8.611115030944347">
        <ele>95.790000000000006</ele>
        <time>2025-05-07T08:53:18Z</time>
      </trkpt>
      <trkpt lat="37.247029999271035" lon="-8.611087035387754">
        <ele>95.790000000000006</ele>
        <time>2025-05-07T08:53:19Z</time>
      </trkpt>
      <trkpt lat="37.24714801646769" lon="-8.611059039831162">
        <ele>95.310000000000002</ele>
        <time>2025-05-07T08:53:20Z</time>
      </trkpt>
      <trkpt lat="37.247279025614262" lon="-8.611028026789427">
        <ele>95.310000000000002</ele>
        <time>2025-05-07T08:53:21Z</time>
      </trkpt>
      <trkpt lat="37.247356977313757" lon="-8.611065996810794">
        <ele>95.790000000000006</ele>
        <time>2025-05-07T08:53:22Z</time>
      </trkpt>
      <trkpt lat="37.247477006167173" lon="-8.611123999580741">
        <ele>95.790000000000006</ele>
        <time>2025-05-07T08:53:23Z</time>
      </trkpt>
      <trkpt lat="37.247608015313745" lon="-8.61118602566421">
        <ele>95.790000000000006</ele>
        <time>2025-05-07T08:53:24Z</time>
      </trkpt>
      <trkpt lat="37.247741958126426" lon="-8.61125098541379">
        <ele>95.790000000000006</ele>
        <time>2025-05-07T08:53:25Z</time>
      </trkpt>
      <trkpt lat="37.247875984758139" lon="-8.611309994012117">
        <ele>95.790000000000006</ele>
        <time>2025-05-07T08:53:26Z</time>
      </trkpt>
      <trkpt lat="37.248015040531754" lon="-8.611328015103936">
        <ele>95.790000000000006</ele>
        <time>2025-05-07T08:53:27Z</time>
      </trkpt>
      <trkpt lat="37.24908197298646" lon="-8.611408984288573">
        <ele>100.11</ele>
        <time>2025-05-07T08:53:36Z</time>
      </trkpt>
      <trkpt lat="37.249184986576438" lon="-8.611445026472211">
        <ele>100.11</ele>
        <time>2025-05-07T08:53:37Z</time>
      </trkpt>
      <trkpt lat="37.249290011823177" lon="-8.611482996493578">
        <ele>100.59999999999999</ele>
        <time>2025-05-07T08:53:38Z</time>
      </trkpt>
      <trkpt lat="37.249394031241536" lon="-8.611533036455512">
        <ele>101.08</ele>
        <time>2025-05-07T08:53:39Z</time>
      </trkpt>
      <trkpt lat="37.249498972669244" lon="-8.61159497871995">
        <ele>101.56</ele>
        <time>2025-05-07T08:53:40Z</time>
      </trkpt>
      <trkpt lat="37.250522989779711" lon="-8.612056989222765">
        <ele>103</ele>
        <time>2025-05-07T08:53:49Z</time>
      </trkpt>
      <trkpt lat="37.251105029135942" lon="-8.612146005034447">
        <ele>105.40000000000001</ele>
        <time>2025-05-07T08:53:54Z</time>
      </trkpt>
      <trkpt lat="37.252265000715852" lon="-8.612574990838766">
        <ele>105.88</ele>
        <time>2025-05-07T08:54:02Z</time>
      </trkpt>
      <trkpt lat="37.253534020856023" lon="-8.612789986655116">
        <ele>104.44</ele>
        <time>2025-05-07T08:54:11Z</time>
      </trkpt>
      <trkpt lat="37.254412025213242" lon="-8.61260399222374">
        <ele>108.29000000000001</ele>
        <time>2025-05-07T08:54:17Z</time>
      </trkpt>
      <trkpt lat="37.254575975239277" lon="-8.612524028867483">
        <ele>109.73</ele>
        <time>2025-05-07T08:54:18Z</time>
      </trkpt>
      <trkpt lat="37.254740009084344" lon="-8.612422021105886">
        <ele>110.69</ele>
        <time>2025-05-07T08:54:19Z</time>
      </trkpt>
      <trkpt lat="37.256062002852559" lon="-8.611500011757016">
        <ele>119.34</ele>
        <time>2025-05-07T08:54:27Z</time>
      </trkpt>
      <trkpt lat="37.25621497258544" lon="-8.611386017873883">
        <ele>119.81999999999999</ele>
        <time>2025-05-07T08:54:28Z</time>
      </trkpt>
      <trkpt lat="37.256358973681927" lon="-8.61125199124217">
        <ele>120.78</ele>
        <time>2025-05-07T08:54:29Z</time>
      </trkpt>
      <trkpt lat="37.256606994196773" lon="-8.610973041504622">
        <ele>121.73999999999999</ele>
        <time>2025-05-07T08:54:31Z</time>
      </trkpt>
      <trkpt lat="37.256749989464879" lon="-8.610871033743024">
        <ele>122.22</ele>
        <time>2025-05-07T08:54:32Z</time>
      </trkpt>
      <trkpt lat="37.256914023309946" lon="-8.610771037638187">
        <ele>122.70999999999999</ele>
        <time>2025-05-07T08:54:33Z</time>
      </trkpt>
      <trkpt lat="37.257080990821123" lon="-8.610705994069576">
        <ele>122.70999999999999</ele>
        <time>2025-05-07T08:54:34Z</time>
      </trkpt>
      <trkpt lat="37.257260028272867" lon="-8.610637011006475">
        <ele>123.19</ele>
        <time>2025-05-07T08:54:35Z</time>
      </trkpt>
      <trkpt lat="37.258291002362967" lon="-8.610294023528695">
        <ele>127.03</ele>
        <time>2025-05-07T08:54:41Z</time>
      </trkpt>
      <trkpt lat="37.259193984791636" lon="-8.610319001600146">
        <ele>128.94999999999999</ele>
        <time>2025-05-07T08:54:46Z</time>
      </trkpt>
      <trkpt lat="37.260594014078379" lon="-8.610559981316328">
        <ele>131.36000000000001</ele>
        <time>2025-05-07T08:54:54Z</time>
      </trkpt>
      <trkpt lat="37.260730974376202" lon="-8.610574984923005">
        <ele>131.84</ele>
        <time>2025-05-07T08:54:55Z</time>
      </trkpt>
      <trkpt lat="37.260862989351153" lon="-8.610645979642868">
        <ele>132.31999999999999</ele>
        <time>2025-05-07T08:54:56Z</time>
      </trkpt>
      <trkpt lat="37.261001961305737" lon="-8.610733989626169">
        <ele>132.31999999999999</ele>
        <time>2025-05-07T08:54:57Z</time>
      </trkpt>
      <trkpt lat="37.261145040392876" lon="-8.610824011266232">
        <ele>132.80000000000001</ele>
        <time>2025-05-07T08:54:58Z</time>
      </trkpt>
      <trkpt lat="37.261262973770499" lon="-8.610976980999112">
        <ele>132.80000000000001</ele>
        <time>2025-05-07T08:54:59Z</time>
      </trkpt>
      <trkpt lat="37.261375961825252" lon="-8.611133974045515">
        <ele>132.80000000000001</ele>
        <time>2025-05-07T08:55:00Z</time>
      </trkpt>
      <trkpt lat="37.261490039527416" lon="-8.611299013718963">
        <ele>132.80000000000001</ele>
        <time>2025-05-07T08:55:01Z</time>
      </trkpt>
      <trkpt lat="37.261573020368814" lon="-8.611491965129972">
        <ele>132.80000000000001</ele>
        <time>2025-05-07T08:55:02Z</time>
      </trkpt>
      <trkpt lat="37.261654995381832" lon="-8.61168198287487">
        <ele>132.80000000000001</ele>
        <time>2025-05-07T08:55:03Z</time>
      </trkpt>
      <trkpt lat="37.261731019243598" lon="-8.611858002841473">
        <ele>132.80000000000001</ele>
        <time>2025-05-07T08:55:04Z</time>
      </trkpt>
      <trkpt lat="37.261804025620222" lon="-8.61202497035265">
        <ele>132.80000000000001</ele>
        <time>2025-05-07T08:55:05Z</time>
      </trkpt>
      <trkpt lat="37.261911984533072" lon="-8.612144999206066">
        <ele>132.31999999999999</ele>
        <time>2025-05-07T08:55:06Z</time>
      </trkpt>
      <trkpt lat="37.262050034478307" lon="-8.612252036109567">
        <ele>131.84</ele>
        <time>2025-05-07T08:55:07Z</time>
      </trkpt>
      <trkpt lat="37.262199986726046" lon="-8.61236703582108">
        <ele>130.88</ele>
        <time>2025-05-07T08:55:08Z</time>
      </trkpt>
      <trkpt lat="37.262787977233529" lon="-8.612841032445431">
        <ele>129.43000000000001</ele>
        <time>2025-05-07T08:55:12Z</time>
      </trkpt>
      <trkpt lat="37.262871041893959" lon="-8.612998025491834">
        <ele>129.91999999999999</ele>
        <time>2025-05-07T08:55:13Z</time>
      </trkpt>
      <trkpt lat="37.262957962229848" lon="-8.61316398717463">
        <ele>129.91999999999999</ele>
        <time>2025-05-07T08:55:14Z</time>
      </trkpt>
      <trkpt lat="37.263228027150035" lon="-8.613650975748897">
        <ele>131.36000000000001</ele>
        <time>2025-05-07T08:55:17Z</time>
      </trkpt>
      <trkpt lat="37.26334503851831" lon="-8.613768992945552">
        <ele>131.84</ele>
        <time>2025-05-07T08:55:18Z</time>
      </trkpt>
      <trkpt lat="37.263470012694597" lon="-8.613884998485446">
        <ele>132.31999999999999</ele>
        <time>2025-05-07T08:55:19Z</time>
      </trkpt>
      <trkpt lat="37.263632034882903" lon="-8.613930009305477">
        <ele>133.28</ele>
        <time>2025-05-07T08:55:20Z</time>
      </trkpt>
      <trkpt lat="37.263809982687235" lon="-8.61397996544838">
        <ele>133.75999999999999</ele>
        <time>2025-05-07T08:55:21Z</time>
      </trkpt>
      <trkpt lat="37.263992037624121" lon="-8.613981977105141">
        <ele>134.72</ele>
        <time>2025-05-07T08:55:22Z</time>
      </trkpt>
      <trkpt lat="37.264177026227117" lon="-8.613973008468747">
        <ele>135.68000000000001</ele>
        <time>2025-05-07T08:55:23Z</time>
      </trkpt>
      <trkpt lat="37.264346005395055" lon="-8.613926991820335">
        <ele>136.63999999999999</ele>
        <time>2025-05-07T08:55:24Z</time>
      </trkpt>
      <trkpt lat="37.264510961249471" lon="-8.613833030685782">
        <ele>138.09</ele>
        <time>2025-05-07T08:55:25Z</time>
      </trkpt>
      <trkpt lat="37.264659991487861" lon="-8.613730017095804">
        <ele>139.53</ele>
        <time>2025-05-07T08:55:26Z</time>
      </trkpt>
      <trkpt lat="37.264796029776335" lon="-8.613624991849065">
        <ele>140.97</ele>
        <time>2025-05-07T08:55:27Z</time>
      </trkpt>
      <trkpt lat="37.265060981735587" lon="-8.613412007689476">
        <ele>143.84999999999999</ele>
        <time>2025-05-07T08:55:29Z</time>
      </trkpt>
      <trkpt lat="37.265159972012043" lon="-8.613284016028047">
        <ele>145.30000000000001</ele>
        <time>2025-05-07T08:55:30Z</time>
      </trkpt>
      <trkpt lat="37.26526097394526" lon="-8.613153006881475">
        <ele>146.74000000000001</ele>
        <time>2025-05-07T08:55:31Z</time>
      </trkpt>
      <trkpt lat="37.265330040827394" lon="-8.612973969429731">
        <ele>148.18000000000001</ele>
        <time>2025-05-07T08:55:32Z</time>
      </trkpt>
      <trkpt lat="37.26541000418365" lon="-8.612770037725568">
        <ele>150.09999999999999</ele>
        <time>2025-05-07T08:55:33Z</time>
      </trkpt>
      <trkpt lat="37.266047028824687" lon="-8.61071596853435">
        <ele>169.81</ele>
        <time>2025-05-07T08:55:42Z</time>
      </trkpt>
      <trkpt lat="37.266306029632688" lon="-8.610105011612177">
        <ele>176.06</ele>
        <time>2025-05-07T08:55:45Z</time>
      </trkpt>
      <trkpt lat="37.266431003808975" lon="-8.609931003302336">
        <ele>177.97999999999999</ele>
        <time>2025-05-07T08:55:46Z</time>
      </trkpt>
      <trkpt lat="37.266784971579909" lon="-8.609391041100025">
        <ele>184.22999999999999</ele>
        <time>2025-05-07T08:55:49Z</time>
      </trkpt>
      <trkpt lat="37.266952022910118" lon="-8.609042018651962">
        <ele>188.08000000000001</ele>
        <time>2025-05-07T08:55:51Z</time>
      </trkpt>
      <trkpt lat="37.267060987651348" lon="-8.608905980363488">
        <ele>190</ele>
        <time>2025-05-07T08:55:52Z</time>
      </trkpt>
      <trkpt lat="37.2671930026263" lon="-8.608773965388537">
        <ele>192.40000000000001</ele>
        <time>2025-05-07T08:55:53Z</time>
      </trkpt>
      <trkpt lat="37.267682002857327" lon="-8.608279014006257">
        <ele>200.09</ele>
        <time>2025-05-07T08:55:57Z</time>
      </trkpt>
      <trkpt lat="37.26777303032577" lon="-8.608154039829969">
        <ele>201.53</ele>
        <time>2025-05-07T08:55:58Z</time>
      </trkpt>
      <trkpt lat="37.267850982025266" lon="-8.608012972399592">
        <ele>202.97999999999999</ele>
        <time>2025-05-07T08:55:59Z</time>
      </trkpt>
      <trkpt lat="37.267899010330439" lon="-8.607846004888415">
        <ele>204.90000000000001</ele>
        <time>2025-05-07T08:56:00Z</time>
      </trkpt>
      <trkpt lat="37.267907978966832" lon="-8.607646012678742">
        <ele>206.81999999999999</ele>
        <time>2025-05-07T08:56:01Z</time>
      </trkpt>
      <trkpt lat="37.267884006723762" lon="-8.607430011034012">
        <ele>208.25999999999999</ele>
        <time>2025-05-07T08:56:02Z</time>
      </trkpt>
      <trkpt lat="37.267869003117085" lon="-8.607200011610985">
        <ele>210.19</ele>
        <time>2025-05-07T08:56:03Z</time>
      </trkpt>
      <trkpt lat="37.267829021438956" lon="-8.606057977303863">
        <ele>220.75999999999999</ele>
        <time>2025-05-07T08:56:09Z</time>
      </trkpt>
      <trkpt lat="37.267874032258987" lon="-8.605954041704536">
        <ele>221.72</ele>
        <time>2025-05-07T08:56:10Z</time>
      </trkpt>
      <trkpt lat="37.267933962866664" lon="-8.605925040319562">
        <ele>223.16</ele>
        <time>2025-05-07T08:56:11Z</time>
      </trkpt>
      <trkpt lat="37.268037982285023" lon="-8.605891009792686">
        <ele>224.61000000000001</ele>
        <time>2025-05-07T08:56:12Z</time>
      </trkpt>
      <trkpt lat="37.268166979774833" lon="-8.605850022286177">
        <ele>225.56999999999999</ele>
        <time>2025-05-07T08:56:13Z</time>
      </trkpt>
      <trkpt lat="37.268312992528081" lon="-8.605801993981004">
        <ele>227.00999999999999</ele>
        <time>2025-05-07T08:56:14Z</time>
      </trkpt>
      <trkpt lat="37.268453976139426" lon="-8.605756983160973">
        <ele>227.97</ele>
        <time>2025-05-07T08:56:15Z</time>
      </trkpt>
      <trkpt lat="37.268577022477984" lon="-8.605717001482844">
        <ele>228.93000000000001</ele>
        <time>2025-05-07T08:56:16Z</time>
      </trkpt>
      <trkpt lat="37.268669977784157" lon="-8.605632008984685">
        <ele>229.88999999999999</ele>
        <time>2025-05-07T08:56:17Z</time>
      </trkpt>
      <trkpt lat="37.268724963068962" lon="-8.605539975687861">
        <ele>230.84999999999999</ele>
        <time>2025-05-07T08:56:18Z</time>
      </trkpt>
      <trkpt lat="37.268752036616206" lon="-8.605432016775012">
        <ele>231.81</ele>
        <time>2025-05-07T08:56:19Z</time>
      </trkpt>
      <trkpt lat="37.268723035231233" lon="-8.60532196238637">
        <ele>232.78</ele>
        <time>2025-05-07T08:56:20Z</time>
      </trkpt>
      <trkpt lat="37.26867500692606" lon="-8.605206040665507">
        <ele>233.25999999999999</ele>
        <time>2025-05-07T08:56:21Z</time>
      </trkpt>
      <trkpt lat="37.268593031913042" lon="-8.605121970176697">
        <ele>234.22</ele>
        <time>2025-05-07T08:56:22Z</time>
      </trkpt>
      <trkpt lat="37.268476020544767" lon="-8.605066984891892">
        <ele>235.18000000000001</ele>
        <time>2025-05-07T08:56:23Z</time>
      </trkpt>
      <trkpt lat="37.268348028883338" lon="-8.605006970465183">
        <ele>236.62</ele>
        <time>2025-05-07T08:56:24Z</time>
      </trkpt>
      <trkpt lat="37.268234035000205" lon="-8.604918960481882">
        <ele>237.58000000000001</ele>
        <time>2025-05-07T08:56:25Z</time>
      </trkpt>
      <trkpt lat="37.268134960904717" lon="-8.604808989912272">
        <ele>238.53999999999999</ele>
        <time>2025-05-07T08:56:26Z</time>
      </trkpt>
      <trkpt lat="37.268060026690364" lon="-8.60467404127121">
        <ele>239.99000000000001</ele>
        <time>2025-05-07T08:56:27Z</time>
      </trkpt>
      <trkpt lat="37.267999006435275" lon="-8.604511013254523">
        <ele>240.94999999999999</ele>
        <time>2025-05-07T08:56:28Z</time>
      </trkpt>
      <trkpt lat="37.267900016158819" lon="-8.604217981919646">
        <ele>243.83000000000001</ele>
        <time>2025-05-07T08:56:30Z</time>
      </trkpt>
      <trkpt lat="37.267900016158819" lon="-8.604113040491939">
        <ele>245.27000000000001</ele>
        <time>2025-05-07T08:56:31Z</time>
      </trkpt>
      <trkpt lat="37.267935974523425" lon="-8.604043973609805">
        <ele>246.22999999999999</ele>
        <time>2025-05-07T08:56:32Z</time>
      </trkpt>
      <trkpt lat="37.267986014485359" lon="-8.603969039395452">
        <ele>247.19999999999999</ele>
        <time>2025-05-07T08:56:33Z</time>
      </trkpt>
      <trkpt lat="37.268046028912067" lon="-8.603927968069911">
        <ele>248.63999999999999</ele>
        <time>2025-05-07T08:56:34Z</time>
      </trkpt>
      <trkpt lat="37.268115011975169" lon="-8.603883041068912">
        <ele>249.59999999999999</ele>
        <time>2025-05-07T08:56:35Z</time>
      </trkpt>
      <trkpt lat="37.268195981159806" lon="-8.603883041068912">
        <ele>251.03999999999999</ele>
        <time>2025-05-07T08:56:36Z</time>
      </trkpt>
      <trkpt lat="37.268282985314727" lon="-8.603883041068912">
        <ele>252</ele>
        <time>2025-05-07T08:56:37Z</time>
      </trkpt>
      <trkpt lat="37.268370995298028" lon="-8.603935008868575">
        <ele>252.96000000000001</ele>
        <time>2025-05-07T08:56:38Z</time>
      </trkpt>
      <trkpt lat="37.268478032201529" lon="-8.603999968618155">
        <ele>253.93000000000001</ele>
        <time>2025-05-07T08:56:39Z</time>
      </trkpt>
      <trkpt lat="37.268596971407533" lon="-8.604072974994779">
        <ele>255.37</ele>
        <time>2025-05-07T08:56:40Z</time>
      </trkpt>
      <trkpt lat="37.268726974725723" lon="-8.60416098497808">
        <ele>256.81</ele>
        <time>2025-05-07T08:56:41Z</time>
      </trkpt>
      <trkpt lat="37.269673040136695" lon="-8.604893982410431">
        <ele>267.38</ele>
        <time>2025-05-07T08:56:47Z</time>
      </trkpt>
      <trkpt lat="37.270406037569046" lon="-8.605481972917914">
        <ele>277</ele>
        <time>2025-05-07T08:56:51Z</time>
      </trkpt>
      <trkpt lat="37.27129896171391" lon="-8.606150010600686">
        <ele>288.52999999999997</ele>
        <time>2025-05-07T08:56:57Z</time>
      </trkpt>
      <trkpt lat="37.272356003522873" lon="-8.606800027191639">
        <ele>291.89999999999998</ele>
        <time>2025-05-07T08:57:06Z</time>
      </trkpt>
      <trkpt lat="37.272569993510842" lon="-8.606914021074772">
        <ele>292.86000000000001</ele>
        <time>2025-05-07T08:57:08Z</time>
      </trkpt>
      <trkpt lat="37.27267200127244" lon="-8.606985015794635">
        <ele>293.81999999999999</ele>
        <time>2025-05-07T08:57:09Z</time>
      </trkpt>
      <trkpt lat="37.272750958800316" lon="-8.607094986364245">
        <ele>294.77999999999997</ele>
        <time>2025-05-07T08:57:10Z</time>
      </trkpt>
      <trkpt lat="37.272830000147223" lon="-8.607217026874423">
        <ele>295.74000000000001</ele>
        <time>2025-05-07T08:57:11Z</time>
      </trkpt>
      <trkpt lat="37.272910969331861" lon="-8.60734099522233">
        <ele>296.69999999999999</ele>
        <time>2025-05-07T08:57:12Z</time>
      </trkpt>
      <trkpt lat="37.273328974843025" lon="-8.607981037348509">
        <ele>303.43000000000001</ele>
        <time>2025-05-07T08:57:17Z</time>
      </trkpt>
      <trkpt lat="37.273412961512804" lon="-8.608048008754849">
        <ele>304.88</ele>
        <time>2025-05-07T08:57:18Z</time>
      </trkpt>
      <trkpt lat="37.273513963446021" lon="-8.608128977939487">
        <ele>306.31999999999999</ele>
        <time>2025-05-07T08:57:19Z</time>
      </trkpt>
      <trkpt lat="37.274768985807896" lon="-8.608740018680692">
        <ele>310.16000000000003</ele>
        <time>2025-05-07T08:57:29Z</time>
      </trkpt>
      <trkpt lat="37.274892032146454" lon="-8.608748987317085">
        <ele>310.16000000000003</ele>
        <time>2025-05-07T08:57:30Z</time>
      </trkpt>
      <trkpt lat="37.275009965524077" lon="-8.608730966225267">
        <ele>309.68000000000001</ele>
        <time>2025-05-07T08:57:31Z</time>
      </trkpt>
      <trkpt lat="37.275132006034255" lon="-8.608675980940461">
        <ele>309.68000000000001</ele>
        <time>2025-05-07T08:57:32Z</time>
      </trkpt>
      <trkpt lat="37.275253962725401" lon="-8.608620995655656">
        <ele>309.19999999999999</ele>
        <time>2025-05-07T08:57:33Z</time>
      </trkpt>
      <trkpt lat="37.275727959349751" lon="-8.608408011496067">
        <ele>309.68000000000001</ele>
        <time>2025-05-07T08:57:37Z</time>
      </trkpt>
      <trkpt lat="37.275834996253252" lon="-8.608336010947824">
        <ele>309.68000000000001</ele>
        <time>2025-05-07T08:57:38Z</time>
      </trkpt>
      <trkpt lat="37.27589400485158" lon="-8.608229979872704">
        <ele>310.16000000000003</ele>
        <time>2025-05-07T08:57:39Z</time>
      </trkpt>
      <trkpt lat="37.275946978479624" lon="-8.608112968504429">
        <ele>309.68000000000001</ele>
        <time>2025-05-07T08:57:40Z</time>
      </trkpt>
      <trkpt lat="37.275994000956416" lon="-8.607979025691748">
        <ele>309.68000000000001</ele>
        <time>2025-05-07T08:57:41Z</time>
      </trkpt>
      <trkpt lat="37.27604303508997" lon="-8.607838964089751">
        <ele>309.19999999999999</ele>
        <time>2025-05-07T08:57:42Z</time>
      </trkpt>
      <trkpt lat="37.276102965697646" lon="-8.607718013226986">
        <ele>309.19999999999999</ele>
        <time>2025-05-07T08:57:43Z</time>
      </trkpt>
      <trkpt lat="37.276197010651231" lon="-8.607622962445021">
        <ele>308.72000000000003</ele>
        <time>2025-05-07T08:57:44Z</time>
      </trkpt>
      <trkpt lat="37.27630203589797" lon="-8.607551967725158">
        <ele>308.24000000000001</ele>
        <time>2025-05-07T08:57:45Z</time>
      </trkpt>
      <trkpt lat="37.27643103338778" lon="-8.607503017410636">
        <ele>307.75999999999999</ele>
        <time>2025-05-07T08:57:46Z</time>
      </trkpt>
      <trkpt lat="37.276565982028842" lon="-8.60744995996356">
        <ele>307.75999999999999</ele>
        <time>2025-05-07T08:57:47Z</time>
      </trkpt>
      <trkpt lat="37.276955991983414" lon="-8.607278969138861">
        <ele>306.80000000000001</ele>
        <time>2025-05-07T08:57:50Z</time>
      </trkpt>
      <trkpt lat="37.277062023058534" lon="-8.607187019661069">
        <ele>306.31999999999999</ele>
        <time>2025-05-07T08:57:51Z</time>
      </trkpt>
      <trkpt lat="37.277153972536325" lon="-8.60705902799964">
        <ele>305.83999999999997</ele>
        <time>2025-05-07T08:57:52Z</time>
      </trkpt>
      <trkpt lat="37.277238965034485" lon="-8.606941010802984">
        <ele>305.36000000000001</ele>
        <time>2025-05-07T08:57:53Z</time>
      </trkpt>
      <trkpt lat="37.277321023866534" lon="-8.606826011091471">
        <ele>304.38999999999999</ele>
        <time>2025-05-07T08:57:54Z</time>
      </trkpt>
      <trkpt lat="37.27739998139441" lon="-8.606726014986634">
        <ele>303.91000000000003</ele>
        <time>2025-05-07T08:57:55Z</time>
      </trkpt>
      <trkpt lat="37.27750601246953" lon="-8.606656026095152">
        <ele>302.94999999999999</ele>
        <time>2025-05-07T08:57:56Z</time>
      </trkpt>
      <trkpt lat="37.27761497721076" lon="-8.606650996953249">
        <ele>302.47000000000003</ele>
        <time>2025-05-07T08:57:57Z</time>
      </trkpt>
      <trkpt lat="37.277717990800738" lon="-8.6066950019449">
        <ele>302.47000000000003</ele>
        <time>2025-05-07T08:57:58Z</time>
      </trkpt>
      <trkpt lat="37.277836007997394" lon="-8.606763985008001">
        <ele>301.99000000000001</ele>
        <time>2025-05-07T08:57:59Z</time>
      </trkpt>
      <trkpt lat="37.277933992445469" lon="-8.606849983334541">
        <ele>301.99000000000001</ele>
        <time>2025-05-07T08:58:00Z</time>
      </trkpt>
      <trkpt lat="37.278023008257151" lon="-8.60697696916759">
        <ele>301.99000000000001</ele>
        <time>2025-05-07T08:58:01Z</time>
      </trkpt>
      <trkpt lat="37.278115041553974" lon="-8.607107978314161">
        <ele>301.50999999999999</ele>
        <time>2025-05-07T08:58:02Z</time>
      </trkpt>
      <trkpt lat="37.278455011546612" lon="-8.607564959675074">
        <ele>302.47000000000003</ele>
        <time>2025-05-07T08:58:06Z</time>
      </trkpt>
      <trkpt lat="37.278549978509545" lon="-8.607628997415304">
        <ele>302.94999999999999</ele>
        <time>2025-05-07T08:58:07Z</time>
      </trkpt>
      <trkpt lat="37.278659027069807" lon="-8.607679959386587">
        <ele>303.43000000000001</ele>
        <time>2025-05-07T08:58:08Z</time>
      </trkpt>
      <trkpt lat="37.278914004564285" lon="-8.607775010168552">
        <ele>304.88</ele>
        <time>2025-05-07T08:58:10Z</time>
      </trkpt>
      <trkpt lat="37.279049959033728" lon="-8.607792025431991">
        <ele>305.36000000000001</ele>
        <time>2025-05-07T08:58:11Z</time>
      </trkpt>
      <trkpt lat="37.279187003150582" lon="-8.607809962704778">
        <ele>305.83999999999997</ele>
        <time>2025-05-07T08:58:12Z</time>
      </trkpt>
      <trkpt lat="37.279331004247069" lon="-8.607756989076734">
        <ele>306.31999999999999</ele>
        <time>2025-05-07T08:58:13Z</time>
      </trkpt>
      <trkpt lat="37.279473999515176" lon="-8.60770401544869">
        <ele>306.80000000000001</ele>
        <time>2025-05-07T08:58:14Z</time>
      </trkpt>
      <trkpt lat="37.27961297146976" lon="-8.607652969658375">
        <ele>307.27999999999997</ele>
        <time>2025-05-07T08:58:15Z</time>
      </trkpt>
      <trkpt lat="37.279746998101473" lon="-8.607604019343853">
        <ele>307.75999999999999</ele>
        <time>2025-05-07T08:58:16Z</time>
      </trkpt>
      <trkpt lat="37.279867026954889" lon="-8.607578035444021">
        <ele>307.75999999999999</ele>
        <time>2025-05-07T08:58:17Z</time>
      </trkpt>
      <trkpt lat="37.279989989474416" lon="-8.607591027393937">
        <ele>308.24000000000001</ele>
        <time>2025-05-07T08:58:18Z</time>
      </trkpt>
      <trkpt lat="37.280112029984593" lon="-8.607644001021981">
        <ele>307.75999999999999</ele>
        <time>2025-05-07T08:58:19Z</time>
      </trkpt>
      <trkpt lat="37.280240021646023" lon="-8.607714995741844">
        <ele>307.75999999999999</ele>
        <time>2025-05-07T08:58:20Z</time>
      </trkpt>
      <trkpt lat="37.280366001650691" lon="-8.607784984633327">
        <ele>307.27999999999997</ele>
        <time>2025-05-07T08:58:21Z</time>
      </trkpt>
      <trkpt lat="37.280488964170218" lon="-8.607817003503442">
        <ele>306.80000000000001</ele>
        <time>2025-05-07T08:58:22Z</time>
      </trkpt>
      <trkpt lat="37.280615027993917" lon="-8.607827983796597">
        <ele>306.31999999999999</ele>
        <time>2025-05-07T08:58:23Z</time>
      </trkpt>
      <trkpt lat="37.280735978856683" lon="-8.607794037088752">
        <ele>305.83999999999997</ele>
        <time>2025-05-07T08:58:24Z</time>
      </trkpt>
      <trkpt lat="37.280870005488396" lon="-8.607738967984915">
        <ele>304.88</ele>
        <time>2025-05-07T08:58:25Z</time>
      </trkpt>
      <trkpt lat="37.281014006584883" lon="-8.607679959386587">
        <ele>303.91000000000003</ele>
        <time>2025-05-07T08:58:26Z</time>
      </trkpt>
      <trkpt lat="37.282182024791837" lon="-8.607128011062741">
        <ele>301.99000000000001</ele>
        <time>2025-05-07T08:58:34Z</time>
      </trkpt>
      <trkpt lat="37.282309010624886" lon="-8.6071059666574">
        <ele>301.50999999999999</ele>
        <time>2025-05-07T08:58:35Z</time>
      </trkpt>
      <trkpt lat="37.282441025599837" lon="-8.607087023556233">
        <ele>301.50999999999999</ele>
        <time>2025-05-07T08:58:36Z</time>
      </trkpt>
      <trkpt lat="37.282573040574789" lon="-8.607098003849387">
        <ele>301.50999999999999</ele>
        <time>2025-05-07T08:58:37Z</time>
      </trkpt>
      <trkpt lat="37.282708995044231" lon="-8.607139997184277">
        <ele>301.50999999999999</ele>
        <time>2025-05-07T08:58:38Z</time>
      </trkpt>
      <trkpt lat="37.282838998362422" lon="-8.60723102465272">
        <ele>301.50999999999999</ele>
        <time>2025-05-07T08:58:39Z</time>
      </trkpt>
      <trkpt lat="37.2829610388726" lon="-8.607347030192614">
        <ele>301.50999999999999</ele>
        <time>2025-05-07T08:58:40Z</time>
      </trkpt>
      <trkpt lat="37.283067991957068" lon="-8.607476027682424">
        <ele>301.50999999999999</ele>
        <time>2025-05-07T08:58:41Z</time>
      </trkpt>
      <trkpt lat="37.283149966970086" lon="-8.607633020728827">
        <ele>302.47000000000003</ele>
        <time>2025-05-07T08:58:42Z</time>
      </trkpt>
      <trkpt lat="37.283214004710317" lon="-8.60781298018992">
        <ele>302.94999999999999</ele>
        <time>2025-05-07T08:58:43Z</time>
      </trkpt>
      <trkpt lat="37.283281981945038" lon="-8.608001992106438">
        <ele>303.91000000000003</ele>
        <time>2025-05-07T08:58:44Z</time>
      </trkpt>
      <trkpt lat="37.283431012183428" lon="-8.608320001512766">
        <ele>305.83999999999997</ele>
        <time>2025-05-07T08:58:46Z</time>
      </trkpt>
      <trkpt lat="37.283511981368065" lon="-8.608402982354164">
        <ele>306.80000000000001</ele>
        <time>2025-05-07T08:58:47Z</time>
      </trkpt>
      <trkpt lat="37.283618012443185" lon="-8.608470959588885">
        <ele>307.75999999999999</ele>
        <time>2025-05-07T08:58:48Z</time>
      </trkpt>
      <trkpt lat="37.283720020204782" lon="-8.608537008985877">
        <ele>309.19999999999999</ele>
        <time>2025-05-07T08:58:49Z</time>
      </trkpt>
      <trkpt lat="37.283824039623141" lon="-8.608586965128779">
        <ele>310.63999999999999</ele>
        <time>2025-05-07T08:58:50Z</time>
      </trkpt>
      <trkpt lat="37.283943984657526" lon="-8.608633987605572">
        <ele>311.60000000000002</ele>
        <time>2025-05-07T08:58:51Z</time>
      </trkpt>
      <trkpt lat="37.284441031515598" lon="-8.608830040320754">
        <ele>315.93000000000001</ele>
        <time>2025-05-07T08:58:56Z</time>
      </trkpt>
      <trkpt lat="37.2845100145787" lon="-8.60888896510005">
        <ele>316.41000000000003</ele>
        <time>2025-05-07T08:58:57Z</time>
      </trkpt>
      <trkpt lat="37.284568017348647" lon="-8.6089519970119">
        <ele>316.41000000000003</ele>
        <time>2025-05-07T08:58:58Z</time>
      </trkpt>
      <trkpt lat="37.284624008461833" lon="-8.609014023095369">
        <ele>316.88999999999999</ele>
        <time>2025-05-07T08:58:59Z</time>
      </trkpt>
      <trkpt lat="37.284679999575019" lon="-8.609075965359807">
        <ele>316.88999999999999</ele>
        <time>2025-05-07T08:59:00Z</time>
      </trkpt>
      <trkpt lat="37.284698020666838" lon="-8.609183002263308">
        <ele>316.88999999999999</ele>
        <time>2025-05-07T08:59:01Z</time>
      </trkpt>
      <trkpt lat="37.284716041758657" lon="-8.609292972832918">
        <ele>316.88999999999999</ele>
        <time>2025-05-07T08:59:02Z</time>
      </trkpt>
      <trkpt lat="37.284718975424767" lon="-8.609403027221561">
        <ele>316.88999999999999</ele>
        <time>2025-05-07T08:59:03Z</time>
      </trkpt>
      <trkpt lat="37.284713024273515" lon="-8.609517021104693">
        <ele>316.88999999999999</ele>
        <time>2025-05-07T08:59:04Z</time>
      </trkpt>
      <trkpt lat="37.284705983474851" lon="-8.609637971967459">
        <ele>316.88999999999999</ele>
        <time>2025-05-07T08:59:05Z</time>
      </trkpt>
      <trkpt lat="37.284697014838457" lon="-8.609763029962778">
        <ele>316.88999999999999</ele>
        <time>2025-05-07T08:59:06Z</time>
      </trkpt>
      <trkpt lat="37.284685028716922" lon="-8.609886998310685">
        <ele>316.88999999999999</ele>
        <time>2025-05-07T08:59:07Z</time>
      </trkpt>
      <trkpt lat="37.284672958776355" lon="-8.610011972486973">
        <ele>317.37</ele>
        <time>2025-05-07T08:59:08Z</time>
      </trkpt>
      <trkpt lat="37.2846619784832" lon="-8.610137030482292">
        <ele>317.37</ele>
        <time>2025-05-07T08:59:09Z</time>
      </trkpt>
      <trkpt lat="37.284675976261497" lon="-8.610259993001819">
        <ele>317.37</ele>
        <time>2025-05-07T08:59:10Z</time>
      </trkpt>
      <trkpt lat="37.284700032323599" lon="-8.610379016026855">
        <ele>317.37</ele>
        <time>2025-05-07T08:59:11Z</time>
      </trkpt>
      <trkpt lat="37.284753005951643" lon="-8.61047800630331">
        <ele>317.85000000000002</ele>
        <time>2025-05-07T08:59:12Z</time>
      </trkpt>
      <trkpt lat="37.284813020378351" lon="-8.610584959387779">
        <ele>318.32999999999998</ele>
        <time>2025-05-07T08:59:13Z</time>
      </trkpt>
      <trkpt lat="37.284873034805059" lon="-8.610694007948041">
        <ele>318.32999999999998</ele>
        <time>2025-05-07T08:59:14Z</time>
      </trkpt>
      <trkpt lat="37.284933971241117" lon="-8.610788974910975">
        <ele>318.81</ele>
        <time>2025-05-07T08:59:15Z</time>
      </trkpt>
      <trkpt lat="37.285147961229086" lon="-8.611002964898944">
        <ele>319.30000000000001</ele>
        <time>2025-05-07T08:59:18Z</time>
      </trkpt>
      <trkpt lat="37.285217028111219" lon="-8.611072031781077">
        <ele>319.77999999999997</ele>
        <time>2025-05-07T08:59:19Z</time>
      </trkpt>
      <trkpt lat="37.285287017002702" lon="-8.611135985702276">
        <ele>319.77999999999997</ele>
        <time>2025-05-07T08:59:20Z</time>
      </trkpt>
      <trkpt lat="37.285371003672481" lon="-8.611135985702276">
        <ele>320.25999999999999</ele>
        <time>2025-05-07T08:59:21Z</time>
      </trkpt>
      <trkpt lat="37.285463036969304" lon="-8.611119976267219">
        <ele>320.74000000000001</ele>
        <time>2025-05-07T08:59:22Z</time>
      </trkpt>
      <trkpt lat="37.285547023639083" lon="-8.611077982932329">
        <ele>321.69999999999999</ele>
        <time>2025-05-07T08:59:23Z</time>
      </trkpt>
      <trkpt lat="37.285631010308862" lon="-8.611034983769059">
        <ele>322.66000000000003</ele>
        <time>2025-05-07T08:59:24Z</time>
      </trkpt>
      <trkpt lat="37.286217994987965" lon="-8.610668024048209">
        <ele>327.47000000000003</ele>
        <time>2025-05-07T08:59:32Z</time>
      </trkpt>
      <trkpt lat="37.286217994987965" lon="-8.610571967437863">
        <ele>327.94999999999999</ele>
        <time>2025-05-07T08:59:33Z</time>
      </trkpt>
      <trkpt lat="37.286297958344221" lon="-8.610483035445213">
        <ele>328.91000000000003</ele>
        <time>2025-05-07T08:59:34Z</time>
      </trkpt>
      <trkpt lat="37.286289995536208" lon="-8.610388990491629">
        <ele>329.38999999999999</ele>
        <time>2025-05-07T08:59:35Z</time>
      </trkpt>
      <trkpt lat="37.286282032728195" lon="-8.610283965244889">
        <ele>329.87</ele>
        <time>2025-05-07T08:59:36Z</time>
      </trkpt>
      <trkpt lat="37.286134008318186" lon="-8.609148971736431">
        <ele>331.31</ele>
        <time>2025-05-07T08:59:45Z</time>
      </trkpt>
      <trkpt lat="37.286102995276451" lon="-8.609009999781847">
        <ele>331.31</ele>
        <time>2025-05-07T08:59:46Z</time>
      </trkpt>
      <trkpt lat="37.285753972828388" lon="-8.608069969341159">
        <ele>331.31</ele>
        <time>2025-05-07T08:59:53Z</time>
      </trkpt>
      <trkpt lat="37.285592034459114" lon="-8.60691100358963">
        <ele>329.87</ele>
        <time>2025-05-07T09:00:01Z</time>
      </trkpt>
      <trkpt lat="37.285603014752269" lon="-8.606779994443059">
        <ele>329.38999999999999</ele>
        <time>2025-05-07T09:00:02Z</time>
      </trkpt>
      <trkpt lat="37.285641990602016" lon="-8.606619983911514">
        <ele>328.91000000000003</ele>
        <time>2025-05-07T09:00:03Z</time>
      </trkpt>
      <trkpt lat="37.285682978108525" lon="-8.606488974764943">
        <ele>328.91000000000003</ele>
        <time>2025-05-07T09:00:04Z</time>
      </trkpt>
      <trkpt lat="37.285743998363614" lon="-8.606369029730558">
        <ele>328.43000000000001</ele>
        <time>2025-05-07T09:00:05Z</time>
      </trkpt>
      <trkpt lat="37.285802001133561" lon="-8.606251012533903">
        <ele>327.94999999999999</ele>
        <time>2025-05-07T09:00:06Z</time>
      </trkpt>
      <trkpt lat="37.286139037460089" lon="-8.605756983160973">
        <ele>326.5</ele>
        <time>2025-05-07T09:00:11Z</time>
      </trkpt>
      <trkpt lat="37.286227969452739" lon="-8.605675008147955">
        <ele>326.01999999999998</ele>
        <time>2025-05-07T09:00:12Z</time>
      </trkpt>
      <trkpt lat="37.286313967779279" lon="-8.605597978457809">
        <ele>325.06</ele>
        <time>2025-05-07T09:00:13Z</time>
      </trkpt>
      <trkpt lat="37.286427961662412" lon="-8.605540981516242">
        <ele>324.10000000000002</ele>
        <time>2025-05-07T09:00:14Z</time>
      </trkpt>
      <trkpt lat="37.286546984687448" lon="-8.605480967089534">
        <ele>322.66000000000003</ele>
        <time>2025-05-07T09:00:15Z</time>
      </trkpt>
      <trkpt lat="37.286663996055722" lon="-8.605464035645127">
        <ele>321.69999999999999</ele>
        <time>2025-05-07T09:00:16Z</time>
      </trkpt>
      <trkpt lat="37.286787964403629" lon="-8.605454983189702">
        <ele>321.22000000000003</ele>
        <time>2025-05-07T09:00:17Z</time>
      </trkpt>
      <trkpt lat="37.286911010742187" lon="-8.605441991239786">
        <ele>320.25999999999999</ele>
        <time>2025-05-07T09:00:18Z</time>
      </trkpt>
      <trkpt lat="37.287028022110462" lon="-8.605422964319587">
        <ele>319.30000000000001</ele>
        <time>2025-05-07T09:00:19Z</time>
      </trkpt>
      <trkpt lat="37.287142015993595" lon="-8.6053860001266">
        <ele>318.32999999999998</ele>
        <time>2025-05-07T09:00:20Z</time>
      </trkpt>
      <trkpt lat="37.287218039855361" lon="-8.605292038992047">
        <ele>317.37</ele>
        <time>2025-05-07T09:00:21Z</time>
      </trkpt>
      <trkpt lat="37.287296997383237" lon="-8.60519296489656">
        <ele>316.88999999999999</ele>
        <time>2025-05-07T09:00:22Z</time>
      </trkpt>
      <trkpt lat="37.287377966567874" lon="-8.605091040953994">
        <ele>315.93000000000001</ele>
        <time>2025-05-07T09:00:23Z</time>
      </trkpt>
      <trkpt lat="37.287494977936149" lon="-8.605045024305582">
        <ele>314.97000000000003</ele>
        <time>2025-05-07T09:00:24Z</time>
      </trkpt>
      <trkpt lat="37.287609977647662" lon="-8.605004958808422">
        <ele>314.00999999999999</ele>
        <time>2025-05-07T09:00:25Z</time>
      </trkpt>
      <trkpt lat="37.287726989015937" lon="-8.604962965473533">
        <ele>313.05000000000001</ele>
        <time>2025-05-07T09:00:26Z</time>
      </trkpt>
      <trkpt lat="37.287851963192225" lon="-8.604961959645152">
        <ele>312.56999999999999</ele>
        <time>2025-05-07T09:00:27Z</time>
      </trkpt>
      <trkpt lat="37.287988001480699" lon="-8.604971012100577">
        <ele>311.60000000000002</ele>
        <time>2025-05-07T09:00:28Z</time>
      </trkpt>
      <trkpt lat="37.28814197704196" lon="-8.604993978515267">
        <ele>311.12</ele>
        <time>2025-05-07T09:00:29Z</time>
      </trkpt>
      <trkpt lat="37.288301987573504" lon="-8.605047035962343">
        <ele>310.63999999999999</ele>
        <time>2025-05-07T09:00:30Z</time>
      </trkpt>
      <trkpt lat="37.289137998595834" lon="-8.605306036770344">
        <ele>307.27999999999997</ele>
        <time>2025-05-07T09:00:36Z</time>
      </trkpt>
      <trkpt lat="37.289231959730387" lon="-8.605302013456821">
        <ele>306.80000000000001</ele>
        <time>2025-05-07T09:00:37Z</time>
      </trkpt>
      <trkpt lat="37.289292979985476" lon="-8.605278041213751">
        <ele>305.83999999999997</ele>
        <time>2025-05-07T09:00:38Z</time>
      </trkpt>
      <trkpt lat="37.289329022169113" lon="-8.605205034837127">
        <ele>304.88</ele>
        <time>2025-05-07T09:00:39Z</time>
      </trkpt>
      <trkpt lat="37.289355006068945" lon="-8.605119036510587">
        <ele>304.38999999999999</ele>
        <time>2025-05-07T09:00:40Z</time>
      </trkpt>
      <trkpt lat="37.289342014119029" lon="-8.604963971301913">
        <ele>303.91000000000003</ele>
        <time>2025-05-07T09:00:41Z</time>
      </trkpt>
      <trkpt lat="37.289327010512352" lon="-8.604782000184059">
        <ele>303.43000000000001</ele>
        <time>2025-05-07T09:00:42Z</time>
      </trkpt>
      <trkpt lat="37.289315024390817" lon="-8.604583013802767">
        <ele>303.43000000000001</ele>
        <time>2025-05-07T09:00:43Z</time>
      </trkpt>
      <trkpt lat="37.289315024390817" lon="-8.604385033249855">
        <ele>303.43000000000001</ele>
        <time>2025-05-07T09:00:44Z</time>
      </trkpt>
      <trkpt lat="37.289314018562436" lon="-8.604044979438186">
        <ele>303.43000000000001</ele>
        <time>2025-05-07T09:00:46Z</time>
      </trkpt>
      <trkpt lat="37.289293985813856" lon="-8.603898966684938">
        <ele>303.43000000000001</ele>
        <time>2025-05-07T09:00:47Z</time>
      </trkpt>
      <trkpt lat="37.289272025227547" lon="-8.603733005002141">
        <ele>303.43000000000001</ele>
        <time>2025-05-07T09:00:48Z</time>
      </trkpt>
      <trkpt lat="37.289212010800838" lon="-8.603672990575433">
        <ele>303.43000000000001</ele>
        <time>2025-05-07T09:00:49Z</time>
      </trkpt>
      <trkpt lat="37.28910799138248" lon="-8.603630997240543">
        <ele>303.43000000000001</ele>
        <time>2025-05-07T09:00:50Z</time>
      </trkpt>
      <trkpt lat="37.288987040519714" lon="-8.603653963655233">
        <ele>303.43000000000001</ele>
        <time>2025-05-07T09:00:51Z</time>
      </trkpt>
      <trkpt lat="37.288861982524395" lon="-8.603693023324013">
        <ele>303.91000000000003</ele>
        <time>2025-05-07T09:00:52Z</time>
      </trkpt>
      <trkpt lat="37.288732985034585" lon="-8.603733005002141">
        <ele>304.88</ele>
        <time>2025-05-07T09:00:53Z</time>
      </trkpt>
      <trkpt lat="37.288503991439939" lon="-8.603803999722004">
        <ele>306.31999999999999</ele>
        <time>2025-05-07T09:00:55Z</time>
      </trkpt>
      <trkpt lat="37.28840097784996" lon="-8.603791007772088">
        <ele>306.80000000000001</ele>
        <time>2025-05-07T09:00:56Z</time>
      </trkpt>
      <trkpt lat="37.288284972310066" lon="-8.603733005002141">
        <ele>307.27999999999997</ele>
        <time>2025-05-07T09:00:57Z</time>
      </trkpt>
      <trkpt lat="37.288196962326765" lon="-8.60362496227026">
        <ele>308.24000000000001</ele>
        <time>2025-05-07T09:00:58Z</time>
      </trkpt>
      <trkpt lat="37.288090009242296" lon="-8.603492025285959">
        <ele>309.19999999999999</ele>
        <time>2025-05-07T09:00:59Z</time>
      </trkpt>
      <trkpt lat="37.288039969280362" lon="-8.603325979784131">
        <ele>309.68000000000001</ele>
        <time>2025-05-07T09:01:00Z</time>
      </trkpt>
      <trkpt lat="37.288007028400898" lon="-8.603134034201503">
        <ele>310.63999999999999</ele>
        <time>2025-05-07T09:01:01Z</time>
      </trkpt>
      <trkpt lat="37.287980038672686" lon="-8.602937981486321">
        <ele>311.60000000000002</ele>
        <time>2025-05-07T09:01:02Z</time>
      </trkpt>
      <trkpt lat="37.287976015359163" lon="-8.602727008983493">
        <ele>312.56999999999999</ele>
        <time>2025-05-07T09:01:03Z</time>
      </trkpt>
      <trkpt lat="37.288009962067008" lon="-8.602516036480665">
        <ele>313.52999999999997</ele>
        <time>2025-05-07T09:01:04Z</time>
      </trkpt>
      <trkpt lat="37.288047010079026" lon="-8.602290982380509">
        <ele>314.00999999999999</ele>
        <time>2025-05-07T09:01:05Z</time>
      </trkpt>
      <trkpt lat="37.288083974272013" lon="-8.602062994614244">
        <ele>314.97000000000003</ele>
        <time>2025-05-07T09:01:06Z</time>
      </trkpt>
      <trkpt lat="37.288219006732106" lon="-8.601637026295066">
        <ele>316.41000000000003</ele>
        <time>2025-05-07T09:01:08Z</time>
      </trkpt>
      <trkpt lat="37.288724016398191" lon="-8.600416034460068">
        <ele>321.69999999999999</ele>
        <time>2025-05-07T09:01:15Z</time>
      </trkpt>
      <trkpt lat="37.289461037144065" lon="-8.598794974386692">
        <ele>319.77999999999997</ele>
        <time>2025-05-07T09:01:25Z</time>
      </trkpt>
      <trkpt lat="37.289934027940035" lon="-8.598266998305917">
        <ele>319.77999999999997</ele>
        <time>2025-05-07T09:01:31Z</time>
      </trkpt>
      <trkpt lat="37.290016002953053" lon="-8.598213018849492">
        <ele>319.77999999999997</ele>
        <time>2025-05-07T09:01:32Z</time>
      </trkpt>
      <trkpt lat="37.290620002895594" lon="-8.598002968356013">
        <ele>319.30000000000001</ele>
        <time>2025-05-07T09:01:37Z</time>
      </trkpt>
      <trkpt lat="37.290773978456855" lon="-8.598002968356013">
        <ele>319.30000000000001</ele>
        <time>2025-05-07T09:01:38Z</time>
      </trkpt>
      <trkpt lat="37.291227020323277" lon="-8.597978996112943">
        <ele>318.81</ele>
        <time>2025-05-07T09:01:41Z</time>
      </trkpt>
      <trkpt lat="37.291356017813087" lon="-8.597964998334646">
        <ele>318.81</ele>
        <time>2025-05-07T09:01:42Z</time>
      </trkpt>
      <trkpt lat="37.291449978947639" lon="-8.597913030534983">
        <ele>318.81</ele>
        <time>2025-05-07T09:01:43Z</time>
      </trkpt>
      <trkpt lat="37.291526002809405" lon="-8.597846981137991">
        <ele>318.32999999999998</ele>
        <time>2025-05-07T09:01:44Z</time>
      </trkpt>
      <trkpt lat="37.291567996144295" lon="-8.597774980589747">
        <ele>317.85000000000002</ele>
        <time>2025-05-07T09:01:45Z</time>
      </trkpt>
      <trkpt lat="37.291558021679521" lon="-8.597671966999769">
        <ele>317.85000000000002</ele>
        <time>2025-05-07T09:01:46Z</time>
      </trkpt>
      <trkpt lat="37.291503036394715" lon="-8.597616981714964">
        <ele>317.37</ele>
        <time>2025-05-07T09:01:47Z</time>
      </trkpt>
      <trkpt lat="37.291389964520931" lon="-8.5975650139153">
        <ele>316.88999999999999</ele>
        <time>2025-05-07T09:01:48Z</time>
      </trkpt>
      <trkpt lat="37.291273036971688" lon="-8.597511034458876">
        <ele>316.41000000000003</ele>
        <time>2025-05-07T09:01:49Z</time>
      </trkpt>
      <trkpt lat="37.291155019775033" lon="-8.597439033910632">
        <ele>315.93000000000001</ele>
        <time>2025-05-07T09:01:50Z</time>
      </trkpt>
      <trkpt lat="37.291030967608094" lon="-8.597351023927331">
        <ele>315.93000000000001</ele>
        <time>2025-05-07T09:01:51Z</time>
      </trkpt>
      <trkpt lat="37.290904987603426" lon="-8.597250021994114">
        <ele>315.93000000000001</ele>
        <time>2025-05-07T09:01:52Z</time>
      </trkpt>
      <trkpt lat="37.290799962356687" lon="-8.597119012847543">
        <ele>315.44999999999999</ele>
        <time>2025-05-07T09:01:53Z</time>
      </trkpt>
      <trkpt lat="37.290702983736992" lon="-8.596997978165746">
        <ele>315.44999999999999</ele>
        <time>2025-05-07T09:01:54Z</time>
      </trkpt>
      <trkpt lat="37.290615979582071" lon="-8.596889013424516">
        <ele>315.44999999999999</ele>
        <time>2025-05-07T09:01:55Z</time>
      </trkpt>
      <trkpt lat="37.290557976812124" lon="-8.596762027591467">
        <ele>314.97000000000003</ele>
        <time>2025-05-07T09:01:56Z</time>
      </trkpt>
      <trkpt lat="37.290521012619138" lon="-8.596625989302993">
        <ele>314.97000000000003</ele>
        <time>2025-05-07T09:01:57Z</time>
      </trkpt>
      <trkpt lat="37.290539033710957" lon="-8.596466984599829">
        <ele>314.97000000000003</ele>
        <time>2025-05-07T09:01:58Z</time>
      </trkpt>
      <trkpt lat="37.29056702926755" lon="-8.59629699960351">
        <ele>314.49000000000001</ele>
        <time>2025-05-07T09:01:59Z</time>
      </trkpt>
      <trkpt lat="37.290596030652523" lon="-8.596113016828895">
        <ele>314.49000000000001</ele>
        <time>2025-05-07T09:02:00Z</time>
      </trkpt>
      <trkpt lat="37.290630983188748" lon="-8.595920987427235">
        <ele>314.49000000000001</ele>
        <time>2025-05-07T09:02:01Z</time>
      </trkpt>
      <trkpt lat="37.290888978168368" lon="-8.595101991668344">
        <ele>314.49000000000001</ele>
        <time>2025-05-07T09:02:06Z</time>
      </trkpt>
      <trkpt lat="37.290924014523625" lon="-8.595021022483707">
        <ele>314.49000000000001</ele>
        <time>2025-05-07T09:02:07Z</time>
      </trkpt>
      <trkpt lat="37.291027028113604" lon="-8.594918008893728">
        <ele>314.49000000000001</ele>
        <time>2025-05-07T09:02:08Z</time>
      </trkpt>
      <trkpt lat="37.291102968156338" lon="-8.594881966710091">
        <ele>314.49000000000001</ele>
        <time>2025-05-07T09:02:09Z</time>
      </trkpt>
      <trkpt lat="37.291214028373361" lon="-8.594860006123781">
        <ele>314.49000000000001</ele>
        <time>2025-05-07T09:02:10Z</time>
      </trkpt>
      <trkpt lat="37.291374960914254" lon="-8.594827987253666">
        <ele>314.49000000000001</ele>
        <time>2025-05-07T09:02:11Z</time>
      </trkpt>
      <trkpt lat="37.2914710175246" lon="-8.594834022223949">
        <ele>314.49000000000001</ele>
        <time>2025-05-07T09:02:12Z</time>
      </trkpt>
      <trkpt lat="37.291612001135945" lon="-8.594842990860343">
        <ele>314.49000000000001</ele>
        <time>2025-05-07T09:02:13Z</time>
      </trkpt>
      <trkpt lat="37.291757008060813" lon="-8.594833016395569">
        <ele>314.00999999999999</ele>
        <time>2025-05-07T09:02:14Z</time>
      </trkpt>
      <trkpt lat="37.291889023035765" lon="-8.594779036939144">
        <ele>314.00999999999999</ele>
        <time>2025-05-07T09:02:15Z</time>
      </trkpt>
      <trkpt lat="37.292015003040433" lon="-8.59472799114883">
        <ele>313.52999999999997</ele>
        <time>2025-05-07T09:02:16Z</time>
      </trkpt>
      <trkpt lat="37.29213603772223" lon="-8.594678035005927">
        <ele>313.52999999999997</ele>
        <time>2025-05-07T09:02:17Z</time>
      </trkpt>
      <trkpt lat="37.29273903183639" lon="-8.594539985060692">
        <ele>313.52999999999997</ele>
        <time>2025-05-07T09:02:22Z</time>
      </trkpt>
      <trkpt lat="37.292828969657421" lon="-8.59449002891779">
        <ele>313.52999999999997</ele>
        <time>2025-05-07T09:02:23Z</time>
      </trkpt>
      <trkpt lat="37.292888984084129" lon="-8.59440797008574">
        <ele>313.05000000000001</ele>
        <time>2025-05-07T09:02:24Z</time>
      </trkpt>
      <trkpt lat="37.29291102848947" lon="-8.594309985637665">
        <ele>312.56999999999999</ele>
        <time>2025-05-07T09:02:25Z</time>
      </trkpt>
      <trkpt lat="37.292895019054413" lon="-8.594219963997603">
        <ele>312.08999999999997</ele>
        <time>2025-05-07T09:02:26Z</time>
      </trkpt>
      <trkpt lat="37.292841961607337" lon="-8.594131032004952">
        <ele>311.60000000000002</ele>
        <time>2025-05-07T09:02:27Z</time>
      </trkpt>
      <trkpt lat="37.292751017957926" lon="-8.594058025628328">
        <ele>311.60000000000002</ele>
        <time>2025-05-07T09:02:28Z</time>
      </trkpt>
      <trkpt lat="37.292642975226045" lon="-8.59401703812182">
        <ele>311.12</ele>
        <time>2025-05-07T09:02:29Z</time>
      </trkpt>
      <trkpt lat="37.292522024363279" lon="-8.593973033130169">
        <ele>310.63999999999999</ele>
        <time>2025-05-07T09:02:30Z</time>
      </trkpt>
      <trkpt lat="37.292391015216708" lon="-8.593925004824996">
        <ele>310.63999999999999</ele>
        <time>2025-05-07T09:02:31Z</time>
      </trkpt>
      <trkpt lat="37.29179497808218" lon="-8.593701962381601">
        <ele>309.19999999999999</ele>
        <time>2025-05-07T09:02:35Z</time>
      </trkpt>
      <trkpt lat="37.291642008349299" lon="-8.59363398514688">
        <ele>308.72000000000003</ele>
        <time>2025-05-07T09:02:36Z</time>
      </trkpt>
      <trkpt lat="37.291181003674865" lon="-8.593419995158911">
        <ele>308.24000000000001</ele>
        <time>2025-05-07T09:02:39Z</time>
      </trkpt>
      <trkpt lat="37.291034990921617" lon="-8.593338020145893">
        <ele>308.24000000000001</ele>
        <time>2025-05-07T09:02:40Z</time>
      </trkpt>
      <trkpt lat="37.290782025083899" lon="-8.593139033764601">
        <ele>308.72000000000003</ele>
        <time>2025-05-07T09:02:42Z</time>
      </trkpt>
      <trkpt lat="37.290684040635824" lon="-8.592998972162604">
        <ele>308.72000000000003</ele>
        <time>2025-05-07T09:02:43Z</time>
      </trkpt>
      <trkpt lat="37.29059100151062" lon="-8.592857988551259">
        <ele>308.72000000000003</ele>
        <time>2025-05-07T09:02:44Z</time>
      </trkpt>
      <trkpt lat="37.290491005405784" lon="-8.592708958312869">
        <ele>308.72000000000003</ele>
        <time>2025-05-07T09:02:45Z</time>
      </trkpt>
      <trkpt lat="37.290391009300947" lon="-8.59255900606513">
        <ele>308.72000000000003</ele>
        <time>2025-05-07T09:02:46Z</time>
      </trkpt>
      <trkpt lat="37.290322026237845" lon="-8.592381980270147">
        <ele>309.19999999999999</ele>
        <time>2025-05-07T09:02:47Z</time>
      </trkpt>
      <trkpt lat="37.290267962962389" lon="-8.592197997495532">
        <ele>309.19999999999999</ele>
        <time>2025-05-07T09:02:48Z</time>
      </trkpt>
      <trkpt lat="37.290235022082925" lon="-8.592001022771001">
        <ele>309.19999999999999</ele>
        <time>2025-05-07T09:02:49Z</time>
      </trkpt>
      <trkpt lat="37.290210966020823" lon="-8.591804970055819">
        <ele>309.68000000000001</ele>
        <time>2025-05-07T09:02:50Z</time>
      </trkpt>
      <trkpt lat="37.290198979899287" lon="-8.59161201864481">
        <ele>310.16000000000003</ele>
        <time>2025-05-07T09:02:51Z</time>
      </trkpt>
      <trkpt lat="37.29022404178977" lon="-8.591416971758008">
        <ele>311.12</ele>
        <time>2025-05-07T09:02:52Z</time>
      </trkpt>
      <trkpt lat="37.290270980447531" lon="-8.591230977326632">
        <ele>311.60000000000002</ele>
        <time>2025-05-07T09:02:53Z</time>
      </trkpt>
      <trkpt lat="37.290336024016142" lon="-8.591049006208777">
        <ele>311.60000000000002</ele>
        <time>2025-05-07T09:02:54Z</time>
      </trkpt>
      <trkpt lat="37.290404001250863" lon="-8.590857982635498">
        <ele>312.56999999999999</ele>
        <time>2025-05-07T09:02:55Z</time>
      </trkpt>
      <trkpt lat="37.290872968733311" lon="-8.589633973315358">
        <ele>316.41000000000003</ele>
        <time>2025-05-07T09:03:02Z</time>
      </trkpt>
      <trkpt lat="37.290965002030134" lon="-8.589527020230889">
        <ele>316.88999999999999</ele>
        <time>2025-05-07T09:03:03Z</time>
      </trkpt>
      <trkpt lat="37.291148984804749" lon="-8.589312024414539">
        <ele>317.85000000000002</ele>
        <time>2025-05-07T09:03:05Z</time>
      </trkpt>
      <trkpt lat="37.291228026151657" lon="-8.589204987511039">
        <ele>317.85000000000002</ele>
        <time>2025-05-07T09:03:06Z</time>
      </trkpt>
      <trkpt lat="37.291288962587714" lon="-8.589099040254951">
        <ele>318.32999999999998</ele>
        <time>2025-05-07T09:03:07Z</time>
      </trkpt>
      <trkpt lat="37.291288962587714" lon="-8.588947998359799">
        <ele>318.32999999999998</ele>
        <time>2025-05-07T09:03:08Z</time>
      </trkpt>
      <trkpt lat="37.291288962587714" lon="-8.588798968121409">
        <ele>318.32999999999998</ele>
        <time>2025-05-07T09:03:09Z</time>
      </trkpt>
      <trkpt lat="37.291288962587714" lon="-8.588645998388529">
        <ele>318.32999999999998</ele>
        <time>2025-05-07T09:03:10Z</time>
      </trkpt>
      <trkpt lat="37.291288962587714" lon="-8.588346010074019">
        <ele>318.81</ele>
        <time>2025-05-07T09:03:12Z</time>
      </trkpt>
      <trkpt lat="37.291301032528281" lon="-8.588211983442307">
        <ele>318.81</ele>
        <time>2025-05-07T09:03:13Z</time>
      </trkpt>
      <trkpt lat="37.291334979236126" lon="-8.588081980124116">
        <ele>318.81</ele>
        <time>2025-05-07T09:03:14Z</time>
      </trkpt>
      <trkpt lat="37.291509993374348" lon="-8.58768199570477">
        <ele>317.85000000000002</ele>
        <time>2025-05-07T09:03:17Z</time>
      </trkpt>
      <trkpt lat="37.291570007801056" lon="-8.587544029578567">
        <ele>316.88999999999999</ele>
        <time>2025-05-07T09:03:18Z</time>
      </trkpt>
      <trkpt lat="37.291627004742622" lon="-8.587413020431995">
        <ele>317.37</ele>
        <time>2025-05-07T09:03:19Z</time>
      </trkpt>
      <trkpt lat="37.291681990027428" lon="-8.587287040427327">
        <ele>317.37</ele>
        <time>2025-05-07T09:03:20Z</time>
      </trkpt>
      <trkpt lat="37.291765976697206" lon="-8.587200958281755">
        <ele>317.37</ele>
        <time>2025-05-07T09:03:21Z</time>
      </trkpt>
      <trkpt lat="37.291868990287185" lon="-8.587124012410641">
        <ele>317.85000000000002</ele>
        <time>2025-05-07T09:03:22Z</time>
      </trkpt>
      <trkpt lat="37.291984995827079" lon="-8.587045976892114">
        <ele>318.32999999999998</ele>
        <time>2025-05-07T09:03:23Z</time>
      </trkpt>
      <trkpt lat="37.292715981602669" lon="-8.586738025769591">
        <ele>321.22000000000003</ele>
        <time>2025-05-07T09:03:29Z</time>
      </trkpt>
      <trkpt lat="37.292812960222363" lon="-8.586718998849392">
        <ele>321.69999999999999</ele>
        <time>2025-05-07T09:03:30Z</time>
      </trkpt>
      <trkpt lat="37.292897030711174" lon="-8.586703995242715">
        <ele>321.69999999999999</ele>
        <time>2025-05-07T09:03:31Z</time>
      </trkpt>
      <trkpt lat="37.292952015995979" lon="-8.586682034656405">
        <ele>322.18000000000001</ele>
        <time>2025-05-07T09:03:32Z</time>
      </trkpt>
      <trkpt lat="37.29299702681601" lon="-8.586625037714839">
        <ele>322.18000000000001</ele>
        <time>2025-05-07T09:03:33Z</time>
      </trkpt>
      <trkpt lat="37.292998032644391" lon="-8.586507020518184">
        <ele>322.18000000000001</ele>
        <time>2025-05-07T09:03:34Z</time>
      </trkpt>
      <trkpt lat="37.29295302182436" lon="-8.586383974179626">
        <ele>322.18000000000001</ele>
        <time>2025-05-07T09:03:35Z</time>
      </trkpt>
      <trkpt lat="37.292902981862426" lon="-8.586243996396661">
        <ele>322.66000000000003</ele>
        <time>2025-05-07T09:03:36Z</time>
      </trkpt>
      <trkpt lat="37.292640963569283" lon="-8.585515022277832">
        <ele>324.10000000000002</ele>
        <time>2025-05-07T09:03:41Z</time>
      </trkpt>
      <trkpt lat="37.292640963569283" lon="-8.585392981767654">
        <ele>324.57999999999998</ele>
        <time>2025-05-07T09:03:42Z</time>
      </trkpt>
      <trkpt lat="37.292664013803005" lon="-8.585280999541283">
        <ele>324.10000000000002</ele>
        <time>2025-05-07T09:03:43Z</time>
      </trkpt>
      <trkpt lat="37.292705001309514" lon="-8.585129035636783">
        <ele>324.10000000000002</ele>
        <time>2025-05-07T09:03:44Z</time>
      </trkpt>
      <trkpt lat="37.292754035443068" lon="-8.585003977641463">
        <ele>323.62</ele>
        <time>2025-05-07T09:03:45Z</time>
      </trkpt>
      <trkpt lat="37.292941035702825" lon="-8.584527969360352">
        <ele>323.13999999999999</ele>
        <time>2025-05-07T09:03:48Z</time>
      </trkpt>
      <trkpt lat="37.292984034866095" lon="-8.584398971870542">
        <ele>323.13999999999999</ele>
        <time>2025-05-07T09:03:49Z</time>
      </trkpt>
      <trkpt lat="37.293013036251068" lon="-8.584261005744338">
        <ele>323.13999999999999</ele>
        <time>2025-05-07T09:03:50Z</time>
      </trkpt>
      <trkpt lat="37.293073972687125" lon="-8.5839659627527">
        <ele>323.13999999999999</ele>
        <time>2025-05-07T09:03:52Z</time>
      </trkpt>
      <trkpt lat="37.29310599155724" lon="-8.583811987191439">
        <ele>323.13999999999999</ele>
        <time>2025-05-07T09:03:53Z</time>
      </trkpt>
      <trkpt lat="37.293172962963581" lon="-8.58349297195673">
        <ele>323.62</ele>
        <time>2025-05-07T09:03:55Z</time>
      </trkpt>
      <trkpt lat="37.293204981833696" lon="-8.583328016102314">
        <ele>323.62</ele>
        <time>2025-05-07T09:03:56Z</time>
      </trkpt>
      <trkpt lat="37.293231971561909" lon="-8.583170017227531">
        <ele>323.62</ele>
        <time>2025-05-07T09:03:57Z</time>
      </trkpt>
      <trkpt lat="37.293262984603643" lon="-8.582983016967773">
        <ele>323.62</ele>
        <time>2025-05-07T09:03:58Z</time>
      </trkpt>
      <trkpt lat="37.293330039829016" lon="-8.582855025306344">
        <ele>324.10000000000002</ele>
        <time>2025-05-07T09:03:59Z</time>
      </trkpt>
      <trkpt lat="37.293408997356892" lon="-8.582704989239574">
        <ele>324.10000000000002</ele>
        <time>2025-05-07T09:04:00Z</time>
      </trkpt>
      <trkpt lat="37.293482003733516" lon="-8.582556964829564">
        <ele>324.57999999999998</ele>
        <time>2025-05-07T09:04:01Z</time>
      </trkpt>
      <trkpt lat="37.293527014553547" lon="-8.582393014803529">
        <ele>324.57999999999998</ele>
        <time>2025-05-07T09:04:02Z</time>
      </trkpt>
      <trkpt lat="37.293546963483095" lon="-8.582218000665307">
        <ele>325.06</ele>
        <time>2025-05-07T09:04:03Z</time>
      </trkpt>
      <trkpt lat="37.293561967089772" lon="-8.581835031509399">
        <ele>325.06</ele>
        <time>2025-05-07T09:04:05Z</time>
      </trkpt>
      <trkpt lat="37.293590968474746" lon="-8.581638978794217">
        <ele>325.54000000000002</ele>
        <time>2025-05-07T09:04:06Z</time>
      </trkpt>
      <trkpt lat="37.293863967061043" lon="-8.580000987276435">
        <ele>327.94999999999999</ele>
        <time>2025-05-07T09:04:14Z</time>
      </trkpt>
      <trkpt lat="37.293936973437667" lon="-8.579812981188297">
        <ele>327.94999999999999</ele>
        <time>2025-05-07T09:04:15Z</time>
      </trkpt>
      <trkpt lat="37.294014003127813" lon="-8.579613994807005">
        <ele>328.43000000000001</ele>
        <time>2025-05-07T09:04:16Z</time>
      </trkpt>
      <trkpt lat="37.29411500506103" lon="-8.579481979832053">
        <ele>328.91000000000003</ele>
        <time>2025-05-07T09:04:17Z</time>
      </trkpt>
      <trkpt lat="37.294226987287402" lon="-8.579333033412695">
        <ele>329.38999999999999</ele>
        <time>2025-05-07T09:04:18Z</time>
      </trkpt>
      <trkpt lat="37.294507026672363" lon="-8.578935982659459">
        <ele>330.82999999999998</ele>
        <time>2025-05-07T09:04:21Z</time>
      </trkpt>
      <trkpt lat="37.294550025835633" lon="-8.578819977119565">
        <ele>331.31</ele>
        <time>2025-05-07T09:04:22Z</time>
      </trkpt>
      <trkpt lat="37.294550025835633" lon="-8.578670024871826">
        <ele>331.79000000000002</ele>
        <time>2025-05-07T09:04:23Z</time>
      </trkpt>
      <trkpt lat="37.294517001137137" lon="-8.578534992411733">
        <ele>332.26999999999998</ele>
        <time>2025-05-07T09:04:24Z</time>
      </trkpt>
      <trkpt lat="37.294465033337474" lon="-8.578389985486865">
        <ele>332.75</ele>
        <time>2025-05-07T09:04:25Z</time>
      </trkpt>
      <trkpt lat="37.294408036395907" lon="-8.57822997495532">
        <ele>333.23000000000002</ele>
        <time>2025-05-07T09:04:26Z</time>
      </trkpt>
      <trkpt lat="37.294346010312438" lon="-8.578058984130621">
        <ele>334.19999999999999</ele>
        <time>2025-05-07T09:04:27Z</time>
      </trkpt>
      <trkpt lat="37.294281972572207" lon="-8.577880030497909">
        <ele>335.16000000000003</ele>
        <time>2025-05-07T09:04:28Z</time>
      </trkpt>
      <trkpt lat="37.294224975630641" lon="-8.577695963904262">
        <ele>336.60000000000002</ele>
        <time>2025-05-07T09:04:29Z</time>
      </trkpt>
      <trkpt lat="37.294087009504437" lon="-8.577005965635181">
        <ele>341.41000000000003</ele>
        <time>2025-05-07T09:04:33Z</time>
      </trkpt>
      <trkpt lat="37.294088015332818" lon="-8.576862970367074">
        <ele>342.37</ele>
        <time>2025-05-07T09:04:34Z</time>
      </trkpt>
      <trkpt lat="37.294111987575889" lon="-8.576721986755729">
        <ele>342.85000000000002</ele>
        <time>2025-05-07T09:04:35Z</time>
      </trkpt>
      <trkpt lat="37.294197985902429" lon="-8.57644597068429">
        <ele>343.81</ele>
        <time>2025-05-07T09:04:37Z</time>
      </trkpt>
      <trkpt lat="37.294267974793911" lon="-8.576334994286299">
        <ele>343.81</ele>
        <time>2025-05-07T09:04:38Z</time>
      </trkpt>
      <trkpt lat="37.29435196146369" lon="-8.576221000403166">
        <ele>343.81</ele>
        <time>2025-05-07T09:04:39Z</time>
      </trkpt>
      <trkpt lat="37.294439971446991" lon="-8.576100971549749">
        <ele>343.32999999999998</ele>
        <time>2025-05-07T09:04:40Z</time>
      </trkpt>
      <trkpt lat="37.294535022228956" lon="-8.575983038172126">
        <ele>342.37</ele>
        <time>2025-05-07T09:04:41Z</time>
      </trkpt>
      <trkpt lat="37.295486032962799" lon="-8.57498399913311">
        <ele>337.56</ele>
        <time>2025-05-07T09:04:50Z</time>
      </trkpt>
      <trkpt lat="37.296325983479619" lon="-8.573602996766567">
        <ele>335.63999999999999</ele>
        <time>2025-05-07T09:05:00Z</time>
      </trkpt>
      <trkpt lat="37.296984968706965" lon="-8.572002975270152">
        <ele>337.56</ele>
        <time>2025-05-07T09:05:12Z</time>
      </trkpt>
      <trkpt lat="37.297010030597448" lon="-8.571942960843444">
        <ele>338.04000000000002</ele>
        <time>2025-05-07T09:05:13Z</time>
      </trkpt>
      <trkpt lat="37.297039031982422" lon="-8.57186802662909">
        <ele>338.51999999999998</ele>
        <time>2025-05-07T09:05:14Z</time>
      </trkpt>
      <trkpt lat="37.297074990347028" lon="-8.571899039670825">
        <ele>339</ele>
        <time>2025-05-07T09:05:15Z</time>
      </trkpt>
      <trkpt lat="37.297117989510298" lon="-8.571937009692192">
        <ele>339</ele>
        <time>2025-05-07T09:05:16Z</time>
      </trkpt>
      <trkpt lat="37.297173980623484" lon="-8.571985960006714">
        <ele>339.48000000000002</ele>
        <time>2025-05-07T09:05:17Z</time>
      </trkpt>
      <trkpt lat="37.297233995050192" lon="-8.572060978040099">
        <ele>339.95999999999998</ele>
        <time>2025-05-07T09:05:18Z</time>
      </trkpt>
      <trkpt lat="37.297284035012126" lon="-8.572154017165303">
        <ele>339.95999999999998</ele>
        <time>2025-05-07T09:05:19Z</time>
      </trkpt>
      <trkpt lat="37.29733700864017" lon="-8.572250995784998">
        <ele>340.44</ele>
        <time>2025-05-07T09:05:20Z</time>
      </trkpt>
      <trkpt lat="37.297387970611453" lon="-8.572349986061454">
        <ele>340.92000000000002</ele>
        <time>2025-05-07T09:05:21Z</time>
      </trkpt>
      <trkpt lat="37.297431975603104" lon="-8.572439001873136">
        <ele>341.88999999999999</ele>
        <time>2025-05-07T09:05:22Z</time>
      </trkpt>
      <trkpt lat="37.297497019171715" lon="-8.572474960237742">
        <ele>342.85000000000002</ele>
        <time>2025-05-07T09:05:23Z</time>
      </trkpt>
      <trkpt lat="37.297571031376719" lon="-8.572485018521547">
        <ele>343.81</ele>
        <time>2025-05-07T09:05:24Z</time>
      </trkpt>
      <trkpt lat="37.297641020268202" lon="-8.572494992986321">
        <ele>344.76999999999998</ele>
        <time>2025-05-07T09:05:25Z</time>
      </trkpt>
      <trkpt lat="37.29770396836102" lon="-8.572503039613366">
        <ele>345.73000000000002</ele>
        <time>2025-05-07T09:05:26Z</time>
      </trkpt>
      <trkpt lat="37.297774963080883" lon="-8.57253497466445">
        <ele>346.69</ele>
        <time>2025-05-07T09:05:27Z</time>
      </trkpt>
      <trkpt lat="37.29778996668756" lon="-8.5725980065763">
        <ele>347.64999999999998</ele>
        <time>2025-05-07T09:05:28Z</time>
      </trkpt>
      <trkpt lat="37.29778703302145" lon="-8.572679981589317">
        <ele>348.62</ele>
        <time>2025-05-07T09:05:29Z</time>
      </trkpt>
      <trkpt lat="37.297783009707928" lon="-8.572774026542902">
        <ele>349.57999999999998</ele>
        <time>2025-05-07T09:05:30Z</time>
      </trkpt>
      <trkpt lat="37.297770017758012" lon="-8.573096981272101">
        <ele>353.42000000000002</ele>
        <time>2025-05-07T09:05:34Z</time>
      </trkpt>
      <trkpt lat="37.297780998051167" lon="-8.57313696295023">
        <ele>354.38</ele>
        <time>2025-05-07T09:05:35Z</time>
      </trkpt>
      <trkpt lat="37.29778996668756" lon="-8.573155989870429">
        <ele>355.33999999999997</ele>
        <time>2025-05-07T09:05:36Z</time>
      </trkpt>
      <trkpt lat="37.297817040234804" lon="-8.573150038719177">
        <ele>355.82999999999998</ele>
        <time>2025-05-07T09:05:37Z</time>
      </trkpt>
      <trkpt lat="37.297898009419441" lon="-8.57313402928412">
        <ele>356.79000000000002</ele>
        <time>2025-05-07T09:05:38Z</time>
      </trkpt>
      <trkpt lat="37.297932039946318" lon="-8.573095975443721">
        <ele>357.75</ele>
        <time>2025-05-07T09:05:39Z</time>
      </trkpt>
      <trkpt lat="37.297983001917601" lon="-8.573038978502154">
        <ele>358.23000000000002</ele>
        <time>2025-05-07T09:05:40Z</time>
      </trkpt>
      <trkpt lat="37.29802499525249" lon="-8.572992961853743">
        <ele>358.70999999999998</ele>
        <time>2025-05-07T09:05:41Z</time>
      </trkpt>
      <trkpt lat="37.298133037984371" lon="-8.57296203263104">
        <ele>359.67000000000002</ele>
        <time>2025-05-07T09:05:42Z</time>
      </trkpt>
      <trkpt lat="37.29813395999372" lon="-8.57296203263104">
        <ele>360.14999999999998</ele>
        <time>2025-05-07T09:05:43Z</time>
      </trkpt>
      <trkpt lat="37.298162961378694" lon="-8.573136040940881">
        <ele>361.11000000000001</ele>
        <time>2025-05-07T09:05:44Z</time>
      </trkpt>
      <trkpt lat="37.29817695915699" lon="-8.57322002761066">
        <ele>361.58999999999997</ele>
        <time>2025-05-07T09:05:45Z</time>
      </trkpt>
      <trkpt lat="37.29817402549088" lon="-8.57330895960331">
        <ele>362.06999999999999</ele>
        <time>2025-05-07T09:05:46Z</time>
      </trkpt>
      <trkpt lat="37.298171008005738" lon="-8.573417002335191">
        <ele>362.55000000000001</ele>
        <time>2025-05-07T09:05:47Z</time>
      </trkpt>
      <trkpt lat="37.298166984692216" lon="-8.573524039238691">
        <ele>363.04000000000002</ele>
        <time>2025-05-07T09:05:48Z</time>
      </trkpt>
      <trkpt lat="37.298163967207074" lon="-8.573624035343528">
        <ele>363.51999999999998</ele>
        <time>2025-05-07T09:05:49Z</time>
      </trkpt>
      <trkpt lat="37.298156004399061" lon="-8.573898961767554">
        <ele>364.95999999999998</ele>
        <time>2025-05-07T09:05:53Z</time>
      </trkpt>
      <trkpt lat="37.298183999955654" lon="-8.573964005336165">
        <ele>365.44</ele>
        <time>2025-05-07T09:05:54Z</time>
      </trkpt>
      <trkpt lat="37.298200009390712" lon="-8.573996024206281">
        <ele>365.92000000000002</ele>
        <time>2025-05-07T09:05:55Z</time>
      </trkpt>
      <trkpt lat="37.29826002381742" lon="-8.574014967307448">
        <ele>366.39999999999998</ele>
        <time>2025-05-07T09:05:56Z</time>
      </trkpt>
      <trkpt lat="37.29828299023211" lon="-8.573953025043011">
        <ele>366.88</ele>
        <time>2025-05-07T09:05:57Z</time>
      </trkpt>
      <trkpt lat="37.298304028809071" lon="-8.573889993131161">
        <ele>366.88</ele>
        <time>2025-05-07T09:05:58Z</time>
      </trkpt>
      <trkpt lat="37.298331018537283" lon="-8.573809023946524">
        <ele>367.36000000000001</ele>
        <time>2025-05-07T09:05:59Z</time>
      </trkpt>
      <trkpt lat="37.298369994387031" lon="-8.573692012578249">
        <ele>367.36000000000001</ele>
        <time>2025-05-07T09:06:00Z</time>
      </trkpt>
      <trkpt lat="37.298803003504872" lon="-8.57304903678596">
        <ele>372.64999999999998</ele>
        <time>2025-05-07T09:06:07Z</time>
      </trkpt>
      <trkpt lat="37.299184966832399" lon="-8.572618961334229">
        <ele>381.30000000000001</ele>
        <time>2025-05-07T09:06:13Z</time>
      </trkpt>
      <trkpt lat="37.299270965158939" lon="-8.5725980065763">
        <ele>382.74000000000001</ele>
        <time>2025-05-07T09:06:14Z</time>
      </trkpt>
      <trkpt lat="37.299327040091157" lon="-8.572626002132893">
        <ele>384.18000000000001</ele>
        <time>2025-05-07T09:06:15Z</time>
      </trkpt>
      <trkpt lat="37.299356963485479" lon="-8.57264100573957">
        <ele>385.14999999999998</ele>
        <time>2025-05-07T09:06:16Z</time>
      </trkpt>
      <trkpt lat="37.299380013719201" lon="-8.572712000459433">
        <ele>386.58999999999997</ele>
        <time>2025-05-07T09:06:17Z</time>
      </trkpt>
      <trkpt lat="37.299404991790652" lon="-8.572787018492818">
        <ele>388.02999999999997</ele>
        <time>2025-05-07T09:06:18Z</time>
      </trkpt>
      <trkpt lat="37.299427958205342" lon="-8.572859019041061">
        <ele>388.99000000000001</ele>
        <time>2025-05-07T09:06:19Z</time>
      </trkpt>
      <trkpt lat="37.299447990953922" lon="-8.572920961305499">
        <ele>390.43000000000001</ele>
        <time>2025-05-07T09:06:20Z</time>
      </trkpt>
      <trkpt lat="37.299466012045741" lon="-8.572975024580956">
        <ele>391.38999999999999</ele>
        <time>2025-05-07T09:06:21Z</time>
      </trkpt>
      <trkpt lat="37.299617975950241" lon="-8.573446003720164">
        <ele>399.56999999999999</ele>
        <time>2025-05-07T09:06:29Z</time>
      </trkpt>
      <trkpt lat="37.29963599704206" lon="-8.573498977348208">
        <ele>400.05000000000001</ele>
        <time>2025-05-07T09:06:30Z</time>
      </trkpt>
      <trkpt lat="37.29963599704206" lon="-8.573581958189607">
        <ele>401.00999999999999</ele>
        <time>2025-05-07T09:06:31Z</time>
      </trkpt>
      <trkpt lat="37.29963599704206" lon="-8.573656976222992">
        <ele>401.97000000000003</ele>
        <time>2025-05-07T09:06:32Z</time>
      </trkpt>
      <trkpt lat="37.29963599704206" lon="-8.573755966499448">
        <ele>402.44999999999999</ele>
        <time>2025-05-07T09:06:33Z</time>
      </trkpt>
      <trkpt lat="37.299628034234047" lon="-8.573796031996608">
        <ele>403.41000000000003</ele>
        <time>2025-05-07T09:06:34Z</time>
      </trkpt>
      <trkpt lat="37.299587968736887" lon="-8.573997030034661">
        <ele>406.29000000000002</ele>
        <time>2025-05-07T09:06:37Z</time>
      </trkpt>
      <trkpt lat="37.299536000937223" lon="-8.574254019185901">
        <ele>409.18000000000001</ele>
        <time>2025-05-07T09:06:41Z</time>
      </trkpt>
      <trkpt lat="37.299528960138559" lon="-8.574292995035648">
        <ele>409.66000000000003</ele>
        <time>2025-05-07T09:06:42Z</time>
      </trkpt>
      <trkpt lat="37.299543041735888" lon="-8.574388967826963">
        <ele>410.62</ele>
        <time>2025-05-07T09:06:43Z</time>
      </trkpt>
      <trkpt lat="37.299555027857423" lon="-8.57446800917387">
        <ele>411.10000000000002</ele>
        <time>2025-05-07T09:06:44Z</time>
      </trkpt>
      <trkpt lat="37.29957103729248" lon="-8.574572028592229">
        <ele>412.06</ele>
        <time>2025-05-07T09:06:45Z</time>
      </trkpt>
      <trkpt lat="37.29959299787879" lon="-8.574631959199905">
        <ele>412.54000000000002</ele>
        <time>2025-05-07T09:06:46Z</time>
      </trkpt>
      <trkpt lat="37.299624010920525" lon="-8.574718963354826">
        <ele>413.98000000000002</ele>
        <time>2025-05-07T09:06:47Z</time>
      </trkpt>
      <trkpt lat="37.299889968708158" lon="-8.575639966875315">
        <ele>424.56</ele>
        <time>2025-05-07T09:06:59Z</time>
      </trkpt>
      <trkpt lat="37.299902038648725" lon="-8.575696041807532">
        <ele>426.95999999999998</ele>
        <time>2025-05-07T09:07:08Z</time>
      </trkpt>
      <trkpt lat="37.299902038648725" lon="-8.575696041807532">
        <ele>426.48000000000002</ele>
        <time>2025-05-07T09:07:49Z</time>
      </trkpt>
      <trkpt lat="37.299962975084782" lon="-8.575806012377143">
        <ele>427.92000000000002</ele>
        <time>2025-05-07T09:07:58Z</time>
      </trkpt>
      <trkpt lat="37.300120973959565" lon="-8.576037017628551">
        <ele>428.39999999999998</ele>
        <time>2025-05-07T09:08:01Z</time>
      </trkpt>
      <trkpt lat="37.300150981172919" lon="-8.576116980984807">
        <ele>428.88999999999999</ele>
        <time>2025-05-07T09:08:02Z</time>
      </trkpt>
      <trkpt lat="37.300144024193287" lon="-8.576176995411515">
        <ele>428.88999999999999</ele>
        <time>2025-05-07T09:08:03Z</time>
      </trkpt>
      <trkpt lat="37.30012902058661" lon="-8.576310016214848">
        <ele>429.37</ele>
        <time>2025-05-07T09:08:04Z</time>
      </trkpt>
      <trkpt lat="37.30010999366641" lon="-8.57635703869164">
        <ele>429.37</ele>
        <time>2025-05-07T09:08:05Z</time>
      </trkpt>
      <trkpt lat="37.300070011988282" lon="-8.576458962634206">
        <ele>429.37</ele>
        <time>2025-05-07T09:08:06Z</time>
      </trkpt>
      <trkpt lat="37.300021983683109" lon="-8.576578991487622">
        <ele>429.37</ele>
        <time>2025-05-07T09:08:07Z</time>
      </trkpt>
      <trkpt lat="37.299970015883446" lon="-8.576708994805813">
        <ele>429.37</ele>
        <time>2025-05-07T09:08:08Z</time>
      </trkpt>
      <trkpt lat="37.299879994243383" lon="-8.576932037249208">
        <ele>428.88999999999999</ele>
        <time>2025-05-07T09:08:10Z</time>
      </trkpt>
      <trkpt lat="37.29978896677494" lon="-8.577161030843854">
        <ele>429.85000000000002</ele>
        <time>2025-05-07T09:08:14Z</time>
      </trkpt>
      <trkpt lat="37.299798019230366" lon="-8.57721802778542">
        <ele>429.85000000000002</ele>
        <time>2025-05-07T09:08:15Z</time>
      </trkpt>
      <trkpt lat="37.299836995080113" lon="-8.577267983928323">
        <ele>430.32999999999998</ele>
        <time>2025-05-07T09:08:16Z</time>
      </trkpt>
      <trkpt lat="37.299910001456738" lon="-8.577302014455199">
        <ele>430.32999999999998</ele>
        <time>2025-05-07T09:08:17Z</time>
      </trkpt>
      <trkpt lat="37.299997005611658" lon="-8.577343001961708">
        <ele>430.81</ele>
        <time>2025-05-07T09:08:18Z</time>
      </trkpt>
      <trkpt lat="37.300094990059733" lon="-8.5773900244385">
        <ele>431.29000000000002</ele>
        <time>2025-05-07T09:08:19Z</time>
      </trkpt>
      <trkpt lat="37.300439989194274" lon="-8.577552968636155">
        <ele>433.69</ele>
        <time>2025-05-07T09:08:23Z</time>
      </trkpt>
      <trkpt lat="37.300492040812969" lon="-8.577577024698257">
        <ele>434.64999999999998</ele>
        <time>2025-05-07T09:08:24Z</time>
      </trkpt>
      <trkpt lat="37.300742994993925" lon="-8.577552968636155">
        <ele>436.57999999999998</ele>
        <time>2025-05-07T09:08:27Z</time>
      </trkpt>
      <trkpt lat="37.300835028290749" lon="-8.577517010271549">
        <ele>436.57999999999998</ele>
        <time>2025-05-07T09:08:28Z</time>
      </trkpt>
      <trkpt lat="37.300928989425302" lon="-8.577479040250182">
        <ele>437.06</ele>
        <time>2025-05-07T09:08:29Z</time>
      </trkpt>
      <trkpt lat="37.301282035186887" lon="-8.577337972819805">
        <ele>438.5</ele>
        <time>2025-05-07T09:08:33Z</time>
      </trkpt>
      <trkpt lat="37.301371973007917" lon="-8.577323975041509">
        <ele>439.45999999999998</ele>
        <time>2025-05-07T09:08:34Z</time>
      </trkpt>
      <trkpt lat="37.301467023789883" lon="-8.577336966991425">
        <ele>440.89999999999998</ele>
        <time>2025-05-07T09:08:35Z</time>
      </trkpt>
      <trkpt lat="37.301562996581197" lon="-8.57734995894134">
        <ele>442.33999999999997</ele>
        <time>2025-05-07T09:08:36Z</time>
      </trkpt>
      <trkpt lat="37.301651006564498" lon="-8.577362028881908">
        <ele>443.79000000000002</ele>
        <time>2025-05-07T09:08:37Z</time>
      </trkpt>
      <trkpt lat="37.301727030426264" lon="-8.577373009175062">
        <ele>445.23000000000002</ele>
        <time>2025-05-07T09:08:38Z</time>
      </trkpt>
      <trkpt lat="37.301795007660985" lon="-8.577381977811456">
        <ele>446.67000000000002</ele>
        <time>2025-05-07T09:08:39Z</time>
      </trkpt>
      <trkpt lat="37.301850998774171" lon="-8.5773900244385">
        <ele>448.11000000000001</ele>
        <time>2025-05-07T09:08:40Z</time>
      </trkpt>
      <trkpt lat="37.301893997937441" lon="-8.577395975589752">
        <ele>449.55000000000001</ele>
        <time>2025-05-07T09:08:41Z</time>
      </trkpt>
      <trkpt lat="37.301930040121078" lon="-8.577401004731655">
        <ele>451</ele>
        <time>2025-05-07T09:08:42Z</time>
      </trkpt>
      <trkpt lat="37.301947977393866" lon="-8.577470993623138">
        <ele>452.44</ele>
        <time>2025-05-07T09:08:43Z</time>
      </trkpt>
      <trkpt lat="37.301944037899375" lon="-8.577521033585072">
        <ele>453.88</ele>
        <time>2025-05-07T09:08:44Z</time>
      </trkpt>
      <trkpt lat="37.301939008757472" lon="-8.577588004991412">
        <ele>455.31999999999999</ele>
        <time>2025-05-07T09:08:45Z</time>
      </trkpt>
      <trkpt lat="37.301932973787189" lon="-8.577666040509939">
        <ele>456.27999999999997</ele>
        <time>2025-05-07T09:08:46Z</time>
      </trkpt>
      <trkpt lat="37.301931967958808" lon="-8.577682971954346">
        <ele>457.72000000000003</ele>
        <time>2025-05-07T09:08:47Z</time>
      </trkpt>
      <trkpt lat="37.301971027627587" lon="-8.577840970829129">
        <ele>458.69</ele>
        <time>2025-05-07T09:08:48Z</time>
      </trkpt>
      <trkpt lat="37.3019980173558" lon="-8.577974997460842">
        <ele>459.64999999999998</ele>
        <time>2025-05-07T09:08:49Z</time>
      </trkpt>
      <trkpt lat="37.302061971276999" lon="-8.578480007126927">
        <ele>464.44999999999999</ele>
        <time>2025-05-07T09:08:54Z</time>
      </trkpt>
      <trkpt lat="37.302086027339101" lon="-8.578542033210397">
        <ele>464.93000000000001</ele>
        <time>2025-05-07T09:08:55Z</time>
      </trkpt>
      <trkpt lat="37.302102958783507" lon="-8.578584026545286">
        <ele>465.89999999999998</ele>
        <time>2025-05-07T09:08:56Z</time>
      </trkpt>
      <trkpt lat="37.302139000967145" lon="-8.57861403375864">
        <ele>466.86000000000001</ele>
        <time>2025-05-07T09:08:57Z</time>
      </trkpt>
      <trkpt lat="37.302179988473654" lon="-8.578647980466485">
        <ele>467.81999999999999</ele>
        <time>2025-05-07T09:08:58Z</time>
      </trkpt>
      <trkpt lat="37.302215024828911" lon="-8.578677987679839">
        <ele>468.77999999999997</ele>
        <time>2025-05-07T09:08:59Z</time>
      </trkpt>
      <trkpt lat="37.302232040092349" lon="-8.578691985458136">
        <ele>469.74000000000001</ele>
        <time>2025-05-07T09:09:00Z</time>
      </trkpt>
      <trkpt lat="37.302273027598858" lon="-8.578682010993362">
        <ele>470.69999999999999</ele>
        <time>2025-05-07T09:09:01Z</time>
      </trkpt>
      <trkpt lat="37.302332958206534" lon="-8.578644962981343">
        <ele>471.66000000000003</ele>
        <time>2025-05-07T09:09:02Z</time>
      </trkpt>
      <trkpt lat="37.302388027310371" lon="-8.578552007675171">
        <ele>472.63</ele>
        <time>2025-05-07T09:09:03Z</time>
      </trkpt>
      <trkpt lat="37.30244804173708" lon="-8.578449999913573">
        <ele>473.58999999999997</ele>
        <time>2025-05-07T09:09:04Z</time>
      </trkpt>
      <trkpt lat="37.30260000564158" lon="-8.578131990507245">
        <ele>476.47000000000003</ele>
        <time>2025-05-07T09:09:07Z</time>
      </trkpt>
      <trkpt lat="37.302662031725049" lon="-8.577972985804081">
        <ele>477.43000000000001</ele>
        <time>2025-05-07T09:09:09Z</time>
      </trkpt>
      <trkpt lat="37.302716011181474" lon="-8.577919006347656">
        <ele>478.38999999999999</ele>
        <time>2025-05-07T09:09:10Z</time>
      </trkpt>
      <trkpt lat="37.302754987031221" lon="-8.577919006347656">
        <ele>478.87</ele>
        <time>2025-05-07T09:09:11Z</time>
      </trkpt>
      <trkpt lat="37.302784994244576" lon="-8.577919006347656">
        <ele>479.35000000000002</ele>
        <time>2025-05-07T09:09:12Z</time>
      </trkpt>
      <trkpt lat="37.302776025608182" lon="-8.578017996624112">
        <ele>479.83999999999997</ele>
        <time>2025-05-07T09:09:13Z</time>
      </trkpt>
      <trkpt lat="37.302764039486647" lon="-8.578098965808749">
        <ele>480.31999999999999</ele>
        <time>2025-05-07T09:09:14Z</time>
      </trkpt>
      <trkpt lat="37.302750963717699" lon="-8.578194016590715">
        <ele>480.80000000000001</ele>
        <time>2025-05-07T09:09:15Z</time>
      </trkpt>
      <trkpt lat="37.302735960111022" lon="-8.578300969675183">
        <ele>481.27999999999997</ele>
        <time>2025-05-07T09:09:16Z</time>
      </trkpt>
      <trkpt lat="37.302662031725049" lon="-8.579090964049101">
        <ele>483.19999999999999</ele>
        <time>2025-05-07T09:09:22Z</time>
      </trkpt>
      <trkpt lat="37.302677035331726" lon="-8.579223984852433">
        <ele>483.68000000000001</ele>
        <time>2025-05-07T09:09:23Z</time>
      </trkpt>
      <trkpt lat="37.302693966776133" lon="-8.579358011484146">
        <ele>483.68000000000001</ele>
        <time>2025-05-07T09:09:24Z</time>
      </trkpt>
      <trkpt lat="37.302811983972788" lon="-8.580279015004635">
        <ele>488.49000000000001</ele>
        <time>2025-05-07T09:09:31Z</time>
      </trkpt>
      <trkpt lat="37.302806032821536" lon="-8.580387979745865">
        <ele>489.44999999999999</ele>
        <time>2025-05-07T09:09:32Z</time>
      </trkpt>
      <trkpt lat="37.302801003679633" lon="-8.580502979457378">
        <ele>490.41000000000003</ele>
        <time>2025-05-07T09:09:33Z</time>
      </trkpt>
      <trkpt lat="37.302790023386478" lon="-8.580718981102109">
        <ele>491.85000000000002</ele>
        <time>2025-05-07T09:09:35Z</time>
      </trkpt>
      <trkpt lat="37.302784994244576" lon="-8.58082601800561">
        <ele>492.81</ele>
        <time>2025-05-07T09:09:36Z</time>
      </trkpt>
      <trkpt lat="37.302775019779801" lon="-8.581039002165198">
        <ele>494.25999999999999</ele>
        <time>2025-05-07T09:09:38Z</time>
      </trkpt>
      <trkpt lat="37.302769990637898" lon="-8.581141009926796">
        <ele>495.22000000000003</ele>
        <time>2025-05-07T09:09:39Z</time>
      </trkpt>
      <trkpt lat="37.302745012566447" lon="-8.581244023516774">
        <ele>495.69999999999999</ele>
        <time>2025-05-07T09:09:40Z</time>
      </trkpt>
      <trkpt lat="37.302712993696332" lon="-8.581352988258004">
        <ele>496.18000000000001</ele>
        <time>2025-05-07T09:09:41Z</time>
      </trkpt>
      <trkpt lat="37.302682986482978" lon="-8.581460025161505">
        <ele>496.66000000000003</ele>
        <time>2025-05-07T09:09:42Z</time>
      </trkpt>
      <trkpt lat="37.302646022289991" lon="-8.58157997019589">
        <ele>497.13999999999999</ele>
        <time>2025-05-07T09:09:43Z</time>
      </trkpt>
      <trkpt lat="37.302611991763115" lon="-8.581692958250642">
        <ele>497.62</ele>
        <time>2025-05-07T09:09:44Z</time>
      </trkpt>
      <trkpt lat="37.302533034235239" lon="-8.581952964887023">
        <ele>499.06</ele>
        <time>2025-05-07T09:09:46Z</time>
      </trkpt>
      <trkpt lat="37.302492968738079" lon="-8.582039969041944">
        <ele>499.06</ele>
        <time>2025-05-07T09:09:47Z</time>
      </trkpt>
      <trkpt lat="37.302444018423557" lon="-8.582144994288683">
        <ele>499.54000000000002</ele>
        <time>2025-05-07T09:09:48Z</time>
      </trkpt>
      <trkpt lat="37.302318960428238" lon="-8.582344986498356">
        <ele>500.5</ele>
        <time>2025-05-07T09:09:50Z</time>
      </trkpt>
      <trkpt lat="37.302055014297366" lon="-8.582698032259941">
        <ele>501.94999999999999</ele>
        <time>2025-05-07T09:09:54Z</time>
      </trkpt>
      <trkpt lat="37.302013020962477" lon="-8.582786964252591">
        <ele>502.43000000000001</ele>
        <time>2025-05-07T09:09:55Z</time>
      </trkpt>
      <trkpt lat="37.302000029012561" lon="-8.582906993106008">
        <ele>502.43000000000001</ele>
        <time>2025-05-07T09:09:56Z</time>
      </trkpt>
      <trkpt lat="37.301944959908724" lon="-8.583419965580106">
        <ele>504.35000000000002</ele>
        <time>2025-05-07T09:10:00Z</time>
      </trkpt>
      <trkpt lat="37.301936997100711" lon="-8.583549968898296">
        <ele>504.82999999999998</ele>
        <time>2025-05-07T09:10:01Z</time>
      </trkpt>
      <trkpt lat="37.301992988213897" lon="-8.583648037165403">
        <ele>505.31</ele>
        <time>2025-05-07T09:10:02Z</time>
      </trkpt>
      <trkpt lat="37.302191974595189" lon="-8.583995969966054">
        <ele>507.70999999999998</ele>
        <time>2025-05-07T09:10:05Z</time>
      </trkpt>
      <trkpt lat="37.302468996495008" lon="-8.584482036530972">
        <ele>511.07999999999998</ele>
        <time>2025-05-07T09:10:09Z</time>
      </trkpt>
      <trkpt lat="37.302533034235239" lon="-8.584592007100582">
        <ele>512.03999999999996</ele>
        <time>2025-05-07T09:10:10Z</time>
      </trkpt>
      <trkpt lat="37.302616015076637" lon="-8.58469502069056">
        <ele>513</ele>
        <time>2025-05-07T09:10:11Z</time>
      </trkpt>
      <trkpt lat="37.302689021453261" lon="-8.584783030673862">
        <ele>513.48000000000002</ele>
        <time>2025-05-07T09:10:12Z</time>
      </trkpt>
      <trkpt lat="37.302743000909686" lon="-8.584881015121937">
        <ele>514.44000000000005</ele>
        <time>2025-05-07T09:10:13Z</time>
      </trkpt>
      <trkpt lat="37.302790023386478" lon="-8.585021998733282">
        <ele>515.88</ele>
        <time>2025-05-07T09:10:14Z</time>
      </trkpt>
      <trkpt lat="37.302780970931053" lon="-8.585118977352977">
        <ele>516.85000000000002</ele>
        <time>2025-05-07T09:10:15Z</time>
      </trkpt>
      <trkpt lat="37.302768984809518" lon="-8.585258033126593">
        <ele>517.80999999999995</ele>
        <time>2025-05-07T09:10:16Z</time>
      </trkpt>
      <trkpt lat="37.302778037264943" lon="-8.585334978997707">
        <ele>518.76999999999998</ele>
        <time>2025-05-07T09:10:17Z</time>
      </trkpt>
      <trkpt lat="37.302807038649917" lon="-8.58544603921473">
        <ele>519.73000000000002</ele>
        <time>2025-05-07T09:10:18Z</time>
      </trkpt>
      <trkpt lat="37.302876021713018" lon="-8.585515022277832">
        <ele>520.21000000000004</ele>
        <time>2025-05-07T09:10:19Z</time>
      </trkpt>
      <trkpt lat="37.302989009767771" lon="-8.585549974814057">
        <ele>520.69000000000005</ele>
        <time>2025-05-07T09:10:20Z</time>
      </trkpt>
      <trkpt lat="37.303104009479284" lon="-8.585584005340934">
        <ele>521.16999999999996</ele>
        <time>2025-05-07T09:10:21Z</time>
      </trkpt>
      <trkpt lat="37.303214985877275" lon="-8.58561803586781">
        <ele>521.64999999999998</ele>
        <time>2025-05-07T09:10:22Z</time>
      </trkpt>
      <trkpt lat="37.303326968103647" lon="-8.585651982575655">
        <ele>522.13</ele>
        <time>2025-05-07T09:10:23Z</time>
      </trkpt>
      <trkpt lat="37.303427970036864" lon="-8.58570403419435">
        <ele>522.61000000000001</ele>
        <time>2025-05-07T09:10:24Z</time>
      </trkpt>
      <trkpt lat="37.303525032475591" lon="-8.585766982287169">
        <ele>523.09000000000003</ele>
        <time>2025-05-07T09:10:25Z</time>
      </trkpt>
      <trkpt lat="37.303895009681582" lon="-8.586008967831731">
        <ele>527.89999999999998</ele>
        <time>2025-05-07T09:10:31Z</time>
      </trkpt>
      <trkpt lat="37.304087961092591" lon="-8.586107958108187">
        <ele>530.29999999999995</ele>
        <time>2025-05-07T09:10:36Z</time>
      </trkpt>
      <trkpt lat="37.304131966084242" lon="-8.586128996685147">
        <ele>530.78999999999996</ele>
        <time>2025-05-07T09:10:37Z</time>
      </trkpt>
      <trkpt lat="37.304178988561034" lon="-8.586151041090488">
        <ele>531.26999999999998</ele>
        <time>2025-05-07T09:10:38Z</time>
      </trkpt>
      <trkpt lat="37.304220981895924" lon="-8.586171995848417">
        <ele>531.75</ele>
        <time>2025-05-07T09:10:39Z</time>
      </trkpt>
      <trkpt lat="37.304261969402432" lon="-8.586191022768617">
        <ele>532.23000000000002</ele>
        <time>2025-05-07T09:10:40Z</time>
      </trkpt>
      <trkpt lat="37.304303040727973" lon="-8.586211977526546">
        <ele>532.71000000000004</ele>
        <time>2025-05-07T09:10:41Z</time>
      </trkpt>
      <trkpt lat="37.304348973557353" lon="-8.586234021931887">
        <ele>533.19000000000005</ele>
        <time>2025-05-07T09:10:42Z</time>
      </trkpt>
      <trkpt lat="37.304549971595407" lon="-8.586331000551581">
        <ele>535.11000000000001</ele>
        <time>2025-05-07T09:10:45Z</time>
      </trkpt>
      <trkpt lat="37.304558018222451" lon="-8.586352961137891">
        <ele>535.59000000000003</ele>
        <time>2025-05-07T09:10:46Z</time>
      </trkpt>
      <trkpt lat="37.304587019607425" lon="-8.586432002484798">
        <ele>536.07000000000005</ele>
        <time>2025-05-07T09:10:47Z</time>
      </trkpt>
      <trkpt lat="37.304617026820779" lon="-8.586514983326197">
        <ele>536.54999999999995</ele>
        <time>2025-05-07T09:10:48Z</time>
      </trkpt>
      <trkpt lat="37.304647034034133" lon="-8.586597964167595">
        <ele>537.02999999999997</ele>
        <time>2025-05-07T09:10:49Z</time>
      </trkpt>
      <trkpt lat="37.304676035419106" lon="-8.586678011342883">
        <ele>537.02999999999997</ele>
        <time>2025-05-07T09:10:50Z</time>
      </trkpt>
      <trkpt lat="37.30470797047019" lon="-8.586765015497804">
        <ele>537.50999999999999</ele>
        <time>2025-05-07T09:10:51Z</time>
      </trkpt>
      <trkpt lat="37.304744012653828" lon="-8.586847996339202">
        <ele>537.50999999999999</ele>
        <time>2025-05-07T09:10:52Z</time>
      </trkpt>
      <trkpt lat="37.30479103513062" lon="-8.586935000494123">
        <ele>537.50999999999999</ele>
        <time>2025-05-07T09:10:53Z</time>
      </trkpt>
      <trkpt lat="37.304860018193722" lon="-8.586981017142534">
        <ele>537.50999999999999</ele>
        <time>2025-05-07T09:10:54Z</time>
      </trkpt>
      <trkpt lat="37.304926989600062" lon="-8.587025022134185">
        <ele>537.50999999999999</ele>
        <time>2025-05-07T09:10:55Z</time>
      </trkpt>
      <trkpt lat="37.304992033168674" lon="-8.587069027125835">
        <ele>537.50999999999999</ele>
        <time>2025-05-07T09:10:56Z</time>
      </trkpt>
      <trkpt lat="37.305053975433111" lon="-8.587110014632344">
        <ele>537.50999999999999</ele>
        <time>2025-05-07T09:10:57Z</time>
      </trkpt>
      <trkpt lat="37.305120024830103" lon="-8.587182015180588">
        <ele>537.50999999999999</ele>
        <time>2025-05-07T09:10:58Z</time>
      </trkpt>
      <trkpt lat="37.305146008729935" lon="-8.587261978536844">
        <ele>537.99000000000001</ele>
        <time>2025-05-07T09:10:59Z</time>
      </trkpt>
      <trkpt lat="37.305152965709567" lon="-8.587355017662048">
        <ele>538.48000000000002</ele>
        <time>2025-05-07T09:11:00Z</time>
      </trkpt>
      <trkpt lat="37.305154977366328" lon="-8.587449984624982">
        <ele>538.48000000000002</ele>
        <time>2025-05-07T09:11:01Z</time>
      </trkpt>
      <trkpt lat="37.30515799485147" lon="-8.587549980729818">
        <ele>538.96000000000004</ele>
        <time>2025-05-07T09:11:02Z</time>
      </trkpt>
      <trkpt lat="37.305168975144625" lon="-8.587977038696408">
        <ele>540.39999999999998</ele>
        <time>2025-05-07T09:11:06Z</time>
      </trkpt>
      <trkpt lat="37.305170986801386" lon="-8.588060019537807">
        <ele>540.39999999999998</ele>
        <time>2025-05-07T09:11:07Z</time>
      </trkpt>
      <trkpt lat="37.305140979588032" lon="-8.588135959580541">
        <ele>540.39999999999998</ele>
        <time>2025-05-07T09:11:08Z</time>
      </trkpt>
      <trkpt lat="37.305085994303226" lon="-8.588219024240971">
        <ele>540.39999999999998</ele>
        <time>2025-05-07T09:11:09Z</time>
      </trkpt>
      <trkpt lat="37.305032014846802" lon="-8.588232016190887">
        <ele>539.91999999999996</ele>
        <time>2025-05-07T09:11:10Z</time>
      </trkpt>
      <trkpt lat="37.304944004863501" lon="-8.588212989270687">
        <ele>539.91999999999996</ele>
        <time>2025-05-07T09:11:11Z</time>
      </trkpt>
      <trkpt lat="37.304867981001735" lon="-8.588176025077701">
        <ele>539.91999999999996</ele>
        <time>2025-05-07T09:11:12Z</time>
      </trkpt>
      <trkpt lat="37.304782988503575" lon="-8.588135959580541">
        <ele>539.91999999999996</ele>
        <time>2025-05-07T09:11:13Z</time>
      </trkpt>
      <trkpt lat="37.304616020992398" lon="-8.588054990395904">
        <ele>540.39999999999998</ele>
        <time>2025-05-07T09:11:15Z</time>
      </trkpt>
      <trkpt lat="37.30447000823915" lon="-8.587985001504421">
        <ele>540.39999999999998</ele>
        <time>2025-05-07T09:11:17Z</time>
      </trkpt>
      <trkpt lat="37.304413011297584" lon="-8.587957005947828">
        <ele>540.39999999999998</ele>
        <time>2025-05-07T09:11:18Z</time>
      </trkpt>
      <trkpt lat="37.304352996870875" lon="-8.587974021211267">
        <ele>540.88</ele>
        <time>2025-05-07T09:11:19Z</time>
      </trkpt>
      <trkpt lat="37.304304968565702" lon="-8.588036969304085">
        <ele>541.36000000000001</ele>
        <time>2025-05-07T09:11:20Z</time>
      </trkpt>
      <trkpt lat="37.304247971624136" lon="-8.588112993165851">
        <ele>541.84000000000003</ele>
        <time>2025-05-07T09:11:21Z</time>
      </trkpt>
      <trkpt lat="37.304189968854189" lon="-8.588190022855997">
        <ele>542.32000000000005</ele>
        <time>2025-05-07T09:11:22Z</time>
      </trkpt>
      <trkpt lat="37.304082009941339" lon="-8.588334023952484">
        <ele>543.27999999999997</ele>
        <time>2025-05-07T09:11:24Z</time>
      </trkpt>
      <trkpt lat="37.304053008556366" lon="-8.588396972045302">
        <ele>543.75999999999999</ele>
        <time>2025-05-07T09:11:25Z</time>
      </trkpt>
      <trkpt lat="37.304041022434831" lon="-8.588487999513745">
        <ele>545.20000000000005</ele>
        <time>2025-05-07T09:11:26Z</time>
      </trkpt>
      <trkpt lat="37.304070023819804" lon="-8.588564023375511">
        <ele>545.69000000000005</ele>
        <time>2025-05-07T09:11:27Z</time>
      </trkpt>
      <trkpt lat="37.304122997447848" lon="-8.588598975911737">
        <ele>546.64999999999998</ele>
        <time>2025-05-07T09:11:28Z</time>
      </trkpt>
      <trkpt lat="37.304178988561034" lon="-8.588637029752135">
        <ele>546.64999999999998</ele>
        <time>2025-05-07T09:11:29Z</time>
      </trkpt>
      <trkpt lat="37.304244032129645" lon="-8.588680028915405">
        <ele>547.13</ele>
        <time>2025-05-07T09:11:30Z</time>
      </trkpt>
      <trkpt lat="37.304653991013765" lon="-8.588954033330083">
        <ele>550.00999999999999</ele>
        <time>2025-05-07T09:11:36Z</time>
      </trkpt>
      <trkpt lat="37.304732026532292" lon="-8.589006001129746">
        <ele>550.97000000000003</ele>
        <time>2025-05-07T09:11:37Z</time>
      </trkpt>
      <trkpt lat="37.304878961294889" lon="-8.589102979749441">
        <ele>552.89999999999998</ele>
        <time>2025-05-07T09:11:39Z</time>
      </trkpt>
      <trkpt lat="37.305337032303214" lon="-8.589253015816212">
        <ele>560.59000000000003</ele>
        <time>2025-05-07T09:11:45Z</time>
      </trkpt>
      <trkpt lat="37.306052008643746" lon="-8.589370027184486">
        <ele>568.75999999999999</ele>
        <time>2025-05-07T09:11:54Z</time>
      </trkpt>
      <trkpt lat="37.306175976991653" lon="-8.58940196223557">
        <ele>570.67999999999995</ele>
        <time>2025-05-07T09:11:56Z</time>
      </trkpt>
      <trkpt lat="37.306244960054755" lon="-8.589419983327389">
        <ele>571.63999999999999</ele>
        <time>2025-05-07T09:11:57Z</time>
      </trkpt>
      <trkpt lat="37.306288965046406" lon="-8.589375978335738">
        <ele>572.60000000000002</ele>
        <time>2025-05-07T09:11:58Z</time>
      </trkpt>
      <trkpt lat="37.306330958381295" lon="-8.58931596390903">
        <ele>573.55999999999995</ele>
        <time>2025-05-07T09:11:59Z</time>
      </trkpt>
      <trkpt lat="37.306327018886805" lon="-8.589234994724393">
        <ele>574.52999999999997</ele>
        <time>2025-05-07T09:12:00Z</time>
      </trkpt>
      <trkpt lat="37.306300029158592" lon="-8.589146984741092">
        <ele>575.00999999999999</ele>
        <time>2025-05-07T09:12:01Z</time>
      </trkpt>
      <trkpt lat="37.306270021945238" lon="-8.589045982807875">
        <ele>575.49000000000001</ele>
        <time>2025-05-07T09:12:02Z</time>
      </trkpt>
      <trkpt lat="37.306239008903503" lon="-8.588939029723406">
        <ele>576.45000000000005</ele>
        <time>2025-05-07T09:12:03Z</time>
      </trkpt>
      <trkpt lat="37.306055026128888" lon="-8.588251965120435">
        <ele>575.97000000000003</ele>
        <time>2025-05-07T09:12:10Z</time>
      </trkpt>
      <trkpt lat="37.306067012250423" lon="-8.58815498650074">
        <ele>575.49000000000001</ele>
        <time>2025-05-07T09:12:11Z</time>
      </trkpt>
      <trkpt lat="37.306085033342242" lon="-8.588058007881045">
        <ele>575.49000000000001</ele>
        <time>2025-05-07T09:12:12Z</time>
      </trkpt>
      <trkpt lat="37.306114034727216" lon="-8.587964968755841">
        <ele>575.00999999999999</ele>
        <time>2025-05-07T09:12:13Z</time>
      </trkpt>
      <trkpt lat="37.306158039718866" lon="-8.587877964600921">
        <ele>574.52999999999997</ele>
        <time>2025-05-07T09:12:14Z</time>
      </trkpt>
      <trkpt lat="37.306200033053756" lon="-8.587792972102761">
        <ele>574.52999999999997</ele>
        <time>2025-05-07T09:12:15Z</time>
      </trkpt>
      <trkpt lat="37.306259963661432" lon="-8.587743015959859">
        <ele>574.52999999999997</ele>
        <time>2025-05-07T09:12:16Z</time>
      </trkpt>
      <trkpt lat="37.306326013058424" lon="-8.587690964341164">
        <ele>575.00999999999999</ele>
        <time>2025-05-07T09:12:17Z</time>
      </trkpt>
      <trkpt lat="37.306389966979623" lon="-8.5876389965415">
        <ele>575.49000000000001</ele>
        <time>2025-05-07T09:12:18Z</time>
      </trkpt>
      <trkpt lat="37.306455010548234" lon="-8.587588034570217">
        <ele>575.49000000000001</ele>
        <time>2025-05-07T09:12:19Z</time>
      </trkpt>
      <trkpt lat="37.306584008038044" lon="-8.587484015151858">
        <ele>575.97000000000003</ele>
        <time>2025-05-07T09:12:21Z</time>
      </trkpt>
      <trkpt lat="37.306644022464752" lon="-8.587435986846685">
        <ele>575.97000000000003</ele>
        <time>2025-05-07T09:12:22Z</time>
      </trkpt>
      <trkpt lat="37.306702025234699" lon="-8.587388964369893">
        <ele>575.97000000000003</ele>
        <time>2025-05-07T09:12:23Z</time>
      </trkpt>
      <trkpt lat="37.306762039661407" lon="-8.587342025712133">
        <ele>575.97000000000003</ele>
        <time>2025-05-07T09:12:24Z</time>
      </trkpt>
      <trkpt lat="37.306817024946213" lon="-8.587297014892101">
        <ele>575.97000000000003</ele>
        <time>2025-05-07T09:12:25Z</time>
      </trkpt>
      <trkpt lat="37.306871004402637" lon="-8.587254015728831">
        <ele>576.45000000000005</ele>
        <time>2025-05-07T09:12:26Z</time>
      </trkpt>
      <trkpt lat="37.306926995515823" lon="-8.587210010737181">
        <ele>576.45000000000005</ele>
        <time>2025-05-07T09:12:27Z</time>
      </trkpt>
      <trkpt lat="37.307145008817315" lon="-8.58703600242734">
        <ele>576.92999999999995</ele>
        <time>2025-05-07T09:12:31Z</time>
      </trkpt>
      <trkpt lat="37.307178033515811" lon="-8.586975988000631">
        <ele>576.92999999999995</ele>
        <time>2025-05-07T09:12:32Z</time>
      </trkpt>
      <trkpt lat="37.307189013808966" lon="-8.5869309771806">
        <ele>577.40999999999997</ele>
        <time>2025-05-07T09:12:33Z</time>
      </trkpt>
      <trkpt lat="37.307154983282089" lon="-8.586889989674091">
        <ele>577.40999999999997</ele>
        <time>2025-05-07T09:12:34Z</time>
      </trkpt>
      <trkpt lat="37.307108966633677" lon="-8.586835004389286">
        <ele>577.40999999999997</ele>
        <time>2025-05-07T09:12:35Z</time>
      </trkpt>
      <trkpt lat="37.307056998834014" lon="-8.586789993569255">
        <ele>577.88999999999999</ele>
        <time>2025-05-07T09:12:36Z</time>
      </trkpt>
      <trkpt lat="37.306975023820996" lon="-8.586746994405985">
        <ele>577.88999999999999</ele>
        <time>2025-05-07T09:12:37Z</time>
      </trkpt>
      <trkpt lat="37.306892964988947" lon="-8.586703995242715">
        <ele>578.37</ele>
        <time>2025-05-07T09:12:38Z</time>
      </trkpt>
      <trkpt lat="37.306586019694805" lon="-8.586544990539551">
        <ele>579.80999999999995</ele>
        <time>2025-05-07T09:12:42Z</time>
      </trkpt>
      <trkpt lat="37.306519970297813" lon="-8.586473995819688">
        <ele>579.80999999999995</ele>
        <time>2025-05-07T09:12:43Z</time>
      </trkpt>
      <trkpt lat="37.30648803524673" lon="-8.586408030241728">
        <ele>580.28999999999996</ele>
        <time>2025-05-07T09:12:44Z</time>
      </trkpt>
      <trkpt lat="37.306454004719853" lon="-8.586340975016356">
        <ele>580.76999999999998</ele>
        <time>2025-05-07T09:12:45Z</time>
      </trkpt>
      <trkpt lat="37.306419974192977" lon="-8.586274003610015">
        <ele>580.76999999999998</ele>
        <time>2025-05-07T09:12:46Z</time>
      </trkpt>
      <trkpt lat="37.306387033313513" lon="-8.586207032203674">
        <ele>581.25</ele>
        <time>2025-05-07T09:12:47Z</time>
      </trkpt>
      <trkpt lat="37.306350991129875" lon="-8.586135031655431">
        <ele>581.73000000000002</ele>
        <time>2025-05-07T09:12:48Z</time>
      </trkpt>
      <trkpt lat="37.306245965883136" lon="-8.585954988375306">
        <ele>583.65999999999997</ele>
        <time>2025-05-07T09:12:53Z</time>
      </trkpt>
      <trkpt lat="37.306245965883136" lon="-8.585954988375306">
        <ele>585.10000000000002</ele>
        <time>2025-05-07T09:13:05Z</time>
      </trkpt>
      <trkpt lat="37.306287959218025" lon="-8.586008967831731">
        <ele>585.10000000000002</ele>
        <time>2025-05-07T09:13:20Z</time>
      </trkpt>
      <trkpt lat="37.306287959218025" lon="-8.586008967831731">
        <ele>585.58000000000004</ele>
        <time>2025-05-07T09:13:21Z</time>
      </trkpt>
      <trkpt lat="37.306326013058424" lon="-8.586018020287156">
        <ele>585.58000000000004</ele>
        <time>2025-05-07T09:13:22Z</time>
      </trkpt>
      <trkpt lat="37.306399019435048" lon="-8.586036041378975">
        <ele>586.05999999999995</ele>
        <time>2025-05-07T09:13:23Z</time>
      </trkpt>
      <trkpt lat="37.30648803524673" lon="-8.586060013622046">
        <ele>586.53999999999996</ele>
        <time>2025-05-07T09:13:24Z</time>
      </trkpt>
      <trkpt lat="37.306589037179947" lon="-8.586093038320541">
        <ele>587.01999999999998</ele>
        <time>2025-05-07T09:13:25Z</time>
      </trkpt>
      <trkpt lat="37.306986004114151" lon="-8.586174007505179">
        <ele>589.42999999999995</ele>
        <time>2025-05-07T09:13:29Z</time>
      </trkpt>
      <trkpt lat="37.307861996814609" lon="-8.58630602248013">
        <ele>596.14999999999998</ele>
        <time>2025-05-07T09:13:38Z</time>
      </trkpt>
      <trkpt lat="37.307967022061348" lon="-8.586303004994988">
        <ele>597.12</ele>
        <time>2025-05-07T09:13:39Z</time>
      </trkpt>
      <trkpt lat="37.308197021484375" lon="-8.586288001388311">
        <ele>601.91999999999996</ele>
        <time>2025-05-07T09:13:44Z</time>
      </trkpt>
      <trkpt lat="37.308240020647645" lon="-8.586223041638732">
        <ele>602.88</ele>
        <time>2025-05-07T09:13:45Z</time>
      </trkpt>
      <trkpt lat="37.308240020647645" lon="-8.586223041638732">
        <ele>603.36000000000001</ele>
        <time>2025-05-07T09:13:46Z</time>
      </trkpt>
      <trkpt lat="37.308183023706079" lon="-8.586061019450426">
        <ele>604.80999999999995</ele>
        <time>2025-05-07T09:13:48Z</time>
      </trkpt>
      <trkpt lat="37.308095013722777" lon="-8.585978960618377">
        <ele>605.76999999999998</ele>
        <time>2025-05-07T09:13:49Z</time>
      </trkpt>
      <trkpt lat="37.308011027052999" lon="-8.585900003090501">
        <ele>606.73000000000002</ele>
        <time>2025-05-07T09:13:50Z</time>
      </trkpt>
      <trkpt lat="37.307463018223643" lon="-8.585379989817739">
        <ele>614.41999999999996</ele>
        <time>2025-05-07T09:13:57Z</time>
      </trkpt>
      <trkpt lat="37.307367967441678" lon="-8.58523003757">
        <ele>617.77999999999997</ele>
        <time>2025-05-07T09:13:59Z</time>
      </trkpt>
      <trkpt lat="37.307336032390594" lon="-8.585164994001389">
        <ele>619.23000000000002</ele>
        <time>2025-05-07T09:14:00Z</time>
      </trkpt>
      <trkpt lat="37.307318011298776" lon="-8.585129035636783">
        <ele>621.14999999999998</ele>
        <time>2025-05-07T09:14:01Z</time>
      </trkpt>
      <trkpt lat="37.307326979935169" lon="-8.585042031481862">
        <ele>623.07000000000005</ele>
        <time>2025-05-07T09:14:02Z</time>
      </trkpt>
      <trkpt lat="37.307332009077072" lon="-8.585003977641463">
        <ele>625.47000000000003</ele>
        <time>2025-05-07T09:14:03Z</time>
      </trkpt>
      <trkpt lat="37.307315999642015" lon="-8.584954021498561">
        <ele>627.39999999999998</ele>
        <time>2025-05-07T09:14:04Z</time>
      </trkpt>
      <trkpt lat="37.307338966056705" lon="-8.584936000406742">
        <ele>629.32000000000005</ele>
        <time>2025-05-07T09:14:05Z</time>
      </trkpt>
      <trkpt lat="37.307376014068723" lon="-8.584986040368676">
        <ele>630.27999999999997</ele>
        <time>2025-05-07T09:14:06Z</time>
      </trkpt>
      <trkpt lat="37.307410966604948" lon="-8.585033984854817">
        <ele>630.75999999999999</ele>
        <time>2025-05-07T09:14:07Z</time>
      </trkpt>
      <trkpt lat="37.307458994910121" lon="-8.58510104008019">
        <ele>631.72000000000003</ele>
        <time>2025-05-07T09:14:08Z</time>
      </trkpt>
      <trkpt lat="37.307530995458364" lon="-8.585181003436446">
        <ele>632.67999999999995</ele>
        <time>2025-05-07T09:14:09Z</time>
      </trkpt>
      <trkpt lat="37.307622022926807" lon="-8.585222996771336">
        <ele>633.16999999999996</ele>
        <time>2025-05-07T09:14:10Z</time>
      </trkpt>
      <trkpt lat="37.307717995718122" lon="-8.585267001762986">
        <ele>634.13</ele>
        <time>2025-05-07T09:14:11Z</time>
      </trkpt>
      <trkpt lat="37.308597005903721" lon="-8.585418965667486">
        <ele>638.45000000000005</ele>
        <time>2025-05-07T09:14:18Z</time>
      </trkpt>
      <trkpt lat="37.308698007836938" lon="-8.585458025336266">
        <ele>639.40999999999997</ele>
        <time>2025-05-07T09:14:19Z</time>
      </trkpt>
      <trkpt lat="37.308798003941774" lon="-8.585558021441102">
        <ele>639.88999999999999</ele>
        <time>2025-05-07T09:14:20Z</time>
      </trkpt>
      <trkpt lat="37.308837985619903" lon="-8.585667992010713">
        <ele>640.86000000000001</ele>
        <time>2025-05-07T09:14:21Z</time>
      </trkpt>
      <trkpt lat="37.308884002268314" lon="-8.585793972015381">
        <ele>642.29999999999995</ele>
        <time>2025-05-07T09:14:22Z</time>
      </trkpt>
      <trkpt lat="37.308957008644938" lon="-8.585951970890164">
        <ele>643.74000000000001</ele>
        <time>2025-05-07T09:14:23Z</time>
      </trkpt>
      <trkpt lat="37.309036972001195" lon="-8.586107036098838">
        <ele>645.17999999999995</ele>
        <time>2025-05-07T09:14:24Z</time>
      </trkpt>
      <trkpt lat="37.309135962277651" lon="-8.586248019710183">
        <ele>646.13999999999999</ele>
        <time>2025-05-07T09:14:25Z</time>
      </trkpt>
      <trkpt lat="37.309236964210868" lon="-8.586390009149909">
        <ele>647.10000000000002</ele>
        <time>2025-05-07T09:14:26Z</time>
      </trkpt>
      <trkpt lat="37.309348024427891" lon="-8.586509032174945">
        <ele>648.07000000000005</ele>
        <time>2025-05-07T09:14:27Z</time>
      </trkpt>
      <trkpt lat="37.309463024139404" lon="-8.586612967774272">
        <ele>649.02999999999997</ele>
        <time>2025-05-07T09:14:28Z</time>
      </trkpt>
      <trkpt lat="37.309782039374113" lon="-8.586924020200968">
        <ele>650.95000000000005</ele>
        <time>2025-05-07T09:14:31Z</time>
      </trkpt>
      <trkpt lat="37.309843981638551" lon="-8.587047988548875">
        <ele>651.42999999999995</ele>
        <time>2025-05-07T09:14:32Z</time>
      </trkpt>
      <trkpt lat="37.309850016608834" lon="-8.587176986038685">
        <ele>651.90999999999997</ele>
        <time>2025-05-07T09:14:33Z</time>
      </trkpt>
      <trkpt lat="37.309850016608834" lon="-8.587339008226991">
        <ele>652.87</ele>
        <time>2025-05-07T09:14:34Z</time>
      </trkpt>
      <trkpt lat="37.309850016608834" lon="-8.587512010708451">
        <ele>653.35000000000002</ele>
        <time>2025-05-07T09:14:35Z</time>
      </trkpt>
      <trkpt lat="37.309850016608834" lon="-8.587685013189912">
        <ele>654.30999999999995</ele>
        <time>2025-05-07T09:14:36Z</time>
      </trkpt>
      <trkpt lat="37.309833001345396" lon="-8.587844017893076">
        <ele>655.27999999999997</ele>
        <time>2025-05-07T09:14:37Z</time>
      </trkpt>
      <trkpt lat="37.309788996353745" lon="-8.587987013161182">
        <ele>655.75999999999999</ele>
        <time>2025-05-07T09:14:38Z</time>
      </trkpt>
      <trkpt lat="37.309711966663599" lon="-8.588107964023948">
        <ele>656.72000000000003</ele>
        <time>2025-05-07T09:14:39Z</time>
      </trkpt>
      <trkpt lat="37.30960501357913" lon="-8.588191028684378">
        <ele>657.67999999999995</ele>
        <time>2025-05-07T09:14:40Z</time>
      </trkpt>
      <trkpt lat="37.30949797667563" lon="-8.588274009525776">
        <ele>658.63999999999999</ele>
        <time>2025-05-07T09:14:41Z</time>
      </trkpt>
      <trkpt lat="37.309293039143085" lon="-8.58843301422894">
        <ele>660.08000000000004</ele>
        <time>2025-05-07T09:14:43Z</time>
      </trkpt>
      <trkpt lat="37.309238975867629" lon="-8.588558994233608">
        <ele>660.55999999999995</ele>
        <time>2025-05-07T09:14:44Z</time>
      </trkpt>
      <trkpt lat="37.309180973097682" lon="-8.588696038350463">
        <ele>661.51999999999998</ele>
        <time>2025-05-07T09:14:45Z</time>
      </trkpt>
      <trkpt lat="37.309120958670974" lon="-8.588839033618569">
        <ele>662.49000000000001</ele>
        <time>2025-05-07T09:14:46Z</time>
      </trkpt>
      <trkpt lat="37.309044012799859" lon="-8.588982028886676">
        <ele>663.45000000000005</ele>
        <time>2025-05-07T09:14:47Z</time>
      </trkpt>
      <trkpt lat="37.308964971452951" lon="-8.589127035811544">
        <ele>664.40999999999997</ele>
        <time>2025-05-07T09:14:48Z</time>
      </trkpt>
      <trkpt lat="37.308886013925076" lon="-8.58927296474576">
        <ele>665.37</ele>
        <time>2025-05-07T09:14:49Z</time>
      </trkpt>
      <trkpt lat="37.308718040585518" lon="-8.589602960273624">
        <ele>668.25</ele>
        <time>2025-05-07T09:14:52Z</time>
      </trkpt>
      <trkpt lat="37.308712005615234" lon="-8.58961402438581">
        <ele>669.70000000000005</ele>
        <time>2025-05-07T09:14:53Z</time>
      </trkpt>
      <trkpt lat="37.308712005615234" lon="-8.589803958311677">
        <ele>676.41999999999996</ele>
        <time>2025-05-07T09:15:00Z</time>
      </trkpt>
      <trkpt lat="37.308673029765487" lon="-8.589824996888638">
        <ele>679.30999999999995</ele>
        <time>2025-05-07T09:15:42Z</time>
      </trkpt>
      <trkpt lat="37.308712005615234" lon="-8.590048039332032">
        <ele>678.35000000000002</ele>
        <time>2025-05-07T09:15:47Z</time>
      </trkpt>
      <trkpt lat="37.308712005615234" lon="-8.590176030993462">
        <ele>678.83000000000004</ele>
        <time>2025-05-07T09:15:48Z</time>
      </trkpt>
      <trkpt lat="37.308712005615234" lon="-8.590428996831179">
        <ele>678.83000000000004</ele>
        <time>2025-05-07T09:15:49Z</time>
      </trkpt>
      <trkpt lat="37.308772020041943" lon="-8.591429963707924">
        <ele>682.66999999999996</ele>
        <time>2025-05-07T09:15:57Z</time>
      </trkpt>
      <trkpt lat="37.308886013925076" lon="-8.592066988348961">
        <ele>686.03999999999996</ele>
        <time>2025-05-07T09:16:02Z</time>
      </trkpt>
      <trkpt lat="37.308929013088346" lon="-8.5921910405159">
        <ele>686.51999999999998</ele>
        <time>2025-05-07T09:16:03Z</time>
      </trkpt>
      <trkpt lat="37.30898299254477" lon="-8.592291958630085">
        <ele>687</ele>
        <time>2025-05-07T09:16:04Z</time>
      </trkpt>
      <trkpt lat="37.309120036661625" lon="-8.592552971094847">
        <ele>688.91999999999996</ele>
        <time>2025-05-07T09:16:07Z</time>
      </trkpt>
      <trkpt lat="37.309120036661625" lon="-8.592650033533573">
        <ele>689.39999999999998</ele>
        <time>2025-05-07T09:16:08Z</time>
      </trkpt>
      <trkpt lat="37.309114001691341" lon="-8.592760004103184">
        <ele>690.36000000000001</ele>
        <time>2025-05-07T09:16:09Z</time>
      </trkpt>
      <trkpt lat="37.30906899087131" lon="-8.592866035178304">
        <ele>691.33000000000004</ele>
        <time>2025-05-07T09:16:10Z</time>
      </trkpt>
      <trkpt lat="37.309005036950111" lon="-8.59296795912087">
        <ele>692.28999999999996</ele>
        <time>2025-05-07T09:16:11Z</time>
      </trkpt>
      <trkpt lat="37.308922978118062" lon="-8.593072984367609">
        <ele>693.25</ele>
        <time>2025-05-07T09:16:12Z</time>
      </trkpt>
      <trkpt lat="37.308818958699703" lon="-8.593170968815684">
        <ele>694.21000000000004</ele>
        <time>2025-05-07T09:16:13Z</time>
      </trkpt>
      <trkpt lat="37.308708988130093" lon="-8.593271970748901">
        <ele>695.16999999999996</ele>
        <time>2025-05-07T09:16:14Z</time>
      </trkpt>
      <trkpt lat="37.307725958526134" lon="-8.594056013971567">
        <ele>702.86000000000001</ele>
        <time>2025-05-07T09:16:22Z</time>
      </trkpt>
      <trkpt lat="37.307081976905465" lon="-8.594549037516117">
        <ele>707.19000000000005</ele>
        <time>2025-05-07T09:16:28Z</time>
      </trkpt>
      <trkpt lat="37.306996984407306" lon="-8.594689015299082">
        <ele>707.66999999999996</ele>
        <time>2025-05-07T09:16:29Z</time>
      </trkpt>
      <trkpt lat="37.306917021051049" lon="-8.594819018617272">
        <ele>708.14999999999998</ele>
        <time>2025-05-07T09:16:30Z</time>
      </trkpt>
      <trkpt lat="37.306766984984279" lon="-8.595082964748144">
        <ele>709.59000000000003</ele>
        <time>2025-05-07T09:16:32Z</time>
      </trkpt>
      <trkpt lat="37.306514019146562" lon="-8.595981001853943">
        <ele>711.99000000000001</ele>
        <time>2025-05-07T09:16:38Z</time>
      </trkpt>
      <trkpt lat="37.306509995833039" lon="-8.59610497020185">
        <ele>711.99000000000001</ele>
        <time>2025-05-07T09:16:39Z</time>
      </trkpt>
      <trkpt lat="37.306544026359916" lon="-8.596252994611859">
        <ele>711.99000000000001</ele>
        <time>2025-05-07T09:16:40Z</time>
      </trkpt>
      <trkpt lat="37.306586019694805" lon="-8.596404958516359">
        <ele>711.99000000000001</ele>
        <time>2025-05-07T09:16:41Z</time>
      </trkpt>
      <trkpt lat="37.30663999915123" lon="-8.596558012068272">
        <ele>712.47000000000003</ele>
        <time>2025-05-07T09:16:42Z</time>
      </trkpt>
      <trkpt lat="37.306902017444372" lon="-8.597294026985765">
        <ele>713.91999999999996</ele>
        <time>2025-05-07T09:16:47Z</time>
      </trkpt>
      <trkpt lat="37.306978041306138" lon="-8.597431993111968">
        <ele>714.39999999999998</ele>
        <time>2025-05-07T09:16:48Z</time>
      </trkpt>
      <trkpt lat="37.307598972693086" lon="-8.598406976088882">
        <ele>718.72000000000003</ele>
        <time>2025-05-07T09:16:56Z</time>
      </trkpt>
      <trkpt lat="37.307697040960193" lon="-8.598503032699227">
        <ele>719.20000000000005</ele>
        <time>2025-05-07T09:16:57Z</time>
      </trkpt>
      <trkpt lat="37.307794019579887" lon="-8.598589031025767">
        <ele>719.67999999999995</ele>
        <time>2025-05-07T09:16:58Z</time>
      </trkpt>
      <trkpt lat="37.308217976242304" lon="-8.598829004913569">
        <ele>722.09000000000003</ele>
        <time>2025-05-07T09:17:02Z</time>
      </trkpt>
      <trkpt lat="37.308654002845287" lon="-8.59909001737833">
        <ele>725.45000000000005</ele>
        <time>2025-05-07T09:17:06Z</time>
      </trkpt>
      <trkpt lat="37.308759028092027" lon="-8.599157994613051">
        <ele>726.40999999999997</ele>
        <time>2025-05-07T09:17:07Z</time>
      </trkpt>
      <trkpt lat="37.308825999498367" lon="-8.599253967404366">
        <ele>726.88999999999999</ele>
        <time>2025-05-07T09:17:08Z</time>
      </trkpt>
      <trkpt lat="37.308884002268314" lon="-8.599397968500853">
        <ele>727.86000000000001</ele>
        <time>2025-05-07T09:17:09Z</time>
      </trkpt>
      <trkpt lat="37.308905962854624" lon="-8.599548004567623">
        <ele>728.82000000000005</ele>
        <time>2025-05-07T09:17:10Z</time>
      </trkpt>
      <trkpt lat="37.308886013925076" lon="-8.599673984572291">
        <ele>730.25999999999999</ele>
        <time>2025-05-07T09:17:11Z</time>
      </trkpt>
      <trkpt lat="37.308861035853624" lon="-8.599830977618694">
        <ele>731.22000000000003</ele>
        <time>2025-05-07T09:17:12Z</time>
      </trkpt>
      <trkpt lat="37.308835973963141" lon="-8.599995011463761">
        <ele>732.17999999999995</ele>
        <time>2025-05-07T09:17:13Z</time>
      </trkpt>
      <trkpt lat="37.308807978406549" lon="-8.600172959268093">
        <ele>732.65999999999997</ele>
        <time>2025-05-07T09:17:14Z</time>
      </trkpt>
      <trkpt lat="37.30879096314311" lon="-8.60035602003336">
        <ele>733.62</ele>
        <time>2025-05-07T09:17:15Z</time>
      </trkpt>
      <trkpt lat="37.308755004778504" lon="-8.600943004712462">
        <ele>736.02999999999997</ele>
        <time>2025-05-07T09:17:18Z</time>
      </trkpt>
      <trkpt lat="37.308718962594867" lon="-8.601093962788582">
        <ele>736.99000000000001</ele>
        <time>2025-05-07T09:17:19Z</time>
      </trkpt>
      <trkpt lat="37.308678980916739" lon="-8.601262019947171">
        <ele>737.95000000000005</ele>
        <time>2025-05-07T09:17:20Z</time>
      </trkpt>
      <trkpt lat="37.308632964268327" lon="-8.601423036307097">
        <ele>738.42999999999995</ele>
        <time>2025-05-07T09:17:21Z</time>
      </trkpt>
      <trkpt lat="37.308559035882354" lon="-8.601571982726455">
        <ele>739.38999999999999</ele>
        <time>2025-05-07T09:17:22Z</time>
      </trkpt>
      <trkpt lat="37.30848703533411" lon="-8.601714977994561">
        <ele>740.35000000000002</ele>
        <time>2025-05-07T09:17:23Z</time>
      </trkpt>
      <trkpt lat="37.30842299759388" lon="-8.601843975484371">
        <ele>741.30999999999995</ele>
        <time>2025-05-07T09:17:24Z</time>
      </trkpt>
      <trkpt lat="37.308390978723764" lon="-8.601969033479691">
        <ele>742.27999999999997</ele>
        <time>2025-05-07T09:17:25Z</time>
      </trkpt>
      <trkpt lat="37.308390978723764" lon="-8.602106999605894">
        <ele>742.75999999999999</ele>
        <time>2025-05-07T09:17:26Z</time>
      </trkpt>
      <trkpt lat="37.308390978723764" lon="-8.602992966771126">
        <ele>748.03999999999996</ele>
        <time>2025-05-07T09:17:32Z</time>
      </trkpt>
      <trkpt lat="37.308383015915751" lon="-8.603130010887981">
        <ele>748.51999999999998</ele>
        <time>2025-05-07T09:17:33Z</time>
      </trkpt>
      <trkpt lat="37.308334987610579" lon="-8.603260014206171">
        <ele>749.49000000000001</ele>
        <time>2025-05-07T09:17:34Z</time>
      </trkpt>
      <trkpt lat="37.308286959305406" lon="-8.603389011695981">
        <ele>749.97000000000003</ele>
        <time>2025-05-07T09:17:35Z</time>
      </trkpt>
      <trkpt lat="37.308242032304406" lon="-8.603509040549398">
        <ele>750.92999999999995</ele>
        <time>2025-05-07T09:17:36Z</time>
      </trkpt>
      <trkpt lat="37.307817991822958" lon="-8.604643028229475">
        <ele>756.21000000000004</ele>
        <time>2025-05-07T09:17:45Z</time>
      </trkpt>
      <trkpt lat="37.307768035680056" lon="-8.60478401184082">
        <ele>757.17999999999995</ele>
        <time>2025-05-07T09:17:46Z</time>
      </trkpt>
      <trkpt lat="37.30773601680994" lon="-8.604812007397413">
        <ele>757.65999999999997</ele>
        <time>2025-05-07T09:17:47Z</time>
      </trkpt>
      <trkpt lat="37.307573994621634" lon="-8.604949973523617">
        <ele>761.5</ele>
        <time>2025-05-07T09:17:52Z</time>
      </trkpt>
      <trkpt lat="37.307557985186577" lon="-8.604963971301913">
        <ele>761.98000000000002</ele>
        <time>2025-05-07T09:17:53Z</time>
      </trkpt>
      <trkpt lat="37.307548010721803" lon="-8.604973023757339">
        <ele>762.46000000000004</ele>
        <time>2025-05-07T09:17:54Z</time>
      </trkpt>
      <trkpt lat="37.307548010721803" lon="-8.604973023757339">
        <ele>764.38999999999999</ele>
        <time>2025-05-07T09:18:07Z</time>
      </trkpt>
      <trkpt lat="37.307548010721803" lon="-8.604973023757339">
        <ele>764.87</ele>
        <time>2025-05-07T09:18:28Z</time>
      </trkpt>
      <trkpt lat="37.307548010721803" lon="-8.604973023757339">
        <ele>765.83000000000004</ele>
        <time>2025-05-07T09:19:00Z</time>
      </trkpt>
      <trkpt lat="37.307548010721803" lon="-8.604973023757339">
        <ele>766.78999999999996</ele>
        <time>2025-05-07T09:19:44Z</time>
      </trkpt>
      <trkpt lat="37.307548010721803" lon="-8.604973023757339">
        <ele>767.75</ele>
        <time>2025-05-07T09:20:19Z</time>
      </trkpt>
      <trkpt lat="37.307467963546515" lon="-8.60504200682044">
        <ele>768.23000000000002</ele>
        <time>2025-05-07T09:20:20Z</time>
      </trkpt>
      <trkpt lat="37.307566031813622" lon="-8.604958020150662">
        <ele>768.71000000000004</ele>
        <time>2025-05-07T09:20:21Z</time>
      </trkpt>
      <trkpt lat="37.30758598074317" lon="-8.604941004887223">
        <ele>769.19000000000005</ele>
        <time>2025-05-07T09:20:22Z</time>
      </trkpt>
      <trkpt lat="37.307610958814621" lon="-8.604918960481882">
        <ele>769.19000000000005</ele>
        <time>2025-05-07T09:20:23Z</time>
      </trkpt>
      <trkpt lat="37.307636020705104" lon="-8.604896999895573">
        <ele>769.19000000000005</ele>
        <time>2025-05-07T09:20:24Z</time>
      </trkpt>
      <trkpt lat="37.307660998776555" lon="-8.604875961318612">
        <ele>769.19000000000005</ele>
        <time>2025-05-07T09:20:25Z</time>
      </trkpt>
      <trkpt lat="37.307745991274714" lon="-8.60480303876102">
        <ele>769.19000000000005</ele>
        <time>2025-05-07T09:20:28Z</time>
      </trkpt>
      <trkpt lat="37.307783961296082" lon="-8.60474000684917">
        <ele>769.19000000000005</ele>
        <time>2025-05-07T09:20:29Z</time>
      </trkpt>
      <trkpt lat="37.307812040671706" lon="-8.604660965502262">
        <ele>768.71000000000004</ele>
        <time>2025-05-07T09:20:30Z</time>
      </trkpt>
      <trkpt lat="37.307842969894409" lon="-8.604572033509612">
        <ele>768.23000000000002</ele>
        <time>2025-05-07T09:20:31Z</time>
      </trkpt>
      <trkpt lat="37.307880017906427" lon="-8.604468014091253">
        <ele>767.75</ele>
        <time>2025-05-07T09:20:32Z</time>
      </trkpt>
      <trkpt lat="37.308267010375857" lon="-8.603441985324025">
        <ele>763.41999999999996</ele>
        <time>2025-05-07T09:20:39Z</time>
      </trkpt>
      <trkpt lat="37.308390978723764" lon="-8.60310897231102">
        <ele>761.98000000000002</ele>
        <time>2025-05-07T09:20:41Z</time>
      </trkpt>
      <trkpt lat="37.308390978723764" lon="-8.602934964001179">
        <ele>761.5</ele>
        <time>2025-05-07T09:20:42Z</time>
      </trkpt>
      <trkpt lat="37.308390978723764" lon="-8.602760033681989">
        <ele>760.53999999999996</ele>
        <time>2025-05-07T09:20:43Z</time>
      </trkpt>
      <trkpt lat="37.308390978723764" lon="-8.60207699239254">
        <ele>758.62</ele>
        <time>2025-05-07T09:20:47Z</time>
      </trkpt>
      <trkpt lat="37.308390978723764" lon="-8.601922011002898">
        <ele>758.62</ele>
        <time>2025-05-07T09:20:48Z</time>
      </trkpt>
      <trkpt lat="37.308439007028937" lon="-8.601811034604907">
        <ele>758.13999999999999</ele>
        <time>2025-05-07T09:20:49Z</time>
      </trkpt>
      <trkpt lat="37.308502038940787" lon="-8.601685976609588">
        <ele>757.17999999999995</ele>
        <time>2025-05-07T09:20:50Z</time>
      </trkpt>
      <trkpt lat="37.308566998690367" lon="-8.601555973291397">
        <ele>756.69000000000005</ele>
        <time>2025-05-07T09:20:51Z</time>
      </trkpt>
      <trkpt lat="37.308634975925088" lon="-8.601419012993574">
        <ele>755.73000000000002</ele>
        <time>2025-05-07T09:20:52Z</time>
      </trkpt>
      <trkpt lat="37.3086809925735" lon="-8.601256990805268">
        <ele>755.25</ele>
        <time>2025-05-07T09:20:53Z</time>
      </trkpt>
      <trkpt lat="37.308757016435266" lon="-8.600922971963882">
        <ele>753.80999999999995</ele>
        <time>2025-05-07T09:20:55Z</time>
      </trkpt>
      <trkpt lat="37.30876699090004" lon="-8.600747035816312">
        <ele>753.33000000000004</ele>
        <time>2025-05-07T09:20:56Z</time>
      </trkpt>
      <trkpt lat="37.308888025581837" lon="-8.599427975714207">
        <ele>746.12</ele>
        <time>2025-05-07T09:21:03Z</time>
      </trkpt>
      <trkpt lat="37.308839997276664" lon="-8.599286992102861">
        <ele>745.15999999999997</ele>
        <time>2025-05-07T09:21:04Z</time>
      </trkpt>
      <trkpt lat="37.308777971193194" lon="-8.599169980734587">
        <ele>743.72000000000003</ele>
        <time>2025-05-07T09:21:05Z</time>
      </trkpt>
      <trkpt lat="37.308663977310061" lon="-8.599096974357963">
        <ele>742.27999999999997</ele>
        <time>2025-05-07T09:21:06Z</time>
      </trkpt>
      <trkpt lat="37.308539003133774" lon="-8.599016005173326">
        <ele>741.30999999999995</ele>
        <time>2025-05-07T09:21:07Z</time>
      </trkpt>
      <trkpt lat="37.308408999815583" lon="-8.598934030160308">
        <ele>739.87</ele>
        <time>2025-05-07T09:21:08Z</time>
      </trkpt>
      <trkpt lat="37.308130972087383" lon="-8.598780976608396">
        <ele>736.99000000000001</ele>
        <time>2025-05-07T09:21:10Z</time>
      </trkpt>
      <trkpt lat="37.307617999613285" lon="-8.598432959988713">
        <ele>732.17999999999995</ele>
        <time>2025-05-07T09:21:14Z</time>
      </trkpt>
      <trkpt lat="37.307510962709785" lon="-8.598287031054497">
        <ele>731.70000000000005</ele>
        <time>2025-05-07T09:21:15Z</time>
      </trkpt>
      <trkpt lat="37.307407027110457" lon="-8.598145041614771">
        <ele>730.74000000000001</ele>
        <time>2025-05-07T09:21:16Z</time>
      </trkpt>
      <trkpt lat="37.307307031005621" lon="-8.597985031083226">
        <ele>729.77999999999997</ele>
        <time>2025-05-07T09:21:17Z</time>
      </trkpt>
      <trkpt lat="37.307204017415643" lon="-8.597811022773385">
        <ele>728.82000000000005</ele>
        <time>2025-05-07T09:21:18Z</time>
      </trkpt>
      <trkpt lat="37.30689799413085" lon="-8.597282040864229">
        <ele>725.92999999999995</ele>
        <time>2025-05-07T09:21:21Z</time>
      </trkpt>
      <trkpt lat="37.306513013318181" lon="-8.596119973808527">
        <ele>719.20000000000005</ele>
        <time>2025-05-07T09:21:27Z</time>
      </trkpt>
      <trkpt lat="37.306537991389632" lon="-8.595789978280664">
        <ele>717.27999999999997</ele>
        <time>2025-05-07T09:21:29Z</time>
      </trkpt>
      <trkpt lat="37.306819958612323" lon="-8.594978023320437">
        <ele>712.47000000000003</ele>
        <time>2025-05-07T09:21:34Z</time>
      </trkpt>
      <trkpt lat="37.307081976905465" lon="-8.594549037516117">
        <ele>709.11000000000001</ele>
        <time>2025-05-07T09:21:37Z</time>
      </trkpt>
      <trkpt lat="37.307192031294107" lon="-8.59444702975452">
        <ele>708.14999999999998</ele>
        <time>2025-05-07T09:21:38Z</time>
      </trkpt>
      <trkpt lat="37.307310970500112" lon="-8.594335969537497">
        <ele>707.19000000000005</ele>
        <time>2025-05-07T09:21:39Z</time>
      </trkpt>
      <trkpt lat="37.308611003682017" lon="-8.593361992388964">
        <ele>697.57000000000005</ele>
        <time>2025-05-07T09:21:48Z</time>
      </trkpt>
      <trkpt lat="37.308870004490018" lon="-8.593124030157924">
        <ele>695.16999999999996</ele>
        <time>2025-05-07T09:21:50Z</time>
      </trkpt>
      <trkpt lat="37.30898198671639" lon="-8.592999977990985">
        <ele>694.21000000000004</ele>
        <time>2025-05-07T09:21:51Z</time>
      </trkpt>
      <trkpt lat="37.309072008356452" lon="-8.59286000020802">
        <ele>693.25</ele>
        <time>2025-05-07T09:21:52Z</time>
      </trkpt>
      <trkpt lat="37.309120036661625" lon="-8.592704012989998">
        <ele>692.28999999999996</ele>
        <time>2025-05-07T09:21:53Z</time>
      </trkpt>
      <trkpt lat="37.309120036661625" lon="-8.592566968873143">
        <ele>691.33000000000004</ele>
        <time>2025-05-07T09:21:54Z</time>
      </trkpt>
      <trkpt lat="37.309063961729407" lon="-8.592447023838759">
        <ele>690.84000000000003</ele>
        <time>2025-05-07T09:21:55Z</time>
      </trkpt>
      <trkpt lat="37.309005036950111" lon="-8.592334035784006">
        <ele>689.88</ele>
        <time>2025-05-07T09:21:56Z</time>
      </trkpt>
      <trkpt lat="37.308940999209881" lon="-8.592213001102209">
        <ele>688.91999999999996</ele>
        <time>2025-05-07T09:21:57Z</time>
      </trkpt>
      <trkpt lat="37.308889031410217" lon="-8.592079980298877">
        <ele>687.96000000000004</ele>
        <time>2025-05-07T09:21:58Z</time>
      </trkpt>
      <trkpt lat="37.308851983398199" lon="-8.591931033879519">
        <ele>687</ele>
        <time>2025-05-07T09:21:59Z</time>
      </trkpt>
      <trkpt lat="37.308712005615234" lon="-8.590579032897949">
        <ele>680.75</ele>
        <time>2025-05-07T09:22:06Z</time>
      </trkpt>
      <trkpt lat="37.308712005615234" lon="-8.589770011603832">
        <ele>676.90999999999997</ele>
        <time>2025-05-07T09:22:10Z</time>
      </trkpt>
      <trkpt lat="37.308714017271996" lon="-8.589611006900668">
        <ele>675.46000000000004</ele>
        <time>2025-05-07T09:22:11Z</time>
      </trkpt>
      <trkpt lat="37.308785011991858" lon="-8.589469017460942">
        <ele>674.5</ele>
        <time>2025-05-07T09:22:12Z</time>
      </trkpt>
      <trkpt lat="37.308864975348115" lon="-8.589312024414539">
        <ele>673.53999999999996</ele>
        <time>2025-05-07T09:22:13Z</time>
      </trkpt>
      <trkpt lat="37.308956002816558" lon="-8.589142961427569">
        <ele>672.10000000000002</ele>
        <time>2025-05-07T09:22:14Z</time>
      </trkpt>
      <trkpt lat="37.309049963951111" lon="-8.588970964774489">
        <ele>671.13999999999999</ele>
        <time>2025-05-07T09:22:15Z</time>
      </trkpt>
      <trkpt lat="37.309137973934412" lon="-8.588798968121409">
        <ele>669.70000000000005</ele>
        <time>2025-05-07T09:22:16Z</time>
      </trkpt>
      <trkpt lat="37.309273006394506" lon="-8.588478025048971">
        <ele>667.28999999999996</ele>
        <time>2025-05-07T09:22:18Z</time>
      </trkpt>
      <trkpt lat="37.309356993064284" lon="-8.588382974267006">
        <ele>666.33000000000004</ele>
        <time>2025-05-07T09:22:19Z</time>
      </trkpt>
      <trkpt lat="37.309465035796165" lon="-8.588299993425608">
        <ele>665.37</ele>
        <time>2025-05-07T09:22:20Z</time>
      </trkpt>
      <trkpt lat="37.309682965278625" lon="-8.588131014257669">
        <ele>663.45000000000005</ele>
        <time>2025-05-07T09:22:22Z</time>
      </trkpt>
      <trkpt lat="37.309772986918688" lon="-8.588037975132465">
        <ele>662.49000000000001</ele>
        <time>2025-05-07T09:22:23Z</time>
      </trkpt>
      <trkpt lat="37.309811962768435" lon="-8.587913000956178">
        <ele>661.51999999999998</ele>
        <time>2025-05-07T09:22:24Z</time>
      </trkpt>
      <trkpt lat="37.309850016608834" lon="-8.587779980152845">
        <ele>660.55999999999995</ele>
        <time>2025-05-07T09:22:25Z</time>
      </trkpt>
      <trkpt lat="37.309850016608834" lon="-8.587622987106443">
        <ele>659.12</ele>
        <time>2025-05-07T09:22:26Z</time>
      </trkpt>
      <trkpt lat="37.309850016608834" lon="-8.587457025423646">
        <ele>658.15999999999997</ele>
        <time>2025-05-07T09:22:27Z</time>
      </trkpt>
      <trkpt lat="37.309850016608834" lon="-8.587289974093437">
        <ele>657.20000000000005</ele>
        <time>2025-05-07T09:22:28Z</time>
      </trkpt>
      <trkpt lat="37.309850016608834" lon="-8.587134992703795">
        <ele>655.75999999999999</ele>
        <time>2025-05-07T09:22:29Z</time>
      </trkpt>
      <trkpt lat="37.309825038537383" lon="-8.587011024355888">
        <ele>654.79999999999995</ele>
        <time>2025-05-07T09:22:30Z</time>
      </trkpt>
      <trkpt lat="37.309764018282294" lon="-8.58688797801733">
        <ele>653.83000000000004</ele>
        <time>2025-05-07T09:22:31Z</time>
      </trkpt>
      <trkpt lat="37.309679025784135" lon="-8.586811032146215">
        <ele>652.87</ele>
        <time>2025-05-07T09:22:32Z</time>
      </trkpt>
      <trkpt lat="37.309579029679298" lon="-8.586720004677773">
        <ele>652.38999999999999</ele>
        <time>2025-05-07T09:22:33Z</time>
      </trkpt>
      <trkpt lat="37.309471992775798" lon="-8.586622020229697">
        <ele>651.42999999999995</ele>
        <time>2025-05-07T09:22:34Z</time>
      </trkpt>
      <trkpt lat="37.309355987235904" lon="-8.586515989154577">
        <ele>650.47000000000003</ele>
        <time>2025-05-07T09:22:35Z</time>
      </trkpt>
      <trkpt lat="37.30924098752439" lon="-8.586396966129541">
        <ele>649.50999999999999</ele>
        <time>2025-05-07T09:22:36Z</time>
      </trkpt>
      <trkpt lat="37.309140991419554" lon="-8.586253970861435">
        <ele>648.54999999999995</ele>
        <time>2025-05-07T09:22:37Z</time>
      </trkpt>
      <trkpt lat="37.309043006971478" lon="-8.586116004735231">
        <ele>648.07000000000005</ele>
        <time>2025-05-07T09:22:38Z</time>
      </trkpt>
      <trkpt lat="37.308962037786841" lon="-8.585963035002351">
        <ele>647.10000000000002</ele>
        <time>2025-05-07T09:22:39Z</time>
      </trkpt>
      <trkpt lat="37.308884002268314" lon="-8.585793972015381">
        <ele>646.13999999999999</ele>
        <time>2025-05-07T09:22:40Z</time>
      </trkpt>
      <trkpt lat="37.308833040297031" lon="-8.585651982575655">
        <ele>645.65999999999997</ele>
        <time>2025-05-07T09:22:41Z</time>
      </trkpt>
      <trkpt lat="37.30876799672842" lon="-8.585528014227748">
        <ele>644.70000000000005</ele>
        <time>2025-05-07T09:22:42Z</time>
      </trkpt>
      <trkpt lat="37.308677975088358" lon="-8.585436986759305">
        <ele>643.74000000000001</ele>
        <time>2025-05-07T09:22:43Z</time>
      </trkpt>
      <trkpt lat="37.308562975376844" lon="-8.585414020344615">
        <ele>642.77999999999997</ele>
        <time>2025-05-07T09:22:44Z</time>
      </trkpt>
      <trkpt lat="37.308432972058654" lon="-8.585394993424416">
        <ele>641.82000000000005</ele>
        <time>2025-05-07T09:22:45Z</time>
      </trkpt>
      <trkpt lat="37.307713972404599" lon="-8.585265995934606">
        <ele>636.52999999999997</ele>
        <time>2025-05-07T09:22:50Z</time>
      </trkpt>
      <trkpt lat="37.307583969086409" lon="-8.585205981507897">
        <ele>635.57000000000005</ele>
        <time>2025-05-07T09:22:51Z</time>
      </trkpt>
      <trkpt lat="37.307476010173559" lon="-8.58512400649488">
        <ele>634.13</ele>
        <time>2025-05-07T09:22:52Z</time>
      </trkpt>
      <trkpt lat="37.307399986311793" lon="-8.58501898124814">
        <ele>633.16999999999996</ele>
        <time>2025-05-07T09:22:53Z</time>
      </trkpt>
      <trkpt lat="37.307332009077072" lon="-8.584917979314923">
        <ele>632.20000000000005</ele>
        <time>2025-05-07T09:22:54Z</time>
      </trkpt>
      <trkpt lat="37.30728599242866" lon="-8.58480297960341">
        <ele>631.24000000000001</ele>
        <time>2025-05-07T09:22:55Z</time>
      </trkpt>
      <trkpt lat="37.307250034064054" lon="-8.584680017083883">
        <ele>630.27999999999997</ele>
        <time>2025-05-07T09:22:56Z</time>
      </trkpt>
      <trkpt lat="37.307238969951868" lon="-8.584540961310267">
        <ele>629.79999999999995</ele>
        <time>2025-05-07T09:22:57Z</time>
      </trkpt>
      <trkpt lat="37.307236958295107" lon="-8.584382962435484">
        <ele>628.84000000000003</ele>
        <time>2025-05-07T09:22:58Z</time>
      </trkpt>
      <trkpt lat="37.307251039892435" lon="-8.584213983267546">
        <ele>628.36000000000001</ele>
        <time>2025-05-07T09:22:59Z</time>
      </trkpt>
      <trkpt lat="37.30726595968008" lon="-8.584033017978072">
        <ele>627.39999999999998</ele>
        <time>2025-05-07T09:23:00Z</time>
      </trkpt>
      <trkpt lat="37.307269982993603" lon="-8.58383797109127">
        <ele>626.44000000000005</ele>
        <time>2025-05-07T09:23:01Z</time>
      </trkpt>
      <trkpt lat="37.307169986888766" lon="-8.582444982603192">
        <ele>618.25999999999999</ele>
        <time>2025-05-07T09:23:08Z</time>
      </trkpt>
      <trkpt lat="37.307189013808966" lon="-8.582296036183834">
        <ele>617.29999999999995</ele>
        <time>2025-05-07T09:23:09Z</time>
      </trkpt>
      <trkpt lat="37.307231007143855" lon="-8.582154968753457">
        <ele>615.86000000000001</ele>
        <time>2025-05-07T09:23:10Z</time>
      </trkpt>
      <trkpt lat="37.30730895884335" lon="-8.582023959606886">
        <ele>614.89999999999998</ele>
        <time>2025-05-07T09:23:11Z</time>
      </trkpt>
      <trkpt lat="37.307399986311793" lon="-8.581892028450966">
        <ele>613.94000000000005</ele>
        <time>2025-05-07T09:23:12Z</time>
      </trkpt>
      <trkpt lat="37.307602996006608" lon="-8.581617018207908">
        <ele>611.53999999999996</ele>
        <time>2025-05-07T09:23:14Z</time>
      </trkpt>
      <trkpt lat="37.307717995718122" lon="-8.581489026546478">
        <ele>610.57000000000005</ele>
        <time>2025-05-07T09:23:15Z</time>
      </trkpt>
      <trkpt lat="37.308339010924101" lon="-8.580830041319132">
        <ele>606.73000000000002</ele>
        <time>2025-05-07T09:23:20Z</time>
      </trkpt>
      <trkpt lat="37.308614021167159" lon="-8.580322014167905">
        <ele>603.36000000000001</ele>
        <time>2025-05-07T09:23:23Z</time>
      </trkpt>
      <trkpt lat="37.308678980916739" lon="-8.580158986151218">
        <ele>602.39999999999998</ele>
        <time>2025-05-07T09:23:24Z</time>
      </trkpt>
      <trkpt lat="37.308686021715403" lon="-8.579980032518506">
        <ele>601.44000000000005</ele>
        <time>2025-05-07T09:23:25Z</time>
      </trkpt>
      <trkpt lat="37.308678980916739" lon="-8.57979697175324">
        <ele>600.48000000000002</ele>
        <time>2025-05-07T09:23:26Z</time>
      </trkpt>
      <trkpt lat="37.308672023937106" lon="-8.579601002857089">
        <ele>599.51999999999998</ele>
        <time>2025-05-07T09:23:27Z</time>
      </trkpt>
      <trkpt lat="37.308630030602217" lon="-8.579398998990655">
        <ele>598.08000000000004</ele>
        <time>2025-05-07T09:23:28Z</time>
      </trkpt>
      <trkpt lat="37.308570016175508" lon="-8.579199006780982">
        <ele>597.12</ele>
        <time>2025-05-07T09:23:29Z</time>
      </trkpt>
      <trkpt lat="37.3085100017488" lon="-8.57900102622807">
        <ele>596.14999999999998</ele>
        <time>2025-05-07T09:23:30Z</time>
      </trkpt>
      <trkpt lat="37.308398019522429" lon="-8.578629959374666">
        <ele>595.19000000000005</ele>
        <time>2025-05-07T09:23:32Z</time>
      </trkpt>
      <trkpt lat="37.308378992602229" lon="-8.578447988256812">
        <ele>594.23000000000002</ele>
        <time>2025-05-07T09:23:33Z</time>
      </trkpt>
      <trkpt lat="37.308382010087371" lon="-8.578267022967339">
        <ele>593.26999999999998</ele>
        <time>2025-05-07T09:23:34Z</time>
      </trkpt>
      <trkpt lat="37.30842299759388" lon="-8.578081028535962">
        <ele>592.30999999999995</ele>
        <time>2025-05-07T09:23:35Z</time>
      </trkpt>
      <trkpt lat="37.308464990928769" lon="-8.577890004962683">
        <ele>591.83000000000004</ele>
        <time>2025-05-07T09:23:36Z</time>
      </trkpt>
      <trkpt lat="37.308507990092039" lon="-8.577692024409771">
        <ele>590.87</ele>
        <time>2025-05-07T09:23:37Z</time>
      </trkpt>
      <trkpt lat="37.308587031438947" lon="-8.577505024150014">
        <ele>590.38999999999999</ele>
        <time>2025-05-07T09:23:38Z</time>
      </trkpt>
      <trkpt lat="37.308671018108726" lon="-8.577337972819805">
        <ele>589.42999999999995</ele>
        <time>2025-05-07T09:23:39Z</time>
      </trkpt>
      <trkpt lat="37.308778977021575" lon="-8.577203024178743">
        <ele>588.95000000000005</ele>
        <time>2025-05-07T09:23:40Z</time>
      </trkpt>
      <trkpt lat="37.30923998169601" lon="-8.576688040047884">
        <ele>586.05999999999995</ele>
        <time>2025-05-07T09:23:44Z</time>
      </trkpt>
      <trkpt lat="37.309297984465957" lon="-8.576571028679609">
        <ele>585.58000000000004</ele>
        <time>2025-05-07T09:23:45Z</time>
      </trkpt>
      <trkpt lat="37.309332014992833" lon="-8.57644597068429">
        <ele>584.62</ele>
        <time>2025-05-07T09:23:46Z</time>
      </trkpt>
      <trkpt lat="37.309305025264621" lon="-8.576324013993144">
        <ele>584.13999999999999</ele>
        <time>2025-05-07T09:23:47Z</time>
      </trkpt>
      <trkpt lat="37.309248028323054" lon="-8.576214965432882">
        <ele>583.17999999999995</ele>
        <time>2025-05-07T09:23:48Z</time>
      </trkpt>
      <trkpt lat="37.309168986976147" lon="-8.57612201012671">
        <ele>582.70000000000005</ele>
        <time>2025-05-07T09:23:49Z</time>
      </trkpt>
      <trkpt lat="37.309085000306368" lon="-8.576023019850254">
        <ele>581.73000000000002</ele>
        <time>2025-05-07T09:23:50Z</time>
      </trkpt>
      <trkpt lat="37.309023980051279" lon="-8.575899973511696">
        <ele>581.25</ele>
        <time>2025-05-07T09:23:51Z</time>
      </trkpt>
      <trkpt lat="37.308970000594854" lon="-8.575752032920718">
        <ele>580.76999999999998</ele>
        <time>2025-05-07T09:23:52Z</time>
      </trkpt>
      <trkpt lat="37.308956002816558" lon="-8.575579030439258">
        <ele>580.28999999999996</ele>
        <time>2025-05-07T09:23:53Z</time>
      </trkpt>
      <trkpt lat="37.308958014473319" lon="-8.575393036007881">
        <ele>579.33000000000004</ele>
        <time>2025-05-07T09:23:54Z</time>
      </trkpt>
      <trkpt lat="37.308977041393518" lon="-8.57519899494946">
        <ele>578.85000000000002</ele>
        <time>2025-05-07T09:23:55Z</time>
      </trkpt>
      <trkpt lat="37.309007970616221" lon="-8.575008977204561">
        <ele>578.37</ele>
        <time>2025-05-07T09:23:56Z</time>
      </trkpt>
      <trkpt lat="37.309079971164465" lon="-8.574856007471681">
        <ele>577.88999999999999</ele>
        <time>2025-05-07T09:23:57Z</time>
      </trkpt>
      <trkpt lat="37.309147026389837" lon="-8.574715023860335">
        <ele>577.40999999999997</ele>
        <time>2025-05-07T09:23:58Z</time>
      </trkpt>
      <trkpt lat="37.309223972260952" lon="-8.574598012492061">
        <ele>576.45000000000005</ele>
        <time>2025-05-07T09:23:59Z</time>
      </trkpt>
      <trkpt lat="37.309331009164453" lon="-8.574496004730463">
        <ele>575.97000000000003</ele>
        <time>2025-05-07T09:24:00Z</time>
      </trkpt>
      <trkpt lat="37.309443997219205" lon="-8.574387039989233">
        <ele>575.49000000000001</ele>
        <time>2025-05-07T09:24:01Z</time>
      </trkpt>
      <trkpt lat="37.309653963893652" lon="-8.574185036122799">
        <ele>573.55999999999995</ele>
        <time>2025-05-07T09:24:03Z</time>
      </trkpt>
      <trkpt lat="37.309721019119024" lon="-8.574120998382568">
        <ele>572.60000000000002</ele>
        <time>2025-05-07T09:24:04Z</time>
      </trkpt>
      <trkpt lat="37.309771981090307" lon="-8.573957970365882">
        <ele>571.63999999999999</ele>
        <time>2025-05-07T09:24:05Z</time>
      </trkpt>
      <trkpt lat="37.309813974425197" lon="-8.57382201589644">
        <ele>570.67999999999995</ele>
        <time>2025-05-07T09:24:06Z</time>
      </trkpt>
      <trkpt lat="37.30983903631568" lon="-8.573677008971572">
        <ele>569.72000000000003</ele>
        <time>2025-05-07T09:24:07Z</time>
      </trkpt>
      <trkpt lat="37.309856973588467" lon="-8.573518004268408">
        <ele>568.75999999999999</ele>
        <time>2025-05-07T09:24:08Z</time>
      </trkpt>
      <trkpt lat="37.309869965538383" lon="-8.572649974375963">
        <ele>563.47000000000003</ele>
        <time>2025-05-07T09:24:13Z</time>
      </trkpt>
      <trkpt lat="37.309888992458582" lon="-8.57189099304378">
        <ele>562.02999999999997</ele>
        <time>2025-05-07T09:24:17Z</time>
      </trkpt>
      <trkpt lat="37.309915982186794" lon="-8.571701981127262">
        <ele>561.54999999999995</ele>
        <time>2025-05-07T09:24:18Z</time>
      </trkpt>
      <trkpt lat="37.310044979676604" lon="-8.570951968431473">
        <ele>559.13999999999999</ele>
        <time>2025-05-07T09:24:22Z</time>
      </trkpt>
      <trkpt lat="37.310081021860242" lon="-8.570466991513968">
        <ele>556.74000000000001</ele>
        <time>2025-05-07T09:24:25Z</time>
      </trkpt>
      <trkpt lat="37.310113962739706" lon="-8.570323996245861">
        <ele>556.25999999999999</ele>
        <time>2025-05-07T09:24:26Z</time>
      </trkpt>
      <trkpt lat="37.31018403545022" lon="-8.570027025416493">
        <ele>554.82000000000005</ele>
        <time>2025-05-07T09:24:28Z</time>
      </trkpt>
      <trkpt lat="37.310431972146034" lon="-8.568589026108384">
        <ele>547.61000000000001</ele>
        <time>2025-05-07T09:24:36Z</time>
      </trkpt>
      <trkpt lat="37.31061696074903" lon="-8.567370967939496">
        <ele>540.88</ele>
        <time>2025-05-07T09:24:42Z</time>
      </trkpt>
      <trkpt lat="37.311021974310279" lon="-8.565643960610032">
        <ele>530.78999999999996</ele>
        <time>2025-05-07T09:24:50Z</time>
      </trkpt>
      <trkpt lat="37.311364961788058" lon="-8.564309980720282">
        <ele>525.98000000000002</ele>
        <time>2025-05-07T09:24:59Z</time>
      </trkpt>
      <trkpt lat="37.311824038624763" lon="-8.562976000830531">
        <ele>525.5</ele>
        <time>2025-05-07T09:25:07Z</time>
      </trkpt>
      <trkpt lat="37.312059989199042" lon="-8.562621027231216">
        <ele>524.05999999999995</ele>
        <time>2025-05-07T09:25:10Z</time>
      </trkpt>
      <trkpt lat="37.31214196421206" lon="-8.562525976449251">
        <ele>523.58000000000004</ele>
        <time>2025-05-07T09:25:11Z</time>
      </trkpt>
      <trkpt lat="37.312219999730587" lon="-8.562444001436234">
        <ele>523.09000000000003</ele>
        <time>2025-05-07T09:25:12Z</time>
      </trkpt>
      <trkpt lat="37.312318990007043" lon="-8.562399996444583">
        <ele>522.13</ele>
        <time>2025-05-07T09:25:13Z</time>
      </trkpt>
      <trkpt lat="37.312420997768641" lon="-8.562354985624552">
        <ele>521.64999999999998</ele>
        <time>2025-05-07T09:25:14Z</time>
      </trkpt>
      <trkpt lat="37.312788963317871" lon="-8.562191035598517">
        <ele>518.76999999999998</ele>
        <time>2025-05-07T09:25:17Z</time>
      </trkpt>
      <trkpt lat="37.312904968857765" lon="-8.562089027836919">
        <ele>517.80999999999995</ele>
        <time>2025-05-07T09:25:18Z</time>
      </trkpt>
      <trkpt lat="37.313661016523838" lon="-8.561370028182864">
        <ele>511.56</ele>
        <time>2025-05-07T09:25:24Z</time>
      </trkpt>
      <trkpt lat="37.313792025670409" lon="-8.56123298406601">
        <ele>510.12</ele>
        <time>2025-05-07T09:25:25Z</time>
      </trkpt>
      <trkpt lat="37.313890010118484" lon="-8.561055958271027">
        <ele>508.67000000000002</ele>
        <time>2025-05-07T09:25:26Z</time>
      </trkpt>
      <trkpt lat="37.313963016495109" lon="-8.56086703017354">
        <ele>507.70999999999998</ele>
        <time>2025-05-07T09:25:27Z</time>
      </trkpt>
      <trkpt lat="37.314038034528494" lon="-8.56067500077188">
        <ele>506.26999999999998</ele>
        <time>2025-05-07T09:25:28Z</time>
      </trkpt>
      <trkpt lat="37.314447993412614" lon="-8.559795990586281">
        <ele>500.01999999999998</ele>
        <time>2025-05-07T09:25:33Z</time>
      </trkpt>
      <trkpt lat="37.314508007839322" lon="-8.559617036953569">
        <ele>498.57999999999998</ele>
        <time>2025-05-07T09:25:34Z</time>
      </trkpt>
      <trkpt lat="37.314548995345831" lon="-8.55943095870316">
        <ele>497.13999999999999</ele>
        <time>2025-05-07T09:25:35Z</time>
      </trkpt>
      <trkpt lat="37.314570033922791" lon="-8.559227026998997">
        <ele>495.69999999999999</ele>
        <time>2025-05-07T09:25:36Z</time>
      </trkpt>
      <trkpt lat="37.314570033922791" lon="-8.559025023132563">
        <ele>494.74000000000001</ele>
        <time>2025-05-07T09:25:37Z</time>
      </trkpt>
      <trkpt lat="37.314635999500751" lon="-8.557702023535967">
        <ele>483.19999999999999</ele>
        <time>2025-05-07T09:25:45Z</time>
      </trkpt>
      <trkpt lat="37.314725015312433" lon="-8.55745199136436">
        <ele>480.80000000000001</ele>
        <time>2025-05-07T09:25:47Z</time>
      </trkpt>
      <trkpt lat="37.314781006425619" lon="-8.557355012744665">
        <ele>479.83999999999997</ele>
        <time>2025-05-07T09:25:48Z</time>
      </trkpt>
      <trkpt lat="37.314856024459004" lon="-8.557259039953351">
        <ele>478.38999999999999</ele>
        <time>2025-05-07T09:25:49Z</time>
      </trkpt>
      <trkpt lat="37.314937999472022" lon="-8.557184021919966">
        <ele>477.43000000000001</ele>
        <time>2025-05-07T09:25:50Z</time>
      </trkpt>
      <trkpt lat="37.315041013062" lon="-8.557117972522974">
        <ele>475.99000000000001</ele>
        <time>2025-05-07T09:25:51Z</time>
      </trkpt>
      <trkpt lat="37.31514603830874" lon="-8.557052006945014">
        <ele>474.55000000000001</ele>
        <time>2025-05-07T09:25:52Z</time>
      </trkpt>
      <trkpt lat="37.315247962251306" lon="-8.556987969204783">
        <ele>473.11000000000001</ele>
        <time>2025-05-07T09:25:53Z</time>
      </trkpt>
      <trkpt lat="37.315350975841284" lon="-8.556926026940346">
        <ele>471.66000000000003</ele>
        <time>2025-05-07T09:25:54Z</time>
      </trkpt>
      <trkpt lat="37.315571000799537" lon="-8.556798035278916">
        <ele>468.30000000000001</ele>
        <time>2025-05-07T09:25:56Z</time>
      </trkpt>
      <trkpt lat="37.315679965540767" lon="-8.556735003367066">
        <ele>466.38</ele>
        <time>2025-05-07T09:25:57Z</time>
      </trkpt>
      <trkpt lat="37.315767975524068" lon="-8.556623021140695">
        <ele>464.93000000000001</ele>
        <time>2025-05-07T09:25:58Z</time>
      </trkpt>
      <trkpt lat="37.315843999385834" lon="-8.556505003944039">
        <ele>463.00999999999999</ele>
        <time>2025-05-07T09:25:59Z</time>
      </trkpt>
      <trkpt lat="37.315919017419219" lon="-8.556384975090623">
        <ele>462.05000000000001</ele>
        <time>2025-05-07T09:26:00Z</time>
      </trkpt>
      <trkpt lat="37.316332999616861" lon="-8.555738981813192">
        <ele>452.92000000000002</ele>
        <time>2025-05-07T09:26:07Z</time>
      </trkpt>
      <trkpt lat="37.31632998213172" lon="-8.555581988766789">
        <ele>452.44</ele>
        <time>2025-05-07T09:26:08Z</time>
      </trkpt>
      <trkpt lat="37.31632998213172" lon="-8.555581988766789">
        <ele>451.48000000000002</ele>
        <time>2025-05-07T09:26:09Z</time>
      </trkpt>
      <trkpt lat="37.316305004060268" lon="-8.555505964905024">
        <ele>451</ele>
        <time>2025-05-07T09:26:10Z</time>
      </trkpt>
      <trkpt lat="37.316253958269954" lon="-8.555436981841922">
        <ele>450.02999999999997</ele>
        <time>2025-05-07T09:26:11Z</time>
      </trkpt>
      <trkpt lat="37.316193021833897" lon="-8.55536699295044">
        <ele>449.06999999999999</ele>
        <time>2025-05-07T09:26:12Z</time>
      </trkpt>
      <trkpt lat="37.316123032942414" lon="-8.555361963808537">
        <ele>448.58999999999997</ele>
        <time>2025-05-07T09:26:13Z</time>
      </trkpt>
      <trkpt lat="37.316042985767126" lon="-8.555356012657285">
        <ele>447.63</ele>
        <time>2025-05-07T09:26:14Z</time>
      </trkpt>
      <trkpt lat="37.315957993268967" lon="-8.555349977687001">
        <ele>446.67000000000002</ele>
        <time>2025-05-07T09:26:15Z</time>
      </trkpt>
      <trkpt lat="37.3159009963274" lon="-8.555346038192511">
        <ele>446.19</ele>
        <time>2025-05-07T09:26:16Z</time>
      </trkpt>
      <trkpt lat="37.315799994394183" lon="-8.555371016263962">
        <ele>445.70999999999998</ele>
        <time>2025-05-07T09:26:17Z</time>
      </trkpt>
      <trkpt lat="37.31572799384594" lon="-8.555389037355781">
        <ele>445.23000000000002</ele>
        <time>2025-05-07T09:26:18Z</time>
      </trkpt>
      <trkpt lat="37.315658004954457" lon="-8.555407980456948">
        <ele>444.26999999999998</ele>
        <time>2025-05-07T09:26:19Z</time>
      </trkpt>
      <trkpt lat="37.31549296528101" lon="-8.555452991276979">
        <ele>443.31</ele>
        <time>2025-05-07T09:26:21Z</time>
      </trkpt>
      <trkpt lat="37.314699031412601" lon="-8.555538989603519">
        <ele>437.06</ele>
        <time>2025-05-07T09:26:28Z</time>
      </trkpt>
      <trkpt lat="37.314584031701088" lon="-8.555585006251931">
        <ele>436.57999999999998</ele>
        <time>2025-05-07T09:26:29Z</time>
      </trkpt>
      <trkpt lat="37.31413995847106" lon="-8.555737975984812">
        <ele>433.69</ele>
        <time>2025-05-07T09:26:34Z</time>
      </trkpt>
      <trkpt lat="37.314043985679746" lon="-8.555759014561772">
        <ele>432.73000000000002</ele>
        <time>2025-05-07T09:26:35Z</time>
      </trkpt>
      <trkpt lat="37.313938960433006" lon="-8.555778041481972">
        <ele>431.76999999999998</ele>
        <time>2025-05-07T09:26:36Z</time>
      </trkpt>
      <trkpt lat="37.313007982447743" lon="-8.555721966549754">
        <ele>420.70999999999998</ele>
        <time>2025-05-07T09:26:44Z</time>
      </trkpt>
      <trkpt lat="37.312794998288155" lon="-8.55566899292171">
        <ele>416.87</ele>
        <time>2025-05-07T09:26:47Z</time>
      </trkpt>
      <trkpt lat="37.312747975811362" lon="-8.555615013465285">
        <ele>415.43000000000001</ele>
        <time>2025-05-07T09:26:48Z</time>
      </trkpt>
      <trkpt lat="37.312652003020048" lon="-8.555494984611869">
        <ele>412.54000000000002</ele>
        <time>2025-05-07T09:26:51Z</time>
      </trkpt>
      <trkpt lat="37.312558041885495" lon="-8.555465983226895">
        <ele>411.57999999999998</ele>
        <time>2025-05-07T09:26:52Z</time>
      </trkpt>
      <trkpt lat="37.312496015802026" lon="-8.555479981005192">
        <ele>411.10000000000002</ele>
        <time>2025-05-07T09:26:53Z</time>
      </trkpt>
      <trkpt lat="37.312372969463468" lon="-8.555503031238914">
        <ele>409.66000000000003</ele>
        <time>2025-05-07T09:26:55Z</time>
      </trkpt>
      <trkpt lat="37.312339022755623" lon="-8.555507976561785">
        <ele>409.18000000000001</ele>
        <time>2025-05-07T09:26:56Z</time>
      </trkpt>
      <trkpt lat="37.312230980023742" lon="-8.555624987930059">
        <ele>405.81</ele>
        <time>2025-05-07T09:27:01Z</time>
      </trkpt>
      <trkpt lat="37.312192004173994" lon="-8.555644014850259">
        <ele>405.81</ele>
        <time>2025-05-07T09:27:02Z</time>
      </trkpt>
      <trkpt lat="37.312140036374331" lon="-8.555597998201847">
        <ele>405.32999999999998</ele>
        <time>2025-05-07T09:27:03Z</time>
      </trkpt>
      <trkpt lat="37.312095025554299" lon="-8.555552987381816">
        <ele>404.85000000000002</ele>
        <time>2025-05-07T09:27:04Z</time>
      </trkpt>
      <trkpt lat="37.312099970877171" lon="-8.555501019582152">
        <ele>404.85000000000002</ele>
        <time>2025-05-07T09:27:05Z</time>
      </trkpt>
      <trkpt lat="37.312130983918905" lon="-8.555438993498683">
        <ele>404.37</ele>
        <time>2025-05-07T09:27:06Z</time>
      </trkpt>
      <trkpt lat="37.312155961990356" lon="-8.555346038192511">
        <ele>404.37</ele>
        <time>2025-05-07T09:27:07Z</time>
      </trkpt>
      <trkpt lat="37.312173983082175" lon="-8.555246964097023">
        <ele>404.37</ele>
        <time>2025-05-07T09:27:08Z</time>
      </trkpt>
      <trkpt lat="37.31244295835495" lon="-8.55405698530376">
        <ele>409.66000000000003</ele>
        <time>2025-05-07T09:27:17Z</time>
      </trkpt>
      <trkpt lat="37.312586959451437" lon="-8.553065992891789">
        <ele>414.94999999999999</ele>
        <time>2025-05-07T09:27:24Z</time>
      </trkpt>
      <trkpt lat="37.312578996643424" lon="-8.55291897431016">
        <ele>415.91000000000003</ele>
        <time>2025-05-07T09:27:25Z</time>
      </trkpt>
      <trkpt lat="37.312477994710207" lon="-8.552507003769279">
        <ele>418.31</ele>
        <time>2025-05-07T09:27:28Z</time>
      </trkpt>
      <trkpt lat="37.312427032738924" lon="-8.552378006279469">
        <ele>418.79000000000002</ele>
        <time>2025-05-07T09:27:29Z</time>
      </trkpt>
      <trkpt lat="37.312052026391029" lon="-8.551464965566993">
        <ele>423.12</ele>
        <time>2025-05-07T09:27:36Z</time>
      </trkpt>
      <trkpt lat="37.311995029449463" lon="-8.551311995834112">
        <ele>423.60000000000002</ele>
        <time>2025-05-07T09:27:37Z</time>
      </trkpt>
      <trkpt lat="37.311983965337276" lon="-8.55117998085916">
        <ele>424.07999999999998</ele>
        <time>2025-05-07T09:27:38Z</time>
      </trkpt>
      <trkpt lat="37.311982959508896" lon="-8.551029022783041">
        <ele>424.56</ele>
        <time>2025-05-07T09:27:39Z</time>
      </trkpt>
      <trkpt lat="37.312025958672166" lon="-8.55089901946485">
        <ele>424.56</ele>
        <time>2025-05-07T09:27:40Z</time>
      </trkpt>
      <trkpt lat="37.312078010290861" lon="-8.550771027803421">
        <ele>424.56</ele>
        <time>2025-05-07T09:27:41Z</time>
      </trkpt>
      <trkpt lat="37.312154034152627" lon="-8.550664996728301">
        <ele>424.56</ele>
        <time>2025-05-07T09:27:42Z</time>
      </trkpt>
      <trkpt lat="37.312243971973658" lon="-8.550581010058522">
        <ele>424.56</ele>
        <time>2025-05-07T09:27:43Z</time>
      </trkpt>
      <trkpt lat="37.312338016927242" lon="-8.550509009510279">
        <ele>425.04000000000002</ele>
        <time>2025-05-07T09:27:44Z</time>
      </trkpt>
      <trkpt lat="37.312445975840092" lon="-8.550463998690248">
        <ele>425.04000000000002</ele>
        <time>2025-05-07T09:27:45Z</time>
      </trkpt>
      <trkpt lat="37.312574973329902" lon="-8.550410019233823">
        <ele>425.51999999999998</ele>
        <time>2025-05-07T09:27:46Z</time>
      </trkpt>
      <trkpt lat="37.312673963606358" lon="-8.550395015627146">
        <ele>425.51999999999998</ele>
        <time>2025-05-07T09:27:47Z</time>
      </trkpt>
      <trkpt lat="37.312789969146252" lon="-8.550375988706946">
        <ele>426</ele>
        <time>2025-05-07T09:27:48Z</time>
      </trkpt>
      <trkpt lat="37.312902035191655" lon="-8.550357967615128">
        <ele>426.48000000000002</ele>
        <time>2025-05-07T09:27:49Z</time>
      </trkpt>
      <trkpt lat="37.31312901712954" lon="-8.550311028957367">
        <ele>426.95999999999998</ele>
        <time>2025-05-07T09:27:51Z</time>
      </trkpt>
      <trkpt lat="37.313326997682452" lon="-8.550158981233835">
        <ele>427.44</ele>
        <time>2025-05-07T09:27:53Z</time>
      </trkpt>
      <trkpt lat="37.313410984352231" lon="-8.550077006220818">
        <ele>427.92000000000002</ele>
        <time>2025-05-07T09:27:54Z</time>
      </trkpt>
      <trkpt lat="37.313480973243713" lon="-8.549967035651207">
        <ele>428.39999999999998</ele>
        <time>2025-05-07T09:27:55Z</time>
      </trkpt>
      <trkpt lat="37.313547022640705" lon="-8.549855975434184">
        <ele>428.88999999999999</ele>
        <time>2025-05-07T09:27:56Z</time>
      </trkpt>
      <trkpt lat="37.313597984611988" lon="-8.549723960459232">
        <ele>429.37</ele>
        <time>2025-05-07T09:27:57Z</time>
      </trkpt>
      <trkpt lat="37.313648024573922" lon="-8.549590017646551">
        <ele>429.85000000000002</ele>
        <time>2025-05-07T09:27:58Z</time>
      </trkpt>
      <trkpt lat="37.313698986545205" lon="-8.549456996843219">
        <ele>429.85000000000002</ele>
        <time>2025-05-07T09:27:59Z</time>
      </trkpt>
      <trkpt lat="37.313720025122166" lon="-8.549310984089971">
        <ele>430.32999999999998</ele>
        <time>2025-05-07T09:28:00Z</time>
      </trkpt>
      <trkpt lat="37.31372999958694" lon="-8.549161031842232">
        <ele>430.32999999999998</ele>
        <time>2025-05-07T09:28:01Z</time>
      </trkpt>
      <trkpt lat="37.313799988478422" lon="-8.547769971191883">
        <ele>432.73000000000002</ele>
        <time>2025-05-07T09:28:08Z</time>
      </trkpt>
      <trkpt lat="37.313866959884763" lon="-8.545827968046069">
        <ele>432.25</ele>
        <time>2025-05-07T09:28:16Z</time>
      </trkpt>
      <trkpt lat="37.313878023996949" lon="-8.545633004978299">
        <ele>432.25</ele>
        <time>2025-05-07T09:28:17Z</time>
      </trkpt>
      <trkpt lat="37.313914988189936" lon="-8.545466037467122">
        <ele>432.25</ele>
        <time>2025-05-07T09:28:18Z</time>
      </trkpt>
      <trkpt lat="37.314000986516476" lon="-8.545342991128564">
        <ele>432.25</ele>
        <time>2025-05-07T09:28:19Z</time>
      </trkpt>
      <trkpt lat="37.314111040905118" lon="-8.545245006680489">
        <ele>431.76999999999998</ele>
        <time>2025-05-07T09:28:20Z</time>
      </trkpt>
      <trkpt lat="37.31422696262598" lon="-8.545201001688838">
        <ele>431.76999999999998</ele>
        <time>2025-05-07T09:28:21Z</time>
      </trkpt>
      <trkpt lat="37.31435596011579" lon="-8.545175017789006">
        <ele>431.29000000000002</ele>
        <time>2025-05-07T09:28:22Z</time>
      </trkpt>
      <trkpt lat="37.314489986747503" lon="-8.545223968103528">
        <ele>431.29000000000002</ele>
        <time>2025-05-07T09:28:23Z</time>
      </trkpt>
      <trkpt lat="37.31463398784399" lon="-8.545276019722223">
        <ele>431.29000000000002</ele>
        <time>2025-05-07T09:28:24Z</time>
      </trkpt>
      <trkpt lat="37.314785029739141" lon="-8.545332010835409">
        <ele>431.29000000000002</ele>
        <time>2025-05-07T09:28:25Z</time>
      </trkpt>
      <trkpt lat="37.315080994740129" lon="-8.545439969748259">
        <ele>430.81</ele>
        <time>2025-05-07T09:28:27Z</time>
      </trkpt>
      <trkpt lat="37.31523597612977" lon="-8.545496966689825">
        <ele>430.81</ele>
        <time>2025-05-07T09:28:28Z</time>
      </trkpt>
      <trkpt lat="37.31538500636816" lon="-8.545475006103516">
        <ele>430.81</ele>
        <time>2025-05-07T09:28:29Z</time>
      </trkpt>
      <trkpt lat="37.315550968050957" lon="-8.545443993061781">
        <ele>430.81</ele>
        <time>2025-05-07T09:28:30Z</time>
      </trkpt>
      <trkpt lat="37.315702009946108" lon="-8.545342991128564">
        <ele>430.81</ele>
        <time>2025-05-07T09:28:31Z</time>
      </trkpt>
      <trkpt lat="37.31585799716413" lon="-8.545238971710205">
        <ele>430.81</ele>
        <time>2025-05-07T09:28:32Z</time>
      </trkpt>
      <trkpt lat="37.316012978553772" lon="-8.545099999755621">
        <ele>430.81</ele>
        <time>2025-05-07T09:28:33Z</time>
      </trkpt>
      <trkpt lat="37.316311961039901" lon="-8.544814009219408">
        <ele>430.32999999999998</ele>
        <time>2025-05-07T09:28:35Z</time>
      </trkpt>
      <trkpt lat="37.316574985161424" lon="-8.544469010084868">
        <ele>429.37</ele>
        <time>2025-05-07T09:28:37Z</time>
      </trkpt>
      <trkpt lat="37.316917972639203" lon="-8.543891999870539">
        <ele>427.92000000000002</ele>
        <time>2025-05-07T09:28:40Z</time>
      </trkpt>
      <trkpt lat="37.317026015371084" lon="-8.543727966025472">
        <ele>427.44</ele>
        <time>2025-05-07T09:28:41Z</time>
      </trkpt>
      <trkpt lat="37.317156018689275" lon="-8.543597040697932">
        <ele>426.95999999999998</ele>
        <time>2025-05-07T09:28:42Z</time>
      </trkpt>
      <trkpt lat="37.317303959280252" lon="-8.543517999351025">
        <ele>426.48000000000002</ele>
        <time>2025-05-07T09:28:43Z</time>
      </trkpt>
      <trkpt lat="37.317460030317307" lon="-8.543447004631162">
        <ele>426</ele>
        <time>2025-05-07T09:28:44Z</time>
      </trkpt>
      <trkpt lat="37.317622974514961" lon="-8.543395036831498">
        <ele>425.51999999999998</ele>
        <time>2025-05-07T09:28:45Z</time>
      </trkpt>
      <trkpt lat="37.317788014188409" lon="-8.543342985212803">
        <ele>425.04000000000002</ele>
        <time>2025-05-07T09:28:46Z</time>
      </trkpt>
      <trkpt lat="37.317930003628135" lon="-8.543240977451205">
        <ele>424.56</ele>
        <time>2025-05-07T09:28:47Z</time>
      </trkpt>
      <trkpt lat="37.318067969754338" lon="-8.543114997446537">
        <ele>424.07999999999998</ele>
        <time>2025-05-07T09:28:48Z</time>
      </trkpt>
      <trkpt lat="37.318153968080878" lon="-8.542941994965076">
        <ele>423.60000000000002</ele>
        <time>2025-05-07T09:28:49Z</time>
      </trkpt>
      <trkpt lat="37.318225968629122" lon="-8.542740996927023">
        <ele>423.12</ele>
        <time>2025-05-07T09:28:50Z</time>
      </trkpt>
      <trkpt lat="37.318283971399069" lon="-8.542517032474279">
        <ele>422.63999999999999</ele>
        <time>2025-05-07T09:28:51Z</time>
      </trkpt>
      <trkpt lat="37.318342979997396" lon="-8.542286027222872">
        <ele>421.68000000000001</ele>
        <time>2025-05-07T09:28:52Z</time>
      </trkpt>
      <trkpt lat="37.318454040214419" lon="-8.541559986770153">
        <ele>419.75</ele>
        <time>2025-05-07T09:28:55Z</time>
      </trkpt>
      <trkpt lat="37.318476000800729" lon="-8.541311966255307">
        <ele>419.26999999999998</ele>
        <time>2025-05-07T09:28:56Z</time>
      </trkpt>
      <trkpt lat="37.318498967215419" lon="-8.540149983018637">
        <ele>416.87</ele>
        <time>2025-05-07T09:29:01Z</time>
      </trkpt>
      <trkpt lat="37.318567028269172" lon="-8.539977986365557">
        <ele>416.38999999999999</ele>
        <time>2025-05-07T09:29:02Z</time>
      </trkpt>
      <trkpt lat="37.318655960261822" lon="-8.539804983884096">
        <ele>416.38999999999999</ele>
        <time>2025-05-07T09:29:03Z</time>
      </trkpt>
      <trkpt lat="37.318790992721915" lon="-8.539685038849711">
        <ele>416.38999999999999</ele>
        <time>2025-05-07T09:29:04Z</time>
      </trkpt>
      <trkpt lat="37.318909009918571" lon="-8.539535002782941">
        <ele>416.38999999999999</ele>
        <time>2025-05-07T09:29:05Z</time>
      </trkpt>
      <trkpt lat="37.31914303265512" lon="-8.53921003639698">
        <ele>416.38999999999999</ele>
        <time>2025-05-07T09:29:07Z</time>
      </trkpt>
      <trkpt lat="37.319237999618053" lon="-8.539038961753249">
        <ele>416.38999999999999</ele>
        <time>2025-05-07T09:29:08Z</time>
      </trkpt>
      <trkpt lat="37.319317040964961" lon="-8.538838969543576">
        <ele>416.38999999999999</ele>
        <time>2025-05-07T09:29:09Z</time>
      </trkpt>
      <trkpt lat="37.319394992664456" lon="-8.538638977333903">
        <ele>416.87</ele>
        <time>2025-05-07T09:29:10Z</time>
      </trkpt>
      <trkpt lat="37.319428017362952" lon="-8.538424987345934">
        <ele>417.35000000000002</ele>
        <time>2025-05-07T09:29:11Z</time>
      </trkpt>
      <trkpt lat="37.319458024576306" lon="-8.538214014843106">
        <ele>417.82999999999998</ele>
        <time>2025-05-07T09:29:12Z</time>
      </trkpt>
      <trkpt lat="37.319483002647758" lon="-8.538015028461814">
        <ele>418.79000000000002</ele>
        <time>2025-05-07T09:29:13Z</time>
      </trkpt>
      <trkpt lat="37.319459030404687" lon="-8.537802966311574">
        <ele>419.26999999999998</ele>
        <time>2025-05-07T09:29:14Z</time>
      </trkpt>
      <trkpt lat="37.319432962685823" lon="-8.53757799603045">
        <ele>420.23000000000002</ele>
        <time>2025-05-07T09:29:15Z</time>
      </trkpt>
      <trkpt lat="37.319407984614372" lon="-8.537354031577706">
        <ele>420.70999999999998</ele>
        <time>2025-05-07T09:29:16Z</time>
      </trkpt>
      <trkpt lat="37.31935903429985" lon="-8.536924039945006">
        <ele>422.63999999999999</ele>
        <time>2025-05-07T09:29:18Z</time>
      </trkpt>
      <trkpt lat="37.319398010149598" lon="-8.536702003329992">
        <ele>423.60000000000002</ele>
        <time>2025-05-07T09:29:19Z</time>
      </trkpt>
      <trkpt lat="37.319474034011364" lon="-8.536496981978416">
        <ele>424.56</ele>
        <time>2025-05-07T09:29:20Z</time>
      </trkpt>
      <trkpt lat="37.319976026192307" lon="-8.535510012879968">
        <ele>427.92000000000002</ele>
        <time>2025-05-07T09:29:25Z</time>
      </trkpt>
      <trkpt lat="37.320118015632033" lon="-8.535347990691662">
        <ele>428.88999999999999</ele>
        <time>2025-05-07T09:29:26Z</time>
      </trkpt>
      <trkpt lat="37.320282971486449" lon="-8.535218993201852">
        <ele>429.37</ele>
        <time>2025-05-07T09:29:27Z</time>
      </trkpt>
      <trkpt lat="37.32110196724534" lon="-8.534619016572833">
        <ele>432.73000000000002</ele>
        <time>2025-05-07T09:29:32Z</time>
      </trkpt>
      <trkpt lat="37.32159499078989" lon="-8.534323973581195">
        <ele>434.17000000000002</ele>
        <time>2025-05-07T09:29:35Z</time>
      </trkpt>
      <trkpt lat="37.321785008534789" lon="-8.534238981083036">
        <ele>434.64999999999998</ele>
        <time>2025-05-07T09:29:36Z</time>
      </trkpt>
      <trkpt lat="37.323216972872615" lon="-8.533577984198928">
        <ele>435.61000000000001</ele>
        <time>2025-05-07T09:29:44Z</time>
      </trkpt>
      <trkpt lat="37.323751989752054" lon="-8.533244971185923">
        <ele>434.64999999999998</ele>
        <time>2025-05-07T09:29:47Z</time>
      </trkpt>
      <trkpt lat="37.323925998061895" lon="-8.533103987574577">
        <ele>434.17000000000002</ele>
        <time>2025-05-07T09:29:48Z</time>
      </trkpt>
      <trkpt lat="37.324088020250201" lon="-8.532942971214652">
        <ele>433.20999999999998</ele>
        <time>2025-05-07T09:29:49Z</time>
      </trkpt>
      <trkpt lat="37.324241995811462" lon="-8.532773992046714">
        <ele>432.25</ele>
        <time>2025-05-07T09:29:50Z</time>
      </trkpt>
      <trkpt lat="37.324397983029485" lon="-8.532600989565253">
        <ele>431.29000000000002</ele>
        <time>2025-05-07T09:29:51Z</time>
      </trkpt>
      <trkpt lat="37.324513988569379" lon="-8.532394962385297">
        <ele>430.32999999999998</ele>
        <time>2025-05-07T09:29:52Z</time>
      </trkpt>
      <trkpt lat="37.324634017422795" lon="-8.532181978225708">
        <ele>428.88999999999999</ele>
        <time>2025-05-07T09:29:53Z</time>
      </trkpt>
      <trkpt lat="37.324742982164025" lon="-8.531960025429726">
        <ele>427.92000000000002</ele>
        <time>2025-05-07T09:29:54Z</time>
      </trkpt>
      <trkpt lat="37.325041964650154" lon="-8.531085960566998">
        <ele>424.07999999999998</ele>
        <time>2025-05-07T09:29:58Z</time>
      </trkpt>
      <trkpt lat="37.325084041804075" lon="-8.530865013599396">
        <ele>423.60000000000002</ele>
        <time>2025-05-07T09:29:59Z</time>
      </trkpt>
      <trkpt lat="37.325055962428451" lon="-8.530631996691227">
        <ele>423.12</ele>
        <time>2025-05-07T09:30:00Z</time>
      </trkpt>
      <trkpt lat="37.325002988800406" lon="-8.530206028372049">
        <ele>422.16000000000003</ele>
        <time>2025-05-07T09:30:02Z</time>
      </trkpt>
      <trkpt lat="37.325026039034128" lon="-8.530009975656867">
        <ele>421.68000000000001</ele>
        <time>2025-05-07T09:30:03Z</time>
      </trkpt>
      <trkpt lat="37.325081024318933" lon="-8.529852982610464">
        <ele>421.19</ele>
        <time>2025-05-07T09:30:04Z</time>
      </trkpt>
      <trkpt lat="37.325170040130615" lon="-8.529704036191106">
        <ele>421.19</ele>
        <time>2025-05-07T09:30:05Z</time>
      </trkpt>
      <trkpt lat="37.325282022356987" lon="-8.529588030651212">
        <ele>421.19</ele>
        <time>2025-05-07T09:30:06Z</time>
      </trkpt>
      <trkpt lat="37.325412025675178" lon="-8.529452998191118">
        <ele>421.19</ele>
        <time>2025-05-07T09:30:07Z</time>
      </trkpt>
      <trkpt lat="37.325552003458142" lon="-8.52930698543787">
        <ele>421.19</ele>
        <time>2025-05-07T09:30:08Z</time>
      </trkpt>
      <trkpt lat="37.325701033696532" lon="-8.529153009876609">
        <ele>420.70999999999998</ele>
        <time>2025-05-07T09:30:09Z</time>
      </trkpt>
      <trkpt lat="37.325819972902536" lon="-8.528954023495317">
        <ele>420.70999999999998</ele>
        <time>2025-05-07T09:30:10Z</time>
      </trkpt>
      <trkpt lat="37.325930027291179" lon="-8.528752019628882">
        <ele>420.70999999999998</ele>
        <time>2025-05-07T09:30:11Z</time>
      </trkpt>
      <trkpt lat="37.326016025617719" lon="-8.52855202741921">
        <ele>420.23000000000002</ele>
        <time>2025-05-07T09:30:12Z</time>
      </trkpt>
      <trkpt lat="37.326047038659453" lon="-8.528344994410873">
        <ele>420.23000000000002</ele>
        <time>2025-05-07T09:30:13Z</time>
      </trkpt>
      <trkpt lat="37.326072016730905" lon="-8.528143996372819">
        <ele>420.23000000000002</ele>
        <time>2025-05-07T09:30:14Z</time>
      </trkpt>
      <trkpt lat="37.326072016730905" lon="-8.527944004163146">
        <ele>420.23000000000002</ele>
        <time>2025-05-07T09:30:15Z</time>
      </trkpt>
      <trkpt lat="37.325994987040758" lon="-8.527730014175177">
        <ele>420.23000000000002</ele>
        <time>2025-05-07T09:30:16Z</time>
      </trkpt>
      <trkpt lat="37.325922986492515" lon="-8.527529016137123">
        <ele>419.75</ele>
        <time>2025-05-07T09:30:17Z</time>
      </trkpt>
      <trkpt lat="37.325857020914555" lon="-8.527343021705747">
        <ele>419.75</ele>
        <time>2025-05-07T09:30:18Z</time>
      </trkpt>
      <trkpt lat="37.325837993994355" lon="-8.527132971212268">
        <ele>419.75</ele>
        <time>2025-05-07T09:30:19Z</time>
      </trkpt>
      <trkpt lat="37.325887028127909" lon="-8.526954017579556">
        <ele>419.75</ele>
        <time>2025-05-07T09:30:20Z</time>
      </trkpt>
      <trkpt lat="37.325945030897856" lon="-8.526779003441334">
        <ele>419.26999999999998</ele>
        <time>2025-05-07T09:30:21Z</time>
      </trkpt>
      <trkpt lat="37.326038992032409" lon="-8.526661992073059">
        <ele>418.79000000000002</ele>
        <time>2025-05-07T09:30:22Z</time>
      </trkpt>
      <trkpt lat="37.32617000117898" lon="-8.52655696682632">
        <ele>418.31</ele>
        <time>2025-05-07T09:30:23Z</time>
      </trkpt>
      <trkpt lat="37.326306961476803" lon="-8.526451019570231">
        <ele>417.82999999999998</ele>
        <time>2025-05-07T09:30:24Z</time>
      </trkpt>
      <trkpt lat="37.326465966179967" lon="-8.526351023465395">
        <ele>417.35000000000002</ele>
        <time>2025-05-07T09:30:25Z</time>
      </trkpt>
      <trkpt lat="37.32692101970315" lon="-8.525981968268752">
        <ele>415.91000000000003</ele>
        <time>2025-05-07T09:30:28Z</time>
      </trkpt>
      <trkpt lat="37.327013975009322" lon="-8.525830004364252">
        <ele>414.94999999999999</ele>
        <time>2025-05-07T09:30:29Z</time>
      </trkpt>
      <trkpt lat="37.327077006921172" lon="-8.525659013539553">
        <ele>414.94999999999999</ele>
        <time>2025-05-07T09:30:30Z</time>
      </trkpt>
      <trkpt lat="37.327138027176261" lon="-8.525494979694486">
        <ele>414.94999999999999</ele>
        <time>2025-05-07T09:30:31Z</time>
      </trkpt>
      <trkpt lat="37.327206004410982" lon="-8.525344021618366">
        <ele>414.47000000000003</ele>
        <time>2025-05-07T09:30:32Z</time>
      </trkpt>
      <trkpt lat="37.327271969988942" lon="-8.525200020521879">
        <ele>414.47000000000003</ele>
        <time>2025-05-07T09:30:33Z</time>
      </trkpt>
      <trkpt lat="37.327338019385934" lon="-8.525058031082153">
        <ele>414.94999999999999</ele>
        <time>2025-05-07T09:30:34Z</time>
      </trkpt>
      <trkpt lat="37.327729035168886" lon="-8.524226965382695">
        <ele>415.91000000000003</ele>
        <time>2025-05-07T09:30:40Z</time>
      </trkpt>
      <trkpt lat="37.327763987705112" lon="-8.524059997871518">
        <ele>415.91000000000003</ele>
        <time>2025-05-07T09:30:41Z</time>
      </trkpt>
      <trkpt lat="37.327959034591913" lon="-8.52290497161448">
        <ele>415.43000000000001</ele>
        <time>2025-05-07T09:30:48Z</time>
      </trkpt>
      <trkpt lat="37.327988035976887" lon="-8.522756025195122">
        <ele>414.94999999999999</ele>
        <time>2025-05-07T09:30:49Z</time>
      </trkpt>
      <trkpt lat="37.328042015433311" lon="-8.522615041583777">
        <ele>414.47000000000003</ele>
        <time>2025-05-07T09:30:50Z</time>
      </trkpt>
      <trkpt lat="37.328101024031639" lon="-8.52247497998178">
        <ele>414.47000000000003</ele>
        <time>2025-05-07T09:30:51Z</time>
      </trkpt>
      <trkpt lat="37.328185010701418" lon="-8.522350005805492">
        <ele>413.98000000000002</ele>
        <time>2025-05-07T09:30:52Z</time>
      </trkpt>
      <trkpt lat="37.328267991542816" lon="-8.522225031629205">
        <ele>413.98000000000002</ele>
        <time>2025-05-07T09:30:53Z</time>
      </trkpt>
      <trkpt lat="37.329024039208889" lon="-8.520998004823923">
        <ele>410.13999999999999</ele>
        <time>2025-05-07T09:31:02Z</time>
      </trkpt>
      <trkpt lat="37.32979902997613" lon="-8.519494961947203">
        <ele>402.44999999999999</ele>
        <time>2025-05-07T09:31:11Z</time>
      </trkpt>
      <trkpt lat="37.33059698715806" lon="-8.5183069948107">
        <ele>398.12</ele>
        <time>2025-05-07T09:31:16Z</time>
      </trkpt>
      <trkpt lat="37.331702979281545" lon="-8.516862960532308">
        <ele>392.83999999999997</ele>
        <time>2025-05-07T09:31:23Z</time>
      </trkpt>
      <trkpt lat="37.332220980897546" lon="-8.516206992790103">
        <ele>389.47000000000003</ele>
        <time>2025-05-07T09:31:27Z</time>
      </trkpt>
      <trkpt lat="37.332318965345621" lon="-8.516043964773417">
        <ele>388.99000000000001</ele>
        <time>2025-05-07T09:31:28Z</time>
      </trkpt>
      <trkpt lat="37.33237998560071" lon="-8.515854030847549">
        <ele>388.02999999999997</ele>
        <time>2025-05-07T09:31:29Z</time>
      </trkpt>
      <trkpt lat="37.332421978935599" lon="-8.51566300727427">
        <ele>387.55000000000001</ele>
        <time>2025-05-07T09:31:30Z</time>
      </trkpt>
      <trkpt lat="37.332413010299206" lon="-8.515465026721358">
        <ele>386.58999999999997</ele>
        <time>2025-05-07T09:31:31Z</time>
      </trkpt>
      <trkpt lat="37.332404041662812" lon="-8.515256987884641">
        <ele>385.63</ele>
        <time>2025-05-07T09:31:32Z</time>
      </trkpt>
      <trkpt lat="37.332394989207387" lon="-8.515047021210194">
        <ele>385.14999999999998</ele>
        <time>2025-05-07T09:31:33Z</time>
      </trkpt>
      <trkpt lat="37.332386020570993" lon="-8.514838982373476">
        <ele>384.18000000000001</ele>
        <time>2025-05-07T09:31:34Z</time>
      </trkpt>
      <trkpt lat="37.332391971722245" lon="-8.514647036790848">
        <ele>383.69999999999999</ele>
        <time>2025-05-07T09:31:35Z</time>
      </trkpt>
      <trkpt lat="37.332432037219405" lon="-8.514475040137768">
        <ele>382.74000000000001</ele>
        <time>2025-05-07T09:31:36Z</time>
      </trkpt>
      <trkpt lat="37.332519041374326" lon="-8.514331039041281">
        <ele>382.25999999999999</ele>
        <time>2025-05-07T09:31:37Z</time>
      </trkpt>
      <trkpt lat="37.332629011943936" lon="-8.514202041551471">
        <ele>381.30000000000001</ele>
        <time>2025-05-07T09:31:38Z</time>
      </trkpt>
      <trkpt lat="37.332764966413379" lon="-8.5140710324049">
        <ele>380.81999999999999</ele>
        <time>2025-05-07T09:31:39Z</time>
      </trkpt>
      <trkpt lat="37.333051040768623" lon="-8.513797027990222">
        <ele>378.42000000000002</ele>
        <time>2025-05-07T09:31:41Z</time>
      </trkpt>
      <trkpt lat="37.333155982196331" lon="-8.513604998588562">
        <ele>376.97000000000003</ele>
        <time>2025-05-07T09:31:42Z</time>
      </trkpt>
      <trkpt lat="37.333243992179632" lon="-8.513402994722128">
        <ele>375.05000000000001</ele>
        <time>2025-05-07T09:31:43Z</time>
      </trkpt>
      <trkpt lat="37.333311969414353" lon="-8.513203002512455">
        <ele>373.61000000000001</ele>
        <time>2025-05-07T09:31:44Z</time>
      </trkpt>
      <trkpt lat="37.333340970799327" lon="-8.512987000867724">
        <ele>372.64999999999998</ele>
        <time>2025-05-07T09:31:45Z</time>
      </trkpt>
      <trkpt lat="37.333363015204668" lon="-8.51276395842433">
        <ele>371.20999999999998</ele>
        <time>2025-05-07T09:31:46Z</time>
      </trkpt>
      <trkpt lat="37.333329990506172" lon="-8.512535970658064">
        <ele>369.75999999999999</ele>
        <time>2025-05-07T09:31:47Z</time>
      </trkpt>
      <trkpt lat="37.333295037969947" lon="-8.512301025912166">
        <ele>368.80000000000001</ele>
        <time>2025-05-07T09:31:48Z</time>
      </trkpt>
      <trkpt lat="37.33326100744307" lon="-8.512063985690475">
        <ele>367.83999999999997</ele>
        <time>2025-05-07T09:31:49Z</time>
      </trkpt>
      <trkpt lat="37.333225971087813" lon="-8.511827029287815">
        <ele>366.88</ele>
        <time>2025-05-07T09:31:50Z</time>
      </trkpt>
      <trkpt lat="37.3332370352" lon="-8.511576997116208">
        <ele>366.39999999999998</ele>
        <time>2025-05-07T09:31:51Z</time>
      </trkpt>
      <trkpt lat="37.33326000161469" lon="-8.511356972157955">
        <ele>365.44</ele>
        <time>2025-05-07T09:31:52Z</time>
      </trkpt>
      <trkpt lat="37.333339964970946" lon="-8.511096965521574">
        <ele>364.48000000000002</ele>
        <time>2025-05-07T09:31:53Z</time>
      </trkpt>
      <trkpt lat="37.33341297134757" lon="-8.510861014947295">
        <ele>363.51999999999998</ele>
        <time>2025-05-07T09:31:54Z</time>
      </trkpt>
      <trkpt lat="37.33351799659431" lon="-8.510644007474184">
        <ele>362.55000000000001</ele>
        <time>2025-05-07T09:31:55Z</time>
      </trkpt>
      <trkpt lat="37.333634002134204" lon="-8.510434962809086">
        <ele>361.58999999999997</ele>
        <time>2025-05-07T09:31:56Z</time>
      </trkpt>
      <trkpt lat="37.333946982398629" lon="-8.509805984795094">
        <ele>358.23000000000002</ele>
        <time>2025-05-07T09:31:59Z</time>
      </trkpt>
      <trkpt lat="37.334020994603634" lon="-8.509586965665221">
        <ele>357.26999999999998</ele>
        <time>2025-05-07T09:32:00Z</time>
      </trkpt>
      <trkpt lat="37.334063993766904" lon="-8.509350009262562">
        <ele>356.31</ele>
        <time>2025-05-07T09:32:01Z</time>
      </trkpt>
      <trkpt lat="37.334073968231678" lon="-8.508871989324689">
        <ele>354.38</ele>
        <time>2025-05-07T09:32:03Z</time>
      </trkpt>
      <trkpt lat="37.33405401930213" lon="-8.50842297077179">
        <ele>352.94</ele>
        <time>2025-05-07T09:32:05Z</time>
      </trkpt>
      <trkpt lat="37.334110010415316" lon="-8.508204035460949">
        <ele>351.98000000000002</ele>
        <time>2025-05-07T09:32:06Z</time>
      </trkpt>
      <trkpt lat="37.334167007356882" lon="-8.507983004674316">
        <ele>351.5</ele>
        <time>2025-05-07T09:32:07Z</time>
      </trkpt>
      <trkpt lat="37.334297010675073" lon="-8.507529040798545">
        <ele>349.10000000000002</ele>
        <time>2025-05-07T09:32:09Z</time>
      </trkpt>
      <trkpt lat="37.334359036758542" lon="-8.50728495977819">
        <ele>348.13</ele>
        <time>2025-05-07T09:32:10Z</time>
      </trkpt>
      <trkpt lat="37.33442198485136" lon="-8.507031993940473">
        <ele>346.69</ele>
        <time>2025-05-07T09:32:11Z</time>
      </trkpt>
      <trkpt lat="37.334486022591591" lon="-8.506775004789233">
        <ele>345.73000000000002</ele>
        <time>2025-05-07T09:32:12Z</time>
      </trkpt>
      <trkpt lat="37.334551988169551" lon="-8.506512986496091">
        <ele>344.29000000000002</ele>
        <time>2025-05-07T09:32:13Z</time>
      </trkpt>
      <trkpt lat="37.334804031997919" lon="-8.505519982427359">
        <ele>339.95999999999998</ele>
        <time>2025-05-07T09:32:17Z</time>
      </trkpt>
      <trkpt lat="37.334904028102756" lon="-8.505324013531208">
        <ele>339</ele>
        <time>2025-05-07T09:32:18Z</time>
      </trkpt>
      <trkpt lat="37.335034031420946" lon="-8.505140030756593">
        <ele>338.04000000000002</ele>
        <time>2025-05-07T09:32:19Z</time>
      </trkpt>
      <trkpt lat="37.336295004934072" lon="-8.503568004816771">
        <ele>333.70999999999998</ele>
        <time>2025-05-07T09:32:28Z</time>
      </trkpt>
      <trkpt lat="37.336660958826542" lon="-8.503069030120969">
        <ele>332.75</ele>
        <time>2025-05-07T09:32:31Z</time>
      </trkpt>
      <trkpt lat="37.336744023486972" lon="-8.502855040132999">
        <ele>332.26999999999998</ele>
        <time>2025-05-07T09:32:32Z</time>
      </trkpt>
      <trkpt lat="37.336819041520357" lon="-8.502631997689605">
        <ele>331.79000000000002</ele>
        <time>2025-05-07T09:32:33Z</time>
      </trkpt>
      <trkpt lat="37.336874026805162" lon="-8.502399986609817">
        <ele>330.82999999999998</ele>
        <time>2025-05-07T09:32:34Z</time>
      </trkpt>
      <trkpt lat="37.336895987391472" lon="-8.502154983580113">
        <ele>330.35000000000002</ele>
        <time>2025-05-07T09:32:35Z</time>
      </trkpt>
      <trkpt lat="37.336867991834879" lon="-8.501906963065267">
        <ele>329.87</ele>
        <time>2025-05-07T09:32:36Z</time>
      </trkpt>
      <trkpt lat="37.336838990449905" lon="-8.501651985570788">
        <ele>328.91000000000003</ele>
        <time>2025-05-07T09:32:37Z</time>
      </trkpt>
      <trkpt lat="37.336778976023197" lon="-8.500882023945451">
        <ele>326.99000000000001</ele>
        <time>2025-05-07T09:32:40Z</time>
      </trkpt>
      <trkpt lat="37.336774030700326" lon="-8.500637020915747">
        <ele>326.5</ele>
        <time>2025-05-07T09:32:41Z</time>
      </trkpt>
      <trkpt lat="37.336765984073281" lon="-8.500412972643971">
        <ele>326.01999999999998</ele>
        <time>2025-05-07T09:32:42Z</time>
      </trkpt>
      <trkpt lat="37.336758021265268" lon="-8.50021499209106">
        <ele>325.54000000000002</ele>
        <time>2025-05-07T09:32:43Z</time>
      </trkpt>
      <trkpt lat="37.336685014888644" lon="-8.500080965459347">
        <ele>324.57999999999998</ele>
        <time>2025-05-07T09:32:44Z</time>
      </trkpt>
      <trkpt lat="37.336603039875627" lon="-8.499949034303427">
        <ele>323.62</ele>
        <time>2025-05-07T09:32:45Z</time>
      </trkpt>
      <trkpt lat="37.336488962173462" lon="-8.499865969642997">
        <ele>323.13999999999999</ele>
        <time>2025-05-07T09:32:46Z</time>
      </trkpt>
      <trkpt lat="37.336347978562117" lon="-8.49980603903532">
        <ele>322.18000000000001</ele>
        <time>2025-05-07T09:32:47Z</time>
      </trkpt>
      <trkpt lat="37.336192997172475" lon="-8.499779971316457">
        <ele>321.69999999999999</ele>
        <time>2025-05-07T09:32:48Z</time>
      </trkpt>
      <trkpt lat="37.336007002741098" lon="-8.499748958274722">
        <ele>320.74000000000001</ele>
        <time>2025-05-07T09:32:49Z</time>
      </trkpt>
      <trkpt lat="37.335882028564811" lon="-8.499646028503776">
        <ele>320.25999999999999</ele>
        <time>2025-05-07T09:32:50Z</time>
      </trkpt>
      <trkpt lat="37.335737021639943" lon="-8.499525999650359">
        <ele>319.77999999999997</ele>
        <time>2025-05-07T09:32:51Z</time>
      </trkpt>
      <trkpt lat="37.335452036932111" lon="-8.499289965257049">
        <ele>318.81</ele>
        <time>2025-05-07T09:32:53Z</time>
      </trkpt>
      <trkpt lat="37.335297977551818" lon="-8.499210001900792">
        <ele>318.32999999999998</ele>
        <time>2025-05-07T09:32:54Z</time>
      </trkpt>
      <trkpt lat="37.335125980898738" lon="-8.499171026051045">
        <ele>317.85000000000002</ele>
        <time>2025-05-07T09:32:55Z</time>
      </trkpt>
      <trkpt lat="37.334941998124123" lon="-8.49918301217258">
        <ele>317.37</ele>
        <time>2025-05-07T09:32:56Z</time>
      </trkpt>
      <trkpt lat="37.334748040884733" lon="-8.499196004122496">
        <ele>316.41000000000003</ele>
        <time>2025-05-07T09:32:57Z</time>
      </trkpt>
      <trkpt lat="37.334040021523833" lon="-8.499197009950876">
        <ele>313.05000000000001</ele>
        <time>2025-05-07T09:33:01Z</time>
      </trkpt>
      <trkpt lat="37.33390599489212" lon="-8.499130960553885">
        <ele>312.08999999999997</ele>
        <time>2025-05-07T09:33:02Z</time>
      </trkpt>
      <trkpt lat="37.333793006837368" lon="-8.499029958620668">
        <ele>311.12</ele>
        <time>2025-05-07T09:33:03Z</time>
      </trkpt>
      <trkpt lat="37.333688987419009" lon="-8.498912025243044">
        <ele>310.16000000000003</ele>
        <time>2025-05-07T09:33:04Z</time>
      </trkpt>
      <trkpt lat="37.333631990477443" lon="-8.498756038025022">
        <ele>309.19999999999999</ele>
        <time>2025-05-07T09:33:05Z</time>
      </trkpt>
      <trkpt lat="37.333610029891133" lon="-8.498593010008335">
        <ele>308.72000000000003</ele>
        <time>2025-05-07T09:33:06Z</time>
      </trkpt>
      <trkpt lat="37.333623021841049" lon="-8.498421013355255">
        <ele>307.75999999999999</ele>
        <time>2025-05-07T09:33:07Z</time>
      </trkpt>
      <trkpt lat="37.333682030439377" lon="-8.498291010037065">
        <ele>306.80000000000001</ele>
        <time>2025-05-07T09:33:08Z</time>
      </trkpt>
      <trkpt lat="37.333757970482111" lon="-8.4981510322541">
        <ele>306.31999999999999</ele>
        <time>2025-05-07T09:33:09Z</time>
      </trkpt>
      <trkpt lat="37.33383902348578" lon="-8.49800200201571">
        <ele>305.83999999999997</ele>
        <time>2025-05-07T09:33:10Z</time>
      </trkpt>
      <trkpt lat="37.333918986842036" lon="-8.497835034504533">
        <ele>304.88</ele>
        <time>2025-05-07T09:33:11Z</time>
      </trkpt>
      <trkpt lat="37.333972966298461" lon="-8.497661026194692">
        <ele>303.43000000000001</ele>
        <time>2025-05-07T09:33:12Z</time>
      </trkpt>
      <trkpt lat="37.33401102013886" lon="-8.49746597930789">
        <ele>302.47000000000003</ele>
        <time>2025-05-07T09:33:13Z</time>
      </trkpt>
      <trkpt lat="37.33401102013886" lon="-8.497280990704894">
        <ele>301.50999999999999</ele>
        <time>2025-05-07T09:33:14Z</time>
      </trkpt>
      <trkpt lat="37.333972966298461" lon="-8.497089967131615">
        <ele>300.55000000000001</ele>
        <time>2025-05-07T09:33:15Z</time>
      </trkpt>
      <trkpt lat="37.333918986842036" lon="-8.496911013498902">
        <ele>299.58999999999997</ele>
        <time>2025-05-07T09:33:16Z</time>
      </trkpt>
      <trkpt lat="37.333822008222342" lon="-8.496745973825455">
        <ele>298.63</ele>
        <time>2025-05-07T09:33:17Z</time>
      </trkpt>
      <trkpt lat="37.333697034046054" lon="-8.496612031012774">
        <ele>297.18000000000001</ele>
        <time>2025-05-07T09:33:18Z</time>
      </trkpt>
      <trkpt lat="37.333553032949567" lon="-8.496481021866202">
        <ele>296.22000000000003</ele>
        <time>2025-05-07T09:33:19Z</time>
      </trkpt>
      <trkpt lat="37.33341196551919" lon="-8.496354036033154">
        <ele>294.77999999999997</ele>
        <time>2025-05-07T09:33:20Z</time>
      </trkpt>
      <trkpt lat="37.333257989957929" lon="-8.496280023828149">
        <ele>293.81999999999999</ele>
        <time>2025-05-07T09:33:21Z</time>
      </trkpt>
      <trkpt lat="37.333073001354933" lon="-8.496250016614795">
        <ele>292.86000000000001</ele>
        <time>2025-05-07T09:33:22Z</time>
      </trkpt>
      <trkpt lat="37.332881977781653" lon="-8.49621799774468">
        <ele>292.38</ele>
        <time>2025-05-07T09:33:23Z</time>
      </trkpt>
      <trkpt lat="37.332360958680511" lon="-8.496134011074901">
        <ele>289.97000000000003</ele>
        <time>2025-05-07T09:33:26Z</time>
      </trkpt>
      <trkpt lat="37.332233972847462" lon="-8.496063016355038">
        <ele>289.00999999999999</ele>
        <time>2025-05-07T09:33:27Z</time>
      </trkpt>
      <trkpt lat="37.332136994227767" lon="-8.495938964188099">
        <ele>288.52999999999997</ele>
        <time>2025-05-07T09:33:28Z</time>
      </trkpt>
      <trkpt lat="37.332052001729608" lon="-8.495777025818825">
        <ele>288.05000000000001</ele>
        <time>2025-05-07T09:33:29Z</time>
      </trkpt>
      <trkpt lat="37.331958040595055" lon="-8.495600000023842">
        <ele>287.56999999999999</ele>
        <time>2025-05-07T09:33:30Z</time>
      </trkpt>
      <trkpt lat="37.331192018464208" lon="-8.494039960205555">
        <ele>285.17000000000002</ele>
        <time>2025-05-07T09:33:38Z</time>
      </trkpt>
      <trkpt lat="37.330989008769393" lon="-8.493569986894727">
        <ele>284.20999999999998</ele>
        <time>2025-05-07T09:33:41Z</time>
      </trkpt>
      <trkpt lat="37.330942992120981" lon="-8.493411988019943">
        <ele>283.73000000000002</ele>
        <time>2025-05-07T09:33:42Z</time>
      </trkpt>
      <trkpt lat="37.330942992120981" lon="-8.493268992751837">
        <ele>283.73000000000002</ele>
        <time>2025-05-07T09:33:43Z</time>
      </trkpt>
      <trkpt lat="37.331009963527322" lon="-8.493092972785235">
        <ele>283.25</ele>
        <time>2025-05-07T09:33:44Z</time>
      </trkpt>
      <trkpt lat="37.331079030409455" lon="-8.492938997223973">
        <ele>282.76999999999998</ele>
        <time>2025-05-07T09:33:45Z</time>
      </trkpt>
      <trkpt lat="37.331179026514292" lon="-8.492792984470725">
        <ele>282.27999999999997</ele>
        <time>2025-05-07T09:33:46Z</time>
      </trkpt>
      <trkpt lat="37.331297965720296" lon="-8.492662981152535">
        <ele>281.80000000000001</ele>
        <time>2025-05-07T09:33:47Z</time>
      </trkpt>
      <trkpt lat="37.331430986523628" lon="-8.492548987269402">
        <ele>281.31999999999999</ele>
        <time>2025-05-07T09:33:48Z</time>
      </trkpt>
      <trkpt lat="37.331571970134974" lon="-8.492472041398287">
        <ele>280.83999999999997</ele>
        <time>2025-05-07T09:33:49Z</time>
      </trkpt>
      <trkpt lat="37.331710020080209" lon="-8.492396017536521">
        <ele>280.36000000000001</ele>
        <time>2025-05-07T09:33:50Z</time>
      </trkpt>
      <trkpt lat="37.332021994516253" lon="-8.492294009774923">
        <ele>278.92000000000002</ele>
        <time>2025-05-07T09:33:52Z</time>
      </trkpt>
      <trkpt lat="37.332189967855811" lon="-8.492264002561569">
        <ele>278.44</ele>
        <time>2025-05-07T09:33:53Z</time>
      </trkpt>
      <trkpt lat="37.332350984215736" lon="-8.492294009774923">
        <ele>277.48000000000002</ele>
        <time>2025-05-07T09:33:54Z</time>
      </trkpt>
      <trkpt lat="37.33250898309052" lon="-8.492367016151547">
        <ele>276.51999999999998</ele>
        <time>2025-05-07T09:33:55Z</time>
      </trkpt>
      <trkpt lat="37.332652984187007" lon="-8.492472041398287">
        <ele>276.04000000000002</ele>
        <time>2025-05-07T09:33:56Z</time>
      </trkpt>
      <trkpt lat="37.332779970020056" lon="-8.492612019181252">
        <ele>274.58999999999997</ele>
        <time>2025-05-07T09:33:57Z</time>
      </trkpt>
      <trkpt lat="37.332910979166627" lon="-8.492757026106119">
        <ele>273.63</ele>
        <time>2025-05-07T09:33:58Z</time>
      </trkpt>
      <trkpt lat="37.333295037969947" lon="-8.493148041889072">
        <ele>271.23000000000002</ele>
        <time>2025-05-07T09:34:01Z</time>
      </trkpt>
      <trkpt lat="37.333438033238053" lon="-8.493224987760186">
        <ele>269.31</ele>
        <time>2025-05-07T09:34:02Z</time>
      </trkpt>
      <trkpt lat="37.33358396217227" lon="-8.493290031328797">
        <ele>267.86000000000001</ele>
        <time>2025-05-07T09:34:03Z</time>
      </trkpt>
      <trkpt lat="37.333739027380943" lon="-8.493290031328797">
        <ele>266.42000000000002</ele>
        <time>2025-05-07T09:34:04Z</time>
      </trkpt>
      <trkpt lat="37.333895014598966" lon="-8.49325499497354">
        <ele>264.98000000000002</ele>
        <time>2025-05-07T09:34:05Z</time>
      </trkpt>
      <trkpt lat="37.33405502513051" lon="-8.493205960839987">
        <ele>263.54000000000002</ele>
        <time>2025-05-07T09:34:06Z</time>
      </trkpt>
      <trkpt lat="37.334217969328165" lon="-8.493134966120124">
        <ele>262.10000000000002</ele>
        <time>2025-05-07T09:34:07Z</time>
      </trkpt>
      <trkpt lat="37.334354007616639" lon="-8.493075035512447">
        <ele>260.64999999999998</ele>
        <time>2025-05-07T09:34:08Z</time>
      </trkpt>
      <trkpt lat="37.334533967077732" lon="-8.49310495890677">
        <ele>259.20999999999998</ele>
        <time>2025-05-07T09:34:09Z</time>
      </trkpt>
      <trkpt lat="37.334676962345839" lon="-8.493162961676717">
        <ele>257.76999999999998</ele>
        <time>2025-05-07T09:34:10Z</time>
      </trkpt>
      <trkpt lat="37.334822975099087" lon="-8.493263041600585">
        <ele>256.32999999999998</ele>
        <time>2025-05-07T09:34:11Z</time>
      </trkpt>
      <trkpt lat="37.334978962317109" lon="-8.493368988856673">
        <ele>254.41</ele>
        <time>2025-05-07T09:34:12Z</time>
      </trkpt>
      <trkpt lat="37.335131010040641" lon="-8.493492035195231">
        <ele>252.96000000000001</ele>
        <time>2025-05-07T09:34:13Z</time>
      </trkpt>
      <trkpt lat="37.335285991430283" lon="-8.493595970794559">
        <ele>251.52000000000001</ele>
        <time>2025-05-07T09:34:14Z</time>
      </trkpt>
      <trkpt lat="37.335449019446969" lon="-8.493694039061666">
        <ele>250.08000000000001</ele>
        <time>2025-05-07T09:34:15Z</time>
      </trkpt>
      <trkpt lat="37.335630990564823" lon="-8.493762016296387">
        <ele>248.63999999999999</ele>
        <time>2025-05-07T09:34:16Z</time>
      </trkpt>
      <trkpt lat="37.337216008454561" lon="-8.494180021807551">
        <ele>236.62</ele>
        <time>2025-05-07T09:34:24Z</time>
      </trkpt>
      <trkpt lat="37.337424969300628" lon="-8.494186978787184">
        <ele>234.69999999999999</ele>
        <time>2025-05-07T09:34:25Z</time>
      </trkpt>
      <trkpt lat="37.338893981650472" lon="-8.493991009891033">
        <ele>222.68000000000001</ele>
        <time>2025-05-07T09:34:32Z</time>
      </trkpt>
      <trkpt lat="37.339063966646791" lon="-8.493913980200887">
        <ele>221.24000000000001</ele>
        <time>2025-05-07T09:34:33Z</time>
      </trkpt>
      <trkpt lat="37.339204028248787" lon="-8.493805015459657">
        <ele>219.80000000000001</ele>
        <time>2025-05-07T09:34:34Z</time>
      </trkpt>
      <trkpt lat="37.339316010475159" lon="-8.493663026019931">
        <ele>218.36000000000001</ele>
        <time>2025-05-07T09:34:35Z</time>
      </trkpt>
      <trkpt lat="37.339438972994685" lon="-8.493507038801909">
        <ele>217.40000000000001</ele>
        <time>2025-05-07T09:34:36Z</time>
      </trkpt>
      <trkpt lat="37.339560007676482" lon="-8.493335964158177">
        <ele>216.43000000000001</ele>
        <time>2025-05-07T09:34:37Z</time>
      </trkpt>
      <trkpt lat="37.33966302126646" lon="-8.493153993040323">
        <ele>214.99000000000001</ele>
        <time>2025-05-07T09:34:38Z</time>
      </trkpt>
      <trkpt lat="37.339735021814704" lon="-8.492948971688747">
        <ele>213.55000000000001</ele>
        <time>2025-05-07T09:34:39Z</time>
      </trkpt>
      <trkpt lat="37.339767962694168" lon="-8.492727018892765">
        <ele>212.11000000000001</ele>
        <time>2025-05-07T09:34:40Z</time>
      </trkpt>
      <trkpt lat="37.339786989614367" lon="-8.492485033348203">
        <ele>211.15000000000001</ele>
        <time>2025-05-07T09:34:41Z</time>
      </trkpt>
      <trkpt lat="37.339795036241412" lon="-8.492227960377932">
        <ele>209.69999999999999</ele>
        <time>2025-05-07T09:34:42Z</time>
      </trkpt>
      <trkpt lat="37.339839963242412" lon="-8.491489011794329">
        <ele>205.86000000000001</ele>
        <time>2025-05-07T09:34:45Z</time>
      </trkpt>
      <trkpt lat="37.339885979890823" lon="-8.491286002099514">
        <ele>204.41999999999999</ele>
        <time>2025-05-07T09:34:46Z</time>
      </trkpt>
      <trkpt lat="37.339957980439067" lon="-8.491110987961292">
        <ele>203.46000000000001</ele>
        <time>2025-05-07T09:34:47Z</time>
      </trkpt>
      <trkpt lat="37.340060994029045" lon="-8.49097503349185">
        <ele>202.00999999999999</ele>
        <time>2025-05-07T09:34:48Z</time>
      </trkpt>
      <trkpt lat="37.340184962376952" lon="-8.490887023508549">
        <ele>201.05000000000001</ele>
        <time>2025-05-07T09:34:49Z</time>
      </trkpt>
      <trkpt lat="37.340313959866762" lon="-8.490797001868486">
        <ele>200.09</ele>
        <time>2025-05-07T09:34:50Z</time>
      </trkpt>
      <trkpt lat="37.340439017862082" lon="-8.490708991885185">
        <ele>199.13</ele>
        <time>2025-05-07T09:34:51Z</time>
      </trkpt>
      <trkpt lat="37.340549994260073" lon="-8.490605978295207">
        <ele>198.16999999999999</ele>
        <time>2025-05-07T09:34:52Z</time>
      </trkpt>
      <trkpt lat="37.340649990364909" lon="-8.490476980805397">
        <ele>197.21000000000001</ele>
        <time>2025-05-07T09:34:53Z</time>
      </trkpt>
      <trkpt lat="37.34071696177125" lon="-8.490302972495556">
        <ele>196.25</ele>
        <time>2025-05-07T09:34:54Z</time>
      </trkpt>
      <trkpt lat="37.340790973976254" lon="-8.490111026912928">
        <ele>195.77000000000001</ele>
        <time>2025-05-07T09:34:55Z</time>
      </trkpt>
      <trkpt lat="37.340871021151543" lon="-8.48990298807621">
        <ele>194.80000000000001</ele>
        <time>2025-05-07T09:34:56Z</time>
      </trkpt>
      <trkpt lat="37.341246027499437" lon="-8.489033030346036">
        <ele>190.47999999999999</ele>
        <time>2025-05-07T09:35:00Z</time>
      </trkpt>
      <trkpt lat="37.341373013332486" lon="-8.488864973187447">
        <ele>189.52000000000001</ele>
        <time>2025-05-07T09:35:01Z</time>
      </trkpt>
      <trkpt lat="37.341516008600593" lon="-8.488726001232863">
        <ele>188.08000000000001</ele>
        <time>2025-05-07T09:35:02Z</time>
      </trkpt>
      <trkpt lat="37.341686999425292" lon="-8.488622987642884">
        <ele>186.63</ele>
        <time>2025-05-07T09:35:03Z</time>
      </trkpt>
      <trkpt lat="37.341865031048656" lon="-8.488515028730035">
        <ele>185.19</ele>
        <time>2025-05-07T09:35:04Z</time>
      </trkpt>
      <trkpt lat="37.342211036011577" lon="-8.488284023478627">
        <ele>182.31</ele>
        <time>2025-05-07T09:35:06Z</time>
      </trkpt>
      <trkpt lat="37.3423479963094" lon="-8.488135999068618">
        <ele>181.34999999999999</ele>
        <time>2025-05-07T09:35:07Z</time>
      </trkpt>
      <trkpt lat="37.3424550332129" lon="-8.487997027114034">
        <ele>179.90000000000001</ele>
        <time>2025-05-07T09:35:08Z</time>
      </trkpt>
      <trkpt lat="37.342515969648957" lon="-8.487800974398851">
        <ele>178.94</ele>
        <time>2025-05-07T09:35:09Z</time>
      </trkpt>
      <trkpt lat="37.342566009610891" lon="-8.487597964704037">
        <ele>177.5</ele>
        <time>2025-05-07T09:35:10Z</time>
      </trkpt>
      <trkpt lat="37.34260599128902" lon="-8.487362014129758">
        <ele>176.53999999999999</ele>
        <time>2025-05-07T09:35:11Z</time>
      </trkpt>
      <trkpt lat="37.342645972967148" lon="-8.487121034413576">
        <ele>175.09999999999999</ele>
        <time>2025-05-07T09:35:12Z</time>
      </trkpt>
      <trkpt lat="37.342686960473657" lon="-8.486877037212253">
        <ele>174.13999999999999</ele>
        <time>2025-05-07T09:35:13Z</time>
      </trkpt>
      <trkpt lat="37.342742029577494" lon="-8.486624993383884">
        <ele>172.69</ele>
        <time>2025-05-07T09:35:14Z</time>
      </trkpt>
      <trkpt lat="37.34282098710537" lon="-8.486374039202929">
        <ele>171.25</ele>
        <time>2025-05-07T09:35:15Z</time>
      </trkpt>
      <trkpt lat="37.343235975131392" lon="-8.485164027661085">
        <ele>163.08000000000001</ele>
        <time>2025-05-07T09:35:20Z</time>
      </trkpt>
      <trkpt lat="37.343280985951424" lon="-8.484936039894819">
        <ele>161.63999999999999</ele>
        <time>2025-05-07T09:35:21Z</time>
      </trkpt>
      <trkpt lat="37.343280985951424" lon="-8.484708974137902">
        <ele>160.19999999999999</ele>
        <time>2025-05-07T09:35:22Z</time>
      </trkpt>
      <trkpt lat="37.343235975131392" lon="-8.484508981928229">
        <ele>158.27000000000001</ele>
        <time>2025-05-07T09:35:23Z</time>
      </trkpt>
      <trkpt lat="37.34316598623991" lon="-8.484332961961627">
        <ele>156.34999999999999</ele>
        <time>2025-05-07T09:35:24Z</time>
      </trkpt>
      <trkpt lat="37.343073030933738" lon="-8.484156019985676">
        <ele>154.91</ele>
        <time>2025-05-07T09:35:25Z</time>
      </trkpt>
      <trkpt lat="37.342974962666631" lon="-8.483986034989357">
        <ele>152.99000000000001</ele>
        <time>2025-05-07T09:35:26Z</time>
      </trkpt>
      <trkpt lat="37.342859040945768" lon="-8.483837004750967">
        <ele>151.53999999999999</ele>
        <time>2025-05-07T09:35:27Z</time>
      </trkpt>
      <trkpt lat="37.342754015699029" lon="-8.483701972290874">
        <ele>149.62</ele>
        <time>2025-05-07T09:35:28Z</time>
      </trkpt>
      <trkpt lat="37.342685032635927" lon="-8.483542967587709">
        <ele>148.18000000000001</ele>
        <time>2025-05-07T09:35:29Z</time>
      </trkpt>
      <trkpt lat="37.342659970745444" lon="-8.483408018946648">
        <ele>147.22</ele>
        <time>2025-05-07T09:35:30Z</time>
      </trkpt>
      <trkpt lat="37.342699030414224" lon="-8.483261000365019">
        <ele>145.78</ele>
        <time>2025-05-07T09:35:31Z</time>
      </trkpt>
      <trkpt lat="37.342742029577494" lon="-8.483116999268532">
        <ele>144.81999999999999</ele>
        <time>2025-05-07T09:35:32Z</time>
      </trkpt>
      <trkpt lat="37.342789974063635" lon="-8.482953971251845">
        <ele>143.84999999999999</ele>
        <time>2025-05-07T09:35:33Z</time>
      </trkpt>
      <trkpt lat="37.343077976256609" lon="-8.482199013233185">
        <ele>141.93000000000001</ele>
        <time>2025-05-07T09:35:37Z</time>
      </trkpt>
      <trkpt lat="37.343180989846587" lon="-8.481997009366751">
        <ele>141.93000000000001</ele>
        <time>2025-05-07T09:35:38Z</time>
      </trkpt>
      <trkpt lat="37.343374025076628" lon="-8.481617979705334">
        <ele>142.41</ele>
        <time>2025-05-07T09:35:40Z</time>
      </trkpt>
      <trkpt lat="37.343463962897658" lon="-8.481442965567112">
        <ele>142.88999999999999</ele>
        <time>2025-05-07T09:35:41Z</time>
      </trkpt>
      <trkpt lat="37.343528000637889" lon="-8.481256971135736">
        <ele>143.37</ele>
        <time>2025-05-07T09:35:42Z</time>
      </trkpt>
      <trkpt lat="37.343555996194482" lon="-8.481063013896346">
        <ele>143.84999999999999</ele>
        <time>2025-05-07T09:35:43Z</time>
      </trkpt>
      <trkpt lat="37.343533029779792" lon="-8.480866961181164">
        <ele>144.81999999999999</ele>
        <time>2025-05-07T09:35:44Z</time>
      </trkpt>
      <trkpt lat="37.343504028394818" lon="-8.480678033083677">
        <ele>145.78</ele>
        <time>2025-05-07T09:35:45Z</time>
      </trkpt>
      <trkpt lat="37.343476032838225" lon="-8.480494972318411">
        <ele>146.74000000000001</ele>
        <time>2025-05-07T09:35:46Z</time>
      </trkpt>
      <trkpt lat="37.343496987596154" lon="-8.480331022292376">
        <ele>147.69999999999999</ele>
        <time>2025-05-07T09:35:47Z</time>
      </trkpt>
      <trkpt lat="37.34353001229465" lon="-8.480186015367508">
        <ele>148.66</ele>
        <time>2025-05-07T09:35:48Z</time>
      </trkpt>
      <trkpt lat="37.343619028106332" lon="-8.480078978464007">
        <ele>150.09999999999999</ele>
        <time>2025-05-07T09:35:49Z</time>
      </trkpt>
      <trkpt lat="37.343731010332704" lon="-8.479943023994565">
        <ele>151.06</ele>
        <time>2025-05-07T09:35:50Z</time>
      </trkpt>
      <trkpt lat="37.343850033357739" lon="-8.479906981810927">
        <ele>152.03</ele>
        <time>2025-05-07T09:35:51Z</time>
      </trkpt>
      <trkpt lat="37.344004008919001" lon="-8.479859959334135">
        <ele>152.99000000000001</ele>
        <time>2025-05-07T09:35:52Z</time>
      </trkpt>
      <trkpt lat="37.344704987481236" lon="-8.479613028466702">
        <ele>156.83000000000001</ele>
        <time>2025-05-07T09:35:56Z</time>
      </trkpt>
      <trkpt lat="37.344872038811445" lon="-8.479497022926807">
        <ele>158.27000000000001</ele>
        <time>2025-05-07T09:35:57Z</time>
      </trkpt>
      <trkpt lat="37.345036994665861" lon="-8.479367019608617">
        <ele>159.24000000000001</ele>
        <time>2025-05-07T09:35:58Z</time>
      </trkpt>
      <trkpt lat="37.345178984105587" lon="-8.479198040440679">
        <ele>160.68000000000001</ele>
        <time>2025-05-07T09:35:59Z</time>
      </trkpt>
      <trkpt lat="37.345323991030455" lon="-8.479023026302457">
        <ele>162.12</ele>
        <time>2025-05-07T09:36:00Z</time>
      </trkpt>
      <trkpt lat="37.345468997955322" lon="-8.478849017992616">
        <ele>163.56</ele>
        <time>2025-05-07T09:36:01Z</time>
      </trkpt>
      <trkpt lat="37.346209036186337" lon="-8.477788958698511">
        <ele>170.28999999999999</ele>
        <time>2025-05-07T09:36:07Z</time>
      </trkpt>
      <trkpt lat="37.34630199149251" lon="-8.477626014500856">
        <ele>171.25</ele>
        <time>2025-05-07T09:36:08Z</time>
      </trkpt>
      <trkpt lat="37.346541965380311" lon="-8.477089991793037">
        <ele>173.16999999999999</ele>
        <time>2025-05-07T09:36:11Z</time>
      </trkpt>
      <trkpt lat="37.346652019768953" lon="-8.47694699652493">
        <ele>173.66</ele>
        <time>2025-05-07T09:36:12Z</time>
      </trkpt>
      <trkpt lat="37.346764001995325" lon="-8.476805007085204">
        <ele>173.66</ele>
        <time>2025-05-07T09:36:13Z</time>
      </trkpt>
      <trkpt lat="37.34690397977829" lon="-8.476695958524942">
        <ele>174.13999999999999</ele>
        <time>2025-05-07T09:36:14Z</time>
      </trkpt>
      <trkpt lat="37.347064996138215" lon="-8.476617000997067">
        <ele>174.62</ele>
        <time>2025-05-07T09:36:15Z</time>
      </trkpt>
      <trkpt lat="37.347615016624331" lon="-8.47641097381711">
        <ele>177.02000000000001</ele>
        <time>2025-05-07T09:36:19Z</time>
      </trkpt>
      <trkpt lat="37.34771903604269" lon="-8.476348025724292">
        <ele>177.5</ele>
        <time>2025-05-07T09:36:20Z</time>
      </trkpt>
      <trkpt lat="37.347830012440681" lon="-8.476274013519287">
        <ele>177.5</ele>
        <time>2025-05-07T09:36:21Z</time>
      </trkpt>
      <trkpt lat="37.347875023260713" lon="-8.47619497217238">
        <ele>177.97999999999999</ele>
        <time>2025-05-07T09:36:22Z</time>
      </trkpt>
      <trkpt lat="37.347921039909124" lon="-8.476094976067543">
        <ele>177.97999999999999</ele>
        <time>2025-05-07T09:36:23Z</time>
      </trkpt>
      <trkpt lat="37.347941994667053" lon="-8.475992968305945">
        <ele>178.46000000000001</ele>
        <time>2025-05-07T09:36:24Z</time>
      </trkpt>
      <trkpt lat="37.347959009930491" lon="-8.475908981636167">
        <ele>178.94</ele>
        <time>2025-05-07T09:36:25Z</time>
      </trkpt>
      <trkpt lat="37.347931014373899" lon="-8.475804962217808">
        <ele>179.41999999999999</ele>
        <time>2025-05-07T09:36:26Z</time>
      </trkpt>
      <trkpt lat="37.347906958311796" lon="-8.475717036053538">
        <ele>180.38</ele>
        <time>2025-05-07T09:36:27Z</time>
      </trkpt>
      <trkpt lat="37.347873011603951" lon="-8.475587032735348">
        <ele>180.87</ele>
        <time>2025-05-07T09:36:28Z</time>
      </trkpt>
      <trkpt lat="37.34780402854085" lon="-8.47552802413702">
        <ele>181.83000000000001</ele>
        <time>2025-05-07T09:36:29Z</time>
      </trkpt>
      <trkpt lat="37.347713001072407" lon="-8.475448982790113">
        <ele>182.78999999999999</ele>
        <time>2025-05-07T09:36:30Z</time>
      </trkpt>
      <trkpt lat="37.347615016624331" lon="-8.475363990291953">
        <ele>183.27000000000001</ele>
        <time>2025-05-07T09:36:31Z</time>
      </trkpt>
      <trkpt lat="37.347495993599296" lon="-8.475288972258568">
        <ele>184.22999999999999</ele>
        <time>2025-05-07T09:36:32Z</time>
      </trkpt>
      <trkpt lat="37.347244033589959" lon="-8.475197022780776">
        <ele>187.11000000000001</ele>
        <time>2025-05-07T09:36:34Z</time>
      </trkpt>
      <trkpt lat="37.347115036100149" lon="-8.475150000303984">
        <ele>188.56</ele>
        <time>2025-05-07T09:36:35Z</time>
      </trkpt>
      <trkpt lat="37.346971035003662" lon="-8.47514295950532">
        <ele>190</ele>
        <time>2025-05-07T09:36:36Z</time>
      </trkpt>
      <trkpt lat="37.346830973401666" lon="-8.475152011960745">
        <ele>191.44</ele>
        <time>2025-05-07T09:36:37Z</time>
      </trkpt>
      <trkpt lat="37.346685966476798" lon="-8.475165003910661">
        <ele>193.36000000000001</ele>
        <time>2025-05-07T09:36:38Z</time>
      </trkpt>
      <trkpt lat="37.345983982086182" lon="-8.475266005843878">
        <ele>202.49000000000001</ele>
        <time>2025-05-07T09:36:43Z</time>
      </trkpt>
      <trkpt lat="37.345865964889526" lon="-8.475229041650891">
        <ele>203.94</ele>
        <time>2025-05-07T09:36:44Z</time>
      </trkpt>
      <trkpt lat="37.345749959349632" lon="-8.475194005295634">
        <ele>205.86000000000001</ele>
        <time>2025-05-07T09:36:46Z</time>
      </trkpt>
      <trkpt lat="37.345490958541632" lon="-8.475029971450567">
        <ele>213.55000000000001</ele>
        <time>2025-05-07T09:36:54Z</time>
      </trkpt>
      <trkpt lat="37.345490958541632" lon="-8.475029971450567">
        <ele>215.47</ele>
        <time>2025-05-07T09:37:05Z</time>
      </trkpt>
      <trkpt lat="37.345534041523933" lon="-8.4751629922539">
        <ele>215.94999999999999</ele>
        <time>2025-05-07T09:38:24Z</time>
      </trkpt>
      <trkpt lat="37.345490958541632" lon="-8.475029971450567">
        <ele>215.94999999999999</ele>
        <time>2025-05-07T09:38:39Z</time>
      </trkpt>
      <trkpt lat="37.345490958541632" lon="-8.475029971450567">
        <ele>215.94999999999999</ele>
        <time>2025-05-07T09:38:40Z</time>
      </trkpt>
      <trkpt lat="37.345470003783703" lon="-8.475002981722355">
        <ele>216.43000000000001</ele>
        <time>2025-05-07T09:38:41Z</time>
      </trkpt>
      <trkpt lat="37.34540001489222" lon="-8.474916983395815">
        <ele>216.91</ele>
        <time>2025-05-07T09:38:42Z</time>
      </trkpt>
      <trkpt lat="37.345318039879203" lon="-8.474816987290978">
        <ele>217.40000000000001</ele>
        <time>2025-05-07T09:38:43Z</time>
      </trkpt>
      <trkpt lat="37.344480017200112" lon="-8.47372499294579">
        <ele>226.05000000000001</ele>
        <time>2025-05-07T09:38:52Z</time>
      </trkpt>
      <trkpt lat="37.343974001705647" lon="-8.472983026877046">
        <ele>234.22</ele>
        <time>2025-05-07T09:38:57Z</time>
      </trkpt>
      <trkpt lat="37.343897977843881" lon="-8.472816981375217">
        <ele>235.66</ele>
        <time>2025-05-07T09:38:58Z</time>
      </trkpt>
      <trkpt lat="37.343617016449571" lon="-8.472114996984601">
        <ele>243.34999999999999</ele>
        <time>2025-05-07T09:39:02Z</time>
      </trkpt>
      <trkpt lat="37.343525988981128" lon="-8.471935037523508">
        <ele>245.27000000000001</ele>
        <time>2025-05-07T09:39:03Z</time>
      </trkpt>
      <trkpt lat="37.342822998762131" lon="-8.470892999321222">
        <ele>256.81</ele>
        <time>2025-05-07T09:39:09Z</time>
      </trkpt>
      <trkpt lat="37.342683020979166" lon="-8.470765007659793">
        <ele>258.73000000000002</ele>
        <time>2025-05-07T09:39:10Z</time>
      </trkpt>
      <trkpt lat="37.342531979084015" lon="-8.470656964927912">
        <ele>260.64999999999998</ele>
        <time>2025-05-07T09:39:11Z</time>
      </trkpt>
      <trkpt lat="37.342384038493037" lon="-8.470551017671824">
        <ele>263.06</ele>
        <time>2025-05-07T09:39:12Z</time>
      </trkpt>
      <trkpt lat="37.342228973284364" lon="-8.470458984375">
        <ele>264.98000000000002</ele>
        <time>2025-05-07T09:39:13Z</time>
      </trkpt>
      <trkpt lat="37.341465968638659" lon="-8.47009495832026">
        <ele>274.11000000000001</ele>
        <time>2025-05-07T09:39:18Z</time>
      </trkpt>
      <trkpt lat="37.3413170222193" lon="-8.470055982470512">
        <ele>276.04000000000002</ele>
        <time>2025-05-07T09:39:19Z</time>
      </trkpt>
      <trkpt lat="37.341160029172897" lon="-8.470043996348977">
        <ele>277.95999999999998</ele>
        <time>2025-05-07T09:39:20Z</time>
      </trkpt>
      <trkpt lat="37.340999012812972" lon="-8.470080038532615">
        <ele>279.88</ele>
        <time>2025-05-07T09:39:21Z</time>
      </trkpt>
      <trkpt lat="37.340837996453047" lon="-8.470117002725601">
        <ele>281.31999999999999</ele>
        <time>2025-05-07T09:39:22Z</time>
      </trkpt>
      <trkpt lat="37.340676980093122" lon="-8.470167964696884">
        <ele>282.76999999999998</ele>
        <time>2025-05-07T09:39:23Z</time>
      </trkpt>
      <trkpt lat="37.340518981218338" lon="-8.470237031579018">
        <ele>284.69</ele>
        <time>2025-05-07T09:39:24Z</time>
      </trkpt>
      <trkpt lat="37.340239025652409" lon="-8.470352031290531">
        <ele>288.05000000000001</ele>
        <time>2025-05-07T09:39:26Z</time>
      </trkpt>
      <trkpt lat="37.340083960443735" lon="-8.470352031290531">
        <ele>289.49000000000001</ele>
        <time>2025-05-07T09:39:27Z</time>
      </trkpt>
      <trkpt lat="37.339976001530886" lon="-8.470306014642119">
        <ele>290.94</ele>
        <time>2025-05-07T09:39:28Z</time>
      </trkpt>
      <trkpt lat="37.339880028739572" lon="-8.470203001052141">
        <ele>292.38</ele>
        <time>2025-05-07T09:39:29Z</time>
      </trkpt>
      <trkpt lat="37.339799981564283" lon="-8.470078026875854">
        <ele>293.81999999999999</ele>
        <time>2025-05-07T09:39:30Z</time>
      </trkpt>
      <trkpt lat="37.339767962694168" lon="-8.469933019950986">
        <ele>295.25999999999999</ele>
        <time>2025-05-07T09:39:31Z</time>
      </trkpt>
      <trkpt lat="37.339777015149593" lon="-8.46979396417737">
        <ele>297.18000000000001</ele>
        <time>2025-05-07T09:39:32Z</time>
      </trkpt>
      <trkpt lat="37.339804004877806" lon="-8.469645017758012">
        <ele>298.63</ele>
        <time>2025-05-07T09:39:33Z</time>
      </trkpt>
      <trkpt lat="37.339864019304514" lon="-8.46951300278306">
        <ele>300.06999999999999</ele>
        <time>2025-05-07T09:39:34Z</time>
      </trkpt>
      <trkpt lat="37.339929984882474" lon="-8.469373025000095">
        <ele>301.99000000000001</ele>
        <time>2025-05-07T09:39:35Z</time>
      </trkpt>
      <trkpt lat="37.340005002915859" lon="-8.469229023903608">
        <ele>303.43000000000001</ele>
        <time>2025-05-07T09:39:36Z</time>
      </trkpt>
      <trkpt lat="37.340207006782293" lon="-8.468743041157723">
        <ele>309.19999999999999</ele>
        <time>2025-05-07T09:39:39Z</time>
      </trkpt>
      <trkpt lat="37.340255035087466" lon="-8.468570960685611">
        <ele>310.63999999999999</ele>
        <time>2025-05-07T09:39:40Z</time>
      </trkpt>
      <trkpt lat="37.340266015380621" lon="-8.468384966254234">
        <ele>312.08999999999997</ele>
        <time>2025-05-07T09:39:41Z</time>
      </trkpt>
      <trkpt lat="37.340275989845395" lon="-8.468196960166097">
        <ele>313.52999999999997</ele>
        <time>2025-05-07T09:39:42Z</time>
      </trkpt>
      <trkpt lat="37.340227039530873" lon="-8.468017000705004">
        <ele>314.97000000000003</ele>
        <time>2025-05-07T09:39:43Z</time>
      </trkpt>
      <trkpt lat="37.340169036760926" lon="-8.467820025980473">
        <ele>316.41000000000003</ele>
        <time>2025-05-07T09:39:44Z</time>
      </trkpt>
      <trkpt lat="37.340087983757257" lon="-8.467649035155773">
        <ele>317.85000000000002</ele>
        <time>2025-05-07T09:39:45Z</time>
      </trkpt>
      <trkpt lat="37.339997040107846" lon="-8.467459017410874">
        <ele>319.30000000000001</ele>
        <time>2025-05-07T09:39:46Z</time>
      </trkpt>
      <trkpt lat="37.339508039876819" lon="-8.466342967003584">
        <ele>326.99000000000001</ele>
        <time>2025-05-07T09:39:52Z</time>
      </trkpt>
      <trkpt lat="37.339482977986336" lon="-8.466188991442323">
        <ele>327.94999999999999</ele>
        <time>2025-05-07T09:39:53Z</time>
      </trkpt>
      <trkpt lat="37.339547015726566" lon="-8.466027975082398">
        <ele>328.91000000000003</ele>
        <time>2025-05-07T09:39:54Z</time>
      </trkpt>
      <trkpt lat="37.339606024324894" lon="-8.46588003449142">
        <ele>329.38999999999999</ele>
        <time>2025-05-07T09:39:55Z</time>
      </trkpt>
      <trkpt lat="37.33970501460135" lon="-8.465794958174229">
        <ele>330.35000000000002</ele>
        <time>2025-05-07T09:39:56Z</time>
      </trkpt>
      <trkpt lat="37.339818002656102" lon="-8.465713988989592">
        <ele>330.82999999999998</ele>
        <time>2025-05-07T09:39:57Z</time>
      </trkpt>
      <trkpt lat="37.339962003752589" lon="-8.465678030624986">
        <ele>331.79000000000002</ele>
        <time>2025-05-07T09:39:58Z</time>
      </trkpt>
      <trkpt lat="37.340126037597656" lon="-8.465697979554534">
        <ele>331.79000000000002</ele>
        <time>2025-05-07T09:39:59Z</time>
      </trkpt>
      <trkpt lat="37.340300967916846" lon="-8.465724969282746">
        <ele>331.79000000000002</ele>
        <time>2025-05-07T09:40:00Z</time>
      </trkpt>
      <trkpt lat="37.341866958886385" lon="-8.46596603281796">
        <ele>328.43000000000001</ele>
        <time>2025-05-07T09:40:08Z</time>
      </trkpt>
      <trkpt lat="37.342043984681368" lon="-8.465929990634322">
        <ele>327.47000000000003</ele>
        <time>2025-05-07T09:40:09Z</time>
      </trkpt>
      <trkpt lat="37.34219703823328" lon="-8.465862013399601">
        <ele>326.5</ele>
        <time>2025-05-07T09:40:10Z</time>
      </trkpt>
      <trkpt lat="37.34232502989471" lon="-8.465747013688088">
        <ele>325.54000000000002</ele>
        <time>2025-05-07T09:40:11Z</time>
      </trkpt>
      <trkpt lat="37.342429971322417" lon="-8.465608963742852">
        <ele>324.57999999999998</ele>
        <time>2025-05-07T09:40:12Z</time>
      </trkpt>
      <trkpt lat="37.342507001012564" lon="-8.465438978746533">
        <ele>323.62</ele>
        <time>2025-05-07T09:40:13Z</time>
      </trkpt>
      <trkpt lat="37.342557040974498" lon="-8.465233035385609">
        <ele>323.13999999999999</ele>
        <time>2025-05-07T09:40:14Z</time>
      </trkpt>
      <trkpt lat="37.342609008774161" lon="-8.465018039569259">
        <ele>322.66000000000003</ele>
        <time>2025-05-07T09:40:15Z</time>
      </trkpt>
      <trkpt lat="37.342729959636927" lon="-8.464563991874456">
        <ele>322.18000000000001</ele>
        <time>2025-05-07T09:40:17Z</time>
      </trkpt>
      <trkpt lat="37.342827022075653" lon="-8.464350001886487">
        <ele>321.69999999999999</ele>
        <time>2025-05-07T09:40:18Z</time>
      </trkpt>
      <trkpt lat="37.343655992299318" lon="-8.462952990084887">
        <ele>324.57999999999998</ele>
        <time>2025-05-07T09:40:25Z</time>
      </trkpt>
      <trkpt lat="37.343805022537708" lon="-8.462795997038484">
        <ele>324.57999999999998</ele>
        <time>2025-05-07T09:40:26Z</time>
      </trkpt>
      <trkpt lat="37.343972995877266" lon="-8.462668005377054">
        <ele>324.10000000000002</ele>
        <time>2025-05-07T09:40:27Z</time>
      </trkpt>
      <trkpt lat="37.344153961166739" lon="-8.462578989565373">
        <ele>323.62</ele>
        <time>2025-05-07T09:40:28Z</time>
      </trkpt>
      <trkpt lat="37.344336016103625" lon="-8.462489973753691">
        <ele>323.13999999999999</ele>
        <time>2025-05-07T09:40:29Z</time>
      </trkpt>
      <trkpt lat="37.344521004706621" lon="-8.46239903010428">
        <ele>322.66000000000003</ele>
        <time>2025-05-07T09:40:30Z</time>
      </trkpt>
      <trkpt lat="37.345113018527627" lon="-8.462096024304628">
        <ele>320.25999999999999</ele>
        <time>2025-05-07T09:40:33Z</time>
      </trkpt>
      <trkpt lat="37.345303958281875" lon="-8.461957974359393">
        <ele>319.30000000000001</ele>
        <time>2025-05-07T09:40:34Z</time>
      </trkpt>
      <trkpt lat="37.345500010997057" lon="-8.461798969656229">
        <ele>317.85000000000002</ele>
        <time>2025-05-07T09:40:35Z</time>
      </trkpt>
      <trkpt lat="37.345687011256814" lon="-8.461596965789795">
        <ele>316.41000000000003</ele>
        <time>2025-05-07T09:40:36Z</time>
      </trkpt>
      <trkpt lat="37.345870994031429" lon="-8.461380964145064">
        <ele>314.97000000000003</ele>
        <time>2025-05-07T09:40:37Z</time>
      </trkpt>
      <trkpt lat="37.346484968438745" lon="-8.460569009184837">
        <ele>306.31999999999999</ele>
        <time>2025-05-07T09:40:41Z</time>
      </trkpt>
      <trkpt lat="37.346592005342245" lon="-8.46035803668201">
        <ele>303.91000000000003</ele>
        <time>2025-05-07T09:40:42Z</time>
      </trkpt>
      <trkpt lat="37.346627963706851" lon="-8.460125019773841">
        <ele>301.50999999999999</ele>
        <time>2025-05-07T09:40:43Z</time>
      </trkpt>
      <trkpt lat="37.346627963706851" lon="-8.459903988987207">
        <ele>299.11000000000001</ele>
        <time>2025-05-07T09:40:44Z</time>
      </trkpt>
      <trkpt lat="37.346571972593665" lon="-8.459692010655999">
        <ele>296.22000000000003</ele>
        <time>2025-05-07T09:40:45Z</time>
      </trkpt>
      <trkpt lat="37.346506007015705" lon="-8.459492018446326">
        <ele>293.81999999999999</ele>
        <time>2025-05-07T09:40:46Z</time>
      </trkpt>
      <trkpt lat="37.3464319948107" lon="-8.459274005144835">
        <ele>291.42000000000002</ele>
        <time>2025-05-07T09:40:47Z</time>
      </trkpt>
      <trkpt lat="37.346326969563961" lon="-8.459063032642007">
        <ele>289.00999999999999</ele>
        <time>2025-05-07T09:40:48Z</time>
      </trkpt>
      <trkpt lat="37.345953974872828" lon="-8.458200031891465">
        <ele>279.39999999999998</ele>
        <time>2025-05-07T09:40:52Z</time>
      </trkpt>
      <trkpt lat="37.345898989588022" lon="-8.457999033853412">
        <ele>277.48000000000002</ele>
        <time>2025-05-07T09:40:53Z</time>
      </trkpt>
      <trkpt lat="37.345898989588022" lon="-8.457773979753256">
        <ele>275.56</ele>
        <time>2025-05-07T09:40:54Z</time>
      </trkpt>
      <trkpt lat="37.345898989588022" lon="-8.457563007250428">
        <ele>273.14999999999998</ele>
        <time>2025-05-07T09:40:55Z</time>
      </trkpt>
      <trkpt lat="37.345952969044447" lon="-8.457333007827401">
        <ele>270.75</ele>
        <time>2025-05-07T09:40:56Z</time>
      </trkpt>
      <trkpt lat="37.346014995127916" lon="-8.457079036161304">
        <ele>268.35000000000002</ele>
        <time>2025-05-07T09:40:57Z</time>
      </trkpt>
      <trkpt lat="37.3465839587152" lon="-8.455194029957056">
        <ele>250.56</ele>
        <time>2025-05-07T09:41:04Z</time>
      </trkpt>
      <trkpt lat="37.347058961167932" lon="-8.453942025080323">
        <ele>239.99000000000001</ele>
        <time>2025-05-07T09:41:09Z</time>
      </trkpt>
      <trkpt lat="37.347087040543556" lon="-8.453670032322407">
        <ele>238.06</ele>
        <time>2025-05-07T09:41:10Z</time>
      </trkpt>
      <trkpt lat="37.347115036100149" lon="-8.45339803956449">
        <ele>236.13999999999999</ele>
        <time>2025-05-07T09:41:11Z</time>
      </trkpt>
      <trkpt lat="37.347115958109498" lon="-8.453127974644303">
        <ele>234.22</ele>
        <time>2025-05-07T09:41:12Z</time>
      </trkpt>
      <trkpt lat="37.347109001129866" lon="-8.452851036563516">
        <ele>232.30000000000001</ele>
        <time>2025-05-07T09:41:13Z</time>
      </trkpt>
      <trkpt lat="37.347101038321853" lon="-8.452574014663696">
        <ele>230.84999999999999</ele>
        <time>2025-05-07T09:41:14Z</time>
      </trkpt>
      <trkpt lat="37.347048986703157" lon="-8.451537005603313">
        <ele>223.63999999999999</ele>
        <time>2025-05-07T09:41:18Z</time>
      </trkpt>
      <trkpt lat="37.347092991694808" lon="-8.451306000351906">
        <ele>221.72</ele>
        <time>2025-05-07T09:41:19Z</time>
      </trkpt>
      <trkpt lat="37.347164992243052" lon="-8.451060997322202">
        <ele>219.31999999999999</ele>
        <time>2025-05-07T09:41:20Z</time>
      </trkpt>
      <trkpt lat="37.347945012152195" lon="-8.449184037744999">
        <ele>203.94</ele>
        <time>2025-05-07T09:41:28Z</time>
      </trkpt>
      <trkpt lat="37.348036961629987" lon="-8.448964012786746">
        <ele>202.00999999999999</ele>
        <time>2025-05-07T09:41:29Z</time>
      </trkpt>
      <trkpt lat="37.348159002140164" lon="-8.448776006698608">
        <ele>200.56999999999999</ele>
        <time>2025-05-07T09:41:30Z</time>
      </trkpt>
      <trkpt lat="37.34829998575151" lon="-8.448597975075245">
        <ele>199.13</ele>
        <time>2025-05-07T09:41:31Z</time>
      </trkpt>
      <trkpt lat="37.348453039303422" lon="-8.448427990078926">
        <ele>197.21000000000001</ele>
        <time>2025-05-07T09:41:32Z</time>
      </trkpt>
      <trkpt lat="37.348625035956502" lon="-8.448273008689284">
        <ele>195.77000000000001</ele>
        <time>2025-05-07T09:41:33Z</time>
      </trkpt>
      <trkpt lat="37.348798038437963" lon="-8.448117021471262">
        <ele>193.84</ele>
        <time>2025-05-07T09:41:34Z</time>
      </trkpt>
      <trkpt lat="37.349284021183848" lon="-8.447652999311686">
        <ele>188.08000000000001</ele>
        <time>2025-05-07T09:41:37Z</time>
      </trkpt>
      <trkpt lat="37.34939499758184" lon="-8.447467004880309">
        <ele>185.66999999999999</ele>
        <time>2025-05-07T09:41:38Z</time>
      </trkpt>
      <trkpt lat="37.349483007565141" lon="-8.447272041812539">
        <ele>183.27000000000001</ele>
        <time>2025-05-07T09:41:39Z</time>
      </trkpt>
      <trkpt lat="37.349532963708043" lon="-8.447070959955454">
        <ele>180.87</ele>
        <time>2025-05-07T09:41:40Z</time>
      </trkpt>
      <trkpt lat="37.349543021991849" lon="-8.446858981624246">
        <ele>178.46000000000001</ele>
        <time>2025-05-07T09:41:41Z</time>
      </trkpt>
      <trkpt lat="37.34952399507165" lon="-8.446639040485025">
        <ele>176.06</ele>
        <time>2025-05-07T09:41:42Z</time>
      </trkpt>
      <trkpt lat="37.34950396232307" lon="-8.44641599804163">
        <ele>173.66</ele>
        <time>2025-05-07T09:41:43Z</time>
      </trkpt>
      <trkpt lat="37.349485019221902" lon="-8.446198990568519">
        <ele>171.25</ele>
        <time>2025-05-07T09:41:44Z</time>
      </trkpt>
      <trkpt lat="37.34952500090003" lon="-8.445990029722452">
        <ele>168.84999999999999</ele>
        <time>2025-05-07T09:41:45Z</time>
      </trkpt>
      <trkpt lat="37.349574035033584" lon="-8.445780985057354">
        <ele>166.93000000000001</ele>
        <time>2025-05-07T09:41:46Z</time>
      </trkpt>
      <trkpt lat="37.349686017259955" lon="-8.445597002282739">
        <ele>164.03999999999999</ele>
        <time>2025-05-07T09:41:47Z</time>
      </trkpt>
      <trkpt lat="37.349821971729398" lon="-8.445426011458039">
        <ele>161.63999999999999</ele>
        <time>2025-05-07T09:41:48Z</time>
      </trkpt>
      <trkpt lat="37.349960021674633" lon="-8.445252003148198">
        <ele>159.72</ele>
        <time>2025-05-07T09:41:49Z</time>
      </trkpt>
      <trkpt lat="37.350236037746072" lon="-8.444904992356896">
        <ele>154.91</ele>
        <time>2025-05-07T09:41:51Z</time>
      </trkpt>
      <trkpt lat="37.350335028022528" lon="-8.444710029289126">
        <ele>152.99000000000001</ele>
        <time>2025-05-07T09:41:52Z</time>
      </trkpt>
      <trkpt lat="37.350425971671939" lon="-8.444516994059086">
        <ele>150.58000000000001</ele>
        <time>2025-05-07T09:41:53Z</time>
      </trkpt>
      <trkpt lat="37.350444998592138" lon="-8.444279031828046">
        <ele>148.18000000000001</ele>
        <time>2025-05-07T09:41:54Z</time>
      </trkpt>
      <trkpt lat="37.350464025512338" lon="-8.444028999656439">
        <ele>145.78</ele>
        <time>2025-05-07T09:41:55Z</time>
      </trkpt>
      <trkpt lat="37.350483974441886" lon="-8.443769998848438">
        <ele>143.37</ele>
        <time>2025-05-07T09:41:56Z</time>
      </trkpt>
      <trkpt lat="37.350609032437205" lon="-8.442481029778719">
        <ele>131.84</ele>
        <time>2025-05-07T09:42:01Z</time>
      </trkpt>
      <trkpt lat="37.350683966651559" lon="-8.442236026749015">
        <ele>129.43000000000001</ele>
        <time>2025-05-07T09:42:02Z</time>
      </trkpt>
      <trkpt lat="37.350759990513325" lon="-8.44199001789093">
        <ele>127.03</ele>
        <time>2025-05-07T09:42:03Z</time>
      </trkpt>
      <trkpt lat="37.350904997438192" lon="-8.441518032923341">
        <ele>122.70999999999999</ele>
        <time>2025-05-07T09:42:05Z</time>
      </trkpt>
      <trkpt lat="37.350945984944701" lon="-8.441288033500314">
        <ele>120.78</ele>
        <time>2025-05-07T09:42:06Z</time>
      </trkpt>
      <trkpt lat="37.350953025743365" lon="-8.441062979400158">
        <ele>118.86</ele>
        <time>2025-05-07T09:42:07Z</time>
      </trkpt>
      <trkpt lat="37.350914971902966" lon="-8.440848989412189">
        <ele>116.94</ele>
        <time>2025-05-07T09:42:08Z</time>
      </trkpt>
      <trkpt lat="37.350848000496626" lon="-8.440642040222883">
        <ele>115.5</ele>
        <time>2025-05-07T09:42:09Z</time>
      </trkpt>
      <trkpt lat="37.350736018270254" lon="-8.440466020256281">
        <ele>114.05</ele>
        <time>2025-05-07T09:42:10Z</time>
      </trkpt>
      <trkpt lat="37.350594028830528" lon="-8.440310033038259">
        <ele>113.09</ele>
        <time>2025-05-07T09:42:11Z</time>
      </trkpt>
      <trkpt lat="37.350437035784125" lon="-8.440156979486346">
        <ele>112.13</ele>
        <time>2025-05-07T09:42:12Z</time>
      </trkpt>
      <trkpt lat="37.350278031080961" lon="-8.440001998096705">
        <ele>111.65000000000001</ele>
        <time>2025-05-07T09:42:13Z</time>
      </trkpt>
      <trkpt lat="37.349796993657947" lon="-8.439520038664341">
        <ele>109.73</ele>
        <time>2025-05-07T09:42:16Z</time>
      </trkpt>
      <trkpt lat="37.349647041410208" lon="-8.439331026747823">
        <ele>109.25</ele>
        <time>2025-05-07T09:42:17Z</time>
      </trkpt>
      <trkpt lat="37.349537992849946" lon="-8.439102033153176">
        <ele>108.29000000000001</ele>
        <time>2025-05-07T09:42:18Z</time>
      </trkpt>
      <trkpt lat="37.349225012585521" lon="-8.438443969935179">
        <ele>105.88</ele>
        <time>2025-05-07T09:42:21Z</time>
      </trkpt>
      <trkpt lat="37.34909500926733" lon="-8.438298963010311">
        <ele>104.44</ele>
        <time>2025-05-07T09:42:22Z</time>
      </trkpt>
      <trkpt lat="37.348940027877688" lon="-8.438186980783939">
        <ele>103.48</ele>
        <time>2025-05-07T09:42:23Z</time>
      </trkpt>
      <trkpt lat="37.348752021789551" lon="-8.43807902187109">
        <ele>102.04000000000001</ele>
        <time>2025-05-07T09:42:24Z</time>
      </trkpt>
      <trkpt lat="37.348584970459342" lon="-8.43805898912251">
        <ele>101.08</ele>
        <time>2025-05-07T09:42:25Z</time>
      </trkpt>
      <trkpt lat="37.348396964371204" lon="-8.438037028536201">
        <ele>100.59999999999999</ele>
        <time>2025-05-07T09:42:26Z</time>
      </trkpt>
      <trkpt lat="37.348212981596589" lon="-8.438013978302479">
        <ele>99.629999999999995</ele>
        <time>2025-05-07T09:42:27Z</time>
      </trkpt>
      <trkpt lat="37.348037967458367" lon="-8.437955975532532">
        <ele>99.150000000000006</ele>
        <time>2025-05-07T09:42:28Z</time>
      </trkpt>
      <trkpt lat="37.347880974411964" lon="-8.437853967770934">
        <ele>98.189999999999998</ele>
        <time>2025-05-07T09:42:29Z</time>
      </trkpt>
      <trkpt lat="37.347724987193942" lon="-8.437748020514846">
        <ele>98.189999999999998</ele>
        <time>2025-05-07T09:42:30Z</time>
      </trkpt>
      <trkpt lat="37.347550978884101" lon="-8.43762899748981">
        <ele>97.709999999999994</ele>
        <time>2025-05-07T09:42:31Z</time>
      </trkpt>
      <trkpt lat="37.34744100831449" lon="-8.437487008050084">
        <ele>98.189999999999998</ele>
        <time>2025-05-07T09:42:32Z</time>
      </trkpt>
      <trkpt lat="37.347320979461074" lon="-8.437318028882146">
        <ele>98.189999999999998</ele>
        <time>2025-05-07T09:42:33Z</time>
      </trkpt>
      <trkpt lat="37.347232969477773" lon="-8.437129016965628">
        <ele>99.150000000000006</ele>
        <time>2025-05-07T09:42:34Z</time>
      </trkpt>
      <trkpt lat="37.347142025828362" lon="-8.436934975907207">
        <ele>99.150000000000006</ele>
        <time>2025-05-07T09:42:35Z</time>
      </trkpt>
      <trkpt lat="37.346745980903506" lon="-8.436197033151984">
        <ele>103.48</ele>
        <time>2025-05-07T09:42:39Z</time>
      </trkpt>
      <trkpt lat="37.346639027819037" lon="-8.436011038720608">
        <ele>104.92</ele>
        <time>2025-05-07T09:42:40Z</time>
      </trkpt>
      <trkpt lat="37.346506007015705" lon="-8.43584599904716">
        <ele>106.84</ele>
        <time>2025-05-07T09:42:41Z</time>
      </trkpt>
      <trkpt lat="37.34574400819838" lon="-8.435011999681592">
        <ele>116.45999999999999</ele>
        <time>2025-05-07T09:42:46Z</time>
      </trkpt>
      <trkpt lat="37.345574023202062" lon="-8.434884008020163">
        <ele>118.38</ele>
        <time>2025-05-07T09:42:47Z</time>
      </trkpt>
      <trkpt lat="37.345384005457163" lon="-8.434774959459901">
        <ele>120.3</ele>
        <time>2025-05-07T09:42:48Z</time>
      </trkpt>
      <trkpt lat="37.343962015584111" lon="-8.434343039989471">
        <ele>134.72</ele>
        <time>2025-05-07T09:42:55Z</time>
      </trkpt>
      <trkpt lat="37.343782978132367" lon="-8.43425402417779">
        <ele>135.19999999999999</ele>
        <time>2025-05-07T09:42:56Z</time>
      </trkpt>
      <trkpt lat="37.343623973429203" lon="-8.4341049939394">
        <ele>135.19999999999999</ele>
        <time>2025-05-07T09:42:57Z</time>
      </trkpt>
      <trkpt lat="37.342397030442953" lon="-8.432625001296401">
        <ele>131.36000000000001</ele>
        <time>2025-05-07T09:43:05Z</time>
      </trkpt>
      <trkpt lat="37.342096958309412" lon="-8.432249994948506">
        <ele>126.55</ele>
        <time>2025-05-07T09:43:09Z</time>
      </trkpt>
      <trkpt lat="37.342080026865005" lon="-8.432228034362197">
        <ele>124.15000000000001</ele>
        <time>2025-05-07T09:43:16Z</time>
      </trkpt>
      <trkpt lat="37.342080026865005" lon="-8.432228034362197">
        <ele>123.67</ele>
        <time>2025-05-07T09:43:51Z</time>
      </trkpt>
      <trkpt lat="37.341916998848319" lon="-8.432089984416962">
        <ele>122.70999999999999</ele>
        <time>2025-05-07T09:44:10Z</time>
      </trkpt>
      <trkpt lat="37.341820020228624" lon="-8.432013960555196">
        <ele>122.22</ele>
        <time>2025-05-07T09:44:11Z</time>
      </trkpt>
      <trkpt lat="37.341567976400256" lon="-8.431814974173904">
        <ele>121.73999999999999</ele>
        <time>2025-05-07T09:44:13Z</time>
      </trkpt>
      <trkpt lat="37.341420035809278" lon="-8.431708021089435">
        <ele>121.73999999999999</ele>
        <time>2025-05-07T09:44:14Z</time>
      </trkpt>
      <trkpt lat="37.3407799936831" lon="-8.431352041661739">
        <ele>121.73999999999999</ele>
        <time>2025-05-07T09:44:18Z</time>
      </trkpt>
      <trkpt lat="37.340659964829683" lon="-8.431262020021677">
        <ele>121.73999999999999</ele>
        <time>2025-05-07T09:44:19Z</time>
      </trkpt>
      <trkpt lat="37.34056600369513" lon="-8.431121958419681">
        <ele>122.22</ele>
        <time>2025-05-07T09:44:20Z</time>
      </trkpt>
      <trkpt lat="37.34050297178328" lon="-8.430965971201658">
        <ele>122.22</ele>
        <time>2025-05-07T09:44:21Z</time>
      </trkpt>
      <trkpt lat="37.34048000536859" lon="-8.430781988427043">
        <ele>122.70999999999999</ele>
        <time>2025-05-07T09:44:22Z</time>
      </trkpt>
      <trkpt lat="37.340477993711829" lon="-8.430604040622711">
        <ele>122.70999999999999</ele>
        <time>2025-05-07T09:44:23Z</time>
      </trkpt>
      <trkpt lat="37.340512024238706" lon="-8.430428020656109">
        <ele>123.19</ele>
        <time>2025-05-07T09:44:24Z</time>
      </trkpt>
      <trkpt lat="37.340599028393626" lon="-8.430289970710874">
        <ele>123.19</ele>
        <time>2025-05-07T09:44:25Z</time>
      </trkpt>
      <trkpt lat="37.34071696177125" lon="-8.430156027898192">
        <ele>122.70999999999999</ele>
        <time>2025-05-07T09:44:26Z</time>
      </trkpt>
      <trkpt lat="37.34084696508944" lon="-8.430008003488183">
        <ele>122.70999999999999</ele>
        <time>2025-05-07T09:44:27Z</time>
      </trkpt>
      <trkpt lat="37.341264970600605" lon="-8.429482039064169">
        <ele>121.73999999999999</ele>
        <time>2025-05-07T09:44:30Z</time>
      </trkpt>
      <trkpt lat="37.341352980583906" lon="-8.429262014105916">
        <ele>121.26000000000001</ele>
        <time>2025-05-07T09:44:31Z</time>
      </trkpt>
      <trkpt lat="37.341457000002265" lon="-8.429003013297916">
        <ele>120.78</ele>
        <time>2025-05-07T09:44:32Z</time>
      </trkpt>
      <trkpt lat="37.341673001646996" lon="-8.428131965920329">
        <ele>119.34</ele>
        <time>2025-05-07T09:44:36Z</time>
      </trkpt>
      <trkpt lat="37.341763023287058" lon="-8.427945971488953">
        <ele>118.38</ele>
        <time>2025-05-07T09:44:37Z</time>
      </trkpt>
      <trkpt lat="37.341913981363177" lon="-8.427817979827523">
        <ele>117.90000000000001</ele>
        <time>2025-05-07T09:44:38Z</time>
      </trkpt>
      <trkpt lat="37.342074997723103" lon="-8.4276810195297">
        <ele>117.42</ele>
        <time>2025-05-07T09:44:39Z</time>
      </trkpt>
      <trkpt lat="37.34224297106266" lon="-8.427538024261594">
        <ele>116.94</ele>
        <time>2025-05-07T09:44:40Z</time>
      </trkpt>
      <trkpt lat="37.342847976833582" lon="-8.426975011825562">
        <ele>114.05</ele>
        <time>2025-05-07T09:44:44Z</time>
      </trkpt>
      <trkpt lat="37.342959037050605" lon="-8.426813995465636">
        <ele>113.56999999999999</ele>
        <time>2025-05-07T09:44:45Z</time>
      </trkpt>
      <trkpt lat="37.343015028163791" lon="-8.426602017134428">
        <ele>113.56999999999999</ele>
        <time>2025-05-07T09:44:46Z</time>
      </trkpt>
      <trkpt lat="37.343050986528397" lon="-8.426394984126091">
        <ele>113.56999999999999</ele>
        <time>2025-05-07T09:44:47Z</time>
      </trkpt>
      <trkpt lat="37.343066995963454" lon="-8.426170013844967">
        <ele>113.56999999999999</ele>
        <time>2025-05-07T09:44:48Z</time>
      </trkpt>
      <trkpt lat="37.343083005398512" lon="-8.425933979451656">
        <ele>114.05</ele>
        <time>2025-05-07T09:44:49Z</time>
      </trkpt>
      <trkpt lat="37.343095997348428" lon="-8.425463000312448">
        <ele>115.5</ele>
        <time>2025-05-07T09:44:51Z</time>
      </trkpt>
      <trkpt lat="37.343060960993171" lon="-8.425226965919137">
        <ele>116.45999999999999</ele>
        <time>2025-05-07T09:44:52Z</time>
      </trkpt>
      <trkpt lat="37.343002036213875" lon="-8.424997972324491">
        <ele>116.94</ele>
        <time>2025-05-07T09:44:53Z</time>
      </trkpt>
      <trkpt lat="37.342921989038587" lon="-8.424768978729844">
        <ele>117.90000000000001</ele>
        <time>2025-05-07T09:44:54Z</time>
      </trkpt>
      <trkpt lat="37.342815035954118" lon="-8.424550965428352">
        <ele>118.86</ele>
        <time>2025-05-07T09:44:55Z</time>
      </trkpt>
      <trkpt lat="37.342685032635927" lon="-8.424340998753905">
        <ele>120.3</ele>
        <time>2025-05-07T09:44:56Z</time>
      </trkpt>
      <trkpt lat="37.342530973255634" lon="-8.424146035686135">
        <ele>121.73999999999999</ele>
        <time>2025-05-07T09:44:57Z</time>
      </trkpt>
      <trkpt lat="37.341713989153504" lon="-8.423209022730589">
        <ele>130.88</ele>
        <time>2025-05-07T09:45:02Z</time>
      </trkpt>
      <trkpt lat="37.341516008600593" lon="-8.423082958906889">
        <ele>132.80000000000001</ele>
        <time>2025-05-07T09:45:03Z</time>
      </trkpt>
      <trkpt lat="37.341310987249017" lon="-8.42295203357935">
        <ele>134.72</ele>
        <time>2025-05-07T09:45:04Z</time>
      </trkpt>
      <trkpt lat="37.339845998212695" lon="-8.421957017853856">
        <ele>152.03</ele>
        <time>2025-05-07T09:45:12Z</time>
      </trkpt>
      <trkpt lat="37.339724963530898" lon="-8.421812010928989">
        <ele>153.94999999999999</ele>
        <time>2025-05-07T09:45:13Z</time>
      </trkpt>
      <trkpt lat="37.339638965204358" lon="-8.421631967648864">
        <ele>155.38999999999999</ele>
        <time>2025-05-07T09:45:14Z</time>
      </trkpt>
      <trkpt lat="37.339580040425062" lon="-8.421432981267571">
        <ele>157.31</ele>
        <time>2025-05-07T09:45:15Z</time>
      </trkpt>
      <trkpt lat="37.339522037655115" lon="-8.421240029856563">
        <ele>159.24000000000001</ele>
        <time>2025-05-07T09:45:16Z</time>
      </trkpt>
      <trkpt lat="37.33942799270153" lon="-8.420690009370446">
        <ele>164.52000000000001</ele>
        <time>2025-05-07T09:45:19Z</time>
      </trkpt>
      <trkpt lat="37.339408965781331" lon="-8.420518012717366">
        <ele>166.44999999999999</ele>
        <time>2025-05-07T09:45:20Z</time>
      </trkpt>
      <trkpt lat="37.339407037943602" lon="-8.420339981094003">
        <ele>167.88999999999999</ele>
        <time>2025-05-07T09:45:21Z</time>
      </trkpt>
      <trkpt lat="37.339435033500195" lon="-8.420166978612542">
        <ele>169.81</ele>
        <time>2025-05-07T09:45:22Z</time>
      </trkpt>
      <trkpt lat="37.339468980208039" lon="-8.419987019151449">
        <ele>171.25</ele>
        <time>2025-05-07T09:45:23Z</time>
      </trkpt>
      <trkpt lat="37.339520025998354" lon="-8.41981996782124">
        <ele>173.16999999999999</ele>
        <time>2025-05-07T09:45:24Z</time>
      </trkpt>
      <trkpt lat="37.339720018208027" lon="-8.419305989518762">
        <ele>177.97999999999999</ele>
        <time>2025-05-07T09:45:27Z</time>
      </trkpt>
      <trkpt lat="37.33981498517096" lon="-8.419144973158836">
        <ele>179.90000000000001</ele>
        <time>2025-05-07T09:45:28Z</time>
      </trkpt>
      <trkpt lat="37.339937025681138" lon="-8.419032990932465">
        <ele>181.34999999999999</ele>
        <time>2025-05-07T09:45:29Z</time>
      </trkpt>
      <trkpt lat="37.3400719743222" lon="-8.418946992605925">
        <ele>182.78999999999999</ele>
        <time>2025-05-07T09:45:30Z</time>
      </trkpt>
      <trkpt lat="37.34022100456059" lon="-8.418939029797912">
        <ele>184.71000000000001</ele>
        <time>2025-05-07T09:45:31Z</time>
      </trkpt>
      <trkpt lat="37.340383026748896" lon="-8.418939029797912">
        <ele>186.15000000000001</ele>
        <time>2025-05-07T09:45:32Z</time>
      </trkpt>
      <trkpt lat="37.340534990653396" lon="-8.419027039781213">
        <ele>187.59</ele>
        <time>2025-05-07T09:45:33Z</time>
      </trkpt>
      <trkpt lat="37.340692989528179" lon="-8.419137010350823">
        <ele>189.52000000000001</ele>
        <time>2025-05-07T09:45:34Z</time>
      </trkpt>
      <trkpt lat="37.340858029201627" lon="-8.419290985912085">
        <ele>190.96000000000001</ele>
        <time>2025-05-07T09:45:35Z</time>
      </trkpt>
      <trkpt lat="37.341036982834339" lon="-8.419455019757152">
        <ele>192.88</ele>
        <time>2025-05-07T09:45:36Z</time>
      </trkpt>
      <trkpt lat="37.342273984104395" lon="-8.420331012457609">
        <ele>204.41999999999999</ele>
        <time>2025-05-07T09:45:42Z</time>
      </trkpt>
      <trkpt lat="37.343124998733401" lon="-8.420930989086628">
        <ele>210.66999999999999</ele>
        <time>2025-05-07T09:45:47Z</time>
      </trkpt>
      <trkpt lat="37.343261037021875" lon="-8.421098962426186">
        <ele>211.15000000000001</ele>
        <time>2025-05-07T09:45:48Z</time>
      </trkpt>
      <trkpt lat="37.343375030905008" lon="-8.421295015141368">
        <ele>211.63</ele>
        <time>2025-05-07T09:45:49Z</time>
      </trkpt>
      <trkpt lat="37.344273990020156" lon="-8.422786993905902">
        <ele>213.06999999999999</ele>
        <time>2025-05-07T09:45:56Z</time>
      </trkpt>
      <trkpt lat="37.344464007765055" lon="-8.422922026365995">
        <ele>213.06999999999999</ele>
        <time>2025-05-07T09:45:57Z</time>
      </trkpt>
      <trkpt lat="37.34619696624577" lon="-8.424151986837387">
        <ele>220.75999999999999</ele>
        <time>2025-05-07T09:46:06Z</time>
      </trkpt>
      <trkpt lat="37.347940988838673" lon="-8.425322016701102">
        <ele>226.05000000000001</ele>
        <time>2025-05-07T09:46:15Z</time>
      </trkpt>
      <trkpt lat="37.348147016018629" lon="-8.425399968400598">
        <ele>226.53</ele>
        <time>2025-05-07T09:46:16Z</time>
      </trkpt>
      <trkpt lat="37.348358994349837" lon="-8.425463000312448">
        <ele>227.00999999999999</ele>
        <time>2025-05-07T09:46:17Z</time>
      </trkpt>
      <trkpt lat="37.348577007651329" lon="-8.425472974777222">
        <ele>227.49000000000001</ele>
        <time>2025-05-07T09:46:18Z</time>
      </trkpt>
      <trkpt lat="37.34879401512444" lon="-8.425484038889408">
        <ele>227.97</ele>
        <time>2025-05-07T09:46:19Z</time>
      </trkpt>
      <trkpt lat="37.349006999284029" lon="-8.425408015027642">
        <ele>228.44999999999999</ele>
        <time>2025-05-07T09:46:20Z</time>
      </trkpt>
      <trkpt lat="37.349216965958476" lon="-8.425331991165876">
        <ele>229.41</ele>
        <time>2025-05-07T09:46:21Z</time>
      </trkpt>
      <trkpt lat="37.34941796399653" lon="-8.425225038081408">
        <ele>230.37</ele>
        <time>2025-05-07T09:46:22Z</time>
      </trkpt>
      <trkpt lat="37.34961099922657" lon="-8.425078019499779">
        <ele>231.81</ele>
        <time>2025-05-07T09:46:23Z</time>
      </trkpt>
      <trkpt lat="37.349801016971469" lon="-8.424925971776247">
        <ele>233.25999999999999</ele>
        <time>2025-05-07T09:46:24Z</time>
      </trkpt>
      <trkpt lat="37.35089804045856" lon="-8.423659969121218">
        <ele>246.22999999999999</ele>
        <time>2025-05-07T09:46:31Z</time>
      </trkpt>
      <trkpt lat="37.351986011490226" lon="-8.422194980084896">
        <ele>259.20999999999998</ele>
        <time>2025-05-07T09:46:39Z</time>
      </trkpt>
      <trkpt lat="37.352422038093209" lon="-8.421299960464239">
        <ele>256.81</ele>
        <time>2025-05-07T09:46:44Z</time>
      </trkpt>
      <trkpt lat="37.352567967027426" lon="-8.421185966581106">
        <ele>255.84999999999999</ele>
        <time>2025-05-07T09:46:45Z</time>
      </trkpt>
      <trkpt lat="37.352714985609055" lon="-8.421096028760076">
        <ele>254.41</ele>
        <time>2025-05-07T09:46:46Z</time>
      </trkpt>
      <trkpt lat="37.353217983618379" lon="-8.42082797549665">
        <ele>250.56</ele>
        <time>2025-05-07T09:46:49Z</time>
      </trkpt>
      <trkpt lat="37.35336902551353" lon="-8.420672994107008">
        <ele>248.63999999999999</ele>
        <time>2025-05-07T09:46:50Z</time>
      </trkpt>
      <trkpt lat="37.353490982204676" lon="-8.420498985797167">
        <ele>247.19999999999999</ele>
        <time>2025-05-07T09:46:51Z</time>
      </trkpt>
      <trkpt lat="37.353558959439397" lon="-8.420308968052268">
        <ele>245.75</ele>
        <time>2025-05-07T09:46:52Z</time>
      </trkpt>
      <trkpt lat="37.353615034371614" lon="-8.420102018862963">
        <ele>243.83000000000001</ele>
        <time>2025-05-07T09:46:53Z</time>
      </trkpt>
      <trkpt lat="37.353664990514517" lon="-8.419885011389852">
        <ele>242.38999999999999</ele>
        <time>2025-05-07T09:46:54Z</time>
      </trkpt>
      <trkpt lat="37.353798011317849" lon="-8.419461976736784">
        <ele>239.02000000000001</ele>
        <time>2025-05-07T09:46:56Z</time>
      </trkpt>
      <trkpt lat="37.353889960795641" lon="-8.419265002012253">
        <ele>237.58000000000001</ele>
        <time>2025-05-07T09:46:57Z</time>
      </trkpt>
      <trkpt lat="37.35401501879096" lon="-8.419127035886049">
        <ele>235.66</ele>
        <time>2025-05-07T09:46:58Z</time>
      </trkpt>
      <trkpt lat="37.354153990745544" lon="-8.419006001204252">
        <ele>234.22</ele>
        <time>2025-05-07T09:46:59Z</time>
      </trkpt>
      <trkpt lat="37.354325987398624" lon="-8.418914973735809">
        <ele>232.30000000000001</ele>
        <time>2025-05-07T09:47:00Z</time>
      </trkpt>
      <trkpt lat="37.354504019021988" lon="-8.418822018429637">
        <ele>230.37</ele>
        <time>2025-05-07T09:47:01Z</time>
      </trkpt>
      <trkpt lat="37.3546829726547" lon="-8.418739959597588">
        <ele>228.44999999999999</ele>
        <time>2025-05-07T09:47:02Z</time>
      </trkpt>
      <trkpt lat="37.354840971529484" lon="-8.418622026219964">
        <ele>227.00999999999999</ele>
        <time>2025-05-07T09:47:03Z</time>
      </trkpt>
      <trkpt lat="37.354990001767874" lon="-8.418489005416632">
        <ele>225.09</ele>
        <time>2025-05-07T09:47:04Z</time>
      </trkpt>
      <trkpt lat="37.355108018964529" lon="-8.418318014591932">
        <ele>223.16</ele>
        <time>2025-05-07T09:47:05Z</time>
      </trkpt>
      <trkpt lat="37.355199968442321" lon="-8.418123973533511">
        <ele>221.72</ele>
        <time>2025-05-07T09:47:06Z</time>
      </trkpt>
      <trkpt lat="37.35526098869741" lon="-8.417914006859064">
        <ele>219.80000000000001</ele>
        <time>2025-05-07T09:47:07Z</time>
      </trkpt>
      <trkpt lat="37.355269035324454" lon="-8.417693981900811">
        <ele>217.40000000000001</ele>
        <time>2025-05-07T09:47:08Z</time>
      </trkpt>
      <trkpt lat="37.35526199452579" lon="-8.417473034933209">
        <ele>215.47</ele>
        <time>2025-05-07T09:47:09Z</time>
      </trkpt>
      <trkpt lat="37.355249002575874" lon="-8.417249992489815">
        <ele>213.55000000000001</ele>
        <time>2025-05-07T09:47:10Z</time>
      </trkpt>
      <trkpt lat="37.355184964835644" lon="-8.417031979188323">
        <ele>211.63</ele>
        <time>2025-05-07T09:47:11Z</time>
      </trkpt>
      <trkpt lat="37.355106007307768" lon="-8.416823018342257">
        <ele>209.69999999999999</ele>
        <time>2025-05-07T09:47:12Z</time>
      </trkpt>
      <trkpt lat="37.355008022859693" lon="-8.4166360180825">
        <ele>208.25999999999999</ele>
        <time>2025-05-07T09:47:13Z</time>
      </trkpt>
      <trkpt lat="37.354858992621303" lon="-8.416265035048127">
        <ele>205.38</ele>
        <time>2025-05-07T09:47:15Z</time>
      </trkpt>
      <trkpt lat="37.354804007336497" lon="-8.416064037010074">
        <ele>204.41999999999999</ele>
        <time>2025-05-07T09:47:16Z</time>
      </trkpt>
      <trkpt lat="37.354804007336497" lon="-8.41586496680975">
        <ele>202.97999999999999</ele>
        <time>2025-05-07T09:47:17Z</time>
      </trkpt>
      <trkpt lat="37.354822028428316" lon="-8.415657011792064">
        <ele>202.00999999999999</ele>
        <time>2025-05-07T09:47:18Z</time>
      </trkpt>
      <trkpt lat="37.354879025369883" lon="-8.41545601375401">
        <ele>200.56999999999999</ele>
        <time>2025-05-07T09:47:19Z</time>
      </trkpt>
      <trkpt lat="37.35498296096921" lon="-8.415259961038828">
        <ele>199.61000000000001</ele>
        <time>2025-05-07T09:47:20Z</time>
      </trkpt>
      <trkpt lat="37.355100978165865" lon="-8.415060974657536">
        <ele>198.65000000000001</ele>
        <time>2025-05-07T09:47:21Z</time>
      </trkpt>
      <trkpt lat="37.355258977040648" lon="-8.414873974397779">
        <ele>197.69</ele>
        <time>2025-05-07T09:47:22Z</time>
      </trkpt>
      <trkpt lat="37.356546018272638" lon="-8.413219973444939">
        <ele>186.63</ele>
        <time>2025-05-07T09:47:30Z</time>
      </trkpt>
      <trkpt lat="37.35719402320683" lon="-8.411779040470719">
        <ele>171.72999999999999</ele>
        <time>2025-05-07T09:47:36Z</time>
      </trkpt>
      <trkpt lat="37.357324026525021" lon="-8.411282999441028">
        <ele>166.93000000000001</ele>
        <time>2025-05-07T09:47:38Z</time>
      </trkpt>
      <trkpt lat="37.357353027909994" lon="-8.411032967269421">
        <ele>164.52000000000001</ele>
        <time>2025-05-07T09:47:39Z</time>
      </trkpt>
      <trkpt lat="37.357330983504653" lon="-8.410780001431704">
        <ele>162.12</ele>
        <time>2025-05-07T09:47:40Z</time>
      </trkpt>
      <trkpt lat="37.357292007654905" lon="-8.410541033372283">
        <ele>159.72</ele>
        <time>2025-05-07T09:47:41Z</time>
      </trkpt>
      <trkpt lat="37.357235010713339" lon="-8.410298964008689">
        <ele>157.31</ele>
        <time>2025-05-07T09:47:42Z</time>
      </trkpt>
      <trkpt lat="37.357139037922025" lon="-8.410066030919552">
        <ele>154.91</ele>
        <time>2025-05-07T09:47:43Z</time>
      </trkpt>
      <trkpt lat="37.357038035988808" lon="-8.409834019839764">
        <ele>152.03</ele>
        <time>2025-05-07T09:47:44Z</time>
      </trkpt>
      <trkpt lat="37.356708962470293" lon="-8.409123988822103">
        <ele>144.34</ele>
        <time>2025-05-07T09:47:47Z</time>
      </trkpt>
      <trkpt lat="37.356552975252271" lon="-8.408922990784049">
        <ele>141.44999999999999</ele>
        <time>2025-05-07T09:47:48Z</time>
      </trkpt>
      <trkpt lat="37.356383996084332" lon="-8.408743031322956">
        <ele>139.05000000000001</ele>
        <time>2025-05-07T09:47:49Z</time>
      </trkpt>
      <trkpt lat="37.356218034401536" lon="-8.408566005527973">
        <ele>136.16</ele>
        <time>2025-05-07T09:47:50Z</time>
      </trkpt>
      <trkpt lat="37.356057018041611" lon="-8.408395014703274">
        <ele>133.75999999999999</ele>
        <time>2025-05-07T09:47:51Z</time>
      </trkpt>
      <trkpt lat="37.355489982292056" lon="-8.407686995342374">
        <ele>124.15000000000001</ele>
        <time>2025-05-07T09:47:55Z</time>
      </trkpt>
      <trkpt lat="37.355397026985884" lon="-8.407488008961082">
        <ele>121.73999999999999</ele>
        <time>2025-05-07T09:47:56Z</time>
      </trkpt>
      <trkpt lat="37.355313040316105" lon="-8.40729103423655">
        <ele>119.81999999999999</ele>
        <time>2025-05-07T09:47:57Z</time>
      </trkpt>
      <trkpt lat="37.354577025398612" lon="-8.404934965074062">
        <ele>110.69</ele>
        <time>2025-05-07T09:48:07Z</time>
      </trkpt>
      <trkpt lat="37.35416698269546" lon="-8.403423959389329">
        <ele>109.73</ele>
        <time>2025-05-07T09:48:13Z</time>
      </trkpt>
      <trkpt lat="37.35414401628077" lon="-8.403171999379993">
        <ele>110.20999999999999</ele>
        <time>2025-05-07T09:48:14Z</time>
      </trkpt>
      <trkpt lat="37.354175029322505" lon="-8.402937976643443">
        <ele>110.20999999999999</ele>
        <time>2025-05-07T09:48:15Z</time>
      </trkpt>
      <trkpt lat="37.354223979637027" lon="-8.402704037725925">
        <ele>110.69</ele>
        <time>2025-05-07T09:48:16Z</time>
      </trkpt>
      <trkpt lat="37.354306038469076" lon="-8.402469009160996">
        <ele>110.69</ele>
        <time>2025-05-07T09:48:17Z</time>
      </trkpt>
      <trkpt lat="37.354406034573913" lon="-8.402235992252827">
        <ele>111.17</ele>
        <time>2025-05-07T09:48:18Z</time>
      </trkpt>
      <trkpt lat="37.354523967951536" lon="-8.401998030021787">
        <ele>111.17</ele>
        <time>2025-05-07T09:48:19Z</time>
      </trkpt>
      <trkpt lat="37.355791982263327" lon="-8.399510029703379">
        <ele>116.45999999999999</ele>
        <time>2025-05-07T09:48:29Z</time>
      </trkpt>
      <trkpt lat="37.356961006298661" lon="-8.396061966195703">
        <ele>126.06999999999999</ele>
        <time>2025-05-07T09:48:42Z</time>
      </trkpt>
      <trkpt lat="37.357039041817188" lon="-8.39579600840807">
        <ele>126.55</ele>
        <time>2025-05-07T09:48:43Z</time>
      </trkpt>
      <trkpt lat="37.357068965211511" lon="-8.395514963194728">
        <ele>127.03</ele>
        <time>2025-05-07T09:48:44Z</time>
      </trkpt>
      <trkpt lat="37.357364008203149" lon="-8.392293965443969">
        <ele>134.24000000000001</ele>
        <time>2025-05-07T09:48:55Z</time>
      </trkpt>
      <trkpt lat="37.357378005981445" lon="-8.392007974907756">
        <ele>134.72</ele>
        <time>2025-05-07T09:48:56Z</time>
      </trkpt>
      <trkpt lat="37.357342969626188" lon="-8.391725001856685">
        <ele>135.19999999999999</ele>
        <time>2025-05-07T09:48:57Z</time>
      </trkpt>
      <trkpt lat="37.357299970462918" lon="-8.391442028805614">
        <ele>136.16</ele>
        <time>2025-05-07T09:48:58Z</time>
      </trkpt>
      <trkpt lat="37.35676595941186" lon="-8.389464989304543">
        <ele>144.34</ele>
        <time>2025-05-07T09:49:06Z</time>
      </trkpt>
      <trkpt lat="37.356601003557444" lon="-8.387705041095614">
        <ele>149.62</ele>
        <time>2025-05-07T09:49:13Z</time>
      </trkpt>
      <trkpt lat="37.35654903575778" lon="-8.387474035844207">
        <ele>150.09999999999999</ele>
        <time>2025-05-07T09:49:14Z</time>
      </trkpt>
      <trkpt lat="37.356460019946098" lon="-8.387251999229193">
        <ele>150.58000000000001</ele>
        <time>2025-05-07T09:49:15Z</time>
      </trkpt>
      <trkpt lat="37.356360023841262" lon="-8.387042032554746">
        <ele>150.58000000000001</ele>
        <time>2025-05-07T09:49:16Z</time>
      </trkpt>
      <trkpt lat="37.356244018301368" lon="-8.386845979839563">
        <ele>151.06</ele>
        <time>2025-05-07T09:49:17Z</time>
      </trkpt>
      <trkpt lat="37.356128012761474" lon="-8.386649005115032">
        <ele>151.53999999999999</ele>
        <time>2025-05-07T09:49:18Z</time>
      </trkpt>
      <trkpt lat="37.355889966711402" lon="-8.386287996545434">
        <ele>152.03</ele>
        <time>2025-05-07T09:49:20Z</time>
      </trkpt>
      <trkpt lat="37.355752000585198" lon="-8.386137038469315">
        <ele>152.03</ele>
        <time>2025-05-07T09:49:21Z</time>
      </trkpt>
      <trkpt lat="37.355591990053654" lon="-8.386027989909053">
        <ele>152.03</ele>
        <time>2025-05-07T09:49:22Z</time>
      </trkpt>
      <trkpt lat="37.35543399117887" lon="-8.385933022946119">
        <ele>152.50999999999999</ele>
        <time>2025-05-07T09:49:23Z</time>
      </trkpt>
      <trkpt lat="37.355297030881047" lon="-8.38585096411407">
        <ele>152.50999999999999</ele>
        <time>2025-05-07T09:49:24Z</time>
      </trkpt>
      <trkpt lat="37.354950020089746" lon="-8.385574026033282">
        <ele>152.50999999999999</ele>
        <time>2025-05-07T09:49:27Z</time>
      </trkpt>
      <trkpt lat="37.354865027591586" lon="-8.385505964979529">
        <ele>152.50999999999999</ele>
        <time>2025-05-07T09:49:28Z</time>
      </trkpt>
      <trkpt lat="37.354589011520147" lon="-8.385593974962831">
        <ele>152.50999999999999</ele>
        <time>2025-05-07T09:49:29Z</time>
      </trkpt>
      <trkpt lat="37.353645041584969" lon="-8.385531026870012">
        <ele>147.22</ele>
        <time>2025-05-07T09:49:35Z</time>
      </trkpt>
      <trkpt lat="37.352454978972673" lon="-8.385373027995229">
        <ele>138.56999999999999</ele>
        <time>2025-05-07T09:49:41Z</time>
      </trkpt>
      <trkpt lat="37.3522740136832" lon="-8.385347966104746">
        <ele>137.61000000000001</ele>
        <time>2025-05-07T09:49:42Z</time>
      </trkpt>
      <trkpt lat="37.352091958746314" lon="-8.385358024388552">
        <ele>136.16</ele>
        <time>2025-05-07T09:49:43Z</time>
      </trkpt>
      <trkpt lat="37.351906970143318" lon="-8.385401023551822">
        <ele>135.19999999999999</ele>
        <time>2025-05-07T09:49:44Z</time>
      </trkpt>
      <trkpt lat="37.351724999025464" lon="-8.385485010221601">
        <ele>134.24000000000001</ele>
        <time>2025-05-07T09:49:45Z</time>
      </trkpt>
      <trkpt lat="37.351549984887242" lon="-8.385566985234618">
        <ele>133.28</ele>
        <time>2025-05-07T09:49:46Z</time>
      </trkpt>
      <trkpt lat="37.351377988234162" lon="-8.385646026581526">
        <ele>131.84</ele>
        <time>2025-05-07T09:49:47Z</time>
      </trkpt>
      <trkpt lat="37.351194005459547" lon="-8.385690031573176">
        <ele>130.40000000000001</ele>
        <time>2025-05-07T09:49:48Z</time>
      </trkpt>
      <trkpt lat="37.350998036563396" lon="-8.385685002431274">
        <ele>129.43000000000001</ele>
        <time>2025-05-07T09:49:49Z</time>
      </trkpt>
      <trkpt lat="37.350797038525343" lon="-8.385638985782862">
        <ele>128.47</ele>
        <time>2025-05-07T09:49:50Z</time>
      </trkpt>
      <trkpt lat="37.350588999688625" lon="-8.385591041296721">
        <ele>127.51000000000001</ele>
        <time>2025-05-07T09:49:51Z</time>
      </trkpt>
      <trkpt lat="37.349172038957477" lon="-8.385393982753158">
        <ele>121.73999999999999</ele>
        <time>2025-05-07T09:49:58Z</time>
      </trkpt>
      <trkpt lat="37.34898797236383" lon="-8.385421978309751">
        <ele>121.26000000000001</ele>
        <time>2025-05-07T09:49:59Z</time>
      </trkpt>
      <trkpt lat="37.348830979317427" lon="-8.385501019656658">
        <ele>120.78</ele>
        <time>2025-05-07T09:50:00Z</time>
      </trkpt>
      <trkpt lat="37.348293028771877" lon="-8.385769994929433">
        <ele>119.34</ele>
        <time>2025-05-07T09:50:03Z</time>
      </trkpt>
      <trkpt lat="37.347948029637337" lon="-8.38595699518919">
        <ele>118.38</ele>
        <time>2025-05-07T09:50:05Z</time>
      </trkpt>
      <trkpt lat="37.347787013277411" lon="-8.386079035699368">
        <ele>117.90000000000001</ele>
        <time>2025-05-07T09:50:06Z</time>
      </trkpt>
      <trkpt lat="37.347620967775583" lon="-8.386206021532416">
        <ele>117.42</ele>
        <time>2025-05-07T09:50:07Z</time>
      </trkpt>
      <trkpt lat="37.3474629689008" lon="-8.386363014578819">
        <ele>116.94</ele>
        <time>2025-05-07T09:50:08Z</time>
      </trkpt>
      <trkpt lat="37.347315028309822" lon="-8.386539034545422">
        <ele>115.98</ele>
        <time>2025-05-07T09:50:09Z</time>
      </trkpt>
      <trkpt lat="37.346448004245758" lon="-8.38756900280714">
        <ele>111.17</ele>
        <time>2025-05-07T09:50:16Z</time>
      </trkpt>
      <trkpt lat="37.345999991521239" lon="-8.388020033016801">
        <ele>108.29000000000001</ele>
        <time>2025-05-07T09:50:22Z</time>
      </trkpt>
      <trkpt lat="37.345889015123248" lon="-8.388103013858199">
        <ele>107.81</ele>
        <time>2025-05-07T09:50:23Z</time>
      </trkpt>
      <trkpt lat="37.344791991636157" lon="-8.388607017695904">
        <ele>103.48</ele>
        <time>2025-05-07T09:50:30Z</time>
      </trkpt>
      <trkpt lat="37.34464799053967" lon="-8.38868597522378">
        <ele>103</ele>
        <time>2025-05-07T09:50:31Z</time>
      </trkpt>
      <trkpt lat="37.344510024413466" lon="-8.388766022399068">
        <ele>102.52</ele>
        <time>2025-05-07T09:50:32Z</time>
      </trkpt>
      <trkpt lat="37.344371974468231" lon="-8.388846991583705">
        <ele>102.04000000000001</ele>
        <time>2025-05-07T09:50:33Z</time>
      </trkpt>
      <trkpt lat="37.344230990856886" lon="-8.388925027102232">
        <ele>101.08</ele>
        <time>2025-05-07T09:50:34Z</time>
      </trkpt>
      <trkpt lat="37.344073997810483" lon="-8.388973977416754">
        <ele>100.59999999999999</ele>
        <time>2025-05-07T09:50:35Z</time>
      </trkpt>
      <trkpt lat="37.343903006985784" lon="-8.38902703486383">
        <ele>100.11</ele>
        <time>2025-05-07T09:50:36Z</time>
      </trkpt>
      <trkpt lat="37.343234969303012" lon="-8.389172963798046">
        <ele>99.629999999999995</ele>
        <time>2025-05-07T09:50:40Z</time>
      </trkpt>
      <trkpt lat="37.343097003176808" lon="-8.389276983216405">
        <ele>99.629999999999995</ele>
        <time>2025-05-07T09:50:41Z</time>
      </trkpt>
      <trkpt lat="37.342961970716715" lon="-8.389387959614396">
        <ele>99.629999999999995</ele>
        <time>2025-05-07T09:50:42Z</time>
      </trkpt>
      <trkpt lat="37.342571960762143" lon="-8.389700017869473">
        <ele>99.150000000000006</ele>
        <time>2025-05-07T09:50:45Z</time>
      </trkpt>
      <trkpt lat="37.342427037656307" lon="-8.389750979840756">
        <ele>99.629999999999995</ele>
        <time>2025-05-07T09:50:46Z</time>
      </trkpt>
      <trkpt lat="37.342278007417917" lon="-8.389804037287831">
        <ele>99.629999999999995</ele>
        <time>2025-05-07T09:50:47Z</time>
      </trkpt>
      <trkpt lat="37.34211003407836" lon="-8.389813005924225">
        <ele>99.629999999999995</ele>
        <time>2025-05-07T09:50:48Z</time>
      </trkpt>
      <trkpt lat="37.341943988576531" lon="-8.389800013974309">
        <ele>100.11</ele>
        <time>2025-05-07T09:50:49Z</time>
      </trkpt>
      <trkpt lat="37.341778026893735" lon="-8.389788027852774">
        <ele>100.11</ele>
        <time>2025-05-07T09:50:50Z</time>
      </trkpt>
      <trkpt lat="37.339603006839752" lon="-8.389619970694184">
        <ele>101.08</ele>
        <time>2025-05-07T09:51:02Z</time>
      </trkpt>
      <trkpt lat="37.339412989094853" lon="-8.389599015936256">
        <ele>101.08</ele>
        <time>2025-05-07T09:51:03Z</time>
      </trkpt>
      <trkpt lat="37.339228000491858" lon="-8.389560962095857">
        <ele>101.08</ele>
        <time>2025-05-07T09:51:04Z</time>
      </trkpt>
      <trkpt lat="37.339047035202384" lon="-8.389491979032755">
        <ele>101.08</ele>
        <time>2025-05-07T09:51:05Z</time>
      </trkpt>
      <trkpt lat="37.338879983872175" lon="-8.389379996806383">
        <ele>101.08</ele>
        <time>2025-05-07T09:51:06Z</time>
      </trkpt>
      <trkpt lat="37.338719973340631" lon="-8.389259967952967">
        <ele>101.08</ele>
        <time>2025-05-07T09:51:07Z</time>
      </trkpt>
      <trkpt lat="37.338581001386046" lon="-8.38911303319037">
        <ele>101.08</ele>
        <time>2025-05-07T09:51:08Z</time>
      </trkpt>
      <trkpt lat="37.338459966704249" lon="-8.38896400295198">
        <ele>101.08</ele>
        <time>2025-05-07T09:51:09Z</time>
      </trkpt>
      <trkpt lat="37.3383520077914" lon="-8.388828970491886">
        <ele>101.56</ele>
        <time>2025-05-07T09:51:10Z</time>
      </trkpt>
      <trkpt lat="37.338252011686563" lon="-8.38870600797236">
        <ele>102.04000000000001</ele>
        <time>2025-05-07T09:51:11Z</time>
      </trkpt>
      <trkpt lat="37.338170958682895" lon="-8.388582961633802">
        <ele>102.52</ele>
        <time>2025-05-07T09:51:12Z</time>
      </trkpt>
      <trkpt lat="37.338023018091917" lon="-8.388404008001089">
        <ele>103.95999999999999</ele>
        <time>2025-05-07T09:51:14Z</time>
      </trkpt>
      <trkpt lat="37.337949005886912" lon="-8.388340976089239">
        <ele>104.44</ele>
        <time>2025-05-07T09:51:15Z</time>
      </trkpt>
      <trkpt lat="37.337867030873895" lon="-8.388282973319292">
        <ele>104.92</ele>
        <time>2025-05-07T09:51:16Z</time>
      </trkpt>
      <trkpt lat="37.337475009262562" lon="-8.388023972511292">
        <ele>106.36</ele>
        <time>2025-05-07T09:51:20Z</time>
      </trkpt>
      <trkpt lat="37.337351962924004" lon="-8.387987008318305">
        <ele>106.84</ele>
        <time>2025-05-07T09:51:21Z</time>
      </trkpt>
      <trkpt lat="37.337232017889619" lon="-8.387982985004783">
        <ele>108.29000000000001</ele>
        <time>2025-05-07T09:51:22Z</time>
      </trkpt>
      <trkpt lat="37.336543025448918" lon="-8.388033024966717">
        <ele>114.05</ele>
        <time>2025-05-07T09:51:28Z</time>
      </trkpt>
      <trkpt lat="37.336435988545418" lon="-8.387994971126318">
        <ele>115.01000000000001</ele>
        <time>2025-05-07T09:51:29Z</time>
      </trkpt>
      <trkpt lat="37.336320988833904" lon="-8.387953983619809">
        <ele>115.5</ele>
        <time>2025-05-07T09:51:30Z</time>
      </trkpt>
      <trkpt lat="37.336200037971139" lon="-8.387910984456539">
        <ele>115.98</ele>
        <time>2025-05-07T09:51:31Z</time>
      </trkpt>
      <trkpt lat="37.336089983582497" lon="-8.387863961979747">
        <ele>115.98</ele>
        <time>2025-05-07T09:51:32Z</time>
      </trkpt>
      <trkpt lat="37.335353968665004" lon="-8.387614013627172">
        <ele>116.94</ele>
        <time>2025-05-07T09:51:38Z</time>
      </trkpt>
      <trkpt lat="37.33521499671042" lon="-8.387645026668906">
        <ele>116.94</ele>
        <time>2025-05-07T09:51:39Z</time>
      </trkpt>
      <trkpt lat="37.335076024755836" lon="-8.387682996690273">
        <ele>117.42</ele>
        <time>2025-05-07T09:51:40Z</time>
      </trkpt>
      <trkpt lat="37.334529021754861" lon="-8.387793973088265">
        <ele>119.81999999999999</ele>
        <time>2025-05-07T09:51:44Z</time>
      </trkpt>
      <trkpt lat="37.334392983466387" lon="-8.387765977531672">
        <ele>120.3</ele>
        <time>2025-05-07T09:51:45Z</time>
      </trkpt>
      <trkpt lat="37.334261974319816" lon="-8.387682996690273">
        <ele>121.26000000000001</ele>
        <time>2025-05-07T09:51:46Z</time>
      </trkpt>
      <trkpt lat="37.334123002365232" lon="-8.387580988928676">
        <ele>122.22</ele>
        <time>2025-05-07T09:51:47Z</time>
      </trkpt>
      <trkpt lat="37.333980007097125" lon="-8.387458026409149">
        <ele>123.19</ele>
        <time>2025-05-07T09:51:48Z</time>
      </trkpt>
      <trkpt lat="37.333837011829019" lon="-8.38733397424221">
        <ele>124.15000000000001</ele>
        <time>2025-05-07T09:51:49Z</time>
      </trkpt>
      <trkpt lat="37.33368999324739" lon="-8.387214029207826">
        <ele>125.59</ele>
        <time>2025-05-07T09:51:50Z</time>
      </trkpt>
      <trkpt lat="37.333521014079452" lon="-8.387124007567763">
        <ele>127.03</ele>
        <time>2025-05-07T09:51:51Z</time>
      </trkpt>
      <trkpt lat="37.333337031304836" lon="-8.38702904060483">
        <ele>128.47</ele>
        <time>2025-05-07T09:51:52Z</time>
      </trkpt>
      <trkpt lat="37.333143996074796" lon="-8.386973971500993">
        <ele>129.91999999999999</ele>
        <time>2025-05-07T09:51:53Z</time>
      </trkpt>
      <trkpt lat="37.332777036353946" lon="-8.386894008144736">
        <ele>132.80000000000001</ele>
        <time>2025-05-07T09:51:55Z</time>
      </trkpt>
      <trkpt lat="37.332593975588679" lon="-8.386887973174453">
        <ele>133.75999999999999</ele>
        <time>2025-05-07T09:51:56Z</time>
      </trkpt>
      <trkpt lat="37.332419967278838" lon="-8.386939018964768">
        <ele>134.72</ele>
        <time>2025-05-07T09:51:57Z</time>
      </trkpt>
      <trkpt lat="37.332241013646126" lon="-8.386991992592812">
        <ele>135.68000000000001</ele>
        <time>2025-05-07T09:51:58Z</time>
      </trkpt>
      <trkpt lat="37.332063987851143" lon="-8.387043960392475">
        <ele>136.63999999999999</ele>
        <time>2025-05-07T09:51:59Z</time>
      </trkpt>
      <trkpt lat="37.331900037825108" lon="-8.387091988697648">
        <ele>138.09</ele>
        <time>2025-05-07T09:52:00Z</time>
      </trkpt>
      <trkpt lat="37.331737009808421" lon="-8.387076985090971">
        <ele>139.05000000000001</ele>
        <time>2025-05-07T09:52:01Z</time>
      </trkpt>
      <trkpt lat="37.331560989841819" lon="-8.387055024504662">
        <ele>140.49000000000001</ele>
        <time>2025-05-07T09:52:02Z</time>
      </trkpt>
      <trkpt lat="37.331382958218455" lon="-8.38703298009932">
        <ele>141.44999999999999</ele>
        <time>2025-05-07T09:52:03Z</time>
      </trkpt>
      <trkpt lat="37.331195035949349" lon="-8.38701001368463">
        <ele>142.88999999999999</ele>
        <time>2025-05-07T09:52:04Z</time>
      </trkpt>
      <trkpt lat="37.330998983234167" lon="-8.38698998093605">
        <ele>143.84999999999999</ele>
        <time>2025-05-07T09:52:05Z</time>
      </trkpt>
      <trkpt lat="37.330794967710972" lon="-8.387001967057586">
        <ele>144.34</ele>
        <time>2025-05-07T09:52:06Z</time>
      </trkpt>
      <trkpt lat="37.329528965055943" lon="-8.3870720397681">
        <ele>145.78</ele>
        <time>2025-05-07T09:52:13Z</time>
      </trkpt>
      <trkpt lat="37.328315014019608" lon="-8.386721005663276">
        <ele>147.22</ele>
        <time>2025-05-07T09:52:20Z</time>
      </trkpt>
      <trkpt lat="37.327680001035333" lon="-8.386396039277315">
        <ele>152.03</ele>
        <time>2025-05-07T09:52:24Z</time>
      </trkpt>
      <trkpt lat="37.327558966353536" lon="-8.386299982666969">
        <ele>153.94999999999999</ele>
        <time>2025-05-07T09:52:25Z</time>
      </trkpt>
      <trkpt lat="37.32745997607708" lon="-8.386176014319062">
        <ele>155.38999999999999</ele>
        <time>2025-05-07T09:52:26Z</time>
      </trkpt>
      <trkpt lat="37.327380012720823" lon="-8.386008040979505">
        <ele>157.31</ele>
        <time>2025-05-07T09:52:27Z</time>
      </trkpt>
      <trkpt lat="37.327312035486102" lon="-8.385818023234606">
        <ele>158.75</ele>
        <time>2025-05-07T09:52:28Z</time>
      </trkpt>
      <trkpt lat="37.327240034937859" lon="-8.385614007711411">
        <ele>160.68000000000001</ele>
        <time>2025-05-07T09:52:29Z</time>
      </trkpt>
      <trkpt lat="37.326934011653066" lon="-8.384800041094422">
        <ele>169.33000000000001</ele>
        <time>2025-05-07T09:52:33Z</time>
      </trkpt>
      <trkpt lat="37.326843990013003" lon="-8.384650005027652">
        <ele>171.72999999999999</ele>
        <time>2025-05-07T09:52:34Z</time>
      </trkpt>
      <trkpt lat="37.326698983088136" lon="-8.384535005316138">
        <ele>173.66</ele>
        <time>2025-05-07T09:52:35Z</time>
      </trkpt>
      <trkpt lat="37.325995992869139" lon="-8.38397903367877">
        <ele>184.71000000000001</ele>
        <time>2025-05-07T09:52:41Z</time>
      </trkpt>
      <trkpt lat="37.325961962342262" lon="-8.383952965959907">
        <ele>190</ele>
        <time>2025-05-07T09:52:46Z</time>
      </trkpt>
      <trkpt lat="37.325961962342262" lon="-8.383952965959907">
        <ele>196.72999999999999</ele>
        <time>2025-05-07T09:53:18Z</time>
      </trkpt>
      <trkpt lat="37.325855009257793" lon="-8.383867973461747">
        <ele>200.09</ele>
        <time>2025-05-07T09:53:55Z</time>
      </trkpt>
      <trkpt lat="37.325238017365336" lon="-8.383380984887481">
        <ele>202.00999999999999</ele>
        <time>2025-05-07T09:54:00Z</time>
      </trkpt>
      <trkpt lat="37.324008978903294" lon="-8.382764998823404">
        <ele>205.38</ele>
        <time>2025-05-07T09:54:06Z</time>
      </trkpt>
      <trkpt lat="37.321946024894714" lon="-8.381705023348332">
        <ele>229.88999999999999</ele>
        <time>2025-05-07T09:54:16Z</time>
      </trkpt>
      <trkpt lat="37.32075403444469" lon="-8.381141005083919">
        <ele>250.56</ele>
        <time>2025-05-07T09:54:22Z</time>
      </trkpt>
      <trkpt lat="37.318603992462158" lon="-8.379935016855598">
        <ele>290.45999999999998</ele>
        <time>2025-05-07T09:54:33Z</time>
      </trkpt>
      <trkpt lat="37.317294990643859" lon="-8.379303021356463">
        <ele>306.80000000000001</ele>
        <time>2025-05-07T09:54:40Z</time>
      </trkpt>
      <trkpt lat="37.31549397110939" lon="-8.378673037514091">
        <ele>313.52999999999997</ele>
        <time>2025-05-07T09:54:49Z</time>
      </trkpt>
      <trkpt lat="37.31344903819263" lon="-8.378063002601266">
        <ele>299.11000000000001</ele>
        <time>2025-05-07T09:54:59Z</time>
      </trkpt>
      <trkpt lat="37.311896961182356" lon="-8.377509964630008">
        <ele>286.13</ele>
        <time>2025-05-07T09:55:07Z</time>
      </trkpt>
      <trkpt lat="37.311781039461493" lon="-8.377482974901795">
        <ele>285.17000000000002</ele>
        <time>2025-05-07T09:55:08Z</time>
      </trkpt>
      <trkpt lat="37.311636032536626" lon="-8.377554975450039">
        <ele>283.73000000000002</ele>
        <time>2025-05-07T09:55:09Z</time>
      </trkpt>
      <trkpt lat="37.311537964269519" lon="-8.377604009583592">
        <ele>282.27999999999997</ele>
        <time>2025-05-07T09:55:10Z</time>
      </trkpt>
      <trkpt lat="37.311468981206417" lon="-8.377687996253371">
        <ele>280.83999999999997</ele>
        <time>2025-05-07T09:55:11Z</time>
      </trkpt>
      <trkpt lat="37.311382982879877" lon="-8.377806013450027">
        <ele>279.39999999999998</ele>
        <time>2025-05-07T09:55:12Z</time>
      </trkpt>
      <trkpt lat="37.311288015916944" lon="-8.377940040081739">
        <ele>277.95999999999998</ele>
        <time>2025-05-07T09:55:13Z</time>
      </trkpt>
      <trkpt lat="37.310440018773079" lon="-8.379024993628264">
        <ele>268.35000000000002</ele>
        <time>2025-05-07T09:55:20Z</time>
      </trkpt>
      <trkpt lat="37.310305992141366" lon="-8.379156002774835">
        <ele>267.38</ele>
        <time>2025-05-07T09:55:21Z</time>
      </trkpt>
      <trkpt lat="37.310148999094963" lon="-8.379246024414897">
        <ele>266.42000000000002</ele>
        <time>2025-05-07T09:55:22Z</time>
      </trkpt>
      <trkpt lat="37.309989994391799" lon="-8.379336968064308">
        <ele>265.45999999999998</ele>
        <time>2025-05-07T09:55:23Z</time>
      </trkpt>
      <trkpt lat="37.309830989688635" lon="-8.379427995532751">
        <ele>264.5</ele>
        <time>2025-05-07T09:55:24Z</time>
      </trkpt>
      <trkpt lat="37.309687994420528" lon="-8.379538971930742">
        <ele>263.54000000000002</ele>
        <time>2025-05-07T09:55:25Z</time>
      </trkpt>
      <trkpt lat="37.309571988880634" lon="-8.379666041582823">
        <ele>262.57999999999998</ele>
        <time>2025-05-07T09:55:26Z</time>
      </trkpt>
      <trkpt lat="37.309468975290656" lon="-8.379779029637575">
        <ele>261.62</ele>
        <time>2025-05-07T09:55:27Z</time>
      </trkpt>
      <trkpt lat="37.309377025812864" lon="-8.379880031570792">
        <ele>260.64999999999998</ele>
        <time>2025-05-07T09:55:28Z</time>
      </trkpt>
      <trkpt lat="37.309293961152434" lon="-8.379959994927049">
        <ele>259.69</ele>
        <time>2025-05-07T09:55:29Z</time>
      </trkpt>
      <trkpt lat="37.30919798836112" lon="-8.380008023232222">
        <ele>259.20999999999998</ele>
        <time>2025-05-07T09:55:30Z</time>
      </trkpt>
      <trkpt lat="37.309091035276651" lon="-8.380036018788815">
        <ele>258.73000000000002</ele>
        <time>2025-05-07T09:55:31Z</time>
      </trkpt>
      <trkpt lat="37.308970000594854" lon="-8.380036018788815">
        <ele>257.29000000000002</ele>
        <time>2025-05-07T09:55:32Z</time>
      </trkpt>
      <trkpt lat="37.308847960084677" lon="-8.37998203933239">
        <ele>256.32999999999998</ele>
        <time>2025-05-07T09:55:33Z</time>
      </trkpt>
      <trkpt lat="37.308756010606885" lon="-8.379924958571792">
        <ele>254.88999999999999</ele>
        <time>2025-05-07T09:55:34Z</time>
      </trkpt>
      <trkpt lat="37.308676969259977" lon="-8.379826974123716">
        <ele>253.93000000000001</ele>
        <time>2025-05-07T09:55:35Z</time>
      </trkpt>
      <trkpt lat="37.308588037267327" lon="-8.379718009382486">
        <ele>252.47999999999999</ele>
        <time>2025-05-07T09:55:36Z</time>
      </trkpt>
      <trkpt lat="37.308491980656981" lon="-8.379598986357451">
        <ele>252</ele>
        <time>2025-05-07T09:55:37Z</time>
      </trkpt>
      <trkpt lat="37.308387039229274" lon="-8.379487004131079">
        <ele>251.03999999999999</ele>
        <time>2025-05-07T09:55:38Z</time>
      </trkpt>
      <trkpt lat="37.30825200676918" lon="-8.379415003582835">
        <ele>250.56</ele>
        <time>2025-05-07T09:55:39Z</time>
      </trkpt>
      <trkpt lat="37.308104988187551" lon="-8.379336968064308">
        <ele>249.59999999999999</ele>
        <time>2025-05-07T09:55:40Z</time>
      </trkpt>
      <trkpt lat="37.307467963546515" lon="-8.379048965871334">
        <ele>244.31</ele>
        <time>2025-05-07T09:55:44Z</time>
      </trkpt>
      <trkpt lat="37.307299990206957" lon="-8.379024993628264">
        <ele>242.38999999999999</ele>
        <time>2025-05-07T09:55:45Z</time>
      </trkpt>
      <trkpt lat="37.30676899664104" lon="-8.379033040255308">
        <ele>235.18000000000001</ele>
        <time>2025-05-07T09:55:49Z</time>
      </trkpt>
      <trkpt lat="37.306678975000978" lon="-8.379086013883352">
        <ele>233.25999999999999</ele>
        <time>2025-05-07T09:55:50Z</time>
      </trkpt>
      <trkpt lat="37.30661703273654" lon="-8.379162037745118">
        <ele>231.33000000000001</ele>
        <time>2025-05-07T09:55:51Z</time>
      </trkpt>
      <trkpt lat="37.30657797306776" lon="-8.379294974729419">
        <ele>229.41</ele>
        <time>2025-05-07T09:55:52Z</time>
      </trkpt>
      <trkpt lat="37.30653103441" lon="-8.379452973604202">
        <ele>227.49000000000001</ele>
        <time>2025-05-07T09:55:53Z</time>
      </trkpt>
      <trkpt lat="37.306503960862756" lon="-8.379636034369469">
        <ele>226.05000000000001</ele>
        <time>2025-05-07T09:55:54Z</time>
      </trkpt>
      <trkpt lat="37.306385021656752" lon="-8.381205964833498">
        <ele>220.75999999999999</ele>
        <time>2025-05-07T09:56:01Z</time>
      </trkpt>
      <trkpt lat="37.306413017213345" lon="-8.382960967719555">
        <ele>230.37</ele>
        <time>2025-05-07T09:56:09Z</time>
      </trkpt>
      <trkpt lat="37.3064049705863" lon="-8.3843660261482">
        <ele>237.09999999999999</ele>
        <time>2025-05-07T09:56:16Z</time>
      </trkpt>
      <trkpt lat="37.306455010548234" lon="-8.384554032236338">
        <ele>237.09999999999999</ele>
        <time>2025-05-07T09:56:17Z</time>
      </trkpt>
      <trkpt lat="37.306508990004659" lon="-8.384760981425643">
        <ele>237.09999999999999</ele>
        <time>2025-05-07T09:56:18Z</time>
      </trkpt>
      <trkpt lat="37.306569004431367" lon="-8.384987041354179">
        <ele>236.62</ele>
        <time>2025-05-07T09:56:19Z</time>
      </trkpt>
      <trkpt lat="37.306632958352566" lon="-8.385229026898742">
        <ele>236.13999999999999</ele>
        <time>2025-05-07T09:56:20Z</time>
      </trkpt>
      <trkpt lat="37.306696996092796" lon="-8.385480986908078">
        <ele>235.66</ele>
        <time>2025-05-07T09:56:21Z</time>
      </trkpt>
      <trkpt lat="37.306718034669757" lon="-8.385749040171504">
        <ele>234.69999999999999</ele>
        <time>2025-05-07T09:56:22Z</time>
      </trkpt>
      <trkpt lat="37.306738989427686" lon="-8.386022038757801">
        <ele>234.22</ele>
        <time>2025-05-07T09:56:23Z</time>
      </trkpt>
      <trkpt lat="37.306779976934195" lon="-8.386548003181815">
        <ele>233.25999999999999</ele>
        <time>2025-05-07T09:56:25Z</time>
      </trkpt>
      <trkpt lat="37.306857006624341" lon="-8.386765010654926">
        <ele>232.78</ele>
        <time>2025-05-07T09:56:26Z</time>
      </trkpt>
      <trkpt lat="37.306934036314487" lon="-8.386973971500993">
        <ele>232.78</ele>
        <time>2025-05-07T09:56:27Z</time>
      </trkpt>
      <trkpt lat="37.307009976357222" lon="-8.387178992852569">
        <ele>232.78</ele>
        <time>2025-05-07T09:56:28Z</time>
      </trkpt>
      <trkpt lat="37.307086000218987" lon="-8.387383008375764">
        <ele>233.25999999999999</ele>
        <time>2025-05-07T09:56:29Z</time>
      </trkpt>
      <trkpt lat="37.307149032130837" lon="-8.387574031949043">
        <ele>234.22</ele>
        <time>2025-05-07T09:56:30Z</time>
      </trkpt>
      <trkpt lat="37.307170992717147" lon="-8.387770000845194">
        <ele>235.18000000000001</ele>
        <time>2025-05-07T09:56:31Z</time>
      </trkpt>
      <trkpt lat="37.307192031294107" lon="-8.387959012761712">
        <ele>236.62</ele>
        <time>2025-05-07T09:56:32Z</time>
      </trkpt>
      <trkpt lat="37.307209968566895" lon="-8.388125980272889">
        <ele>237.58000000000001</ele>
        <time>2025-05-07T09:56:33Z</time>
      </trkpt>
      <trkpt lat="37.30717702768743" lon="-8.388294037431479">
        <ele>239.02000000000001</ele>
        <time>2025-05-07T09:56:34Z</time>
      </trkpt>
      <trkpt lat="37.307142997160554" lon="-8.388453964143992">
        <ele>240.94999999999999</ele>
        <time>2025-05-07T09:56:35Z</time>
      </trkpt>
      <trkpt lat="37.30706999078393" lon="-8.388612968847156">
        <ele>242.87</ele>
        <time>2025-05-07T09:56:36Z</time>
      </trkpt>
      <trkpt lat="37.30696203187108" lon="-8.388752024620771">
        <ele>244.78999999999999</ele>
        <time>2025-05-07T09:56:37Z</time>
      </trkpt>
      <trkpt lat="37.306845020502806" lon="-8.38890097104013">
        <ele>246.72</ele>
        <time>2025-05-07T09:56:38Z</time>
      </trkpt>
      <trkpt lat="37.306394996121526" lon="-8.389477981254458">
        <ele>254.88999999999999</ele>
        <time>2025-05-07T09:56:42Z</time>
      </trkpt>
      <trkpt lat="37.306255018338561" lon="-8.389558028429747">
        <ele>256.81</ele>
        <time>2025-05-07T09:56:43Z</time>
      </trkpt>
      <trkpt lat="37.306095007807016" lon="-8.389648972079158">
        <ele>259.20999999999998</ele>
        <time>2025-05-07T09:56:44Z</time>
      </trkpt>
      <trkpt lat="37.305927034467459" lon="-8.389666993170977">
        <ele>261.62</ele>
        <time>2025-05-07T09:56:45Z</time>
      </trkpt>
      <trkpt lat="37.305738022550941" lon="-8.389686020091176">
        <ele>264.01999999999998</ele>
        <time>2025-05-07T09:56:46Z</time>
      </trkpt>
      <trkpt lat="37.304790029302239" lon="-8.389862962067127">
        <ele>276.04000000000002</ele>
        <time>2025-05-07T09:56:51Z</time>
      </trkpt>
      <trkpt lat="37.304617026820779" lon="-8.389856005087495">
        <ele>278.44</ele>
        <time>2025-05-07T09:56:52Z</time>
      </trkpt>
      <trkpt lat="37.30429801158607" lon="-8.38984502479434">
        <ele>282.76999999999998</ele>
        <time>2025-05-07T09:56:54Z</time>
      </trkpt>
      <trkpt lat="37.304172031581402" lon="-8.38986799120903">
        <ele>285.17000000000002</ele>
        <time>2025-05-07T09:56:55Z</time>
      </trkpt>
      <trkpt lat="37.304056026041508" lon="-8.389906967058778">
        <ele>287.56999999999999</ele>
        <time>2025-05-07T09:56:56Z</time>
      </trkpt>
      <trkpt lat="37.303973967209458" lon="-8.390011992305517">
        <ele>289.97000000000003</ele>
        <time>2025-05-07T09:56:57Z</time>
      </trkpt>
      <trkpt lat="37.303900960832834" lon="-8.390123974531889">
        <ele>291.89999999999998</ele>
        <time>2025-05-07T09:56:58Z</time>
      </trkpt>
      <trkpt lat="37.303870031610131" lon="-8.390269987285137">
        <ele>293.81999999999999</ele>
        <time>2025-05-07T09:56:59Z</time>
      </trkpt>
      <trkpt lat="37.303843963891268" lon="-8.390436032786965">
        <ele>295.25999999999999</ele>
        <time>2025-05-07T09:57:00Z</time>
      </trkpt>
      <trkpt lat="37.303854022175074" lon="-8.390606017783284">
        <ele>297.18000000000001</ele>
        <time>2025-05-07T09:57:01Z</time>
      </trkpt>
      <trkpt lat="37.303862990811467" lon="-8.390743983909488">
        <ele>298.63</ele>
        <time>2025-05-07T09:57:02Z</time>
      </trkpt>
      <trkpt lat="37.303926022723317" lon="-8.390900976955891">
        <ele>300.06999999999999</ele>
        <time>2025-05-07T09:57:03Z</time>
      </trkpt>
      <trkpt lat="37.304006991907954" lon="-8.391016982495785">
        <ele>301.50999999999999</ele>
        <time>2025-05-07T09:57:04Z</time>
      </trkpt>
      <trkpt lat="37.304159961640835" lon="-8.391213035210967">
        <ele>303.43000000000001</ele>
        <time>2025-05-07T09:57:06Z</time>
      </trkpt>
      <trkpt lat="37.304196003824472" lon="-8.391331974416971">
        <ele>304.38999999999999</ele>
        <time>2025-05-07T09:57:07Z</time>
      </trkpt>
      <trkpt lat="37.304176976904273" lon="-8.391444962471724">
        <ele>304.88</ele>
        <time>2025-05-07T09:57:08Z</time>
      </trkpt>
      <trkpt lat="37.304130960255861" lon="-8.391571026295424">
        <ele>305.83999999999997</ele>
        <time>2025-05-07T09:57:09Z</time>
      </trkpt>
      <trkpt lat="37.304078992456198" lon="-8.391713015735149">
        <ele>306.31999999999999</ele>
        <time>2025-05-07T09:57:10Z</time>
      </trkpt>
      <trkpt lat="37.303899032995105" lon="-8.392205033451319">
        <ele>306.80000000000001</ele>
        <time>2025-05-07T09:57:13Z</time>
      </trkpt>
      <trkpt lat="37.303858967497945" lon="-8.392407959327102">
        <ele>307.27999999999997</ele>
        <time>2025-05-07T09:57:14Z</time>
      </trkpt>
      <trkpt lat="37.3038250207901" lon="-8.392623960971832">
        <ele>307.27999999999997</ele>
        <time>2025-05-07T09:57:15Z</time>
      </trkpt>
      <trkpt lat="37.303528971970081" lon="-8.394373012706637">
        <ele>308.24000000000001</ele>
        <time>2025-05-07T09:57:23Z</time>
      </trkpt>
      <trkpt lat="37.303315987810493" lon="-8.395542958751321">
        <ele>305.36000000000001</ele>
        <time>2025-05-07T09:57:29Z</time>
      </trkpt>
      <trkpt lat="37.303283968940377" lon="-8.395719984546304">
        <ele>304.38999999999999</ele>
        <time>2025-05-07T09:57:30Z</time>
      </trkpt>
      <trkpt lat="37.303317999467254" lon="-8.395898016169667">
        <ele>303.91000000000003</ele>
        <time>2025-05-07T09:57:31Z</time>
      </trkpt>
      <trkpt lat="37.303350018337369" lon="-8.396060960367322">
        <ele>302.94999999999999</ele>
        <time>2025-05-07T09:57:32Z</time>
      </trkpt>
      <trkpt lat="37.303382959216833" lon="-8.396228011697531">
        <ele>301.99000000000001</ele>
        <time>2025-05-07T09:57:33Z</time>
      </trkpt>
      <trkpt lat="37.303414978086948" lon="-8.396393973380327">
        <ele>300.55000000000001</ele>
        <time>2025-05-07T09:57:34Z</time>
      </trkpt>
      <trkpt lat="37.303445991128683" lon="-8.396552978083491">
        <ele>299.58999999999997</ele>
        <time>2025-05-07T09:57:35Z</time>
      </trkpt>
      <trkpt lat="37.303473986685276" lon="-8.396696979179978">
        <ele>298.14999999999998</ele>
        <time>2025-05-07T09:57:36Z</time>
      </trkpt>
      <trkpt lat="37.303426964208484" lon="-8.396824970841408">
        <ele>297.18000000000001</ele>
        <time>2025-05-07T09:57:37Z</time>
      </trkpt>
      <trkpt lat="37.303376002237201" lon="-8.396943993866444">
        <ele>295.74000000000001</ele>
        <time>2025-05-07T09:57:38Z</time>
      </trkpt>
      <trkpt lat="37.303297966718674" lon="-8.397041978314519">
        <ele>295.25999999999999</ele>
        <time>2025-05-07T09:57:39Z</time>
      </trkpt>
      <trkpt lat="37.30318003334105" lon="-8.397121019661427">
        <ele>294.77999999999997</ele>
        <time>2025-05-07T09:57:40Z</time>
      </trkpt>
      <trkpt lat="37.303054975345731" lon="-8.397201988846064">
        <ele>294.30000000000001</ele>
        <time>2025-05-07T09:57:41Z</time>
      </trkpt>
      <trkpt lat="37.302497997879982" lon="-8.397518992424011">
        <ele>294.77999999999997</ele>
        <time>2025-05-07T09:57:45Z</time>
      </trkpt>
      <trkpt lat="37.302396995946765" lon="-8.397668022662401">
        <ele>295.25999999999999</ele>
        <time>2025-05-07T09:57:46Z</time>
      </trkpt>
      <trkpt lat="37.302292976528406" lon="-8.397828033193946">
        <ele>296.22000000000003</ele>
        <time>2025-05-07T09:57:47Z</time>
      </trkpt>
      <trkpt lat="37.302207984030247" lon="-8.398011010140181">
        <ele>297.18000000000001</ele>
        <time>2025-05-07T09:57:48Z</time>
      </trkpt>
      <trkpt lat="37.302135983482003" lon="-8.398203039541841">
        <ele>298.14999999999998</ele>
        <time>2025-05-07T09:57:49Z</time>
      </trkpt>
      <trkpt lat="37.302011009305716" lon="-8.398537980392575">
        <ele>299.58999999999997</ele>
        <time>2025-05-07T09:57:51Z</time>
      </trkpt>
      <trkpt lat="37.30195501819253" lon="-8.398687010630965">
        <ele>300.06999999999999</ele>
        <time>2025-05-07T09:57:52Z</time>
      </trkpt>
      <trkpt lat="37.301837000995874" lon="-8.398808967322111">
        <ele>300.55000000000001</ele>
        <time>2025-05-07T09:57:53Z</time>
      </trkpt>
      <trkpt lat="37.301705991849303" lon="-8.398892031982541">
        <ele>301.02999999999997</ele>
        <time>2025-05-07T09:57:54Z</time>
      </trkpt>
      <trkpt lat="37.301557967439294" lon="-8.398970989510417">
        <ele>301.50999999999999</ele>
        <time>2025-05-07T09:57:55Z</time>
      </trkpt>
      <trkpt lat="37.301404997706413" lon="-8.399035027250648">
        <ele>301.99000000000001</ele>
        <time>2025-05-07T09:57:56Z</time>
      </trkpt>
      <trkpt lat="37.301039965823293" lon="-8.399232001975179">
        <ele>304.38999999999999</ele>
        <time>2025-05-07T09:57:59Z</time>
      </trkpt>
      <trkpt lat="37.300972994416952" lon="-8.399323029443622">
        <ele>305.36000000000001</ele>
        <time>2025-05-07T09:58:00Z</time>
      </trkpt>
      <trkpt lat="37.30092697776854" lon="-8.399444986134768">
        <ele>306.31999999999999</ele>
        <time>2025-05-07T09:58:01Z</time>
      </trkpt>
      <trkpt lat="37.30075104162097" lon="-8.400327013805509">
        <ele>310.63999999999999</ele>
        <time>2025-05-07T09:58:07Z</time>
      </trkpt>
      <trkpt lat="37.30073100887239" lon="-8.400465985760093">
        <ele>311.12</ele>
        <time>2025-05-07T09:58:08Z</time>
      </trkpt>
      <trkpt lat="37.300779037177563" lon="-8.400595989078283">
        <ele>311.60000000000002</ele>
        <time>2025-05-07T09:58:09Z</time>
      </trkpt>
      <trkpt lat="37.300965031608939" lon="-8.401095969602466">
        <ele>312.08999999999997</ele>
        <time>2025-05-07T09:58:12Z</time>
      </trkpt>
      <trkpt lat="37.301024040207267" lon="-8.401290010660887">
        <ele>312.08999999999997</ele>
        <time>2025-05-07T09:58:13Z</time>
      </trkpt>
      <trkpt lat="37.301522009074688" lon="-8.403844982385635">
        <ele>307.27999999999997</ele>
        <time>2025-05-07T09:58:25Z</time>
      </trkpt>
      <trkpt lat="37.301601972430944" lon="-8.404028965160251">
        <ele>307.27999999999997</ele>
        <time>2025-05-07T09:58:26Z</time>
      </trkpt>
      <trkpt lat="37.302520964294672" lon="-8.406076999381185">
        <ele>300.55000000000001</ele>
        <time>2025-05-07T09:58:36Z</time>
      </trkpt>
      <trkpt lat="37.303259996697307" lon="-8.407346019521356">
        <ele>292.86000000000001</ele>
        <time>2025-05-07T09:58:43Z</time>
      </trkpt>
      <trkpt lat="37.303403997793794" lon="-8.40746202506125">
        <ele>291.89999999999998</ele>
        <time>2025-05-07T09:58:44Z</time>
      </trkpt>
      <trkpt lat="37.303551016375422" lon="-8.407579958438873">
        <ele>290.94</ele>
        <time>2025-05-07T09:58:45Z</time>
      </trkpt>
      <trkpt lat="37.304935036227107" lon="-8.408826012164354">
        <ele>283.73000000000002</ele>
        <time>2025-05-07T09:58:55Z</time>
      </trkpt>
      <trkpt lat="37.305002007633448" lon="-8.408986022695899">
        <ele>282.76999999999998</ele>
        <time>2025-05-07T09:58:56Z</time>
      </trkpt>
      <trkpt lat="37.305069984868169" lon="-8.409147961065173">
        <ele>282.27999999999997</ele>
        <time>2025-05-07T09:58:57Z</time>
      </trkpt>
      <trkpt lat="37.305257990956306" lon="-8.409871989861131">
        <ele>277.95999999999998</ele>
        <time>2025-05-07T09:59:01Z</time>
      </trkpt>
      <trkpt lat="37.305270982906222" lon="-8.410066030919552">
        <ele>277</ele>
        <time>2025-05-07T09:59:02Z</time>
      </trkpt>
      <trkpt lat="37.305248016491532" lon="-8.410269962623715">
        <ele>276.04000000000002</ele>
        <time>2025-05-07T09:59:03Z</time>
      </trkpt>
      <trkpt lat="37.305204011499882" lon="-8.410467021167278">
        <ele>275.06999999999999</ele>
        <time>2025-05-07T09:59:04Z</time>
      </trkpt>
      <trkpt lat="37.305132010951638" lon="-8.410667013376951">
        <ele>274.58999999999997</ele>
        <time>2025-05-07T09:59:05Z</time>
      </trkpt>
      <trkpt lat="37.305055987089872" lon="-8.410873962566257">
        <ele>274.11000000000001</ele>
        <time>2025-05-07T09:59:06Z</time>
      </trkpt>
      <trkpt lat="37.304475959390402" lon="-8.41257699765265">
        <ele>273.14999999999998</ele>
        <time>2025-05-07T09:59:14Z</time>
      </trkpt>
      <trkpt lat="37.304442012682557" lon="-8.412800040096045">
        <ele>272.67000000000002</ele>
        <time>2025-05-07T09:59:15Z</time>
      </trkpt>
      <trkpt lat="37.304442012682557" lon="-8.413032973185182">
        <ele>272.67000000000002</ele>
        <time>2025-05-07T09:59:16Z</time>
      </trkpt>
      <trkpt lat="37.304442012682557" lon="-8.413269007578492">
        <ele>272.67000000000002</ele>
        <time>2025-05-07T09:59:17Z</time>
      </trkpt>
      <trkpt lat="37.304450981318951" lon="-8.413506969809532">
        <ele>272.67000000000002</ele>
        <time>2025-05-07T09:59:18Z</time>
      </trkpt>
      <trkpt lat="37.304609986022115" lon="-8.414987968280911">
        <ele>275.56</ele>
        <time>2025-05-07T09:59:25Z</time>
      </trkpt>
      <trkpt lat="37.304585007950664" lon="-8.415127024054527">
        <ele>276.04000000000002</ele>
        <time>2025-05-07T09:59:26Z</time>
      </trkpt>
      <trkpt lat="37.304542008787394" lon="-8.415234982967377">
        <ele>276.04000000000002</ele>
        <time>2025-05-07T09:59:27Z</time>
      </trkpt>
      <trkpt lat="37.304456010460854" lon="-8.415319975465536">
        <ele>276.04000000000002</ele>
        <time>2025-05-07T09:59:28Z</time>
      </trkpt>
      <trkpt lat="37.304361965507269" lon="-8.415402034297586">
        <ele>275.56</ele>
        <time>2025-05-07T09:59:29Z</time>
      </trkpt>
      <trkpt lat="37.304231040179729" lon="-8.415428018197417">
        <ele>275.06999999999999</ele>
        <time>2025-05-07T09:59:30Z</time>
      </trkpt>
      <trkpt lat="37.304082009941339" lon="-8.415459031239152">
        <ele>274.58999999999997</ele>
        <time>2025-05-07T09:59:31Z</time>
      </trkpt>
      <trkpt lat="37.303120018914342" lon="-8.41569397598505">
        <ele>266.89999999999998</ele>
        <time>2025-05-07T09:59:37Z</time>
      </trkpt>
      <trkpt lat="37.302974006161094" lon="-8.415791038423777">
        <ele>264.98000000000002</ele>
        <time>2025-05-07T09:59:38Z</time>
      </trkpt>
      <trkpt lat="37.30283796787262" lon="-8.415917018428445">
        <ele>263.54000000000002</ele>
        <time>2025-05-07T09:59:39Z</time>
      </trkpt>
      <trkpt lat="37.302725985646248" lon="-8.416021037846804">
        <ele>262.10000000000002</ele>
        <time>2025-05-07T09:59:40Z</time>
      </trkpt>
      <trkpt lat="37.302630012854934" lon="-8.416231004521251">
        <ele>260.64999999999998</ele>
        <time>2025-05-07T09:59:41Z</time>
      </trkpt>
      <trkpt lat="37.302585002034903" lon="-8.416408030316234">
        <ele>259.69</ele>
        <time>2025-05-07T09:59:42Z</time>
      </trkpt>
      <trkpt lat="37.302544014528394" lon="-8.41659402474761">
        <ele>258.73000000000002</ele>
        <time>2025-05-07T09:59:43Z</time>
      </trkpt>
      <trkpt lat="37.302504032850266" lon="-8.416771972551942">
        <ele>258.25</ele>
        <time>2025-05-07T09:59:44Z</time>
      </trkpt>
      <trkpt lat="37.302446030080318" lon="-8.416925026103854">
        <ele>257.76999999999998</ele>
        <time>2025-05-07T09:59:45Z</time>
      </trkpt>
      <trkpt lat="37.302378974854946" lon="-8.417058968916535">
        <ele>257.29000000000002</ele>
        <time>2025-05-07T09:59:46Z</time>
      </trkpt>
      <trkpt lat="37.302274033427238" lon="-8.41715301387012">
        <ele>257.29000000000002</ele>
        <time>2025-05-07T09:59:47Z</time>
      </trkpt>
      <trkpt lat="37.302148975431919" lon="-8.417237000539899">
        <ele>257.76999999999998</ele>
        <time>2025-05-07T09:59:48Z</time>
      </trkpt>
      <trkpt lat="37.302016960456967" lon="-8.417327022179961">
        <ele>257.76999999999998</ele>
        <time>2025-05-07T09:59:49Z</time>
      </trkpt>
      <trkpt lat="37.301630973815918" lon="-8.417587028816342">
        <ele>256.81</ele>
        <time>2025-05-07T09:59:52Z</time>
      </trkpt>
      <trkpt lat="37.30150499381125" lon="-8.417745027691126">
        <ele>256.32999999999998</ele>
        <time>2025-05-07T09:59:53Z</time>
      </trkpt>
      <trkpt lat="37.30139996856451" lon="-8.417876036837697">
        <ele>256.32999999999998</ele>
        <time>2025-05-07T09:59:54Z</time>
      </trkpt>
      <trkpt lat="37.301326040178537" lon="-8.418032024055719">
        <ele>255.84999999999999</ele>
        <time>2025-05-07T09:59:55Z</time>
      </trkpt>
      <trkpt lat="37.301256973296404" lon="-8.418207038193941">
        <ele>255.84999999999999</ele>
        <time>2025-05-07T09:59:56Z</time>
      </trkpt>
      <trkpt lat="37.301186984404922" lon="-8.418388003483415">
        <ele>255.37</ele>
        <time>2025-05-07T09:59:57Z</time>
      </trkpt>
      <trkpt lat="37.301135016605258" lon="-8.418582966551185">
        <ele>255.37</ele>
        <time>2025-05-07T09:59:58Z</time>
      </trkpt>
      <trkpt lat="37.301082964986563" lon="-8.418783964589238">
        <ele>255.37</ele>
        <time>2025-05-07T09:59:59Z</time>
      </trkpt>
      <trkpt lat="37.30047301389277" lon="-8.420327994972467">
        <ele>256.81</ele>
        <time>2025-05-07T10:00:07Z</time>
      </trkpt>
      <trkpt lat="37.299995999783278" lon="-8.420980023220182">
        <ele>259.20999999999998</ele>
        <time>2025-05-07T10:00:11Z</time>
      </trkpt>
      <trkpt lat="37.299849987030029" lon="-8.421099968254566">
        <ele>260.64999999999998</ele>
        <time>2025-05-07T10:00:12Z</time>
      </trkpt>
      <trkpt lat="37.299696011468768" lon="-8.42119300737977">
        <ele>261.62</ele>
        <time>2025-05-07T10:00:13Z</time>
      </trkpt>
      <trkpt lat="37.29952996596694" lon="-8.421245981007814">
        <ele>263.06</ele>
        <time>2025-05-07T10:00:14Z</time>
      </trkpt>
      <trkpt lat="37.299368027597666" lon="-8.42129803262651">
        <ele>264.01999999999998</ele>
        <time>2025-05-07T10:00:15Z</time>
      </trkpt>
      <trkpt lat="37.299073990434408" lon="-8.421414038166404">
        <ele>266.42000000000002</ele>
        <time>2025-05-07T10:00:17Z</time>
      </trkpt>
      <trkpt lat="37.298949016258121" lon="-8.421496013179421">
        <ele>267.38</ele>
        <time>2025-05-07T10:00:18Z</time>
      </trkpt>
      <trkpt lat="37.298839967697859" lon="-8.421619981527329">
        <ele>268.35000000000002</ele>
        <time>2025-05-07T10:00:19Z</time>
      </trkpt>
      <trkpt lat="37.298401007428765" lon="-8.422219036146998">
        <ele>272.67000000000002</ele>
        <time>2025-05-07T10:00:23Z</time>
      </trkpt>
      <trkpt lat="37.298304028809071" lon="-8.422404024749994">
        <ele>273.14999999999998</ele>
        <time>2025-05-07T10:00:24Z</time>
      </trkpt>
      <trkpt lat="37.298095989972353" lon="-8.423022022470832">
        <ele>274.11000000000001</ele>
        <time>2025-05-07T10:00:27Z</time>
      </trkpt>
      <trkpt lat="37.29804502800107" lon="-8.423220003023744">
        <ele>274.11000000000001</ele>
        <time>2025-05-07T10:00:28Z</time>
      </trkpt>
      <trkpt lat="37.29802499525249" lon="-8.423428041860461">
        <ele>274.11000000000001</ele>
        <time>2025-05-07T10:00:29Z</time>
      </trkpt>
      <trkpt lat="37.29800496250391" lon="-8.423635996878147">
        <ele>274.11000000000001</ele>
        <time>2025-05-07T10:00:30Z</time>
      </trkpt>
      <trkpt lat="37.298015020787716" lon="-8.423848981037736">
        <ele>274.11000000000001</ele>
        <time>2025-05-07T10:00:31Z</time>
      </trkpt>
      <trkpt lat="37.298026001080871" lon="-8.424073029309511">
        <ele>273.63</ele>
        <time>2025-05-07T10:00:32Z</time>
      </trkpt>
      <trkpt lat="37.298037987202406" lon="-8.424303028732538">
        <ele>273.14999999999998</ele>
        <time>2025-05-07T10:00:33Z</time>
      </trkpt>
      <trkpt lat="37.298066988587379" lon="-8.424960002303124">
        <ele>270.26999999999998</ele>
        <time>2025-05-07T10:00:36Z</time>
      </trkpt>
      <trkpt lat="37.298018960282207" lon="-8.425164017826319">
        <ele>269.31</ele>
        <time>2025-05-07T10:00:37Z</time>
      </trkpt>
      <trkpt lat="37.297958023846149" lon="-8.425369039177895">
        <ele>268.35000000000002</ele>
        <time>2025-05-07T10:00:38Z</time>
      </trkpt>
      <trkpt lat="37.297868002206087" lon="-8.425569031387568">
        <ele>266.89999999999998</ele>
        <time>2025-05-07T10:00:39Z</time>
      </trkpt>
      <trkpt lat="37.297772029414773" lon="-8.42576801776886">
        <ele>265.94</ele>
        <time>2025-05-07T10:00:40Z</time>
      </trkpt>
      <trkpt lat="37.297648983076215" lon="-8.425943031907082">
        <ele>264.98000000000002</ele>
        <time>2025-05-07T10:00:41Z</time>
      </trkpt>
      <trkpt lat="37.297500958666205" lon="-8.426094995811582">
        <ele>264.01999999999998</ele>
        <time>2025-05-07T10:00:42Z</time>
      </trkpt>
      <trkpt lat="37.297345977276564" lon="-8.426249977201223">
        <ele>263.06</ele>
        <time>2025-05-07T10:00:43Z</time>
      </trkpt>
      <trkpt lat="37.297168029472232" lon="-8.426376963034272">
        <ele>262.10000000000002</ele>
        <time>2025-05-07T10:00:44Z</time>
      </trkpt>
      <trkpt lat="37.296266974881291" lon="-8.4269730001688">
        <ele>258.25</ele>
        <time>2025-05-07T10:00:49Z</time>
      </trkpt>
      <trkpt lat="37.296085003763437" lon="-8.427042989060283">
        <ele>257.76999999999998</ele>
        <time>2025-05-07T10:00:50Z</time>
      </trkpt>
      <trkpt lat="37.295899009332061" lon="-8.427061010152102">
        <ele>257.29000000000002</ele>
        <time>2025-05-07T10:00:51Z</time>
      </trkpt>
      <trkpt lat="37.29570597410202" lon="-8.427040977403522">
        <ele>257.29000000000002</ele>
        <time>2025-05-07T10:00:52Z</time>
      </trkpt>
      <trkpt lat="37.295508999377489" lon="-8.427008958533406">
        <ele>256.81</ele>
        <time>2025-05-07T10:00:53Z</time>
      </trkpt>
      <trkpt lat="37.295310012996197" lon="-8.42695296742022">
        <ele>256.81</ele>
        <time>2025-05-07T10:00:54Z</time>
      </trkpt>
      <trkpt lat="37.293708985671401" lon="-8.426717016845942">
        <ele>258.25</ele>
        <time>2025-05-07T10:01:02Z</time>
      </trkpt>
      <trkpt lat="37.291075978428125" lon="-8.426809972152114">
        <ele>260.64999999999998</ele>
        <time>2025-05-07T10:01:15Z</time>
      </trkpt>
      <trkpt lat="37.290710024535656" lon="-8.426879039034247">
        <ele>260.64999999999998</ele>
        <time>2025-05-07T10:01:17Z</time>
      </trkpt>
      <trkpt lat="37.290517995133996" lon="-8.426933018490672">
        <ele>260.64999999999998</ele>
        <time>2025-05-07T10:01:18Z</time>
      </trkpt>
      <trkpt lat="37.290322026237845" lon="-8.426986997947097">
        <ele>260.17000000000002</ele>
        <time>2025-05-07T10:01:19Z</time>
      </trkpt>
      <trkpt lat="37.290136031806469" lon="-8.427052041515708">
        <ele>259.69</ele>
        <time>2025-05-07T10:01:20Z</time>
      </trkpt>
      <trkpt lat="37.289966968819499" lon="-8.427158994600177">
        <ele>258.73000000000002</ele>
        <time>2025-05-07T10:01:21Z</time>
      </trkpt>
      <trkpt lat="37.289801007136703" lon="-8.427264019846916">
        <ele>258.25</ele>
        <time>2025-05-07T10:01:22Z</time>
      </trkpt>
      <trkpt lat="37.289673015475273" lon="-8.427419001236558">
        <ele>257.29000000000002</ele>
        <time>2025-05-07T10:01:23Z</time>
      </trkpt>
      <trkpt lat="37.289548041298985" lon="-8.427598038688302">
        <ele>256.32999999999998</ele>
        <time>2025-05-07T10:01:24Z</time>
      </trkpt>
      <trkpt lat="37.289421977475286" lon="-8.427779003977776">
        <ele>255.37</ele>
        <time>2025-05-07T10:01:25Z</time>
      </trkpt>
      <trkpt lat="37.289124000817537" lon="-8.428381998091936">
        <ele>251.52000000000001</ele>
        <time>2025-05-07T10:01:28Z</time>
      </trkpt>
      <trkpt lat="37.28904596529901" lon="-8.428585007786751">
        <ele>250.08000000000001</ele>
        <time>2025-05-07T10:01:29Z</time>
      </trkpt>
      <trkpt lat="37.288820995017886" lon="-8.429175009950995">
        <ele>246.72</ele>
        <time>2025-05-07T10:01:32Z</time>
      </trkpt>
      <trkpt lat="37.288685962557793" lon="-8.429350024089217">
        <ele>245.27000000000001</ele>
        <time>2025-05-07T10:01:33Z</time>
      </trkpt>
      <trkpt lat="37.288555037230253" lon="-8.429499976336956">
        <ele>244.78999999999999</ele>
        <time>2025-05-07T10:01:34Z</time>
      </trkpt>
      <trkpt lat="37.288416987285018" lon="-8.429626040160656">
        <ele>243.83000000000001</ele>
        <time>2025-05-07T10:01:35Z</time>
      </trkpt>
      <trkpt lat="37.288269968703389" lon="-8.429702986031771">
        <ele>242.87</ele>
        <time>2025-05-07T10:01:36Z</time>
      </trkpt>
      <trkpt lat="37.28812001645565" lon="-8.429755959659815">
        <ele>241.91</ele>
        <time>2025-05-07T10:01:37Z</time>
      </trkpt>
      <trkpt lat="37.28797098621726" lon="-8.42980801127851">
        <ele>240.94999999999999</ele>
        <time>2025-05-07T10:01:38Z</time>
      </trkpt>
      <trkpt lat="37.287810975685716" lon="-8.429817985743284">
        <ele>239.50999999999999</ele>
        <time>2025-05-07T10:01:39Z</time>
      </trkpt>
      <trkpt lat="37.287683989852667" lon="-8.429817985743284">
        <ele>238.53999999999999</ele>
        <time>2025-05-07T10:01:40Z</time>
      </trkpt>
      <trkpt lat="37.287499001249671" lon="-8.429736010730267">
        <ele>238.06</ele>
        <time>2025-05-07T10:01:41Z</time>
      </trkpt>
      <trkpt lat="37.287330022081733" lon="-8.429659986868501">
        <ele>236.62</ele>
        <time>2025-05-07T10:01:42Z</time>
      </trkpt>
      <trkpt lat="37.286188993602991" lon="-8.429233012720943">
        <ele>229.41</ele>
        <time>2025-05-07T10:01:48Z</time>
      </trkpt>
      <trkpt lat="37.285893028602004" lon="-8.429264025762677">
        <ele>226.05000000000001</ele>
        <time>2025-05-07T10:01:50Z</time>
      </trkpt>
      <trkpt lat="37.285752967000008" lon="-8.429324962198734">
        <ele>224.12</ele>
        <time>2025-05-07T10:01:51Z</time>
      </trkpt>
      <trkpt lat="37.285661017522216" lon="-8.429429987445474">
        <ele>222.68000000000001</ele>
        <time>2025-05-07T10:01:52Z</time>
      </trkpt>
      <trkpt lat="37.285192972049117" lon="-8.430067012086511">
        <ele>214.99000000000001</ele>
        <time>2025-05-07T10:01:56Z</time>
      </trkpt>
      <trkpt lat="37.285123988986015" lon="-8.430232973769307">
        <ele>213.06999999999999</ele>
        <time>2025-05-07T10:01:57Z</time>
      </trkpt>
      <trkpt lat="37.285098005086184" lon="-8.430393990129232">
        <ele>211.63</ele>
        <time>2025-05-07T10:01:58Z</time>
      </trkpt>
      <trkpt lat="37.285122983157635" lon="-8.430546037852764">
        <ele>209.69999999999999</ele>
        <time>2025-05-07T10:01:59Z</time>
      </trkpt>
      <trkpt lat="37.285149972885847" lon="-8.43071099370718">
        <ele>208.25999999999999</ele>
        <time>2025-05-07T10:02:00Z</time>
      </trkpt>
      <trkpt lat="37.285176040604711" lon="-8.430865975096822">
        <ele>206.81999999999999</ele>
        <time>2025-05-07T10:02:01Z</time>
      </trkpt>
      <trkpt lat="37.285208981484175" lon="-8.431166969239712">
        <ele>202.97999999999999</ele>
        <time>2025-05-07T10:02:04Z</time>
      </trkpt>
      <trkpt lat="37.285199007019401" lon="-8.431247016415">
        <ele>202.00999999999999</ele>
        <time>2025-05-07T10:02:05Z</time>
      </trkpt>
      <trkpt lat="37.285163970664144" lon="-8.431291021406651">
        <ele>200.56999999999999</ele>
        <time>2025-05-07T10:02:06Z</time>
      </trkpt>
      <trkpt lat="37.285096999257803" lon="-8.431321028620005">
        <ele>199.61000000000001</ele>
        <time>2025-05-07T10:02:07Z</time>
      </trkpt>
      <trkpt lat="37.284993985667825" lon="-8.431358998641372">
        <ele>198.65000000000001</ele>
        <time>2025-05-07T10:02:08Z</time>
      </trkpt>
      <trkpt lat="37.28487404063344" lon="-8.431299990043044">
        <ele>197.69</ele>
        <time>2025-05-07T10:02:09Z</time>
      </trkpt>
      <trkpt lat="37.284728027880192" lon="-8.43122698366642">
        <ele>196.25</ele>
        <time>2025-05-07T10:02:10Z</time>
      </trkpt>
      <trkpt lat="37.284570029005408" lon="-8.431147020310164">
        <ele>194.80000000000001</ele>
        <time>2025-05-07T10:02:11Z</time>
      </trkpt>
      <trkpt lat="37.284400966018438" lon="-8.431063033640385">
        <ele>193.36000000000001</ele>
        <time>2025-05-07T10:02:12Z</time>
      </trkpt>
      <trkpt lat="37.284226035699248" lon="-8.431049035862088">
        <ele>191.91999999999999</ele>
        <time>2025-05-07T10:02:13Z</time>
      </trkpt>
      <trkpt lat="37.284049009904265" lon="-8.431051969528198">
        <ele>190.47999999999999</ele>
        <time>2025-05-07T10:02:14Z</time>
      </trkpt>
      <trkpt lat="37.283883970230818" lon="-8.431078037247062">
        <ele>188.56</ele>
        <time>2025-05-07T10:02:15Z</time>
      </trkpt>
      <trkpt lat="37.28373896330595" lon="-8.431151965633035">
        <ele>186.63</ele>
        <time>2025-05-07T10:02:16Z</time>
      </trkpt>
      <trkpt lat="37.283593034371734" lon="-8.431246010586619">
        <ele>184.71000000000001</ele>
        <time>2025-05-07T10:02:17Z</time>
      </trkpt>
      <trkpt lat="37.28343796916306" lon="-8.431362016126514">
        <ele>182.78999999999999</ele>
        <time>2025-05-07T10:02:18Z</time>
      </trkpt>
      <trkpt lat="37.282380005344748" lon="-8.432591976597905">
        <ele>172.69</ele>
        <time>2025-05-07T10:02:25Z</time>
      </trkpt>
      <trkpt lat="37.28156796656549" lon="-8.433379959315062">
        <ele>167.41</ele>
        <time>2025-05-07T10:02:30Z</time>
      </trkpt>
      <trkpt lat="37.281441986560822" lon="-8.433580035343766">
        <ele>165.96000000000001</ele>
        <time>2025-05-07T10:02:31Z</time>
      </trkpt>
      <trkpt lat="37.281325981020927" lon="-8.433763012290001">
        <ele>165.47999999999999</ele>
        <time>2025-05-07T10:02:32Z</time>
      </trkpt>
      <trkpt lat="37.2810959815979" lon="-8.43412603251636">
        <ele>163.56</ele>
        <time>2025-05-07T10:02:34Z</time>
      </trkpt>
      <trkpt lat="37.280962038785219" lon="-8.434293000027537">
        <ele>162.59999999999999</ele>
        <time>2025-05-07T10:02:35Z</time>
      </trkpt>
      <trkpt lat="37.280801022425294" lon="-8.434402970597148">
        <ele>162.12</ele>
        <time>2025-05-07T10:02:36Z</time>
      </trkpt>
      <trkpt lat="37.280637994408607" lon="-8.434515036642551">
        <ele>161.16</ele>
        <time>2025-05-07T10:02:37Z</time>
      </trkpt>
      <trkpt lat="37.280460968613625" lon="-8.434616038575769">
        <ele>160.68000000000001</ele>
        <time>2025-05-07T10:02:38Z</time>
      </trkpt>
      <trkpt lat="37.278430033475161" lon="-8.435577023774386">
        <ele>156.34999999999999</ele>
        <time>2025-05-07T10:02:48Z</time>
      </trkpt>
      <trkpt lat="37.276997985318303" lon="-8.43616995960474">
        <ele>154.43000000000001</ele>
        <time>2025-05-07T10:02:55Z</time>
      </trkpt>
      <trkpt lat="37.274772003293037" lon="-8.436542032286525">
        <ele>151.53999999999999</ele>
        <time>2025-05-07T10:03:06Z</time>
      </trkpt>
      <trkpt lat="37.27460503578186" lon="-8.436569022014737">
        <ele>151.06</ele>
        <time>2025-05-07T10:03:07Z</time>
      </trkpt>
      <trkpt lat="37.274431027472019" lon="-8.436556030064821">
        <ele>150.58000000000001</ele>
        <time>2025-05-07T10:03:08Z</time>
      </trkpt>
      <trkpt lat="37.274249978363514" lon="-8.43651101924479">
        <ele>150.58000000000001</ele>
        <time>2025-05-07T10:03:09Z</time>
      </trkpt>
      <trkpt lat="37.273547993972898" lon="-8.436284037306905">
        <ele>150.09999999999999</ele>
        <time>2025-05-07T10:03:13Z</time>
      </trkpt>
      <trkpt lat="37.272463040426373" lon="-8.436312032863498">
        <ele>148.18000000000001</ele>
        <time>2025-05-07T10:03:20Z</time>
      </trkpt>
      <trkpt lat="37.272314010187984" lon="-8.436344973742962">
        <ele>147.69999999999999</ele>
        <time>2025-05-07T10:03:21Z</time>
      </trkpt>
      <trkpt lat="37.272167997434735" lon="-8.436399959027767">
        <ele>147.69999999999999</ele>
        <time>2025-05-07T10:03:22Z</time>
      </trkpt>
      <trkpt lat="37.272019973024726" lon="-8.43649098649621">
        <ele>147.69999999999999</ele>
        <time>2025-05-07T10:03:23Z</time>
      </trkpt>
      <trkpt lat="37.271888041868806" lon="-8.436623001471162">
        <ele>147.69999999999999</ele>
        <time>2025-05-07T10:03:24Z</time>
      </trkpt>
      <trkpt lat="37.271749991923571" lon="-8.436761973425746">
        <ele>147.69999999999999</ele>
        <time>2025-05-07T10:03:25Z</time>
      </trkpt>
      <trkpt lat="37.27056697010994" lon="-8.437842987477779">
        <ele>147.69999999999999</ele>
        <time>2025-05-07T10:03:32Z</time>
      </trkpt>
      <trkpt lat="37.269960958510637" lon="-8.438387978821993">
        <ele>147.22</ele>
        <time>2025-05-07T10:03:36Z</time>
      </trkpt>
      <trkpt lat="37.269843025133014" lon="-8.438557963818312">
        <ele>146.74000000000001</ele>
        <time>2025-05-07T10:03:37Z</time>
      </trkpt>
      <trkpt lat="37.269734982401133" lon="-8.438761979341507">
        <ele>146.74000000000001</ele>
        <time>2025-05-07T10:03:38Z</time>
      </trkpt>
      <trkpt lat="37.269282024353743" lon="-8.439787002280355">
        <ele>145.78</ele>
        <time>2025-05-07T10:03:43Z</time>
      </trkpt>
      <trkpt lat="37.2691909968853" lon="-8.439946006983519">
        <ele>145.30000000000001</ele>
        <time>2025-05-07T10:03:44Z</time>
      </trkpt>
      <trkpt lat="37.269079014658928" lon="-8.440029993653297">
        <ele>144.81999999999999</ele>
        <time>2025-05-07T10:03:45Z</time>
      </trkpt>
      <trkpt lat="37.26895596832037" lon="-8.440086990594864">
        <ele>144.34</ele>
        <time>2025-05-07T10:03:46Z</time>
      </trkpt>
      <trkpt lat="37.268824959173799" lon="-8.440141975879669">
        <ele>144.34</ele>
        <time>2025-05-07T10:03:47Z</time>
      </trkpt>
      <trkpt lat="37.268669977784157" lon="-8.440165026113391">
        <ele>144.34</ele>
        <time>2025-05-07T10:03:48Z</time>
      </trkpt>
      <trkpt lat="37.268023984506726" lon="-8.440258987247944">
        <ele>143.37</ele>
        <time>2025-05-07T10:03:52Z</time>
      </trkpt>
      <trkpt lat="37.267915019765496" lon="-8.440309027209878">
        <ele>143.37</ele>
        <time>2025-05-07T10:03:53Z</time>
      </trkpt>
      <trkpt lat="37.267827009782195" lon="-8.440395025536418">
        <ele>143.37</ele>
        <time>2025-05-07T10:03:54Z</time>
      </trkpt>
      <trkpt lat="37.267770012840629" lon="-8.440523017197847">
        <ele>143.37</ele>
        <time>2025-05-07T10:03:55Z</time>
      </trkpt>
      <trkpt lat="37.267727013677359" lon="-8.440691996365786">
        <ele>142.88999999999999</ele>
        <time>2025-05-07T10:03:56Z</time>
      </trkpt>
      <trkpt lat="37.267692983150482" lon="-8.440882014110684">
        <ele>143.37</ele>
        <time>2025-05-07T10:03:57Z</time>
      </trkpt>
      <trkpt lat="37.267659036442637" lon="-8.44108996912837">
        <ele>142.88999999999999</ele>
        <time>2025-05-07T10:03:58Z</time>
      </trkpt>
      <trkpt lat="37.267349995672703" lon="-8.44321696087718">
        <ele>140.00999999999999</ele>
        <time>2025-05-07T10:04:07Z</time>
      </trkpt>
      <trkpt lat="37.267153020948172" lon="-8.444510037079454">
        <ele>138.56999999999999</ele>
        <time>2025-05-07T10:04:13Z</time>
      </trkpt>
      <trkpt lat="37.267092000693083" lon="-8.44469603151083">
        <ele>138.09</ele>
        <time>2025-05-07T10:04:14Z</time>
      </trkpt>
      <trkpt lat="37.267003990709782" lon="-8.444859981536865">
        <ele>138.09</ele>
        <time>2025-05-07T10:04:15Z</time>
      </trkpt>
      <trkpt lat="37.266899971291423" lon="-8.445010017603636">
        <ele>138.09</ele>
        <time>2025-05-07T10:04:16Z</time>
      </trkpt>
      <trkpt lat="37.26676401682198" lon="-8.445117976516485">
        <ele>138.09</ele>
        <time>2025-05-07T10:04:17Z</time>
      </trkpt>
      <trkpt lat="37.266609035432339" lon="-8.445213027298451">
        <ele>138.09</ele>
        <time>2025-05-07T10:04:18Z</time>
      </trkpt>
      <trkpt lat="37.26644198410213" lon="-8.445304976776242">
        <ele>137.61000000000001</ele>
        <time>2025-05-07T10:04:19Z</time>
      </trkpt>
      <trkpt lat="37.266259007155895" lon="-8.445375971496105">
        <ele>137.61000000000001</ele>
        <time>2025-05-07T10:04:20Z</time>
      </trkpt>
      <trkpt lat="37.264237962663174" lon="-8.446048032492399">
        <ele>137.13</ele>
        <time>2025-05-07T10:04:30Z</time>
      </trkpt>
      <trkpt lat="37.263618037104607" lon="-8.446081979200244">
        <ele>137.61000000000001</ele>
        <time>2025-05-07T10:04:33Z</time>
      </trkpt>
      <trkpt lat="37.263422990217805" lon="-8.446058006957173">
        <ele>137.61000000000001</ele>
        <time>2025-05-07T10:04:34Z</time>
      </trkpt>
      <trkpt lat="37.263238001614809" lon="-8.446011990308762">
        <ele>138.09</ele>
        <time>2025-05-07T10:04:35Z</time>
      </trkpt>
      <trkpt lat="37.263057036325336" lon="-8.445905959233642">
        <ele>137.61000000000001</ele>
        <time>2025-05-07T10:04:36Z</time>
      </trkpt>
      <trkpt lat="37.262873975560069" lon="-8.445778973400593">
        <ele>137.61000000000001</ele>
        <time>2025-05-07T10:04:37Z</time>
      </trkpt>
      <trkpt lat="37.261136993765831" lon="-8.444539038464427">
        <ele>136.16</ele>
        <time>2025-05-07T10:04:46Z</time>
      </trkpt>
      <trkpt lat="37.260806998237967" lon="-8.44422597438097">
        <ele>136.16</ele>
        <time>2025-05-07T10:04:48Z</time>
      </trkpt>
      <trkpt lat="37.260672971606255" lon="-8.444050960242748">
        <ele>136.16</ele>
        <time>2025-05-07T10:04:49Z</time>
      </trkpt>
      <trkpt lat="37.260559983551502" lon="-8.443863959982991">
        <ele>136.16</ele>
        <time>2025-05-07T10:04:50Z</time>
      </trkpt>
      <trkpt lat="37.260449007153511" lon="-8.443678971379995">
        <ele>136.16</ele>
        <time>2025-05-07T10:04:51Z</time>
      </trkpt>
      <trkpt lat="37.260371977463365" lon="-8.443473028019071">
        <ele>136.16</ele>
        <time>2025-05-07T10:04:52Z</time>
      </trkpt>
      <trkpt lat="37.260310035198927" lon="-8.443245040252805">
        <ele>136.63999999999999</ele>
        <time>2025-05-07T10:04:53Z</time>
      </trkpt>
      <trkpt lat="37.260265024378896" lon="-8.44300095923245">
        <ele>136.63999999999999</ele>
        <time>2025-05-07T10:04:54Z</time>
      </trkpt>
      <trkpt lat="37.260230993852019" lon="-8.442735001444817">
        <ele>137.13</ele>
        <time>2025-05-07T10:04:55Z</time>
      </trkpt>
      <trkpt lat="37.259949026629329" lon="-8.440499966964126">
        <ele>133.75999999999999</ele>
        <time>2025-05-07T10:05:03Z</time>
      </trkpt>
      <trkpt lat="37.259899992495775" lon="-8.440280025824904">
        <ele>133.28</ele>
        <time>2025-05-07T10:05:04Z</time>
      </trkpt>
      <trkpt lat="37.259844001382589" lon="-8.440084978938103">
        <ele>133.28</ele>
        <time>2025-05-07T10:05:05Z</time>
      </trkpt>
      <trkpt lat="37.259768983349204" lon="-8.439913988113403">
        <ele>133.28</ele>
        <time>2025-05-07T10:05:06Z</time>
      </trkpt>
      <trkpt lat="37.259657001122832" lon="-8.439767975360155">
        <ele>133.28</ele>
        <time>2025-05-07T10:05:07Z</time>
      </trkpt>
      <trkpt lat="37.259515011683106" lon="-8.439639983698726">
        <ele>133.75999999999999</ele>
        <time>2025-05-07T10:05:08Z</time>
      </trkpt>
      <trkpt lat="37.25935198366642" lon="-8.43954199925065">
        <ele>133.75999999999999</ele>
        <time>2025-05-07T10:05:09Z</time>
      </trkpt>
      <trkpt lat="37.259190967306495" lon="-8.439472010359168">
        <ele>134.24000000000001</ele>
        <time>2025-05-07T10:05:10Z</time>
      </trkpt>
      <trkpt lat="37.25902802310884" lon="-8.439425993710756">
        <ele>134.24000000000001</ele>
        <time>2025-05-07T10:05:11Z</time>
      </trkpt>
      <trkpt lat="37.258869018405676" lon="-8.439417025074363">
        <ele>134.72</ele>
        <time>2025-05-07T10:05:12Z</time>
      </trkpt>
      <trkpt lat="37.258720993995667" lon="-8.439428005367518">
        <ele>134.72</ele>
        <time>2025-05-07T10:05:13Z</time>
      </trkpt>
      <trkpt lat="37.258602976799011" lon="-8.43947502784431">
        <ele>135.19999999999999</ele>
        <time>2025-05-07T10:05:14Z</time>
      </trkpt>
      <trkpt lat="37.258504992350936" lon="-8.439534958451986">
        <ele>135.19999999999999</ele>
        <time>2025-05-07T10:05:15Z</time>
      </trkpt>
      <trkpt lat="37.258408013731241" lon="-8.439594972878695">
        <ele>135.68000000000001</ele>
        <time>2025-05-07T10:05:16Z</time>
      </trkpt>
      <trkpt lat="37.258314974606037" lon="-8.439652975648642">
        <ele>135.68000000000001</ele>
        <time>2025-05-07T10:05:17Z</time>
      </trkpt>
      <trkpt lat="37.25821397267282" lon="-8.439719025045633">
        <ele>135.19999999999999</ele>
        <time>2025-05-07T10:05:18Z</time>
      </trkpt>
      <trkpt lat="37.258025966584682" lon="-8.439907031133771">
        <ele>134.24000000000001</ele>
        <time>2025-05-07T10:05:20Z</time>
      </trkpt>
      <trkpt lat="37.257105968892574" lon="-8.440891988575459">
        <ele>125.59</ele>
        <time>2025-05-07T10:05:30Z</time>
      </trkpt>
      <trkpt lat="37.256692992523313" lon="-8.44125903211534">
        <ele>121.26000000000001</ele>
        <time>2025-05-07T10:05:34Z</time>
      </trkpt>
      <trkpt lat="37.256571035832167" lon="-8.441334972158074">
        <ele>120.3</ele>
        <time>2025-05-07T10:05:35Z</time>
      </trkpt>
      <trkpt lat="37.25520696491003" lon="-8.441981971263886">
        <ele>111.17</ele>
        <time>2025-05-07T10:05:44Z</time>
      </trkpt>
      <trkpt lat="37.254487965255976" lon="-8.442339040338993">
        <ele>107.81</ele>
        <time>2025-05-07T10:05:50Z</time>
      </trkpt>
      <trkpt lat="37.254386963322759" lon="-8.442426966503263">
        <ele>107.81</ele>
        <time>2025-05-07T10:05:51Z</time>
      </trkpt>
      <trkpt lat="37.254286967217922" lon="-8.442512964829803">
        <ele>107.81</ele>
        <time>2025-05-07T10:05:52Z</time>
      </trkpt>
      <trkpt lat="37.254197029396892" lon="-8.442630982026458">
        <ele>107.81</ele>
        <time>2025-05-07T10:05:53Z</time>
      </trkpt>
      <trkpt lat="37.254112958908081" lon="-8.442765008658171">
        <ele>107.81</ele>
        <time>2025-05-07T10:05:54Z</time>
      </trkpt>
      <trkpt lat="37.25402302108705" lon="-8.442906998097897">
        <ele>107.81</ele>
        <time>2025-05-07T10:05:55Z</time>
      </trkpt>
      <trkpt lat="37.253493033349514" lon="-8.443752983585">
        <ele>108.29000000000001</ele>
        <time>2025-05-07T10:06:01Z</time>
      </trkpt>
      <trkpt lat="37.253394965082407" lon="-8.44385901466012">
        <ele>108.29000000000001</ele>
        <time>2025-05-07T10:06:02Z</time>
      </trkpt>
      <trkpt lat="37.253280971199274" lon="-8.443947024643421">
        <ele>108.29000000000001</ele>
        <time>2025-05-07T10:06:03Z</time>
      </trkpt>
      <trkpt lat="37.253145016729832" lon="-8.443998992443085">
        <ele>108.29000000000001</ele>
        <time>2025-05-07T10:06:04Z</time>
      </trkpt>
      <trkpt lat="37.252995986491442" lon="-8.444049032405019">
        <ele>108.29000000000001</ele>
        <time>2025-05-07T10:06:05Z</time>
      </trkpt>
      <trkpt lat="37.252835975959897" lon="-8.444102006033063">
        <ele>108.29000000000001</ele>
        <time>2025-05-07T10:06:06Z</time>
      </trkpt>
      <trkpt lat="37.25137903355062" lon="-8.444441976025701">
        <ele>107.31999999999999</ele>
        <time>2025-05-07T10:06:14Z</time>
      </trkpt>
      <trkpt lat="37.250316962599754" lon="-8.445033989846706">
        <ele>107.31999999999999</ele>
        <time>2025-05-07T10:06:21Z</time>
      </trkpt>
      <trkpt lat="37.249321024864912" lon="-8.445862038061023">
        <ele>107.81</ele>
        <time>2025-05-07T10:06:30Z</time>
      </trkpt>
      <trkpt lat="37.248173039406538" lon="-8.446926036849618">
        <ele>104.92</ele>
        <time>2025-05-07T10:06:38Z</time>
      </trkpt>
      <trkpt lat="37.248029038310051" lon="-8.447004994377494">
        <ele>104.44</ele>
        <time>2025-05-07T10:06:39Z</time>
      </trkpt>
      <trkpt lat="37.247869027778506" lon="-8.447050005197525">
        <ele>104.44</ele>
        <time>2025-05-07T10:06:40Z</time>
      </trkpt>
      <trkpt lat="37.247698958963156" lon="-8.44708202406764">
        <ele>103.95999999999999</ele>
        <time>2025-05-07T10:06:41Z</time>
      </trkpt>
      <trkpt lat="37.247524028643966" lon="-8.447113959118724">
        <ele>103.48</ele>
        <time>2025-05-07T10:06:42Z</time>
      </trkpt>
      <trkpt lat="37.24734297953546" lon="-8.447128962725401">
        <ele>103.48</ele>
        <time>2025-05-07T10:06:43Z</time>
      </trkpt>
      <trkpt lat="37.246830007061362" lon="-8.447109013795853">
        <ele>103</ele>
        <time>2025-05-07T10:06:46Z</time>
      </trkpt>
      <trkpt lat="37.246669996529818" lon="-8.447065008804202">
        <ele>103</ele>
        <time>2025-05-07T10:06:47Z</time>
      </trkpt>
      <trkpt lat="37.246519960463047" lon="-8.446961995214224">
        <ele>103</ele>
        <time>2025-05-07T10:06:48Z</time>
      </trkpt>
      <trkpt lat="37.246374031528831" lon="-8.446827968582511">
        <ele>103</ele>
        <time>2025-05-07T10:06:49Z</time>
      </trkpt>
      <trkpt lat="37.246222989633679" lon="-8.446687990799546">
        <ele>103.48</ele>
        <time>2025-05-07T10:06:50Z</time>
      </trkpt>
      <trkpt lat="37.245265021920204" lon="-8.445555008947849">
        <ele>107.31999999999999</ele>
        <time>2025-05-07T10:06:57Z</time>
      </trkpt>
      <trkpt lat="37.244467986747622" lon="-8.444324964657426">
        <ele>114.53</ele>
        <time>2025-05-07T10:07:04Z</time>
      </trkpt>
      <trkpt lat="37.244366984814405" lon="-8.444137964397669">
        <ele>115.5</ele>
        <time>2025-05-07T10:07:05Z</time>
      </trkpt>
      <trkpt lat="37.243413962423801" lon="-8.441793965175748">
        <ele>129.43000000000001</ele>
        <time>2025-05-07T10:07:16Z</time>
      </trkpt>
      <trkpt lat="37.24330198019743" lon="-8.441655999049544">
        <ele>130.88</ele>
        <time>2025-05-07T10:07:17Z</time>
      </trkpt>
      <trkpt lat="37.243176000192761" lon="-8.441529013216496">
        <ele>132.31999999999999</ele>
        <time>2025-05-07T10:07:18Z</time>
      </trkpt>
      <trkpt lat="37.243012972176075" lon="-8.441436979919672">
        <ele>133.75999999999999</ele>
        <time>2025-05-07T10:07:19Z</time>
      </trkpt>
      <trkpt lat="37.24282898940146" lon="-8.441377971321344">
        <ele>135.68000000000001</ele>
        <time>2025-05-07T10:07:20Z</time>
      </trkpt>
      <trkpt lat="37.242636037990451" lon="-8.441316029056907">
        <ele>137.13</ele>
        <time>2025-05-07T10:07:21Z</time>
      </trkpt>
      <trkpt lat="37.241428960114717" lon="-8.440930964425206">
        <ele>142.88999999999999</ele>
        <time>2025-05-07T10:07:28Z</time>
      </trkpt>
      <trkpt lat="37.239887025207281" lon="-8.440711023285985">
        <ele>134.72</ele>
        <time>2025-05-07T10:07:35Z</time>
      </trkpt>
      <trkpt lat="37.239437000826001" lon="-8.440651008859277">
        <ele>132.31999999999999</ele>
        <time>2025-05-07T10:07:37Z</time>
      </trkpt>
      <trkpt lat="37.23799598403275" lon="-8.439997974783182">
        <ele>128.47</ele>
        <time>2025-05-07T10:07:44Z</time>
      </trkpt>
      <trkpt lat="37.237810995429754" lon="-8.439902001991868">
        <ele>127.98999999999999</ele>
        <time>2025-05-07T10:07:45Z</time>
      </trkpt>
      <trkpt lat="37.237632963806391" lon="-8.439845005050302">
        <ele>127.98999999999999</ele>
        <time>2025-05-07T10:07:46Z</time>
      </trkpt>
      <trkpt lat="37.23745996132493" lon="-8.439797982573509">
        <ele>127.98999999999999</ele>
        <time>2025-05-07T10:07:47Z</time>
      </trkpt>
      <trkpt lat="37.237292993813753" lon="-8.439809968695045">
        <ele>127.98999999999999</ele>
        <time>2025-05-07T10:07:48Z</time>
      </trkpt>
      <trkpt lat="37.237140024080873" lon="-8.439859002828598">
        <ele>128.47</ele>
        <time>2025-05-07T10:07:49Z</time>
      </trkpt>
      <trkpt lat="37.236999962478876" lon="-8.43994801864028">
        <ele>128.94999999999999</ele>
        <time>2025-05-07T10:07:50Z</time>
      </trkpt>
      <trkpt lat="37.236873982474208" lon="-8.440082967281342">
        <ele>129.91999999999999</ele>
        <time>2025-05-07T10:07:51Z</time>
      </trkpt>
      <trkpt lat="37.236742973327637" lon="-8.440222023054957">
        <ele>130.40000000000001</ele>
        <time>2025-05-07T10:07:52Z</time>
      </trkpt>
      <trkpt lat="37.236222038045526" lon="-8.440742958337069">
        <ele>133.28</ele>
        <time>2025-05-07T10:07:56Z</time>
      </trkpt>
      <trkpt lat="37.236091028898954" lon="-8.440818982198834">
        <ele>133.75999999999999</ele>
        <time>2025-05-07T10:07:57Z</time>
      </trkpt>
      <trkpt lat="37.23595499061048" lon="-8.440856030210853">
        <ele>133.75999999999999</ele>
        <time>2025-05-07T10:07:58Z</time>
      </trkpt>
      <trkpt lat="37.235822975635529" lon="-8.440858963876963">
        <ele>133.75999999999999</ele>
        <time>2025-05-07T10:07:59Z</time>
      </trkpt>
      <trkpt lat="37.235690038651228" lon="-8.440842032432556">
        <ele>133.28</ele>
        <time>2025-05-07T10:08:00Z</time>
      </trkpt>
      <trkpt lat="37.235549977049232" lon="-8.440817976370454">
        <ele>132.31999999999999</ele>
        <time>2025-05-07T10:08:01Z</time>
      </trkpt>
      <trkpt lat="37.235411005094647" lon="-8.440727032721043">
        <ele>131.36000000000001</ele>
        <time>2025-05-07T10:08:02Z</time>
      </trkpt>
      <trkpt lat="37.235259963199496" lon="-8.440628964453936">
        <ele>130.88</ele>
        <time>2025-05-07T10:08:03Z</time>
      </trkpt>
      <trkpt lat="37.233948027715087" lon="-8.439797982573509">
        <ele>121.73999999999999</ele>
        <time>2025-05-07T10:08:11Z</time>
      </trkpt>
      <trkpt lat="37.233789023011923" lon="-8.43973402865231">
        <ele>120.3</ele>
        <time>2025-05-07T10:08:12Z</time>
      </trkpt>
      <trkpt lat="37.233628006651998" lon="-8.439679965376854">
        <ele>118.86</ele>
        <time>2025-05-07T10:08:13Z</time>
      </trkpt>
      <trkpt lat="37.23346003331244" lon="-8.439623974263668">
        <ele>116.94</ele>
        <time>2025-05-07T10:08:14Z</time>
      </trkpt>
      <trkpt lat="37.233266998082399" lon="-8.439629003405571">
        <ele>115.01000000000001</ele>
        <time>2025-05-07T10:08:15Z</time>
      </trkpt>
      <trkpt lat="37.23307304084301" lon="-8.439633026719093">
        <ele>113.09</ele>
        <time>2025-05-07T10:08:16Z</time>
      </trkpt>
      <trkpt lat="37.231155009940267" lon="-8.439744003117085">
        <ele>90.019999999999996</ele>
        <time>2025-05-07T10:08:26Z</time>
      </trkpt>
      <trkpt lat="37.23101201467216" lon="-8.439781973138452">
        <ele>87.620000000000005</ele>
        <time>2025-05-07T10:08:27Z</time>
      </trkpt>
      <trkpt lat="37.230873964726925" lon="-8.439827989786863">
        <ele>85.209999999999994</ele>
        <time>2025-05-07T10:08:28Z</time>
      </trkpt>
      <trkpt lat="37.230734992772341" lon="-8.439937960356474">
        <ele>82.810000000000002</ele>
        <time>2025-05-07T10:08:29Z</time>
      </trkpt>
      <trkpt lat="37.230591997504234" lon="-8.440069975331426">
        <ele>80.409999999999997</ele>
        <time>2025-05-07T10:08:30Z</time>
      </trkpt>
      <trkpt lat="37.230445984750986" lon="-8.440204001963139">
        <ele>78.480000000000004</ele>
        <time>2025-05-07T10:08:31Z</time>
      </trkpt>
      <trkpt lat="37.230142978951335" lon="-8.440423021093011">
        <ele>74.640000000000001</ele>
        <time>2025-05-07T10:08:33Z</time>
      </trkpt>
      <trkpt lat="37.229989003390074" lon="-8.440467026084662">
        <ele>72.719999999999999</ele>
        <time>2025-05-07T10:08:34Z</time>
      </trkpt>
      <trkpt lat="37.229833016172051" lon="-8.440473983064294">
        <ele>71.269999999999996</ele>
        <time>2025-05-07T10:08:35Z</time>
      </trkpt>
      <trkpt lat="37.229664037004113" lon="-8.440455961972475">
        <ele>69.829999999999998</ele>
        <time>2025-05-07T10:08:36Z</time>
      </trkpt>
      <trkpt lat="37.229482987895608" lon="-8.440431989729404">
        <ele>67.909999999999997</ele>
        <time>2025-05-07T10:08:37Z</time>
      </trkpt>
      <trkpt lat="37.229292970150709" lon="-8.440380021929741">
        <ele>66.469999999999999</ele>
        <time>2025-05-07T10:08:38Z</time>
      </trkpt>
      <trkpt lat="37.228704979643226" lon="-8.440220011398196">
        <ele>62.619999999999997</ele>
        <time>2025-05-07T10:08:41Z</time>
      </trkpt>
      <trkpt lat="37.22819996997714" lon="-8.440124960616231">
        <ele>59.740000000000002</ele>
        <time>2025-05-07T10:08:44Z</time>
      </trkpt>
      <trkpt lat="37.22804800607264" lon="-8.440134013071656">
        <ele>58.780000000000001</ele>
        <time>2025-05-07T10:08:45Z</time>
      </trkpt>
      <trkpt lat="37.227902999147773" lon="-8.440155973657966">
        <ele>57.82</ele>
        <time>2025-05-07T10:08:46Z</time>
      </trkpt>
      <trkpt lat="37.227429002523422" lon="-8.440345991402865">
        <ele>54.93</ele>
        <time>2025-05-07T10:08:50Z</time>
      </trkpt>
      <trkpt lat="37.227302016690373" lon="-8.440397037193179">
        <ele>53.969999999999999</ele>
        <time>2025-05-07T10:08:51Z</time>
      </trkpt>
      <trkpt lat="37.227200008928776" lon="-8.440403994172812">
        <ele>53.009999999999998</ele>
        <time>2025-05-07T10:08:52Z</time>
      </trkpt>
      <trkpt lat="37.227077968418598" lon="-8.440412962809205">
        <ele>51.57</ele>
        <time>2025-05-07T10:08:53Z</time>
      </trkpt>
      <trkpt lat="37.226949976757169" lon="-8.44042201526463">
        <ele>50.609999999999999</ele>
        <time>2025-05-07T10:08:54Z</time>
      </trkpt>
      <trkpt lat="37.225500997155905" lon="-8.440460991114378">
        <ele>40.990000000000002</ele>
        <time>2025-05-07T10:09:04Z</time>
      </trkpt>
      <trkpt lat="37.224898003041744" lon="-8.440460991114378">
        <ele>39.07</ele>
        <time>2025-05-07T10:09:08Z</time>
      </trkpt>
      <trkpt lat="37.224747966974974" lon="-8.440490998327732">
        <ele>38.590000000000003</ele>
        <time>2025-05-07T10:09:09Z</time>
      </trkpt>
      <trkpt lat="37.223608028143644" lon="-8.441008999943733">
        <ele>37.149999999999999</ele>
        <time>2025-05-07T10:09:17Z</time>
      </trkpt>
      <trkpt lat="37.223230004310608" lon="-8.441162975504994">
        <ele>36.670000000000002</ele>
        <time>2025-05-07T10:09:20Z</time>
      </trkpt>
      <trkpt lat="37.22310402430594" lon="-8.441188037395477">
        <ele>36.670000000000002</ele>
        <time>2025-05-07T10:09:21Z</time>
      </trkpt>
      <trkpt lat="37.222841000184417" lon="-8.44117596745491">
        <ele>36.670000000000002</ele>
        <time>2025-05-07T10:09:23Z</time>
      </trkpt>
      <trkpt lat="37.221554964780807" lon="-8.440813031047583">
        <ele>36.670000000000002</ele>
        <time>2025-05-07T10:09:31Z</time>
      </trkpt>
      <trkpt lat="37.2205900400877" lon="-8.440498961135745">
        <ele>37.149999999999999</ele>
        <time>2025-05-07T10:09:36Z</time>
      </trkpt>
      <trkpt lat="37.22042097710073" lon="-8.440418997779489">
        <ele>36.670000000000002</ele>
        <time>2025-05-07T10:09:37Z</time>
      </trkpt>
      <trkpt lat="37.220253003761172" lon="-8.440311038866639">
        <ele>36.189999999999998</ele>
        <time>2025-05-07T10:09:38Z</time>
      </trkpt>
      <trkpt lat="37.220091987401247" lon="-8.440172988921404">
        <ele>35.710000000000001</ele>
        <time>2025-05-07T10:09:39Z</time>
      </trkpt>
      <trkpt lat="37.219932982698083" lon="-8.440006021410227">
        <ele>35.710000000000001</ele>
        <time>2025-05-07T10:09:40Z</time>
      </trkpt>
      <trkpt lat="37.219780012965202" lon="-8.439826983958483">
        <ele>35.710000000000001</ele>
        <time>2025-05-07T10:09:41Z</time>
      </trkpt>
      <trkpt lat="37.218994963914156" lon="-8.438906986266375">
        <ele>34.740000000000002</ele>
        <time>2025-05-07T10:09:46Z</time>
      </trkpt>
      <trkpt lat="37.218840988352895" lon="-8.43876700848341">
        <ele>34.740000000000002</ele>
        <time>2025-05-07T10:09:47Z</time>
      </trkpt>
      <trkpt lat="37.218668991699815" lon="-8.438666006550193">
        <ele>34.740000000000002</ele>
        <time>2025-05-07T10:09:48Z</time>
      </trkpt>
      <trkpt lat="37.217271979898214" lon="-8.438098970800638">
        <ele>34.740000000000002</ele>
        <time>2025-05-07T10:09:56Z</time>
      </trkpt>
      <trkpt lat="37.217104006558657" lon="-8.43807902187109">
        <ele>34.259999999999998</ele>
        <time>2025-05-07T10:09:57Z</time>
      </trkpt>
      <trkpt lat="37.216947013512254" lon="-8.438086984679103">
        <ele>33.299999999999997</ele>
        <time>2025-05-07T10:09:58Z</time>
      </trkpt>
      <trkpt lat="37.216782979667187" lon="-8.438124032691121">
        <ele>32.82</ele>
        <time>2025-05-07T10:09:59Z</time>
      </trkpt>
      <trkpt lat="37.215324025601149" lon="-8.438443969935179">
        <ele>28.98</ele>
        <time>2025-05-07T10:10:07Z</time>
      </trkpt>
      <trkpt lat="37.215159991756082" lon="-8.438443969935179">
        <ele>28.98</ele>
        <time>2025-05-07T10:10:08Z</time>
      </trkpt>
      <trkpt lat="37.214998975396156" lon="-8.438443969935179">
        <ele>28.98</ele>
        <time>2025-05-07T10:10:09Z</time>
      </trkpt>
      <trkpt lat="37.21483301371336" lon="-8.438393007963896">
        <ele>28.5</ele>
        <time>2025-05-07T10:10:10Z</time>
      </trkpt>
      <trkpt lat="37.214663028717041" lon="-8.438326958566904">
        <ele>28.02</ele>
        <time>2025-05-07T10:10:11Z</time>
      </trkpt>
      <trkpt lat="37.214488014578819" lon="-8.438257975503802">
        <ele>28.02</ele>
        <time>2025-05-07T10:10:12Z</time>
      </trkpt>
      <trkpt lat="37.214313000440598" lon="-8.438157979398966">
        <ele>28.02</ele>
        <time>2025-05-07T10:10:13Z</time>
      </trkpt>
      <trkpt lat="37.212589010596275" lon="-8.43726497143507">
        <ele>25.129999999999999</ele>
        <time>2025-05-07T10:10:22Z</time>
      </trkpt>
      <trkpt lat="37.211429961025715" lon="-8.436871021986008">
        <ele>24.170000000000002</ele>
        <time>2025-05-07T10:10:28Z</time>
      </trkpt>
      <trkpt lat="37.211242960765958" lon="-8.436839003115892">
        <ele>23.690000000000001</ele>
        <time>2025-05-07T10:10:29Z</time>
      </trkpt>
      <trkpt lat="37.211057972162962" lon="-8.436865992844105">
        <ele>23.210000000000001</ele>
        <time>2025-05-07T10:10:30Z</time>
      </trkpt>
      <trkpt lat="37.210872983559966" lon="-8.436891976743937">
        <ele>22.73</ele>
        <time>2025-05-07T10:10:31Z</time>
      </trkpt>
      <trkpt lat="37.210681959986687" lon="-8.436954002827406">
        <ele>22.73</ele>
        <time>2025-05-07T10:10:32Z</time>
      </trkpt>
      <trkpt lat="37.210491020232439" lon="-8.437029020860791">
        <ele>22.73</ele>
        <time>2025-05-07T10:10:33Z</time>
      </trkpt>
      <trkpt lat="37.20933398231864" lon="-8.437405033037067">
        <ele>22.25</ele>
        <time>2025-05-07T10:10:40Z</time>
      </trkpt>
      <trkpt lat="37.209191992878914" lon="-8.437394974753261">
        <ele>22.25</ele>
        <time>2025-05-07T10:10:41Z</time>
      </trkpt>
      <trkpt lat="37.209060983732343" lon="-8.437355998903513">
        <ele>22.25</ele>
        <time>2025-05-07T10:10:42Z</time>
      </trkpt>
      <trkpt lat="37.208941038697958" lon="-8.437275029718876">
        <ele>21.77</ele>
        <time>2025-05-07T10:10:43Z</time>
      </trkpt>
      <trkpt lat="37.208822015672922" lon="-8.437185008078814">
        <ele>21.289999999999999</ele>
        <time>2025-05-07T10:10:44Z</time>
      </trkpt>
      <trkpt lat="37.20870902761817" lon="-8.437062967568636">
        <ele>21.289999999999999</ele>
        <time>2025-05-07T10:10:45Z</time>
      </trkpt>
      <trkpt lat="37.208596039563417" lon="-8.436921983957291">
        <ele>21.289999999999999</ele>
        <time>2025-05-07T10:10:46Z</time>
      </trkpt>
      <trkpt lat="37.207527011632919" lon="-8.435547016561031">
        <ele>20.809999999999999</ele>
        <time>2025-05-07T10:10:54Z</time>
      </trkpt>
      <trkpt lat="37.206445997580886" lon="-8.434333987534046">
        <ele>20.32</ele>
        <time>2025-05-07T10:11:01Z</time>
      </trkpt>
      <trkpt lat="37.206265032291412" lon="-8.434239020571113">
        <ele>20.32</ele>
        <time>2025-05-07T10:11:02Z</time>
      </trkpt>
      <trkpt lat="37.206070991232991" lon="-8.434142963960767">
        <ele>20.32</ele>
        <time>2025-05-07T10:11:03Z</time>
      </trkpt>
      <trkpt lat="37.204710021615028" lon="-8.433726970106363">
        <ele>21.289999999999999</ele>
        <time>2025-05-07T10:11:10Z</time>
      </trkpt>
      <trkpt lat="37.203386016190052" lon="-8.433100003749132">
        <ele>24.170000000000002</ele>
        <time>2025-05-07T10:11:18Z</time>
      </trkpt>
      <trkpt lat="37.202422013506293" lon="-8.432489968836308">
        <ele>22.25</ele>
        <time>2025-05-07T10:11:24Z</time>
      </trkpt>
      <trkpt lat="37.202260997146368" lon="-8.432435989379883">
        <ele>21.77</ele>
        <time>2025-05-07T10:11:25Z</time>
      </trkpt>
      <trkpt lat="37.202080031856894" lon="-8.432414028793573">
        <ele>21.77</ele>
        <time>2025-05-07T10:11:26Z</time>
      </trkpt>
      <trkpt lat="37.201897976920009" lon="-8.432390978559852">
        <ele>21.289999999999999</ele>
        <time>2025-05-07T10:11:27Z</time>
      </trkpt>
      <trkpt lat="37.201714999973774" lon="-8.432368012145162">
        <ele>21.289999999999999</ele>
        <time>2025-05-07T10:11:28Z</time>
      </trkpt>
      <trkpt lat="37.200539018958807" lon="-8.432288970798254">
        <ele>23.210000000000001</ele>
        <time>2025-05-07T10:11:35Z</time>
      </trkpt>
      <trkpt lat="37.200389988720417" lon="-8.432320989668369">
        <ele>24.170000000000002</ele>
        <time>2025-05-07T10:11:36Z</time>
      </trkpt>
      <trkpt lat="37.200251016765833" lon="-8.432390978559852">
        <ele>25.609999999999999</ele>
        <time>2025-05-07T10:11:37Z</time>
      </trkpt>
      <trkpt lat="37.199339987710118" lon="-8.432958014309406">
        <ele>33.299999999999997</ele>
        <time>2025-05-07T10:11:45Z</time>
      </trkpt>
      <trkpt lat="37.198574971407652" lon="-8.433610964566469">
        <ele>35.710000000000001</ele>
        <time>2025-05-07T10:11:55Z</time>
      </trkpt>
      <trkpt lat="37.198065016418695" lon="-8.434131983667612">
        <ele>30.899999999999999</ele>
        <time>2025-05-07T10:12:03Z</time>
      </trkpt>
      <trkpt lat="37.19753997400403" lon="-8.434559963643551">
        <ele>23.210000000000001</ele>
        <time>2025-05-07T10:12:11Z</time>
      </trkpt>
      <trkpt lat="37.197510972619057" lon="-8.434505984187126">
        <ele>22.73</ele>
        <time>2025-05-07T10:12:12Z</time>
      </trkpt>
      <trkpt lat="37.197480965405703" lon="-8.43444898724556">
        <ele>21.77</ele>
        <time>2025-05-07T10:12:13Z</time>
      </trkpt>
      <trkpt lat="37.197440983727574" lon="-8.434373969212174">
        <ele>20.809999999999999</ele>
        <time>2025-05-07T10:12:14Z</time>
      </trkpt>
      <trkpt lat="37.197368983179331" lon="-8.434239020571113">
        <ele>20.32</ele>
        <time>2025-05-07T10:12:15Z</time>
      </trkpt>
      <trkpt lat="37.197356997057796" lon="-8.434179006144404">
        <ele>19.359999999999999</ele>
        <time>2025-05-07T10:12:16Z</time>
      </trkpt>
      <trkpt lat="37.197245014831424" lon="-8.433603001758456">
        <ele>16.48</ele>
        <time>2025-05-07T10:12:21Z</time>
      </trkpt>
      <trkpt lat="37.197226993739605" lon="-8.433508034795523">
        <ele>16</ele>
        <time>2025-05-07T10:12:22Z</time>
      </trkpt>
      <trkpt lat="37.197120962664485" lon="-8.433434022590518">
        <ele>15.52</ele>
        <time>2025-05-07T10:12:23Z</time>
      </trkpt>
      <trkpt lat="37.197032030671835" lon="-8.433404015377164">
        <ele>15.039999999999999</ele>
        <time>2025-05-07T10:12:24Z</time>
      </trkpt>
      <trkpt lat="37.196928011253476" lon="-8.433371996507049">
        <ele>14.56</ele>
        <time>2025-05-07T10:12:25Z</time>
      </trkpt>
      <trkpt lat="37.196813011541963" lon="-8.433345006778836">
        <ele>13.6</ele>
        <time>2025-05-07T10:12:26Z</time>
      </trkpt>
      <trkpt lat="37.196691976860166" lon="-8.433316005393863">
        <ele>13.119999999999999</ele>
        <time>2025-05-07T10:12:27Z</time>
      </trkpt>
      <trkpt lat="37.195360008627176" lon="-8.43303102068603">
        <ele>7.35</ele>
        <time>2025-05-07T10:12:38Z</time>
      </trkpt>
      <trkpt lat="37.194836977869272" lon="-8.432930018752813">
        <ele>6.39</ele>
        <time>2025-05-07T10:12:43Z</time>
      </trkpt>
      <trkpt lat="37.19474502839148" lon="-8.432954996824265">
        <ele>5.91</ele>
        <time>2025-05-07T10:12:44Z</time>
      </trkpt>
      <trkpt lat="37.194660035893321" lon="-8.432977963238955">
        <ele>5.91</ele>
        <time>2025-05-07T10:12:45Z</time>
      </trkpt>
      <trkpt lat="37.19427203759551" lon="-8.433195976540446">
        <ele>4.94</ele>
        <time>2025-05-07T10:12:50Z</time>
      </trkpt>
      <trkpt lat="37.194211017340422" lon="-8.433215003460646">
        <ele>4.94</ele>
        <time>2025-05-07T10:12:51Z</time>
      </trkpt>
      <trkpt lat="37.194161983206868" lon="-8.433229001238942">
        <ele>4.46</ele>
        <time>2025-05-07T10:12:52Z</time>
      </trkpt>
      <trkpt lat="37.19412200152874" lon="-8.433241993188858">
        <ele>3.98</ele>
        <time>2025-05-07T10:12:53Z</time>
      </trkpt>
      <trkpt lat="37.194096017628908" lon="-8.433250039815903">
        <ele>3.5</ele>
        <time>2025-05-07T10:12:54Z</time>
      </trkpt>
      <trkpt lat="37.194020999595523" lon="-8.433273006230593">
        <ele>3.02</ele>
        <time>2025-05-07T10:12:57Z</time>
      </trkpt>
      <trkpt lat="37.194028962403536" lon="-8.433190025389195">
        <ele>2.54</ele>
        <time>2025-05-07T10:12:58Z</time>
      </trkpt>
      <trkpt lat="37.1940360032022" lon="-8.433129005134106">
        <ele>2.54</ele>
        <time>2025-05-07T10:12:59Z</time>
      </trkpt>
      <trkpt lat="37.194042960181832" lon="-8.433054992929101">
        <ele>2.54</ele>
        <time>2025-05-07T10:13:00Z</time>
      </trkpt>
      <trkpt lat="37.194050000980496" lon="-8.432985004037619">
        <ele>2.06</ele>
        <time>2025-05-07T10:13:01Z</time>
      </trkpt>
      <trkpt lat="37.194054024294019" lon="-8.432939993217588">
        <ele>2.06</ele>
        <time>2025-05-07T10:13:02Z</time>
      </trkpt>
      <trkpt lat="37.194022005423903" lon="-8.432836979627609">
        <ele>2.06</ele>
        <time>2025-05-07T10:13:03Z</time>
      </trkpt>
      <trkpt lat="37.193999961018562" lon="-8.432833040133119">
        <ele>1.58</ele>
        <time>2025-05-07T10:13:04Z</time>
      </trkpt>
      <trkpt lat="37.193967020139098" lon="-8.432828010991216">
        <ele>1.58</ele>
        <time>2025-05-07T10:13:05Z</time>
      </trkpt>
      <trkpt lat="37.193935001268983" lon="-8.432821976020932">
        <ele>1.58</ele>
        <time>2025-05-07T10:13:06Z</time>
      </trkpt>
      <trkpt lat="37.193912034854293" lon="-8.43277595937252">
        <ele>1.58</ele>
        <time>2025-05-07T10:13:07Z</time>
      </trkpt>
      <trkpt lat="37.193772979080677" lon="-8.432706976309419">
        <ele>1.58</ele>
        <time>2025-05-07T10:13:09Z</time>
      </trkpt>
      <trkpt lat="37.193721011281013" lon="-8.432715022936463">
        <ele>1.58</ele>
        <time>2025-05-07T10:13:10Z</time>
      </trkpt>
      <trkpt lat="37.193642975762486" lon="-8.432738995179534">
        <ele>1.58</ele>
        <time>2025-05-07T10:13:11Z</time>
      </trkpt>
      <trkpt lat="37.193576004356146" lon="-8.432759027928114">
        <ele>1.58</ele>
        <time>2025-05-07T10:13:12Z</time>
      </trkpt>
      <trkpt lat="37.193508027121425" lon="-8.432779982686043">
        <ele>1.58</ele>
        <time>2025-05-07T10:13:13Z</time>
      </trkpt>
      <trkpt lat="37.193436026573181" lon="-8.432803032919765">
        <ele>1.1</ele>
        <time>2025-05-07T10:13:14Z</time>
      </trkpt>
      <trkpt lat="37.192480992525816" lon="-8.433231012895703">
        <ele>1.58</ele>
        <time>2025-05-07T10:13:24Z</time>
      </trkpt>
      <trkpt lat="37.191862994804978" lon="-8.433505017310381">
        <ele>0.14</ele>
        <time>2025-05-07T10:13:30Z</time>
      </trkpt>
      <trkpt lat="37.191769033670425" lon="-8.433542987331748">
        <ele>-0.34</ele>
        <time>2025-05-07T10:13:31Z</time>
      </trkpt>
      <trkpt lat="37.19087602570653" lon="-8.433927968144417">
        <ele>-0.34</ele>
        <time>2025-05-07T10:13:41Z</time>
      </trkpt>
      <trkpt lat="37.190451985225081" lon="-8.434132989495993">
        <ele>0.14</ele>
        <time>2025-05-07T10:13:46Z</time>
      </trkpt>
      <trkpt lat="37.18937499448657" lon="-8.434789041057229">
        <ele>4.46</ele>
        <time>2025-05-07T10:13:57Z</time>
      </trkpt>
      <trkpt lat="37.189278015866876" lon="-8.434873027727008">
        <ele>4.46</ele>
        <time>2025-05-07T10:13:58Z</time>
      </trkpt>
      <trkpt lat="37.188731012865901" lon="-8.435581969097257">
        <ele>4.94</ele>
        <time>2025-05-07T10:14:06Z</time>
      </trkpt>
      <trkpt lat="37.188464971259236" lon="-8.436020007357001">
        <ele>5.91</ele>
        <time>2025-05-07T10:14:13Z</time>
      </trkpt>
      <trkpt lat="37.188424989581108" lon="-8.436078010126948">
        <ele>5.91</ele>
        <time>2025-05-07T10:14:14Z</time>
      </trkpt>
      <trkpt lat="37.188327005133033" lon="-8.436240032315254">
        <ele>5.42</ele>
        <time>2025-05-07T10:14:21Z</time>
      </trkpt>
      <trkpt lat="37.188202030956745" lon="-8.436457961797714">
        <ele>5.91</ele>
        <time>2025-05-07T10:14:37Z</time>
      </trkpt>
      <trkpt lat="37.188161965459585" lon="-8.436529040336609">
        <ele>5.91</ele>
        <time>2025-05-07T10:14:38Z</time>
      </trkpt>
      <trkpt lat="37.18812801875174" lon="-8.436589976772666">
        <ele>5.91</ele>
        <time>2025-05-07T10:14:39Z</time>
      </trkpt>
      <trkpt lat="37.188065992668271" lon="-8.436623001471162">
        <ele>6.39</ele>
        <time>2025-05-07T10:14:40Z</time>
      </trkpt>
      <trkpt lat="37.188016036525369" lon="-8.436592994257808">
        <ele>6.39</ele>
        <time>2025-05-07T10:14:41Z</time>
      </trkpt>
      <trkpt lat="37.187959961593151" lon="-8.436560975387693">
        <ele>6.39</ele>
        <time>2025-05-07T10:14:42Z</time>
      </trkpt>
      <trkpt lat="37.187900030985475" lon="-8.436526022851467">
        <ele>5.42</ele>
        <time>2025-05-07T10:14:43Z</time>
      </trkpt>
      <trkpt lat="37.187834987416863" lon="-8.436487969011068">
        <ele>5.42</ele>
        <time>2025-05-07T10:14:44Z</time>
      </trkpt>
      <trkpt lat="37.187005011364818" lon="-8.436023024842143">
        <ele>5.91</ele>
        <time>2025-05-07T10:14:53Z</time>
      </trkpt>
      <trkpt lat="37.186822034418583" lon="-8.435916993767023">
        <ele>6.39</ele>
        <time>2025-05-07T10:14:55Z</time>
      </trkpt>
      <trkpt lat="37.186736958101392" lon="-8.43586502596736">
        <ele>6.39</ele>
        <time>2025-05-07T10:14:56Z</time>
      </trkpt>
      <trkpt lat="37.186453985050321" lon="-8.435692023485899">
        <ele>7.35</ele>
        <time>2025-05-07T10:15:00Z</time>
      </trkpt>
      <trkpt lat="37.186419032514095" lon="-8.435669979080558">
        <ele>7.83</ele>
        <time>2025-05-07T10:15:01Z</time>
      </trkpt>
      <trkpt lat="37.186397993937135" lon="-8.435656987130642">
        <ele>7.83</ele>
        <time>2025-05-07T10:15:02Z</time>
      </trkpt>
      <trkpt lat="37.186363041400909" lon="-8.435636032372713">
        <ele>9.27</ele>
        <time>2025-05-07T10:15:04Z</time>
      </trkpt>
      <trkpt lat="37.186334040015936" lon="-8.435618011280894">
        <ele>9.27</ele>
        <time>2025-05-07T10:15:05Z</time>
      </trkpt>
      <trkpt lat="37.186268996447325" lon="-8.435539975762367">
        <ele>9.75</ele>
        <time>2025-05-07T10:15:06Z</time>
      </trkpt>
      <trkpt lat="37.186296992003918" lon="-8.435491025447846">
        <ele>10.23</ele>
        <time>2025-05-07T10:15:07Z</time>
      </trkpt>
      <trkpt lat="37.186332028359175" lon="-8.435425981879234">
        <ele>10.23</ele>
        <time>2025-05-07T10:15:08Z</time>
      </trkpt>
      <trkpt lat="37.186378967016935" lon="-8.435341995209456">
        <ele>10.23</ele>
        <time>2025-05-07T10:15:09Z</time>
      </trkpt>
      <trkpt lat="37.186432024464011" lon="-8.435245016589761">
        <ele>10.23</ele>
        <time>2025-05-07T10:15:10Z</time>
      </trkpt>
      <trkpt lat="37.186823962256312" lon="-8.434308003634214">
        <ele>10.23</ele>
        <time>2025-05-07T10:15:18Z</time>
      </trkpt>
      <trkpt lat="37.186871990561485" lon="-8.434182023629546">
        <ele>10.23</ele>
        <time>2025-05-07T10:15:19Z</time>
      </trkpt>
      <trkpt lat="37.186928987503052" lon="-8.434057971462607">
        <ele>10.710000000000001</ele>
        <time>2025-05-07T10:15:20Z</time>
      </trkpt>
      <trkpt lat="37.187254959717393" lon="-8.433285998180509">
        <ele>13.119999999999999</ele>
        <time>2025-05-07T10:15:26Z</time>
      </trkpt>
      <trkpt lat="37.187322014942765" lon="-8.433152977377176">
        <ele>14.08</ele>
        <time>2025-05-07T10:15:27Z</time>
      </trkpt>
      <trkpt lat="37.187643963843584" lon="-8.432743018493056">
        <ele>17.440000000000001</ele>
        <time>2025-05-07T10:15:31Z</time>
      </trkpt>
      <trkpt lat="37.188375033438206" lon="-8.43184900470078">
        <ele>26.57</ele>
        <time>2025-05-07T10:15:40Z</time>
      </trkpt>
      <trkpt lat="37.188442004844546" lon="-8.431725036352873">
        <ele>27.530000000000001</ele>
        <time>2025-05-07T10:15:41Z</time>
      </trkpt>
      <trkpt lat="37.188496990129352" lon="-8.431599978357554">
        <ele>28.5</ele>
        <time>2025-05-07T10:15:42Z</time>
      </trkpt>
      <trkpt lat="37.188547030091286" lon="-8.431471986696124">
        <ele>29.460000000000001</ele>
        <time>2025-05-07T10:15:43Z</time>
      </trkpt>
      <trkpt lat="37.188595980405807" lon="-8.431345000863075">
        <ele>30.420000000000002</ele>
        <time>2025-05-07T10:15:44Z</time>
      </trkpt>
      <trkpt lat="37.188629005104303" lon="-8.431214997544885">
        <ele>31.379999999999999</ele>
        <time>2025-05-07T10:15:45Z</time>
      </trkpt>
      <trkpt lat="37.188650965690613" lon="-8.431086000055075">
        <ele>32.340000000000003</ele>
        <time>2025-05-07T10:15:46Z</time>
      </trkpt>
      <trkpt lat="37.188669992610812" lon="-8.430653996765614">
        <ele>37.630000000000003</ele>
        <time>2025-05-07T10:15:52Z</time>
      </trkpt>
      <trkpt lat="37.188669992610812" lon="-8.430653996765614">
        <ele>38.109999999999999</ele>
        <time>2025-05-07T10:16:04Z</time>
      </trkpt>
      <trkpt lat="37.188669992610812" lon="-8.430653996765614">
        <ele>39.07</ele>
        <time>2025-05-07T10:16:44Z</time>
      </trkpt>
      <trkpt lat="37.188669992610812" lon="-8.430653996765614">
        <ele>40.030000000000001</ele>
        <time>2025-05-07T10:17:35Z</time>
      </trkpt>
      <trkpt lat="37.188669992610812" lon="-8.430653996765614">
        <ele>40.030000000000001</ele>
        <time>2025-05-07T10:18:25Z</time>
      </trkpt>
      <trkpt lat="37.188669992610812" lon="-8.430653996765614">
        <ele>40.509999999999998</ele>
        <time>2025-05-07T10:18:56Z</time>
      </trkpt>
      <trkpt lat="37.188669992610812" lon="-8.430633964017034">
        <ele>40.509999999999998</ele>
        <time>2025-05-07T10:18:58Z</time>
      </trkpt>
      <trkpt lat="37.18866303563118" lon="-8.430403964594007">
        <ele>38.590000000000003</ele>
        <time>2025-05-07T10:19:03Z</time>
      </trkpt>
      <trkpt lat="37.188660018146038" lon="-8.430287037044764">
        <ele>39.07</ele>
        <time>2025-05-07T10:19:04Z</time>
      </trkpt>
      <trkpt lat="37.188651971518993" lon="-8.430140018463135">
        <ele>39.07</ele>
        <time>2025-05-07T10:19:05Z</time>
      </trkpt>
      <trkpt lat="37.188590029254556" lon="-8.428902011364698">
        <ele>41.950000000000003</ele>
        <time>2025-05-07T10:19:11Z</time>
      </trkpt>
      <trkpt lat="37.188499001786113" lon="-8.426939975470305">
        <ele>52.049999999999997</ele>
        <time>2025-05-07T10:19:20Z</time>
      </trkpt>
      <trkpt lat="37.188367992639542" lon="-8.426360031589866">
        <ele>54.93</ele>
        <time>2025-05-07T10:19:23Z</time>
      </trkpt>
      <trkpt lat="37.188309989869595" lon="-8.426158027723432">
        <ele>56.369999999999997</ele>
        <time>2025-05-07T10:19:24Z</time>
      </trkpt>
      <trkpt lat="37.188232038170099" lon="-8.425955018028617">
        <ele>57.340000000000003</ele>
        <time>2025-05-07T10:19:25Z</time>
      </trkpt>
      <trkpt lat="37.188125001266599" lon="-8.425770029425621">
        <ele>58.780000000000001</ele>
        <time>2025-05-07T10:19:26Z</time>
      </trkpt>
      <trkpt lat="37.187994997948408" lon="-8.425610018894076">
        <ele>60.219999999999999</ele>
        <time>2025-05-07T10:19:27Z</time>
      </trkpt>
      <trkpt lat="37.187863988801837" lon="-8.425452020019293">
        <ele>61.659999999999997</ele>
        <time>2025-05-07T10:19:28Z</time>
      </trkpt>
      <trkpt lat="37.187714958563447" lon="-8.425325034186244">
        <ele>62.619999999999997</ele>
        <time>2025-05-07T10:19:29Z</time>
      </trkpt>
      <trkpt lat="37.187556037679315" lon="-8.425212968140841">
        <ele>63.579999999999998</ele>
        <time>2025-05-07T10:19:30Z</time>
      </trkpt>
      <trkpt lat="37.187390998005867" lon="-8.425097968429327">
        <ele>65.030000000000001</ele>
        <time>2025-05-07T10:19:31Z</time>
      </trkpt>
      <trkpt lat="37.187220007181168" lon="-8.425028985366225">
        <ele>65.989999999999995</ele>
        <time>2025-05-07T10:19:32Z</time>
      </trkpt>
      <trkpt lat="37.187044993042946" lon="-8.424966959282756">
        <ele>66.469999999999999</ele>
        <time>2025-05-07T10:19:33Z</time>
      </trkpt>
      <trkpt lat="37.186862016096711" lon="-8.424952039495111">
        <ele>67.430000000000007</ele>
        <time>2025-05-07T10:19:34Z</time>
      </trkpt>
      <trkpt lat="37.186679961159825" lon="-8.424937035888434">
        <ele>67.909999999999997</ele>
        <time>2025-05-07T10:19:35Z</time>
      </trkpt>
      <trkpt lat="37.186498995870352" lon="-8.424936030060053">
        <ele>68.390000000000001</ele>
        <time>2025-05-07T10:19:36Z</time>
      </trkpt>
      <trkpt lat="37.186319036409259" lon="-8.424966959282756">
        <ele>68.870000000000005</ele>
        <time>2025-05-07T10:19:37Z</time>
      </trkpt>
      <trkpt lat="37.186130024492741" lon="-8.425024040043354">
        <ele>69.349999999999994</ele>
        <time>2025-05-07T10:19:38Z</time>
      </trkpt>
      <trkpt lat="37.185954004526138" lon="-8.42512596398592">
        <ele>69.829999999999998</ele>
        <time>2025-05-07T10:19:39Z</time>
      </trkpt>
      <trkpt lat="37.185771027579904" lon="-8.425230989232659">
        <ele>69.829999999999998</ele>
        <time>2025-05-07T10:19:40Z</time>
      </trkpt>
      <trkpt lat="37.185584027320147" lon="-8.425353029742837">
        <ele>70.310000000000002</ele>
        <time>2025-05-07T10:19:41Z</time>
      </trkpt>
      <trkpt lat="37.183870011940598" lon="-8.426563963294029">
        <ele>76.079999999999998</ele>
        <time>2025-05-07T10:19:50Z</time>
      </trkpt>
      <trkpt lat="37.183671025559306" lon="-8.426660019904375">
        <ele>77.040000000000006</ele>
        <time>2025-05-07T10:19:51Z</time>
      </trkpt>
      <trkpt lat="37.181751988828182" lon="-8.427084982395172">
        <ele>82.329999999999998</ele>
        <time>2025-05-07T10:20:00Z</time>
      </trkpt>
      <trkpt lat="37.181539004668593" lon="-8.427103003486991">
        <ele>82.810000000000002</ele>
        <time>2025-05-07T10:20:01Z</time>
      </trkpt>
      <trkpt lat="37.181329037994146" lon="-8.427072996273637">
        <ele>82.810000000000002</ele>
        <time>2025-05-07T10:20:02Z</time>
      </trkpt>
      <trkpt lat="37.181119993329048" lon="-8.427043994888663">
        <ele>83.290000000000006</ele>
        <time>2025-05-07T10:20:03Z</time>
      </trkpt>
      <trkpt lat="37.180915977805853" lon="-8.426978029310703">
        <ele>83.769999999999996</ele>
        <time>2025-05-07T10:20:04Z</time>
      </trkpt>
      <trkpt lat="37.180716991424561" lon="-8.426879039034247">
        <ele>83.769999999999996</ele>
        <time>2025-05-07T10:20:05Z</time>
      </trkpt>
      <trkpt lat="37.180520016700029" lon="-8.426766972988844">
        <ele>83.769999999999996</ele>
        <time>2025-05-07T10:20:06Z</time>
      </trkpt>
      <trkpt lat="37.178900968283415" lon="-8.425619993358851">
        <ele>78</ele>
        <time>2025-05-07T10:20:14Z</time>
      </trkpt>
      <trkpt lat="37.177111012861133" lon="-8.423808999359608">
        <ele>74.640000000000001</ele>
        <time>2025-05-07T10:20:24Z</time>
      </trkpt>
      <trkpt lat="37.176194032654166" lon="-8.422437971457839">
        <ele>76.079999999999998</ele>
        <time>2025-05-07T10:20:31Z</time>
      </trkpt>
      <trkpt lat="37.175497999414802" lon="-8.420500997453928">
        <ele>73.680000000000007</ele>
        <time>2025-05-07T10:20:39Z</time>
      </trkpt>
      <trkpt lat="37.174224033951759" lon="-8.416446000337601">
        <ele>63.579999999999998</ele>
        <time>2025-05-07T10:20:54Z</time>
      </trkpt>
      <trkpt lat="37.173218037933111" lon="-8.413230031728745">
        <ele>62.140000000000001</ele>
        <time>2025-05-07T10:21:06Z</time>
      </trkpt>
      <trkpt lat="37.17270196415484" lon="-8.411615006625652">
        <ele>65.510000000000005</ele>
        <time>2025-05-07T10:21:13Z</time>
      </trkpt>
      <trkpt lat="37.172097964212298" lon="-8.409727988764644">
        <ele>68.390000000000001</ele>
        <time>2025-05-07T10:21:22Z</time>
      </trkpt>
      <trkpt lat="37.172021018341184" lon="-8.409558003768325">
        <ele>68.870000000000005</ele>
        <time>2025-05-07T10:21:23Z</time>
      </trkpt>
      <trkpt lat="37.17192797921598" lon="-8.409403022378683">
        <ele>69.349999999999994</ele>
        <time>2025-05-07T10:21:24Z</time>
      </trkpt>
      <trkpt lat="37.171797975897789" lon="-8.409305959939957">
        <ele>69.829999999999998</ele>
        <time>2025-05-07T10:21:25Z</time>
      </trkpt>
      <trkpt lat="37.171662021428347" lon="-8.409206969663501">
        <ele>70.790000000000006</ele>
        <time>2025-05-07T10:21:26Z</time>
      </trkpt>
      <trkpt lat="37.171527994796634" lon="-8.409107979387045">
        <ele>71.269999999999996</ele>
        <time>2025-05-07T10:21:27Z</time>
      </trkpt>
      <trkpt lat="37.170430971309543" lon="-8.408360984176397">
        <ele>74.640000000000001</ele>
        <time>2025-05-07T10:21:35Z</time>
      </trkpt>
      <trkpt lat="37.169602001085877" lon="-8.407746003940702">
        <ele>73.680000000000007</ele>
        <time>2025-05-07T10:21:42Z</time>
      </trkpt>
      <trkpt lat="37.169532012194395" lon="-8.407590016722679">
        <ele>73.680000000000007</ele>
        <time>2025-05-07T10:21:43Z</time>
      </trkpt>
      <trkpt lat="37.169432016089559" lon="-8.40744299814105">
        <ele>74.159999999999997</ele>
        <time>2025-05-07T10:21:44Z</time>
      </trkpt>
      <trkpt lat="37.168593993410468" lon="-8.406236004084349">
        <ele>72.239999999999995</ele>
        <time>2025-05-07T10:21:52Z</time>
      </trkpt>
      <trkpt lat="37.168449992313981" lon="-8.406168026849628">
        <ele>71.760000000000005</ele>
        <time>2025-05-07T10:21:53Z</time>
      </trkpt>
      <trkpt lat="37.168325018137693" lon="-8.4061090182513">
        <ele>71.269999999999996</ele>
        <time>2025-05-07T10:21:54Z</time>
      </trkpt>
      <trkpt lat="37.168193003162742" lon="-8.406044980511069">
        <ele>70.790000000000006</ele>
        <time>2025-05-07T10:21:55Z</time>
      </trkpt>
      <trkpt lat="37.168049002066255" lon="-8.405983960255981">
        <ele>70.310000000000002</ele>
        <time>2025-05-07T10:21:56Z</time>
      </trkpt>
      <trkpt lat="37.167897960171103" lon="-8.405924029648304">
        <ele>69.349999999999994</ele>
        <time>2025-05-07T10:21:57Z</time>
      </trkpt>
      <trkpt lat="37.167752031236887" lon="-8.405846999958158">
        <ele>67.909999999999997</ele>
        <time>2025-05-07T10:21:58Z</time>
      </trkpt>
      <trkpt lat="37.167606018483639" lon="-8.405749015510082">
        <ele>66.950000000000003</ele>
        <time>2025-05-07T10:21:59Z</time>
      </trkpt>
      <trkpt lat="37.167451037093997" lon="-8.405646001920104">
        <ele>65.510000000000005</ele>
        <time>2025-05-07T10:22:00Z</time>
      </trkpt>
      <trkpt lat="37.166461972519755" lon="-8.404818959534168">
        <ele>57.340000000000003</ele>
        <time>2025-05-07T10:22:06Z</time>
      </trkpt>
      <trkpt lat="37.16552403755486" lon="-8.404406988993287">
        <ele>52.530000000000001</ele>
        <time>2025-05-07T10:22:11Z</time>
      </trkpt>
      <trkpt lat="37.165360003709793" lon="-8.404321996495128">
        <ele>52.049999999999997</ele>
        <time>2025-05-07T10:22:12Z</time>
      </trkpt>
      <trkpt lat="37.165204016491771" lon="-8.404214037582278">
        <ele>51.57</ele>
        <time>2025-05-07T10:22:13Z</time>
      </trkpt>
      <trkpt lat="37.165082981809974" lon="-8.404061989858747">
        <ele>51.090000000000003</ele>
        <time>2025-05-07T10:22:14Z</time>
      </trkpt>
      <trkpt lat="37.164958007633686" lon="-8.403903990983963">
        <ele>50.609999999999999</ele>
        <time>2025-05-07T10:22:15Z</time>
      </trkpt>
      <trkpt lat="37.164829010143876" lon="-8.403741968795657">
        <ele>50.130000000000003</ele>
        <time>2025-05-07T10:22:16Z</time>
      </trkpt>
      <trkpt lat="37.163568958640099" lon="-8.401883030310273">
        <ele>42.920000000000002</ele>
        <time>2025-05-07T10:22:26Z</time>
      </trkpt>
      <trkpt lat="37.162243025377393" lon="-8.40007396414876">
        <ele>36.189999999999998</ele>
        <time>2025-05-07T10:22:36Z</time>
      </trkpt>
      <trkpt lat="37.161023961380124" lon="-8.398837968707085">
        <ele>33.780000000000001</ele>
        <time>2025-05-07T10:22:44Z</time>
      </trkpt>
      <trkpt lat="37.15901599265635" lon="-8.396852966398001">
        <ele>31.859999999999999</ele>
        <time>2025-05-07T10:22:57Z</time>
      </trkpt>
      <trkpt lat="37.158139999955893" lon="-8.39601100422442">
        <ele>31.379999999999999</ele>
        <time>2025-05-07T10:23:03Z</time>
      </trkpt>
      <trkpt lat="37.158019971102476" lon="-8.395893992856145">
        <ele>31.379999999999999</ele>
        <time>2025-05-07T10:23:04Z</time>
      </trkpt>
      <trkpt lat="37.157911006361246" lon="-8.395772036164999">
        <ele>31.859999999999999</ele>
        <time>2025-05-07T10:23:05Z</time>
      </trkpt>
      <trkpt lat="37.157803969457746" lon="-8.395649995654821">
        <ele>31.859999999999999</ele>
        <time>2025-05-07T10:23:06Z</time>
      </trkpt>
      <trkpt lat="37.157701039686799" lon="-8.39551898650825">
        <ele>31.859999999999999</ele>
        <time>2025-05-07T10:23:07Z</time>
      </trkpt>
      <trkpt lat="37.157629961147904" lon="-8.395351013168693">
        <ele>32.340000000000003</ele>
        <time>2025-05-07T10:23:08Z</time>
      </trkpt>
      <trkpt lat="37.157556032761931" lon="-8.395181028172374">
        <ele>32.82</ele>
        <time>2025-05-07T10:23:09Z</time>
      </trkpt>
      <trkpt lat="37.157503981143236" lon="-8.39500199072063">
        <ele>33.299999999999997</ele>
        <time>2025-05-07T10:23:10Z</time>
      </trkpt>
      <trkpt lat="37.157469028607011" lon="-8.394809039309621">
        <ele>33.299999999999997</ele>
        <time>2025-05-07T10:23:11Z</time>
      </trkpt>
      <trkpt lat="37.157198041677475" lon="-8.392892014235258">
        <ele>34.259999999999998</ele>
        <time>2025-05-07T10:23:20Z</time>
      </trkpt>
      <trkpt lat="37.156976005062461" lon="-8.391239019110799">
        <ele>35.710000000000001</ele>
        <time>2025-05-07T10:23:28Z</time>
      </trkpt>
      <trkpt lat="37.156712980940938" lon="-8.388909017667174">
        <ele>34.740000000000002</ele>
        <time>2025-05-07T10:23:39Z</time>
      </trkpt>
      <trkpt lat="37.156654978170991" lon="-8.387444028630853">
        <ele>34.259999999999998</ele>
        <time>2025-05-07T10:23:47Z</time>
      </trkpt>
      <trkpt lat="37.156648021191359" lon="-8.387259962037206">
        <ele>34.259999999999998</ele>
        <time>2025-05-07T10:23:49Z</time>
      </trkpt>
      <trkpt lat="37.156622037291527" lon="-8.387023005634546">
        <ele>33.780000000000001</ele>
        <time>2025-05-07T10:23:52Z</time>
      </trkpt>
      <trkpt lat="37.156603010371327" lon="-8.386932983994484">
        <ele>33.780000000000001</ele>
        <time>2025-05-07T10:23:53Z</time>
      </trkpt>
      <trkpt lat="37.156579038128257" lon="-8.386818990111351">
        <ele>33.299999999999997</ele>
        <time>2025-05-07T10:23:54Z</time>
      </trkpt>
      <trkpt lat="37.156550036743283" lon="-8.386684963479638">
        <ele>32.82</ele>
        <time>2025-05-07T10:23:55Z</time>
      </trkpt>
      <trkpt lat="37.156518017873168" lon="-8.386534005403519">
        <ele>32.340000000000003</ele>
        <time>2025-05-07T10:23:56Z</time>
      </trkpt>
      <trkpt lat="37.156204031780362" lon="-8.385545024648309">
        <ele>29.940000000000001</ele>
        <time>2025-05-07T10:24:04Z</time>
      </trkpt>
      <trkpt lat="37.155904965475202" lon="-8.384686969220638">
        <ele>29.460000000000001</ele>
        <time>2025-05-07T10:24:12Z</time>
      </trkpt>
      <trkpt lat="37.155511016026139" lon="-8.383382996544242">
        <ele>26.57</ele>
        <time>2025-05-07T10:24:20Z</time>
      </trkpt>
      <trkpt lat="37.155496012419462" lon="-8.383192978799343">
        <ele>26.09</ele>
        <time>2025-05-07T10:24:21Z</time>
      </trkpt>
      <trkpt lat="37.155486037954688" lon="-8.383001033216715">
        <ele>26.09</ele>
        <time>2025-05-07T10:24:22Z</time>
      </trkpt>
      <trkpt lat="37.155461981892586" lon="-8.380958028137684">
        <ele>23.690000000000001</ele>
        <time>2025-05-07T10:24:32Z</time>
      </trkpt>
      <trkpt lat="37.155435997992754" lon="-8.379954965785146">
        <ele>22.73</ele>
        <time>2025-05-07T10:24:37Z</time>
      </trkpt>
      <trkpt lat="37.155395010486245" lon="-8.379758996888995">
        <ele>22.25</ele>
        <time>2025-05-07T10:24:38Z</time>
      </trkpt>
      <trkpt lat="37.155351005494595" lon="-8.379555987194181">
        <ele>22.25</ele>
        <time>2025-05-07T10:24:39Z</time>
      </trkpt>
      <trkpt lat="37.155274981632829" lon="-8.379365969449282">
        <ele>22.25</ele>
        <time>2025-05-07T10:24:40Z</time>
      </trkpt>
      <trkpt lat="37.155198035761714" lon="-8.379174023866653">
        <ele>23.210000000000001</ele>
        <time>2025-05-07T10:24:41Z</time>
      </trkpt>
      <trkpt lat="37.154194973409176" lon="-8.376755006611347">
        <ele>27.530000000000001</ele>
        <time>2025-05-07T10:24:54Z</time>
      </trkpt>
      <trkpt lat="37.15360002592206" lon="-8.375228997319937">
        <ele>23.210000000000001</ele>
        <time>2025-05-07T10:25:02Z</time>
      </trkpt>
      <trkpt lat="37.15289200656116" lon="-8.373905997723341">
        <ele>17.440000000000001</ele>
        <time>2025-05-07T10:25:08Z</time>
      </trkpt>
      <trkpt lat="37.151460964232683" lon="-8.371364017948508">
        <ele>13.119999999999999</ele>
        <time>2025-05-07T10:25:18Z</time>
      </trkpt>
      <trkpt lat="37.150545995682478" lon="-8.369819987565279">
        <ele>12.630000000000001</ele>
        <time>2025-05-07T10:25:25Z</time>
      </trkpt>
      <trkpt lat="37.150405012071133" lon="-8.369638016447425">
        <ele>12.630000000000001</ele>
        <time>2025-05-07T10:25:26Z</time>
      </trkpt>
      <trkpt lat="37.150239972397685" lon="-8.369479011744261">
        <ele>12.15</ele>
        <time>2025-05-07T10:25:27Z</time>
      </trkpt>
      <trkpt lat="37.148816976696253" lon="-8.368094991892576">
        <ele>11.67</ele>
        <time>2025-05-07T10:25:36Z</time>
      </trkpt>
      <trkpt lat="37.148059001192451" lon="-8.367355037480593">
        <ele>10.710000000000001</ele>
        <time>2025-05-07T10:25:43Z</time>
      </trkpt>
      <trkpt lat="37.14790896512568" lon="-8.367333998903632">
        <ele>10.23</ele>
        <time>2025-05-07T10:25:44Z</time>
      </trkpt>
      <trkpt lat="37.147854985669255" lon="-8.367315977811813">
        <ele>10.710000000000001</ele>
        <time>2025-05-07T10:25:45Z</time>
      </trkpt>
      <trkpt lat="37.14777996763587" lon="-8.367290999740362">
        <ele>10.710000000000001</ele>
        <time>2025-05-07T10:25:46Z</time>
      </trkpt>
      <trkpt lat="37.147741997614503" lon="-8.36707198061049">
        <ele>10.23</ele>
        <time>2025-05-07T10:25:47Z</time>
      </trkpt>
      <trkpt lat="37.14764803647995" lon="-8.367009032517672">
        <ele>10.710000000000001</ele>
        <time>2025-05-07T10:25:48Z</time>
      </trkpt>
      <trkpt lat="37.147536976262927" lon="-8.366936026141048">
        <ele>10.710000000000001</ele>
        <time>2025-05-07T10:25:49Z</time>
      </trkpt>
      <trkpt lat="37.147412002086639" lon="-8.366852039471269">
        <ele>11.19</ele>
        <time>2025-05-07T10:25:50Z</time>
      </trkpt>
      <trkpt lat="37.147275041788816" lon="-8.366761012002826">
        <ele>10.710000000000001</ele>
        <time>2025-05-07T10:25:51Z</time>
      </trkpt>
      <trkpt lat="37.145761018618941" lon="-8.365835985168815">
        <ele>9.75</ele>
        <time>2025-05-07T10:26:00Z</time>
      </trkpt>
      <trkpt lat="37.144793998450041" lon="-8.365131989121437">
        <ele>9.27</ele>
        <time>2025-05-07T10:26:07Z</time>
      </trkpt>
      <trkpt lat="37.144542960450053" lon="-8.365077003836632">
        <ele>10.23</ele>
        <time>2025-05-07T10:26:09Z</time>
      </trkpt>
      <trkpt lat="37.144517982378602" lon="-8.365015983581543">
        <ele>10.23</ele>
        <time>2025-05-07T10:26:10Z</time>
      </trkpt>
      <trkpt lat="37.144389990717173" lon="-8.364741979166865">
        <ele>10.23</ele>
        <time>2025-05-07T10:26:12Z</time>
      </trkpt>
      <trkpt lat="37.144292006269097" lon="-8.364633014425635">
        <ele>10.23</ele>
        <time>2025-05-07T10:26:13Z</time>
      </trkpt>
      <trkpt lat="37.143338983878493" lon="-8.363570021465421">
        <ele>9.27</ele>
        <time>2025-05-07T10:26:23Z</time>
      </trkpt>
      <trkpt lat="37.1428809966892" lon="-8.363057971000671">
        <ele>8.789999999999999</ele>
        <time>2025-05-07T10:26:27Z</time>
      </trkpt>
      <trkpt lat="37.142730038613081" lon="-8.362888991832733">
        <ele>8.789999999999999</ele>
        <time>2025-05-07T10:26:28Z</time>
      </trkpt>
      <trkpt lat="37.142051020637155" lon="-8.3620860055089">
        <ele>7.83</ele>
        <time>2025-05-07T10:26:33Z</time>
      </trkpt>
      <trkpt lat="37.141925962641835" lon="-8.361916020512581">
        <ele>7.83</ele>
        <time>2025-05-07T10:26:34Z</time>
      </trkpt>
      <trkpt lat="37.140483018010855" lon="-8.359685009345412">
        <ele>8.310000000000001</ele>
        <time>2025-05-07T10:26:46Z</time>
      </trkpt>
      <trkpt lat="37.140133995562792" lon="-8.359162984415889">
        <ele>9.27</ele>
        <time>2025-05-07T10:26:49Z</time>
      </trkpt>
      <trkpt lat="37.139999968931079" lon="-8.359017977491021">
        <ele>8.789999999999999</ele>
        <time>2025-05-07T10:26:50Z</time>
      </trkpt>
      <trkpt lat="37.13985001668334" lon="-8.358901971951127">
        <ele>8.789999999999999</ele>
        <time>2025-05-07T10:26:51Z</time>
      </trkpt>
      <trkpt lat="37.139696963131428" lon="-8.358818991109729">
        <ele>9.27</ele>
        <time>2025-05-07T10:26:52Z</time>
      </trkpt>
      <trkpt lat="37.139525972306728" lon="-8.358784960582852">
        <ele>9.27</ele>
        <time>2025-05-07T10:26:53Z</time>
      </trkpt>
      <trkpt lat="37.13935598731041" lon="-8.358754031360149">
        <ele>9.75</ele>
        <time>2025-05-07T10:26:54Z</time>
      </trkpt>
      <trkpt lat="37.13793802075088" lon="-8.358448008075357">
        <ele>16.960000000000001</ele>
        <time>2025-05-07T10:27:02Z</time>
      </trkpt>
      <trkpt lat="37.137769963592291" lon="-8.358400985598564">
        <ele>18.399999999999999</ele>
        <time>2025-05-07T10:27:03Z</time>
      </trkpt>
      <trkpt lat="37.137102009728551" lon="-8.358104014769197">
        <ele>22.25</ele>
        <time>2025-05-07T10:27:07Z</time>
      </trkpt>
      <trkpt lat="37.136940993368626" lon="-8.358030002564192">
        <ele>23.210000000000001</ele>
        <time>2025-05-07T10:27:08Z</time>
      </trkpt>
      <trkpt lat="37.13677603751421" lon="-8.357998989522457">
        <ele>24.170000000000002</ele>
        <time>2025-05-07T10:27:09Z</time>
      </trkpt>
      <trkpt lat="37.136604962870479" lon="-8.357974011451006">
        <ele>25.609999999999999</ele>
        <time>2025-05-07T10:27:10Z</time>
      </trkpt>
      <trkpt lat="37.136432966217399" lon="-8.357948027551174">
        <ele>26.57</ele>
        <time>2025-05-07T10:27:11Z</time>
      </trkpt>
      <trkpt lat="37.136261975392699" lon="-8.357953978702426">
        <ele>27.530000000000001</ele>
        <time>2025-05-07T10:27:12Z</time>
      </trkpt>
      <trkpt lat="37.136096013709903" lon="-8.357993960380554">
        <ele>27.530000000000001</ele>
        <time>2025-05-07T10:27:13Z</time>
      </trkpt>
      <trkpt lat="37.135929968208075" lon="-8.358035031706095">
        <ele>28.5</ele>
        <time>2025-05-07T10:27:14Z</time>
      </trkpt>
      <trkpt lat="37.135760989040136" lon="-8.358075013384223">
        <ele>29.460000000000001</ele>
        <time>2025-05-07T10:27:15Z</time>
      </trkpt>
      <trkpt lat="37.13559796102345" lon="-8.358137039467692">
        <ele>30.420000000000002</ele>
        <time>2025-05-07T10:27:16Z</time>
      </trkpt>
      <trkpt lat="37.135435016825795" lon="-8.358223959803581">
        <ele>31.859999999999999</ele>
        <time>2025-05-07T10:27:17Z</time>
      </trkpt>
      <trkpt lat="37.135114995762706" lon="-8.358453959226608">
        <ele>34.259999999999998</ele>
        <time>2025-05-07T10:27:19Z</time>
      </trkpt>
      <trkpt lat="37.134389961138368" lon="-8.359033986926079">
        <ele>40.030000000000001</ele>
        <time>2025-05-07T10:27:24Z</time>
      </trkpt>
      <trkpt lat="37.134266998618841" lon="-8.359091989696026">
        <ele>40.990000000000002</ele>
        <time>2025-05-07T10:27:25Z</time>
      </trkpt>
      <trkpt lat="37.134148981422186" lon="-8.3591019641608">
        <ele>41.950000000000003</ele>
        <time>2025-05-07T10:27:26Z</time>
      </trkpt>
      <trkpt lat="37.134040016680956" lon="-8.359110010787845">
        <ele>42.439999999999998</ele>
        <time>2025-05-07T10:27:27Z</time>
      </trkpt>
      <trkpt lat="37.133960975334048" lon="-8.359115039929748">
        <ele>42.439999999999998</ele>
        <time>2025-05-07T10:27:28Z</time>
      </trkpt>
      <trkpt lat="37.133701974526048" lon="-8.359064999967814">
        <ele>44.359999999999999</ele>
        <time>2025-05-07T10:27:33Z</time>
      </trkpt>
      <trkpt lat="37.133520003408194" lon="-8.359248982742429">
        <ele>45.32</ele>
        <time>2025-05-07T10:27:40Z</time>
      </trkpt>
      <trkpt lat="37.133304001763463" lon="-8.359297011047602">
        <ele>45.799999999999997</ele>
        <time>2025-05-07T10:27:42Z</time>
      </trkpt>
      <trkpt lat="37.133232001215219" lon="-8.359287036582828">
        <ele>45.799999999999997</ele>
        <time>2025-05-07T10:27:43Z</time>
      </trkpt>
      <trkpt lat="37.133094035089016" lon="-8.359203971922398">
        <ele>45.799999999999997</ele>
        <time>2025-05-07T10:27:44Z</time>
      </trkpt>
      <trkpt lat="37.13301700539887" lon="-8.359158039093018">
        <ele>45.799999999999997</ele>
        <time>2025-05-07T10:27:45Z</time>
      </trkpt>
      <trkpt lat="37.132939975708723" lon="-8.359027029946446">
        <ele>45.799999999999997</ele>
        <time>2025-05-07T10:27:46Z</time>
      </trkpt>
      <trkpt lat="37.132871998474002" lon="-8.358909012749791">
        <ele>45.32</ele>
        <time>2025-05-07T10:27:47Z</time>
      </trkpt>
      <trkpt lat="37.132866969332099" lon="-8.358765011653304">
        <ele>44.840000000000003</ele>
        <time>2025-05-07T10:27:48Z</time>
      </trkpt>
      <trkpt lat="37.132866969332099" lon="-8.358599971979857">
        <ele>44.840000000000003</ele>
        <time>2025-05-07T10:27:49Z</time>
      </trkpt>
      <trkpt lat="37.132907034829259" lon="-8.358452031388879">
        <ele>44.840000000000003</ele>
        <time>2025-05-07T10:27:50Z</time>
      </trkpt>
      <trkpt lat="37.13293100707233" lon="-8.358364021405578">
        <ele>44.840000000000003</ele>
        <time>2025-05-07T10:27:51Z</time>
      </trkpt>
      <trkpt lat="37.133042989298701" lon="-8.35813301615417">
        <ele>44.840000000000003</ele>
        <time>2025-05-07T10:27:52Z</time>
      </trkpt>
      <trkpt lat="37.133050030097365" lon="-8.357963031157851">
        <ele>44.840000000000003</ele>
        <time>2025-05-07T10:27:53Z</time>
      </trkpt>
      <trkpt lat="37.133057992905378" lon="-8.357783993706107">
        <ele>45.32</ele>
        <time>2025-05-07T10:27:54Z</time>
      </trkpt>
      <trkpt lat="37.133057992905378" lon="-8.357599005103111">
        <ele>45.799999999999997</ele>
        <time>2025-05-07T10:27:55Z</time>
      </trkpt>
      <trkpt lat="37.132690027356148" lon="-8.355568991973996">
        <ele>49.649999999999999</ele>
        <time>2025-05-07T10:28:06Z</time>
      </trkpt>
      <trkpt lat="37.132334969937801" lon="-8.353632017970085">
        <ele>50.130000000000003</ele>
        <time>2025-05-07T10:28:17Z</time>
      </trkpt>
      <trkpt lat="37.131941020488739" lon="-8.351467978209257">
        <ele>45.799999999999997</ele>
        <time>2025-05-07T10:28:30Z</time>
      </trkpt>
      <trkpt lat="37.1315579675138" lon="-8.349882960319519">
        <ele>40.990000000000002</ele>
        <time>2025-05-07T10:28:41Z</time>
      </trkpt>
      <trkpt lat="37.131040971726179" lon="-8.34857102483511">
        <ele>34.740000000000002</ele>
        <time>2025-05-07T10:28:51Z</time>
      </trkpt>
      <trkpt lat="37.130979029461741" lon="-8.348473962396383">
        <ele>33.780000000000001</ele>
        <time>2025-05-07T10:28:52Z</time>
      </trkpt>
      <trkpt lat="37.130850031971931" lon="-8.348321998491883">
        <ele>32.340000000000003</ele>
        <time>2025-05-07T10:28:54Z</time>
      </trkpt>
      <trkpt lat="37.130809966474771" lon="-8.348166011273861">
        <ele>31.379999999999999</ele>
        <time>2025-05-07T10:28:55Z</time>
      </trkpt>
      <trkpt lat="37.130679963156581" lon="-8.347970964387059">
        <ele>28.98</ele>
        <time>2025-05-07T10:28:57Z</time>
      </trkpt>
      <trkpt lat="37.130604023113847" lon="-8.34788303822279">
        <ele>28.02</ele>
        <time>2025-05-07T10:28:58Z</time>
      </trkpt>
      <trkpt lat="37.130522970110178" lon="-8.347801985219121">
        <ele>27.050000000000001</ele>
        <time>2025-05-07T10:28:59Z</time>
      </trkpt>
      <trkpt lat="37.129357969388366" lon="-8.347081979736686">
        <ele>17.920000000000002</ele>
        <time>2025-05-07T10:29:11Z</time>
      </trkpt>
      <trkpt lat="37.128738965839148" lon="-8.346715020015836">
        <ele>13.6</ele>
        <time>2025-05-07T10:29:19Z</time>
      </trkpt>
      <trkpt lat="37.127963975071907" lon="-8.346430035308003">
        <ele>11.19</ele>
        <time>2025-05-07T10:29:28Z</time>
      </trkpt>
      <trkpt lat="37.127248998731375" lon="-8.346237000077963">
        <ele>9.75</ele>
        <time>2025-05-07T10:29:37Z</time>
      </trkpt>
      <trkpt lat="37.126785982400179" lon="-8.346180003136396">
        <ele>10.710000000000001</ele>
        <time>2025-05-07T10:29:44Z</time>
      </trkpt>
      <trkpt lat="37.126729991286993" lon="-8.346175979822874">
        <ele>10.710000000000001</ele>
        <time>2025-05-07T10:29:45Z</time>
      </trkpt>
      <trkpt lat="37.126669976860285" lon="-8.3461660053581">
        <ele>10.710000000000001</ele>
        <time>2025-05-07T10:29:46Z</time>
      </trkpt>
      <trkpt lat="37.126557994633913" lon="-8.346218978986144">
        <ele>10.710000000000001</ele>
        <time>2025-05-07T10:29:47Z</time>
      </trkpt>
      <trkpt lat="37.126543996855617" lon="-8.346218978986144">
        <ele>10.710000000000001</ele>
        <time>2025-05-07T10:29:48Z</time>
      </trkpt>
      <trkpt lat="37.126477025449276" lon="-8.346218978986144">
        <ele>10.710000000000001</ele>
        <time>2025-05-07T10:29:49Z</time>
      </trkpt>
      <trkpt lat="37.126424973830581" lon="-8.346214033663273">
        <ele>11.19</ele>
        <time>2025-05-07T10:29:50Z</time>
      </trkpt>
      <trkpt lat="37.126372000202537" lon="-8.346146978437901">
        <ele>11.19</ele>
        <time>2025-05-07T10:29:51Z</time>
      </trkpt>
      <trkpt lat="37.126298993825912" lon="-8.346075983718038">
        <ele>11.67</ele>
        <time>2025-05-07T10:29:52Z</time>
      </trkpt>
      <trkpt lat="37.126220958307385" lon="-8.3460140414536">
        <ele>11.67</ele>
        <time>2025-05-07T10:29:53Z</time>
      </trkpt>
      <trkpt lat="37.126137977465987" lon="-8.345946986228228">
        <ele>11.67</ele>
        <time>2025-05-07T10:29:54Z</time>
      </trkpt>
      <trkpt lat="37.125351000577211" lon="-8.345378022640944">
        <ele>13.6</ele>
        <time>2025-05-07T10:30:01Z</time>
      </trkpt>
      <trkpt lat="37.124404013156891" lon="-8.344587022438645">
        <ele>17.920000000000002</ele>
        <time>2025-05-07T10:30:10Z</time>
      </trkpt>
      <trkpt lat="37.123691970482469" lon="-8.343593012541533">
        <ele>25.129999999999999</ele>
        <time>2025-05-07T10:30:19Z</time>
      </trkpt>
      <trkpt lat="37.123523997142911" lon="-8.343196967616677">
        <ele>28.02</ele>
        <time>2025-05-07T10:30:22Z</time>
      </trkpt>
      <trkpt lat="37.1233069896698" lon="-8.341746982187033">
        <ele>37.149999999999999</ele>
        <time>2025-05-07T10:30:32Z</time>
      </trkpt>
      <trkpt lat="37.123312018811703" lon="-8.341640029102564">
        <ele>38.109999999999999</ele>
        <time>2025-05-07T10:30:33Z</time>
      </trkpt>
      <trkpt lat="37.123231971636415" lon="-8.341520000249147">
        <ele>39.07</ele>
        <time>2025-05-07T10:30:34Z</time>
      </trkpt>
      <trkpt lat="37.123176986351609" lon="-8.341520000249147">
        <ele>40.030000000000001</ele>
        <time>2025-05-07T10:30:35Z</time>
      </trkpt>
      <trkpt lat="37.123108003288507" lon="-8.341520000249147">
        <ele>40.509999999999998</ele>
        <time>2025-05-07T10:30:36Z</time>
      </trkpt>
      <trkpt lat="37.123030973598361" lon="-8.341520000249147">
        <ele>40.990000000000002</ele>
        <time>2025-05-07T10:30:37Z</time>
      </trkpt>
      <trkpt lat="37.122948998585343" lon="-8.341523017734289">
        <ele>41.469999999999999</ele>
        <time>2025-05-07T10:30:38Z</time>
      </trkpt>
      <trkpt lat="37.122074011713266" lon="-8.341562999412417">
        <ele>43.880000000000003</ele>
        <time>2025-05-07T10:30:49Z</time>
      </trkpt>
      <trkpt lat="37.121921963989735" lon="-8.341562999412417">
        <ele>43.399999999999999</ele>
        <time>2025-05-07T10:30:51Z</time>
      </trkpt>
      <trkpt lat="37.121504964306951" lon="-8.341584037989378">
        <ele>42.439999999999998</ele>
        <time>2025-05-07T10:30:56Z</time>
      </trkpt>
      <trkpt lat="37.121423995122313" lon="-8.341584037989378">
        <ele>42.439999999999998</ele>
        <time>2025-05-07T10:30:57Z</time>
      </trkpt>
      <trkpt lat="37.121001966297626" lon="-8.341584037989378">
        <ele>40.990000000000002</ele>
        <time>2025-05-07T10:31:03Z</time>
      </trkpt>
      <trkpt lat="37.120812032371759" lon="-8.341584037989378">
        <ele>40.509999999999998</ele>
        <time>2025-05-07T10:31:06Z</time>
      </trkpt>
      <trkpt lat="37.120722010731697" lon="-8.341584037989378">
        <ele>40.030000000000001</ele>
        <time>2025-05-07T10:31:07Z</time>
      </trkpt>
      <trkpt lat="37.120669959113002" lon="-8.341555958613753">
        <ele>40.030000000000001</ele>
        <time>2025-05-07T10:31:08Z</time>
      </trkpt>
      <trkpt lat="37.120610028505325" lon="-8.341522011905909">
        <ele>39.549999999999997</ele>
        <time>2025-05-07T10:31:09Z</time>
      </trkpt>
      <trkpt lat="37.120544984936714" lon="-8.341485969722271">
        <ele>39.549999999999997</ele>
        <time>2025-05-07T10:31:10Z</time>
      </trkpt>
      <trkpt lat="37.120478013530374" lon="-8.341444982215762">
        <ele>39.549999999999997</ele>
        <time>2025-05-07T10:31:11Z</time>
      </trkpt>
      <trkpt lat="37.120412969961762" lon="-8.341405000537634">
        <ele>39.549999999999997</ele>
        <time>2025-05-07T10:31:12Z</time>
      </trkpt>
      <trkpt lat="37.120347004383802" lon="-8.341363007202745">
        <ele>39.549999999999997</ele>
        <time>2025-05-07T10:31:13Z</time>
      </trkpt>
      <trkpt lat="37.120284978300333" lon="-8.341317996382713">
        <ele>39.549999999999997</ele>
        <time>2025-05-07T10:31:14Z</time>
      </trkpt>
      <trkpt lat="37.120224963873625" lon="-8.341274997219443">
        <ele>39.549999999999997</ele>
        <time>2025-05-07T10:31:15Z</time>
      </trkpt>
      <trkpt lat="37.120050033554435" lon="-8.341149017214775">
        <ele>40.030000000000001</ele>
        <time>2025-05-07T10:31:18Z</time>
      </trkpt>
      <trkpt lat="37.119859009981155" lon="-8.34101096726954">
        <ele>39.549999999999997</ele>
        <time>2025-05-07T10:31:21Z</time>
      </trkpt>
      <trkpt lat="37.119794972240925" lon="-8.340963022783399">
        <ele>39.549999999999997</ele>
        <time>2025-05-07T10:31:22Z</time>
      </trkpt>
      <trkpt lat="37.119732024148107" lon="-8.340912982821465">
        <ele>40.030000000000001</ele>
        <time>2025-05-07T10:31:23Z</time>
      </trkpt>
      <trkpt lat="37.11961098946631" lon="-8.34079597145319">
        <ele>40.030000000000001</ele>
        <time>2025-05-07T10:31:25Z</time>
      </trkpt>
      <trkpt lat="37.119445027783513" lon="-8.340600002557039">
        <ele>40.509999999999998</ele>
        <time>2025-05-07T10:31:28Z</time>
      </trkpt>
      <trkpt lat="37.119375038892031" lon="-8.34055901505053">
        <ele>40.509999999999998</ele>
        <time>2025-05-07T10:31:29Z</time>
      </trkpt>
      <trkpt lat="37.119304966181517" lon="-8.340518027544022">
        <ele>40.990000000000002</ele>
        <time>2025-05-07T10:31:30Z</time>
      </trkpt>
      <trkpt lat="37.119233971461654" lon="-8.340477040037513">
        <ele>41.469999999999999</ele>
        <time>2025-05-07T10:31:31Z</time>
      </trkpt>
      <trkpt lat="37.119162976741791" lon="-8.340444015339017">
        <ele>41.469999999999999</ele>
        <time>2025-05-07T10:31:32Z</time>
      </trkpt>
      <trkpt lat="37.118952004238963" lon="-8.340345025062561">
        <ele>41.950000000000003</ele>
        <time>2025-05-07T10:31:35Z</time>
      </trkpt>
      <trkpt lat="37.118883021175861" lon="-8.340310994535685">
        <ele>41.950000000000003</ele>
        <time>2025-05-07T10:31:36Z</time>
      </trkpt>
      <trkpt lat="37.118814960122108" lon="-8.340276964008808">
        <ele>42.439999999999998</ele>
        <time>2025-05-07T10:31:37Z</time>
      </trkpt>
      <trkpt lat="37.118613040074706" lon="-8.340160036459565">
        <ele>42.439999999999998</ele>
        <time>2025-05-07T10:31:40Z</time>
      </trkpt>
      <trkpt lat="37.118553025647998" lon="-8.340094992890954">
        <ele>41.950000000000003</ele>
        <time>2025-05-07T10:31:41Z</time>
      </trkpt>
      <trkpt lat="37.118489993736148" lon="-8.340027015656233">
        <ele>41.950000000000003</ele>
        <time>2025-05-07T10:31:42Z</time>
      </trkpt>
      <trkpt lat="37.118307016789913" lon="-8.339813025668263">
        <ele>40.990000000000002</ele>
        <time>2025-05-07T10:31:45Z</time>
      </trkpt>
      <trkpt lat="37.117989007383585" lon="-8.3392050024122">
        <ele>39.549999999999997</ele>
        <time>2025-05-07T10:31:51Z</time>
      </trkpt>
      <trkpt lat="37.117597991600633" lon="-8.337947968393564">
        <ele>36.670000000000002</ele>
        <time>2025-05-07T10:32:01Z</time>
      </trkpt>
      <trkpt lat="37.117557004094124" lon="-8.337812013924122">
        <ele>36.670000000000002</ele>
        <time>2025-05-07T10:32:02Z</time>
      </trkpt>
      <trkpt lat="37.117511993274093" lon="-8.337674969807267">
        <ele>36.189999999999998</ele>
        <time>2025-05-07T10:32:03Z</time>
      </trkpt>
      <trkpt lat="37.117439992725849" lon="-8.337548989802599">
        <ele>35.710000000000001</ele>
        <time>2025-05-07T10:32:04Z</time>
      </trkpt>
      <trkpt lat="37.11692500859499" lon="-8.336968962103128">
        <ele>33.780000000000001</ele>
        <time>2025-05-07T10:32:09Z</time>
      </trkpt>
      <trkpt lat="37.11681897751987" lon="-8.336851028725505">
        <ele>33.299999999999997</ele>
        <time>2025-05-07T10:32:10Z</time>
      </trkpt>
      <trkpt lat="37.116705989465117" lon="-8.336747009307146">
        <ele>32.82</ele>
        <time>2025-05-07T10:32:11Z</time>
      </trkpt>
      <trkpt lat="37.115823039785028" lon="-8.336163964122534">
        <ele>30.420000000000002</ele>
        <time>2025-05-07T10:32:19Z</time>
      </trkpt>
      <trkpt lat="37.114555025473237" lon="-8.335284031927586">
        <ele>22.25</ele>
        <time>2025-05-07T10:32:31Z</time>
      </trkpt>
      <trkpt lat="37.113742986693978" lon="-8.334659999236465">
        <ele>17.920000000000002</ele>
        <time>2025-05-07T10:32:39Z</time>
      </trkpt>
      <trkpt lat="37.113633016124368" lon="-8.334603002294898">
        <ele>17.440000000000001</ele>
        <time>2025-05-07T10:32:40Z</time>
      </trkpt>
      <trkpt lat="37.113522961735725" lon="-8.334546005353332">
        <ele>16.960000000000001</ele>
        <time>2025-05-07T10:32:41Z</time>
      </trkpt>
      <trkpt lat="37.112106001004577" lon="-8.333741007372737">
        <ele>17.920000000000002</ele>
        <time>2025-05-07T10:32:54Z</time>
      </trkpt>
      <trkpt lat="37.111771982163191" lon="-8.333545038476586">
        <ele>18.399999999999999</ele>
        <time>2025-05-07T10:32:57Z</time>
      </trkpt>
      <trkpt lat="37.111652037128806" lon="-8.333507990464568">
        <ele>18.399999999999999</ele>
        <time>2025-05-07T10:32:58Z</time>
      </trkpt>
      <trkpt lat="37.111535025760531" lon="-8.333471026271582">
        <ele>18.399999999999999</ele>
        <time>2025-05-07T10:32:59Z</time>
      </trkpt>
      <trkpt lat="37.111410973593593" lon="-8.33346800878644">
        <ele>18.399999999999999</ele>
        <time>2025-05-07T10:33:00Z</time>
      </trkpt>
      <trkpt lat="37.11129798553884" lon="-8.333498015999794">
        <ele>18.399999999999999</ele>
        <time>2025-05-07T10:33:01Z</time>
      </trkpt>
      <trkpt lat="37.111181979998946" lon="-8.333528023213148">
        <ele>18.879999999999999</ele>
        <time>2025-05-07T10:33:02Z</time>
      </trkpt>
      <trkpt lat="37.111063962802291" lon="-8.333559958264232">
        <ele>18.879999999999999</ele>
        <time>2025-05-07T10:33:03Z</time>
      </trkpt>
      <trkpt lat="37.1109529864043" lon="-8.333616033196449">
        <ele>18.879999999999999</ele>
        <time>2025-05-07T10:33:04Z</time>
      </trkpt>
      <trkpt lat="37.109730988740921" lon="-8.334227995947003">
        <ele>18.879999999999999</ele>
        <time>2025-05-07T10:33:15Z</time>
      </trkpt>
      <trkpt lat="37.109667034819722" lon="-8.334279041737318">
        <ele>18.399999999999999</ele>
        <time>2025-05-07T10:33:16Z</time>
      </trkpt>
      <trkpt lat="37.109653037041426" lon="-8.334409967064858">
        <ele>17.920000000000002</ele>
        <time>2025-05-07T10:33:17Z</time>
      </trkpt>
      <trkpt lat="37.109655970707536" lon="-8.334505017846823">
        <ele>17.920000000000002</ele>
        <time>2025-05-07T10:33:18Z</time>
      </trkpt>
      <trkpt lat="37.109609032049775" lon="-8.334574000909925">
        <ele>17.920000000000002</ele>
        <time>2025-05-07T10:33:19Z</time>
      </trkpt>
      <trkpt lat="37.109555974602699" lon="-8.334624962881208">
        <ele>17.920000000000002</ele>
        <time>2025-05-07T10:33:20Z</time>
      </trkpt>
      <trkpt lat="37.109487997367978" lon="-8.334647007286549">
        <ele>17.440000000000001</ele>
        <time>2025-05-07T10:33:21Z</time>
      </trkpt>
      <trkpt lat="37.109431000426412" lon="-8.334612976759672">
        <ele>17.440000000000001</ele>
        <time>2025-05-07T10:33:22Z</time>
      </trkpt>
      <trkpt lat="37.109383977949619" lon="-8.334562014788389">
        <ele>17.440000000000001</ele>
        <time>2025-05-07T10:33:23Z</time>
      </trkpt>
      <trkpt lat="37.10936201736331" lon="-8.334481967613101">
        <ele>17.440000000000001</ele>
        <time>2025-05-07T10:33:24Z</time>
      </trkpt>
      <trkpt lat="37.109349025413394" lon="-8.334438968449831">
        <ele>17.440000000000001</ele>
        <time>2025-05-07T10:33:25Z</time>
      </trkpt>
      <trkpt lat="37.109388001263142" lon="-8.334232019260526">
        <ele>17.440000000000001</ele>
        <time>2025-05-07T10:33:26Z</time>
      </trkpt>
      <trkpt lat="37.109332010149956" lon="-8.334152977913618">
        <ele>16.960000000000001</ele>
        <time>2025-05-07T10:33:27Z</time>
      </trkpt>
      <trkpt lat="37.109265960752964" lon="-8.334054993465543">
        <ele>16.48</ele>
        <time>2025-05-07T10:33:28Z</time>
      </trkpt>
      <trkpt lat="37.10919002071023" lon="-8.333939993754029">
        <ele>16.48</ele>
        <time>2025-05-07T10:33:29Z</time>
      </trkpt>
      <trkpt lat="37.109106034040451" lon="-8.3338120020926">
        <ele>16</ele>
        <time>2025-05-07T10:33:30Z</time>
      </trkpt>
      <trkpt lat="37.108109006658196" lon="-8.33230996504426">
        <ele>10.23</ele>
        <time>2025-05-07T10:33:40Z</time>
      </trkpt>
      <trkpt lat="37.107723020017147" lon="-8.331759022548795">
        <ele>8.789999999999999</ele>
        <time>2025-05-07T10:33:44Z</time>
      </trkpt>
      <trkpt lat="37.107625035569072" lon="-8.331637987866998">
        <ele>8.310000000000001</ele>
        <time>2025-05-07T10:33:45Z</time>
      </trkpt>
      <trkpt lat="37.107529984787107" lon="-8.331520976498723">
        <ele>7.83</ele>
        <time>2025-05-07T10:33:46Z</time>
      </trkpt>
      <trkpt lat="37.107441974803805" lon="-8.331419974565506">
        <ele>7.35</ele>
        <time>2025-05-07T10:33:47Z</time>
      </trkpt>
      <trkpt lat="37.107340972870588" lon="-8.331342022866011">
        <ele>6.87</ele>
        <time>2025-05-07T10:33:48Z</time>
      </trkpt>
      <trkpt lat="37.107242988422513" lon="-8.331265999004245">
        <ele>6.39</ele>
        <time>2025-05-07T10:33:49Z</time>
      </trkpt>
      <trkpt lat="37.106415024027228" lon="-8.330615982413292">
        <ele>5.42</ele>
        <time>2025-05-07T10:33:56Z</time>
      </trkpt>
      <trkpt lat="37.106314022094011" lon="-8.33050400018692">
        <ele>5.91</ele>
        <time>2025-05-07T10:33:57Z</time>
      </trkpt>
      <trkpt lat="37.106231963261962" lon="-8.330371985211968">
        <ele>5.91</ele>
        <time>2025-05-07T10:33:58Z</time>
      </trkpt>
      <trkpt lat="37.105819992721081" lon="-8.32960101775825">
        <ele>4.94</ele>
        <time>2025-05-07T10:34:04Z</time>
      </trkpt>
      <trkpt lat="37.105767019093037" lon="-8.329459028318524">
        <ele>4.94</ele>
        <time>2025-05-07T10:34:05Z</time>
      </trkpt>
      <trkpt lat="37.105364017188549" lon="-8.32805497571826">
        <ele>4.94</ele>
        <time>2025-05-07T10:34:14Z</time>
      </trkpt>
      <trkpt lat="37.105251029133797" lon="-8.327749036252499">
        <ele>4.94</ele>
        <time>2025-05-07T10:34:16Z</time>
      </trkpt>
      <trkpt lat="37.105179028585553" lon="-8.327619032934308">
        <ele>5.42</ele>
        <time>2025-05-07T10:34:17Z</time>
      </trkpt>
      <trkpt lat="37.105094958096743" lon="-8.327518031001091">
        <ele>5.91</ele>
        <time>2025-05-07T10:34:18Z</time>
      </trkpt>
      <trkpt lat="37.105011977255344" lon="-8.327425997704268">
        <ele>6.39</ele>
        <time>2025-05-07T10:34:19Z</time>
      </trkpt>
      <trkpt lat="37.104931008070707" lon="-8.327343016862869">
        <ele>6.87</ele>
        <time>2025-05-07T10:34:20Z</time>
      </trkpt>
      <trkpt lat="37.104847021400928" lon="-8.327277973294258">
        <ele>7.83</ele>
        <time>2025-05-07T10:34:21Z</time>
      </trkpt>
      <trkpt lat="37.104503028094769" lon="-8.327018972486258">
        <ele>9.75</ele>
        <time>2025-05-07T10:34:27Z</time>
      </trkpt>
      <trkpt lat="37.104503028094769" lon="-8.327018972486258">
        <ele>10.23</ele>
        <time>2025-05-07T10:34:38Z</time>
      </trkpt>
      <trkpt lat="37.104503028094769" lon="-8.327018972486258">
        <ele>10.23</ele>
        <time>2025-05-07T10:35:08Z</time>
      </trkpt>
      <trkpt lat="37.104503028094769" lon="-8.327018972486258">
        <ele>10.23</ele>
        <time>2025-05-07T10:35:41Z</time>
      </trkpt>
      <trkpt lat="37.104496993124485" lon="-8.327015032991767">
        <ele>10.23</ele>
        <time>2025-05-07T10:36:02Z</time>
      </trkpt>
      <trkpt lat="37.104417029768229" lon="-8.32695703022182">
        <ele>10.710000000000001</ele>
        <time>2025-05-07T10:36:04Z</time>
      </trkpt>
      <trkpt lat="37.104345029219985" lon="-8.326904978603125">
        <ele>10.23</ele>
        <time>2025-05-07T10:36:05Z</time>
      </trkpt>
      <trkpt lat="37.103522010147572" lon="-8.326278012245894">
        <ele>8.310000000000001</ele>
        <time>2025-05-07T10:36:13Z</time>
      </trkpt>
      <trkpt lat="37.102382993325591" lon="-8.325352985411882">
        <ele>9.27</ele>
        <time>2025-05-07T10:36:24Z</time>
      </trkpt>
      <trkpt lat="37.102300012484193" lon="-8.325261035934091">
        <ele>9.27</ele>
        <time>2025-05-07T10:36:25Z</time>
      </trkpt>
      <trkpt lat="37.101990971714258" lon="-8.324804976582527">
        <ele>10.710000000000001</ele>
        <time>2025-05-07T10:36:29Z</time>
      </trkpt>
      <trkpt lat="37.101365011185408" lon="-8.323526987805963">
        <ele>12.630000000000001</ele>
        <time>2025-05-07T10:36:36Z</time>
      </trkpt>
      <trkpt lat="37.100545009598136" lon="-8.32186602987349">
        <ele>14.08</ele>
        <time>2025-05-07T10:36:45Z</time>
      </trkpt>
      <trkpt lat="37.099617971107364" lon="-8.320035003125668">
        <ele>14.56</ele>
        <time>2025-05-07T10:36:56Z</time>
      </trkpt>
      <trkpt lat="37.09911497309804" lon="-8.318352000787854">
        <ele>15.52</ele>
        <time>2025-05-07T10:37:07Z</time>
      </trkpt>
      <trkpt lat="37.098849015310407" lon="-8.317166967317462">
        <ele>16</ele>
        <time>2025-05-07T10:37:17Z</time>
      </trkpt>
      <trkpt lat="37.098809033632278" lon="-8.317056996747851">
        <ele>16</ele>
        <time>2025-05-07T10:37:18Z</time>
      </trkpt>
      <trkpt lat="37.098767962306738" lon="-8.316948032006621">
        <ele>15.039999999999999</ele>
        <time>2025-05-07T10:37:19Z</time>
      </trkpt>
      <trkpt lat="37.098200004547834" lon="-8.315568035468459">
        <ele>10.23</ele>
        <time>2025-05-07T10:37:30Z</time>
      </trkpt>
      <trkpt lat="37.097628023475409" lon="-8.314086031168699">
        <ele>9.27</ele>
        <time>2025-05-07T10:37:41Z</time>
      </trkpt>
      <trkpt lat="37.096940958872437" lon="-8.312659012153745">
        <ele>11.67</ele>
        <time>2025-05-07T10:37:52Z</time>
      </trkpt>
      <trkpt lat="37.096830988302827" lon="-8.31239003688097">
        <ele>11.67</ele>
        <time>2025-05-07T10:37:54Z</time>
      </trkpt>
      <trkpt lat="37.096800981089473" lon="-8.312256010249257">
        <ele>11.67</ele>
        <time>2025-05-07T10:37:55Z</time>
      </trkpt>
      <trkpt lat="37.096774997189641" lon="-8.312101028859615">
        <ele>11.19</ele>
        <time>2025-05-07T10:37:56Z</time>
      </trkpt>
      <trkpt lat="37.096774997189641" lon="-8.311965996399522">
        <ele>11.19</ele>
        <time>2025-05-07T10:37:57Z</time>
      </trkpt>
      <trkpt lat="37.096785977482796" lon="-8.311816966161132">
        <ele>11.19</ele>
        <time>2025-05-07T10:37:58Z</time>
      </trkpt>
      <trkpt lat="37.096799975261092" lon="-8.311665002256632">
        <ele>11.67</ele>
        <time>2025-05-07T10:37:59Z</time>
      </trkpt>
      <trkpt lat="37.096817996352911" lon="-8.311479007825255">
        <ele>11.67</ele>
        <time>2025-05-07T10:38:00Z</time>
      </trkpt>
      <trkpt lat="37.096939031034708" lon="-8.309887032955885">
        <ele>16.960000000000001</ele>
        <time>2025-05-07T10:38:12Z</time>
      </trkpt>
      <trkpt lat="37.09696602076292" lon="-8.309586960822344">
        <ele>19.84</ele>
        <time>2025-05-07T10:38:20Z</time>
      </trkpt>
      <trkpt lat="37.096897959709167" lon="-8.309411024674773">
        <ele>22.25</ele>
        <time>2025-05-07T10:38:32Z</time>
      </trkpt>
      <trkpt lat="37.096867030486465" lon="-8.309335000813007">
        <ele>22.73</ele>
        <time>2025-05-07T10:38:45Z</time>
      </trkpt>
      <trkpt lat="37.096883039921522" lon="-8.309289989992976">
        <ele>22.73</ele>
        <time>2025-05-07T10:38:46Z</time>
      </trkpt>
      <trkpt lat="37.096898965537548" lon="-8.309239028021693">
        <ele>22.73</ele>
        <time>2025-05-07T10:38:47Z</time>
      </trkpt>
      <trkpt lat="37.09694498218596" lon="-8.309226036071777">
        <ele>22.73</ele>
        <time>2025-05-07T10:38:48Z</time>
      </trkpt>
      <trkpt lat="37.096981024369597" lon="-8.309226036071777">
        <ele>22.73</ele>
        <time>2025-05-07T10:38:49Z</time>
      </trkpt>
      <trkpt lat="37.097011031582952" lon="-8.309226036071777">
        <ele>23.210000000000001</ele>
        <time>2025-05-07T10:38:50Z</time>
      </trkpt>
      <trkpt lat="37.097011031582952" lon="-8.309226036071777">
        <ele>23.210000000000001</ele>
        <time>2025-05-07T10:38:51Z</time>
      </trkpt>
      <trkpt lat="37.097136005759239" lon="-8.30936199054122">
        <ele>23.210000000000001</ele>
        <time>2025-05-07T10:38:52Z</time>
      </trkpt>
      <trkpt lat="37.097263997420669" lon="-8.309371965005994">
        <ele>23.690000000000001</ele>
        <time>2025-05-07T10:38:54Z</time>
      </trkpt>
      <trkpt lat="37.097334992140532" lon="-8.309375988319516">
        <ele>23.690000000000001</ele>
        <time>2025-05-07T10:38:55Z</time>
      </trkpt>
      <trkpt lat="37.097663981840014" lon="-8.309369031339884">
        <ele>26.57</ele>
        <time>2025-05-07T10:39:04Z</time>
      </trkpt>
      <trkpt lat="37.097901022061706" lon="-8.3093629963696">
        <ele>28.02</ele>
        <time>2025-05-07T10:39:14Z</time>
      </trkpt>
      <trkpt lat="37.098422041162848" lon="-8.309327960014343">
        <ele>30.420000000000002</ele>
        <time>2025-05-07T10:39:21Z</time>
      </trkpt>
      <trkpt lat="37.09849001839757" lon="-8.309314968064427">
        <ele>30.420000000000002</ele>
        <time>2025-05-07T10:39:22Z</time>
      </trkpt>
      <trkpt lat="37.098554978147149" lon="-8.309302981942892">
        <ele>30.899999999999999</ele>
        <time>2025-05-07T10:39:23Z</time>
      </trkpt>
      <trkpt lat="37.098644999787211" lon="-8.309238022193313">
        <ele>31.379999999999999</ele>
        <time>2025-05-07T10:39:24Z</time>
      </trkpt>
      <trkpt lat="37.098682969808578" lon="-8.309158980846405">
        <ele>31.859999999999999</ele>
        <time>2025-05-07T10:39:25Z</time>
      </trkpt>
      <trkpt lat="37.098724041134119" lon="-8.309072982519865">
        <ele>32.340000000000003</ele>
        <time>2025-05-07T10:39:26Z</time>
      </trkpt>
      <trkpt lat="37.098796963691711" lon="-8.308919006958604">
        <ele>32.82</ele>
        <time>2025-05-07T10:39:28Z</time>
      </trkpt>
      <trkpt lat="37.098839962854981" lon="-8.308837031945586">
        <ele>33.299999999999997</ele>
        <time>2025-05-07T10:39:29Z</time>
      </trkpt>
      <trkpt lat="37.098905006423593" lon="-8.308797972276807">
        <ele>34.259999999999998</ele>
        <time>2025-05-07T10:39:30Z</time>
      </trkpt>
      <trkpt lat="37.09911597892642" lon="-8.308671992272139">
        <ele>35.710000000000001</ele>
        <time>2025-05-07T10:39:33Z</time>
      </trkpt>
      <trkpt lat="37.099187979474664" lon="-8.308634022250772">
        <ele>35.710000000000001</ele>
        <time>2025-05-07T10:39:34Z</time>
      </trkpt>
      <trkpt lat="37.09958796389401" lon="-8.308474011719227">
        <ele>35.710000000000001</ele>
        <time>2025-05-07T10:39:39Z</time>
      </trkpt>
      <trkpt lat="37.099741017445922" lon="-8.308412991464138">
        <ele>36.189999999999998</ele>
        <time>2025-05-07T10:39:41Z</time>
      </trkpt>
      <trkpt lat="37.099814023822546" lon="-8.308383990079165">
        <ele>36.189999999999998</ele>
        <time>2025-05-07T10:39:42Z</time>
      </trkpt>
      <trkpt lat="37.100069001317024" lon="-8.308254992589355">
        <ele>37.149999999999999</ele>
        <time>2025-05-07T10:39:46Z</time>
      </trkpt>
      <trkpt lat="37.100129015743732" lon="-8.30820201896131">
        <ele>37.149999999999999</ele>
        <time>2025-05-07T10:39:47Z</time>
      </trkpt>
      <trkpt lat="37.100269999355078" lon="-8.308101017028093">
        <ele>37.630000000000003</ele>
        <time>2025-05-07T10:39:49Z</time>
      </trkpt>
      <trkpt lat="37.10033898241818" lon="-8.308065980672836">
        <ele>38.109999999999999</ele>
        <time>2025-05-07T10:39:50Z</time>
      </trkpt>
      <trkpt lat="37.100409977138042" lon="-8.308031028136611">
        <ele>38.590000000000003</ele>
        <time>2025-05-07T10:39:51Z</time>
      </trkpt>
      <trkpt lat="37.100758999586105" lon="-8.307840004563332">
        <ele>41.469999999999999</ele>
        <time>2025-05-07T10:39:56Z</time>
      </trkpt>
      <trkpt lat="37.100808033719659" lon="-8.307804968208075">
        <ele>41.950000000000003</ele>
        <time>2025-05-07T10:39:57Z</time>
      </trkpt>
      <trkpt lat="37.100909035652876" lon="-8.307732967659831">
        <ele>42.439999999999998</ele>
        <time>2025-05-07T10:39:59Z</time>
      </trkpt>
      <trkpt lat="37.100981036201119" lon="-8.307680999860168">
        <ele>42.920000000000002</ele>
        <time>2025-05-07T10:40:00Z</time>
      </trkpt>
      <trkpt lat="37.101425025612116" lon="-8.307680999860168">
        <ele>45.32</ele>
        <time>2025-05-07T10:40:08Z</time>
      </trkpt>
      <trkpt lat="37.101442962884903" lon="-8.307680999860168">
        <ele>45.32</ele>
        <time>2025-05-07T10:40:09Z</time>
      </trkpt>
      <trkpt lat="37.101446986198425" lon="-8.307631965726614">
        <ele>45.799999999999997</ele>
        <time>2025-05-07T10:40:10Z</time>
      </trkpt>
      <trkpt lat="37.101442962884903" lon="-8.307593995705247">
        <ele>45.799999999999997</ele>
        <time>2025-05-07T10:40:11Z</time>
      </trkpt>
      <trkpt lat="37.101437011733651" lon="-8.307538004592061">
        <ele>45.799999999999997</ele>
        <time>2025-05-07T10:40:12Z</time>
      </trkpt>
      <trkpt lat="37.101429970934987" lon="-8.307472039014101">
        <ele>45.799999999999997</ele>
        <time>2025-05-07T10:40:13Z</time>
      </trkpt>
      <trkpt lat="37.101422008126974" lon="-8.307403977960348">
        <ele>45.799999999999997</ele>
        <time>2025-05-07T10:40:14Z</time>
      </trkpt>
      <trkpt lat="37.101359982043505" lon="-8.307012962177396">
        <ele>45.799999999999997</ele>
        <time>2025-05-07T10:40:22Z</time>
      </trkpt>
      <trkpt lat="37.101337015628815" lon="-8.306938027963042">
        <ele>45.799999999999997</ele>
        <time>2025-05-07T10:40:23Z</time>
      </trkpt>
      <trkpt lat="37.101238025352359" lon="-8.306641979143024">
        <ele>46.280000000000001</ele>
        <time>2025-05-07T10:40:27Z</time>
      </trkpt>
      <trkpt lat="37.101143980398774" lon="-8.30641801469028">
        <ele>46.280000000000001</ele>
        <time>2025-05-07T10:40:30Z</time>
      </trkpt>
      <trkpt lat="37.101112967357039" lon="-8.306344002485275">
        <ele>46.759999999999998</ele>
        <time>2025-05-07T10:40:31Z</time>
      </trkpt>
      <trkpt lat="37.101078014820814" lon="-8.306262027472258">
        <ele>46.759999999999998</ele>
        <time>2025-05-07T10:40:32Z</time>
      </trkpt>
      <trkpt lat="37.101039960980415" lon="-8.306169994175434">
        <ele>46.759999999999998</ele>
        <time>2025-05-07T10:40:33Z</time>
      </trkpt>
      <trkpt lat="37.101000985130668" lon="-8.306077038869262">
        <ele>46.759999999999998</ele>
        <time>2025-05-07T10:40:34Z</time>
      </trkpt>
      <trkpt lat="37.100955974310637" lon="-8.305989028885961">
        <ele>46.759999999999998</ele>
        <time>2025-05-07T10:40:35Z</time>
      </trkpt>
      <trkpt lat="37.100904006510973" lon="-8.30590495839715">
        <ele>46.759999999999998</ele>
        <time>2025-05-07T10:40:36Z</time>
      </trkpt>
      <trkpt lat="37.100852960720658" lon="-8.305820971727371">
        <ele>47.240000000000002</ele>
        <time>2025-05-07T10:40:37Z</time>
      </trkpt>
      <trkpt lat="37.10051198489964" lon="-8.30540799535811">
        <ele>47.719999999999999</ele>
        <time>2025-05-07T10:40:42Z</time>
      </trkpt>
      <trkpt lat="37.100433027371764" lon="-8.305317973718047">
        <ele>48.68</ele>
        <time>2025-05-07T10:40:43Z</time>
      </trkpt>
      <trkpt lat="37.099999012425542" lon="-8.304754961282015">
        <ele>52.530000000000001</ele>
        <time>2025-05-07T10:40:49Z</time>
      </trkpt>
      <trkpt lat="37.099942015483975" lon="-8.304662005975843">
        <ele>52.530000000000001</ele>
        <time>2025-05-07T10:40:50Z</time>
      </trkpt>
      <trkpt lat="37.0995850302279" lon="-8.303703032433987">
        <ele>52.530000000000001</ele>
        <time>2025-05-07T10:40:58Z</time>
      </trkpt>
      <trkpt lat="37.099509006366134" lon="-8.303542016074061">
        <ele>52.049999999999997</ele>
        <time>2025-05-07T10:41:00Z</time>
      </trkpt>
      <trkpt lat="37.099487967789173" lon="-8.30349700525403">
        <ele>52.049999999999997</ele>
        <time>2025-05-07T10:41:01Z</time>
      </trkpt>
      <trkpt lat="37.099475981667638" lon="-8.303472027182579">
        <ele>52.049999999999997</ele>
        <time>2025-05-07T10:41:02Z</time>
      </trkpt>
      <trkpt lat="37.09945703856647" lon="-8.3034329675138">
        <ele>51.57</ele>
        <time>2025-05-07T10:41:13Z</time>
      </trkpt>
      <trkpt lat="37.099445974454284" lon="-8.303402038291097">
        <ele>51.57</ele>
        <time>2025-05-07T10:41:14Z</time>
      </trkpt>
      <trkpt lat="37.099325023591518" lon="-8.303049998357892">
        <ele>51.57</ele>
        <time>2025-05-07T10:41:18Z</time>
      </trkpt>
      <trkpt lat="37.099248999729753" lon="-8.302688989788294">
        <ele>51.57</ele>
        <time>2025-05-07T10:41:21Z</time>
      </trkpt>
      <trkpt lat="37.099242964759469" lon="-8.302564015612006">
        <ele>51.57</ele>
        <time>2025-05-07T10:41:22Z</time>
      </trkpt>
      <trkpt lat="37.099242964759469" lon="-8.302448010072112">
        <ele>51.57</ele>
        <time>2025-05-07T10:41:23Z</time>
      </trkpt>
      <trkpt lat="37.099255034700036" lon="-8.30233602784574">
        <ele>51.57</ele>
        <time>2025-05-07T10:41:24Z</time>
      </trkpt>
      <trkpt lat="37.099280012771487" lon="-8.302240977063775">
        <ele>51.57</ele>
        <time>2025-05-07T10:41:25Z</time>
      </trkpt>
      <trkpt lat="37.099302979186177" lon="-8.302152967080474">
        <ele>52.049999999999997</ele>
        <time>2025-05-07T10:41:26Z</time>
      </trkpt>
      <trkpt lat="37.09932804107666" lon="-8.302059005945921">
        <ele>52.049999999999997</ele>
        <time>2025-05-07T10:41:27Z</time>
      </trkpt>
      <trkpt lat="37.09954303689301" lon="-8.301193993538618">
        <ele>53.490000000000002</ele>
        <time>2025-05-07T10:41:39Z</time>
      </trkpt>
      <trkpt lat="37.09954303689301" lon="-8.301116041839123">
        <ele>53.490000000000002</ele>
        <time>2025-05-07T10:41:40Z</time>
      </trkpt>
      <trkpt lat="37.099483022466302" lon="-8.300422020256519">
        <ele>54.93</ele>
        <time>2025-05-07T10:41:49Z</time>
      </trkpt>
      <trkpt lat="37.099469024688005" lon="-8.30035999417305">
        <ele>54.93</ele>
        <time>2025-05-07T10:41:50Z</time>
      </trkpt>
      <trkpt lat="37.099457960575819" lon="-8.300312971696258">
        <ele>54.93</ele>
        <time>2025-05-07T10:41:51Z</time>
      </trkpt>
      <trkpt lat="37.099453015252948" lon="-8.300288999453187">
        <ele>54.93</ele>
        <time>2025-05-07T10:41:59Z</time>
      </trkpt>
      <trkpt lat="37.099452009424567" lon="-8.300283970311284">
        <ele>54.93</ele>
        <time>2025-05-07T10:42:02Z</time>
      </trkpt>
      <trkpt lat="37.09943599998951" lon="-8.300213981419802">
        <ele>54.93</ele>
        <time>2025-05-07T10:42:03Z</time>
      </trkpt>
      <trkpt lat="37.099440023303032" lon="-8.300197971984744">
        <ele>54.93</ele>
        <time>2025-05-07T10:42:04Z</time>
      </trkpt>
      <trkpt lat="37.099474975839257" lon="-8.300066962838173">
        <ele>53.969999999999999</ele>
        <time>2025-05-07T10:42:06Z</time>
      </trkpt>
      <trkpt lat="37.099535996094346" lon="-8.299837969243527">
        <ele>53.009999999999998</ele>
        <time>2025-05-07T10:42:10Z</time>
      </trkpt>
      <trkpt lat="37.099606990814209" lon="-8.299432033672929">
        <ele>51.57</ele>
        <time>2025-05-07T10:42:17Z</time>
      </trkpt>
      <trkpt lat="37.099606990814209" lon="-8.299363972619176">
        <ele>51.57</ele>
        <time>2025-05-07T10:42:18Z</time>
      </trkpt>
      <trkpt lat="37.099606990814209" lon="-8.299298007041216">
        <ele>51.57</ele>
        <time>2025-05-07T10:42:19Z</time>
      </trkpt>
      <trkpt lat="37.099578995257616" lon="-8.298958959057927">
        <ele>51.57</ele>
        <time>2025-05-07T10:42:24Z</time>
      </trkpt>
      <trkpt lat="37.099454021081328" lon="-8.298570960760117">
        <ele>47.719999999999999</ele>
        <time>2025-05-07T10:42:32Z</time>
      </trkpt>
      <trkpt lat="37.099434994161129" lon="-8.298519998788834">
        <ele>47.240000000000002</ele>
        <time>2025-05-07T10:42:33Z</time>
      </trkpt>
      <trkpt lat="37.099313037469983" lon="-8.298213975504041">
        <ele>44.840000000000003</ele>
        <time>2025-05-07T10:42:39Z</time>
      </trkpt>
      <trkpt lat="37.09928403608501" lon="-8.2981660310179">
        <ele>44.359999999999999</ele>
        <time>2025-05-07T10:42:40Z</time>
      </trkpt>
      <trkpt lat="37.099250005558133" lon="-8.298110961914063">
        <ele>43.880000000000003</ele>
        <time>2025-05-07T10:42:41Z</time>
      </trkpt>
      <trkpt lat="37.099213041365147" lon="-8.298051031306386">
        <ele>43.399999999999999</ele>
        <time>2025-05-07T10:42:42Z</time>
      </trkpt>
      <trkpt lat="37.099175993353128" lon="-8.297990011051297">
        <ele>42.920000000000002</ele>
        <time>2025-05-07T10:42:43Z</time>
      </trkpt>
      <trkpt lat="37.099141040816903" lon="-8.297933014109731">
        <ele>42.439999999999998</ele>
        <time>2025-05-07T10:42:44Z</time>
      </trkpt>
      <trkpt lat="37.09909200668335" lon="-8.297853972762823">
        <ele>41.950000000000003</ele>
        <time>2025-05-07T10:42:45Z</time>
      </trkpt>
      <trkpt lat="37.099052025005221" lon="-8.29761098138988">
        <ele>40.990000000000002</ele>
        <time>2025-05-07T10:42:49Z</time>
      </trkpt>
      <trkpt lat="37.098978012800217" lon="-8.297165986150503">
        <ele>39.549999999999997</ele>
        <time>2025-05-07T10:42:56Z</time>
      </trkpt>
      <trkpt lat="37.098967032507062" lon="-8.297103960067034">
        <ele>39.549999999999997</ele>
        <time>2025-05-07T10:42:57Z</time>
      </trkpt>
      <trkpt lat="37.098928978666663" lon="-8.296872032806277">
        <ele>39.07</ele>
        <time>2025-05-07T10:43:01Z</time>
      </trkpt>
      <trkpt lat="37.098823031410575" lon="-8.296714033931494">
        <ele>39.549999999999997</ele>
        <time>2025-05-07T10:43:06Z</time>
      </trkpt>
      <trkpt lat="37.098784977570176" lon="-8.296723002567887">
        <ele>39.07</ele>
        <time>2025-05-07T10:43:07Z</time>
      </trkpt>
      <trkpt lat="37.098752958700061" lon="-8.2967309653759">
        <ele>39.07</ele>
        <time>2025-05-07T10:43:08Z</time>
      </trkpt>
      <trkpt lat="37.098720017820597" lon="-8.296740017831326">
        <ele>39.07</ele>
        <time>2025-05-07T10:43:09Z</time>
      </trkpt>
      <trkpt lat="37.09868498146534" lon="-8.296747980639339">
        <ele>38.590000000000003</ele>
        <time>2025-05-07T10:43:10Z</time>
      </trkpt>
      <trkpt lat="37.098370995372534" lon="-8.296827021986246">
        <ele>38.590000000000003</ele>
        <time>2025-05-07T10:43:18Z</time>
      </trkpt>
      <trkpt lat="37.098288014531136" lon="-8.296847976744175">
        <ele>38.590000000000003</ele>
        <time>2025-05-07T10:43:20Z</time>
      </trkpt>
      <trkpt lat="37.098247027024627" lon="-8.296858035027981">
        <ele>38.109999999999999</ele>
        <time>2025-05-07T10:43:21Z</time>
      </trkpt>
      <trkpt lat="37.09780496545136" lon="-8.296931963413954">
        <ele>41.469999999999999</ele>
        <time>2025-05-07T10:43:30Z</time>
      </trkpt>
      <trkpt lat="37.097462983801961" lon="-8.296992983669043">
        <ele>43.880000000000003</ele>
        <time>2025-05-07T10:43:36Z</time>
      </trkpt>
      <trkpt lat="37.097416967153549" lon="-8.297016033902764">
        <ele>43.880000000000003</ele>
        <time>2025-05-07T10:43:37Z</time>
      </trkpt>
      <trkpt lat="37.097371034324169" lon="-8.297036988660693">
        <ele>44.840000000000003</ele>
        <time>2025-05-07T10:43:38Z</time>
      </trkpt>
      <trkpt lat="37.097232984378934" lon="-8.297103038057685">
        <ele>46.280000000000001</ele>
        <time>2025-05-07T10:43:41Z</time>
      </trkpt>
      <trkpt lat="37.097182022407651" lon="-8.297128016129136">
        <ele>46.759999999999998</ele>
        <time>2025-05-07T10:43:42Z</time>
      </trkpt>
      <trkpt lat="37.097070040181279" lon="-8.297181995585561">
        <ele>48.68</ele>
        <time>2025-05-07T10:43:44Z</time>
      </trkpt>
      <trkpt lat="37.097014971077442" lon="-8.297207979485393">
        <ele>49.649999999999999</ele>
        <time>2025-05-07T10:43:45Z</time>
      </trkpt>
      <trkpt lat="37.09696501493454" lon="-8.297259025275707">
        <ele>50.130000000000003</ele>
        <time>2025-05-07T10:43:46Z</time>
      </trkpt>
      <trkpt lat="37.096918998286128" lon="-8.29730898141861">
        <ele>51.090000000000003</ele>
        <time>2025-05-07T10:43:47Z</time>
      </trkpt>
      <trkpt lat="37.096873987466097" lon="-8.297358015552163">
        <ele>51.57</ele>
        <time>2025-05-07T10:43:48Z</time>
      </trkpt>
      <trkpt lat="37.096716994419694" lon="-8.297529006376863">
        <ele>53.490000000000002</ele>
        <time>2025-05-07T10:43:52Z</time>
      </trkpt>
      <trkpt lat="37.096684975549579" lon="-8.297563036903739">
        <ele>53.969999999999999</ele>
        <time>2025-05-07T10:43:53Z</time>
      </trkpt>
      <trkpt lat="37.096656979992986" lon="-8.297592960298061">
        <ele>54.450000000000003</ele>
        <time>2025-05-07T10:43:54Z</time>
      </trkpt>
      <trkpt lat="37.096554972231388" lon="-8.297704020515084">
        <ele>55.890000000000001</ele>
        <time>2025-05-07T10:44:03Z</time>
      </trkpt>
      <trkpt lat="37.096573999151587" lon="-8.297751965001226">
        <ele>52.049999999999997</ele>
        <time>2025-05-07T10:49:12Z</time>
      </trkpt>
      <trkpt lat="37.096554972231388" lon="-8.29775900579989">
        <ele>62.619999999999997</ele>
        <time>2025-05-07T10:49:55Z</time>
      </trkpt>
      <trkpt lat="37.096568970009685" lon="-8.297737967222929">
        <ele>61.659999999999997</ele>
        <time>2025-05-07T10:50:39Z</time>
      </trkpt>
      <trkpt lat="37.096566036343575" lon="-8.297747019678354">
        <ele>61.18</ele>
        <time>2025-05-07T10:51:29Z</time>
      </trkpt>
      <trkpt lat="37.096562013030052" lon="-8.297744002193213">
        <ele>60.700000000000003</ele>
        <time>2025-05-07T10:52:15Z</time>
      </trkpt>
      <trkpt lat="37.096562013030052" lon="-8.297746013849974">
        <ele>60.700000000000003</ele>
        <time>2025-05-07T10:53:00Z</time>
      </trkpt>
      <trkpt lat="37.09655899554491" lon="-8.297742996364832">
        <ele>60.219999999999999</ele>
        <time>2025-05-07T10:53:40Z</time>
      </trkpt>
      <trkpt lat="37.09645296446979" lon="-8.297907030209899">
        <ele>59.259999999999998</ele>
        <time>2025-05-07T10:53:53Z</time>
      </trkpt>
      <trkpt lat="37.096434021368623" lon="-8.297968972474337">
        <ele>58.299999999999997</ele>
        <time>2025-05-07T10:54:02Z</time>
      </trkpt>
      <trkpt lat="37.096400996670127" lon="-8.298081960529089">
        <ele>58.299999999999997</ele>
        <time>2025-05-07T10:54:23Z</time>
      </trkpt>
      <trkpt lat="37.096379036083817" lon="-8.298165025189519">
        <ele>57.82</ele>
        <time>2025-05-07T10:54:24Z</time>
      </trkpt>
      <trkpt lat="37.096353974193335" lon="-8.298259992152453">
        <ele>57.340000000000003</ele>
        <time>2025-05-07T10:54:25Z</time>
      </trkpt>
      <trkpt lat="37.096327990293503" lon="-8.298359988257289">
        <ele>56.859999999999999</ele>
        <time>2025-05-07T10:54:26Z</time>
      </trkpt>
      <trkpt lat="37.09630100056529" lon="-8.298463001847267">
        <ele>56.369999999999997</ele>
        <time>2025-05-07T10:54:27Z</time>
      </trkpt>
      <trkpt lat="37.096260013058782" lon="-8.298689983785152">
        <ele>55.409999999999997</ele>
        <time>2025-05-07T10:54:29Z</time>
      </trkpt>
      <trkpt lat="37.096231011673808" lon="-8.298999024555087">
        <ele>54.450000000000003</ele>
        <time>2025-05-07T10:54:32Z</time>
      </trkpt>
      <trkpt lat="37.096217013895512" lon="-8.299141013994813">
        <ele>53.969999999999999</ele>
        <time>2025-05-07T10:54:33Z</time>
      </trkpt>
      <trkpt lat="37.09606303833425" lon="-8.299461035057902">
        <ele>53.490000000000002</ele>
        <time>2025-05-07T10:54:38Z</time>
      </trkpt>
      <trkpt lat="37.096014004200697" lon="-8.299525994807482">
        <ele>53.490000000000002</ele>
        <time>2025-05-07T10:54:39Z</time>
      </trkpt>
      <trkpt lat="37.095960024744272" lon="-8.299597995355725">
        <ele>53.490000000000002</ele>
        <time>2025-05-07T10:54:40Z</time>
      </trkpt>
      <trkpt lat="37.095900010317564" lon="-8.299677958711982">
        <ele>53.009999999999998</ele>
        <time>2025-05-07T10:54:41Z</time>
      </trkpt>
      <trkpt lat="37.095834966748953" lon="-8.299765968695283">
        <ele>52.530000000000001</ele>
        <time>2025-05-07T10:54:42Z</time>
      </trkpt>
      <trkpt lat="37.095764977857471" lon="-8.299858001992106">
        <ele>51.57</ele>
        <time>2025-05-07T10:54:43Z</time>
      </trkpt>
      <trkpt lat="37.095705969259143" lon="-8.299963027238846">
        <ele>51.090000000000003</ele>
        <time>2025-05-07T10:54:44Z</time>
      </trkpt>
      <trkpt lat="37.095465995371342" lon="-8.300513969734311">
        <ele>47.240000000000002</ele>
        <time>2025-05-07T10:54:49Z</time>
      </trkpt>
      <trkpt lat="37.095389971509576" lon="-8.300610026344657">
        <ele>46.280000000000001</ele>
        <time>2025-05-07T10:54:50Z</time>
      </trkpt>
      <trkpt lat="37.095310008153319" lon="-8.300669034942985">
        <ele>45.32</ele>
        <time>2025-05-07T10:54:51Z</time>
      </trkpt>
      <trkpt lat="37.095028040930629" lon="-8.300862992182374">
        <ele>42.439999999999998</ele>
        <time>2025-05-07T10:54:54Z</time>
      </trkpt>
      <trkpt lat="37.094931984320283" lon="-8.300909008830786">
        <ele>41.950000000000003</ele>
        <time>2025-05-07T10:54:55Z</time>
      </trkpt>
      <trkpt lat="37.094389004632831" lon="-8.301116963848472">
        <ele>39.07</ele>
        <time>2025-05-07T10:55:00Z</time>
      </trkpt>
      <trkpt lat="37.093564979732037" lon="-8.301386022940278">
        <ele>35.710000000000001</ele>
        <time>2025-05-07T10:55:08Z</time>
      </trkpt>
      <trkpt lat="37.093246970325708" lon="-8.30147897824645">
        <ele>32.82</ele>
        <time>2025-05-07T10:55:15Z</time>
      </trkpt>
      <trkpt lat="37.093222998082638" lon="-8.301486019045115">
        <ele>32.340000000000003</ele>
        <time>2025-05-07T10:55:19Z</time>
      </trkpt>
      <trkpt lat="37.093170024454594" lon="-8.301501022651792">
        <ele>31.859999999999999</ele>
        <time>2025-05-07T10:55:20Z</time>
      </trkpt>
      <trkpt lat="37.093138005584478" lon="-8.301446959376335">
        <ele>31.859999999999999</ele>
        <time>2025-05-07T10:55:21Z</time>
      </trkpt>
      <trkpt lat="37.093090983107686" lon="-8.301366996020079">
        <ele>31.859999999999999</ele>
        <time>2025-05-07T10:55:22Z</time>
      </trkpt>
      <trkpt lat="37.09303398616612" lon="-8.301269011572003">
        <ele>31.859999999999999</ele>
        <time>2025-05-07T10:55:23Z</time>
      </trkpt>
      <trkpt lat="37.092348011210561" lon="-8.300094036385417">
        <ele>31.379999999999999</ele>
        <time>2025-05-07T10:55:32Z</time>
      </trkpt>
      <trkpt lat="37.091747028753161" lon="-8.298675986006856">
        <ele>32.82</ele>
        <time>2025-05-07T10:55:41Z</time>
      </trkpt>
      <trkpt lat="37.09105996415019" lon="-8.297092979773879">
        <ele>34.740000000000002</ele>
        <time>2025-05-07T10:55:52Z</time>
      </trkpt>
      <trkpt lat="37.090287990868092" lon="-8.295523971319199">
        <ele>32.340000000000003</ele>
        <time>2025-05-07T10:56:04Z</time>
      </trkpt>
      <trkpt lat="37.089228015393019" lon="-8.294036015868187">
        <ele>28.02</ele>
        <time>2025-05-07T10:56:17Z</time>
      </trkpt>
      <trkpt lat="37.089136987924576" lon="-8.293939037248492">
        <ele>28.02</ele>
        <time>2025-05-07T10:56:18Z</time>
      </trkpt>
      <trkpt lat="37.089043026790023" lon="-8.293839963153005">
        <ele>28.02</ele>
        <time>2025-05-07T10:56:19Z</time>
      </trkpt>
      <trkpt lat="37.088943030685186" lon="-8.293734015896916">
        <ele>28.02</ele>
        <time>2025-05-07T10:56:20Z</time>
      </trkpt>
      <trkpt lat="37.088849991559982" lon="-8.293664027005434">
        <ele>28.5</ele>
        <time>2025-05-07T10:56:21Z</time>
      </trkpt>
      <trkpt lat="37.088754018768668" lon="-8.293594038113952">
        <ele>28.5</ele>
        <time>2025-05-07T10:56:22Z</time>
      </trkpt>
      <trkpt lat="37.088196035474539" lon="-8.293201010674238">
        <ele>30.420000000000002</ele>
        <time>2025-05-07T10:56:28Z</time>
      </trkpt>
      <trkpt lat="37.088099978864193" lon="-8.293105959892273">
        <ele>30.899999999999999</ele>
        <time>2025-05-07T10:56:29Z</time>
      </trkpt>
      <trkpt lat="37.088023032993078" lon="-8.292985009029508">
        <ele>30.899999999999999</ele>
        <time>2025-05-07T10:56:30Z</time>
      </trkpt>
      <trkpt lat="37.087958995252848" lon="-8.292851988226175">
        <ele>31.379999999999999</ele>
        <time>2025-05-07T10:56:31Z</time>
      </trkpt>
      <trkpt lat="37.087898980826139" lon="-8.292726008221507">
        <ele>31.379999999999999</ele>
        <time>2025-05-07T10:56:32Z</time>
      </trkpt>
      <trkpt lat="37.087131030857563" lon="-8.290989026427269">
        <ele>34.259999999999998</ele>
        <time>2025-05-07T10:56:45Z</time>
      </trkpt>
      <trkpt lat="37.086590984836221" lon="-8.28961699269712">
        <ele>38.590000000000003</ele>
        <time>2025-05-07T10:56:55Z</time>
      </trkpt>
      <trkpt lat="37.086557038128376" lon="-8.289469974115491">
        <ele>38.590000000000003</ele>
        <time>2025-05-07T10:56:56Z</time>
      </trkpt>
      <trkpt lat="37.086099972948432" lon="-8.287228988483548">
        <ele>37.630000000000003</ele>
        <time>2025-05-07T10:57:11Z</time>
      </trkpt>
      <trkpt lat="37.085825968533754" lon="-8.28555696643889">
        <ele>36.189999999999998</ele>
        <time>2025-05-07T10:57:23Z</time>
      </trkpt>
      <trkpt lat="37.085703006014228" lon="-8.284452985972166">
        <ele>30.899999999999999</ele>
        <time>2025-05-07T10:57:32Z</time>
      </trkpt>
      <trkpt lat="37.085550958290696" lon="-8.282958995550871">
        <ele>22.73</ele>
        <time>2025-05-07T10:57:42Z</time>
      </trkpt>
      <trkpt lat="37.085380973294377" lon="-8.281310023739934">
        <ele>15.52</ele>
        <time>2025-05-07T10:57:53Z</time>
      </trkpt>
      <trkpt lat="37.085360018536448" lon="-8.279356034472585">
        <ele>12.15</ele>
        <time>2025-05-07T10:58:06Z</time>
      </trkpt>
      <trkpt lat="37.085459008812904" lon="-8.277599019929767">
        <ele>11.19</ele>
        <time>2025-05-07T10:58:18Z</time>
      </trkpt>
      <trkpt lat="37.085455991327763" lon="-8.277473961934447">
        <ele>10.710000000000001</ele>
        <time>2025-05-07T10:58:19Z</time>
      </trkpt>
      <trkpt lat="37.085426989942789" lon="-8.277372037991881">
        <ele>10.710000000000001</ele>
        <time>2025-05-07T10:58:20Z</time>
      </trkpt>
      <trkpt lat="37.085333028808236" lon="-8.277288973331451">
        <ele>10.710000000000001</ele>
        <time>2025-05-07T10:58:21Z</time>
      </trkpt>
      <trkpt lat="37.085273014381528" lon="-8.277195012196899">
        <ele>10.710000000000001</ele>
        <time>2025-05-07T10:58:22Z</time>
      </trkpt>
      <trkpt lat="37.085188021883368" lon="-8.277060985565186">
        <ele>10.710000000000001</ele>
        <time>2025-05-07T10:58:23Z</time>
      </trkpt>
      <trkpt lat="37.085177963599563" lon="-8.276966018602252">
        <ele>10.710000000000001</ele>
        <time>2025-05-07T10:58:24Z</time>
      </trkpt>
      <trkpt lat="37.085163965821266" lon="-8.2768340036273">
        <ele>10.710000000000001</ele>
        <time>2025-05-07T10:58:25Z</time>
      </trkpt>
      <trkpt lat="37.085145022720098" lon="-8.276169989258051">
        <ele>10.710000000000001</ele>
        <time>2025-05-07T10:58:31Z</time>
      </trkpt>
      <trkpt lat="37.085145022720098" lon="-8.276131013408303">
        <ele>10.23</ele>
        <time>2025-05-07T10:58:32Z</time>
      </trkpt>
      <trkpt lat="37.085145022720098" lon="-8.276107963174582">
        <ele>10.23</ele>
        <time>2025-05-07T10:58:33Z</time>
      </trkpt>
      <trkpt lat="37.085145022720098" lon="-8.276086002588272">
        <ele>10.23</ele>
        <time>2025-05-07T10:58:34Z</time>
      </trkpt>
      <trkpt lat="37.085145022720098" lon="-8.276052977889776">
        <ele>9.75</ele>
        <time>2025-05-07T10:58:35Z</time>
      </trkpt>
      <trkpt lat="37.085144016891718" lon="-8.275992041453719">
        <ele>9.27</ele>
        <time>2025-05-07T10:58:36Z</time>
      </trkpt>
      <trkpt lat="37.085142005234957" lon="-8.275923980399966">
        <ele>9.27</ele>
        <time>2025-05-07T10:58:37Z</time>
      </trkpt>
      <trkpt lat="37.085138987749815" lon="-8.275850974023342">
        <ele>8.789999999999999</ele>
        <time>2025-05-07T10:58:38Z</time>
      </trkpt>
      <trkpt lat="37.085134964436293" lon="-8.275761036202312">
        <ele>8.789999999999999</ele>
        <time>2025-05-07T10:58:39Z</time>
      </trkpt>
      <trkpt lat="37.085131024941802" lon="-8.275658022612333">
        <ele>7.83</ele>
        <time>2025-05-07T10:58:40Z</time>
      </trkpt>
      <trkpt lat="37.08512700162828" lon="-8.27554302290082">
        <ele>7.83</ele>
        <time>2025-05-07T10:58:41Z</time>
      </trkpt>
      <trkpt lat="37.085121972486377" lon="-8.275423999875784">
        <ele>7.83</ele>
        <time>2025-05-07T10:58:42Z</time>
      </trkpt>
      <trkpt lat="37.085060030221939" lon="-8.273815009742975">
        <ele>7.83</ele>
        <time>2025-05-07T10:58:54Z</time>
      </trkpt>
      <trkpt lat="37.085165977478027" lon="-8.272254969924688">
        <ele>7.35</ele>
        <time>2025-05-07T10:59:05Z</time>
      </trkpt>
      <trkpt lat="37.085208976641297" lon="-8.270642962306738">
        <ele>8.789999999999999</ele>
        <time>2025-05-07T10:59:17Z</time>
      </trkpt>
      <trkpt lat="37.085246024653316" lon="-8.269859002903104">
        <ele>7.83</ele>
        <time>2025-05-07T10:59:26Z</time>
      </trkpt>
      <trkpt lat="37.085274020209908" lon="-8.269753977656364">
        <ele>7.83</ele>
        <time>2025-05-07T10:59:29Z</time>
      </trkpt>
      <trkpt lat="37.085251975804567" lon="-8.26955096796155">
        <ele>7.83</ele>
        <time>2025-05-07T10:59:31Z</time>
      </trkpt>
      <trkpt lat="37.085268991068006" lon="-8.269275035709143">
        <ele>8.310000000000001</ele>
        <time>2025-05-07T10:59:34Z</time>
      </trkpt>
      <trkpt lat="37.085274020209908" lon="-8.26920798048377">
        <ele>8.789999999999999</ele>
        <time>2025-05-07T10:59:35Z</time>
      </trkpt>
      <trkpt lat="37.085309978574514" lon="-8.269159030169249">
        <ele>8.789999999999999</ele>
        <time>2025-05-07T10:59:36Z</time>
      </trkpt>
      <trkpt lat="37.085337974131107" lon="-8.26912198215723">
        <ele>9.27</ele>
        <time>2025-05-07T10:59:37Z</time>
      </trkpt>
      <trkpt lat="37.085389019921422" lon="-8.269102033227682">
        <ele>9.27</ele>
        <time>2025-05-07T10:59:38Z</time>
      </trkpt>
      <trkpt lat="37.085439981892705" lon="-8.269080994650722">
        <ele>9.27</ele>
        <time>2025-05-07T10:59:39Z</time>
      </trkpt>
      <trkpt lat="37.085445011034608" lon="-8.268982004374266">
        <ele>9.27</ele>
        <time>2025-05-07T10:59:40Z</time>
      </trkpt>
      <trkpt lat="37.085445011034608" lon="-8.268918972462416">
        <ele>9.75</ele>
        <time>2025-05-07T10:59:41Z</time>
      </trkpt>
      <trkpt lat="37.085445011034608" lon="-8.26884102076292">
        <ele>9.75</ele>
        <time>2025-05-07T10:59:42Z</time>
      </trkpt>
      <trkpt lat="37.085445011034608" lon="-8.268757034093142">
        <ele>10.23</ele>
        <time>2025-05-07T10:59:43Z</time>
      </trkpt>
      <trkpt lat="37.085445011034608" lon="-8.26866902410984">
        <ele>10.23</ele>
        <time>2025-05-07T10:59:44Z</time>
      </trkpt>
      <trkpt lat="37.085445011034608" lon="-8.268580008298159">
        <ele>10.710000000000001</ele>
        <time>2025-05-07T10:59:45Z</time>
      </trkpt>
      <trkpt lat="37.085445011034608" lon="-8.268215982243419">
        <ele>10.23</ele>
        <time>2025-05-07T10:59:49Z</time>
      </trkpt>
      <trkpt lat="37.085445011034608" lon="-8.268140964210033">
        <ele>10.23</ele>
        <time>2025-05-07T10:59:50Z</time>
      </trkpt>
      <trkpt lat="37.085445011034608" lon="-8.268073992803693">
        <ele>10.23</ele>
        <time>2025-05-07T10:59:51Z</time>
      </trkpt>
      <trkpt lat="37.085445011034608" lon="-8.268019007518888">
        <ele>10.23</ele>
        <time>2025-05-07T10:59:52Z</time>
      </trkpt>
      <trkpt lat="37.085445011034608" lon="-8.267983971163631">
        <ele>9.75</ele>
        <time>2025-05-07T10:59:53Z</time>
      </trkpt>
      <trkpt lat="37.085445011034608" lon="-8.267983971163631">
        <ele>10.23</ele>
        <time>2025-05-07T11:00:03Z</time>
      </trkpt>
      <trkpt lat="37.085445011034608" lon="-8.267983971163631">
        <ele>10.23</ele>
        <time>2025-05-07T11:00:48Z</time>
      </trkpt>
      <trkpt lat="37.085445011034608" lon="-8.267957987263799">
        <ele>10.710000000000001</ele>
        <time>2025-05-07T11:01:23Z</time>
      </trkpt>
      <trkpt lat="37.085445011034608" lon="-8.267927980050445">
        <ele>11.67</ele>
        <time>2025-05-07T11:01:24Z</time>
      </trkpt>
      <trkpt lat="37.085445011034608" lon="-8.267869977280498">
        <ele>12.630000000000001</ele>
        <time>2025-05-07T11:01:25Z</time>
      </trkpt>
      <trkpt lat="37.085445011034608" lon="-8.267791019752622">
        <ele>13.119999999999999</ele>
        <time>2025-05-07T11:01:26Z</time>
      </trkpt>
      <trkpt lat="37.085440987721086" lon="-8.267697980627418">
        <ele>13.119999999999999</ele>
        <time>2025-05-07T11:01:27Z</time>
      </trkpt>
      <trkpt lat="37.085436964407563" lon="-8.267605025321245">
        <ele>12.630000000000001</ele>
        <time>2025-05-07T11:01:28Z</time>
      </trkpt>
      <trkpt lat="37.085423972457647" lon="-8.267074031755328">
        <ele>12.15</ele>
        <time>2025-05-07T11:01:33Z</time>
      </trkpt>
      <trkpt lat="37.085380973294377" lon="-8.265795959159732">
        <ele>11.67</ele>
        <time>2025-05-07T11:01:45Z</time>
      </trkpt>
      <trkpt lat="37.085366975516081" lon="-8.265120964497328">
        <ele>11.67</ele>
        <time>2025-05-07T11:01:55Z</time>
      </trkpt>
      <trkpt lat="37.085360018536448" lon="-8.265045024454594">
        <ele>11.67</ele>
        <time>2025-05-07T11:01:56Z</time>
      </trkpt>
      <trkpt lat="37.085293969139457" lon="-8.264978975057602">
        <ele>12.15</ele>
        <time>2025-05-07T11:01:58Z</time>
      </trkpt>
      <trkpt lat="37.085251975804567" lon="-8.264928013086319">
        <ele>12.15</ele>
        <time>2025-05-07T11:01:59Z</time>
      </trkpt>
      <trkpt lat="37.085251975804567" lon="-8.264859030023217">
        <ele>12.15</ele>
        <time>2025-05-07T11:02:00Z</time>
      </trkpt>
      <trkpt lat="37.085251975804567" lon="-8.26471502892673">
        <ele>11.67</ele>
        <time>2025-05-07T11:02:02Z</time>
      </trkpt>
      <trkpt lat="37.085251975804567" lon="-8.264644034206867">
        <ele>11.67</ele>
        <time>2025-05-07T11:02:03Z</time>
      </trkpt>
      <trkpt lat="37.085251975804567" lon="-8.264574967324734">
        <ele>11.67</ele>
        <time>2025-05-07T11:02:04Z</time>
      </trkpt>
      <trkpt lat="37.085248958319426" lon="-8.264507995918393">
        <ele>11.19</ele>
        <time>2025-05-07T11:02:05Z</time>
      </trkpt>
      <trkpt lat="37.085246024653316" lon="-8.264438007026911">
        <ele>11.19</ele>
        <time>2025-05-07T11:02:06Z</time>
      </trkpt>
      <trkpt lat="37.085242001339793" lon="-8.264358965680003">
        <ele>11.19</ele>
        <time>2025-05-07T11:02:07Z</time>
      </trkpt>
      <trkpt lat="37.085202019661665" lon="-8.263940960168839">
        <ele>10.710000000000001</ele>
        <time>2025-05-07T11:02:12Z</time>
      </trkpt>
      <trkpt lat="37.085188021883368" lon="-8.263842975720763">
        <ele>10.710000000000001</ele>
        <time>2025-05-07T11:02:13Z</time>
      </trkpt>
      <trkpt lat="37.085157008841634" lon="-8.263786984607577">
        <ele>10.710000000000001</ele>
        <time>2025-05-07T11:02:14Z</time>
      </trkpt>
      <trkpt lat="37.08504100330174" lon="-8.263585986569524">
        <ele>10.710000000000001</ele>
        <time>2025-05-07T11:02:17Z</time>
      </trkpt>
      <trkpt lat="37.084875041618943" lon="-8.26331902295351">
        <ele>12.15</ele>
        <time>2025-05-07T11:02:21Z</time>
      </trkpt>
      <trkpt lat="37.084625009447336" lon="-8.26293496415019">
        <ele>13.119999999999999</ele>
        <time>2025-05-07T11:02:26Z</time>
      </trkpt>
      <trkpt lat="37.084430968388915" lon="-8.262643022462726">
        <ele>14.08</ele>
        <time>2025-05-07T11:02:30Z</time>
      </trkpt>
      <trkpt lat="37.084386963397264" lon="-8.262576973065734">
        <ele>14.08</ele>
        <time>2025-05-07T11:02:31Z</time>
      </trkpt>
      <trkpt lat="37.084269030019641" lon="-8.262400031089783">
        <ele>15.039999999999999</ele>
        <time>2025-05-07T11:02:35Z</time>
      </trkpt>
      <trkpt lat="37.084243968129158" lon="-8.262362983077765">
        <ele>15.039999999999999</ele>
        <time>2025-05-07T11:02:36Z</time>
      </trkpt>
      <trkpt lat="37.084121005609632" lon="-8.26224597170949">
        <ele>15.039999999999999</ele>
        <time>2025-05-07T11:02:38Z</time>
      </trkpt>
      <trkpt lat="37.084056967869401" lon="-8.262229962274432">
        <ele>15.039999999999999</ele>
        <time>2025-05-07T11:02:39Z</time>
      </trkpt>
      <trkpt lat="37.083983961492777" lon="-8.262212025001645">
        <ele>15.52</ele>
        <time>2025-05-07T11:02:40Z</time>
      </trkpt>
      <trkpt lat="37.083910033106804" lon="-8.262201966717839">
        <ele>15.52</ele>
        <time>2025-05-07T11:02:41Z</time>
      </trkpt>
      <trkpt lat="37.083833003416657" lon="-8.262190986424685">
        <ele>16</ele>
        <time>2025-05-07T11:02:42Z</time>
      </trkpt>
      <trkpt lat="37.083446010947227" lon="-8.262134995311499">
        <ele>18.399999999999999</ele>
        <time>2025-05-07T11:02:47Z</time>
      </trkpt>
      <trkpt lat="37.083374010398984" lon="-8.26211798004806">
        <ele>18.879999999999999</ele>
        <time>2025-05-07T11:02:48Z</time>
      </trkpt>
      <trkpt lat="37.083315001800656" lon="-8.262072969228029">
        <ele>19.84</ele>
        <time>2025-05-07T11:02:49Z</time>
      </trkpt>
      <trkpt lat="37.083273008465767" lon="-8.26200800947845">
        <ele>20.809999999999999</ele>
        <time>2025-05-07T11:02:50Z</time>
      </trkpt>
      <trkpt lat="37.0832350384444" lon="-8.261932991445065">
        <ele>21.77</ele>
        <time>2025-05-07T11:02:51Z</time>
      </trkpt>
      <trkpt lat="37.083197990432382" lon="-8.261857973411679">
        <ele>22.73</ele>
        <time>2025-05-07T11:02:52Z</time>
      </trkpt>
      <trkpt lat="37.08314904011786" lon="-8.261762000620365">
        <ele>23.690000000000001</ele>
        <time>2025-05-07T11:02:53Z</time>
      </trkpt>
      <trkpt lat="37.083141999319196" lon="-8.261703997850418">
        <ele>24.649999999999999</ele>
        <time>2025-05-07T11:02:54Z</time>
      </trkpt>
      <trkpt lat="37.083131019026041" lon="-8.261623028665781">
        <ele>25.129999999999999</ele>
        <time>2025-05-07T11:02:55Z</time>
      </trkpt>
      <trkpt lat="37.08310998044908" lon="-8.261466035619378">
        <ele>26.09</ele>
        <time>2025-05-07T11:02:57Z</time>
      </trkpt>
      <trkpt lat="37.083119032904506" lon="-8.261389005929232">
        <ele>26.57</ele>
        <time>2025-05-07T11:02:58Z</time>
      </trkpt>
      <trkpt lat="37.083140993490815" lon="-8.261304013431072">
        <ele>26.57</ele>
        <time>2025-05-07T11:02:59Z</time>
      </trkpt>
      <trkpt lat="37.083183992654085" lon="-8.261131010949612">
        <ele>27.050000000000001</ele>
        <time>2025-05-07T11:03:01Z</time>
      </trkpt>
      <trkpt lat="37.083244007080793" lon="-8.260891037061811">
        <ele>27.050000000000001</ele>
        <time>2025-05-07T11:03:04Z</time>
      </trkpt>
      <trkpt lat="37.083264039829373" lon="-8.260813001543284">
        <ele>27.050000000000001</ele>
        <time>2025-05-07T11:03:05Z</time>
      </trkpt>
      <trkpt lat="37.083374010398984" lon="-8.260415028780699">
        <ele>28.02</ele>
        <time>2025-05-07T11:03:10Z</time>
      </trkpt>
      <trkpt lat="37.083394965156913" lon="-8.260337999090552">
        <ele>28.5</ele>
        <time>2025-05-07T11:03:11Z</time>
      </trkpt>
      <trkpt lat="37.083417009562254" lon="-8.260259963572025">
        <ele>28.5</ele>
        <time>2025-05-07T11:03:12Z</time>
      </trkpt>
      <trkpt lat="37.083619013428688" lon="-8.259234018623829">
        <ele>32.340000000000003</ele>
        <time>2025-05-07T11:03:24Z</time>
      </trkpt>
      <trkpt lat="37.083651032298803" lon="-8.259002007544041">
        <ele>34.259999999999998</ele>
        <time>2025-05-07T11:03:27Z</time>
      </trkpt>
      <trkpt lat="37.083686990663409" lon="-8.258939981460571">
        <ele>34.740000000000002</ele>
        <time>2025-05-07T11:03:28Z</time>
      </trkpt>
      <trkpt lat="37.083722027018666" lon="-8.258878961205483">
        <ele>35.229999999999997</ele>
        <time>2025-05-07T11:03:29Z</time>
      </trkpt>
      <trkpt lat="37.083758991211653" lon="-8.258816013112664">
        <ele>35.710000000000001</ele>
        <time>2025-05-07T11:03:30Z</time>
      </trkpt>
      <trkpt lat="37.08379402756691" lon="-8.258755998685956">
        <ele>36.189999999999998</ele>
        <time>2025-05-07T11:03:31Z</time>
      </trkpt>
      <trkpt lat="37.083825040608644" lon="-8.258702019229531">
        <ele>36.670000000000002</ele>
        <time>2025-05-07T11:03:32Z</time>
      </trkpt>
      <trkpt lat="37.083853036165237" lon="-8.258653990924358">
        <ele>37.149999999999999</ele>
        <time>2025-05-07T11:03:33Z</time>
      </trkpt>
      <trkpt lat="37.083882037550211" lon="-8.258604034781456">
        <ele>38.109999999999999</ele>
        <time>2025-05-07T11:03:34Z</time>
      </trkpt>
      <trkpt lat="37.083906009793282" lon="-8.258575033396483">
        <ele>38.590000000000003</ele>
        <time>2025-05-07T11:03:35Z</time>
      </trkpt>
      <trkpt lat="37.083922019228339" lon="-8.258556006476283">
        <ele>39.07</ele>
        <time>2025-05-07T11:03:36Z</time>
      </trkpt>
      <trkpt lat="37.083922019228339" lon="-8.258556006476283">
        <ele>39.549999999999997</ele>
        <time>2025-05-07T11:03:49Z</time>
      </trkpt>
      <trkpt lat="37.083922019228339" lon="-8.258556006476283">
        <ele>40.509999999999998</ele>
        <time>2025-05-07T11:04:32Z</time>
      </trkpt>
      <trkpt lat="37.083934005349874" lon="-8.258535973727703">
        <ele>43.399999999999999</ele>
        <time>2025-05-07T11:05:26Z</time>
      </trkpt>
      <trkpt lat="37.08392595872283" lon="-8.258561035618186">
        <ele>35.229999999999997</ele>
        <time>2025-05-07T11:05:50Z</time>
      </trkpt>
      <trkpt lat="37.083916990086436" lon="-8.258573021739721">
        <ele>29.940000000000001</ele>
        <time>2025-05-07T11:05:57Z</time>
      </trkpt>
      <trkpt lat="37.083909027278423" lon="-8.258523987606168">
        <ele>27.530000000000001</ele>
        <time>2025-05-07T11:05:59Z</time>
      </trkpt>
      <trkpt lat="37.08392595872283" lon="-8.258477970957756">
        <ele>26.09</ele>
        <time>2025-05-07T11:06:00Z</time>
      </trkpt>
      <trkpt lat="37.08394699729979" lon="-8.25842097401619">
        <ele>25.129999999999999</ele>
        <time>2025-05-07T11:06:01Z</time>
      </trkpt>
      <trkpt lat="37.083975998684764" lon="-8.258354002609849">
        <ele>23.690000000000001</ele>
        <time>2025-05-07T11:06:02Z</time>
      </trkpt>
      <trkpt lat="37.084051016718149" lon="-8.258242020383477">
        <ele>20.809999999999999</ele>
        <time>2025-05-07T11:06:04Z</time>
      </trkpt>
      <trkpt lat="37.084094015881419" lon="-8.258177982643247">
        <ele>19.359999999999999</ele>
        <time>2025-05-07T11:06:05Z</time>
      </trkpt>
      <trkpt lat="37.084141038358212" lon="-8.258145041763783">
        <ele>18.399999999999999</ele>
        <time>2025-05-07T11:06:06Z</time>
      </trkpt>
      <trkpt lat="37.084270035848022" lon="-8.258067006245256">
        <ele>15.039999999999999</ele>
        <time>2025-05-07T11:06:09Z</time>
      </trkpt>
      <trkpt lat="37.084309011697769" lon="-8.258059965446591">
        <ele>14.08</ele>
        <time>2025-05-07T11:06:10Z</time>
      </trkpt>
      <trkpt lat="37.084343964233994" lon="-8.25805401429534">
        <ele>13.119999999999999</ele>
        <time>2025-05-07T11:06:11Z</time>
      </trkpt>
      <trkpt lat="37.084451001137495" lon="-8.258036999031901">
        <ele>10.23</ele>
        <time>2025-05-07T11:06:19Z</time>
      </trkpt>
      <trkpt lat="37.084451001137495" lon="-8.258036999031901">
        <ele>9.27</ele>
        <time>2025-05-07T11:06:22Z</time>
      </trkpt>
      <trkpt lat="37.084501041099429" lon="-8.258028030395508">
        <ele>8.789999999999999</ele>
        <time>2025-05-07T11:06:23Z</time>
      </trkpt>
      <trkpt lat="37.084500035271049" lon="-8.258006991818547">
        <ele>8.789999999999999</ele>
        <time>2025-05-07T11:06:24Z</time>
      </trkpt>
      <trkpt lat="37.084497017785907" lon="-8.257957035675645">
        <ele>8.310000000000001</ele>
        <time>2025-05-07T11:06:25Z</time>
      </trkpt>
      <trkpt lat="37.084494000300765" lon="-8.257894003763795">
        <ele>7.83</ele>
        <time>2025-05-07T11:06:26Z</time>
      </trkpt>
      <trkpt lat="37.084488971158862" lon="-8.257822003215551">
        <ele>6.87</ele>
        <time>2025-05-07T11:06:27Z</time>
      </trkpt>
      <trkpt lat="37.084485031664371" lon="-8.257742961868644">
        <ele>6.39</ele>
        <time>2025-05-07T11:06:28Z</time>
      </trkpt>
      <trkpt lat="37.084480002522469" lon="-8.257656963542104">
        <ele>5.91</ele>
        <time>2025-05-07T11:06:29Z</time>
      </trkpt>
      <trkpt lat="37.084474973380566" lon="-8.257569037377834">
        <ele>5.42</ele>
        <time>2025-05-07T11:06:30Z</time>
      </trkpt>
      <trkpt lat="37.084470028057694" lon="-8.257482033222914">
        <ele>4.94</ele>
        <time>2025-05-07T11:06:31Z</time>
      </trkpt>
      <trkpt lat="37.084464998915792" lon="-8.257394023239613">
        <ele>3.98</ele>
        <time>2025-05-07T11:06:32Z</time>
      </trkpt>
      <trkpt lat="37.084457958117127" lon="-8.257277011871338">
        <ele>3.5</ele>
        <time>2025-05-07T11:06:33Z</time>
      </trkpt>
      <trkpt lat="37.084457958117127" lon="-8.257143991068006">
        <ele>2.54</ele>
        <time>2025-05-07T11:06:35Z</time>
      </trkpt>
      <trkpt lat="37.084457958117127" lon="-8.257085988298059">
        <ele>2.06</ele>
        <time>2025-05-07T11:06:36Z</time>
      </trkpt>
      <trkpt lat="37.084457958117127" lon="-8.257039971649647">
        <ele>1.58</ele>
        <time>2025-05-07T11:06:37Z</time>
      </trkpt>
      <trkpt lat="37.084457958117127" lon="-8.256934024393559">
        <ele>1.1</ele>
        <time>2025-05-07T11:06:38Z</time>
      </trkpt>
      <trkpt lat="37.084516966715455" lon="-8.256930001080036">
        <ele>1.1</ele>
        <time>2025-05-07T11:06:39Z</time>
      </trkpt>
      <trkpt lat="37.084562983363867" lon="-8.256926983594894">
        <ele>1.1</ele>
        <time>2025-05-07T11:06:40Z</time>
      </trkpt>
      <trkpt lat="37.08461201749742" lon="-8.256922960281372">
        <ele>0.62</ele>
        <time>2025-05-07T11:06:41Z</time>
      </trkpt>
      <trkpt lat="37.084772028028965" lon="-8.256911979988217">
        <ele>0.14</ele>
        <time>2025-05-07T11:06:44Z</time>
      </trkpt>
      <trkpt lat="37.085216017439961" lon="-8.256879961118102">
        <ele>3.5</ele>
        <time>2025-05-07T11:06:52Z</time>
      </trkpt>
      <trkpt lat="37.085315007716417" lon="-8.256871998310089">
        <ele>5.42</ele>
        <time>2025-05-07T11:06:55Z</time>
      </trkpt>
      <trkpt lat="37.085344009101391" lon="-8.256906028836966">
        <ele>6.87</ele>
        <time>2025-05-07T11:06:56Z</time>
      </trkpt>
      <trkpt lat="37.085349038243294" lon="-8.256933018565178">
        <ele>8.310000000000001</ele>
        <time>2025-05-07T11:06:57Z</time>
      </trkpt>
      <trkpt lat="37.085357001051307" lon="-8.25698004104197">
        <ele>9.27</ele>
        <time>2025-05-07T11:06:58Z</time>
      </trkpt>
      <trkpt lat="37.0853659696877" lon="-8.257037959992886">
        <ele>9.75</ele>
        <time>2025-05-07T11:06:59Z</time>
      </trkpt>
      <trkpt lat="37.085393965244293" lon="-8.257204005494714">
        <ele>12.630000000000001</ele>
        <time>2025-05-07T11:07:07Z</time>
      </trkpt>
      <trkpt lat="37.085400000214577" lon="-8.257241975516081">
        <ele>13.119999999999999</ele>
        <time>2025-05-07T11:07:10Z</time>
      </trkpt>
      <trkpt lat="37.085404023528099" lon="-8.257267037406564">
        <ele>13.6</ele>
        <time>2025-05-07T11:07:11Z</time>
      </trkpt>
      <trkpt lat="37.08547099493444" lon="-8.257306013256311">
        <ele>14.56</ele>
        <time>2025-05-07T11:07:12Z</time>
      </trkpt>
      <trkpt lat="37.085489016026258" lon="-8.257277011871338">
        <ele>15.039999999999999</ele>
        <time>2025-05-07T11:07:13Z</time>
      </trkpt>
      <trkpt lat="37.085518017411232" lon="-8.257227977737784">
        <ele>15.039999999999999</ele>
        <time>2025-05-07T11:07:14Z</time>
      </trkpt>
      <trkpt lat="37.085550036281347" lon="-8.257172992452979">
        <ele>15.039999999999999</ele>
        <time>2025-05-07T11:07:15Z</time>
      </trkpt>
      <trkpt lat="37.085589012131095" lon="-8.257119012996554">
        <ele>15.52</ele>
        <time>2025-05-07T11:07:16Z</time>
      </trkpt>
      <trkpt lat="37.085762014612556" lon="-8.256859006360173">
        <ele>15.52</ele>
        <time>2025-05-07T11:07:20Z</time>
      </trkpt>
      <trkpt lat="37.085806019604206" lon="-8.256789017468691">
        <ele>15.52</ele>
        <time>2025-05-07T11:07:21Z</time>
      </trkpt>
      <trkpt lat="37.086074994876981" lon="-8.256365982815623">
        <ele>16</ele>
        <time>2025-05-07T11:07:27Z</time>
      </trkpt>
      <trkpt lat="37.086370959877968" lon="-8.255899026989937">
        <ele>14.08</ele>
        <time>2025-05-07T11:07:35Z</time>
      </trkpt>
      <trkpt lat="37.086517978459597" lon="-8.255668021738529">
        <ele>12.630000000000001</ele>
        <time>2025-05-07T11:07:39Z</time>
      </trkpt>
      <trkpt lat="37.086640018969774" lon="-8.255556039512157">
        <ele>12.15</ele>
        <time>2025-05-07T11:07:42Z</time>
      </trkpt>
      <trkpt lat="37.087162965908647" lon="-8.255314975976944">
        <ele>13.119999999999999</ele>
        <time>2025-05-07T11:07:51Z</time>
      </trkpt>
      <trkpt lat="37.087526991963387" lon="-8.255240963771939">
        <ele>16</ele>
        <time>2025-05-07T11:07:58Z</time>
      </trkpt>
      <trkpt lat="37.087548030540347" lon="-8.25523903593421">
        <ele>16.48</ele>
        <time>2025-05-07T11:07:59Z</time>
      </trkpt>
      <trkpt lat="37.087548030540347" lon="-8.25523903593421">
        <ele>16.960000000000001</ele>
        <time>2025-05-07T11:08:00Z</time>
      </trkpt>
      <trkpt lat="37.087548030540347" lon="-8.25523903593421">
        <ele>17.920000000000002</ele>
        <time>2025-05-07T11:08:01Z</time>
      </trkpt>
      <trkpt lat="37.087591029703617" lon="-8.255259990692139">
        <ele>18.399999999999999</ele>
        <time>2025-05-07T11:08:02Z</time>
      </trkpt>
      <trkpt lat="37.087624976411462" lon="-8.255277005955577">
        <ele>18.879999999999999</ele>
        <time>2025-05-07T11:08:03Z</time>
      </trkpt>
      <trkpt lat="37.087677028030157" lon="-8.255302989855409">
        <ele>19.359999999999999</ele>
        <time>2025-05-07T11:08:04Z</time>
      </trkpt>
      <trkpt lat="37.087693037465215" lon="-8.255351018160582">
        <ele>19.84</ele>
        <time>2025-05-07T11:08:05Z</time>
      </trkpt>
      <trkpt lat="37.087716003879905" lon="-8.255422012880445">
        <ele>20.32</ele>
        <time>2025-05-07T11:08:06Z</time>
      </trkpt>
      <trkpt lat="37.087737964466214" lon="-8.255485966801643">
        <ele>20.809999999999999</ele>
        <time>2025-05-07T11:08:07Z</time>
      </trkpt>
      <trkpt lat="37.087763026356697" lon="-8.255559979006648">
        <ele>21.289999999999999</ele>
        <time>2025-05-07T11:08:08Z</time>
      </trkpt>
      <trkpt lat="37.087829997763038" lon="-8.255780003964901">
        <ele>23.690000000000001</ele>
        <time>2025-05-07T11:08:14Z</time>
      </trkpt>
      <trkpt lat="37.087848018854856" lon="-8.255837000906467">
        <ele>24.170000000000002</ele>
        <time>2025-05-07T11:08:15Z</time>
      </trkpt>
      <trkpt lat="37.088112970814109" lon="-8.256667982786894">
        <ele>29.940000000000001</ele>
        <time>2025-05-07T11:08:26Z</time>
      </trkpt>
      <trkpt lat="37.08813501521945" lon="-8.25674400664866">
        <ele>30.420000000000002</ele>
        <time>2025-05-07T11:08:27Z</time>
      </trkpt>
      <trkpt lat="37.088169967755675" lon="-8.257020022720099">
        <ele>32.340000000000003</ele>
        <time>2025-05-07T11:08:31Z</time>
      </trkpt>
      <trkpt lat="37.088234005495906" lon="-8.25706603936851">
        <ele>32.340000000000003</ele>
        <time>2025-05-07T11:08:32Z</time>
      </trkpt>
      <trkpt lat="37.088288990780711" lon="-8.257086994126439">
        <ele>32.82</ele>
        <time>2025-05-07T11:08:33Z</time>
      </trkpt>
      <trkpt lat="37.088356968015432" lon="-8.257112978026271">
        <ele>33.299999999999997</ele>
        <time>2025-05-07T11:08:34Z</time>
      </trkpt>
      <trkpt lat="37.088435003533959" lon="-8.257142985239625">
        <ele>33.780000000000001</ele>
        <time>2025-05-07T11:08:35Z</time>
      </trkpt>
      <trkpt lat="37.088525025174022" lon="-8.257158994674683">
        <ele>34.259999999999998</ele>
        <time>2025-05-07T11:08:36Z</time>
      </trkpt>
      <trkpt lat="37.088614040985703" lon="-8.257171986624599">
        <ele>34.259999999999998</ele>
        <time>2025-05-07T11:08:37Z</time>
      </trkpt>
      <trkpt lat="37.088709007948637" lon="-8.257184978574514">
        <ele>34.740000000000002</ele>
        <time>2025-05-07T11:08:38Z</time>
      </trkpt>
      <trkpt lat="37.089521968737245" lon="-8.257328979671001">
        <ele>39.07</ele>
        <time>2025-05-07T11:08:47Z</time>
      </trkpt>
      <trkpt lat="37.089549964293838" lon="-8.257334008812904">
        <ele>41.469999999999999</ele>
        <time>2025-05-07T11:08:55Z</time>
      </trkpt>
      <trkpt lat="37.089549964293838" lon="-8.257334008812904">
        <ele>42.439999999999998</ele>
        <time>2025-05-07T11:09:40Z</time>
      </trkpt>
      <trkpt lat="37.089684996753931" lon="-8.257357981055975">
        <ele>45.799999999999997</ele>
        <time>2025-05-07T11:10:01Z</time>
      </trkpt>
      <trkpt lat="37.089744005352259" lon="-8.257363010197878">
        <ele>46.280000000000001</ele>
        <time>2025-05-07T11:10:02Z</time>
      </trkpt>
      <trkpt lat="37.089836038649082" lon="-8.257205011323094">
        <ele>46.759999999999998</ele>
        <time>2025-05-07T11:10:03Z</time>
      </trkpt>
      <trkpt lat="37.089842995628715" lon="-8.257133010774851">
        <ele>47.240000000000002</ele>
        <time>2025-05-07T11:10:04Z</time>
      </trkpt>
      <trkpt lat="37.089850036427379" lon="-8.257049024105072">
        <ele>47.240000000000002</ele>
        <time>2025-05-07T11:10:05Z</time>
      </trkpt>
      <trkpt lat="37.089859005063772" lon="-8.256949028000236">
        <ele>46.759999999999998</ele>
        <time>2025-05-07T11:10:06Z</time>
      </trkpt>
      <trkpt lat="37.089881971478462" lon="-8.256826987490058">
        <ele>46.280000000000001</ele>
        <time>2025-05-07T11:10:07Z</time>
      </trkpt>
      <trkpt lat="37.089929999783635" lon="-8.25670100748539">
        <ele>46.280000000000001</ele>
        <time>2025-05-07T11:10:08Z</time>
      </trkpt>
      <trkpt lat="37.089980961754918" lon="-8.256566980853677">
        <ele>45.799999999999997</ele>
        <time>2025-05-07T11:10:09Z</time>
      </trkpt>
      <trkpt lat="37.090034019201994" lon="-8.256425997242332">
        <ele>45.32</ele>
        <time>2025-05-07T11:10:10Z</time>
      </trkpt>
      <trkpt lat="37.090135021135211" lon="-8.256316026672721">
        <ele>44.359999999999999</ele>
        <time>2025-05-07T11:10:11Z</time>
      </trkpt>
      <trkpt lat="37.090233005583286" lon="-8.256211001425982">
        <ele>43.880000000000003</ele>
        <time>2025-05-07T11:10:12Z</time>
      </trkpt>
      <trkpt lat="37.090336019173265" lon="-8.256101030856371">
        <ele>43.399999999999999</ele>
        <time>2025-05-07T11:10:13Z</time>
      </trkpt>
      <trkpt lat="37.090464010834694" lon="-8.256021989509463">
        <ele>42.920000000000002</ele>
        <time>2025-05-07T11:10:14Z</time>
      </trkpt>
      <trkpt lat="37.090603988617659" lon="-8.255967004224658">
        <ele>42.439999999999998</ele>
        <time>2025-05-07T11:10:15Z</time>
      </trkpt>
      <trkpt lat="37.090767016634345" lon="-8.255903972312808">
        <ele>41.950000000000003</ele>
        <time>2025-05-07T11:10:16Z</time>
      </trkpt>
      <trkpt lat="37.090903976932168" lon="-8.255880000069737">
        <ele>41.469999999999999</ele>
        <time>2025-05-07T11:10:17Z</time>
      </trkpt>
      <trkpt lat="37.092244997620583" lon="-8.255557967349887">
        <ele>30.420000000000002</ele>
        <time>2025-05-07T11:10:26Z</time>
      </trkpt>
      <trkpt lat="37.092379024252295" lon="-8.255468029528856">
        <ele>28.98</ele>
        <time>2025-05-07T11:10:27Z</time>
      </trkpt>
      <trkpt lat="37.092509027570486" lon="-8.255364010110498">
        <ele>28.02</ele>
        <time>2025-05-07T11:10:28Z</time>
      </trkpt>
      <trkpt lat="37.092639030888677" lon="-8.255260996520519">
        <ele>27.050000000000001</ele>
        <time>2025-05-07T11:10:29Z</time>
      </trkpt>
      <trkpt lat="37.09275302477181" lon="-8.255144990980625">
        <ele>25.609999999999999</ele>
        <time>2025-05-07T11:10:30Z</time>
      </trkpt>
      <trkpt lat="37.092845980077982" lon="-8.255007024854422">
        <ele>24.649999999999999</ele>
        <time>2025-05-07T11:10:31Z</time>
      </trkpt>
      <trkpt lat="37.092934995889664" lon="-8.254871992394328">
        <ele>24.170000000000002</ele>
        <time>2025-05-07T11:10:32Z</time>
      </trkpt>
      <trkpt lat="37.0933130197227" lon="-8.254305040463805">
        <ele>22.25</ele>
        <time>2025-05-07T11:10:38Z</time>
      </trkpt>
      <trkpt lat="37.093516029417515" lon="-8.253923999145627">
        <ele>19.84</ele>
        <time>2025-05-07T11:10:44Z</time>
      </trkpt>
      <trkpt lat="37.093555005267262" lon="-8.2538459636271">
        <ele>19.359999999999999</ele>
        <time>2025-05-07T11:10:49Z</time>
      </trkpt>
      <trkpt lat="37.093580989167094" lon="-8.253795001655817">
        <ele>19.359999999999999</ele>
        <time>2025-05-07T11:10:50Z</time>
      </trkpt>
      <trkpt lat="37.093610996380448" lon="-8.253686958923936">
        <ele>18.879999999999999</ele>
        <time>2025-05-07T11:10:52Z</time>
      </trkpt>
      <trkpt lat="37.093649972230196" lon="-8.253612024709582">
        <ele>18.879999999999999</ele>
        <time>2025-05-07T11:10:53Z</time>
      </trkpt>
      <trkpt lat="37.093707975000143" lon="-8.253576988354325">
        <ele>18.879999999999999</ele>
        <time>2025-05-07T11:10:54Z</time>
      </trkpt>
      <trkpt lat="37.093766983598471" lon="-8.253520997241139">
        <ele>18.399999999999999</ele>
        <time>2025-05-07T11:10:55Z</time>
      </trkpt>
      <trkpt lat="37.093834960833192" lon="-8.253442961722612">
        <ele>18.879999999999999</ele>
        <time>2025-05-07T11:10:56Z</time>
      </trkpt>
      <trkpt lat="37.093904027715325" lon="-8.253351012244821">
        <ele>20.32</ele>
        <time>2025-05-07T11:10:57Z</time>
      </trkpt>
      <trkpt lat="37.093975022435188" lon="-8.253234000876546">
        <ele>21.77</ele>
        <time>2025-05-07T11:10:58Z</time>
      </trkpt>
      <trkpt lat="37.094744984060526" lon="-8.25193002820015">
        <ele>37.149999999999999</ele>
        <time>2025-05-07T11:11:08Z</time>
      </trkpt>
      <trkpt lat="37.094865012913942" lon="-8.251698017120361">
        <ele>40.509999999999998</ele>
        <time>2025-05-07T11:11:10Z</time>
      </trkpt>
      <trkpt lat="37.094899965450168" lon="-8.251550998538733">
        <ele>41.950000000000003</ele>
        <time>2025-05-07T11:11:11Z</time>
      </trkpt>
      <trkpt lat="37.094933995977044" lon="-8.251403979957104">
        <ele>43.399999999999999</ele>
        <time>2025-05-07T11:11:12Z</time>
      </trkpt>
      <trkpt lat="37.095014965161681" lon="-8.250951021909714">
        <ele>48.200000000000003</ele>
        <time>2025-05-07T11:11:15Z</time>
      </trkpt>
      <trkpt lat="37.095014965161681" lon="-8.250790005549789">
        <ele>49.649999999999999</ele>
        <time>2025-05-07T11:11:16Z</time>
      </trkpt>
      <trkpt lat="37.095014965161681" lon="-8.250629995018244">
        <ele>51.090000000000003</ele>
        <time>2025-05-07T11:11:17Z</time>
      </trkpt>
      <trkpt lat="37.095014965161681" lon="-8.250469984486699">
        <ele>52.049999999999997</ele>
        <time>2025-05-07T11:11:18Z</time>
      </trkpt>
      <trkpt lat="37.094986969605088" lon="-8.250312991440296">
        <ele>53.490000000000002</ele>
        <time>2025-05-07T11:11:19Z</time>
      </trkpt>
      <trkpt lat="37.094952017068863" lon="-8.250163039192557">
        <ele>54.93</ele>
        <time>2025-05-07T11:11:20Z</time>
      </trkpt>
      <trkpt lat="37.094908012077212" lon="-8.25001903809607">
        <ele>55.890000000000001</ele>
        <time>2025-05-07T11:11:21Z</time>
      </trkpt>
      <trkpt lat="37.094846991822124" lon="-8.249884005635977">
        <ele>56.859999999999999</ele>
        <time>2025-05-07T11:11:22Z</time>
      </trkpt>
      <trkpt lat="37.094789994880557" lon="-8.249756013974547">
        <ele>57.82</ele>
        <time>2025-05-07T11:11:23Z</time>
      </trkpt>
      <trkpt lat="37.094737021252513" lon="-8.249637996777892">
        <ele>58.780000000000001</ele>
        <time>2025-05-07T11:11:24Z</time>
      </trkpt>
      <trkpt lat="37.094653034582734" lon="-8.249531965702772">
        <ele>59.259999999999998</ele>
        <time>2025-05-07T11:11:25Z</time>
      </trkpt>
      <trkpt lat="37.094573993235826" lon="-8.249430963769555">
        <ele>60.219999999999999</ele>
        <time>2025-05-07T11:11:26Z</time>
      </trkpt>
      <trkpt lat="37.094499981030822" lon="-8.249338008463383">
        <ele>61.18</ele>
        <time>2025-05-07T11:11:27Z</time>
      </trkpt>
      <trkpt lat="37.094423035159707" lon="-8.249274976551533">
        <ele>61.659999999999997</ele>
        <time>2025-05-07T11:11:28Z</time>
      </trkpt>
      <trkpt lat="37.094369977712631" lon="-8.249164000153542">
        <ele>62.140000000000001</ele>
        <time>2025-05-07T11:11:29Z</time>
      </trkpt>
      <trkpt lat="37.094298982992768" lon="-8.249072972685099">
        <ele>62.619999999999997</ele>
        <time>2025-05-07T11:11:30Z</time>
      </trkpt>
      <trkpt lat="37.094221031293273" lon="-8.248972976580262">
        <ele>63.100000000000001</ele>
        <time>2025-05-07T11:11:31Z</time>
      </trkpt>
      <trkpt lat="37.09413000382483" lon="-8.248872980475426">
        <ele>63.579999999999998</ele>
        <time>2025-05-07T11:11:32Z</time>
      </trkpt>
      <trkpt lat="37.094035036861897" lon="-8.248770972713828">
        <ele>63.579999999999998</ele>
        <time>2025-05-07T11:11:33Z</time>
      </trkpt>
      <trkpt lat="37.093113027513027" lon="-8.247772017493844">
        <ele>63.579999999999998</ele>
        <time>2025-05-07T11:11:43Z</time>
      </trkpt>
      <trkpt lat="37.09183101542294" lon="-8.246370982378721">
        <ele>55.890000000000001</ele>
        <time>2025-05-07T11:11:57Z</time>
      </trkpt>
      <trkpt lat="37.091726996004581" lon="-8.246207032352686">
        <ele>53.969999999999999</ele>
        <time>2025-05-07T11:11:59Z</time>
      </trkpt>
      <trkpt lat="37.091645020991564" lon="-8.246077029034495">
        <ele>52.049999999999997</ele>
        <time>2025-05-07T11:12:02Z</time>
      </trkpt>
      <trkpt lat="37.091626999899745" lon="-8.246049033477902">
        <ele>51.090000000000003</ele>
        <time>2025-05-07T11:12:03Z</time>
      </trkpt>
      <trkpt lat="37.091611996293068" lon="-8.24602397158742">
        <ele>50.609999999999999</ele>
        <time>2025-05-07T11:12:04Z</time>
      </trkpt>
      <trkpt lat="37.091604033485055" lon="-8.246011985465884">
        <ele>50.130000000000003</ele>
        <time>2025-05-07T11:12:05Z</time>
      </trkpt>
      <trkpt lat="37.091591041535139" lon="-8.245986001566052">
        <ele>49.649999999999999</ele>
        <time>2025-05-07T11:12:06Z</time>
      </trkpt>
      <trkpt lat="37.091581989079714" lon="-8.245967980474234">
        <ele>49.159999999999997</ele>
        <time>2025-05-07T11:12:07Z</time>
      </trkpt>
      <trkpt lat="37.091581989079714" lon="-8.245967980474234">
        <ele>48.68</ele>
        <time>2025-05-07T11:12:21Z</time>
      </trkpt>
      <trkpt lat="37.091539995744824" lon="-8.245883993804455">
        <ele>48.68</ele>
        <time>2025-05-07T11:12:50Z</time>
      </trkpt>
      <trkpt lat="37.091278983280063" lon="-8.245345037430525">
        <ele>48.68</ele>
        <time>2025-05-07T11:12:56Z</time>
      </trkpt>
      <trkpt lat="37.090981006622314" lon="-8.243980966508389">
        <ele>45.799999999999997</ele>
        <time>2025-05-07T11:13:06Z</time>
      </trkpt>
      <trkpt lat="37.091022999957204" lon="-8.243039008229971">
        <ele>43.399999999999999</ele>
        <time>2025-05-07T11:13:15Z</time>
      </trkpt>
      <trkpt lat="37.091030962765217" lon="-8.242954015731812">
        <ele>42.439999999999998</ele>
        <time>2025-05-07T11:13:16Z</time>
      </trkpt>
      <trkpt lat="37.091231038793921" lon="-8.242018008604646">
        <ele>39.549999999999997</ele>
        <time>2025-05-07T11:13:24Z</time>
      </trkpt>
      <trkpt lat="37.091519040986896" lon="-8.240997008979321">
        <ele>38.590000000000003</ele>
        <time>2025-05-07T11:13:33Z</time>
      </trkpt>
      <trkpt lat="37.091554999351501" lon="-8.240872034803033">
        <ele>38.109999999999999</ele>
        <time>2025-05-07T11:13:35Z</time>
      </trkpt>
      <trkpt lat="37.091586012393236" lon="-8.240762986242771">
        <ele>37.630000000000003</ele>
        <time>2025-05-07T11:13:42Z</time>
      </trkpt>
      <trkpt lat="37.091653989627957" lon="-8.240512032061815">
        <ele>37.149999999999999</ele>
        <time>2025-05-07T11:13:50Z</time>
      </trkpt>
      <trkpt lat="37.091671004891396" lon="-8.240442965179682">
        <ele>37.630000000000003</ele>
        <time>2025-05-07T11:13:59Z</time>
      </trkpt>
      <trkpt lat="37.091703023761511" lon="-8.240317991003394">
        <ele>38.590000000000003</ele>
        <time>2025-05-07T11:14:10Z</time>
      </trkpt>
      <trkpt lat="37.091751974076033" lon="-8.239991012960672">
        <ele>41.469999999999999</ele>
        <time>2025-05-07T11:14:18Z</time>
      </trkpt>
      <trkpt lat="37.091736970469356" lon="-8.239904008805752">
        <ele>41.950000000000003</ele>
        <time>2025-05-07T11:14:19Z</time>
      </trkpt>
      <trkpt lat="37.091763038188219" lon="-8.239798983559012">
        <ele>42.920000000000002</ele>
        <time>2025-05-07T11:14:20Z</time>
      </trkpt>
      <trkpt lat="37.091841995716095" lon="-8.239718014374375">
        <ele>43.399999999999999</ele>
        <time>2025-05-07T11:14:21Z</time>
      </trkpt>
      <trkpt lat="37.091884994879365" lon="-8.239608965814114">
        <ele>43.399999999999999</ele>
        <time>2025-05-07T11:14:22Z</time>
      </trkpt>
      <trkpt lat="37.091921959072351" lon="-8.23951399885118">
        <ele>44.359999999999999</ele>
        <time>2025-05-07T11:14:23Z</time>
      </trkpt>
      <trkpt lat="37.091945009306073" lon="-8.239454990252852">
        <ele>44.840000000000003</ele>
        <time>2025-05-07T11:14:24Z</time>
      </trkpt>
      <trkpt lat="37.091990020126104" lon="-8.239337978884578">
        <ele>45.32</ele>
        <time>2025-05-07T11:14:26Z</time>
      </trkpt>
      <trkpt lat="37.092008963227272" lon="-8.239260027185082">
        <ele>45.799999999999997</ele>
        <time>2025-05-07T11:14:27Z</time>
      </trkpt>
      <trkpt lat="37.092037964612246" lon="-8.239139998331666">
        <ele>46.280000000000001</ele>
        <time>2025-05-07T11:14:28Z</time>
      </trkpt>
      <trkpt lat="37.092070989310741" lon="-8.239003038033843">
        <ele>46.280000000000001</ele>
        <time>2025-05-07T11:14:29Z</time>
      </trkpt>
      <trkpt lat="37.092104014009237" lon="-8.23886800557375">
        <ele>46.759999999999998</ele>
        <time>2025-05-07T11:14:30Z</time>
      </trkpt>
      <trkpt lat="37.092348011210561" lon="-8.237811969593167">
        <ele>48.68</ele>
        <time>2025-05-07T11:14:37Z</time>
      </trkpt>
      <trkpt lat="37.092720000073314" lon="-8.235727977007628">
        <ele>40.509999999999998</ele>
        <time>2025-05-07T11:14:51Z</time>
      </trkpt>
      <trkpt lat="37.092872969806194" lon="-8.234995985403657">
        <ele>39.549999999999997</ele>
        <time>2025-05-07T11:14:56Z</time>
      </trkpt>
      <trkpt lat="37.09290498867631" lon="-8.234855001792312">
        <ele>39.549999999999997</ele>
        <time>2025-05-07T11:14:57Z</time>
      </trkpt>
      <trkpt lat="37.093509994447231" lon="-8.233407028019428">
        <ele>41.469999999999999</ele>
        <time>2025-05-07T11:15:08Z</time>
      </trkpt>
      <trkpt lat="37.093668999150395" lon="-8.233094969764352">
        <ele>41.950000000000003</ele>
        <time>2025-05-07T11:15:11Z</time>
      </trkpt>
      <trkpt lat="37.093706969171762" lon="-8.233007965609431">
        <ele>42.439999999999998</ele>
        <time>2025-05-07T11:15:12Z</time>
      </trkpt>
      <trkpt lat="37.093776036053896" lon="-8.232768997550011">
        <ele>42.439999999999998</ele>
        <time>2025-05-07T11:15:14Z</time>
      </trkpt>
      <trkpt lat="37.093801014125347" lon="-8.232646035030484">
        <ele>42.439999999999998</ele>
        <time>2025-05-07T11:15:15Z</time>
      </trkpt>
      <trkpt lat="37.093825992196798" lon="-8.232504967600107">
        <ele>42.920000000000002</ele>
        <time>2025-05-07T11:15:16Z</time>
      </trkpt>
      <trkpt lat="37.094079041853547" lon="-8.230985999107361">
        <ele>49.649999999999999</ele>
        <time>2025-05-07T11:15:26Z</time>
      </trkpt>
      <trkpt lat="37.094189012423158" lon="-8.230389039963484">
        <ele>51.57</ele>
        <time>2025-05-07T11:15:30Z</time>
      </trkpt>
      <trkpt lat="37.094264030456543" lon="-8.228566981852055">
        <ele>54.450000000000003</ele>
        <time>2025-05-07T11:15:42Z</time>
      </trkpt>
      <trkpt lat="37.094354974105954" lon="-8.228287026286125">
        <ele>53.969999999999999</ele>
        <time>2025-05-07T11:15:44Z</time>
      </trkpt>
      <trkpt lat="37.094636019319296" lon="-8.227630974724889">
        <ele>53.969999999999999</ele>
        <time>2025-05-07T11:15:49Z</time>
      </trkpt>
      <trkpt lat="37.095217974856496" lon="-8.225919976830483">
        <ele>56.859999999999999</ele>
        <time>2025-05-07T11:16:01Z</time>
      </trkpt>
      <trkpt lat="37.095561968162656" lon="-8.224849021062255">
        <ele>57.340000000000003</ele>
        <time>2025-05-07T11:16:09Z</time>
      </trkpt>
      <trkpt lat="37.095654001459479" lon="-8.224584991112351">
        <ele>55.890000000000001</ele>
        <time>2025-05-07T11:16:12Z</time>
      </trkpt>
      <trkpt lat="37.095670010894537" lon="-8.22453998029232">
        <ele>55.409999999999997</ele>
        <time>2025-05-07T11:16:13Z</time>
      </trkpt>
      <trkpt lat="37.095646960660815" lon="-8.224207973107696">
        <ele>54.450000000000003</ele>
        <time>2025-05-07T11:16:17Z</time>
      </trkpt>
      <trkpt lat="37.095659030601382" lon="-8.224189030006528">
        <ele>54.450000000000003</ele>
        <time>2025-05-07T11:16:18Z</time>
      </trkpt>
      <trkpt lat="37.095818035304546" lon="-8.224091967567802">
        <ele>54.450000000000003</ele>
        <time>2025-05-07T11:16:19Z</time>
      </trkpt>
      <trkpt lat="37.095952983945608" lon="-8.223745040595532">
        <ele>53.009999999999998</ele>
        <time>2025-05-07T11:16:22Z</time>
      </trkpt>
      <trkpt lat="37.096007969230413" lon="-8.223606990650296">
        <ele>52.049999999999997</ele>
        <time>2025-05-07T11:16:23Z</time>
      </trkpt>
      <trkpt lat="37.096477020531893" lon="-8.222355991601944">
        <ele>42.439999999999998</ele>
        <time>2025-05-07T11:16:32Z</time>
      </trkpt>
      <trkpt lat="37.09720398299396" lon="-8.220445001497865">
        <ele>37.149999999999999</ele>
        <time>2025-05-07T11:16:46Z</time>
      </trkpt>
      <trkpt lat="37.097744029015303" lon="-8.219240019097924">
        <ele>40.509999999999998</ele>
        <time>2025-05-07T11:16:54Z</time>
      </trkpt>
      <trkpt lat="37.098522959277034" lon="-8.218181971460581">
        <ele>46.280000000000001</ele>
        <time>2025-05-07T11:17:01Z</time>
      </trkpt>
      <trkpt lat="37.09874901920557" lon="-8.217902015894651">
        <ele>47.240000000000002</ele>
        <time>2025-05-07T11:17:04Z</time>
      </trkpt>
      <trkpt lat="37.09874901920557" lon="-8.217688025906682">
        <ele>47.719999999999999</ele>
        <time>2025-05-07T11:17:05Z</time>
      </trkpt>
      <trkpt lat="37.098800987005234" lon="-8.217601021751761">
        <ele>48.200000000000003</ele>
        <time>2025-05-07T11:17:06Z</time>
      </trkpt>
      <trkpt lat="37.09894297644496" lon="-8.217544024810195">
        <ele>48.68</ele>
        <time>2025-05-07T11:17:07Z</time>
      </trkpt>
      <trkpt lat="37.099113967269659" lon="-8.217516029253602">
        <ele>49.159999999999997</ele>
        <time>2025-05-07T11:17:08Z</time>
      </trkpt>
      <trkpt lat="37.099246988072991" lon="-8.217364987358451">
        <ele>49.649999999999999</ele>
        <time>2025-05-07T11:17:10Z</time>
      </trkpt>
      <trkpt lat="37.09965099580586" lon="-8.217014037072659">
        <ele>50.609999999999999</ele>
        <time>2025-05-07T11:17:14Z</time>
      </trkpt>
      <trkpt lat="37.09975702688098" lon="-8.216971037909389">
        <ele>50.609999999999999</ele>
        <time>2025-05-07T11:17:15Z</time>
      </trkpt>
      <trkpt lat="37.099857022985816" lon="-8.216930972412229">
        <ele>50.130000000000003</ele>
        <time>2025-05-07T11:17:16Z</time>
      </trkpt>
      <trkpt lat="37.099950984120369" lon="-8.216894008219242">
        <ele>50.130000000000003</ele>
        <time>2025-05-07T11:17:17Z</time>
      </trkpt>
      <trkpt lat="37.100049974396825" lon="-8.216881016269326">
        <ele>49.649999999999999</ele>
        <time>2025-05-07T11:17:18Z</time>
      </trkpt>
      <trkpt lat="37.100152987986803" lon="-8.216866012662649">
        <ele>49.649999999999999</ele>
        <time>2025-05-07T11:17:19Z</time>
      </trkpt>
      <trkpt lat="37.101097041741014" lon="-8.216636013239622">
        <ele>51.57</ele>
        <time>2025-05-07T11:17:28Z</time>
      </trkpt>
      <trkpt lat="37.101195026189089" lon="-8.216582033783197">
        <ele>52.049999999999997</ele>
        <time>2025-05-07T11:17:29Z</time>
      </trkpt>
      <trkpt lat="37.101379008963704" lon="-8.216430991888046">
        <ele>52.530000000000001</ele>
        <time>2025-05-07T11:17:31Z</time>
      </trkpt>
      <trkpt lat="37.101465007290244" lon="-8.216344993561506">
        <ele>53.009999999999998</ele>
        <time>2025-05-07T11:17:32Z</time>
      </trkpt>
      <trkpt lat="37.101726019755006" lon="-8.216080963611603">
        <ele>54.93</ele>
        <time>2025-05-07T11:17:35Z</time>
      </trkpt>
      <trkpt lat="37.101810006424785" lon="-8.215993959456682">
        <ele>55.890000000000001</ele>
        <time>2025-05-07T11:17:36Z</time>
      </trkpt>
      <trkpt lat="37.102664038538933" lon="-8.215225003659725">
        <ele>60.700000000000003</ele>
        <time>2025-05-07T11:17:46Z</time>
      </trkpt>
      <trkpt lat="37.103472976014018" lon="-8.214664002880454">
        <ele>65.030000000000001</ele>
        <time>2025-05-07T11:17:55Z</time>
      </trkpt>
      <trkpt lat="37.10358202457428" lon="-8.214636007323861">
        <ele>65.510000000000005</ele>
        <time>2025-05-07T11:17:56Z</time>
      </trkpt>
      <trkpt lat="37.103696018457413" lon="-8.214627038687468">
        <ele>66.469999999999999</ele>
        <time>2025-05-07T11:17:57Z</time>
      </trkpt>
      <trkpt lat="37.103810012340546" lon="-8.214621003717184">
        <ele>66.950000000000003</ele>
        <time>2025-05-07T11:17:58Z</time>
      </trkpt>
      <trkpt lat="37.103930041193962" lon="-8.214631984010339">
        <ele>67.430000000000007</ele>
        <time>2025-05-07T11:17:59Z</time>
      </trkpt>
      <trkpt lat="37.104051997885108" lon="-8.214642964303494">
        <ele>67.430000000000007</ele>
        <time>2025-05-07T11:18:00Z</time>
      </trkpt>
      <trkpt lat="37.104868981987238" lon="-8.214702978730202">
        <ele>69.829999999999998</ele>
        <time>2025-05-07T11:18:07Z</time>
      </trkpt>
      <trkpt lat="37.104975013062358" lon="-8.214672971516848">
        <ele>70.310000000000002</ele>
        <time>2025-05-07T11:18:08Z</time>
      </trkpt>
      <trkpt lat="37.105079032480717" lon="-8.214624021202326">
        <ele>70.790000000000006</ele>
        <time>2025-05-07T11:18:09Z</time>
      </trkpt>
      <trkpt lat="37.105189003050327" lon="-8.21457096375525">
        <ele>70.790000000000006</ele>
        <time>2025-05-07T11:18:10Z</time>
      </trkpt>
      <trkpt lat="37.10530299693346" lon="-8.214516984298825">
        <ele>71.269999999999996</ele>
        <time>2025-05-07T11:18:11Z</time>
      </trkpt>
      <trkpt lat="37.105417996644974" lon="-8.214455964043737">
        <ele>71.760000000000005</ele>
        <time>2025-05-07T11:18:12Z</time>
      </trkpt>
      <trkpt lat="37.106690034270287" lon="-8.213730007410049">
        <ele>72.239999999999995</ele>
        <time>2025-05-07T11:18:23Z</time>
      </trkpt>
      <trkpt lat="37.106988010928035" lon="-8.213477041572332">
        <ele>72.719999999999999</ele>
        <time>2025-05-07T11:18:26Z</time>
      </trkpt>
      <trkpt lat="37.107061017304659" lon="-8.213371010497212">
        <ele>73.200000000000003</ele>
        <time>2025-05-07T11:18:27Z</time>
      </trkpt>
      <trkpt lat="37.107116002589464" lon="-8.213238995522261">
        <ele>73.680000000000007</ele>
        <time>2025-05-07T11:18:28Z</time>
      </trkpt>
      <trkpt lat="37.107166964560747" lon="-8.213117038831115">
        <ele>73.680000000000007</ele>
        <time>2025-05-07T11:18:29Z</time>
      </trkpt>
      <trkpt lat="37.107207030057907" lon="-8.213014025241137">
        <ele>74.159999999999997</ele>
        <time>2025-05-07T11:18:30Z</time>
      </trkpt>
      <trkpt lat="37.107386989519" lon="-8.212173990905285">
        <ele>79.450000000000003</ele>
        <time>2025-05-07T11:18:38Z</time>
      </trkpt>
      <trkpt lat="37.107650013640523" lon="-8.211138993501663">
        <ele>81.849999999999994</ele>
        <time>2025-05-07T11:18:48Z</time>
      </trkpt>
      <trkpt lat="37.107693012803793" lon="-8.21104796603322">
        <ele>81.370000000000005</ele>
        <time>2025-05-07T11:18:49Z</time>
      </trkpt>
      <trkpt lat="37.107744980603456" lon="-8.210957022383809">
        <ele>81.370000000000005</ele>
        <time>2025-05-07T11:18:50Z</time>
      </trkpt>
      <trkpt lat="37.108290977776051" lon="-8.209893023595214">
        <ele>76.560000000000002</ele>
        <time>2025-05-07T11:18:59Z</time>
      </trkpt>
      <trkpt lat="37.108336994424462" lon="-8.209750028327107">
        <ele>76.079999999999998</ele>
        <time>2025-05-07T11:19:00Z</time>
      </trkpt>
      <trkpt lat="37.108380999416113" lon="-8.209611978381872">
        <ele>76.079999999999998</ele>
        <time>2025-05-07T11:19:01Z</time>
      </trkpt>
      <trkpt lat="37.108427016064525" lon="-8.209467977285385">
        <ele>75.599999999999994</ele>
        <time>2025-05-07T11:19:02Z</time>
      </trkpt>
      <trkpt lat="37.108445037156343" lon="-8.209012001752853">
        <ele>74.159999999999997</ele>
        <time>2025-05-07T11:19:05Z</time>
      </trkpt>
      <trkpt lat="37.108429027721286" lon="-8.208861965686083">
        <ele>74.159999999999997</ele>
        <time>2025-05-07T11:19:06Z</time>
      </trkpt>
      <trkpt lat="37.108376976102591" lon="-8.207033034414053">
        <ele>74.159999999999997</ele>
        <time>2025-05-07T11:19:18Z</time>
      </trkpt>
      <trkpt lat="37.108429027721286" lon="-8.205979010090232">
        <ele>75.599999999999994</ele>
        <time>2025-05-07T11:19:25Z</time>
      </trkpt>
      <trkpt lat="37.108437996357679" lon="-8.205827968195081">
        <ele>75.599999999999994</ele>
        <time>2025-05-07T11:19:26Z</time>
      </trkpt>
      <trkpt lat="37.108484013006091" lon="-8.205308960750699">
        <ele>75.599999999999994</ele>
        <time>2025-05-07T11:19:30Z</time>
      </trkpt>
      <trkpt lat="37.108420981094241" lon="-8.205192033201456">
        <ele>76.079999999999998</ele>
        <time>2025-05-07T11:19:31Z</time>
      </trkpt>
      <trkpt lat="37.108361972495914" lon="-8.205150961875916">
        <ele>76.079999999999998</ele>
        <time>2025-05-07T11:19:32Z</time>
      </trkpt>
      <trkpt lat="37.108508991077542" lon="-8.205101005733013">
        <ele>76.079999999999998</ele>
        <time>2025-05-07T11:19:33Z</time>
      </trkpt>
      <trkpt lat="37.108519971370697" lon="-8.205032022669911">
        <ele>76.079999999999998</ele>
        <time>2025-05-07T11:19:34Z</time>
      </trkpt>
      <trkpt lat="37.108535980805755" lon="-8.204952981323004">
        <ele>76.079999999999998</ele>
        <time>2025-05-07T11:19:35Z</time>
      </trkpt>
      <trkpt lat="37.108550984412432" lon="-8.204877963289619">
        <ele>75.599999999999994</ele>
        <time>2025-05-07T11:19:36Z</time>
      </trkpt>
      <trkpt lat="37.108570011332631" lon="-8.204779978841543">
        <ele>75.120000000000005</ele>
        <time>2025-05-07T11:19:37Z</time>
      </trkpt>
      <trkpt lat="37.108598006889224" lon="-8.204641006886959">
        <ele>75.120000000000005</ele>
        <time>2025-05-07T11:19:38Z</time>
      </trkpt>
      <trkpt lat="37.108627008274198" lon="-8.204509997740388">
        <ele>75.120000000000005</ele>
        <time>2025-05-07T11:19:39Z</time>
      </trkpt>
      <trkpt lat="37.108669001609087" lon="-8.204355016350746">
        <ele>74.640000000000001</ele>
        <time>2025-05-07T11:19:40Z</time>
      </trkpt>
      <trkpt lat="37.108713006600738" lon="-8.204201962798834">
        <ele>74.159999999999997</ele>
        <time>2025-05-07T11:19:41Z</time>
      </trkpt>
      <trkpt lat="37.108751982450485" lon="-8.204048993065953">
        <ele>73.200000000000003</ele>
        <time>2025-05-07T11:19:42Z</time>
      </trkpt>
      <trkpt lat="37.108876034617424" lon="-8.203445998951793">
        <ele>71.269999999999996</ele>
        <time>2025-05-07T11:19:46Z</time>
      </trkpt>
      <trkpt lat="37.108851978555322" lon="-8.2032660394907">
        <ele>71.269999999999996</ele>
        <time>2025-05-07T11:19:47Z</time>
      </trkpt>
      <trkpt lat="37.108810991048813" lon="-8.203082978725433">
        <ele>71.269999999999996</ele>
        <time>2025-05-07T11:19:48Z</time>
      </trkpt>
      <trkpt lat="37.108733961358666" lon="-8.202900001779199">
        <ele>71.269999999999996</ele>
        <time>2025-05-07T11:19:49Z</time>
      </trkpt>
      <trkpt lat="37.108651986345649" lon="-8.202705960720778">
        <ele>71.269999999999996</ele>
        <time>2025-05-07T11:19:50Z</time>
      </trkpt>
      <trkpt lat="37.10856799967587" lon="-8.202504040673375">
        <ele>70.790000000000006</ele>
        <time>2025-05-07T11:19:51Z</time>
      </trkpt>
      <trkpt lat="37.107735006138682" lon="-8.200876023620367">
        <ele>70.310000000000002</ele>
        <time>2025-05-07T11:20:00Z</time>
      </trkpt>
      <trkpt lat="37.107574995607138" lon="-8.200624985620379">
        <ele>69.829999999999998</ele>
        <time>2025-05-07T11:20:02Z</time>
      </trkpt>
      <trkpt lat="37.107504000887275" lon="-8.200521972030401">
        <ele>69.829999999999998</ele>
        <time>2025-05-07T11:20:03Z</time>
      </trkpt>
      <trkpt lat="37.107373997569084" lon="-8.200438991189003">
        <ele>69.349999999999994</ele>
        <time>2025-05-07T11:20:04Z</time>
      </trkpt>
      <trkpt lat="37.107255980372429" lon="-8.200363973155618">
        <ele>69.829999999999998</ele>
        <time>2025-05-07T11:20:05Z</time>
      </trkpt>
      <trkpt lat="37.107137041166425" lon="-8.200288033112884">
        <ele>69.829999999999998</ele>
        <time>2025-05-07T11:20:06Z</time>
      </trkpt>
      <trkpt lat="37.107031010091305" lon="-8.200220977887511">
        <ele>69.829999999999998</ele>
        <time>2025-05-07T11:20:07Z</time>
      </trkpt>
      <trkpt lat="37.106158034875989" lon="-8.199664000421763">
        <ele>68.870000000000005</ele>
        <time>2025-05-07T11:20:16Z</time>
      </trkpt>
      <trkpt lat="37.106058960780501" lon="-8.199582025408745">
        <ele>68.390000000000001</ele>
        <time>2025-05-07T11:20:17Z</time>
      </trkpt>
      <trkpt lat="37.105966005474329" lon="-8.199479011818767">
        <ele>67.909999999999997</ele>
        <time>2025-05-07T11:20:18Z</time>
      </trkpt>
      <trkpt lat="37.105203000828624" lon="-8.198249973356724">
        <ele>63.579999999999998</ele>
        <time>2025-05-07T11:20:28Z</time>
      </trkpt>
      <trkpt lat="37.104330025613308" lon="-8.196791019290686">
        <ele>64.069999999999993</ele>
        <time>2025-05-07T11:20:40Z</time>
      </trkpt>
      <trkpt lat="37.104264982044697" lon="-8.196662021800876">
        <ele>64.069999999999993</ele>
        <time>2025-05-07T11:20:41Z</time>
      </trkpt>
      <trkpt lat="37.104174960404634" lon="-8.196375025436282">
        <ele>64.549999999999997</ele>
        <time>2025-05-07T11:20:43Z</time>
      </trkpt>
      <trkpt lat="37.104134978726506" lon="-8.196230018511415">
        <ele>64.549999999999997</ele>
        <time>2025-05-07T11:20:44Z</time>
      </trkpt>
      <trkpt lat="37.104119975119829" lon="-8.196076964959502">
        <ele>64.549999999999997</ele>
        <time>2025-05-07T11:20:45Z</time>
      </trkpt>
      <trkpt lat="37.104103965684772" lon="-8.195923995226622">
        <ele>64.549999999999997</ele>
        <time>2025-05-07T11:20:46Z</time>
      </trkpt>
      <trkpt lat="37.104089967906475" lon="-8.195771025493741">
        <ele>64.549999999999997</ele>
        <time>2025-05-07T11:20:47Z</time>
      </trkpt>
      <trkpt lat="37.104076975956559" lon="-8.195615960285068">
        <ele>64.069999999999993</ele>
        <time>2025-05-07T11:20:48Z</time>
      </trkpt>
      <trkpt lat="37.103962982073426" lon="-8.193289982154965">
        <ele>63.579999999999998</ele>
        <time>2025-05-07T11:21:03Z</time>
      </trkpt>
      <trkpt lat="37.104118969291449" lon="-8.191798003390431">
        <ele>64.069999999999993</ele>
        <time>2025-05-07T11:21:13Z</time>
      </trkpt>
      <trkpt lat="37.10472397506237" lon="-8.190121036022902">
        <ele>61.659999999999997</ele>
        <time>2025-05-07T11:21:25Z</time>
      </trkpt>
      <trkpt lat="37.1052370313555" lon="-8.188739027827978">
        <ele>58.299999999999997</ele>
        <time>2025-05-07T11:21:35Z</time>
      </trkpt>
      <trkpt lat="37.10528296418488" lon="-8.188600977882743">
        <ele>57.82</ele>
        <time>2025-05-07T11:21:36Z</time>
      </trkpt>
      <trkpt lat="37.105745980516076" lon="-8.187437988817692">
        <ele>54.450000000000003</ele>
        <time>2025-05-07T11:21:45Z</time>
      </trkpt>
      <trkpt lat="37.105680014938116" lon="-8.187217963859439">
        <ele>54.450000000000003</ele>
        <time>2025-05-07T11:21:46Z</time>
      </trkpt>
      <trkpt lat="37.105680014938116" lon="-8.187126014381647">
        <ele>53.969999999999999</ele>
        <time>2025-05-07T11:21:47Z</time>
      </trkpt>
      <trkpt lat="37.105742041021585" lon="-8.18698100745678">
        <ele>53.490000000000002</ele>
        <time>2025-05-07T11:21:48Z</time>
      </trkpt>
      <trkpt lat="37.105786968022585" lon="-8.186916969716549">
        <ele>53.490000000000002</ele>
        <time>2025-05-07T11:21:49Z</time>
      </trkpt>
      <trkpt lat="37.105934992432594" lon="-8.186836000531912">
        <ele>53.490000000000002</ele>
        <time>2025-05-07T11:21:50Z</time>
      </trkpt>
      <trkpt lat="37.105995006859303" lon="-8.186716977506876">
        <ele>53.009999999999998</ele>
        <time>2025-05-07T11:21:51Z</time>
      </trkpt>
      <trkpt lat="37.106044963002205" lon="-8.186582028865814">
        <ele>53.009999999999998</ele>
        <time>2025-05-07T11:21:52Z</time>
      </trkpt>
      <trkpt lat="37.106095002964139" lon="-8.18644498474896">
        <ele>53.490000000000002</ele>
        <time>2025-05-07T11:21:53Z</time>
      </trkpt>
      <trkpt lat="37.106144037097692" lon="-8.186308024451137">
        <ele>53.490000000000002</ele>
        <time>2025-05-07T11:21:54Z</time>
      </trkpt>
      <trkpt lat="37.106447964906693" lon="-8.185488022863865">
        <ele>52.530000000000001</ele>
        <time>2025-05-07T11:22:00Z</time>
      </trkpt>
      <trkpt lat="37.107077026739717" lon="-8.183841984719038">
        <ele>50.609999999999999</ele>
        <time>2025-05-07T11:22:12Z</time>
      </trkpt>
      <trkpt lat="37.107127988710999" lon="-8.183706030249596">
        <ele>50.609999999999999</ele>
        <time>2025-05-07T11:22:13Z</time>
      </trkpt>
      <trkpt lat="37.107548005878925" lon="-8.18257799372077">
        <ele>50.130000000000003</ele>
        <time>2025-05-07T11:22:22Z</time>
      </trkpt>
      <trkpt lat="37.108127027750015" lon="-8.18103002384305">
        <ele>50.609999999999999</ele>
        <time>2025-05-07T11:22:34Z</time>
      </trkpt>
      <trkpt lat="37.108487030491233" lon="-8.179671987891197">
        <ele>51.57</ele>
        <time>2025-05-07T11:22:45Z</time>
      </trkpt>
      <trkpt lat="37.108733039349318" lon="-8.177741970866919">
        <ele>48.200000000000003</ele>
        <time>2025-05-07T11:22:58Z</time>
      </trkpt>
      <trkpt lat="37.108995979651809" lon="-8.175347009673715">
        <ele>42.920000000000002</ele>
        <time>2025-05-07T11:23:14Z</time>
      </trkpt>
      <trkpt lat="37.109214998781681" lon="-8.173399977385998">
        <ele>40.990000000000002</ele>
        <time>2025-05-07T11:23:27Z</time>
      </trkpt>
      <trkpt lat="37.109145009890199" lon="-8.172805029898882">
        <ele>39.549999999999997</ele>
        <time>2025-05-07T11:23:31Z</time>
      </trkpt>
      <trkpt lat="37.108733961358666" lon="-8.170913988724351">
        <ele>36.189999999999998</ele>
        <time>2025-05-07T11:23:44Z</time>
      </trkpt>
      <trkpt lat="37.108399020507932" lon="-8.169310027733445">
        <ele>32.82</ele>
        <time>2025-05-07T11:23:54Z</time>
      </trkpt>
      <trkpt lat="37.108388962224126" lon="-8.169090002775192">
        <ele>32.340000000000003</ele>
        <time>2025-05-07T11:23:55Z</time>
      </trkpt>
      <trkpt lat="37.108314028009772" lon="-8.167462991550565">
        <ele>28.98</ele>
        <time>2025-05-07T11:24:03Z</time>
      </trkpt>
      <trkpt lat="37.108212020248175" lon="-8.166124988347292">
        <ele>26.09</ele>
        <time>2025-05-07T11:24:12Z</time>
      </trkpt>
      <trkpt lat="37.108104983344674" lon="-8.164328997954726">
        <ele>21.289999999999999</ele>
        <time>2025-05-07T11:24:23Z</time>
      </trkpt>
      <trkpt lat="37.108104983344674" lon="-8.163890037685633">
        <ele>20.809999999999999</ele>
        <time>2025-05-07T11:24:25Z</time>
      </trkpt>
      <trkpt lat="37.108104983344674" lon="-8.163660038262606">
        <ele>20.809999999999999</ele>
        <time>2025-05-07T11:24:26Z</time>
      </trkpt>
      <trkpt lat="37.108104983344674" lon="-8.163448981940746">
        <ele>20.32</ele>
        <time>2025-05-07T11:24:27Z</time>
      </trkpt>
      <trkpt lat="37.108129039406776" lon="-8.1623600050807">
        <ele>18.879999999999999</ele>
        <time>2025-05-07T11:24:34Z</time>
      </trkpt>
      <trkpt lat="37.108230041339993" lon="-8.161230040714145">
        <ele>17.920000000000002</ele>
        <time>2025-05-07T11:24:43Z</time>
      </trkpt>
      <trkpt lat="37.108258036896586" lon="-8.16111596301198">
        <ele>17.920000000000002</ele>
        <time>2025-05-07T11:24:44Z</time>
      </trkpt>
      <trkpt lat="37.108308998867869" lon="-8.161014961078763">
        <ele>17.920000000000002</ele>
        <time>2025-05-07T11:24:45Z</time>
      </trkpt>
      <trkpt lat="37.108384016901255" lon="-8.160911025479436">
        <ele>17.920000000000002</ele>
        <time>2025-05-07T11:24:46Z</time>
      </trkpt>
      <trkpt lat="37.108437996357679" lon="-8.160842964425683">
        <ele>17.440000000000001</ele>
        <time>2025-05-07T11:24:47Z</time>
      </trkpt>
      <trkpt lat="37.10936302319169" lon="-8.15948098897934">
        <ele>15.52</ele>
        <time>2025-05-07T11:25:01Z</time>
      </trkpt>
      <trkpt lat="37.109985966235399" lon="-8.157917009666562">
        <ele>18.879999999999999</ele>
        <time>2025-05-07T11:25:13Z</time>
      </trkpt>
      <trkpt lat="37.110214959830046" lon="-8.157392973080277">
        <ele>19.359999999999999</ele>
        <time>2025-05-07T11:25:17Z</time>
      </trkpt>
      <trkpt lat="37.110272962599993" lon="-8.157260958105326">
        <ele>19.359999999999999</ele>
        <time>2025-05-07T11:25:18Z</time>
      </trkpt>
      <trkpt lat="37.111320029944181" lon="-8.156019011512399">
        <ele>18.399999999999999</ele>
        <time>2025-05-07T11:25:30Z</time>
      </trkpt>
      <trkpt lat="37.112571028992534" lon="-8.154605990275741">
        <ele>27.530000000000001</ele>
        <time>2025-05-07T11:25:44Z</time>
      </trkpt>
      <trkpt lat="37.113836025819182" lon="-8.15316203981638">
        <ele>28.98</ele>
        <time>2025-05-07T11:25:58Z</time>
      </trkpt>
      <trkpt lat="37.114634988829494" lon="-8.152056969702244">
        <ele>25.609999999999999</ele>
        <time>2025-05-07T11:26:08Z</time>
      </trkpt>
      <trkpt lat="37.11552900262177" lon="-8.150125024840236">
        <ele>28.98</ele>
        <time>2025-05-07T11:26:23Z</time>
      </trkpt>
      <trkpt lat="37.115568984299898" lon="-8.150017987936735">
        <ele>29.940000000000001</ele>
        <time>2025-05-07T11:26:24Z</time>
      </trkpt>
      <trkpt lat="37.115608965978026" lon="-8.14994296990335">
        <ele>30.420000000000002</ele>
        <time>2025-05-07T11:26:25Z</time>
      </trkpt>
      <trkpt lat="37.115647019818425" lon="-8.149874992668629">
        <ele>31.379999999999999</ele>
        <time>2025-05-07T11:26:26Z</time>
      </trkpt>
      <trkpt lat="37.115712985396385" lon="-8.149740966036916">
        <ele>32.340000000000003</ele>
        <time>2025-05-07T11:26:28Z</time>
      </trkpt>
      <trkpt lat="37.115737041458488" lon="-8.149686986580491">
        <ele>33.299999999999997</ele>
        <time>2025-05-07T11:26:29Z</time>
      </trkpt>
      <trkpt lat="37.11576503701508" lon="-8.149624038487673">
        <ele>33.780000000000001</ele>
        <time>2025-05-07T11:26:30Z</time>
      </trkpt>
      <trkpt lat="37.11578699760139" lon="-8.149567963555455">
        <ele>34.259999999999998</ele>
        <time>2025-05-07T11:26:31Z</time>
      </trkpt>
      <trkpt lat="37.11580803617835" lon="-8.149515995755792">
        <ele>34.259999999999998</ele>
        <time>2025-05-07T11:26:32Z</time>
      </trkpt>
      <trkpt lat="37.11585103534162" lon="-8.149408958852291">
        <ele>34.259999999999998</ele>
        <time>2025-05-07T11:26:33Z</time>
      </trkpt>
      <trkpt lat="37.115852041170001" lon="-8.149406025186181">
        <ele>34.259999999999998</ele>
        <time>2025-05-07T11:26:34Z</time>
      </trkpt>
      <trkpt lat="37.115881964564323" lon="-8.149337964132428">
        <ele>34.259999999999998</ele>
        <time>2025-05-07T11:26:35Z</time>
      </trkpt>
      <trkpt lat="37.115911971777678" lon="-8.149265963584185">
        <ele>34.740000000000002</ele>
        <time>2025-05-07T11:26:36Z</time>
      </trkpt>
      <trkpt lat="37.115946002304554" lon="-8.149187006056309">
        <ele>35.710000000000001</ele>
        <time>2025-05-07T11:26:37Z</time>
      </trkpt>
      <trkpt lat="37.11598003283143" lon="-8.149108970537782">
        <ele>36.189999999999998</ele>
        <time>2025-05-07T11:26:38Z</time>
      </trkpt>
      <trkpt lat="37.11600199341774" lon="-8.149008974432945">
        <ele>36.670000000000002</ele>
        <time>2025-05-07T11:26:39Z</time>
      </trkpt>
      <trkpt lat="37.116027977317572" lon="-8.148896992206574">
        <ele>36.670000000000002</ele>
        <time>2025-05-07T11:26:40Z</time>
      </trkpt>
      <trkpt lat="37.116054967045784" lon="-8.148776041343808">
        <ele>37.149999999999999</ele>
        <time>2025-05-07T11:26:41Z</time>
      </trkpt>
      <trkpt lat="37.116083968430758" lon="-8.148648971691728">
        <ele>37.630000000000003</ele>
        <time>2025-05-07T11:26:42Z</time>
      </trkpt>
      <trkpt lat="37.116094026714563" lon="-8.14852399751544">
        <ele>38.109999999999999</ele>
        <time>2025-05-07T11:26:43Z</time>
      </trkpt>
      <trkpt lat="37.116167033091187" lon="-8.147768033668399">
        <ele>40.030000000000001</ele>
        <time>2025-05-07T11:26:48Z</time>
      </trkpt>
      <trkpt lat="37.116202991455793" lon="-8.147627972066402">
        <ele>40.509999999999998</ele>
        <time>2025-05-07T11:26:49Z</time>
      </trkpt>
      <trkpt lat="37.116253031417727" lon="-8.147477013990283">
        <ele>40.509999999999998</ele>
        <time>2025-05-07T11:26:50Z</time>
      </trkpt>
      <trkpt lat="37.116326037794352" lon="-8.147366037592292">
        <ele>40.509999999999998</ele>
        <time>2025-05-07T11:26:51Z</time>
      </trkpt>
      <trkpt lat="37.116403989493847" lon="-8.147250032052398">
        <ele>40.509999999999998</ele>
        <time>2025-05-07T11:26:52Z</time>
      </trkpt>
      <trkpt lat="37.116482025012374" lon="-8.147133020684123">
        <ele>40.030000000000001</ele>
        <time>2025-05-07T11:26:53Z</time>
      </trkpt>
      <trkpt lat="37.11737796664238" lon="-8.146126018837094">
        <ele>40.030000000000001</ele>
        <time>2025-05-07T11:27:03Z</time>
      </trkpt>
      <trkpt lat="37.117471005767584" lon="-8.146034991368651">
        <ele>40.030000000000001</ele>
        <time>2025-05-07T11:27:04Z</time>
      </trkpt>
      <trkpt lat="37.118345992639661" lon="-8.145517995581031">
        <ele>40.030000000000001</ele>
        <time>2025-05-07T11:27:12Z</time>
      </trkpt>
      <trkpt lat="37.118401983752847" lon="-8.145390003919601">
        <ele>40.030000000000001</ele>
        <time>2025-05-07T11:27:13Z</time>
      </trkpt>
      <trkpt lat="37.118449006229639" lon="-8.14525899477303">
        <ele>40.509999999999998</ele>
        <time>2025-05-07T11:27:14Z</time>
      </trkpt>
      <trkpt lat="37.118461998179555" lon="-8.145131003111601">
        <ele>40.509999999999998</ele>
        <time>2025-05-07T11:27:15Z</time>
      </trkpt>
      <trkpt lat="37.118446994572878" lon="-8.144983984529972">
        <ele>40.509999999999998</ele>
        <time>2025-05-07T11:27:16Z</time>
      </trkpt>
      <trkpt lat="37.118431990966201" lon="-8.144832020625472">
        <ele>40.509999999999998</ele>
        <time>2025-05-07T11:27:17Z</time>
      </trkpt>
      <trkpt lat="37.118190005421638" lon="-8.142913989722729">
        <ele>42.920000000000002</ele>
        <time>2025-05-07T11:27:30Z</time>
      </trkpt>
      <trkpt lat="37.118104007095098" lon="-8.141093021258712">
        <ele>45.799999999999997</ele>
        <time>2025-05-07T11:27:42Z</time>
      </trkpt>
      <trkpt lat="37.118164021521807" lon="-8.13913400284946">
        <ele>43.880000000000003</ele>
        <time>2025-05-07T11:27:55Z</time>
      </trkpt>
      <trkpt lat="37.118210960179567" lon="-8.139002993702889">
        <ele>43.880000000000003</ele>
        <time>2025-05-07T11:27:56Z</time>
      </trkpt>
      <trkpt lat="37.118269968777895" lon="-8.138913977891207">
        <ele>43.880000000000003</ele>
        <time>2025-05-07T11:27:57Z</time>
      </trkpt>
      <trkpt lat="37.11849401704967" lon="-8.138420032337308">
        <ele>41.950000000000003</ele>
        <time>2025-05-07T11:28:04Z</time>
      </trkpt>
      <trkpt lat="37.118512038141489" lon="-8.138402011245489">
        <ele>41.469999999999999</ele>
        <time>2025-05-07T11:28:05Z</time>
      </trkpt>
      <trkpt lat="37.118627959862351" lon="-8.138259015977383">
        <ele>40.509999999999998</ele>
        <time>2025-05-07T11:28:06Z</time>
      </trkpt>
      <trkpt lat="37.118635000661016" lon="-8.138162959367037">
        <ele>39.549999999999997</ele>
        <time>2025-05-07T11:28:07Z</time>
      </trkpt>
      <trkpt lat="37.118640029802918" lon="-8.138079978525639">
        <ele>39.07</ele>
        <time>2025-05-07T11:28:08Z</time>
      </trkpt>
      <trkpt lat="37.118625026196241" lon="-8.137959027662873">
        <ele>38.590000000000003</ele>
        <time>2025-05-07T11:28:09Z</time>
      </trkpt>
      <trkpt lat="37.118598958477378" lon="-8.137741014361382">
        <ele>38.109999999999999</ele>
        <time>2025-05-07T11:28:11Z</time>
      </trkpt>
      <trkpt lat="37.118584038689733" lon="-8.137620985507965">
        <ele>38.109999999999999</ele>
        <time>2025-05-07T11:28:12Z</time>
      </trkpt>
      <trkpt lat="37.118402989581227" lon="-8.136157002300024">
        <ele>37.630000000000003</ele>
        <time>2025-05-07T11:28:22Z</time>
      </trkpt>
      <trkpt lat="37.118185982108116" lon="-8.134218016639352">
        <ele>39.07</ele>
        <time>2025-05-07T11:28:35Z</time>
      </trkpt>
      <trkpt lat="37.118124961853027" lon="-8.133766986429691">
        <ele>39.07</ele>
        <time>2025-05-07T11:28:38Z</time>
      </trkpt>
      <trkpt lat="37.117942990735173" lon="-8.132266039028764">
        <ele>40.030000000000001</ele>
        <time>2025-05-07T11:28:48Z</time>
      </trkpt>
      <trkpt lat="37.11767703294754" lon="-8.130026981234551">
        <ele>38.109999999999999</ele>
        <time>2025-05-07T11:29:03Z</time>
      </trkpt>
      <trkpt lat="37.11737796664238" lon="-8.127629002556205">
        <ele>37.630000000000003</ele>
        <time>2025-05-07T11:29:19Z</time>
      </trkpt>
      <trkpt lat="37.11709700524807" lon="-8.125339988619089">
        <ele>36.670000000000002</ele>
        <time>2025-05-07T11:29:34Z</time>
      </trkpt>
      <trkpt lat="37.11679601110518" lon="-8.122749980539084">
        <ele>37.630000000000003</ele>
        <time>2025-05-07T11:29:51Z</time>
      </trkpt>
      <trkpt lat="37.116523012518883" lon="-8.120766989886761">
        <ele>38.109999999999999</ele>
        <time>2025-05-07T11:30:04Z</time>
      </trkpt>
      <trkpt lat="37.1160679589957" lon="-8.119181971997023">
        <ele>39.07</ele>
        <time>2025-05-07T11:30:15Z</time>
      </trkpt>
      <trkpt lat="37.115782974287868" lon="-8.118328023701906">
        <ele>38.590000000000003</ele>
        <time>2025-05-07T11:30:21Z</time>
      </trkpt>
      <trkpt lat="37.115734023973346" lon="-8.118191985413432">
        <ele>38.109999999999999</ele>
        <time>2025-05-07T11:30:22Z</time>
      </trkpt>
      <trkpt lat="37.11552900262177" lon="-8.11805997043848">
        <ele>38.109999999999999</ele>
        <time>2025-05-07T11:30:23Z</time>
      </trkpt>
      <trkpt lat="37.115506958216429" lon="-8.118029963225126">
        <ele>37.630000000000003</ele>
        <time>2025-05-07T11:30:24Z</time>
      </trkpt>
      <trkpt lat="37.115446021780372" lon="-8.117943964898586">
        <ele>37.149999999999999</ele>
        <time>2025-05-07T11:30:25Z</time>
      </trkpt>
      <trkpt lat="37.115438980981708" lon="-8.117825025692582">
        <ele>37.149999999999999</ele>
        <time>2025-05-07T11:30:26Z</time>
      </trkpt>
      <trkpt lat="37.11544300429523" lon="-8.11780197545886">
        <ele>37.149999999999999</ele>
        <time>2025-05-07T11:30:27Z</time>
      </trkpt>
      <trkpt lat="37.115406962111592" lon="-8.117587985470891">
        <ele>37.149999999999999</ele>
        <time>2025-05-07T11:30:28Z</time>
      </trkpt>
      <trkpt lat="37.115521039813757" lon="-8.117470974102616">
        <ele>36.670000000000002</ele>
        <time>2025-05-07T11:30:29Z</time>
      </trkpt>
      <trkpt lat="37.115491032600403" lon="-8.117351029068232">
        <ele>36.189999999999998</ele>
        <time>2025-05-07T11:30:30Z</time>
      </trkpt>
      <trkpt lat="37.115460019558668" lon="-8.117231000214815">
        <ele>35.710000000000001</ele>
        <time>2025-05-07T11:30:31Z</time>
      </trkpt>
      <trkpt lat="37.115058023482561" lon="-8.115961980074644">
        <ele>33.299999999999997</ele>
        <time>2025-05-07T11:30:40Z</time>
      </trkpt>
      <trkpt lat="37.114524012431502" lon="-8.114258022978902">
        <ele>33.299999999999997</ele>
        <time>2025-05-07T11:30:50Z</time>
      </trkpt>
      <trkpt lat="37.113993018865585" lon="-8.112564962357283">
        <ele>33.780000000000001</ele>
        <time>2025-05-07T11:31:00Z</time>
      </trkpt>
      <trkpt lat="37.113222973421216" lon="-8.110013008117676">
        <ele>34.740000000000002</ele>
        <time>2025-05-07T11:31:15Z</time>
      </trkpt>
      <trkpt lat="37.112687034532428" lon="-8.108048960566521">
        <ele>35.710000000000001</ele>
        <time>2025-05-07T11:31:26Z</time>
      </trkpt>
      <trkpt lat="37.112259976565838" lon="-8.106070999056101">
        <ele>35.229999999999997</ele>
        <time>2025-05-07T11:31:37Z</time>
      </trkpt>
      <trkpt lat="37.112169032916427" lon="-8.105646958574653">
        <ele>35.229999999999997</ele>
        <time>2025-05-07T11:31:40Z</time>
      </trkpt>
      <trkpt lat="37.112141037359834" lon="-8.105517039075494">
        <ele>34.740000000000002</ele>
        <time>2025-05-07T11:31:41Z</time>
      </trkpt>
      <trkpt lat="37.111980020999908" lon="-8.105473034083843">
        <ele>34.259999999999998</ele>
        <time>2025-05-07T11:31:42Z</time>
      </trkpt>
      <trkpt lat="37.111923024058342" lon="-8.1052749697119">
        <ele>33.780000000000001</ele>
        <time>2025-05-07T11:31:43Z</time>
      </trkpt>
      <trkpt lat="37.111945990473032" lon="-8.105185031890869">
        <ele>33.780000000000001</ele>
        <time>2025-05-07T11:31:44Z</time>
      </trkpt>
      <trkpt lat="37.112007010728121" lon="-8.105012029409409">
        <ele>33.299999999999997</ele>
        <time>2025-05-07T11:31:45Z</time>
      </trkpt>
      <trkpt lat="37.111972980201244" lon="-8.104861993342638">
        <ele>33.299999999999997</ele>
        <time>2025-05-07T11:31:46Z</time>
      </trkpt>
      <trkpt lat="37.111936016008258" lon="-8.104699971154332">
        <ele>32.82</ele>
        <time>2025-05-07T11:31:47Z</time>
      </trkpt>
      <trkpt lat="37.111897962167859" lon="-8.104525962844491">
        <ele>32.82</ele>
        <time>2025-05-07T11:31:48Z</time>
      </trkpt>
      <trkpt lat="37.111462019383907" lon="-8.102518999949098">
        <ele>34.740000000000002</ele>
        <time>2025-05-07T11:31:59Z</time>
      </trkpt>
      <trkpt lat="37.110981987789273" lon="-8.100325036793947">
        <ele>36.189999999999998</ele>
        <time>2025-05-07T11:32:11Z</time>
      </trkpt>
      <trkpt lat="37.110502040013671" lon="-8.0981620028615">
        <ele>33.780000000000001</ele>
        <time>2025-05-07T11:32:23Z</time>
      </trkpt>
      <trkpt lat="37.110225018113852" lon="-8.097050981596112">
        <ele>31.859999999999999</ele>
        <time>2025-05-07T11:32:30Z</time>
      </trkpt>
      <trkpt lat="37.110191993415356" lon="-8.096938999369741">
        <ele>31.379999999999999</ele>
        <time>2025-05-07T11:32:31Z</time>
      </trkpt>
      <trkpt lat="37.110168021172285" lon="-8.096831040456891">
        <ele>31.379999999999999</ele>
        <time>2025-05-07T11:32:32Z</time>
      </trkpt>
      <trkpt lat="37.110056960955262" lon="-8.096751999109983">
        <ele>31.859999999999999</ele>
        <time>2025-05-07T11:32:33Z</time>
      </trkpt>
      <trkpt lat="37.110017985105515" lon="-8.096655020490289">
        <ele>31.859999999999999</ele>
        <time>2025-05-07T11:32:34Z</time>
      </trkpt>
      <trkpt lat="37.110047992318869" lon="-8.096511019393802">
        <ele>31.379999999999999</ele>
        <time>2025-05-07T11:32:35Z</time>
      </trkpt>
      <trkpt lat="37.110060984268785" lon="-8.096375986933708">
        <ele>31.379999999999999</ele>
        <time>2025-05-07T11:32:36Z</time>
      </trkpt>
      <trkpt lat="37.110067019239068" lon="-8.096231985837221">
        <ele>30.899999999999999</ele>
        <time>2025-05-07T11:32:37Z</time>
      </trkpt>
      <trkpt lat="37.1100739762187" lon="-8.096080021932721">
        <ele>30.899999999999999</ele>
        <time>2025-05-07T11:32:38Z</time>
      </trkpt>
      <trkpt lat="37.109834002330899" lon="-8.094309009611607">
        <ele>32.340000000000003</ele>
        <time>2025-05-07T11:32:48Z</time>
      </trkpt>
      <trkpt lat="37.109498977661133" lon="-8.091855961829424">
        <ele>32.340000000000003</ele>
        <time>2025-05-07T11:33:01Z</time>
      </trkpt>
      <trkpt lat="37.109185997396708" lon="-8.089186996221542">
        <ele>34.259999999999998</ele>
        <time>2025-05-07T11:33:16Z</time>
      </trkpt>
      <trkpt lat="37.109138974919915" lon="-8.088763961568475">
        <ele>33.780000000000001</ele>
        <time>2025-05-07T11:33:20Z</time>
      </trkpt>
      <trkpt lat="37.10912698879838" lon="-8.088661031797528">
        <ele>33.780000000000001</ele>
        <time>2025-05-07T11:33:21Z</time>
      </trkpt>
      <trkpt lat="37.108942000195384" lon="-8.088361965492368">
        <ele>34.740000000000002</ele>
        <time>2025-05-07T11:33:24Z</time>
      </trkpt>
      <trkpt lat="37.10899899713695" lon="-8.088207989931107">
        <ele>35.229999999999997</ele>
        <time>2025-05-07T11:33:25Z</time>
      </trkpt>
      <trkpt lat="37.109053982421756" lon="-8.087897021323443">
        <ele>35.710000000000001</ele>
        <time>2025-05-07T11:33:27Z</time>
      </trkpt>
      <trkpt lat="37.109031016007066" lon="-8.087744973599911">
        <ele>35.710000000000001</ele>
        <time>2025-05-07T11:33:28Z</time>
      </trkpt>
      <trkpt lat="37.109007965773344" lon="-8.087585968896747">
        <ele>36.189999999999998</ele>
        <time>2025-05-07T11:33:29Z</time>
      </trkpt>
      <trkpt lat="37.108713006600738" lon="-8.086031964048743">
        <ele>36.670000000000002</ele>
        <time>2025-05-07T11:33:38Z</time>
      </trkpt>
      <trkpt lat="37.108133984729648" lon="-8.083811011165381">
        <ele>39.07</ele>
        <time>2025-05-07T11:33:51Z</time>
      </trkpt>
      <trkpt lat="37.10715196095407" lon="-8.081520991399884">
        <ele>43.880000000000003</ele>
        <time>2025-05-07T11:34:05Z</time>
      </trkpt>
      <trkpt lat="37.106134984642267" lon="-8.079228037968278">
        <ele>48.200000000000003</ele>
        <time>2025-05-07T11:34:19Z</time>
      </trkpt>
      <trkpt lat="37.105328980833292" lon="-8.077421989291906">
        <ele>50.609999999999999</ele>
        <time>2025-05-07T11:34:31Z</time>
      </trkpt>
      <trkpt lat="37.105190008878708" lon="-8.077098028734326">
        <ele>51.090000000000003</ele>
        <time>2025-05-07T11:34:34Z</time>
      </trkpt>
      <trkpt lat="37.105014994740486" lon="-8.076989986002445">
        <ele>51.090000000000003</ele>
        <time>2025-05-07T11:34:35Z</time>
      </trkpt>
      <trkpt lat="37.105008959770203" lon="-8.076984034851193">
        <ele>51.57</ele>
        <time>2025-05-07T11:34:36Z</time>
      </trkpt>
      <trkpt lat="37.104939976707101" lon="-8.07691496796906">
        <ele>52.049999999999997</ele>
        <time>2025-05-07T11:34:37Z</time>
      </trkpt>
      <trkpt lat="37.104907035827637" lon="-8.076783958822489">
        <ele>52.530000000000001</ele>
        <time>2025-05-07T11:34:38Z</time>
      </trkpt>
      <trkpt lat="37.104907035827637" lon="-8.076731991022825">
        <ele>53.009999999999998</ele>
        <time>2025-05-07T11:34:39Z</time>
      </trkpt>
      <trkpt lat="37.104932013899088" lon="-8.076493022963405">
        <ele>53.009999999999998</ele>
        <time>2025-05-07T11:34:40Z</time>
      </trkpt>
      <trkpt lat="37.104875016957521" lon="-8.076370982453227">
        <ele>53.009999999999998</ele>
        <time>2025-05-07T11:34:41Z</time>
      </trkpt>
      <trkpt lat="37.104812990874052" lon="-8.076238967478275">
        <ele>53.009999999999998</ele>
        <time>2025-05-07T11:34:42Z</time>
      </trkpt>
      <trkpt lat="37.104749958962202" lon="-8.076103013008833">
        <ele>53.009999999999998</ele>
        <time>2025-05-07T11:34:43Z</time>
      </trkpt>
      <trkpt lat="37.103930963203311" lon="-8.07427198626101">
        <ele>55.409999999999997</ele>
        <time>2025-05-07T11:34:56Z</time>
      </trkpt>
      <trkpt lat="37.10298296995461" lon="-8.072114987298846">
        <ele>57.82</ele>
        <time>2025-05-07T11:35:10Z</time>
      </trkpt>
      <trkpt lat="37.102409983053803" lon="-8.070620996877551">
        <ele>57.340000000000003</ele>
        <time>2025-05-07T11:35:21Z</time>
      </trkpt>
      <trkpt lat="37.102007986977696" lon="-8.068564999848604">
        <ele>56.369999999999997</ele>
        <time>2025-05-07T11:35:35Z</time>
      </trkpt>
      <trkpt lat="37.101620994508266" lon="-8.066616961732507">
        <ele>59.259999999999998</ele>
        <time>2025-05-07T11:35:48Z</time>
      </trkpt>
      <trkpt lat="37.101312037557364" lon="-8.064977964386344">
        <ele>61.18</ele>
        <time>2025-05-07T11:35:59Z</time>
      </trkpt>
      <trkpt lat="37.100927978754044" lon="-8.063019029796124">
        <ele>61.659999999999997</ele>
        <time>2025-05-07T11:36:13Z</time>
      </trkpt>
      <trkpt lat="37.100656991824508" lon="-8.061675997450948">
        <ele>65.510000000000005</ele>
        <time>2025-05-07T11:36:25Z</time>
      </trkpt>
      <trkpt lat="37.100617010146379" lon="-8.061467036604881">
        <ele>66.950000000000003</ele>
        <time>2025-05-07T11:36:33Z</time>
      </trkpt>
      <trkpt lat="37.100542997941375" lon="-8.06116403080523">
        <ele>67.909999999999997</ele>
        <time>2025-05-07T11:36:41Z</time>
      </trkpt>
      <trkpt lat="37.100486000999808" lon="-8.060959009453654">
        <ele>68.390000000000001</ele>
        <time>2025-05-07T11:36:45Z</time>
      </trkpt>
      <trkpt lat="37.100461022928357" lon="-8.06090796366334">
        <ele>68.390000000000001</ele>
        <time>2025-05-07T11:36:46Z</time>
      </trkpt>
      <trkpt lat="37.100336970761418" lon="-8.060853984206915">
        <ele>68.390000000000001</ele>
        <time>2025-05-07T11:36:47Z</time>
      </trkpt>
      <trkpt lat="37.100311992689967" lon="-8.060838980600238">
        <ele>68.390000000000001</ele>
        <time>2025-05-07T11:36:48Z</time>
      </trkpt>
      <trkpt lat="37.100251978263259" lon="-8.060803022235632">
        <ele>68.870000000000005</ele>
        <time>2025-05-07T11:36:49Z</time>
      </trkpt>
      <trkpt lat="37.10023001767695" lon="-8.060715012252331">
        <ele>68.870000000000005</ele>
        <time>2025-05-07T11:36:50Z</time>
      </trkpt>
      <trkpt lat="37.10023001767695" lon="-8.060638988390565">
        <ele>69.349999999999994</ele>
        <time>2025-05-07T11:36:51Z</time>
      </trkpt>
      <trkpt lat="37.100267987698317" lon="-8.060593977570534">
        <ele>69.349999999999994</ele>
        <time>2025-05-07T11:36:52Z</time>
      </trkpt>
      <trkpt lat="37.100328002125025" lon="-8.060446958988905">
        <ele>69.349999999999994</ele>
        <time>2025-05-07T11:36:53Z</time>
      </trkpt>
      <trkpt lat="37.100315010175109" lon="-8.060357021167874">
        <ele>69.349999999999994</ele>
        <time>2025-05-07T11:36:54Z</time>
      </trkpt>
      <trkpt lat="37.100307969376445" lon="-8.060249984264374">
        <ele>69.349999999999994</ele>
        <time>2025-05-07T11:36:55Z</time>
      </trkpt>
      <trkpt lat="37.100162962451577" lon="-8.05901700630784">
        <ele>70.310000000000002</ele>
        <time>2025-05-07T11:37:04Z</time>
      </trkpt>
      <trkpt lat="37.099874038249254" lon="-8.057391000911593">
        <ele>70.310000000000002</ele>
        <time>2025-05-07T11:37:15Z</time>
      </trkpt>
      <trkpt lat="37.099683014675975" lon="-8.05635298602283">
        <ele>67.430000000000007</ele>
        <time>2025-05-07T11:37:24Z</time>
      </trkpt>
      <trkpt lat="37.09962903521955" lon="-8.056109994649887">
        <ele>66.950000000000003</ele>
        <time>2025-05-07T11:37:26Z</time>
      </trkpt>
      <trkpt lat="37.09960799664259" lon="-8.056004969403148">
        <ele>66.469999999999999</ele>
        <time>2025-05-07T11:37:27Z</time>
      </trkpt>
      <trkpt lat="37.099592993035913" lon="-8.055917965248227">
        <ele>66.469999999999999</ele>
        <time>2025-05-07T11:37:28Z</time>
      </trkpt>
      <trkpt lat="37.099567009136081" lon="-8.055762983858585">
        <ele>64.549999999999997</ele>
        <time>2025-05-07T11:37:34Z</time>
      </trkpt>
      <trkpt lat="37.099510012194514" lon="-8.055441034957767">
        <ele>63.100000000000001</ele>
        <time>2025-05-07T11:37:42Z</time>
      </trkpt>
      <trkpt lat="37.099281018599868" lon="-8.054228005930781">
        <ele>59.740000000000002</ele>
        <time>2025-05-07T11:37:50Z</time>
      </trkpt>
      <trkpt lat="37.098931996151805" lon="-8.052430003881455">
        <ele>52.049999999999997</ele>
        <time>2025-05-07T11:38:02Z</time>
      </trkpt>
      <trkpt lat="37.098730998113751" lon="-8.051414033398032">
        <ele>46.759999999999998</ele>
        <time>2025-05-07T11:38:09Z</time>
      </trkpt>
      <trkpt lat="37.09855598397553" lon="-8.051283024251461">
        <ele>45.799999999999997</ele>
        <time>2025-05-07T11:38:10Z</time>
      </trkpt>
      <trkpt lat="37.09855598397553" lon="-8.051283024251461">
        <ele>45.32</ele>
        <time>2025-05-07T11:38:11Z</time>
      </trkpt>
      <trkpt lat="37.09842698648572" lon="-8.051218986511231">
        <ele>45.32</ele>
        <time>2025-05-07T11:38:12Z</time>
      </trkpt>
      <trkpt lat="37.098373007029295" lon="-8.051111027598381">
        <ele>44.840000000000003</ele>
        <time>2025-05-07T11:38:13Z</time>
      </trkpt>
      <trkpt lat="37.09834098815918" lon="-8.051046989858151">
        <ele>43.880000000000003</ele>
        <time>2025-05-07T11:38:14Z</time>
      </trkpt>
      <trkpt lat="37.098330007866025" lon="-8.050869964063168">
        <ele>43.399999999999999</ele>
        <time>2025-05-07T11:38:15Z</time>
      </trkpt>
      <trkpt lat="37.098353980109096" lon="-8.050749013200402">
        <ele>42.439999999999998</ele>
        <time>2025-05-07T11:38:16Z</time>
      </trkpt>
      <trkpt lat="37.098413994535804" lon="-8.050659997388721">
        <ele>41.950000000000003</ele>
        <time>2025-05-07T11:38:17Z</time>
      </trkpt>
      <trkpt lat="37.098525976762176" lon="-8.050505015999079">
        <ele>41.469999999999999</ele>
        <time>2025-05-07T11:38:18Z</time>
      </trkpt>
      <trkpt lat="37.098506027832627" lon="-8.050397979095578">
        <ele>40.990000000000002</ele>
        <time>2025-05-07T11:38:19Z</time>
      </trkpt>
      <trkpt lat="37.098480965942144" lon="-8.050273004919291">
        <ele>40.509999999999998</ele>
        <time>2025-05-07T11:38:20Z</time>
      </trkpt>
      <trkpt lat="37.098449030891061" lon="-8.050132021307945">
        <ele>40.030000000000001</ele>
        <time>2025-05-07T11:38:21Z</time>
      </trkpt>
      <trkpt lat="37.09840402007103" lon="-8.049979973584414">
        <ele>39.549999999999997</ele>
        <time>2025-05-07T11:38:22Z</time>
      </trkpt>
      <trkpt lat="37.097750985994935" lon="-8.048642976209521">
        <ele>36.670000000000002</ele>
        <time>2025-05-07T11:38:31Z</time>
      </trkpt>
      <trkpt lat="37.096938025206327" lon="-8.046973971650004">
        <ele>34.259999999999998</ele>
        <time>2025-05-07T11:38:42Z</time>
      </trkpt>
      <trkpt lat="37.096263030543923" lon="-8.045812994241715">
        <ele>39.07</ele>
        <time>2025-05-07T11:38:50Z</time>
      </trkpt>
      <trkpt lat="37.096193041652441" lon="-8.045731019228697">
        <ele>40.509999999999998</ele>
        <time>2025-05-07T11:38:51Z</time>
      </trkpt>
      <trkpt lat="37.096106959506869" lon="-8.045661030337215">
        <ele>41.469999999999999</ele>
        <time>2025-05-07T11:38:52Z</time>
      </trkpt>
      <trkpt lat="37.095996988937259" lon="-8.045625993981957">
        <ele>41.950000000000003</ele>
        <time>2025-05-07T11:38:53Z</time>
      </trkpt>
      <trkpt lat="37.095887018367648" lon="-8.045591041445732">
        <ele>42.920000000000002</ele>
        <time>2025-05-07T11:38:54Z</time>
      </trkpt>
      <trkpt lat="37.095788028091192" lon="-8.045560028403997">
        <ele>42.920000000000002</ele>
        <time>2025-05-07T11:38:55Z</time>
      </trkpt>
      <trkpt lat="37.095683002844453" lon="-8.045516023412347">
        <ele>43.399999999999999</ele>
        <time>2025-05-07T11:38:56Z</time>
      </trkpt>
      <trkpt lat="37.095603039488196" lon="-8.045446034520865">
        <ele>43.399999999999999</ele>
        <time>2025-05-07T11:38:57Z</time>
      </trkpt>
      <trkpt lat="37.095451997593045" lon="-8.045319970697165">
        <ele>43.399999999999999</ele>
        <time>2025-05-07T11:38:59Z</time>
      </trkpt>
      <trkpt lat="37.095391983166337" lon="-8.04526599124074">
        <ele>43.399999999999999</ele>
        <time>2025-05-07T11:39:00Z</time>
      </trkpt>
      <trkpt lat="37.095128037035465" lon="-8.045283006504178">
        <ele>43.880000000000003</ele>
        <time>2025-05-07T11:39:03Z</time>
      </trkpt>
      <trkpt lat="37.095070034265518" lon="-8.045232966542244">
        <ele>43.880000000000003</ele>
        <time>2025-05-07T11:39:04Z</time>
      </trkpt>
      <trkpt lat="37.094994010403752" lon="-8.04511796683073">
        <ele>43.880000000000003</ele>
        <time>2025-05-07T11:39:05Z</time>
      </trkpt>
      <trkpt lat="37.094994010403752" lon="-8.0450280290097">
        <ele>44.359999999999999</ele>
        <time>2025-05-07T11:39:06Z</time>
      </trkpt>
      <trkpt lat="37.094994010403752" lon="-8.044974971562624">
        <ele>43.880000000000003</ele>
        <time>2025-05-07T11:39:07Z</time>
      </trkpt>
      <trkpt lat="37.095013037323952" lon="-8.044804986566305">
        <ele>43.880000000000003</ele>
        <time>2025-05-07T11:39:08Z</time>
      </trkpt>
      <trkpt lat="37.094965009018779" lon="-8.044715970754623">
        <ele>43.880000000000003</ele>
        <time>2025-05-07T11:39:09Z</time>
      </trkpt>
      <trkpt lat="37.094908012077212" lon="-8.044610023498535">
        <ele>43.880000000000003</ele>
        <time>2025-05-07T11:39:10Z</time>
      </trkpt>
      <trkpt lat="37.094858977943659" lon="-8.044532993808389">
        <ele>43.880000000000003</ele>
        <time>2025-05-07T11:39:11Z</time>
      </trkpt>
      <trkpt lat="37.094801981002092" lon="-8.044440960511565">
        <ele>43.399999999999999</ele>
        <time>2025-05-07T11:39:12Z</time>
      </trkpt>
      <trkpt lat="37.094178032130003" lon="-8.043406968936324">
        <ele>45.799999999999997</ele>
        <time>2025-05-07T11:39:21Z</time>
      </trkpt>
      <trkpt lat="37.093658018857241" lon="-8.04223501123488">
        <ele>47.719999999999999</ele>
        <time>2025-05-07T11:39:30Z</time>
      </trkpt>
      <trkpt lat="37.093053013086319" lon="-8.040743032470346">
        <ele>52.049999999999997</ele>
        <time>2025-05-07T11:39:42Z</time>
      </trkpt>
      <trkpt lat="37.093022000044584" lon="-8.040673965588212">
        <ele>52.049999999999997</ele>
        <time>2025-05-07T11:39:43Z</time>
      </trkpt>
      <trkpt lat="37.092995010316372" lon="-8.040615962818265">
        <ele>52.530000000000001</ele>
        <time>2025-05-07T11:39:44Z</time>
      </trkpt>
      <trkpt lat="37.092976989224553" lon="-8.040575981140137">
        <ele>52.530000000000001</ele>
        <time>2025-05-07T11:39:45Z</time>
      </trkpt>
      <trkpt lat="37.092890990898013" lon="-8.04053901694715">
        <ele>53.490000000000002</ele>
        <time>2025-05-07T11:39:46Z</time>
      </trkpt>
      <trkpt lat="37.092890990898013" lon="-8.04047497920692">
        <ele>53.969999999999999</ele>
        <time>2025-05-07T11:39:47Z</time>
      </trkpt>
      <trkpt lat="37.092890990898013" lon="-8.040403984487057">
        <ele>54.450000000000003</ele>
        <time>2025-05-07T11:39:48Z</time>
      </trkpt>
      <trkpt lat="37.092617992311716" lon="-8.039664030075073">
        <ele>59.259999999999998</ele>
        <time>2025-05-07T11:39:56Z</time>
      </trkpt>
      <trkpt lat="37.09197903983295" lon="-8.038213960826397">
        <ele>66.469999999999999</ele>
        <time>2025-05-07T11:40:07Z</time>
      </trkpt>
      <trkpt lat="37.091170018538833" lon="-8.037258004769683">
        <ele>70.790000000000006</ele>
        <time>2025-05-07T11:40:17Z</time>
      </trkpt>
      <trkpt lat="37.09023904055357" lon="-8.036271035671234">
        <ele>70.790000000000006</ele>
        <time>2025-05-07T11:40:28Z</time>
      </trkpt>
      <trkpt lat="37.089850036427379" lon="-8.035850012674928">
        <ele>69.829999999999998</ele>
        <time>2025-05-07T11:40:35Z</time>
      </trkpt>
      <trkpt lat="37.089687008410692" lon="-8.035678016021848">
        <ele>70.310000000000002</ele>
        <time>2025-05-07T11:40:43Z</time>
      </trkpt>
      <trkpt lat="37.089594975113869" lon="-8.035600986331701">
        <ele>70.310000000000002</ele>
        <time>2025-05-07T11:40:45Z</time>
      </trkpt>
      <trkpt lat="37.089521968737245" lon="-8.035594029352069">
        <ele>70.790000000000006</ele>
        <time>2025-05-07T11:40:46Z</time>
      </trkpt>
      <trkpt lat="37.089485004544258" lon="-8.035609032958746">
        <ele>70.790000000000006</ele>
        <time>2025-05-07T11:40:47Z</time>
      </trkpt>
      <trkpt lat="37.08944502286613" lon="-8.035587994381785">
        <ele>70.790000000000006</ele>
        <time>2025-05-07T11:40:48Z</time>
      </trkpt>
      <trkpt lat="37.089427001774311" lon="-8.035542983561754">
        <ele>70.790000000000006</ele>
        <time>2025-05-07T11:40:49Z</time>
      </trkpt>
      <trkpt lat="37.089415015652776" lon="-8.03551197052002">
        <ele>70.790000000000006</ele>
        <time>2025-05-07T11:40:50Z</time>
      </trkpt>
      <trkpt lat="37.089414009824395" lon="-8.035408034920692">
        <ele>70.790000000000006</ele>
        <time>2025-05-07T11:40:51Z</time>
      </trkpt>
      <trkpt lat="37.089376961812377" lon="-8.035356989130378">
        <ele>70.790000000000006</ele>
        <time>2025-05-07T11:40:52Z</time>
      </trkpt>
      <trkpt lat="37.08933899179101" lon="-8.035306027159095">
        <ele>70.790000000000006</ele>
        <time>2025-05-07T11:40:53Z</time>
      </trkpt>
      <trkpt lat="37.089298004284501" lon="-8.035262022167444">
        <ele>70.790000000000006</ele>
        <time>2025-05-07T11:40:54Z</time>
      </trkpt>
      <trkpt lat="37.089262967929244" lon="-8.035223968327045">
        <ele>70.790000000000006</ele>
        <time>2025-05-07T11:40:55Z</time>
      </trkpt>
      <trkpt lat="37.089236984029412" lon="-8.035195972770453">
        <ele>71.269999999999996</ele>
        <time>2025-05-07T11:40:56Z</time>
      </trkpt>
      <trkpt lat="37.089220974594355" lon="-8.035178035497665">
        <ele>71.269999999999996</ele>
        <time>2025-05-07T11:40:57Z</time>
      </trkpt>
      <trkpt lat="37.089220974594355" lon="-8.035178035497665">
        <ele>71.269999999999996</ele>
        <time>2025-05-07T11:40:58Z</time>
      </trkpt>
      <trkpt lat="37.089085020124912" lon="-8.035031016916037">
        <ele>70.790000000000006</ele>
        <time>2025-05-07T11:41:09Z</time>
      </trkpt>
      <trkpt lat="37.088879998773336" lon="-8.034786013886333">
        <ele>71.760000000000005</ele>
        <time>2025-05-07T11:41:15Z</time>
      </trkpt>
      <trkpt lat="37.088825013488531" lon="-8.034720970317721">
        <ele>71.760000000000005</ele>
        <time>2025-05-07T11:41:16Z</time>
      </trkpt>
      <trkpt lat="37.088192012161016" lon="-8.033908009529114">
        <ele>67.909999999999997</ele>
        <time>2025-05-07T11:41:26Z</time>
      </trkpt>
      <trkpt lat="37.087794961407781" lon="-8.033335022628307">
        <ele>66.469999999999999</ele>
        <time>2025-05-07T11:41:32Z</time>
      </trkpt>
      <trkpt lat="37.087731007486582" lon="-8.033243995159864">
        <ele>66.469999999999999</ele>
        <time>2025-05-07T11:41:33Z</time>
      </trkpt>
      <trkpt lat="37.087418027222157" lon="-8.032791037112474">
        <ele>65.030000000000001</ele>
        <time>2025-05-07T11:41:38Z</time>
      </trkpt>
      <trkpt lat="37.087079985067248" lon="-8.031913032755256">
        <ele>60.700000000000003</ele>
        <time>2025-05-07T11:41:48Z</time>
      </trkpt>
      <trkpt lat="37.087024999782443" lon="-8.031685966998339">
        <ele>60.700000000000003</ele>
        <time>2025-05-07T11:41:51Z</time>
      </trkpt>
      <trkpt lat="37.087005972862244" lon="-8.031608015298843">
        <ele>61.18</ele>
        <time>2025-05-07T11:41:52Z</time>
      </trkpt>
      <trkpt lat="37.086779996752739" lon="-8.030786002054811">
        <ele>65.030000000000001</ele>
        <time>2025-05-07T11:42:04Z</time>
      </trkpt>
      <trkpt lat="37.086770022287965" lon="-8.030737973749638">
        <ele>65.030000000000001</ele>
        <time>2025-05-07T11:42:05Z</time>
      </trkpt>
      <trkpt lat="37.086759964004159" lon="-8.030681982636452">
        <ele>64.549999999999997</ele>
        <time>2025-05-07T11:42:06Z</time>
      </trkpt>
      <trkpt lat="37.086748983711004" lon="-8.030624985694885">
        <ele>64.549999999999997</ele>
        <time>2025-05-07T11:42:07Z</time>
      </trkpt>
      <trkpt lat="37.08673800341785" lon="-8.030563965439796">
        <ele>64.549999999999997</ele>
        <time>2025-05-07T11:42:08Z</time>
      </trkpt>
      <trkpt lat="37.086729034781456" lon="-8.030500011518598">
        <ele>64.549999999999997</ele>
        <time>2025-05-07T11:42:09Z</time>
      </trkpt>
      <trkpt lat="37.086721993982792" lon="-8.030436979606748">
        <ele>64.549999999999997</ele>
        <time>2025-05-07T11:42:10Z</time>
      </trkpt>
      <trkpt lat="37.086711013689637" lon="-8.030341006815434">
        <ele>64.549999999999997</ele>
        <time>2025-05-07T11:42:12Z</time>
      </trkpt>
      <trkpt lat="37.086668014526367" lon="-8.030190970748663">
        <ele>64.549999999999997</ele>
        <time>2025-05-07T11:42:13Z</time>
      </trkpt>
      <trkpt lat="37.086657034233212" lon="-8.03016297519207">
        <ele>64.549999999999997</ele>
        <time>2025-05-07T11:42:14Z</time>
      </trkpt>
      <trkpt lat="37.086210027337074" lon="-8.029182041063905">
        <ele>62.140000000000001</ele>
        <time>2025-05-07T11:42:24Z</time>
      </trkpt>
      <trkpt lat="37.085561016574502" lon="-8.027742030099034">
        <ele>61.659999999999997</ele>
        <time>2025-05-07T11:42:37Z</time>
      </trkpt>
      <trkpt lat="37.085122978314757" lon="-8.026306964457035">
        <ele>62.619999999999997</ele>
        <time>2025-05-07T11:42:49Z</time>
      </trkpt>
      <trkpt lat="37.084862971678376" lon="-8.025023024529219">
        <ele>59.740000000000002</ele>
        <time>2025-05-07T11:43:00Z</time>
      </trkpt>
      <trkpt lat="37.084601959213614" lon="-8.023786023259163">
        <ele>58.299999999999997</ele>
        <time>2025-05-07T11:43:10Z</time>
      </trkpt>
      <trkpt lat="37.08437698893249" lon="-8.022386999800801">
        <ele>59.259999999999998</ele>
        <time>2025-05-07T11:43:22Z</time>
      </trkpt>
      <trkpt lat="37.084285961464047" lon="-8.021123008802533">
        <ele>62.140000000000001</ele>
        <time>2025-05-07T11:43:32Z</time>
      </trkpt>
      <trkpt lat="37.084169033914804" lon="-8.019399018958211">
        <ele>64.549999999999997</ele>
        <time>2025-05-07T11:43:44Z</time>
      </trkpt>
      <trkpt lat="37.084035007283092" lon="-8.01780603826046">
        <ele>63.100000000000001</ele>
        <time>2025-05-07T11:43:55Z</time>
      </trkpt>
      <trkpt lat="37.083765026181936" lon="-8.016149019822478">
        <ele>58.299999999999997</ele>
        <time>2025-05-07T11:44:05Z</time>
      </trkpt>
      <trkpt lat="37.08373200148344" lon="-8.01494998857379">
        <ele>59.259999999999998</ele>
        <time>2025-05-07T11:44:13Z</time>
      </trkpt>
      <trkpt lat="37.083614990115166" lon="-8.014012975618243">
        <ele>60.219999999999999</ele>
        <time>2025-05-07T11:44:19Z</time>
      </trkpt>
      <trkpt lat="37.083060024306178" lon="-8.012820985168219">
        <ele>53.009999999999998</ele>
        <time>2025-05-07T11:44:27Z</time>
      </trkpt>
      <trkpt lat="37.082287967205048" lon="-8.011321965605021">
        <ele>48.68</ele>
        <time>2025-05-07T11:44:37Z</time>
      </trkpt>
      <trkpt lat="37.081509036943316" lon="-8.009225986897945">
        <ele>45.32</ele>
        <time>2025-05-07T11:44:49Z</time>
      </trkpt>
      <trkpt lat="37.08141197450459" lon="-8.00880596973002">
        <ele>44.359999999999999</ele>
        <time>2025-05-07T11:44:51Z</time>
      </trkpt>
      <trkpt lat="37.081080973148346" lon="-8.006424000486732">
        <ele>40.030000000000001</ele>
        <time>2025-05-07T11:45:03Z</time>
      </trkpt>
      <trkpt lat="37.081109974533319" lon="-8.004168011248112">
        <ele>45.32</ele>
        <time>2025-05-07T11:45:14Z</time>
      </trkpt>
      <trkpt lat="37.080950969830155" lon="-8.002630015835166">
        <ele>47.719999999999999</ele>
        <time>2025-05-07T11:45:22Z</time>
      </trkpt>
      <trkpt lat="37.080410001799464" lon="-8.000303031876683">
        <ele>48.200000000000003</ele>
        <time>2025-05-07T11:45:35Z</time>
      </trkpt>
      <trkpt lat="37.079979004338384" lon="-7.997854007408023">
        <ele>43.399999999999999</ele>
        <time>2025-05-07T11:45:48Z</time>
      </trkpt>
      <trkpt lat="37.079564016312361" lon="-7.995106000453234">
        <ele>49.649999999999999</ele>
        <time>2025-05-07T11:46:02Z</time>
      </trkpt>
      <trkpt lat="37.079058000817895" lon="-7.992580030113459">
        <ele>58.299999999999997</ele>
        <time>2025-05-07T11:46:15Z</time>
      </trkpt>
      <trkpt lat="37.078581992536783" lon="-7.991365995258093">
        <ele>58.299999999999997</ele>
        <time>2025-05-07T11:46:22Z</time>
      </trkpt>
      <trkpt lat="37.078505968675017" lon="-7.991224005818367">
        <ele>57.82</ele>
        <time>2025-05-07T11:46:23Z</time>
      </trkpt>
      <trkpt lat="37.07767004147172" lon="-7.989920033141971">
        <ele>56.369999999999997</ele>
        <time>2025-05-07T11:46:32Z</time>
      </trkpt>
      <trkpt lat="37.077594017609954" lon="-7.989761028438807">
        <ele>56.369999999999997</ele>
        <time>2025-05-07T11:46:33Z</time>
      </trkpt>
      <trkpt lat="37.0771149918437" lon="-7.988641038537026">
        <ele>54.450000000000003</ele>
        <time>2025-05-07T11:46:41Z</time>
      </trkpt>
      <trkpt lat="37.077035028487444" lon="-7.988354964181781">
        <ele>53.969999999999999</ele>
        <time>2025-05-07T11:46:43Z</time>
      </trkpt>
      <trkpt lat="37.076991023495793" lon="-7.988197971135378">
        <ele>53.490000000000002</ele>
        <time>2025-05-07T11:46:44Z</time>
      </trkpt>
      <trkpt lat="37.076976019889116" lon="-7.988043995574117">
        <ele>53.490000000000002</ele>
        <time>2025-05-07T11:46:45Z</time>
      </trkpt>
      <trkpt lat="37.07687602378428" lon="-7.986201988533139">
        <ele>55.890000000000001</ele>
        <time>2025-05-07T11:46:56Z</time>
      </trkpt>
      <trkpt lat="37.076804023236036" lon="-7.985689016059041">
        <ele>55.409999999999997</ele>
        <time>2025-05-07T11:46:59Z</time>
      </trkpt>
      <trkpt lat="37.076759012416005" lon="-7.985516013577581">
        <ele>55.409999999999997</ele>
        <time>2025-05-07T11:47:00Z</time>
      </trkpt>
      <trkpt lat="37.076692041009665" lon="-7.985351979732513">
        <ele>55.409999999999997</ele>
        <time>2025-05-07T11:47:01Z</time>
      </trkpt>
      <trkpt lat="37.076622974127531" lon="-7.985183000564575">
        <ele>55.409999999999997</ele>
        <time>2025-05-07T11:47:02Z</time>
      </trkpt>
      <trkpt lat="37.076553991064429" lon="-7.985013015568256">
        <ele>55.409999999999997</ele>
        <time>2025-05-07T11:47:03Z</time>
      </trkpt>
      <trkpt lat="37.076460029929876" lon="-7.984857028350234">
        <ele>54.93</ele>
        <time>2025-05-07T11:47:04Z</time>
      </trkpt>
      <trkpt lat="37.07636397331953" lon="-7.984710009768605">
        <ele>54.93</ele>
        <time>2025-05-07T11:47:05Z</time>
      </trkpt>
      <trkpt lat="37.076265988871455" lon="-7.984559973701835">
        <ele>54.450000000000003</ele>
        <time>2025-05-07T11:47:06Z</time>
      </trkpt>
      <trkpt lat="37.075140969827771" lon="-7.98276599496603">
        <ele>50.130000000000003</ele>
        <time>2025-05-07T11:47:18Z</time>
      </trkpt>
      <trkpt lat="37.074290961027145" lon="-7.980755008757114">
        <ele>48.200000000000003</ele>
        <time>2025-05-07T11:47:30Z</time>
      </trkpt>
      <trkpt lat="37.073500966653228" lon="-7.979244003072381">
        <ele>46.759999999999998</ele>
        <time>2025-05-07T11:47:40Z</time>
      </trkpt>
      <trkpt lat="37.073284965008497" lon="-7.979011991992593">
        <ele>44.840000000000003</ele>
        <time>2025-05-07T11:47:42Z</time>
      </trkpt>
      <trkpt lat="37.07197998650372" lon="-7.978169023990631">
        <ele>35.229999999999997</ele>
        <time>2025-05-07T11:47:53Z</time>
      </trkpt>
      <trkpt lat="37.070631003007293" lon="-7.977261012420058">
        <ele>32.82</ele>
        <time>2025-05-07T11:48:04Z</time>
      </trkpt>
      <trkpt lat="37.069300962612033" lon="-7.976563973352313">
        <ele>32.340000000000003</ele>
        <time>2025-05-07T11:48:13Z</time>
      </trkpt>
      <trkpt lat="37.067986009642482" lon="-7.975731985643506">
        <ele>32.340000000000003</ele>
        <time>2025-05-07T11:48:22Z</time>
      </trkpt>
      <trkpt lat="37.066486990079284" lon="-7.974292980507016">
        <ele>29.940000000000001</ele>
        <time>2025-05-07T11:48:33Z</time>
      </trkpt>
      <trkpt lat="37.064680019393563" lon="-7.972040008753538">
        <ele>25.609999999999999</ele>
        <time>2025-05-07T11:48:48Z</time>
      </trkpt>
      <trkpt lat="37.062817979604006" lon="-7.969629960134625">
        <ele>29.940000000000001</ele>
        <time>2025-05-07T11:49:03Z</time>
      </trkpt>
      <trkpt lat="37.061844002455473" lon="-7.968047959730029">
        <ele>31.859999999999999</ele>
        <time>2025-05-07T11:49:13Z</time>
      </trkpt>
      <trkpt lat="37.061631018295884" lon="-7.967694997787476">
        <ele>31.859999999999999</ele>
        <time>2025-05-07T11:49:19Z</time>
      </trkpt>
      <trkpt lat="37.06153797917068" lon="-7.967538004741073">
        <ele>30.899999999999999</ele>
        <time>2025-05-07T11:49:29Z</time>
      </trkpt>
      <trkpt lat="37.061456004157662" lon="-7.967400960624218">
        <ele>30.899999999999999</ele>
        <time>2025-05-07T11:49:57Z</time>
      </trkpt>
      <trkpt lat="37.060898020863533" lon="-7.966490015387535">
        <ele>30.899999999999999</ele>
        <time>2025-05-07T11:50:04Z</time>
      </trkpt>
      <trkpt lat="37.059690020978451" lon="-7.964518005028367">
        <ele>29.940000000000001</ele>
        <time>2025-05-07T11:50:15Z</time>
      </trkpt>
      <trkpt lat="37.058096034452319" lon="-7.961901007220149">
        <ele>29.460000000000001</ele>
        <time>2025-05-07T11:50:29Z</time>
      </trkpt>
      <trkpt lat="37.056577987968922" lon="-7.959533035755158">
        <ele>27.530000000000001</ele>
        <time>2025-05-07T11:50:42Z</time>
      </trkpt>
      <trkpt lat="37.054800018668175" lon="-7.957015028223395">
        <ele>24.649999999999999</ele>
        <time>2025-05-07T11:50:57Z</time>
      </trkpt>
      <trkpt lat="37.053440976887941" lon="-7.955149970948696">
        <ele>24.170000000000002</ele>
        <time>2025-05-07T11:51:10Z</time>
      </trkpt>
      <trkpt lat="37.052259966731071" lon="-7.954454021528363">
        <ele>27.050000000000001</ele>
        <time>2025-05-07T11:51:18Z</time>
      </trkpt>
      <trkpt lat="37.050473028793931" lon="-7.95343897305429">
        <ele>26.09</ele>
        <time>2025-05-07T11:51:30Z</time>
      </trkpt>
      <trkpt lat="37.04920400865376" lon="-7.952967993915081">
        <ele>25.129999999999999</ele>
        <time>2025-05-07T11:51:38Z</time>
      </trkpt>
      <trkpt lat="37.048324998468161" lon="-7.952918959781528">
        <ele>24.649999999999999</ele>
        <time>2025-05-07T11:51:45Z</time>
      </trkpt>
      <trkpt lat="37.046935027465224" lon="-7.952822986990213">
        <ele>22.73</ele>
        <time>2025-05-07T11:51:55Z</time>
      </trkpt>
      <trkpt lat="37.045729039236903" lon="-7.952569015324116">
        <ele>21.77</ele>
        <time>2025-05-07T11:52:03Z</time>
      </trkpt>
      <trkpt lat="37.044467981904745" lon="-7.952238013967872">
        <ele>19.84</ele>
        <time>2025-05-07T11:52:12Z</time>
      </trkpt>
      <trkpt lat="37.042919006198645" lon="-7.95174197293818">
        <ele>16.48</ele>
        <time>2025-05-07T11:52:22Z</time>
      </trkpt>
      <trkpt lat="37.041009021922946" lon="-7.950879978016019">
        <ele>15.52</ele>
        <time>2025-05-07T11:52:33Z</time>
      </trkpt>
      <trkpt lat="37.039631959050894" lon="-7.950220992788672">
        <ele>17.440000000000001</ele>
        <time>2025-05-07T11:52:41Z</time>
      </trkpt>
      <trkpt lat="37.039461974054575" lon="-7.950152009725571">
        <ele>17.440000000000001</ele>
        <time>2025-05-07T11:52:42Z</time>
      </trkpt>
      <trkpt lat="37.03794501721859" lon="-7.949890997260809">
        <ele>16.960000000000001</ele>
        <time>2025-05-07T11:52:50Z</time>
      </trkpt>
      <trkpt lat="37.036067973822355" lon="-7.950116973370314">
        <ele>15.52</ele>
        <time>2025-05-07T11:53:00Z</time>
      </trkpt>
      <trkpt lat="37.035159962251782" lon="-7.950217975303531">
        <ele>14.56</ele>
        <time>2025-05-07T11:53:05Z</time>
      </trkpt>
      <trkpt lat="37.034986037760973" lon="-7.950180005282164">
        <ele>14.56</ele>
        <time>2025-05-07T11:53:06Z</time>
      </trkpt>
      <trkpt lat="37.034804988652468" lon="-7.950131976976991">
        <ele>14.56</ele>
        <time>2025-05-07T11:53:07Z</time>
      </trkpt>
      <trkpt lat="37.034655958414078" lon="-7.950068023055792">
        <ele>14.08</ele>
        <time>2025-05-07T11:53:08Z</time>
      </trkpt>
      <trkpt lat="37.03450701199472" lon="-7.950003985315561">
        <ele>14.08</ele>
        <time>2025-05-07T11:53:09Z</time>
      </trkpt>
      <trkpt lat="37.03366999514401" lon="-7.949621016159654">
        <ele>13.119999999999999</ele>
        <time>2025-05-07T11:53:16Z</time>
      </trkpt>
      <trkpt lat="37.033361960202456" lon="-7.949481038376689">
        <ele>13.6</ele>
        <time>2025-05-07T11:53:19Z</time>
      </trkpt>
      <trkpt lat="37.033261964097619" lon="-7.949436027556658">
        <ele>14.56</ele>
        <time>2025-05-07T11:53:20Z</time>
      </trkpt>
      <trkpt lat="37.031835028901696" lon="-7.948771007359028">
        <ele>16.960000000000001</ele>
        <time>2025-05-07T11:53:33Z</time>
      </trkpt>
      <trkpt lat="37.030647983774543" lon="-7.948010014370084">
        <ele>17.920000000000002</ele>
        <time>2025-05-07T11:53:44Z</time>
      </trkpt>
      <trkpt lat="37.029300006106496" lon="-7.94705799780786">
        <ele>18.399999999999999</ele>
        <time>2025-05-07T11:53:58Z</time>
      </trkpt>
      <trkpt lat="37.028670022264123" lon="-7.946608979254961">
        <ele>17.920000000000002</ele>
        <time>2025-05-07T11:54:07Z</time>
      </trkpt>
      <trkpt lat="37.028414960950613" lon="-7.946422984823585">
        <ele>18.879999999999999</ele>
        <time>2025-05-07T11:54:12Z</time>
      </trkpt>
      <trkpt lat="37.028161995112896" lon="-7.946254005655646">
        <ele>19.359999999999999</ele>
        <time>2025-05-07T11:54:17Z</time>
      </trkpt>
      <trkpt lat="37.028112038969994" lon="-7.946234978735447">
        <ele>19.359999999999999</ele>
        <time>2025-05-07T11:54:18Z</time>
      </trkpt>
      <trkpt lat="37.028067028149962" lon="-7.946218969300389">
        <ele>19.359999999999999</ele>
        <time>2025-05-07T11:54:19Z</time>
      </trkpt>
      <trkpt lat="37.02802000567317" lon="-7.946203965693712">
        <ele>19.359999999999999</ele>
        <time>2025-05-07T11:54:20Z</time>
      </trkpt>
      <trkpt lat="37.027970971539617" lon="-7.946187034249306">
        <ele>19.359999999999999</ele>
        <time>2025-05-07T11:54:21Z</time>
      </trkpt>
      <trkpt lat="37.027911962941289" lon="-7.946168007329106">
        <ele>19.359999999999999</ele>
        <time>2025-05-07T11:54:22Z</time>
      </trkpt>
      <trkpt lat="37.02767601236701" lon="-7.946073962375522">
        <ele>18.879999999999999</ele>
        <time>2025-05-07T11:54:25Z</time>
      </trkpt>
      <trkpt lat="37.027597976848483" lon="-7.946007996797562">
        <ele>19.359999999999999</ele>
        <time>2025-05-07T11:54:26Z</time>
      </trkpt>
      <trkpt lat="37.02752597630024" lon="-7.945924010127783">
        <ele>19.84</ele>
        <time>2025-05-07T11:54:27Z</time>
      </trkpt>
      <trkpt lat="37.027059020474553" lon="-7.945196963846684">
        <ele>23.210000000000001</ele>
        <time>2025-05-07T11:54:35Z</time>
      </trkpt>
      <trkpt lat="37.026989031583071" lon="-7.945150025188923">
        <ele>22.73</ele>
        <time>2025-05-07T11:54:36Z</time>
      </trkpt>
      <trkpt lat="37.026335997506976" lon="-7.944709975272417">
        <ele>22.25</ele>
        <time>2025-05-07T11:54:43Z</time>
      </trkpt>
      <trkpt lat="37.025532005354762" lon="-7.944039003923535">
        <ele>20.32</ele>
        <time>2025-05-07T11:54:53Z</time>
      </trkpt>
      <trkpt lat="37.025436032563448" lon="-7.943956023082137">
        <ele>20.32</ele>
        <time>2025-05-07T11:54:55Z</time>
      </trkpt>
      <trkpt lat="37.025203015655279" lon="-7.943796012550592">
        <ele>20.32</ele>
        <time>2025-05-07T11:55:00Z</time>
      </trkpt>
      <trkpt lat="37.025145012885332" lon="-7.943788971751928">
        <ele>19.84</ele>
        <time>2025-05-07T11:55:01Z</time>
      </trkpt>
      <trkpt lat="37.025080975145102" lon="-7.943781008943915">
        <ele>19.84</ele>
        <time>2025-05-07T11:55:02Z</time>
      </trkpt>
      <trkpt lat="37.02494896017015" lon="-7.943766005337238">
        <ele>19.84</ele>
        <time>2025-05-07T11:55:04Z</time>
      </trkpt>
      <trkpt lat="37.02488299459219" lon="-7.943760976195335">
        <ele>19.84</ele>
        <time>2025-05-07T11:55:05Z</time>
      </trkpt>
      <trkpt lat="37.024811999872327" lon="-7.943774973973632">
        <ele>19.84</ele>
        <time>2025-05-07T11:55:06Z</time>
      </trkpt>
      <trkpt lat="37.024729019030929" lon="-7.9437489900738">
        <ele>19.84</ele>
        <time>2025-05-07T11:55:07Z</time>
      </trkpt>
      <trkpt lat="37.024655006825924" lon="-7.943706996738911">
        <ele>19.84</ele>
        <time>2025-05-07T11:55:08Z</time>
      </trkpt>
      <trkpt lat="37.024590969085693" lon="-7.943629967048764">
        <ele>19.84</ele>
        <time>2025-05-07T11:55:09Z</time>
      </trkpt>
      <trkpt lat="37.024523997679353" lon="-7.943555032834411">
        <ele>19.84</ele>
        <time>2025-05-07T11:55:10Z</time>
      </trkpt>
      <trkpt lat="37.024459037929773" lon="-7.943484038114548">
        <ele>19.84</ele>
        <time>2025-05-07T11:55:11Z</time>
      </trkpt>
      <trkpt lat="37.024392988532782" lon="-7.943410025909543">
        <ele>19.359999999999999</ele>
        <time>2025-05-07T11:55:12Z</time>
      </trkpt>
      <trkpt lat="37.024322999641299" lon="-7.943328972905874">
        <ele>19.359999999999999</ele>
        <time>2025-05-07T11:55:13Z</time>
      </trkpt>
      <trkpt lat="37.024246975779533" lon="-7.943242974579334">
        <ele>18.879999999999999</ele>
        <time>2025-05-07T11:55:14Z</time>
      </trkpt>
      <trkpt lat="37.024167012423277" lon="-7.943150019273162">
        <ele>18.879999999999999</ele>
        <time>2025-05-07T11:55:15Z</time>
      </trkpt>
      <trkpt lat="37.023240979760885" lon="-7.942001027986407">
        <ele>20.809999999999999</ele>
        <time>2025-05-07T11:55:26Z</time>
      </trkpt>
      <trkpt lat="37.022278988733888" lon="-7.940818006172776">
        <ele>27.050000000000001</ele>
        <time>2025-05-07T11:55:37Z</time>
      </trkpt>
      <trkpt lat="37.021559989079833" lon="-7.939976966008544">
        <ele>27.530000000000001</ele>
        <time>2025-05-07T11:55:45Z</time>
      </trkpt>
      <trkpt lat="37.021393021568656" lon="-7.939776973798871">
        <ele>27.050000000000001</ele>
        <time>2025-05-07T11:55:47Z</time>
      </trkpt>
      <trkpt lat="37.021257989108562" lon="-7.939603971317411">
        <ele>26.09</ele>
        <time>2025-05-07T11:55:49Z</time>
      </trkpt>
      <trkpt lat="37.021199986338615" lon="-7.939539011567831">
        <ele>26.09</ele>
        <time>2025-05-07T11:55:50Z</time>
      </trkpt>
      <trkpt lat="37.021154975518584" lon="-7.939488971605897">
        <ele>25.609999999999999</ele>
        <time>2025-05-07T11:55:51Z</time>
      </trkpt>
      <trkpt lat="37.021136032417417" lon="-7.939467011019588">
        <ele>25.129999999999999</ele>
        <time>2025-05-07T11:55:52Z</time>
      </trkpt>
      <trkpt lat="37.021137038245797" lon="-7.939468016847968">
        <ele>24.170000000000002</ele>
        <time>2025-05-07T11:55:53Z</time>
      </trkpt>
      <trkpt lat="37.021094039082527" lon="-7.939382018521428">
        <ele>23.690000000000001</ele>
        <time>2025-05-07T11:55:54Z</time>
      </trkpt>
      <trkpt lat="37.021004017442465" lon="-7.939382018521428">
        <ele>22.73</ele>
        <time>2025-05-07T11:55:55Z</time>
      </trkpt>
      <trkpt lat="37.02095003798604" lon="-7.939382018521428">
        <ele>22.25</ele>
        <time>2025-05-07T11:55:56Z</time>
      </trkpt>
      <trkpt lat="37.020903015509248" lon="-7.939382018521428">
        <ele>22.25</ele>
        <time>2025-05-07T11:55:57Z</time>
      </trkpt>
      <trkpt lat="37.020889017730951" lon="-7.939404984936118">
        <ele>21.77</ele>
        <time>2025-05-07T11:55:58Z</time>
      </trkpt>
      <trkpt lat="37.020854987204075" lon="-7.93947204016149">
        <ele>21.289999999999999</ele>
        <time>2025-05-07T11:55:59Z</time>
      </trkpt>
      <trkpt lat="37.020754991099238" lon="-7.939673960208893">
        <ele>19.359999999999999</ele>
        <time>2025-05-07T11:56:02Z</time>
      </trkpt>
      <trkpt lat="37.020707968622446" lon="-7.939768005162478">
        <ele>18.399999999999999</ele>
        <time>2025-05-07T11:56:03Z</time>
      </trkpt>
      <trkpt lat="37.020678967237473" lon="-7.939819972962141">
        <ele>17.920000000000002</ele>
        <time>2025-05-07T11:56:04Z</time>
      </trkpt>
      <trkpt lat="37.020642003044486" lon="-7.939889039844275">
        <ele>16.960000000000001</ele>
        <time>2025-05-07T11:56:05Z</time>
      </trkpt>
      <trkpt lat="37.020602021366358" lon="-7.939961040392518">
        <ele>16.48</ele>
        <time>2025-05-07T11:56:06Z</time>
      </trkpt>
      <trkpt lat="37.020523985847831" lon="-7.940105041489005">
        <ele>15.039999999999999</ele>
        <time>2025-05-07T11:56:08Z</time>
      </trkpt>
      <trkpt lat="37.020496996119618" lon="-7.940154997631908">
        <ele>13.6</ele>
        <time>2025-05-07T11:56:09Z</time>
      </trkpt>
      <trkpt lat="37.020402029156685" lon="-7.940197996795178">
        <ele>12.630000000000001</ele>
        <time>2025-05-07T11:56:10Z</time>
      </trkpt>
      <trkpt lat="37.02035098336637" lon="-7.940152985975146">
        <ele>11.67</ele>
        <time>2025-05-07T11:56:11Z</time>
      </trkpt>
      <trkpt lat="37.020286023616791" lon="-7.94009598903358">
        <ele>11.19</ele>
        <time>2025-05-07T11:56:12Z</time>
      </trkpt>
      <trkpt lat="37.020216034725308" lon="-7.94003396295011">
        <ele>10.710000000000001</ele>
        <time>2025-05-07T11:56:13Z</time>
      </trkpt>
      <trkpt lat="37.020141016691923" lon="-7.939969003200531">
        <ele>10.23</ele>
        <time>2025-05-07T11:56:14Z</time>
      </trkpt>
      <trkpt lat="37.019396033138037" lon="-7.939309012144804">
        <ele>9.75</ele>
        <time>2025-05-07T11:56:25Z</time>
      </trkpt>
      <trkpt lat="37.019200986251235" lon="-7.939133998006582">
        <ele>9.27</ele>
        <time>2025-05-07T11:56:29Z</time>
      </trkpt>
      <trkpt lat="37.018909966573119" lon="-7.938917996361852">
        <ele>8.789999999999999</ele>
        <time>2025-05-07T11:56:38Z</time>
      </trkpt>
      <trkpt lat="37.018884988501668" lon="-7.938963007181883">
        <ele>8.789999999999999</ele>
        <time>2025-05-07T11:56:39Z</time>
      </trkpt>
      <trkpt lat="37.018854981288314" lon="-7.939017992466688">
        <ele>8.789999999999999</ele>
        <time>2025-05-07T11:56:40Z</time>
      </trkpt>
      <trkpt lat="37.018754985183477" lon="-7.939197029918432">
        <ele>8.789999999999999</ele>
        <time>2025-05-07T11:56:43Z</time>
      </trkpt>
      <trkpt lat="37.018647026270628" lon="-7.939404984936118">
        <ele>8.789999999999999</ele>
        <time>2025-05-07T11:56:48Z</time>
      </trkpt>
      <trkpt lat="37.018624981865287" lon="-7.939448989927769">
        <ele>8.789999999999999</ele>
        <time>2025-05-07T11:56:49Z</time>
      </trkpt>
      <trkpt lat="37.018546024337411" lon="-7.939445972442627">
        <ele>8.789999999999999</ele>
        <time>2025-05-07T11:56:50Z</time>
      </trkpt>
      <trkpt lat="37.018497996032238" lon="-7.939411019906402">
        <ele>8.789999999999999</ele>
        <time>2025-05-07T11:56:51Z</time>
      </trkpt>
      <trkpt lat="37.018446028232574" lon="-7.939373971894383">
        <ele>8.310000000000001</ele>
        <time>2025-05-07T11:56:52Z</time>
      </trkpt>
      <trkpt lat="37.018368998542428" lon="-7.939316974952817">
        <ele>7.83</ele>
        <time>2025-05-07T11:56:53Z</time>
      </trkpt>
      <trkpt lat="37.018318036571145" lon="-7.939316974952817">
        <ele>7.83</ele>
        <time>2025-05-07T11:56:54Z</time>
      </trkpt>
      <trkpt lat="37.018252993002534" lon="-7.939316974952817">
        <ele>7.83</ele>
        <time>2025-05-07T11:56:55Z</time>
      </trkpt>
      <trkpt lat="37.018154002726078" lon="-7.939316974952817">
        <ele>7.83</ele>
        <time>2025-05-07T11:56:56Z</time>
      </trkpt>
      <trkpt lat="37.018138999119401" lon="-7.939302977174521">
        <ele>7.83</ele>
        <time>2025-05-07T11:56:57Z</time>
      </trkpt>
      <trkpt lat="37.018084013834596" lon="-7.939253021031618">
        <ele>7.83</ele>
        <time>2025-05-07T11:56:58Z</time>
      </trkpt>
      <trkpt lat="37.0180319622159" lon="-7.939204992726445">
        <ele>8.789999999999999</ele>
        <time>2025-05-07T11:56:59Z</time>
      </trkpt>
      <trkpt lat="37.017933977767825" lon="-7.939114971086383">
        <ele>9.27</ele>
        <time>2025-05-07T11:57:01Z</time>
      </trkpt>
      <trkpt lat="37.017866000533104" lon="-7.938963007181883">
        <ele>9.75</ele>
        <time>2025-05-07T11:57:03Z</time>
      </trkpt>
      <trkpt lat="37.017844961956143" lon="-7.938881032168865">
        <ele>10.710000000000001</ele>
        <time>2025-05-07T11:57:04Z</time>
      </trkpt>
      <trkpt lat="37.017804980278015" lon="-7.938724039122462">
        <ele>11.19</ele>
        <time>2025-05-07T11:57:06Z</time>
      </trkpt>
      <trkpt lat="37.017740020528436" lon="-7.938476018607616">
        <ele>11.67</ele>
        <time>2025-05-07T11:57:10Z</time>
      </trkpt>
      <trkpt lat="37.017725016921759" lon="-7.938416004180908">
        <ele>11.67</ele>
        <time>2025-05-07T11:57:11Z</time>
      </trkpt>
      <trkpt lat="37.017712024971843" lon="-7.938380967825651">
        <ele>11.67</ele>
        <time>2025-05-07T11:57:12Z</time>
      </trkpt>
      <trkpt lat="37.017697021365166" lon="-7.938340986147523">
        <ele>11.67</ele>
        <time>2025-05-07T11:57:13Z</time>
      </trkpt>
      <trkpt lat="37.017683023586869" lon="-7.938305027782917">
        <ele>11.67</ele>
        <time>2025-05-07T11:57:14Z</time>
      </trkpt>
      <trkpt lat="37.017667014151812" lon="-7.938261022791266">
        <ele>11.67</ele>
        <time>2025-05-07T11:57:15Z</time>
      </trkpt>
      <trkpt lat="37.017643041908741" lon="-7.93820695951581">
        <ele>11.67</ele>
        <time>2025-05-07T11:57:16Z</time>
      </trkpt>
      <trkpt lat="37.017338024452329" lon="-7.93753799982369">
        <ele>7.83</ele>
        <time>2025-05-07T11:57:26Z</time>
      </trkpt>
      <trkpt lat="37.017322015017271" lon="-7.937503969296813">
        <ele>5.91</ele>
        <time>2025-05-07T11:57:34Z</time>
      </trkpt>
      <trkpt lat="37.017195029184222" lon="-7.937224013730884">
        <ele>3.02</ele>
        <time>2025-05-07T11:57:45Z</time>
      </trkpt>
      <trkpt lat="37.016991013661027" lon="-7.936782035976648">
        <ele>0.62</ele>
        <time>2025-05-07T11:57:53Z</time>
      </trkpt>
      <trkpt lat="37.016967041417956" lon="-7.936737025156617">
        <ele>0.62</ele>
        <time>2025-05-07T11:57:54Z</time>
      </trkpt>
      <trkpt lat="37.016944997012615" lon="-7.936695031821728">
        <ele>0.62</ele>
        <time>2025-05-07T11:57:55Z</time>
      </trkpt>
      <trkpt lat="37.01689001172781" lon="-7.936591012403369">
        <ele>1.58</ele>
        <time>2025-05-07T11:57:58Z</time>
      </trkpt>
      <trkpt lat="37.016872996464372" lon="-7.936559999361634">
        <ele>1.1</ele>
        <time>2025-05-07T11:57:59Z</time>
      </trkpt>
      <trkpt lat="37.016845000907779" lon="-7.93650601990521">
        <ele>1.58</ele>
        <time>2025-05-07T11:58:00Z</time>
      </trkpt>
      <trkpt lat="37.016813987866044" lon="-7.936437958851457">
        <ele>2.06</ele>
        <time>2025-05-07T11:58:01Z</time>
      </trkpt>
      <trkpt lat="37.016779035329819" lon="-7.936361012980342">
        <ele>3.02</ele>
        <time>2025-05-07T11:58:02Z</time>
      </trkpt>
      <trkpt lat="37.016680967062712" lon="-7.936145011335611">
        <ele>4.94</ele>
        <time>2025-05-07T11:58:05Z</time>
      </trkpt>
      <trkpt lat="37.016591029241681" lon="-7.935985000804067">
        <ele>6.39</ele>
        <time>2025-05-07T11:58:08Z</time>
      </trkpt>
      <trkpt lat="37.016555992886424" lon="-7.935940995812416">
        <ele>6.87</ele>
        <time>2025-05-07T11:58:09Z</time>
      </trkpt>
      <trkpt lat="37.016519028693438" lon="-7.935894979164004">
        <ele>6.87</ele>
        <time>2025-05-07T11:58:10Z</time>
      </trkpt>
      <trkpt lat="37.016480974853039" lon="-7.935848040506244">
        <ele>7.35</ele>
        <time>2025-05-07T11:58:11Z</time>
      </trkpt>
      <trkpt lat="37.016447028145194" lon="-7.93579900637269">
        <ele>7.83</ele>
        <time>2025-05-07T11:58:12Z</time>
      </trkpt>
      <trkpt lat="37.016386007890105" lon="-7.93569196946919">
        <ele>7.83</ele>
        <time>2025-05-07T11:58:14Z</time>
      </trkpt>
      <trkpt lat="37.016157014295459" lon="-7.935413019731641">
        <ele>8.310000000000001</ele>
        <time>2025-05-07T11:58:25Z</time>
      </trkpt>
      <trkpt lat="37.016075039282441" lon="-7.935345964506269">
        <ele>7.83</ele>
        <time>2025-05-07T11:58:34Z</time>
      </trkpt>
      <trkpt lat="37.016075039282441" lon="-7.935345964506269">
        <ele>7.83</ele>
        <time>2025-05-07T11:58:37Z</time>
      </trkpt>
      <trkpt lat="37.016222979873419" lon="-7.935190983116627">
        <ele>7.35</ele>
        <time>2025-05-07T11:58:38Z</time>
      </trkpt>
      <trkpt lat="37.016222979873419" lon="-7.935112025588751">
        <ele>6.39</ele>
        <time>2025-05-07T11:58:42Z</time>
      </trkpt>
      <trkpt lat="37.016222979873419" lon="-7.935112025588751">
        <ele>5.91</ele>
        <time>2025-05-07T11:58:43Z</time>
      </trkpt>
      <trkpt lat="37.016222979873419" lon="-7.935112025588751">
        <ele>5.42</ele>
        <time>2025-05-07T11:58:44Z</time>
      </trkpt>
      <trkpt lat="37.016222979873419" lon="-7.935112025588751">
        <ele>4.94</ele>
        <time>2025-05-07T11:58:59Z</time>
      </trkpt>
      <trkpt lat="37.016233038157225" lon="-7.93500398285687">
        <ele>23.690000000000001</ele>
        <time>2025-05-07T12:56:11Z</time>
      </trkpt>
      <trkpt lat="37.016167994588614" lon="-7.935018986463547">
        <ele>20.809999999999999</ele>
        <time>2025-05-07T12:56:31Z</time>
      </trkpt>
      <trkpt lat="37.016165982931852" lon="-7.935063997283578">
        <ele>18.399999999999999</ele>
        <time>2025-05-07T12:56:49Z</time>
      </trkpt>
      <trkpt lat="37.016165982931852" lon="-7.935063997283578">
        <ele>18.399999999999999</ele>
        <time>2025-05-07T12:57:03Z</time>
      </trkpt>
      <trkpt lat="37.016330016776919" lon="-7.935069026425481">
        <ele>18.399999999999999</ele>
        <time>2025-05-07T12:57:05Z</time>
      </trkpt>
      <trkpt lat="37.016203030943871" lon="-7.935249991714954">
        <ele>17.920000000000002</ele>
        <time>2025-05-07T12:57:06Z</time>
      </trkpt>
      <trkpt lat="37.016189033165574" lon="-7.935257032513619">
        <ele>17.440000000000001</ele>
        <time>2025-05-07T12:57:07Z</time>
      </trkpt>
      <trkpt lat="37.016176041215658" lon="-7.935263989493251">
        <ele>16.960000000000001</ele>
        <time>2025-05-07T12:57:08Z</time>
      </trkpt>
      <trkpt lat="37.016090964898467" lon="-7.93530598282814">
        <ele>14.56</ele>
        <time>2025-05-07T12:57:12Z</time>
      </trkpt>
      <trkpt lat="37.016050983220339" lon="-7.93532601557672">
        <ele>14.56</ele>
        <time>2025-05-07T12:57:13Z</time>
      </trkpt>
      <trkpt lat="37.015997003763914" lon="-7.935332972556353">
        <ele>14.08</ele>
        <time>2025-05-07T12:57:14Z</time>
      </trkpt>
      <trkpt lat="37.015932966023684" lon="-7.935341019183397">
        <ele>14.08</ele>
        <time>2025-05-07T12:57:15Z</time>
      </trkpt>
      <trkpt lat="37.015877980738878" lon="-7.93534797616303">
        <ele>14.08</ele>
        <time>2025-05-07T12:57:16Z</time>
      </trkpt>
      <trkpt lat="37.015762981027365" lon="-7.935359040275216">
        <ele>13.6</ele>
        <time>2025-05-07T12:57:18Z</time>
      </trkpt>
      <trkpt lat="37.015703972429037" lon="-7.935364991426468">
        <ele>13.6</ele>
        <time>2025-05-07T12:57:19Z</time>
      </trkpt>
      <trkpt lat="37.015080023556948" lon="-7.935443026944995">
        <ele>11.19</ele>
        <time>2025-05-07T12:57:30Z</time>
      </trkpt>
      <trkpt lat="37.014764025807381" lon="-7.935518966987729">
        <ele>10.23</ele>
        <time>2025-05-07T12:57:35Z</time>
      </trkpt>
      <trkpt lat="37.014764025807381" lon="-7.935518966987729">
        <ele>10.23</ele>
        <time>2025-05-07T12:57:36Z</time>
      </trkpt>
      <trkpt lat="37.014733012765646" lon="-7.935508992522955">
        <ele>9.75</ele>
        <time>2025-05-07T12:57:37Z</time>
      </trkpt>
      <trkpt lat="37.014685990288854" lon="-7.935470016673207">
        <ele>9.27</ele>
        <time>2025-05-07T12:57:38Z</time>
      </trkpt>
      <trkpt lat="37.014665035530925" lon="-7.935429029166699">
        <ele>9.27</ele>
        <time>2025-05-07T12:57:39Z</time>
      </trkpt>
      <trkpt lat="37.014674004167318" lon="-7.935344036668539">
        <ele>9.27</ele>
        <time>2025-05-07T12:57:40Z</time>
      </trkpt>
      <trkpt lat="37.014678027480841" lon="-7.93532601557672">
        <ele>9.27</ele>
        <time>2025-05-07T12:57:41Z</time>
      </trkpt>
      <trkpt lat="37.014751033857465" lon="-7.935248985886574">
        <ele>8.789999999999999</ele>
        <time>2025-05-07T12:57:42Z</time>
      </trkpt>
      <trkpt lat="37.014767965301871" lon="-7.935185031965375">
        <ele>8.310000000000001</ele>
        <time>2025-05-07T12:57:43Z</time>
      </trkpt>
      <trkpt lat="37.01478498056531" lon="-7.935122000053525">
        <ele>7.83</ele>
        <time>2025-05-07T12:57:44Z</time>
      </trkpt>
      <trkpt lat="37.014800990000367" lon="-7.935058968141675">
        <ele>7.35</ele>
        <time>2025-05-07T12:57:45Z</time>
      </trkpt>
      <trkpt lat="37.014816999435425" lon="-7.934999037533999">
        <ele>6.39</ele>
        <time>2025-05-07T12:57:46Z</time>
      </trkpt>
      <trkpt lat="37.014833008870482" lon="-7.934940028935671">
        <ele>5.91</ele>
        <time>2025-05-07T12:57:47Z</time>
      </trkpt>
      <trkpt lat="37.014858992770314" lon="-7.934612967073917">
        <ele>2.06</ele>
        <time>2025-05-07T12:57:52Z</time>
      </trkpt>
      <trkpt lat="37.014862010255456" lon="-7.934547001495957">
        <ele>1.58</ele>
        <time>2025-05-07T12:57:53Z</time>
      </trkpt>
      <trkpt lat="37.014867961406708" lon="-7.934364024549723">
        <ele>0.62</ele>
        <time>2025-05-07T12:57:56Z</time>
      </trkpt>
      <trkpt lat="37.01487097889185" lon="-7.934306021779776">
        <ele>0.62</ele>
        <time>2025-05-07T12:57:57Z</time>
      </trkpt>
      <trkpt lat="37.01487097889185" lon="-7.934193033725023">
        <ele>0.14</ele>
        <time>2025-05-07T12:57:59Z</time>
      </trkpt>
      <trkpt lat="37.01484801247716" lon="-7.934154979884625">
        <ele>-0.34</ele>
        <time>2025-05-07T12:58:00Z</time>
      </trkpt>
      <trkpt lat="37.014779029414058" lon="-7.934050960466266">
        <ele>-0.82</ele>
        <time>2025-05-07T12:58:02Z</time>
      </trkpt>
      <trkpt lat="37.01474198140204" lon="-7.93399496935308">
        <ele>-0.82</ele>
        <time>2025-05-07T12:58:03Z</time>
      </trkpt>
      <trkpt lat="37.014379967004061" lon="-7.933409996330738">
        <ele>-3.23</ele>
        <time>2025-05-07T12:58:14Z</time>
      </trkpt>
      <trkpt lat="37.01435498893261" lon="-7.933354005217552">
        <ele>-3.23</ele>
        <time>2025-05-07T12:58:15Z</time>
      </trkpt>
      <trkpt lat="37.014305032789707" lon="-7.933245040476322">
        <ele>-3.71</ele>
        <time>2025-05-07T12:58:17Z</time>
      </trkpt>
      <trkpt lat="37.014257004484534" lon="-7.933139009401202">
        <ele>-3.71</ele>
        <time>2025-05-07T12:58:19Z</time>
      </trkpt>
      <trkpt lat="37.01422699727118" lon="-7.933072960004211">
        <ele>-4.19</ele>
        <time>2025-05-07T12:58:20Z</time>
      </trkpt>
      <trkpt lat="37.014200007542968" lon="-7.933066003024578">
        <ele>-4.19</ele>
        <time>2025-05-07T12:58:21Z</time>
      </trkpt>
      <trkpt lat="37.014148961752653" lon="-7.933052005246282">
        <ele>-4.19</ele>
        <time>2025-05-07T12:58:22Z</time>
      </trkpt>
      <trkpt lat="37.014090036973357" lon="-7.933037001639605">
        <ele>-4.67</ele>
        <time>2025-05-07T12:58:23Z</time>
      </trkpt>
      <trkpt lat="37.013717964291573" lon="-7.932938011363149">
        <ele>-6.11</ele>
        <time>2025-05-07T12:58:32Z</time>
      </trkpt>
      <trkpt lat="37.013662979006767" lon="-7.932924013584852">
        <ele>-7.07</ele>
        <time>2025-05-07T12:58:34Z</time>
      </trkpt>
      <trkpt lat="37.013630038127303" lon="-7.932914961129427">
        <ele>-7.55</ele>
        <time>2025-05-07T12:58:35Z</time>
      </trkpt>
      <trkpt lat="37.013595001772046" lon="-7.932905992493033">
        <ele>-7.55</ele>
        <time>2025-05-07T12:58:36Z</time>
      </trkpt>
      <trkpt lat="37.013554014265537" lon="-7.932895012199879">
        <ele>-7.07</ele>
        <time>2025-05-07T12:58:37Z</time>
      </trkpt>
      <trkpt lat="37.013498023152351" lon="-7.932880008593202">
        <ele>-7.07</ele>
        <time>2025-05-07T12:58:38Z</time>
      </trkpt>
      <trkpt lat="37.013451000675559" lon="-7.932863999158144">
        <ele>-7.07</ele>
        <time>2025-05-07T12:58:39Z</time>
      </trkpt>
      <trkpt lat="37.013391992077231" lon="-7.932844972237945">
        <ele>-7.07</ele>
        <time>2025-05-07T12:58:40Z</time>
      </trkpt>
      <trkpt lat="37.013326026499271" lon="-7.932823011651635">
        <ele>-7.07</ele>
        <time>2025-05-07T12:58:41Z</time>
      </trkpt>
      <trkpt lat="37.013253020122647" lon="-7.932807002216578">
        <ele>-7.55</ele>
        <time>2025-05-07T12:58:42Z</time>
      </trkpt>
      <trkpt lat="37.013178002089262" lon="-7.932794010266662">
        <ele>-8.029999999999999</ele>
        <time>2025-05-07T12:58:43Z</time>
      </trkpt>
      <trkpt lat="37.013097032904625" lon="-7.932780012488365">
        <ele>-8.51</ele>
        <time>2025-05-07T12:58:44Z</time>
      </trkpt>
      <trkpt lat="37.013014974072576" lon="-7.932766014710069">
        <ele>-9</ele>
        <time>2025-05-07T12:58:45Z</time>
      </trkpt>
      <trkpt lat="37.012930987402797" lon="-7.932752016931772">
        <ele>-9</ele>
        <time>2025-05-07T12:58:46Z</time>
      </trkpt>
      <trkpt lat="37.012848006561399" lon="-7.932737013325095">
        <ele>-9.48</ele>
        <time>2025-05-07T12:58:47Z</time>
      </trkpt>
      <trkpt lat="37.011895989999175" lon="-7.93255596421659">
        <ele>-9.48</ele>
        <time>2025-05-07T12:58:58Z</time>
      </trkpt>
      <trkpt lat="37.011438002809882" lon="-7.932471977546811">
        <ele>-8.029999999999999</ele>
        <time>2025-05-07T12:59:04Z</time>
      </trkpt>
      <trkpt lat="37.011418975889683" lon="-7.932468038052321">
        <ele>-7.55</ele>
        <time>2025-05-07T12:59:05Z</time>
      </trkpt>
      <trkpt lat="37.011396009474993" lon="-7.932462003082037">
        <ele>-7.55</ele>
        <time>2025-05-07T12:59:06Z</time>
      </trkpt>
      <trkpt lat="37.011374970898032" lon="-7.932456973940134">
        <ele>-7.07</ele>
        <time>2025-05-07T12:59:07Z</time>
      </trkpt>
      <trkpt lat="37.011272963136435" lon="-7.932370975613594">
        <ele>-6.11</ele>
        <time>2025-05-07T12:59:08Z</time>
      </trkpt>
      <trkpt lat="37.011280003935099" lon="-7.932310961186886">
        <ele>-5.15</ele>
        <time>2025-05-07T12:59:09Z</time>
      </trkpt>
      <trkpt lat="37.011288972571492" lon="-7.932230997830629">
        <ele>-4.19</ele>
        <time>2025-05-07T12:59:10Z</time>
      </trkpt>
      <trkpt lat="37.011449988931417" lon="-7.931295996531844">
        <ele>1.1</ele>
        <time>2025-05-07T12:59:20Z</time>
      </trkpt>
      <trkpt lat="37.011473961174488" lon="-7.931197006255388">
        <ele>1.1</ele>
        <time>2025-05-07T12:59:21Z</time>
      </trkpt>
      <trkpt lat="37.011573035269976" lon="-7.931123999878764">
        <ele>1.58</ele>
        <time>2025-05-07T12:59:22Z</time>
      </trkpt>
      <trkpt lat="37.011614022776484" lon="-7.931009000167251">
        <ele>1.58</ele>
        <time>2025-05-07T12:59:23Z</time>
      </trkpt>
      <trkpt lat="37.011657021939754" lon="-7.930888971313834">
        <ele>1.58</ele>
        <time>2025-05-07T12:59:24Z</time>
      </trkpt>
      <trkpt lat="37.012332016602159" lon="-7.929814998060465">
        <ele>2.06</ele>
        <time>2025-05-07T12:59:34Z</time>
      </trkpt>
      <trkpt lat="37.012892011553049" lon="-7.928490992635489">
        <ele>3.5</ele>
        <time>2025-05-07T12:59:44Z</time>
      </trkpt>
      <trkpt lat="37.013226030394435" lon="-7.926898011937738">
        <ele>6.39</ele>
        <time>2025-05-07T12:59:55Z</time>
      </trkpt>
      <trkpt lat="37.013287972658873" lon="-7.926777983084321">
        <ele>6.39</ele>
        <time>2025-05-07T12:59:56Z</time>
      </trkpt>
      <trkpt lat="37.013357961550355" lon="-7.926673963665962">
        <ele>6.87</ele>
        <time>2025-05-07T12:59:57Z</time>
      </trkpt>
      <trkpt lat="37.013540016487241" lon="-7.926393002271652">
        <ele>7.35</ele>
        <time>2025-05-07T13:00:02Z</time>
      </trkpt>
      <trkpt lat="37.013544961810112" lon="-7.926385039463639">
        <ele>7.35</ele>
        <time>2025-05-07T13:00:05Z</time>
      </trkpt>
      <trkpt lat="37.013554014265537" lon="-7.926327036693692">
        <ele>7.83</ele>
        <time>2025-05-07T13:00:07Z</time>
      </trkpt>
      <trkpt lat="37.013536999002099" lon="-7.926268028095365">
        <ele>7.83</ele>
        <time>2025-05-07T13:00:08Z</time>
      </trkpt>
      <trkpt lat="37.01351897791028" lon="-7.926207007840276">
        <ele>8.310000000000001</ele>
        <time>2025-05-07T13:00:09Z</time>
      </trkpt>
      <trkpt lat="37.013524007052183" lon="-7.926092008128762">
        <ele>8.310000000000001</ele>
        <time>2025-05-07T13:00:10Z</time>
      </trkpt>
      <trkpt lat="37.013455023989081" lon="-7.925970973446965">
        <ele>8.310000000000001</ele>
        <time>2025-05-07T13:00:11Z</time>
      </trkpt>
      <trkpt lat="37.013443037867546" lon="-7.925897967070341">
        <ele>8.310000000000001</ele>
        <time>2025-05-07T13:00:12Z</time>
      </trkpt>
      <trkpt lat="37.013429962098598" lon="-7.925781961530447">
        <ele>8.789999999999999</ele>
        <time>2025-05-07T13:00:13Z</time>
      </trkpt>
      <trkpt lat="37.013424010947347" lon="-7.925666039809585">
        <ele>8.789999999999999</ele>
        <time>2025-05-07T13:00:14Z</time>
      </trkpt>
      <trkpt lat="37.013416970148683" lon="-7.925548022612929">
        <ele>9.27</ele>
        <time>2025-05-07T13:00:15Z</time>
      </trkpt>
      <trkpt lat="37.013416970148683" lon="-7.92542296461761">
        <ele>9.27</ele>
        <time>2025-05-07T13:00:16Z</time>
      </trkpt>
      <trkpt lat="37.013439014554024" lon="-7.925292039290071">
        <ele>9.27</ele>
        <time>2025-05-07T13:00:17Z</time>
      </trkpt>
      <trkpt lat="37.01373003423214" lon="-7.923524966463447">
        <ele>10.23</ele>
        <time>2025-05-07T13:00:29Z</time>
      </trkpt>
      <trkpt lat="37.014061035588384" lon="-7.921453965827823">
        <ele>11.19</ele>
        <time>2025-05-07T13:00:43Z</time>
      </trkpt>
      <trkpt lat="37.014530003070831" lon="-7.918642004951835">
        <ele>12.630000000000001</ele>
        <time>2025-05-07T13:01:02Z</time>
      </trkpt>
      <trkpt lat="37.01497801579535" lon="-7.916443012654781">
        <ele>10.710000000000001</ele>
        <time>2025-05-07T13:01:17Z</time>
      </trkpt>
      <trkpt lat="37.015514960512519" lon="-7.915457971394062">
        <ele>9.27</ele>
        <time>2025-05-07T13:01:25Z</time>
      </trkpt>
      <trkpt lat="37.015611017122865" lon="-7.915397034958005">
        <ele>9.75</ele>
        <time>2025-05-07T13:01:26Z</time>
      </trkpt>
      <trkpt lat="37.015691986307502" lon="-7.915350012481213">
        <ele>10.23</ele>
        <time>2025-05-07T13:01:27Z</time>
      </trkpt>
      <trkpt lat="37.015778990462422" lon="-7.915367027744651">
        <ele>10.710000000000001</ele>
        <time>2025-05-07T13:01:28Z</time>
      </trkpt>
      <trkpt lat="37.015830036252737" lon="-7.915407009422779">
        <ele>11.19</ele>
        <time>2025-05-07T13:01:29Z</time>
      </trkpt>
      <trkpt lat="37.015893990173936" lon="-7.915470041334629">
        <ele>11.67</ele>
        <time>2025-05-07T13:01:30Z</time>
      </trkpt>
      <trkpt lat="37.01594403013587" lon="-7.915521003305912">
        <ele>11.67</ele>
        <time>2025-05-07T13:01:31Z</time>
      </trkpt>
      <trkpt lat="37.016155002638698" lon="-7.915561990812421">
        <ele>12.15</ele>
        <time>2025-05-07T13:01:32Z</time>
      </trkpt>
      <trkpt lat="37.01622499153018" lon="-7.915513040497899">
        <ele>12.15</ele>
        <time>2025-05-07T13:01:33Z</time>
      </trkpt>
      <trkpt lat="37.016309984028339" lon="-7.915453026071191">
        <ele>12.15</ele>
        <time>2025-05-07T13:01:34Z</time>
      </trkpt>
      <trkpt lat="37.016408974304795" lon="-7.915383959189057">
        <ele>12.15</ele>
        <time>2025-05-07T13:01:35Z</time>
      </trkpt>
      <trkpt lat="37.016938962042332" lon="-7.915028985589743">
        <ele>13.6</ele>
        <time>2025-05-07T13:01:40Z</time>
      </trkpt>
      <trkpt lat="37.017884021624923" lon="-7.914559012278915">
        <ele>13.6</ele>
        <time>2025-05-07T13:01:47Z</time>
      </trkpt>
      <trkpt lat="37.019155975431204" lon="-7.914319038391113">
        <ele>15.52</ele>
        <time>2025-05-07T13:01:56Z</time>
      </trkpt>
      <trkpt lat="37.020405968651175" lon="-7.914536967873573">
        <ele>16</ele>
        <time>2025-05-07T13:02:05Z</time>
      </trkpt>
      <trkpt lat="37.021521013230085" lon="-7.91515002027154">
        <ele>16</ele>
        <time>2025-05-07T13:02:14Z</time>
      </trkpt>
      <trkpt lat="37.022700011730194" lon="-7.916208989918232">
        <ele>15.039999999999999</ele>
        <time>2025-05-07T13:02:25Z</time>
      </trkpt>
      <trkpt lat="37.023505009710789" lon="-7.916840985417366">
        <ele>14.56</ele>
        <time>2025-05-07T13:02:32Z</time>
      </trkpt>
      <trkpt lat="37.023629983887076" lon="-7.916917009279132">
        <ele>15.039999999999999</ele>
        <time>2025-05-07T13:02:33Z</time>
      </trkpt>
      <trkpt lat="37.023755041882396" lon="-7.916982974857092">
        <ele>15.039999999999999</ele>
        <time>2025-05-07T13:02:34Z</time>
      </trkpt>
      <trkpt lat="37.023896025493741" lon="-7.917007030919194">
        <ele>15.039999999999999</ele>
        <time>2025-05-07T13:02:35Z</time>
      </trkpt>
      <trkpt lat="37.024038014933467" lon="-7.917017005383968">
        <ele>15.039999999999999</ele>
        <time>2025-05-07T13:02:36Z</time>
      </trkpt>
      <trkpt lat="37.02417598105967" lon="-7.91699999012053">
        <ele>15.039999999999999</ele>
        <time>2025-05-07T13:02:37Z</time>
      </trkpt>
      <trkpt lat="37.024305984377861" lon="-7.916983980685473">
        <ele>15.039999999999999</ele>
        <time>2025-05-07T13:02:38Z</time>
      </trkpt>
      <trkpt lat="37.025088015943766" lon="-7.916846014559269">
        <ele>15.52</ele>
        <time>2025-05-07T13:02:44Z</time>
      </trkpt>
      <trkpt lat="37.02565697953105" lon="-7.91691298596561">
        <ele>16.48</ele>
        <time>2025-05-07T13:02:50Z</time>
      </trkpt>
      <trkpt lat="37.025793017819524" lon="-7.9167649615556">
        <ele>16.48</ele>
        <time>2025-05-07T13:02:51Z</time>
      </trkpt>
      <trkpt lat="37.025854038074613" lon="-7.916773008182645">
        <ele>16</ele>
        <time>2025-05-07T13:02:54Z</time>
      </trkpt>
      <trkpt lat="37.025967026129365" lon="-7.9167839884758">
        <ele>16</ele>
        <time>2025-05-07T13:02:55Z</time>
      </trkpt>
      <trkpt lat="37.026037015020847" lon="-7.916693966835737">
        <ele>16</ele>
        <time>2025-05-07T13:02:56Z</time>
      </trkpt>
      <trkpt lat="37.026634979993105" lon="-7.915912019088864">
        <ele>16.960000000000001</ele>
        <time>2025-05-07T13:03:04Z</time>
      </trkpt>
      <trkpt lat="37.02673296444118" lon="-7.915821997448802">
        <ele>16.960000000000001</ele>
        <time>2025-05-07T13:03:05Z</time>
      </trkpt>
      <trkpt lat="37.026849975809455" lon="-7.915762988850474">
        <ele>17.440000000000001</ele>
        <time>2025-05-07T13:03:06Z</time>
      </trkpt>
      <trkpt lat="37.026972016319633" lon="-7.915735999122262">
        <ele>17.920000000000002</ele>
        <time>2025-05-07T13:03:07Z</time>
      </trkpt>
      <trkpt lat="37.027099002152681" lon="-7.915708003565669">
        <ele>18.399999999999999</ele>
        <time>2025-05-07T13:03:08Z</time>
      </trkpt>
      <trkpt lat="37.027235962450504" lon="-7.915696017444134">
        <ele>18.879999999999999</ele>
        <time>2025-05-07T13:03:09Z</time>
      </trkpt>
      <trkpt lat="37.02737401239574" lon="-7.915704986080527">
        <ele>18.879999999999999</ele>
        <time>2025-05-07T13:03:10Z</time>
      </trkpt>
      <trkpt lat="37.027512984350324" lon="-7.915713032707572">
        <ele>18.879999999999999</ele>
        <time>2025-05-07T13:03:11Z</time>
      </trkpt>
      <trkpt lat="37.028773035854101" lon="-7.915805988013744">
        <ele>20.809999999999999</ele>
        <time>2025-05-07T13:03:20Z</time>
      </trkpt>
      <trkpt lat="37.028895998373628" lon="-7.915850998833776">
        <ele>20.32</ele>
        <time>2025-05-07T13:03:21Z</time>
      </trkpt>
      <trkpt lat="37.028989959508181" lon="-7.915886035189033">
        <ele>20.32</ele>
        <time>2025-05-07T13:03:22Z</time>
      </trkpt>
      <trkpt lat="37.029118034988642" lon="-7.915983013808727">
        <ele>20.32</ele>
        <time>2025-05-07T13:03:23Z</time>
      </trkpt>
      <trkpt lat="37.029218031093478" lon="-7.916059037670493">
        <ele>20.32</ele>
        <time>2025-05-07T13:03:24Z</time>
      </trkpt>
      <trkpt lat="37.029308974742889" lon="-7.916128020733595">
        <ele>19.84</ele>
        <time>2025-05-07T13:03:25Z</time>
      </trkpt>
      <trkpt lat="37.029463034123182" lon="-7.916250983253121">
        <ele>19.84</ele>
        <time>2025-05-07T13:03:27Z</time>
      </trkpt>
      <trkpt lat="37.029522964730859" lon="-7.91631099767983">
        <ele>19.84</ele>
        <time>2025-05-07T13:03:28Z</time>
      </trkpt>
      <trkpt lat="37.029763022437692" lon="-7.916292976588011">
        <ele>19.84</ele>
        <time>2025-05-07T13:03:29Z</time>
      </trkpt>
      <trkpt lat="37.029876010492444" lon="-7.916306974366307">
        <ele>20.809999999999999</ele>
        <time>2025-05-07T13:03:32Z</time>
      </trkpt>
      <trkpt lat="37.029934013262391" lon="-7.916315020993352">
        <ele>20.809999999999999</ele>
        <time>2025-05-07T13:03:33Z</time>
      </trkpt>
      <trkpt lat="37.029982041567564" lon="-7.916410993784666">
        <ele>20.809999999999999</ele>
        <time>2025-05-07T13:03:34Z</time>
      </trkpt>
      <trkpt lat="37.030022023245692" lon="-7.916491040959954">
        <ele>20.809999999999999</ele>
        <time>2025-05-07T13:03:35Z</time>
      </trkpt>
      <trkpt lat="37.030041972175241" lon="-7.916529010981321">
        <ele>20.809999999999999</ele>
        <time>2025-05-07T13:03:36Z</time>
      </trkpt>
      <trkpt lat="37.030014982447028" lon="-7.916634036228061">
        <ele>20.809999999999999</ele>
        <time>2025-05-07T13:03:37Z</time>
      </trkpt>
      <trkpt lat="37.03012403100729" lon="-7.916810978204012">
        <ele>20.32</ele>
        <time>2025-05-07T13:03:38Z</time>
      </trkpt>
      <trkpt lat="37.030209023505449" lon="-7.916878033429384">
        <ele>19.84</ele>
        <time>2025-05-07T13:03:39Z</time>
      </trkpt>
      <trkpt lat="37.030309019610286" lon="-7.916948022320867">
        <ele>19.359999999999999</ele>
        <time>2025-05-07T13:03:40Z</time>
      </trkpt>
      <trkpt lat="37.030421001836658" lon="-7.91701901704073">
        <ele>18.879999999999999</ele>
        <time>2025-05-07T13:03:41Z</time>
      </trkpt>
      <trkpt lat="37.030547987669706" lon="-7.917080037295818">
        <ele>18.879999999999999</ele>
        <time>2025-05-07T13:03:42Z</time>
      </trkpt>
      <trkpt lat="37.03207902610302" lon="-7.91783600114286">
        <ele>17.920000000000002</ele>
        <time>2025-05-07T13:03:52Z</time>
      </trkpt>
      <trkpt lat="37.033782983198762" lon="-7.918916009366512">
        <ele>19.359999999999999</ele>
        <time>2025-05-07T13:04:02Z</time>
      </trkpt>
      <trkpt lat="37.034127982333302" lon="-7.919146008789539">
        <ele>20.32</ele>
        <time>2025-05-07T13:04:04Z</time>
      </trkpt>
      <trkpt lat="37.034305008128285" lon="-7.919238964095712">
        <ele>21.77</ele>
        <time>2025-05-07T13:04:05Z</time>
      </trkpt>
      <trkpt lat="37.034485973417759" lon="-7.919253967702389">
        <ele>22.73</ele>
        <time>2025-05-07T13:04:06Z</time>
      </trkpt>
      <trkpt lat="37.034668028354645" lon="-7.919253967702389">
        <ele>23.690000000000001</ele>
        <time>2025-05-07T13:04:07Z</time>
      </trkpt>
      <trkpt lat="37.034841030836105" lon="-7.919213986024261">
        <ele>24.649999999999999</ele>
        <time>2025-05-07T13:04:08Z</time>
      </trkpt>
      <trkpt lat="37.035017972812057" lon="-7.919154977425933">
        <ele>26.09</ele>
        <time>2025-05-07T13:04:09Z</time>
      </trkpt>
      <trkpt lat="37.035197010263801" lon="-7.919085994362831">
        <ele>26.57</ele>
        <time>2025-05-07T13:04:10Z</time>
      </trkpt>
      <trkpt lat="37.036340972408652" lon="-7.918668994680047">
        <ele>22.73</ele>
        <time>2025-05-07T13:04:16Z</time>
      </trkpt>
      <trkpt lat="37.036538030952215" lon="-7.918642004951835">
        <ele>21.77</ele>
        <time>2025-05-07T13:04:17Z</time>
      </trkpt>
      <trkpt lat="37.038167975842953" lon="-7.918466990813613">
        <ele>18.879999999999999</ele>
        <time>2025-05-07T13:04:26Z</time>
      </trkpt>
      <trkpt lat="37.039976036176085" lon="-7.918090978637338">
        <ele>21.289999999999999</ele>
        <time>2025-05-07T13:04:36Z</time>
      </trkpt>
      <trkpt lat="37.041636994108558" lon="-7.91770700365305">
        <ele>23.690000000000001</ele>
        <time>2025-05-07T13:04:45Z</time>
      </trkpt>
      <trkpt lat="37.044109990820289" lon="-7.917223032563925">
        <ele>25.609999999999999</ele>
        <time>2025-05-07T13:04:58Z</time>
      </trkpt>
      <trkpt lat="37.046824973076582" lon="-7.916786000132561">
        <ele>27.050000000000001</ele>
        <time>2025-05-07T13:05:12Z</time>
      </trkpt>
      <trkpt lat="37.047708006575704" lon="-7.916668988764286">
        <ele>28.02</ele>
        <time>2025-05-07T13:05:17Z</time>
      </trkpt>
      <trkpt lat="37.047883020713925" lon="-7.916692961007357">
        <ele>28.5</ele>
        <time>2025-05-07T13:05:18Z</time>
      </trkpt>
      <trkpt lat="37.048420971259475" lon="-7.916925977915525">
        <ele>28.02</ele>
        <time>2025-05-07T13:05:21Z</time>
      </trkpt>
      <trkpt lat="37.049957038834691" lon="-7.917727036401629">
        <ele>26.57</ele>
        <time>2025-05-07T13:05:30Z</time>
      </trkpt>
      <trkpt lat="37.051198985427618" lon="-7.91830999776721">
        <ele>27.530000000000001</ele>
        <time>2025-05-07T13:05:38Z</time>
      </trkpt>
      <trkpt lat="37.05133100040257" lon="-7.918427009135485">
        <ele>27.530000000000001</ele>
        <time>2025-05-07T13:05:39Z</time>
      </trkpt>
      <trkpt lat="37.051410963758826" lon="-7.918527005240321">
        <ele>27.530000000000001</ele>
        <time>2025-05-07T13:05:40Z</time>
      </trkpt>
      <trkpt lat="37.051455974578857" lon="-7.918632030487061">
        <ele>28.02</ele>
        <time>2025-05-07T13:05:41Z</time>
      </trkpt>
      <trkpt lat="37.051464021205902" lon="-7.91878298856318">
        <ele>27.530000000000001</ele>
        <time>2025-05-07T13:05:42Z</time>
      </trkpt>
      <trkpt lat="37.051470978185534" lon="-7.918939981609583">
        <ele>27.530000000000001</ele>
        <time>2025-05-07T13:05:43Z</time>
      </trkpt>
      <trkpt lat="37.051477013155818" lon="-7.919105021283031">
        <ele>28.02</ele>
        <time>2025-05-07T13:05:44Z</time>
      </trkpt>
      <trkpt lat="37.051435019820929" lon="-7.920585013926029">
        <ele>27.050000000000001</ele>
        <time>2025-05-07T13:05:53Z</time>
      </trkpt>
      <trkpt lat="37.051435019820929" lon="-7.920658020302653">
        <ele>27.050000000000001</ele>
        <time>2025-05-07T13:05:54Z</time>
      </trkpt>
      <trkpt lat="37.051435019820929" lon="-7.920724991708994">
        <ele>27.050000000000001</ele>
        <time>2025-05-07T13:05:55Z</time>
      </trkpt>
      <trkpt lat="37.051435019820929" lon="-7.920774025842547">
        <ele>26.57</ele>
        <time>2025-05-07T13:05:56Z</time>
      </trkpt>
      <trkpt lat="37.051521018147469" lon="-7.920863963663578">
        <ele>26.57</ele>
        <time>2025-05-07T13:05:57Z</time>
      </trkpt>
      <trkpt lat="37.051521018147469" lon="-7.920863963663578">
        <ele>26.09</ele>
        <time>2025-05-07T13:05:58Z</time>
      </trkpt>
      <trkpt lat="37.051521018147469" lon="-7.920863963663578">
        <ele>25.609999999999999</ele>
        <time>2025-05-07T13:05:59Z</time>
      </trkpt>
      <trkpt lat="37.051521018147469" lon="-7.920863963663578">
        <ele>25.609999999999999</ele>
        <time>2025-05-07T13:06:00Z</time>
      </trkpt>
      <trkpt lat="37.051710030063987" lon="-7.92097301222384">
        <ele>25.609999999999999</ele>
        <time>2025-05-07T13:06:01Z</time>
      </trkpt>
      <trkpt lat="37.051798962056637" lon="-7.920943005010486">
        <ele>25.609999999999999</ele>
        <time>2025-05-07T13:06:02Z</time>
      </trkpt>
      <trkpt lat="37.051900969818234" lon="-7.92091098614037">
        <ele>25.609999999999999</ele>
        <time>2025-05-07T13:06:03Z</time>
      </trkpt>
      <trkpt lat="37.052010018378496" lon="-7.920877039432526">
        <ele>26.09</ele>
        <time>2025-05-07T13:06:04Z</time>
      </trkpt>
      <trkpt lat="37.05309203825891" lon="-7.920580990612507">
        <ele>27.050000000000001</ele>
        <time>2025-05-07T13:06:12Z</time>
      </trkpt>
      <trkpt lat="37.055018031969666" lon="-7.920074975118041">
        <ele>28.02</ele>
        <time>2025-05-07T13:06:24Z</time>
      </trkpt>
      <trkpt lat="37.056308006867766" lon="-7.919854028150439">
        <ele>29.460000000000001</ele>
        <time>2025-05-07T13:06:33Z</time>
      </trkpt>
      <trkpt lat="37.057494968175888" lon="-7.919651018455625">
        <ele>29.460000000000001</ele>
        <time>2025-05-07T13:06:43Z</time>
      </trkpt>
      <trkpt lat="37.058042977005243" lon="-7.919565020129085">
        <ele>29.460000000000001</ele>
        <time>2025-05-07T13:06:50Z</time>
      </trkpt>
      <trkpt lat="37.058198964223266" lon="-7.919497964903712">
        <ele>29.460000000000001</ele>
        <time>2025-05-07T13:06:52Z</time>
      </trkpt>
      <trkpt lat="37.059163972735405" lon="-7.918875021860004">
        <ele>32.340000000000003</ele>
        <time>2025-05-07T13:07:03Z</time>
      </trkpt>
      <trkpt lat="37.060015993192792" lon="-7.918371018022299">
        <ele>32.82</ele>
        <time>2025-05-07T13:07:12Z</time>
      </trkpt>
      <trkpt lat="37.06063399091363" lon="-7.918068012222648">
        <ele>33.780000000000001</ele>
        <time>2025-05-07T13:07:20Z</time>
      </trkpt>
      <trkpt lat="37.060694005340338" lon="-7.918058037757874">
        <ele>34.259999999999998</ele>
        <time>2025-05-07T13:07:21Z</time>
      </trkpt>
      <trkpt lat="37.060903972014785" lon="-7.918023001402617">
        <ele>35.229999999999997</ele>
        <time>2025-05-07T13:07:24Z</time>
      </trkpt>
      <trkpt lat="37.060968009755015" lon="-7.918013026937842">
        <ele>36.189999999999998</ele>
        <time>2025-05-07T13:07:25Z</time>
      </trkpt>
      <trkpt lat="37.061032969504595" lon="-7.917992994189262">
        <ele>36.670000000000002</ele>
        <time>2025-05-07T13:07:26Z</time>
      </trkpt>
      <trkpt lat="37.061094995588064" lon="-7.917971033602953">
        <ele>37.630000000000003</ele>
        <time>2025-05-07T13:07:27Z</time>
      </trkpt>
      <trkpt lat="37.061157021671534" lon="-7.917948989197612">
        <ele>38.590000000000003</ele>
        <time>2025-05-07T13:07:28Z</time>
      </trkpt>
      <trkpt lat="37.061557006090879" lon="-7.917784033343196">
        <ele>42.439999999999998</ele>
        <time>2025-05-07T13:07:34Z</time>
      </trkpt>
      <trkpt lat="37.06183897331357" lon="-7.917569037526846">
        <ele>44.359999999999999</ele>
        <time>2025-05-07T13:07:39Z</time>
      </trkpt>
      <trkpt lat="37.061877027153969" lon="-7.917540036141872">
        <ele>44.840000000000003</ele>
        <time>2025-05-07T13:07:40Z</time>
      </trkpt>
      <trkpt lat="37.061906028538942" lon="-7.91751598007977">
        <ele>44.840000000000003</ele>
        <time>2025-05-07T13:07:41Z</time>
      </trkpt>
      <trkpt lat="37.061935029923916" lon="-7.917506005614996">
        <ele>45.32</ele>
        <time>2025-05-07T13:07:42Z</time>
      </trkpt>
      <trkpt lat="37.061972999945283" lon="-7.91749301366508">
        <ele>45.799999999999997</ele>
        <time>2025-05-07T13:07:43Z</time>
      </trkpt>
      <trkpt lat="37.062449008226395" lon="-7.917377008125186">
        <ele>45.799999999999997</ele>
        <time>2025-05-07T13:07:49Z</time>
      </trkpt>
      <trkpt lat="37.063301028683782" lon="-7.917326968163252">
        <ele>40.030000000000001</ele>
        <time>2025-05-07T13:07:58Z</time>
      </trkpt>
      <trkpt lat="37.063486017286777" lon="-7.917293021455407">
        <ele>36.670000000000002</ele>
        <time>2025-05-07T13:08:05Z</time>
      </trkpt>
      <trkpt lat="37.063594982028008" lon="-7.917266031727195">
        <ele>34.740000000000002</ele>
        <time>2025-05-07T13:08:17Z</time>
      </trkpt>
      <trkpt lat="37.063615014776587" lon="-7.917261002585292">
        <ele>34.740000000000002</ele>
        <time>2025-05-07T13:08:19Z</time>
      </trkpt>
      <trkpt lat="37.0636229775846" lon="-7.917258990928531">
        <ele>34.740000000000002</ele>
        <time>2025-05-07T13:08:20Z</time>
      </trkpt>
      <trkpt lat="37.063620965927839" lon="-7.917304001748562">
        <ele>34.259999999999998</ele>
        <time>2025-05-07T13:08:21Z</time>
      </trkpt>
      <trkpt lat="37.063617026433349" lon="-7.917377008125186">
        <ele>34.259999999999998</ele>
        <time>2025-05-07T13:08:22Z</time>
      </trkpt>
      <trkpt lat="37.063610991463065" lon="-7.917478010058403">
        <ele>34.259999999999998</ele>
        <time>2025-05-07T13:08:23Z</time>
      </trkpt>
      <trkpt lat="37.063597999513149" lon="-7.917734999209642">
        <ele>33.780000000000001</ele>
        <time>2025-05-07T13:08:25Z</time>
      </trkpt>
      <trkpt lat="37.063590036705136" lon="-7.917886041104794">
        <ele>33.780000000000001</ele>
        <time>2025-05-07T13:08:26Z</time>
      </trkpt>
      <trkpt lat="37.06349398009479" lon="-7.91923301294446">
        <ele>34.259999999999998</ele>
        <time>2025-05-07T13:08:34Z</time>
      </trkpt>
      <trkpt lat="37.063613003119826" lon="-7.920358031988144">
        <ele>34.259999999999998</ele>
        <time>2025-05-07T13:08:42Z</time>
      </trkpt>
      <trkpt lat="37.063796985894442" lon="-7.921225978061557">
        <ele>36.189999999999998</ele>
        <time>2025-05-07T13:08:51Z</time>
      </trkpt>
      <trkpt lat="37.063796985894442" lon="-7.921225978061557">
        <ele>36.670000000000002</ele>
        <time>2025-05-07T13:09:02Z</time>
      </trkpt>
      <trkpt lat="37.063806960359216" lon="-7.921273000538349">
        <ele>37.149999999999999</ele>
        <time>2025-05-07T13:09:52Z</time>
      </trkpt>
      <trkpt lat="37.06383797340095" lon="-7.921349024400115">
        <ele>37.149999999999999</ele>
        <time>2025-05-07T13:09:53Z</time>
      </trkpt>
      <trkpt lat="37.06387703306973" lon="-7.921410966664553">
        <ele>37.630000000000003</ele>
        <time>2025-05-07T13:09:54Z</time>
      </trkpt>
      <trkpt lat="37.063912991434336" lon="-7.9214689694345">
        <ele>37.630000000000003</ele>
        <time>2025-05-07T13:09:55Z</time>
      </trkpt>
      <trkpt lat="37.064034026116133" lon="-7.921430999413133">
        <ele>37.630000000000003</ele>
        <time>2025-05-07T13:09:56Z</time>
      </trkpt>
      <trkpt lat="37.064121030271053" lon="-7.921385988593102">
        <ele>38.109999999999999</ele>
        <time>2025-05-07T13:09:57Z</time>
      </trkpt>
      <trkpt lat="37.064223960042" lon="-7.921331003308296">
        <ele>38.109999999999999</ele>
        <time>2025-05-07T13:09:58Z</time>
      </trkpt>
      <trkpt lat="37.065107999369502" lon="-7.92088801972568">
        <ele>38.109999999999999</ele>
        <time>2025-05-07T13:10:04Z</time>
      </trkpt>
      <trkpt lat="37.066400991752744" lon="-7.92050002142787">
        <ele>39.549999999999997</ele>
        <time>2025-05-07T13:10:12Z</time>
      </trkpt>
      <trkpt lat="37.068163035437465" lon="-7.919873977079988">
        <ele>42.439999999999998</ele>
        <time>2025-05-07T13:10:23Z</time>
      </trkpt>
      <trkpt lat="37.069704970344901" lon="-7.919122958555818">
        <ele>44.840000000000003</ele>
        <time>2025-05-07T13:10:33Z</time>
      </trkpt>
      <trkpt lat="37.071539014577866" lon="-7.91815803386271">
        <ele>45.32</ele>
        <time>2025-05-07T13:10:45Z</time>
      </trkpt>
      <trkpt lat="37.073086984455585" lon="-7.91725798510015">
        <ele>45.799999999999997</ele>
        <time>2025-05-07T13:10:56Z</time>
      </trkpt>
      <trkpt lat="37.074985988438129" lon="-7.915996005758643">
        <ele>46.280000000000001</ele>
        <time>2025-05-07T13:11:08Z</time>
      </trkpt>
      <trkpt lat="37.07651199772954" lon="-7.915443973615766">
        <ele>48.200000000000003</ele>
        <time>2025-05-07T13:11:16Z</time>
      </trkpt>
      <trkpt lat="37.07921901717782" lon="-7.914558006450534">
        <ele>48.68</ele>
        <time>2025-05-07T13:11:31Z</time>
      </trkpt>
      <trkpt lat="37.081189015880227" lon="-7.91401301510632">
        <ele>52.049999999999997</ele>
        <time>2025-05-07T13:11:43Z</time>
      </trkpt>
      <trkpt lat="37.083035968244076" lon="-7.913892986252904">
        <ele>56.859999999999999</ele>
        <time>2025-05-07T13:11:55Z</time>
      </trkpt>
      <trkpt lat="37.085265973582864" lon="-7.913747979328036">
        <ele>62.140000000000001</ele>
        <time>2025-05-07T13:12:09Z</time>
      </trkpt>
      <trkpt lat="37.087416015565395" lon="-7.913584029302001">
        <ele>65.030000000000001</ele>
        <time>2025-05-07T13:12:22Z</time>
      </trkpt>
      <trkpt lat="37.088783020153642" lon="-7.913380013778806">
        <ele>65.989999999999995</ele>
        <time>2025-05-07T13:12:32Z</time>
      </trkpt>
      <trkpt lat="37.088871030136943" lon="-7.913336008787155">
        <ele>65.989999999999995</ele>
        <time>2025-05-07T13:12:33Z</time>
      </trkpt>
      <trkpt lat="37.088947976008058" lon="-7.913284040987492">
        <ele>65.989999999999995</ele>
        <time>2025-05-07T13:12:34Z</time>
      </trkpt>
      <trkpt lat="37.089029029011726" lon="-7.91323903016746">
        <ele>65.989999999999995</ele>
        <time>2025-05-07T13:12:35Z</time>
      </trkpt>
      <trkpt lat="37.089115027338266" lon="-7.913225032389164">
        <ele>65.989999999999995</ele>
        <time>2025-05-07T13:12:36Z</time>
      </trkpt>
      <trkpt lat="37.089186022058129" lon="-7.913278006017208">
        <ele>66.469999999999999</ele>
        <time>2025-05-07T13:12:37Z</time>
      </trkpt>
      <trkpt lat="37.089200019836426" lon="-7.913288986310363">
        <ele>65.989999999999995</ele>
        <time>2025-05-07T13:12:38Z</time>
      </trkpt>
      <trkpt lat="37.089390959590673" lon="-7.913396023213863">
        <ele>65.989999999999995</ele>
        <time>2025-05-07T13:12:39Z</time>
      </trkpt>
      <trkpt lat="37.089505037292838" lon="-7.913396023213863">
        <ele>65.989999999999995</ele>
        <time>2025-05-07T13:12:40Z</time>
      </trkpt>
      <trkpt lat="37.089633028954268" lon="-7.913393005728722">
        <ele>65.989999999999995</ele>
        <time>2025-05-07T13:12:41Z</time>
      </trkpt>
      <trkpt lat="37.091020988300443" lon="-7.913269037380815">
        <ele>67.430000000000007</ele>
        <time>2025-05-07T13:12:50Z</time>
      </trkpt>
      <trkpt lat="37.091778963804245" lon="-7.913398034870625">
        <ele>68.870000000000005</ele>
        <time>2025-05-07T13:12:54Z</time>
      </trkpt>
      <trkpt lat="37.091977028176188" lon="-7.913462994620204">
        <ele>69.349999999999994</ele>
        <time>2025-05-07T13:12:55Z</time>
      </trkpt>
      <trkpt lat="37.092163022607565" lon="-7.913572965189815">
        <ele>69.829999999999998</ele>
        <time>2025-05-07T13:12:56Z</time>
      </trkpt>
      <trkpt lat="37.092349017038941" lon="-7.913703974336386">
        <ele>70.310000000000002</ele>
        <time>2025-05-07T13:12:57Z</time>
      </trkpt>
      <trkpt lat="37.092537023127079" lon="-7.913834983482957">
        <ele>71.269999999999996</ele>
        <time>2025-05-07T13:12:58Z</time>
      </trkpt>
      <trkpt lat="37.092727962881327" lon="-7.91396901011467">
        <ele>72.239999999999995</ele>
        <time>2025-05-07T13:12:59Z</time>
      </trkpt>
      <trkpt lat="37.094781026244164" lon="-7.915470963343978">
        <ele>82.810000000000002</ele>
        <time>2025-05-07T13:13:10Z</time>
      </trkpt>
      <trkpt lat="37.095276983454823" lon="-7.915631979703903">
        <ele>85.689999999999998</ele>
        <time>2025-05-07T13:13:13Z</time>
      </trkpt>
      <trkpt lat="37.095443028956652" lon="-7.915654024109244">
        <ele>88.099999999999994</ele>
        <time>2025-05-07T13:13:15Z</time>
      </trkpt>
      <trkpt lat="37.095787022262812" lon="-7.915622005239129">
        <ele>89.540000000000006</ele>
        <time>2025-05-07T13:13:16Z</time>
      </trkpt>
      <trkpt lat="37.095960024744272" lon="-7.915548998862505">
        <ele>90.5</ele>
        <time>2025-05-07T13:13:17Z</time>
      </trkpt>
      <trkpt lat="37.096131015568972" lon="-7.915455959737301">
        <ele>91.939999999999998</ele>
        <time>2025-05-07T13:13:18Z</time>
      </trkpt>
      <trkpt lat="37.096291026100516" lon="-7.915303995832801">
        <ele>93.390000000000001</ele>
        <time>2025-05-07T13:13:19Z</time>
      </trkpt>
      <trkpt lat="37.09645296446979" lon="-7.915149014443159">
        <ele>94.829999999999998</ele>
        <time>2025-05-07T13:13:20Z</time>
      </trkpt>
      <trkpt lat="37.09662496112287" lon="-7.914983974769712">
        <ele>95.790000000000006</ele>
        <time>2025-05-07T13:13:21Z</time>
      </trkpt>
      <trkpt lat="37.096740966662765" lon="-7.914752969518304">
        <ele>96.75</ele>
        <time>2025-05-07T13:13:22Z</time>
      </trkpt>
      <trkpt lat="37.096863007172942" lon="-7.914509978145361">
        <ele>97.709999999999994</ele>
        <time>2025-05-07T13:13:23Z</time>
      </trkpt>
      <trkpt lat="37.0978909637779" lon="-7.912302017211914">
        <ele>99.629999999999995</ele>
        <time>2025-05-07T13:13:31Z</time>
      </trkpt>
      <trkpt lat="37.098923027515411" lon="-7.909108009189367">
        <ele>94.829999999999998</ele>
        <time>2025-05-07T13:13:41Z</time>
      </trkpt>
      <trkpt lat="37.099525015801191" lon="-7.905866978690028">
        <ele>88.579999999999998</ele>
        <time>2025-05-07T13:13:50Z</time>
      </trkpt>
      <trkpt lat="37.099655019119382" lon="-7.902570962905884">
        <ele>89.060000000000002</ele>
        <time>2025-05-07T13:13:59Z</time>
      </trkpt>
      <trkpt lat="37.09937104023993" lon="-7.898914022371173">
        <ele>99.150000000000006</ele>
        <time>2025-05-07T13:14:09Z</time>
      </trkpt>
      <trkpt lat="37.099169958382845" lon="-7.89523302577436">
        <ele>114.53</ele>
        <time>2025-05-07T13:14:19Z</time>
      </trkpt>
      <trkpt lat="37.099279006943107" lon="-7.891899039968848">
        <ele>127.98999999999999</ele>
        <time>2025-05-07T13:14:28Z</time>
      </trkpt>
      <trkpt lat="37.099132994189858" lon="-7.888945005834103">
        <ele>134.24000000000001</ele>
        <time>2025-05-07T13:14:36Z</time>
      </trkpt>
      <trkpt lat="37.098517008125782" lon="-7.886103959754109">
        <ele>140.49000000000001</ele>
        <time>2025-05-07T13:14:44Z</time>
      </trkpt>
      <trkpt lat="37.096961997449398" lon="-7.881705975160003">
        <ele>153.94999999999999</ele>
        <time>2025-05-07T13:14:57Z</time>
      </trkpt>
      <trkpt lat="37.095198025926948" lon="-7.876990986987948">
        <ele>152.50999999999999</ele>
        <time>2025-05-07T13:15:11Z</time>
      </trkpt>
      <trkpt lat="37.093207994475961" lon="-7.8716229647398">
        <ele>141.93000000000001</ele>
        <time>2025-05-07T13:15:27Z</time>
      </trkpt>
      <trkpt lat="37.09198197349906" lon="-7.867848007008433">
        <ele>145.78</ele>
        <time>2025-05-07T13:15:38Z</time>
      </trkpt>
      <trkpt lat="37.091372022405267" lon="-7.864224007353187">
        <ele>145.30000000000001</ele>
        <time>2025-05-07T13:15:48Z</time>
      </trkpt>
      <trkpt lat="37.091125007718801" lon="-7.860146965831518">
        <ele>140.00999999999999</ele>
        <time>2025-05-07T13:15:59Z</time>
      </trkpt>
      <trkpt lat="37.090904982760549" lon="-7.856086017563939">
        <ele>135.19999999999999</ele>
        <time>2025-05-07T13:16:10Z</time>
      </trkpt>
      <trkpt lat="37.09062896668911" lon="-7.850514985620976">
        <ele>127.03</ele>
        <time>2025-05-07T13:16:25Z</time>
      </trkpt>
      <trkpt lat="37.090323027223349" lon="-7.845356008037925">
        <ele>119.81999999999999</ele>
        <time>2025-05-07T13:16:39Z</time>
      </trkpt>
      <trkpt lat="37.089623976498842" lon="-7.839899975806475">
        <ele>118.38</ele>
        <time>2025-05-07T13:16:54Z</time>
      </trkpt>
      <trkpt lat="37.088642036542296" lon="-7.834869995713234">
        <ele>123.67</ele>
        <time>2025-05-07T13:17:08Z</time>
      </trkpt>
      <trkpt lat="37.088168039917946" lon="-7.830819021910429">
        <ele>126.06999999999999</ele>
        <time>2025-05-07T13:17:19Z</time>
      </trkpt>
      <trkpt lat="37.08826401270926" lon="-7.827097037807107">
        <ele>124.15000000000001</ele>
        <time>2025-05-07T13:17:29Z</time>
      </trkpt>
      <trkpt lat="37.088872035965323" lon="-7.823459962382913">
        <ele>124.63</ele>
        <time>2025-05-07T13:17:39Z</time>
      </trkpt>
      <trkpt lat="37.089922036975622" lon="-7.819979963824153">
        <ele>126.55</ele>
        <time>2025-05-07T13:17:49Z</time>
      </trkpt>
      <trkpt lat="37.091432036831975" lon="-7.816776987165213">
        <ele>127.51000000000001</ele>
        <time>2025-05-07T13:17:59Z</time>
      </trkpt>
      <trkpt lat="37.093328023329377" lon="-7.813938036561012">
        <ele>125.59</ele>
        <time>2025-05-07T13:18:09Z</time>
      </trkpt>
      <trkpt lat="37.096015010029078" lon="-7.810508999973536">
        <ele>121.73999999999999</ele>
        <time>2025-05-07T13:18:22Z</time>
      </trkpt>
      <trkpt lat="37.099130982533097" lon="-7.806574031710625">
        <ele>125.11</ele>
        <time>2025-05-07T13:18:37Z</time>
      </trkpt>
      <trkpt lat="37.101465007290244" lon="-7.803683029487729">
        <ele>127.03</ele>
        <time>2025-05-07T13:18:48Z</time>
      </trkpt>
      <trkpt lat="37.103426959365606" lon="-7.802064986899495">
        <ele>125.59</ele>
        <time>2025-05-07T13:18:56Z</time>
      </trkpt>
      <trkpt lat="37.105658976361156" lon="-7.801078017801046">
        <ele>128.94999999999999</ele>
        <time>2025-05-07T13:19:04Z</time>
      </trkpt>
      <trkpt lat="37.108618961647153" lon="-7.800546018406749">
        <ele>125.59</ele>
        <time>2025-05-07T13:19:14Z</time>
      </trkpt>
      <trkpt lat="37.112712012603879" lon="-7.799744959920645">
        <ele>124.15000000000001</ele>
        <time>2025-05-07T13:19:28Z</time>
      </trkpt>
      <trkpt lat="37.114616967737675" lon="-7.798775006085634">
        <ele>128.47</ele>
        <time>2025-05-07T13:19:35Z</time>
      </trkpt>
      <trkpt lat="37.116270968690515" lon="-7.797204991802573">
        <ele>130.88</ele>
        <time>2025-05-07T13:19:42Z</time>
      </trkpt>
      <trkpt lat="37.11754803545773" lon="-7.795175984501839">
        <ele>132.31999999999999</ele>
        <time>2025-05-07T13:19:49Z</time>
      </trkpt>
      <trkpt lat="37.1183439809829" lon="-7.792770965024829">
        <ele>132.31999999999999</ele>
        <time>2025-05-07T13:19:56Z</time>
      </trkpt>
      <trkpt lat="37.119234977290034" lon="-7.788086989894509">
        <ele>136.16</ele>
        <time>2025-05-07T13:20:09Z</time>
      </trkpt>
      <trkpt lat="37.120218006893992" lon="-7.782674040645361">
        <ele>142.41</ele>
        <time>2025-05-07T13:20:24Z</time>
      </trkpt>
      <trkpt lat="37.121130963787436" lon="-7.779141990467906">
        <ele>140.00999999999999</ele>
        <time>2025-05-07T13:20:34Z</time>
      </trkpt>
      <trkpt lat="37.122425967827439" lon="-7.776640998199582">
        <ele>134.72</ele>
        <time>2025-05-07T13:20:42Z</time>
      </trkpt>
      <trkpt lat="37.124326983466744" lon="-7.773380018770695">
        <ele>126.06999999999999</ele>
        <time>2025-05-07T13:20:53Z</time>
      </trkpt>
      <trkpt lat="37.125319987535477" lon="-7.770723039284349">
        <ele>123.19</ele>
        <time>2025-05-07T13:21:01Z</time>
      </trkpt>
      <trkpt lat="37.126062037423253" lon="-7.767170034348965">
        <ele>120.78</ele>
        <time>2025-05-07T13:21:11Z</time>
      </trkpt>
      <trkpt lat="37.126801991835237" lon="-7.764006033539772">
        <ele>118.38</ele>
        <time>2025-05-07T13:21:20Z</time>
      </trkpt>
      <trkpt lat="37.128004962578416" lon="-7.761474028229713">
        <ele>115.01000000000001</ele>
        <time>2025-05-07T13:21:28Z</time>
      </trkpt>
      <trkpt lat="37.12964303791523" lon="-7.75936296209693">
        <ele>111.65000000000001</ele>
        <time>2025-05-07T13:21:36Z</time>
      </trkpt>
      <trkpt lat="37.131784027442336" lon="-7.756343968212605">
        <ele>108.77</ele>
        <time>2025-05-07T13:21:47Z</time>
      </trkpt>
      <trkpt lat="37.133220015093684" lon="-7.753150966018438">
        <ele>106.84</ele>
        <time>2025-05-07T13:21:57Z</time>
      </trkpt>
      <trkpt lat="37.134035993367434" lon="-7.750018984079361">
        <ele>106.36</ele>
        <time>2025-05-07T13:22:06Z</time>
      </trkpt>
      <trkpt lat="37.134916009381413" lon="-7.746141012758017">
        <ele>103.95999999999999</ele>
        <time>2025-05-07T13:22:17Z</time>
      </trkpt>
      <trkpt lat="37.136589037254453" lon="-7.740280972793698">
        <ele>114.05</ele>
        <time>2025-05-07T13:22:34Z</time>
      </trkpt>
      <trkpt lat="37.137318011373281" lon="-7.736749006435275">
        <ele>124.63</ele>
        <time>2025-05-07T13:22:44Z</time>
      </trkpt>
      <trkpt lat="37.137353969737887" lon="-7.73381601087749">
        <ele>129.91999999999999</ele>
        <time>2025-05-07T13:22:52Z</time>
      </trkpt>
      <trkpt lat="37.136850971728563" lon="-7.730935988947749">
        <ele>131.84</ele>
        <time>2025-05-07T13:23:00Z</time>
      </trkpt>
      <trkpt lat="37.135666022077203" lon="-7.727190032601357">
        <ele>130.40000000000001</ele>
        <time>2025-05-07T13:23:11Z</time>
      </trkpt>
      <trkpt lat="37.134314021095634" lon="-7.722721975296736">
        <ele>125.11</ele>
        <time>2025-05-07T13:23:24Z</time>
      </trkpt>
      <trkpt lat="37.134003974497318" lon="-7.719803983345628">
        <ele>116.45999999999999</ele>
        <time>2025-05-07T13:23:32Z</time>
      </trkpt>
      <trkpt lat="37.134225005283952" lon="-7.716126004233956">
        <ele>107.81</ele>
        <time>2025-05-07T13:23:42Z</time>
      </trkpt>
      <trkpt lat="37.134240008890629" lon="-7.712102020159364">
        <ele>106.36</ele>
        <time>2025-05-07T13:23:53Z</time>
      </trkpt>
      <trkpt lat="37.133967010304332" lon="-7.706583961844444">
        <ele>100.59999999999999</ele>
        <time>2025-05-07T13:24:08Z</time>
      </trkpt>
      <trkpt lat="37.134032975882292" lon="-7.704023960977793">
        <ele>97.709999999999994</ele>
        <time>2025-05-07T13:24:15Z</time>
      </trkpt>
      <trkpt lat="37.134602023288608" lon="-7.701570997014642">
        <ele>100.11</ele>
        <time>2025-05-07T13:24:22Z</time>
      </trkpt>
      <trkpt lat="37.135771969333291" lon="-7.69901099614799">
        <ele>107.81</ele>
        <time>2025-05-07T13:24:30Z</time>
      </trkpt>
      <trkpt lat="37.136818030849099" lon="-7.696357034146786">
        <ele>110.20999999999999</ele>
        <time>2025-05-07T13:24:38Z</time>
      </trkpt>
      <trkpt lat="37.137964004650712" lon="-7.692129034548998">
        <ele>103.95999999999999</ele>
        <time>2025-05-07T13:24:50Z</time>
      </trkpt>
      <trkpt lat="37.139186002314091" lon="-7.688738973811269">
        <ele>95.790000000000006</ele>
        <time>2025-05-07T13:25:00Z</time>
      </trkpt>
      <trkpt lat="37.141008982434869" lon="-7.684077965095639">
        <ele>83.769999999999996</ele>
        <time>2025-05-07T13:25:14Z</time>
      </trkpt>
      <trkpt lat="37.142586037516594" lon="-7.679272033274174">
        <ele>71.269999999999996</ele>
        <time>2025-05-07T13:25:28Z</time>
      </trkpt>
      <trkpt lat="37.144027976319194" lon="-7.676027985289693">
        <ele>60.700000000000003</ele>
        <time>2025-05-07T13:25:38Z</time>
      </trkpt>
      <trkpt lat="37.145923040807247" lon="-7.67318501137197">
        <ele>50.609999999999999</ele>
        <time>2025-05-07T13:25:48Z</time>
      </trkpt>
      <trkpt lat="37.147946013137698" lon="-7.671007979661226">
        <ele>40.990000000000002</ele>
        <time>2025-05-07T13:25:57Z</time>
      </trkpt>
      <trkpt lat="37.150499979034066" lon="-7.669125990942121">
        <ele>30.899999999999999</ele>
        <time>2025-05-07T13:26:07Z</time>
      </trkpt>
      <trkpt lat="37.152988985180855" lon="-7.667931988835335">
        <ele>21.289999999999999</ele>
        <time>2025-05-07T13:26:16Z</time>
      </trkpt>
      <trkpt lat="37.156132031232119" lon="-7.66693496145308">
        <ele>19.359999999999999</ele>
        <time>2025-05-07T13:26:27Z</time>
      </trkpt>
      <trkpt lat="37.157419994473457" lon="-7.66609501093626">
        <ele>21.77</ele>
        <time>2025-05-07T13:26:32Z</time>
      </trkpt>
      <trkpt lat="37.158682979643345" lon="-7.664572019129992">
        <ele>28.02</ele>
        <time>2025-05-07T13:26:38Z</time>
      </trkpt>
      <trkpt lat="37.159001994878054" lon="-7.66394798643887">
        <ele>30.420000000000002</ele>
        <time>2025-05-07T13:26:40Z</time>
      </trkpt>
      <trkpt lat="37.15983297675848" lon="-7.661567023023963">
        <ele>38.109999999999999</ele>
        <time>2025-05-07T13:26:47Z</time>
      </trkpt>
      <trkpt lat="37.161058997735381" lon="-7.65820998698473">
        <ele>50.609999999999999</ele>
        <time>2025-05-07T13:26:57Z</time>
      </trkpt>
      <trkpt lat="37.162375962361693" lon="-7.656210986897349">
        <ele>59.259999999999998</ele>
        <time>2025-05-07T13:27:04Z</time>
      </trkpt>
      <trkpt lat="37.163231000304222" lon="-7.654264038428664">
        <ele>65.989999999999995</ele>
        <time>2025-05-07T13:27:10Z</time>
      </trkpt>
      <trkpt lat="37.164462972432375" lon="-7.651314027607441">
        <ele>74.640000000000001</ele>
        <time>2025-05-07T13:27:19Z</time>
      </trkpt>
      <trkpt lat="37.166217975318432" lon="-7.648308025673032">
        <ele>78</ele>
        <time>2025-05-07T13:27:29Z</time>
      </trkpt>
      <trkpt lat="37.167083993554115" lon="-7.645944999530911">
        <ele>77.519999999999996</ele>
        <time>2025-05-07T13:27:36Z</time>
      </trkpt>
      <trkpt lat="37.168199960142374" lon="-7.642517974600196">
        <ele>74.159999999999997</ele>
        <time>2025-05-07T13:27:46Z</time>
      </trkpt>
      <trkpt lat="37.169594038277864" lon="-7.638819962739945">
        <ele>69.829999999999998</ele>
        <time>2025-05-07T13:27:57Z</time>
      </trkpt>
      <trkpt lat="37.170279007405043" lon="-7.635613968595862">
        <ele>65.510000000000005</ele>
        <time>2025-05-07T13:28:06Z</time>
      </trkpt>
      <trkpt lat="37.170409010723233" lon="-7.63229900971055">
        <ele>59.740000000000002</ele>
        <time>2025-05-07T13:28:15Z</time>
      </trkpt>
      <trkpt lat="37.170114973559976" lon="-7.628620024770498">
        <ele>51.090000000000003</ele>
        <time>2025-05-07T13:28:25Z</time>
      </trkpt>
      <trkpt lat="37.170051019638777" lon="-7.62565903365612">
        <ele>44.359999999999999</ele>
        <time>2025-05-07T13:28:33Z</time>
      </trkpt>
      <trkpt lat="37.170611014589667" lon="-7.623164998367429">
        <ele>37.630000000000003</ele>
        <time>2025-05-07T13:28:40Z</time>
      </trkpt>
      <trkpt lat="37.171548027545214" lon="-7.620440041646361">
        <ele>32.340000000000003</ele>
        <time>2025-05-07T13:28:48Z</time>
      </trkpt>
      <trkpt lat="37.172004003077745" lon="-7.618331992998719">
        <ele>32.340000000000003</ele>
        <time>2025-05-07T13:28:54Z</time>
      </trkpt>
      <trkpt lat="37.17252803966403" lon="-7.614707993343473">
        <ele>38.590000000000003</ele>
        <time>2025-05-07T13:29:04Z</time>
      </trkpt>
      <trkpt lat="37.173463040962815" lon="-7.611975995823741">
        <ele>45.32</ele>
        <time>2025-05-07T13:29:12Z</time>
      </trkpt>
      <trkpt lat="37.173953969031572" lon="-7.609852021560073">
        <ele>50.609999999999999</ele>
        <time>2025-05-07T13:29:18Z</time>
      </trkpt>
      <trkpt lat="37.174530979245901" lon="-7.606234978884459">
        <ele>60.219999999999999</ele>
        <time>2025-05-07T13:29:28Z</time>
      </trkpt>
      <trkpt lat="37.175569999963045" lon="-7.603160999715328">
        <ele>66.950000000000003</ele>
        <time>2025-05-07T13:29:37Z</time>
      </trkpt>
      <trkpt lat="37.176695019006729" lon="-7.599725006148219">
        <ele>72.719999999999999</ele>
        <time>2025-05-07T13:29:47Z</time>
      </trkpt>
      <trkpt lat="37.177736973389983" lon="-7.597481003031135">
        <ele>73.680000000000007</ele>
        <time>2025-05-07T13:29:54Z</time>
      </trkpt>
      <trkpt lat="37.179042035713792" lon="-7.594573991373181">
        <ele>69.829999999999998</ele>
        <time>2025-05-07T13:30:03Z</time>
      </trkpt>
      <trkpt lat="37.179435985162854" lon="-7.592425039038062">
        <ele>66.469999999999999</ele>
        <time>2025-05-07T13:30:09Z</time>
      </trkpt>
      <trkpt lat="37.179441014304757" lon="-7.590222023427486">
        <ele>63.579999999999998</ele>
        <time>2025-05-07T13:30:15Z</time>
      </trkpt>
      <trkpt lat="37.179100960493088" lon="-7.586571034044027">
        <ele>63.100000000000001</ele>
        <time>2025-05-07T13:30:25Z</time>
      </trkpt>
      <trkpt lat="37.179002976045012" lon="-7.583255991339684">
        <ele>68.870000000000005</ele>
        <time>2025-05-07T13:30:34Z</time>
      </trkpt>
      <trkpt lat="37.179579986259341" lon="-7.580787017941475">
        <ele>74.640000000000001</ele>
        <time>2025-05-07T13:30:41Z</time>
      </trkpt>
      <trkpt lat="37.180493026971817" lon="-7.578881978988648">
        <ele>78.480000000000004</ele>
        <time>2025-05-07T13:30:47Z</time>
      </trkpt>
      <trkpt lat="37.18249998986721" lon="-7.576141012832522">
        <ele>86.659999999999997</ele>
        <time>2025-05-07T13:30:57Z</time>
      </trkpt>
      <trkpt lat="37.184158014133573" lon="-7.57353600114584">
        <ele>92.420000000000002</ele>
        <time>2025-05-07T13:31:06Z</time>
      </trkpt>
      <trkpt lat="37.184827979654074" lon="-7.571484027430415">
        <ele>94.829999999999998</ele>
        <time>2025-05-07T13:31:12Z</time>
      </trkpt>
      <trkpt lat="37.185241039842367" lon="-7.568195974454284">
        <ele>97.709999999999994</ele>
        <time>2025-05-07T13:31:21Z</time>
      </trkpt>
      <trkpt lat="37.185732973739505" lon="-7.563015958294272">
        <ele>91.459999999999994</ele>
        <time>2025-05-07T13:31:35Z</time>
      </trkpt>
      <trkpt lat="37.186247035861015" lon="-7.557871984317899">
        <ele>79.450000000000003</ele>
        <time>2025-05-07T13:31:49Z</time>
      </trkpt>
      <trkpt lat="37.186835026368499" lon="-7.554614022374153">
        <ele>74.159999999999997</ele>
        <time>2025-05-07T13:31:58Z</time>
      </trkpt>
      <trkpt lat="37.187852002680302" lon="-7.551527973264456">
        <ele>71.760000000000005</ele>
        <time>2025-05-07T13:32:07Z</time>
      </trkpt>
      <trkpt lat="37.189787970855832" lon="-7.546520037576556">
        <ele>75.120000000000005</ele>
        <time>2025-05-07T13:32:22Z</time>
      </trkpt>
      <trkpt lat="37.19137298874557" lon="-7.542936019599438">
        <ele>77.519999999999996</ele>
        <time>2025-05-07T13:32:33Z</time>
      </trkpt>
      <trkpt lat="37.193896025419235" lon="-7.537919031456113">
        <ele>74.640000000000001</ele>
        <time>2025-05-07T13:32:49Z</time>
      </trkpt>
      <trkpt lat="37.195376018062234" lon="-7.534703984856606">
        <ele>67.909999999999997</ele>
        <time>2025-05-07T13:32:59Z</time>
      </trkpt>
      <trkpt lat="37.196438005194068" lon="-7.531247958540916">
        <ele>63.100000000000001</ele>
        <time>2025-05-07T13:33:09Z</time>
      </trkpt>
      <trkpt lat="37.197761004790664" lon="-7.526321997866035">
        <ele>54.450000000000003</ele>
        <time>2025-05-07T13:33:23Z</time>
      </trkpt>
      <trkpt lat="37.198791978880763" lon="-7.522457018494606">
        <ele>48.200000000000003</ele>
        <time>2025-05-07T13:33:34Z</time>
      </trkpt>
      <trkpt lat="37.199768973514438" lon="-7.518186019733548">
        <ele>41.469999999999999</ele>
        <time>2025-05-07T13:33:46Z</time>
      </trkpt>
      <trkpt lat="37.200243975967169" lon="-7.514909030869603">
        <ele>37.630000000000003</ele>
        <time>2025-05-07T13:33:55Z</time>
      </trkpt>
      <trkpt lat="37.200787039473653" lon="-7.509398013353348">
        <ele>32.340000000000003</ele>
        <time>2025-05-07T13:34:10Z</time>
      </trkpt>
      <trkpt lat="37.200609007850289" lon="-7.506819991394877">
        <ele>31.859999999999999</ele>
        <time>2025-05-07T13:34:17Z</time>
      </trkpt>
      <trkpt lat="37.199904005974531" lon="-7.503999983891845">
        <ele>33.780000000000001</ele>
        <time>2025-05-07T13:34:25Z</time>
      </trkpt>
      <trkpt lat="37.199061037972569" lon="-7.500452008098364">
        <ele>29.460000000000001</ele>
        <time>2025-05-07T13:34:35Z</time>
      </trkpt>
      <trkpt lat="37.199121974408627" lon="-7.498236000537872">
        <ele>24.649999999999999</ele>
        <time>2025-05-07T13:34:41Z</time>
      </trkpt>
      <trkpt lat="37.199630001559854" lon="-7.496108002960682">
        <ele>20.32</ele>
        <time>2025-05-07T13:34:47Z</time>
      </trkpt>
      <trkpt lat="37.200637003406882" lon="-7.494265995919704">
        <ele>17.920000000000002</ele>
        <time>2025-05-07T13:34:53Z</time>
      </trkpt>
      <trkpt lat="37.201975006610155" lon="-7.492811987176538">
        <ele>18.879999999999999</ele>
        <time>2025-05-07T13:34:59Z</time>
      </trkpt>
      <trkpt lat="37.204579012468457" lon="-7.491005016490817">
        <ele>21.289999999999999</ele>
        <time>2025-05-07T13:35:09Z</time>
      </trkpt>
      <trkpt lat="37.208751020953059" lon="-7.488147038966417">
        <ele>25.609999999999999</ele>
        <time>2025-05-07T13:35:25Z</time>
      </trkpt>
      <trkpt lat="37.211218988522887" lon="-7.486076960340142">
        <ele>28.5</ele>
        <time>2025-05-07T13:35:35Z</time>
      </trkpt>
      <trkpt lat="37.214149972423911" lon="-7.483502961695194">
        <ele>27.530000000000001</ele>
        <time>2025-05-07T13:35:47Z</time>
      </trkpt>
      <trkpt lat="37.217061007395387" lon="-7.480945978313685">
        <ele>20.32</ele>
        <time>2025-05-07T13:35:59Z</time>
      </trkpt>
      <trkpt lat="37.221640963107347" lon="-7.47689601033926">
        <ele>14.08</ele>
        <time>2025-05-07T13:36:18Z</time>
      </trkpt>
      <trkpt lat="37.223938023671508" lon="-7.474559973925352">
        <ele>21.77</ele>
        <time>2025-05-07T13:36:28Z</time>
      </trkpt>
      <trkpt lat="37.226605983451009" lon="-7.471092967316508">
        <ele>35.710000000000001</ele>
        <time>2025-05-07T13:36:41Z</time>
      </trkpt>
      <trkpt lat="37.229077974334359" lon="-7.467413982376456">
        <ele>53.009999999999998</ele>
        <time>2025-05-07T13:36:54Z</time>
      </trkpt>
      <trkpt lat="37.229402018710971" lon="-7.466379990801215">
        <ele>55.890000000000001</ele>
        <time>2025-05-07T13:36:57Z</time>
      </trkpt>
      <trkpt lat="37.229460021480918" lon="-7.466020993888378">
        <ele>56.859999999999999</ele>
        <time>2025-05-07T13:36:58Z</time>
      </trkpt>
      <trkpt lat="37.229564962908626" lon="-7.463805992156267">
        <ele>59.740000000000002</ele>
        <time>2025-05-07T13:37:04Z</time>
      </trkpt>
      <trkpt lat="37.229519030079246" lon="-7.45970799587667">
        <ele>57.82</ele>
        <time>2025-05-07T13:37:15Z</time>
      </trkpt>
      <trkpt lat="37.22948600538075" lon="-7.453770004212856">
        <ele>49.159999999999997</ele>
        <time>2025-05-07T13:37:31Z</time>
      </trkpt>
      <trkpt lat="37.229821030050516" lon="-7.451204974204302">
        <ele>44.359999999999999</ele>
        <time>2025-05-07T13:37:38Z</time>
      </trkpt>
      <trkpt lat="37.230611024424434" lon="-7.448778999969363">
        <ele>35.710000000000001</ele>
        <time>2025-05-07T13:37:45Z</time>
      </trkpt>
      <trkpt lat="37.232011975720525" lon="-7.446386972442269">
        <ele>24.649999999999999</ele>
        <time>2025-05-07T13:37:53Z</time>
      </trkpt>
      <trkpt lat="37.233755998313427" lon="-7.444525016471744">
        <ele>13.119999999999999</ele>
        <time>2025-05-07T13:38:01Z</time>
      </trkpt>
      <trkpt lat="37.234784038737416" lon="-7.443187013268471">
        <ele>10.710000000000001</ele>
        <time>2025-05-07T13:38:07Z</time>
      </trkpt>
      <trkpt lat="37.235562968999147" lon="-7.44129697792232">
        <ele>14.08</ele>
        <time>2025-05-07T13:38:15Z</time>
      </trkpt>
      <trkpt lat="37.236122963950038" lon="-7.438805960118771">
        <ele>17.440000000000001</ele>
        <time>2025-05-07T13:38:24Z</time>
      </trkpt>
      <trkpt lat="37.236995017156005" lon="-7.43484903126955">
        <ele>20.809999999999999</ele>
        <time>2025-05-07T13:38:39Z</time>
      </trkpt>
      <trkpt lat="37.237548977136612" lon="-7.431245986372232">
        <ele>20.32</ele>
        <time>2025-05-07T13:38:52Z</time>
      </trkpt>
      <trkpt lat="37.237622989341617" lon="-7.428024988621473">
        <ele>18.879999999999999</ele>
        <time>2025-05-07T13:39:04Z</time>
      </trkpt>
      <trkpt lat="37.237602034583688" lon="-7.424156991764903">
        <ele>20.809999999999999</ele>
        <time>2025-05-07T13:39:18Z</time>
      </trkpt>
      <trkpt lat="37.237602034583688" lon="-7.42163797840476">
        <ele>28.98</ele>
        <time>2025-05-07T13:39:28Z</time>
      </trkpt>
      <trkpt lat="37.237602034583688" lon="-7.418825011700392">
        <ele>31.379999999999999</ele>
        <time>2025-05-07T13:39:39Z</time>
      </trkpt>
      <trkpt lat="37.237602034583688" lon="-7.416876973584294">
        <ele>28.98</ele>
        <time>2025-05-07T13:39:47Z</time>
      </trkpt>
      <trkpt lat="37.237634975463152" lon="-7.414644034579396">
        <ele>22.25</ele>
        <time>2025-05-07T13:39:56Z</time>
      </trkpt>
      <trkpt lat="37.238098997622728" lon="-7.412212025374174">
        <ele>16.48</ele>
        <time>2025-05-07T13:40:05Z</time>
      </trkpt>
      <trkpt lat="37.23868397064507" lon="-7.410075981169939">
        <ele>18.399999999999999</ele>
        <time>2025-05-07T13:40:12Z</time>
      </trkpt>
      <trkpt lat="37.238928973674774" lon="-7.407705998048186">
        <ele>21.77</ele>
        <time>2025-05-07T13:40:19Z</time>
      </trkpt>
      <trkpt lat="37.238797964528203" lon="-7.405197964981198">
        <ele>22.25</ele>
        <time>2025-05-07T13:40:26Z</time>
      </trkpt>
      <trkpt lat="37.238437039777637" lon="-7.400134038180113">
        <ele>19.84</ele>
        <time>2025-05-07T13:40:40Z</time>
      </trkpt>
      <trkpt lat="37.238480960950255" lon="-7.396415993571281">
        <ele>17.440000000000001</ele>
        <time>2025-05-07T13:40:50Z</time>
      </trkpt>
      <trkpt lat="37.238653963431716" lon="-7.391356006264687">
        <ele>15.52</ele>
        <time>2025-05-07T13:41:04Z</time>
      </trkpt>
      <trkpt lat="37.238798970356584" lon="-7.386918039992452">
        <ele>13.119999999999999</ele>
        <time>2025-05-07T13:41:16Z</time>
      </trkpt>
      <trkpt lat="37.238978007808328" lon="-7.381724026054144">
        <ele>12.15</ele>
        <time>2025-05-07T13:41:31Z</time>
      </trkpt>
      <trkpt lat="37.239170959219337" lon="-7.376923961564899">
        <ele>16.48</ele>
        <time>2025-05-07T13:41:43Z</time>
      </trkpt>
      <trkpt lat="37.239589970558882" lon="-7.371415039524436">
        <ele>31.379999999999999</ele>
        <time>2025-05-07T13:41:58Z</time>
      </trkpt>
      <trkpt lat="37.240317016839981" lon="-7.365934029221535">
        <ele>45.32</ele>
        <time>2025-05-07T13:42:13Z</time>
      </trkpt>
      <trkpt lat="37.241186974570155" lon="-7.361599998548627">
        <ele>46.759999999999998</ele>
        <time>2025-05-07T13:42:25Z</time>
      </trkpt>
      <trkpt lat="37.24250502884388" lon="-7.356324009597302">
        <ele>42.439999999999998</ele>
        <time>2025-05-07T13:42:40Z</time>
      </trkpt>
      <trkpt lat="37.2440529987216" lon="-7.35150701366365">
        <ele>53.009999999999998</ele>
        <time>2025-05-07T13:42:54Z</time>
      </trkpt>
      <trkpt lat="37.24547297693789" lon="-7.347827022895217">
        <ele>56.859999999999999</ele>
        <time>2025-05-07T13:43:05Z</time>
      </trkpt>
      <trkpt lat="37.247348008677363" lon="-7.343614026904106">
        <ele>57.82</ele>
        <time>2025-05-07T13:43:18Z</time>
      </trkpt>
      <trkpt lat="37.248898996040225" lon="-7.340442985296249">
        <ele>54.93</ele>
        <time>2025-05-07T13:43:35Z</time>
      </trkpt>
      <trkpt lat="37.253037979826331" lon="-7.33273196965456">
        <ele>50.130000000000003</ele>
        <time>2025-05-07T13:43:53Z</time>
      </trkpt>
      <trkpt lat="37.25546495988965" lon="-7.328101973980665">
        <ele>46.759999999999998</ele>
        <time>2025-05-07T13:44:08Z</time>
      </trkpt>
      <trkpt lat="37.256997004151344" lon="-7.324513010680676">
        <ele>49.649999999999999</ele>
        <time>2025-05-07T13:44:19Z</time>
      </trkpt>
      <trkpt lat="37.258281027898192" lon="-7.320374026894569">
        <ele>53.969999999999999</ele>
        <time>2025-05-07T13:44:31Z</time>
      </trkpt>
      <trkpt lat="37.259111003950238" lon="-7.316421959549189">
        <ele>55.409999999999997</ele>
        <time>2025-05-07T13:44:42Z</time>
      </trkpt>
      <trkpt lat="37.259573014453053" lon="-7.312374003231525">
        <ele>49.159999999999997</ele>
        <time>2025-05-07T13:44:53Z</time>
      </trkpt>
      <trkpt lat="37.259809970855713" lon="-7.309060972183943">
        <ele>51.57</ele>
        <time>2025-05-07T13:45:02Z</time>
      </trkpt>
      <trkpt lat="37.260206015780568" lon="-7.3038549721241">
        <ele>57.82</ele>
        <time>2025-05-07T13:45:16Z</time>
      </trkpt>
      <trkpt lat="37.260883022099733" lon="-7.298733964562416">
        <ele>63.100000000000001</ele>
        <time>2025-05-07T13:45:30Z</time>
      </trkpt>
      <trkpt lat="37.261778963729739" lon="-7.294054012745619">
        <ele>57.340000000000003</ele>
        <time>2025-05-07T13:45:43Z</time>
      </trkpt>
      <trkpt lat="37.263374039903283" lon="-7.287682006135583">
        <ele>46.759999999999998</ele>
        <time>2025-05-07T13:46:01Z</time>
      </trkpt>
      <trkpt lat="37.264869958162308" lon="-7.282049031928182">
        <ele>37.630000000000003</ele>
        <time>2025-05-07T13:46:17Z</time>
      </trkpt>
      <trkpt lat="37.266000006347895" lon="-7.277445020154119">
        <ele>38.590000000000003</ele>
        <time>2025-05-07T13:46:30Z</time>
      </trkpt>
      <trkpt lat="37.266790000721812" lon="-7.273855973035097">
        <ele>46.759999999999998</ele>
        <time>2025-05-07T13:46:40Z</time>
      </trkpt>
      <trkpt lat="37.267611008137465" lon="-7.269127992913127">
        <ele>45.799999999999997</ele>
        <time>2025-05-07T13:46:53Z</time>
      </trkpt>
      <trkpt lat="37.268510973080993" lon="-7.263283962383866">
        <ele>42.439999999999998</ele>
        <time>2025-05-07T13:47:09Z</time>
      </trkpt>
      <trkpt lat="37.26947003044188" lon="-7.259776974096894">
        <ele>43.399999999999999</ele>
        <time>2025-05-07T13:47:19Z</time>
      </trkpt>
      <trkpt lat="37.270862013101578" lon="-7.256518006324768">
        <ele>44.359999999999999</ele>
        <time>2025-05-07T13:47:29Z</time>
      </trkpt>
      <trkpt lat="37.271897010505199" lon="-7.254697037860751">
        <ele>52.530000000000001</ele>
        <time>2025-05-07T13:47:42Z</time>
      </trkpt>
      <trkpt lat="37.273282958194613" lon="-7.252760985866189">
        <ele>53.009999999999998</ele>
        <time>2025-05-07T13:47:49Z</time>
      </trkpt>
      <trkpt lat="37.277658982202411" lon="-7.248287983238697">
        <ele>55.890000000000001</ele>
        <time>2025-05-07T13:48:01Z</time>
      </trkpt>
      <trkpt lat="37.280252007767558" lon="-7.245244011282921">
        <ele>53.009999999999998</ele>
        <time>2025-05-07T13:48:13Z</time>
      </trkpt>
      <trkpt lat="37.282238015905023" lon="-7.242313027381897">
        <ele>48.200000000000003</ele>
        <time>2025-05-07T13:48:23Z</time>
      </trkpt>
      <trkpt lat="37.283533019945025" lon="-7.240367000922561">
        <ele>45.32</ele>
        <time>2025-05-07T13:48:29Z</time>
      </trkpt>
      <trkpt lat="37.284523006528616" lon="-7.239004019647837">
        <ele>41.950000000000003</ele>
        <time>2025-05-07T13:48:41Z</time>
      </trkpt>
      <trkpt lat="37.288661990314722" lon="-7.234200015664101">
        <ele>48.200000000000003</ele>
        <time>2025-05-07T13:49:00Z</time>
      </trkpt>
      <trkpt lat="37.292356984689832" lon="-7.228867029771209">
        <ele>47.719999999999999</ele>
        <time>2025-05-07T13:49:12Z</time>
      </trkpt>
      <trkpt lat="37.294033030048013" lon="-7.225363980978727">
        <ele>44.840000000000003</ele>
        <time>2025-05-07T13:49:23Z</time>
      </trkpt>
      <trkpt lat="37.295541018247604" lon="-7.221760014072061">
        <ele>42.439999999999998</ele>
        <time>2025-05-07T13:49:41Z</time>
      </trkpt>
      <trkpt lat="37.296660002321005" lon="-7.219579964876175">
        <ele>42.920000000000002</ele>
        <time>2025-05-07T13:49:48Z</time>
      </trkpt>
      <trkpt lat="37.297949977219105" lon="-7.217533020302653">
        <ele>44.840000000000003</ele>
        <time>2025-05-07T13:49:55Z</time>
      </trkpt>
      <trkpt lat="37.301348000764847" lon="-7.212912999093533">
        <ele>48.68</ele>
        <time>2025-05-07T13:50:05Z</time>
      </trkpt>
      <trkpt lat="37.3030099645257" lon="-7.209832984954119">
        <ele>50.130000000000003</ele>
        <time>2025-05-07T13:50:15Z</time>
      </trkpt>
      <trkpt lat="37.304841997101903" lon="-7.205583024770021">
        <ele>46.280000000000001</ele>
        <time>2025-05-07T13:50:28Z</time>
      </trkpt>
      <trkpt lat="37.30659699998796" lon="-7.202584985643625">
        <ele>41.950000000000003</ele>
        <time>2025-05-07T13:50:38Z</time>
      </trkpt>
      <trkpt lat="37.308838991448283" lon="-7.199595998972654">
        <ele>30.420000000000002</ele>
        <time>2025-05-07T13:50:49Z</time>
      </trkpt>
      <trkpt lat="37.310727015137672" lon="-7.196749001741409">
        <ele>24.170000000000002</ele>
        <time>2025-05-07T13:50:59Z</time>
      </trkpt>
      <trkpt lat="37.31259198859334" lon="-7.192978989332914">
        <ele>28.98</ele>
        <time>2025-05-07T13:51:11Z</time>
      </trkpt>
      <trkpt lat="37.314495015889406" lon="-7.189664030447602">
        <ele>40.030000000000001</ele>
        <time>2025-05-07T13:51:22Z</time>
      </trkpt>
      <trkpt lat="37.317110002040863" lon="-7.186104990541935">
        <ele>49.649999999999999</ele>
        <time>2025-05-07T13:51:35Z</time>
      </trkpt>
      <trkpt lat="37.318746987730265" lon="-7.183456979691982">
        <ele>51.090000000000003</ele>
        <time>2025-05-07T13:51:44Z</time>
      </trkpt>
      <trkpt lat="37.320942962542176" lon="-7.179480018094182">
        <ele>49.159999999999997</ele>
        <time>2025-05-07T13:51:57Z</time>
      </trkpt>
      <trkpt lat="37.322809025645256" lon="-7.177085978910327">
        <ele>45.32</ele>
        <time>2025-05-07T13:52:06Z</time>
      </trkpt>
      <trkpt lat="37.325182026252151" lon="-7.174866031855345">
        <ele>42.439999999999998</ele>
        <time>2025-05-07T13:52:16Z</time>
      </trkpt>
      <trkpt lat="37.327215978875756" lon="-7.17273099347949">
        <ele>41.469999999999999</ele>
        <time>2025-05-07T13:52:25Z</time>
      </trkpt>
      <trkpt lat="37.328607961535454" lon="-7.170343995094299">
        <ele>42.439999999999998</ele>
        <time>2025-05-07T13:52:33Z</time>
      </trkpt>
      <trkpt lat="37.329513039439917" lon="-7.167604034766555">
        <ele>43.880000000000003</ele>
        <time>2025-05-07T13:52:41Z</time>
      </trkpt>
      <trkpt lat="37.330676028504968" lon="-7.163800997659564">
        <ele>47.719999999999999</ele>
        <time>2025-05-07T13:52:52Z</time>
      </trkpt>
      <trkpt lat="37.332004979252815" lon="-7.160879988223314">
        <ele>52.049999999999997</ele>
        <time>2025-05-07T13:53:01Z</time>
      </trkpt>
      <trkpt lat="37.332950038835406" lon="-7.158166011795402">
        <ele>53.490000000000002</ele>
        <time>2025-05-07T13:53:09Z</time>
      </trkpt>
      <trkpt lat="37.33330300077796" lon="-7.155621014535427">
        <ele>54.93</ele>
        <time>2025-05-07T13:53:16Z</time>
      </trkpt>
      <trkpt lat="37.333161011338234" lon="-7.153020026162267">
        <ele>57.340000000000003</ele>
        <time>2025-05-07T13:53:23Z</time>
      </trkpt>
      <trkpt lat="37.332547958940268" lon="-7.150539988651872">
        <ele>56.369999999999997</ele>
        <time>2025-05-07T13:53:30Z</time>
      </trkpt>
      <trkpt lat="37.331400979310274" lon="-7.147940006107092">
        <ele>54.450000000000003</ele>
        <time>2025-05-07T13:53:38Z</time>
      </trkpt>
      <trkpt lat="37.330406969413161" lon="-7.145246984437108">
        <ele>53.969999999999999</ele>
        <time>2025-05-07T13:53:46Z</time>
      </trkpt>
      <trkpt lat="37.329340036958456" lon="-7.141385022550821">
        <ele>53.009999999999998</ele>
        <time>2025-05-07T13:53:57Z</time>
      </trkpt>
      <trkpt lat="37.328139999881387" lon="-7.138394024223089">
        <ele>53.969999999999999</ele>
        <time>2025-05-07T13:54:06Z</time>
      </trkpt>
      <trkpt lat="37.326444005593657" lon="-7.134088994935155">
        <ele>59.740000000000002</ele>
        <time>2025-05-07T13:54:19Z</time>
      </trkpt>
      <trkpt lat="37.325530964881182" lon="-7.13055401109159">
        <ele>62.619999999999997</ele>
        <time>2025-05-07T13:54:29Z</time>
      </trkpt>
      <trkpt lat="37.324940040707588" lon="-7.126532038673759">
        <ele>63.100000000000001</ele>
        <time>2025-05-07T13:54:40Z</time>
      </trkpt>
      <trkpt lat="37.324549024924636" lon="-7.121743960306048">
        <ele>60.700000000000003</ele>
        <time>2025-05-07T13:54:53Z</time>
      </trkpt>
      <trkpt lat="37.324264962226152" lon="-7.119850991293788">
        <ele>59.740000000000002</ele>
        <time>2025-05-07T13:54:59Z</time>
      </trkpt>
      <trkpt lat="37.323889033868909" lon="-7.118159020319581">
        <ele>59.259999999999998</ele>
        <time>2025-05-07T13:55:06Z</time>
      </trkpt>
      <trkpt lat="37.323845028877258" lon="-7.11798501200974">
        <ele>58.780000000000001</ele>
        <time>2025-05-07T13:55:08Z</time>
      </trkpt>
      <trkpt lat="37.32348301447928" lon="-7.117311023175716">
        <ele>59.740000000000002</ele>
        <time>2025-05-07T13:55:12Z</time>
      </trkpt>
      <trkpt lat="37.323411013931036" lon="-7.117187976837158">
        <ele>59.740000000000002</ele>
        <time>2025-05-07T13:55:13Z</time>
      </trkpt>
      <trkpt lat="37.323332978412509" lon="-7.117151012644172">
        <ele>59.740000000000002</ele>
        <time>2025-05-07T13:55:14Z</time>
      </trkpt>
      <trkpt lat="37.323191994801164" lon="-7.117083035409451">
        <ele>60.219999999999999</ele>
        <time>2025-05-07T13:55:16Z</time>
      </trkpt>
      <trkpt lat="37.323134997859597" lon="-7.117055961862207">
        <ele>60.700000000000003</ele>
        <time>2025-05-07T13:55:17Z</time>
      </trkpt>
      <trkpt lat="37.323035001754761" lon="-7.117007011547685">
        <ele>61.18</ele>
        <time>2025-05-07T13:55:19Z</time>
      </trkpt>
      <trkpt lat="37.322992002591491" lon="-7.116985972970724">
        <ele>61.18</ele>
        <time>2025-05-07T13:55:20Z</time>
      </trkpt>
      <trkpt lat="37.32279796153307" lon="-7.116876002401114">
        <ele>62.619999999999997</ele>
        <time>2025-05-07T13:55:25Z</time>
      </trkpt>
      <trkpt lat="37.322784969583154" lon="-7.116863010451198">
        <ele>63.100000000000001</ele>
        <time>2025-05-07T13:55:26Z</time>
      </trkpt>
      <trkpt lat="37.322770971804857" lon="-7.116849012672901">
        <ele>63.100000000000001</ele>
        <time>2025-05-07T13:55:27Z</time>
      </trkpt>
      <trkpt lat="37.32275596819818" lon="-7.116833003237844">
        <ele>63.100000000000001</ele>
        <time>2025-05-07T13:55:28Z</time>
      </trkpt>
      <trkpt lat="37.322738030925393" lon="-7.116814982146025">
        <ele>63.100000000000001</ele>
        <time>2025-05-07T13:55:29Z</time>
      </trkpt>
      <trkpt lat="37.322616996243596" lon="-7.11669503711164">
        <ele>63.100000000000001</ele>
        <time>2025-05-07T13:55:30Z</time>
      </trkpt>
      <trkpt lat="37.322616996243596" lon="-7.11669503711164">
        <ele>63.100000000000001</ele>
        <time>2025-05-07T13:55:43Z</time>
      </trkpt>
      <trkpt lat="37.322616996243596" lon="-7.11669503711164">
        <ele>62.619999999999997</ele>
        <time>2025-05-07T13:56:38Z</time>
      </trkpt>
      <trkpt lat="37.322859987616539" lon="-7.116105034947395">
        <ele>65.030000000000001</ele>
        <time>2025-05-07T14:03:03Z</time>
      </trkpt>
      <trkpt lat="37.322828974574804" lon="-7.116171000525355">
        <ele>64.549999999999997</ele>
        <time>2025-05-07T14:03:13Z</time>
      </trkpt>
      <trkpt lat="37.323093004524708" lon="-7.11603001691401">
        <ele>64.069999999999993</ele>
        <time>2025-05-07T14:03:16Z</time>
      </trkpt>
      <trkpt lat="37.322806008160114" lon="-7.116046026349068">
        <ele>63.579999999999998</ele>
        <time>2025-05-07T14:03:17Z</time>
      </trkpt>
      <trkpt lat="37.322917990386486" lon="-7.11588098667562">
        <ele>64.069999999999993</ele>
        <time>2025-05-07T14:03:22Z</time>
      </trkpt>
      <trkpt lat="37.323032990098" lon="-7.11579498834908">
        <ele>65.030000000000001</ele>
        <time>2025-05-07T14:03:24Z</time>
      </trkpt>
      <trkpt lat="37.323021003976464" lon="-7.115746960043907">
        <ele>65.030000000000001</ele>
        <time>2025-05-07T14:03:25Z</time>
      </trkpt>
      <trkpt lat="37.323003988713026" lon="-7.115682000294328">
        <ele>65.030000000000001</ele>
        <time>2025-05-07T14:03:26Z</time>
      </trkpt>
      <trkpt lat="37.322984961792827" lon="-7.115607988089323">
        <ele>65.510000000000005</ele>
        <time>2025-05-07T14:03:27Z</time>
      </trkpt>
      <trkpt lat="37.322965012863278" lon="-7.115527018904686">
        <ele>65.510000000000005</ele>
        <time>2025-05-07T14:03:28Z</time>
      </trkpt>
      <trkpt lat="37.322941962629557" lon="-7.115436997264624">
        <ele>65.510000000000005</ele>
        <time>2025-05-07T14:03:29Z</time>
      </trkpt>
      <trkpt lat="37.322702994570136" lon="-7.114499984309077">
        <ele>69.349999999999994</ele>
        <time>2025-05-07T14:03:39Z</time>
      </trkpt>
      <trkpt lat="37.322679022327065" lon="-7.114407029002905">
        <ele>69.829999999999998</ele>
        <time>2025-05-07T14:03:40Z</time>
      </trkpt>
      <trkpt lat="37.322657983750105" lon="-7.114324970170856">
        <ele>70.790000000000006</ele>
        <time>2025-05-07T14:03:41Z</time>
      </trkpt>
      <trkpt lat="37.322636023163795" lon="-7.114236038178206">
        <ele>71.269999999999996</ele>
        <time>2025-05-07T14:03:42Z</time>
      </trkpt>
      <trkpt lat="37.322610039263964" lon="-7.114121960476041">
        <ele>71.760000000000005</ele>
        <time>2025-05-07T14:03:43Z</time>
      </trkpt>
      <trkpt lat="37.3226029984653" lon="-7.11330003105104">
        <ele>73.680000000000007</ele>
        <time>2025-05-07T14:03:48Z</time>
      </trkpt>
      <trkpt lat="37.322611967101693" lon="-7.113110013306141">
        <ele>73.680000000000007</ele>
        <time>2025-05-07T14:03:49Z</time>
      </trkpt>
      <trkpt lat="37.322372999042273" lon="-7.111226012930274">
        <ele>77.519999999999996</ele>
        <time>2025-05-07T14:03:57Z</time>
      </trkpt>
      <trkpt lat="37.322161020711064" lon="-7.107971990481019">
        <ele>83.769999999999996</ele>
        <time>2025-05-07T14:04:08Z</time>
      </trkpt>
      <trkpt lat="37.322276020422578" lon="-7.105002030730248">
        <ele>88.099999999999994</ele>
        <time>2025-05-07T14:04:16Z</time>
      </trkpt>
      <trkpt lat="37.322656977921724" lon="-7.10131399333477">
        <ele>87.620000000000005</ele>
        <time>2025-05-07T14:04:26Z</time>
      </trkpt>
      <trkpt lat="37.322802990674973" lon="-7.096855994313955">
        <ele>84.730000000000004</ele>
        <time>2025-05-07T14:04:38Z</time>
      </trkpt>
      <trkpt lat="37.322529992088675" lon="-7.09203103557229">
        <ele>78</ele>
        <time>2025-05-07T14:04:51Z</time>
      </trkpt>
      <trkpt lat="37.322420021519065" lon="-7.087217979133129">
        <ele>71.269999999999996</ele>
        <time>2025-05-07T14:05:04Z</time>
      </trkpt>
      <trkpt lat="37.32275303453207" lon="-7.083173962309957">
        <ele>68.870000000000005</ele>
        <time>2025-05-07T14:05:15Z</time>
      </trkpt>
      <trkpt lat="37.323259972035885" lon="-7.078005010262132">
        <ele>66.469999999999999</ele>
        <time>2025-05-07T14:05:29Z</time>
      </trkpt>
      <trkpt lat="37.323238011449575" lon="-7.0743059925735">
        <ele>65.030000000000001</ele>
        <time>2025-05-07T14:05:39Z</time>
      </trkpt>
      <trkpt lat="37.323089987039566" lon="-7.068717023357749">
        <ele>59.259999999999998</ele>
        <time>2025-05-07T14:05:54Z</time>
      </trkpt>
      <trkpt lat="37.323332978412509" lon="-7.064299006015062">
        <ele>50.609999999999999</ele>
        <time>2025-05-07T14:06:06Z</time>
      </trkpt>
      <trkpt lat="37.324116015806794" lon="-7.059574965387583">
        <ele>46.759999999999998</ele>
        <time>2025-05-07T14:06:19Z</time>
      </trkpt>
      <trkpt lat="37.325182026252151" lon="-7.055708980187774">
        <ele>48.200000000000003</ele>
        <time>2025-05-07T14:06:30Z</time>
      </trkpt>
      <trkpt lat="37.326367981731892" lon="-7.052312968298793">
        <ele>50.609999999999999</ele>
        <time>2025-05-07T14:06:40Z</time>
      </trkpt>
      <trkpt lat="37.328708963468671" lon="-7.046314040198922">
        <ele>50.609999999999999</ele>
        <time>2025-05-07T14:06:58Z</time>
      </trkpt>
      <trkpt lat="37.330371011048555" lon="-7.041951008141041">
        <ele>46.280000000000001</ele>
        <time>2025-05-07T14:07:11Z</time>
      </trkpt>
      <trkpt lat="37.332119978964329" lon="-7.036812985315919">
        <ele>44.359999999999999</ele>
        <time>2025-05-07T14:07:26Z</time>
      </trkpt>
      <trkpt lat="37.333428980782628" lon="-7.032273011282086">
        <ele>40.990000000000002</ele>
        <time>2025-05-07T14:07:39Z</time>
      </trkpt>
      <trkpt lat="37.334598004817963" lon="-7.027265997603536">
        <ele>37.149999999999999</ele>
        <time>2025-05-07T14:07:53Z</time>
      </trkpt>
      <trkpt lat="37.335484977811575" lon="-7.022959962487221">
        <ele>35.229999999999997</ele>
        <time>2025-05-07T14:08:05Z</time>
      </trkpt>
      <trkpt lat="37.336306991055608" lon="-7.018998004496098">
        <ele>30.420000000000002</ele>
        <time>2025-05-07T14:08:16Z</time>
      </trkpt>
      <trkpt lat="37.337692016735673" lon="-7.013697037473321">
        <ele>28.5</ele>
        <time>2025-05-07T14:08:31Z</time>
      </trkpt>
      <trkpt lat="37.339135967195034" lon="-7.009622007608414">
        <ele>28.5</ele>
        <time>2025-05-07T14:08:43Z</time>
      </trkpt>
      <trkpt lat="37.341073025017977" lon="-7.005453016608954">
        <ele>31.859999999999999</ele>
        <time>2025-05-07T14:08:56Z</time>
      </trkpt>
      <trkpt lat="37.342954007908702" lon="-7.002093968912959">
        <ele>35.229999999999997</ele>
        <time>2025-05-07T14:09:07Z</time>
      </trkpt>
      <trkpt lat="37.345059961080551" lon="-6.998483967036009">
        <ele>28.98</ele>
        <time>2025-05-07T14:09:19Z</time>
      </trkpt>
      <trkpt lat="37.346999030560255" lon="-6.994863990694284">
        <ele>17.440000000000001</ele>
        <time>2025-05-07T14:09:31Z</time>
      </trkpt>
      <trkpt lat="37.34821499325335" lon="-6.991956979036331">
        <ele>16.960000000000001</ele>
        <time>2025-05-07T14:09:42Z</time>
      </trkpt>
      <trkpt lat="37.348884958773851" lon="-6.990120001137257">
        <ele>15.52</ele>
        <time>2025-05-07T14:09:50Z</time>
      </trkpt>
      <trkpt lat="37.349702026695013" lon="-6.987640969455242">
        <ele>15.52</ele>
        <time>2025-05-07T14:10:02Z</time>
      </trkpt>
      <trkpt lat="37.350573996081948" lon="-6.984919030219317">
        <ele>15.039999999999999</ele>
        <time>2025-05-07T14:10:15Z</time>
      </trkpt>
      <trkpt lat="37.351172966882586" lon="-6.982980966567993">
        <ele>16.960000000000001</ele>
        <time>2025-05-07T14:10:22Z</time>
      </trkpt>
      <trkpt lat="37.35201601870358" lon="-6.980253998190165">
        <ele>15.52</ele>
        <time>2025-05-07T14:10:30Z</time>
      </trkpt>
      <trkpt lat="37.353408001363277" lon="-6.975748976692557">
        <ele>14.08</ele>
        <time>2025-05-07T14:10:43Z</time>
      </trkpt>
      <trkpt lat="37.354320036247373" lon="-6.97223000228405">
        <ele>11.67</ele>
        <time>2025-05-07T14:10:53Z</time>
      </trkpt>
      <trkpt lat="37.355317985638976" lon="-6.967573016881943">
        <ele>12.15</ele>
        <time>2025-05-07T14:11:06Z</time>
      </trkpt>
      <trkpt lat="37.355979988351464" lon="-6.962817963212729">
        <ele>16.960000000000001</ele>
        <time>2025-05-07T14:11:19Z</time>
      </trkpt>
      <trkpt lat="37.356460019946098" lon="-6.957640964537859">
        <ele>24.170000000000002</ele>
        <time>2025-05-07T14:11:33Z</time>
      </trkpt>
      <trkpt lat="37.356588011607528" lon="-6.952427001670003">
        <ele>28.5</ele>
        <time>2025-05-07T14:11:47Z</time>
      </trkpt>
      <trkpt lat="37.356483992189169" lon="-6.948719015344977">
        <ele>27.530000000000001</ele>
        <time>2025-05-07T14:11:57Z</time>
      </trkpt>
      <trkpt lat="37.356190038844943" lon="-6.945025026798248">
        <ele>26.09</ele>
        <time>2025-05-07T14:12:07Z</time>
      </trkpt>
      <trkpt lat="37.355643035843968" lon="-6.941777039319277">
        <ele>24.170000000000002</ele>
        <time>2025-05-07T14:12:16Z</time>
      </trkpt>
      <trkpt lat="37.354614995419979" lon="-6.937890015542507">
        <ele>21.77</ele>
        <time>2025-05-07T14:12:27Z</time>
      </trkpt>
      <trkpt lat="37.353147994726896" lon="-6.934235002845526">
        <ele>20.809999999999999</ele>
        <time>2025-05-07T14:12:38Z</time>
      </trkpt>
      <trkpt lat="37.351118987426162" lon="-6.93059197627008">
        <ele>21.289999999999999</ele>
        <time>2025-05-07T14:12:50Z</time>
      </trkpt>
      <trkpt lat="37.34911696985364" lon="-6.927858972921968">
        <ele>21.289999999999999</ele>
        <time>2025-05-07T14:13:00Z</time>
      </trkpt>
      <trkpt lat="37.346620000898838" lon="-6.925247004255652">
        <ele>21.77</ele>
        <time>2025-05-07T14:13:11Z</time>
      </trkpt>
      <trkpt lat="37.343584997579455" lon="-6.922922031953931">
        <ele>26.09</ele>
        <time>2025-05-07T14:13:23Z</time>
      </trkpt>
      <trkpt lat="37.340418985113502" lon="-6.92092495970428">
        <ele>32.340000000000003</ele>
        <time>2025-05-07T14:13:35Z</time>
      </trkpt>
      <trkpt lat="37.336909985169768" lon="-6.918973987922072">
        <ele>33.780000000000001</ele>
        <time>2025-05-07T14:13:48Z</time>
      </trkpt>
      <trkpt lat="37.333093034103513" lon="-6.916854958981276">
        <ele>27.050000000000001</ele>
        <time>2025-05-07T14:14:02Z</time>
      </trkpt>
      <trkpt lat="37.330005979165435" lon="-6.914879009127617">
        <ele>22.73</ele>
        <time>2025-05-07T14:14:14Z</time>
      </trkpt>
      <trkpt lat="37.327862977981567" lon="-6.913317963480949">
        <ele>19.84</ele>
        <time>2025-05-07T14:14:24Z</time>
      </trkpt>
      <trkpt lat="37.32589197345078" lon="-6.911702016368508">
        <ele>18.879999999999999</ele>
        <time>2025-05-07T14:14:32Z</time>
      </trkpt>
      <trkpt lat="37.322845989838243" lon="-6.908758040517569">
        <ele>16.48</ele>
        <time>2025-05-07T14:14:45Z</time>
      </trkpt>
      <trkpt lat="37.32066803611815" lon="-6.906274985522032">
        <ele>16</ele>
        <time>2025-05-07T14:14:55Z</time>
      </trkpt>
      <trkpt lat="37.31807098723948" lon="-6.902776965871453">
        <ele>14.56</ele>
        <time>2025-05-07T14:15:08Z</time>
      </trkpt>
      <trkpt lat="37.316213976591825" lon="-6.899435017257929">
        <ele>15.039999999999999</ele>
        <time>2025-05-07T14:15:19Z</time>
      </trkpt>
      <trkpt lat="37.314741024747491" lon="-6.895820992067456">
        <ele>15.039999999999999</ele>
        <time>2025-05-07T14:15:30Z</time>
      </trkpt>
      <trkpt lat="37.313596978783607" lon="-6.891627022996545">
        <ele>16.48</ele>
        <time>2025-05-07T14:15:42Z</time>
      </trkpt>
      <trkpt lat="37.313147038221359" lon="-6.888748006895185">
        <ele>16</ele>
        <time>2025-05-07T14:15:50Z</time>
      </trkpt>
      <trkpt lat="37.312658959999681" lon="-6.884004017338157">
        <ele>18.879999999999999</ele>
        <time>2025-05-07T14:16:03Z</time>
      </trkpt>
      <trkpt lat="37.312000980600715" lon="-6.880417987704277">
        <ele>22.73</ele>
        <time>2025-05-07T14:16:13Z</time>
      </trkpt>
      <trkpt lat="37.311808029189706" lon="-6.877851029857993">
        <ele>25.609999999999999</ele>
        <time>2025-05-07T14:16:20Z</time>
      </trkpt>
      <trkpt lat="37.3120759986341" lon="-6.875771982595325">
        <ele>25.609999999999999</ele>
        <time>2025-05-07T14:16:26Z</time>
      </trkpt>
      <trkpt lat="37.312934976071119" lon="-6.873413985595107">
        <ele>22.73</ele>
        <time>2025-05-07T14:16:33Z</time>
      </trkpt>
      <trkpt lat="37.314205002039671" lon="-6.870934031903744">
        <ele>19.359999999999999</ele>
        <time>2025-05-07T14:16:41Z</time>
      </trkpt>
      <trkpt lat="37.315002959221601" lon="-6.86856203712523">
        <ele>17.920000000000002</ele>
        <time>2025-05-07T14:16:48Z</time>
      </trkpt>
      <trkpt lat="37.315666973590851" lon="-6.865562992170453">
        <ele>16.48</ele>
        <time>2025-05-07T14:16:57Z</time>
      </trkpt>
      <trkpt lat="37.31645897962153" lon="-6.862224983051419">
        <ele>16.960000000000001</ele>
        <time>2025-05-07T14:17:07Z</time>
      </trkpt>
      <trkpt lat="37.317433040589094" lon="-6.858837017789483">
        <ele>16.48</ele>
        <time>2025-05-07T14:17:17Z</time>
      </trkpt>
      <trkpt lat="37.319111013785005" lon="-6.854118006303906">
        <ele>17.440000000000001</ele>
        <time>2025-05-07T14:17:31Z</time>
      </trkpt>
      <trkpt lat="37.320659989491105" lon="-6.850566007196903">
        <ele>16.960000000000001</ele>
        <time>2025-05-07T14:17:42Z</time>
      </trkpt>
      <trkpt lat="37.322175018489361" lon="-6.847021970897913">
        <ele>13.6</ele>
        <time>2025-05-07T14:17:53Z</time>
      </trkpt>
      <trkpt lat="37.323257038369775" lon="-6.843615984544158">
        <ele>11.67</ele>
        <time>2025-05-07T14:18:03Z</time>
      </trkpt>
      <trkpt lat="37.323961034417152" lon="-6.840024003759027">
        <ele>12.15</ele>
        <time>2025-05-07T14:18:13Z</time>
      </trkpt>
      <trkpt lat="37.32483996078372" lon="-6.834972985088825">
        <ele>16.960000000000001</ele>
        <time>2025-05-07T14:18:27Z</time>
      </trkpt>
      <trkpt lat="37.325945030897856" lon="-6.831171037629247">
        <ele>18.879999999999999</ele>
        <time>2025-05-07T14:18:38Z</time>
      </trkpt>
      <trkpt lat="37.32771503739059" lon="-6.825706036761403">
        <ele>17.920000000000002</ele>
        <time>2025-05-07T14:18:54Z</time>
      </trkpt>
      <trkpt lat="37.328944997861981" lon="-6.820779992267489">
        <ele>18.879999999999999</ele>
        <time>2025-05-07T14:19:08Z</time>
      </trkpt>
      <trkpt lat="37.329916963353753" lon="-6.815013997256756">
        <ele>18.399999999999999</ele>
        <time>2025-05-07T14:19:24Z</time>
      </trkpt>
      <trkpt lat="37.330809971317649" lon="-6.809983011335135">
        <ele>20.32</ele>
        <time>2025-05-07T14:19:38Z</time>
      </trkpt>
      <trkpt lat="37.332084020599723" lon="-6.803545039147139">
        <ele>22.25</ele>
        <time>2025-05-07T14:19:56Z</time>
      </trkpt>
      <trkpt lat="37.332686008885503" lon="-6.798811024054885">
        <ele>24.170000000000002</ele>
        <time>2025-05-07T14:20:09Z</time>
      </trkpt>
      <trkpt lat="37.333051040768623" lon="-6.793668977916241">
        <ele>29.940000000000001</ele>
        <time>2025-05-07T14:20:23Z</time>
      </trkpt>
      <trkpt lat="37.333419006317854" lon="-6.789265964180231">
        <ele>30.420000000000002</ele>
        <time>2025-05-07T14:20:35Z</time>
      </trkpt>
      <trkpt lat="37.333914963528514" lon="-6.785251032561064">
        <ele>28.98</ele>
        <time>2025-05-07T14:20:46Z</time>
      </trkpt>
      <trkpt lat="37.334324000403285" lon="-6.781235011294484">
        <ele>29.460000000000001</ele>
        <time>2025-05-07T14:20:57Z</time>
      </trkpt>
      <trkpt lat="37.334483005106449" lon="-6.776451962068677">
        <ele>29.460000000000001</ele>
        <time>2025-05-07T14:21:10Z</time>
      </trkpt>
      <trkpt lat="37.334489040076733" lon="-6.771248979493976">
        <ele>27.530000000000001</ele>
        <time>2025-05-07T14:21:24Z</time>
      </trkpt>
      <trkpt lat="37.334715016186237" lon="-6.767162969335914">
        <ele>29.460000000000001</ele>
        <time>2025-05-07T14:21:35Z</time>
      </trkpt>
      <trkpt lat="37.335003018379211" lon="-6.764975041151047">
        <ele>26.09</ele>
        <time>2025-05-07T14:21:41Z</time>
      </trkpt>
      <trkpt lat="37.335798963904381" lon="-6.761038983240724">
        <ele>23.690000000000001</ele>
        <time>2025-05-07T14:21:52Z</time>
      </trkpt>
      <trkpt lat="37.336973017081618" lon="-6.756834033876658">
        <ele>16</ele>
        <time>2025-05-07T14:22:04Z</time>
      </trkpt>
      <trkpt lat="37.338191997259855" lon="-6.752247959375382">
        <ele>15.52</ele>
        <time>2025-05-07T14:22:17Z</time>
      </trkpt>
      <trkpt lat="37.33923302963376" lon="-6.74721403978765">
        <ele>21.289999999999999</ele>
        <time>2025-05-07T14:22:31Z</time>
      </trkpt>
      <trkpt lat="37.339914981275797" lon="-6.741697993129492">
        <ele>26.09</ele>
        <time>2025-05-07T14:22:46Z</time>
      </trkpt>
      <trkpt lat="37.340174987912178" lon="-6.736865993589163">
        <ele>27.050000000000001</ele>
        <time>2025-05-07T14:22:59Z</time>
      </trkpt>
      <trkpt lat="37.340210024267435" lon="-6.732019996270537">
        <ele>25.129999999999999</ele>
        <time>2025-05-07T14:23:12Z</time>
      </trkpt>
      <trkpt lat="37.340572960674763" lon="-6.727585969492793">
        <ele>23.690000000000001</ele>
        <time>2025-05-07T14:23:24Z</time>
      </trkpt>
      <trkpt lat="37.34086699783802" lon="-6.722778026014566">
        <ele>28.5</ele>
        <time>2025-05-07T14:23:37Z</time>
      </trkpt>
      <trkpt lat="37.340643033385277" lon="-6.718321032822132">
        <ele>28.5</ele>
        <time>2025-05-07T14:23:49Z</time>
      </trkpt>
      <trkpt lat="37.340173982083797" lon="-6.712418999522924">
        <ele>21.289999999999999</ele>
        <time>2025-05-07T14:24:06Z</time>
      </trkpt>
      <trkpt lat="37.340149004012346" lon="-6.707602003589273">
        <ele>21.289999999999999</ele>
        <time>2025-05-07T14:24:18Z</time>
      </trkpt>
      <trkpt lat="37.340509006753564" lon="-6.702059973031282">
        <ele>25.129999999999999</ele>
        <time>2025-05-07T14:24:33Z</time>
      </trkpt>
      <trkpt lat="37.340958025306463" lon="-6.696140002459288">
        <ele>38.109999999999999</ele>
        <time>2025-05-07T14:24:49Z</time>
      </trkpt>
      <trkpt lat="37.341238986700773" lon="-6.690948000177741">
        <ele>44.359999999999999</ele>
        <time>2025-05-07T14:25:03Z</time>
      </trkpt>
      <trkpt lat="37.341794958338141" lon="-6.686912029981613">
        <ele>48.68</ele>
        <time>2025-05-07T14:25:14Z</time>
      </trkpt>
      <trkpt lat="37.342514041811228" lon="-6.681802002713084">
        <ele>56.859999999999999</ele>
        <time>2025-05-07T14:25:28Z</time>
      </trkpt>
      <trkpt lat="37.342637004330754" lon="-6.678460976108909">
        <ele>62.619999999999997</ele>
        <time>2025-05-07T14:25:37Z</time>
      </trkpt>
      <trkpt lat="37.342393007129431" lon="-6.674776962026954">
        <ele>68.390000000000001</ele>
        <time>2025-05-07T14:25:47Z</time>
      </trkpt>
      <trkpt lat="37.341698985546827" lon="-6.670802012085915">
        <ele>78</ele>
        <time>2025-05-07T14:25:58Z</time>
      </trkpt>
      <trkpt lat="37.340911002829671" lon="-6.666841981932521">
        <ele>89.540000000000006</ele>
        <time>2025-05-07T14:26:09Z</time>
      </trkpt>
      <trkpt lat="37.34075702726841" lon="-6.663881996646524">
        <ele>98.189999999999998</ele>
        <time>2025-05-07T14:26:17Z</time>
      </trkpt>
      <trkpt lat="37.341049974784255" lon="-6.660555973649025">
        <ele>106.84</ele>
        <time>2025-05-07T14:26:26Z</time>
      </trkpt>
      <trkpt lat="37.341848015785217" lon="-6.65736498311162">
        <ele>114.53</ele>
        <time>2025-05-07T14:26:35Z</time>
      </trkpt>
      <trkpt lat="37.342728031799197" lon="-6.654509017243981">
        <ele>115.98</ele>
        <time>2025-05-07T14:26:43Z</time>
      </trkpt>
      <trkpt lat="37.343447031453252" lon="-6.6512839961797">
        <ele>113.09</ele>
        <time>2025-05-07T14:26:52Z</time>
      </trkpt>
      <trkpt lat="37.343875011429191" lon="-6.647985968738794">
        <ele>112.13</ele>
        <time>2025-05-07T14:27:01Z</time>
      </trkpt>
      <trkpt lat="37.343963021412492" lon="-6.643919991329312">
        <ele>120.78</ele>
        <time>2025-05-07T14:27:12Z</time>
      </trkpt>
      <trkpt lat="37.343699997290969" lon="-6.639869017526507">
        <ele>132.80000000000001</ele>
        <time>2025-05-07T14:27:23Z</time>
      </trkpt>
      <trkpt lat="37.343537975102663" lon="-6.635804967954755">
        <ele>139.05000000000001</ele>
        <time>2025-05-07T14:27:34Z</time>
      </trkpt>
      <trkpt lat="37.343876017257571" lon="-6.631746031343937">
        <ele>143.37</ele>
        <time>2025-05-07T14:27:45Z</time>
      </trkpt>
      <trkpt lat="37.344575989991426" lon="-6.628138041123748">
        <ele>146.74000000000001</ele>
        <time>2025-05-07T14:27:55Z</time>
      </trkpt>
      <trkpt lat="37.345527000725269" lon="-6.625030031427741">
        <ele>150.58000000000001</ele>
        <time>2025-05-07T14:28:04Z</time>
      </trkpt>
      <trkpt lat="37.347117969766259" lon="-6.621030019596219">
        <ele>155.38999999999999</ele>
        <time>2025-05-07T14:28:16Z</time>
      </trkpt>
      <trkpt lat="37.348432000726461" lon="-6.617267969995737">
        <ele>162.12</ele>
        <time>2025-05-07T14:28:27Z</time>
      </trkpt>
      <trkpt lat="37.349258959293365" lon="-6.613698033615947">
        <ele>159.24000000000001</ele>
        <time>2025-05-07T14:28:37Z</time>
      </trkpt>
      <trkpt lat="37.349650980904698" lon="-6.610779035836458">
        <ele>153.94999999999999</ele>
        <time>2025-05-07T14:28:45Z</time>
      </trkpt>
      <trkpt lat="37.350303009152412" lon="-6.606403011828661">
        <ele>145.78</ele>
        <time>2025-05-07T14:28:57Z</time>
      </trkpt>
      <trkpt lat="37.351133991032839" lon="-6.603235993534327">
        <ele>142.41</ele>
        <time>2025-05-07T14:29:06Z</time>
      </trkpt>
      <trkpt lat="37.352394964545965" lon="-6.599093992263079">
        <ele>138.56999999999999</ele>
        <time>2025-05-07T14:29:18Z</time>
      </trkpt>
      <trkpt lat="37.352965017780662" lon="-6.596657959744334">
        <ele>138.56999999999999</ele>
        <time>2025-05-07T14:29:26Z</time>
      </trkpt>
      <trkpt lat="37.353433985263109" lon="-6.593370996415615">
        <ele>141.44999999999999</ele>
        <time>2025-05-07T14:29:36Z</time>
      </trkpt>
      <trkpt lat="37.353571029379964" lon="-6.589713972061873">
        <ele>149.13999999999999</ele>
        <time>2025-05-07T14:29:47Z</time>
      </trkpt>
      <trkpt lat="37.353394003584981" lon="-6.586354002356529">
        <ele>149.62</ele>
        <time>2025-05-07T14:29:57Z</time>
      </trkpt>
      <trkpt lat="37.352891005575657" lon="-6.582667976617813">
        <ele>144.81999999999999</ele>
        <time>2025-05-07T14:30:08Z</time>
      </trkpt>
      <trkpt lat="37.35249001532793" lon="-6.578818000853062">
        <ele>146.74000000000001</ele>
        <time>2025-05-07T14:30:20Z</time>
      </trkpt>
      <trkpt lat="37.352439975365996" lon="-6.575642013922334">
        <ele>150.58000000000001</ele>
        <time>2025-05-07T14:30:31Z</time>
      </trkpt>
      <trkpt lat="37.352694030851126" lon="-6.572405006736517">
        <ele>152.99000000000001</ele>
        <time>2025-05-07T14:30:43Z</time>
      </trkpt>
      <trkpt lat="37.352969041094184" lon="-6.570603987202048">
        <ele>152.50999999999999</ele>
        <time>2025-05-07T14:30:51Z</time>
      </trkpt>
      <trkpt lat="37.353352010250092" lon="-6.568117998540402">
        <ele>149.62</ele>
        <time>2025-05-07T14:31:02Z</time>
      </trkpt>
      <trkpt lat="37.353679994121194" lon="-6.565592028200626">
        <ele>144.81999999999999</ele>
        <time>2025-05-07T14:31:12Z</time>
      </trkpt>
      <trkpt lat="37.353974031284451" lon="-6.561838025227189">
        <ele>138.09</ele>
        <time>2025-05-07T14:31:26Z</time>
      </trkpt>
      <trkpt lat="37.354266978800297" lon="-6.559289004653692">
        <ele>133.75999999999999</ele>
        <time>2025-05-07T14:31:35Z</time>
      </trkpt>
      <trkpt lat="37.354872990399599" lon="-6.556216031312943">
        <ele>131.36000000000001</ele>
        <time>2025-05-07T14:31:46Z</time>
      </trkpt>
      <trkpt lat="37.355704978108406" lon="-6.55333399772644">
        <ele>133.28</ele>
        <time>2025-05-07T14:31:57Z</time>
      </trkpt>
      <trkpt lat="37.356728995218873" lon="-6.549846958369017">
        <ele>139.05000000000001</ele>
        <time>2025-05-07T14:32:10Z</time>
      </trkpt>
      <trkpt lat="37.357341041788459" lon="-6.546904994174838">
        <ele>145.30000000000001</ele>
        <time>2025-05-07T14:32:21Z</time>
      </trkpt>
      <trkpt lat="37.357677994295955" lon="-6.54409496113658">
        <ele>153.94999999999999</ele>
        <time>2025-05-07T14:32:32Z</time>
      </trkpt>
      <trkpt lat="37.357863988727331" lon="-6.541434964165092">
        <ele>159.72</ele>
        <time>2025-05-07T14:32:43Z</time>
      </trkpt>
      <trkpt lat="37.358012013137341" lon="-6.539326999336481">
        <ele>159.72</ele>
        <time>2025-05-07T14:32:52Z</time>
      </trkpt>
      <trkpt lat="37.35816003754735" lon="-6.53758398257196">
        <ele>158.75</ele>
        <time>2025-05-07T14:33:02Z</time>
      </trkpt>
      <trkpt lat="37.358288029208779" lon="-6.536515038460493">
        <ele>154.91</ele>
        <time>2025-05-07T14:33:10Z</time>
      </trkpt>
      <trkpt lat="37.35833496786654" lon="-6.536126034334302">
        <ele>153.47</ele>
        <time>2025-05-07T14:33:19Z</time>
      </trkpt>
      <trkpt lat="37.358379978686571" lon="-6.535748010501266">
        <ele>154.91</ele>
        <time>2025-05-07T14:33:32Z</time>
      </trkpt>
      <trkpt lat="37.358451979234815" lon="-6.53519899584353">
        <ele>155.38999999999999</ele>
        <time>2025-05-07T14:33:44Z</time>
      </trkpt>
      <trkpt lat="37.358518028631806" lon="-6.534732962027192">
        <ele>155.38999999999999</ele>
        <time>2025-05-07T14:33:56Z</time>
      </trkpt>
      <trkpt lat="37.35854703001678" lon="-6.534521989524365">
        <ele>155.38999999999999</ele>
        <time>2025-05-07T14:34:00Z</time>
      </trkpt>
      <trkpt lat="37.358559016138315" lon="-6.534441020339727">
        <ele>155.38999999999999</ele>
        <time>2025-05-07T14:34:01Z</time>
      </trkpt>
      <trkpt lat="37.358645014464855" lon="-6.533899968490005">
        <ele>154.91</ele>
        <time>2025-05-07T14:34:09Z</time>
      </trkpt>
      <trkpt lat="37.358737969771028" lon="-6.533319018781185">
        <ele>154.91</ele>
        <time>2025-05-07T14:34:19Z</time>
      </trkpt>
      <trkpt lat="37.358877025544643" lon="-6.532451994717121">
        <ele>154.43000000000001</ele>
        <time>2025-05-07T14:34:31Z</time>
      </trkpt>
      <trkpt lat="37.359032006934285" lon="-6.531640039756894">
        <ele>153.94999999999999</ele>
        <time>2025-05-07T14:34:43Z</time>
      </trkpt>
      <trkpt lat="37.359164021909237" lon="-6.530713001266122">
        <ele>153.47</ele>
        <time>2025-05-07T14:34:52Z</time>
      </trkpt>
      <trkpt lat="37.359334006905556" lon="-6.529570966959">
        <ele>151.53999999999999</ele>
        <time>2025-05-07T14:34:59Z</time>
      </trkpt>
      <trkpt lat="37.359458981081843" lon="-6.528533035889268">
        <ele>150.09999999999999</ele>
        <time>2025-05-07T14:35:06Z</time>
      </trkpt>
      <trkpt lat="37.359633995220065" lon="-6.527084978297353">
        <ele>146.74000000000001</ele>
        <time>2025-05-07T14:35:16Z</time>
      </trkpt>
      <trkpt lat="37.359765004366636" lon="-6.525590987876058">
        <ele>143.84999999999999</ele>
        <time>2025-05-07T14:35:22Z</time>
      </trkpt>
      <trkpt lat="37.359941024333239" lon="-6.522922022268176">
        <ele>142.41</ele>
        <time>2025-05-07T14:35:30Z</time>
      </trkpt>
      <trkpt lat="37.360003972426057" lon="-6.518456982448697">
        <ele>147.69999999999999</ele>
        <time>2025-05-07T14:35:42Z</time>
      </trkpt>
      <trkpt lat="37.35977397300303" lon="-6.514013987034559">
        <ele>153.47</ele>
        <time>2025-05-07T14:35:54Z</time>
      </trkpt>
      <trkpt lat="37.359323026612401" lon="-6.50997499935329">
        <ele>157.78999999999999</ele>
        <time>2025-05-07T14:36:05Z</time>
      </trkpt>
      <trkpt lat="37.358410991728306" lon="-6.504899002611637">
        <ele>161.16</ele>
        <time>2025-05-07T14:36:19Z</time>
      </trkpt>
      <trkpt lat="37.357613034546375" lon="-6.501715974882245">
        <ele>160.19999999999999</ele>
        <time>2025-05-07T14:36:28Z</time>
      </trkpt>
      <trkpt lat="37.356244018301368" lon="-6.497205002233386">
        <ele>156.34999999999999</ele>
        <time>2025-05-07T14:36:41Z</time>
      </trkpt>
      <trkpt lat="37.3546829726547" lon="-6.493193004280329">
        <ele>152.03</ele>
        <time>2025-05-07T14:36:53Z</time>
      </trkpt>
      <trkpt lat="37.352862004190683" lon="-6.488515986129642">
        <ele>146.25999999999999</ele>
        <time>2025-05-07T14:37:07Z</time>
      </trkpt>
      <trkpt lat="37.351544033735991" lon="-6.484369039535523">
        <ele>141.44999999999999</ele>
        <time>2025-05-07T14:37:19Z</time>
      </trkpt>
      <trkpt lat="37.350653959438205" lon="-6.480823997408152">
        <ele>136.63999999999999</ele>
        <time>2025-05-07T14:37:29Z</time>
      </trkpt>
      <trkpt lat="37.349706972017884" lon="-6.47575001232326">
        <ele>129.91999999999999</ele>
        <time>2025-05-07T14:37:43Z</time>
      </trkpt>
      <trkpt lat="37.3491380084306" lon="-6.471348004415631">
        <ele>124.15000000000001</ele>
        <time>2025-05-07T14:37:55Z</time>
      </trkpt>
      <trkpt lat="37.348340973258018" lon="-6.466245017945766">
        <ele>120.3</ele>
        <time>2025-05-07T14:38:09Z</time>
      </trkpt>
      <trkpt lat="37.347696991637349" lon="-6.463381005451083">
        <ele>121.73999999999999</ele>
        <time>2025-05-07T14:38:17Z</time>
      </trkpt>
      <trkpt lat="37.346491003409028" lon="-6.45840902812779">
        <ele>122.70999999999999</ele>
        <time>2025-05-07T14:38:31Z</time>
      </trkpt>
      <trkpt lat="37.345543010160327" lon="-6.453349962830544">
        <ele>123.67</ele>
        <time>2025-05-07T14:38:45Z</time>
      </trkpt>
      <trkpt lat="37.344997012987733" lon="-6.44857001490891">
        <ele>125.11</ele>
        <time>2025-05-07T14:38:58Z</time>
      </trkpt>
      <trkpt lat="37.344780005514622" lon="-6.445221025496721">
        <ele>127.03</ele>
        <time>2025-05-07T14:39:08Z</time>
      </trkpt>
      <trkpt lat="37.344829961657524" lon="-6.439653011038899">
        <ele>131.36000000000001</ele>
        <time>2025-05-07T14:39:22Z</time>
      </trkpt>
      <trkpt lat="37.34527001157403" lon="-6.434103017672896">
        <ele>139.05000000000001</ele>
        <time>2025-05-07T14:39:37Z</time>
      </trkpt>
      <trkpt lat="37.346042990684509" lon="-6.42936397343874">
        <ele>144.34</ele>
        <time>2025-05-07T14:39:50Z</time>
      </trkpt>
      <trkpt lat="37.346653025597334" lon="-6.426478000357747">
        <ele>145.30000000000001</ele>
        <time>2025-05-07T14:39:59Z</time>
      </trkpt>
      <trkpt lat="37.348287999629974" lon="-6.420871010050178">
        <ele>145.30000000000001</ele>
        <time>2025-05-07T14:40:14Z</time>
      </trkpt>
      <trkpt lat="37.349896989762783" lon="-6.416026018559933">
        <ele>132.31999999999999</ele>
        <time>2025-05-07T14:40:29Z</time>
      </trkpt>
      <trkpt lat="37.351133991032839" lon="-6.411447990685701">
        <ele>120.3</ele>
        <time>2025-05-07T14:40:41Z</time>
      </trkpt>
      <trkpt lat="37.352148033678532" lon="-6.406038980931044">
        <ele>109.25</ele>
        <time>2025-05-07T14:40:56Z</time>
      </trkpt>
      <trkpt lat="37.352696964517236" lon="-6.401286022737622">
        <ele>111.65000000000001</ele>
        <time>2025-05-07T14:41:09Z</time>
      </trkpt>
      <trkpt lat="37.352884970605373" lon="-6.397013012319803">
        <ele>117.90000000000001</ele>
        <time>2025-05-07T14:41:21Z</time>
      </trkpt>
      <trkpt lat="37.353084962815046" lon="-6.392281008884311">
        <ele>123.67</ele>
        <time>2025-05-07T14:41:36Z</time>
      </trkpt>
      <trkpt lat="37.353441026061773" lon="-6.388380993157625">
        <ele>126.55</ele>
        <time>2025-05-07T14:41:48Z</time>
      </trkpt>
      <trkpt lat="37.353700026869774" lon="-6.384376036003232">
        <ele>134.24000000000001</ele>
        <time>2025-05-07T14:41:59Z</time>
      </trkpt>
      <trkpt lat="37.353697009384632" lon="-6.378475008532405">
        <ele>140.49000000000001</ele>
        <time>2025-05-07T14:42:15Z</time>
      </trkpt>
      <trkpt lat="37.353495005518198" lon="-6.372574986889958">
        <ele>143.37</ele>
        <time>2025-05-07T14:42:31Z</time>
      </trkpt>
      <trkpt lat="37.353601036593318" lon="-6.368508003652096">
        <ele>139.53</ele>
        <time>2025-05-07T14:42:42Z</time>
      </trkpt>
      <trkpt lat="37.354062041267753" lon="-6.363337961956859">
        <ele>127.03</ele>
        <time>2025-05-07T14:42:56Z</time>
      </trkpt>
      <trkpt lat="37.354585994035006" lon="-6.359311966225505">
        <ele>115.5</ele>
        <time>2025-05-07T14:43:07Z</time>
      </trkpt>
      <trkpt lat="37.355039035901427" lon="-6.354145025834441">
        <ele>102.04000000000001</ele>
        <time>2025-05-07T14:43:21Z</time>
      </trkpt>
      <trkpt lat="37.355226036161184" lon="-6.350435027852655">
        <ele>92.900000000000006</ele>
        <time>2025-05-07T14:43:31Z</time>
      </trkpt>
      <trkpt lat="37.355528036132455" lon="-6.347113028168678">
        <ele>83.290000000000006</ele>
        <time>2025-05-07T14:43:40Z</time>
      </trkpt>
      <trkpt lat="37.356259021908045" lon="-6.341996965929866">
        <ele>71.760000000000005</ele>
        <time>2025-05-07T14:43:54Z</time>
      </trkpt>
      <trkpt lat="37.357349004596472" lon="-6.336980983614922">
        <ele>66.950000000000003</ele>
        <time>2025-05-07T14:44:08Z</time>
      </trkpt>
      <trkpt lat="37.35846203751862" lon="-6.331596029922366">
        <ele>69.829999999999998</ele>
        <time>2025-05-07T14:44:23Z</time>
      </trkpt>
      <trkpt lat="37.359139965847135" lon="-6.32644803263247">
        <ele>72.719999999999999</ele>
        <time>2025-05-07T14:44:37Z</time>
      </trkpt>
      <trkpt lat="37.359402989968657" lon="-6.322002019733191">
        <ele>77.040000000000006</ele>
        <time>2025-05-07T14:44:49Z</time>
      </trkpt>
      <trkpt lat="37.35936501994729" lon="-6.317201033234596">
        <ele>86.180000000000007</ele>
        <time>2025-05-07T14:45:02Z</time>
      </trkpt>
      <trkpt lat="37.359392009675503" lon="-6.312776980921626">
        <ele>97.230000000000004</ele>
        <time>2025-05-07T14:45:14Z</time>
      </trkpt>
      <trkpt lat="37.359679006040096" lon="-6.308340020477772">
        <ele>109.25</ele>
        <time>2025-05-07T14:45:26Z</time>
      </trkpt>
      <trkpt lat="37.360190972685814" lon="-6.304306983947754">
        <ele>111.17</ele>
        <time>2025-05-07T14:45:37Z</time>
      </trkpt>
      <trkpt lat="37.360907960683107" lon="-6.298768976703286">
        <ele>98.189999999999998</ele>
        <time>2025-05-07T14:45:52Z</time>
      </trkpt>
      <trkpt lat="37.361218007281423" lon="-6.294342996552587">
        <ele>86.659999999999997</ele>
        <time>2025-05-07T14:46:04Z</time>
      </trkpt>
      <trkpt lat="37.361198980361223" lon="-6.289142025634646">
        <ele>74.159999999999997</ele>
        <time>2025-05-07T14:46:18Z</time>
      </trkpt>
      <trkpt lat="37.360968980938196" lon="-6.284699030220509">
        <ele>66.950000000000003</ele>
        <time>2025-05-07T14:46:30Z</time>
      </trkpt>
      <trkpt lat="37.360839983448386" lon="-6.280223010107875">
        <ele>64.549999999999997</ele>
        <time>2025-05-07T14:46:42Z</time>
      </trkpt>
      <trkpt lat="37.361081968992949" lon="-6.274673016741872">
        <ele>51.57</ele>
        <time>2025-05-07T14:46:57Z</time>
      </trkpt>
      <trkpt lat="37.361238040030003" lon="-6.272845007479191">
        <ele>48.68</ele>
        <time>2025-05-07T14:47:02Z</time>
      </trkpt>
      <trkpt lat="37.361280033364892" lon="-6.272483998909593">
        <ele>48.68</ele>
        <time>2025-05-07T14:47:03Z</time>
      </trkpt>
      <trkpt lat="37.361727962270379" lon="-6.269149007275701">
        <ele>45.32</ele>
        <time>2025-05-07T14:47:12Z</time>
      </trkpt>
      <trkpt lat="37.362502031028271" lon="-6.265168022364378">
        <ele>41.950000000000003</ele>
        <time>2025-05-07T14:47:23Z</time>
      </trkpt>
      <trkpt lat="37.363376012071967" lon="-6.261617029085755">
        <ele>43.399999999999999</ele>
        <time>2025-05-07T14:47:33Z</time>
      </trkpt>
      <trkpt lat="37.36445602029562" lon="-6.258151028305292">
        <ele>47.719999999999999</ele>
        <time>2025-05-07T14:47:43Z</time>
      </trkpt>
      <trkpt lat="37.36538196913898" lon="-6.255422970280051">
        <ele>46.759999999999998</ele>
        <time>2025-05-07T14:47:51Z</time>
      </trkpt>
      <trkpt lat="37.366757020354271" lon="-6.250865980982781">
        <ele>43.880000000000003</ele>
        <time>2025-05-07T14:48:04Z</time>
      </trkpt>
      <trkpt lat="37.367691015824676" lon="-6.246938975527883">
        <ele>41.950000000000003</ele>
        <time>2025-05-07T14:48:15Z</time>
      </trkpt>
      <trkpt lat="37.368241036310792" lon="-6.244045039638877">
        <ele>41.950000000000003</ele>
        <time>2025-05-07T14:48:23Z</time>
      </trkpt>
      <trkpt lat="37.36890303902328" lon="-6.240455992519856">
        <ele>39.07</ele>
        <time>2025-05-07T14:48:33Z</time>
      </trkpt>
      <trkpt lat="37.370049012824893" lon="-6.236250037327409">
        <ele>36.189999999999998</ele>
        <time>2025-05-07T14:48:45Z</time>
      </trkpt>
      <trkpt lat="37.371031036600471" lon="-6.232745982706547">
        <ele>35.710000000000001</ele>
        <time>2025-05-07T14:48:55Z</time>
      </trkpt>
      <trkpt lat="37.371404031291604" lon="-6.229459019377828">
        <ele>34.259999999999998</ele>
        <time>2025-05-07T14:49:04Z</time>
      </trkpt>
      <trkpt lat="37.371294982731342" lon="-6.226527029648423">
        <ele>34.259999999999998</ele>
        <time>2025-05-07T14:49:12Z</time>
      </trkpt>
      <trkpt lat="37.370719984173775" lon="-6.223292034119368">
        <ele>38.109999999999999</ele>
        <time>2025-05-07T14:49:21Z</time>
      </trkpt>
      <trkpt lat="37.369642993435264" lon="-6.22026901692152">
        <ele>49.649999999999999</ele>
        <time>2025-05-07T14:49:30Z</time>
      </trkpt>
      <trkpt lat="37.368271965533495" lon="-6.217851005494595">
        <ele>62.140000000000001</ele>
        <time>2025-05-07T14:49:38Z</time>
      </trkpt>
      <trkpt lat="37.36596199683845" lon="-6.214442001655698">
        <ele>81.370000000000005</ele>
        <time>2025-05-07T14:49:50Z</time>
      </trkpt>
      <trkpt lat="37.364338003098965" lon="-6.211354024708271">
        <ele>97.709999999999994</ele>
        <time>2025-05-07T14:50:00Z</time>
      </trkpt>
      <trkpt lat="37.362528014928102" lon="-6.2071199901402">
        <ele>117.42</ele>
        <time>2025-05-07T14:50:13Z</time>
      </trkpt>
      <trkpt lat="37.361830975860357" lon="-6.204674988985062">
        <ele>124.15000000000001</ele>
        <time>2025-05-07T14:50:20Z</time>
      </trkpt>
      <trkpt lat="37.361261006444693" lon="-6.201003966853023">
        <ele>127.98999999999999</ele>
        <time>2025-05-07T14:50:30Z</time>
      </trkpt>
      <trkpt lat="37.360607972368598" lon="-6.198159987106919">
        <ele>130.40000000000001</ele>
        <time>2025-05-07T14:50:38Z</time>
      </trkpt>
      <trkpt lat="37.359328977763653" lon="-6.194810997694731">
        <ele>132.80000000000001</ele>
        <time>2025-05-07T14:50:48Z</time>
      </trkpt>
      <trkpt lat="37.358347959816456" lon="-6.191700976341963">
        <ele>132.31999999999999</ele>
        <time>2025-05-07T14:50:57Z</time>
      </trkpt>
      <trkpt lat="37.357846973463893" lon="-6.18840797804296">
        <ele>129.91999999999999</ele>
        <time>2025-05-07T14:51:06Z</time>
      </trkpt>
      <trkpt lat="37.357773967087269" lon="-6.184662021696568">
        <ele>127.98999999999999</ele>
        <time>2025-05-07T14:51:16Z</time>
      </trkpt>
      <trkpt lat="37.35762401483953" lon="-6.180207962170243">
        <ele>127.51000000000001</ele>
        <time>2025-05-07T14:51:28Z</time>
      </trkpt>
      <trkpt lat="37.357120011001825" lon="-6.17579597979784">
        <ele>130.40000000000001</ele>
        <time>2025-05-07T14:51:41Z</time>
      </trkpt>
      <trkpt lat="37.3569589946419" lon="-6.17169002071023">
        <ele>130.40000000000001</ele>
        <time>2025-05-07T14:51:51Z</time>
      </trkpt>
      <trkpt lat="37.357220007106662" lon="-6.16799502633512">
        <ele>129.91999999999999</ele>
        <time>2025-05-07T14:52:01Z</time>
      </trkpt>
      <trkpt lat="37.357840016484261" lon="-6.163210971280932">
        <ele>127.98999999999999</ele>
        <time>2025-05-07T14:52:14Z</time>
      </trkpt>
      <trkpt lat="37.358078984543681" lon="-6.160635966807604">
        <ele>124.63</ele>
        <time>2025-05-07T14:52:21Z</time>
      </trkpt>
      <trkpt lat="37.358242012560368" lon="-6.157292006537318">
        <ele>120.78</ele>
        <time>2025-05-07T14:52:30Z</time>
      </trkpt>
      <trkpt lat="37.358487015590072" lon="-6.151721980422735">
        <ele>115.98</ele>
        <time>2025-05-07T14:52:45Z</time>
      </trkpt>
      <trkpt lat="37.358991019427776" lon="-6.146567026153207">
        <ele>111.17</ele>
        <time>2025-05-07T14:52:59Z</time>
      </trkpt>
      <trkpt lat="37.359895007684827" lon="-6.141495974734426">
        <ele>112.61</ele>
        <time>2025-05-07T14:53:13Z</time>
      </trkpt>
      <trkpt lat="37.360973004251719" lon="-6.137239979580045">
        <ele>114.53</ele>
        <time>2025-05-07T14:53:25Z</time>
      </trkpt>
      <trkpt lat="37.362489961087704" lon="-6.131604993715882">
        <ele>114.05</ele>
        <time>2025-05-07T14:53:41Z</time>
      </trkpt>
      <trkpt lat="37.363464022055268" lon="-6.126554980874062">
        <ele>116.94</ele>
        <time>2025-05-07T14:53:55Z</time>
      </trkpt>
      <trkpt lat="37.363875992596149" lon="-6.123672025278211">
        <ele>120.3</ele>
        <time>2025-05-07T14:54:03Z</time>
      </trkpt>
      <trkpt lat="37.364652995020151" lon="-6.118508018553257">
        <ele>119.81999999999999</ele>
        <time>2025-05-07T14:54:17Z</time>
      </trkpt>
      <trkpt lat="37.365624038502574" lon="-6.113812979310751">
        <ele>115.5</ele>
        <time>2025-05-07T14:54:30Z</time>
      </trkpt>
      <trkpt lat="37.367154993116856" lon="-6.108563980087638">
        <ele>108.77</ele>
        <time>2025-05-07T14:54:45Z</time>
      </trkpt>
      <trkpt lat="37.36890496686101" lon="-6.10384002327919">
        <ele>94.349999999999994</ele>
        <time>2025-05-07T14:54:59Z</time>
      </trkpt>
      <trkpt lat="37.370167030021548" lon="-6.100484998896718">
        <ele>84.730000000000004</ele>
        <time>2025-05-07T14:55:09Z</time>
      </trkpt>
      <trkpt lat="37.371650962159038" lon="-6.095606982707977">
        <ele>79.930000000000007</ele>
        <time>2025-05-07T14:55:23Z</time>
      </trkpt>
      <trkpt lat="37.372766006737947" lon="-6.090612960979343">
        <ele>89.060000000000002</ele>
        <time>2025-05-07T14:55:37Z</time>
      </trkpt>
      <trkpt lat="37.373960008844733" lon="-6.085651963949204">
        <ele>101.08</ele>
        <time>2025-05-07T14:55:51Z</time>
      </trkpt>
      <trkpt lat="37.375646028667688" lon="-6.081304019317031">
        <ele>114.53</ele>
        <time>2025-05-07T14:56:04Z</time>
      </trkpt>
      <trkpt lat="37.37696198746562" lon="-6.078839991241694">
        <ele>122.22</ele>
        <time>2025-05-07T14:56:12Z</time>
      </trkpt>
      <trkpt lat="37.379829017445445" lon="-6.074093990027905">
        <ele>128.94999999999999</ele>
        <time>2025-05-07T14:56:28Z</time>
      </trkpt>
      <trkpt lat="37.381165008991957" lon="-6.071216985583305">
        <ele>130.40000000000001</ele>
        <time>2025-05-07T14:56:37Z</time>
      </trkpt>
      <trkpt lat="37.381875962018967" lon="-6.069239024072886">
        <ele>127.98999999999999</ele>
        <time>2025-05-07T14:56:44Z</time>
      </trkpt>
      <trkpt lat="37.382370997220278" lon="-6.067626010626555">
        <ele>125.59</ele>
        <time>2025-05-07T14:56:50Z</time>
      </trkpt>
      <trkpt lat="37.382972985506058" lon="-6.065163994207978">
        <ele>123.19</ele>
        <time>2025-05-07T14:56:59Z</time>
      </trkpt>
      <trkpt lat="37.38344999961555" lon="-6.061592968180776">
        <ele>122.70999999999999</ele>
        <time>2025-05-07T14:57:11Z</time>
      </trkpt>
      <trkpt lat="37.383596012368798" lon="-6.059171017259359">
        <ele>120.78</ele>
        <time>2025-05-07T14:57:20Z</time>
      </trkpt>
      <trkpt lat="37.383706988766789" lon="-6.056569023057818">
        <ele>113.56999999999999</ele>
        <time>2025-05-07T14:57:28Z</time>
      </trkpt>
      <trkpt lat="37.383706988766789" lon="-6.056261993944645">
        <ele>111.65000000000001</ele>
        <time>2025-05-07T14:57:30Z</time>
      </trkpt>
      <trkpt lat="37.383399959653616" lon="-6.0532630328089">
        <ele>108.29000000000001</ele>
        <time>2025-05-07T14:57:39Z</time>
      </trkpt>
      <trkpt lat="37.38263301551342" lon="-6.049214992672205">
        <ele>105.88</ele>
        <time>2025-05-07T14:57:53Z</time>
      </trkpt>
      <trkpt lat="37.382004959508777" lon="-6.045942027121782">
        <ele>98.670000000000002</ele>
        <time>2025-05-07T14:58:04Z</time>
      </trkpt>
      <trkpt lat="37.381597012281418" lon="-6.043913019821048">
        <ele>90.5</ele>
        <time>2025-05-07T14:58:11Z</time>
      </trkpt>
      <trkpt lat="37.381068030372262" lon="-6.041236007586122">
        <ele>77.040000000000006</ele>
        <time>2025-05-07T14:58:21Z</time>
      </trkpt>
      <trkpt lat="37.380734011530876" lon="-6.038724035024643">
        <ele>65.030000000000001</ele>
        <time>2025-05-07T14:58:32Z</time>
      </trkpt>
      <trkpt lat="37.381160985678434" lon="-6.036823019385338">
        <ele>55.409999999999997</ele>
        <time>2025-05-07T14:58:38Z</time>
      </trkpt>
      <trkpt lat="37.381375981494784" lon="-6.036371989175677">
        <ele>51.57</ele>
        <time>2025-05-07T14:58:41Z</time>
      </trkpt>
      <trkpt lat="37.382347024977207" lon="-6.035161977633834">
        <ele>43.880000000000003</ele>
        <time>2025-05-07T14:58:46Z</time>
      </trkpt>
      <trkpt lat="37.382954964414239" lon="-6.034750007092953">
        <ele>37.630000000000003</ele>
        <time>2025-05-07T14:58:50Z</time>
      </trkpt>
      <trkpt lat="37.384548028931022" lon="-6.034326972439885">
        <ele>28.02</ele>
        <time>2025-05-07T14:58:57Z</time>
      </trkpt>
      <trkpt lat="37.386284004896879" lon="-6.034084986895323">
        <ele>22.73</ele>
        <time>2025-05-07T14:59:07Z</time>
      </trkpt>
      <trkpt lat="37.388045964762568" lon="-6.033835960552096">
        <ele>19.359999999999999</ele>
        <time>2025-05-07T14:59:17Z</time>
      </trkpt>
      <trkpt lat="37.388523984700441" lon="-6.033689025789499">
        <ele>17.920000000000002</ele>
        <time>2025-05-07T14:59:20Z</time>
      </trkpt>
      <trkpt lat="37.388673014938831" lon="-6.033621970564127">
        <ele>16.960000000000001</ele>
        <time>2025-05-07T14:59:21Z</time>
      </trkpt>
      <trkpt lat="37.388807041570544" lon="-6.033533960580826">
        <ele>15.52</ele>
        <time>2025-05-07T14:59:23Z</time>
      </trkpt>
      <trkpt lat="37.389388997107744" lon="-6.032872963696718">
        <ele>12.630000000000001</ele>
        <time>2025-05-07T14:59:28Z</time>
      </trkpt>
      <trkpt lat="37.389546995982528" lon="-6.032555038109422">
        <ele>12.630000000000001</ele>
        <time>2025-05-07T14:59:29Z</time>
      </trkpt>
      <trkpt lat="37.389609022065997" lon="-6.032394021749497">
        <ele>12.630000000000001</ele>
        <time>2025-05-07T14:59:30Z</time>
      </trkpt>
      <trkpt lat="37.389669036492705" lon="-6.032239040359855">
        <ele>12.630000000000001</ele>
        <time>2025-05-07T14:59:31Z</time>
      </trkpt>
      <trkpt lat="37.389727039262652" lon="-6.032090010121465">
        <ele>12.630000000000001</ele>
        <time>2025-05-07T14:59:32Z</time>
      </trkpt>
      <trkpt lat="37.389769032597542" lon="-6.031937962397933">
        <ele>13.119999999999999</ele>
        <time>2025-05-07T14:59:33Z</time>
      </trkpt>
      <trkpt lat="37.389795016497374" lon="-6.031772000715137">
        <ele>12.630000000000001</ele>
        <time>2025-05-07T14:59:34Z</time>
      </trkpt>
      <trkpt lat="37.389805996790528" lon="-6.031606961041689">
        <ele>13.119999999999999</ele>
        <time>2025-05-07T14:59:35Z</time>
      </trkpt>
      <trkpt lat="37.389797028154135" lon="-6.030379012227058">
        <ele>11.67</ele>
        <time>2025-05-07T14:59:43Z</time>
      </trkpt>
      <trkpt lat="37.389506008476019" lon="-6.029032962396741">
        <ele>12.630000000000001</ele>
        <time>2025-05-07T14:59:51Z</time>
      </trkpt>
      <trkpt lat="37.389297969639301" lon="-6.028573969379067">
        <ele>14.08</ele>
        <time>2025-05-07T14:59:54Z</time>
      </trkpt>
      <trkpt lat="37.389222029596567" lon="-6.028451006859541">
        <ele>15.039999999999999</ele>
        <time>2025-05-07T14:59:55Z</time>
      </trkpt>
      <trkpt lat="37.389139970764518" lon="-6.028333995491266">
        <ele>16</ele>
        <time>2025-05-07T14:59:56Z</time>
      </trkpt>
      <trkpt lat="37.389039974659681" lon="-6.02823399938643">
        <ele>16.960000000000001</ele>
        <time>2025-05-07T14:59:57Z</time>
      </trkpt>
      <trkpt lat="37.388934027403593" lon="-6.028143977746368">
        <ele>17.440000000000001</ele>
        <time>2025-05-07T14:59:58Z</time>
      </trkpt>
      <trkpt lat="37.38882296718657" lon="-6.028054039925337">
        <ele>17.920000000000002</ele>
        <time>2025-05-07T14:59:59Z</time>
      </trkpt>
      <trkpt lat="37.388704027980566" lon="-6.027992013841867">
        <ele>18.399999999999999</ele>
        <time>2025-05-07T15:00:00Z</time>
      </trkpt>
      <trkpt lat="37.388582993298769" lon="-6.027927976101637">
        <ele>18.879999999999999</ele>
        <time>2025-05-07T15:00:01Z</time>
      </trkpt>
      <trkpt lat="37.388457013294101" lon="-6.027862010523677">
        <ele>19.84</ele>
        <time>2025-05-07T15:00:02Z</time>
      </trkpt>
      <trkpt lat="37.387543972581625" lon="-6.027450961992145">
        <ele>22.25</ele>
        <time>2025-05-07T15:00:10Z</time>
      </trkpt>
      <trkpt lat="37.386615006253123" lon="-6.026685023680329">
        <ele>20.809999999999999</ele>
        <time>2025-05-07T15:00:17Z</time>
      </trkpt>
      <trkpt lat="37.385352021083236" lon="-6.025969963520765">
        <ele>18.879999999999999</ele>
        <time>2025-05-07T15:00:24Z</time>
      </trkpt>
      <trkpt lat="37.383861970156431" lon="-6.025775000452995">
        <ele>18.399999999999999</ele>
        <time>2025-05-07T15:00:32Z</time>
      </trkpt>
      <trkpt lat="37.38132300786674" lon="-6.026039030402899">
        <ele>19.359999999999999</ele>
        <time>2025-05-07T15:00:45Z</time>
      </trkpt>
      <trkpt lat="37.379042962566018" lon="-6.026396015658975">
        <ele>18.399999999999999</ele>
        <time>2025-05-07T15:00:57Z</time>
      </trkpt>
      <trkpt lat="37.376711033284664" lon="-6.026758030056953">
        <ele>17.440000000000001</ele>
        <time>2025-05-07T15:01:09Z</time>
      </trkpt>
      <trkpt lat="37.375314021483064" lon="-6.027103029191494">
        <ele>15.52</ele>
        <time>2025-05-07T15:01:16Z</time>
      </trkpt>
      <trkpt lat="37.373831011354923" lon="-6.027605021372438">
        <ele>17.440000000000001</ele>
        <time>2025-05-07T15:01:25Z</time>
      </trkpt>
      <trkpt lat="37.373404037207365" lon="-6.027747010812163">
        <ele>16.960000000000001</ele>
        <time>2025-05-07T15:01:28Z</time>
      </trkpt>
      <trkpt lat="37.373248971998692" lon="-6.027766959741712">
        <ele>16.48</ele>
        <time>2025-05-07T15:01:30Z</time>
      </trkpt>
      <trkpt lat="37.372756032273173" lon="-6.027714991942048">
        <ele>15.52</ele>
        <time>2025-05-07T15:01:32Z</time>
      </trkpt>
      <trkpt lat="37.37259803339839" lon="-6.027664029970765">
        <ele>15.039999999999999</ele>
        <time>2025-05-07T15:01:33Z</time>
      </trkpt>
      <trkpt lat="37.372454032301903" lon="-6.027563028037548">
        <ele>14.56</ele>
        <time>2025-05-07T15:01:34Z</time>
      </trkpt>
      <trkpt lat="37.37230097874999" lon="-6.027472000569105">
        <ele>14.56</ele>
        <time>2025-05-07T15:01:35Z</time>
      </trkpt>
      <trkpt lat="37.372157983481884" lon="-6.027347026392818">
        <ele>14.08</ele>
        <time>2025-05-07T15:01:36Z</time>
      </trkpt>
      <trkpt lat="37.372032003477216" lon="-6.027199001982808">
        <ele>14.08</ele>
        <time>2025-05-07T15:01:37Z</time>
      </trkpt>
      <trkpt lat="37.371923038735986" lon="-6.027032034471631">
        <ele>14.56</ele>
        <time>2025-05-07T15:01:38Z</time>
      </trkpt>
      <trkpt lat="37.371816001832485" lon="-6.026866994798183">
        <ele>15.52</ele>
        <time>2025-05-07T15:01:39Z</time>
      </trkpt>
      <trkpt lat="37.371725980192423" lon="-6.026693992316723">
        <ele>16</ele>
        <time>2025-05-07T15:01:40Z</time>
      </trkpt>
      <trkpt lat="37.371660014614463" lon="-6.02651403285563">
        <ele>16.48</ele>
        <time>2025-05-07T15:01:41Z</time>
      </trkpt>
      <trkpt lat="37.371600000187755" lon="-6.026325020939112">
        <ele>16.960000000000001</ele>
        <time>2025-05-07T15:01:42Z</time>
      </trkpt>
      <trkpt lat="37.371575022116303" lon="-6.026128968223929">
        <ele>16.960000000000001</ele>
        <time>2025-05-07T15:01:43Z</time>
      </trkpt>
      <trkpt lat="37.371549038216472" lon="-6.025927970185876">
        <ele>16.960000000000001</ele>
        <time>2025-05-07T15:01:44Z</time>
      </trkpt>
      <trkpt lat="37.371522970497608" lon="-6.025725966319442">
        <ele>17.440000000000001</ele>
        <time>2025-05-07T15:01:45Z</time>
      </trkpt>
      <trkpt lat="37.371497992426157" lon="-6.025523962453008">
        <ele>17.440000000000001</ele>
        <time>2025-05-07T15:01:46Z</time>
      </trkpt>
      <trkpt lat="37.371401013806462" lon="-6.0229910351336">
        <ele>16</ele>
        <time>2025-05-07T15:01:58Z</time>
      </trkpt>
      <trkpt lat="37.371351979672909" lon="-6.019703987985849">
        <ele>15.039999999999999</ele>
        <time>2025-05-07T15:02:13Z</time>
      </trkpt>
      <trkpt lat="37.371626989915967" lon="-6.017450010403991">
        <ele>13.119999999999999</ele>
        <time>2025-05-07T15:02:23Z</time>
      </trkpt>
      <trkpt lat="37.371840979903936" lon="-6.01581403054297">
        <ele>12.15</ele>
        <time>2025-05-07T15:02:31Z</time>
      </trkpt>
      <trkpt lat="37.371840979903936" lon="-6.01562300696969">
        <ele>12.15</ele>
        <time>2025-05-07T15:02:32Z</time>
      </trkpt>
      <trkpt lat="37.371808961033821" lon="-6.015439024195075">
        <ele>12.630000000000001</ele>
        <time>2025-05-07T15:02:33Z</time>
      </trkpt>
      <trkpt lat="37.371753975749016" lon="-6.015248000621796">
        <ele>12.630000000000001</ele>
        <time>2025-05-07T15:02:34Z</time>
      </trkpt>
      <trkpt lat="37.371694967150688" lon="-6.015068041160703">
        <ele>13.119999999999999</ele>
        <time>2025-05-07T15:02:35Z</time>
      </trkpt>
      <trkpt lat="37.371607040986419" lon="-6.014898978173733">
        <ele>13.6</ele>
        <time>2025-05-07T15:02:36Z</time>
      </trkpt>
      <trkpt lat="37.371518025174737" lon="-6.014731004834175">
        <ele>14.08</ele>
        <time>2025-05-07T15:02:37Z</time>
      </trkpt>
      <trkpt lat="37.371418029069901" lon="-6.014592032879591">
        <ele>14.56</ele>
        <time>2025-05-07T15:02:38Z</time>
      </trkpt>
      <trkpt lat="37.371292971074581" lon="-6.014466974884272">
        <ele>15.039999999999999</ele>
        <time>2025-05-07T15:02:39Z</time>
      </trkpt>
      <trkpt lat="37.37116196192801" lon="-6.01435599848628">
        <ele>15.039999999999999</ele>
        <time>2025-05-07T15:02:40Z</time>
      </trkpt>
      <trkpt lat="37.371016032993793" lon="-6.014262037351728">
        <ele>15.52</ele>
        <time>2025-05-07T15:02:41Z</time>
      </trkpt>
      <trkpt lat="37.370870020240545" lon="-6.014186013489962">
        <ele>16</ele>
        <time>2025-05-07T15:02:42Z</time>
      </trkpt>
      <trkpt lat="37.370715038850904" lon="-6.014143014326692">
        <ele>16</ele>
        <time>2025-05-07T15:02:43Z</time>
      </trkpt>
      <trkpt lat="37.370563996955752" lon="-6.014101020991802">
        <ele>16</ele>
        <time>2025-05-07T15:02:44Z</time>
      </trkpt>
      <trkpt lat="37.370412033051252" lon="-6.014101020991802">
        <ele>16</ele>
        <time>2025-05-07T15:02:45Z</time>
      </trkpt>
      <trkpt lat="37.370231989771128" lon="-6.014113007113338">
        <ele>15.52</ele>
        <time>2025-05-07T15:02:46Z</time>
      </trkpt>
      <trkpt lat="37.370094023644924" lon="-6.014143014326692">
        <ele>15.52</ele>
        <time>2025-05-07T15:02:47Z</time>
      </trkpt>
      <trkpt lat="37.369926972314715" lon="-6.014178972691298">
        <ele>15.039999999999999</ele>
        <time>2025-05-07T15:02:48Z</time>
      </trkpt>
      <trkpt lat="37.368525015190244" lon="-6.014433028176427">
        <ele>13.6</ele>
        <time>2025-05-07T15:02:56Z</time>
      </trkpt>
      <trkpt lat="37.367145018652081" lon="-6.014134967699647">
        <ele>15.52</ele>
        <time>2025-05-07T15:03:05Z</time>
      </trkpt>
      <trkpt lat="37.36581003293395" lon="-6.013134000822902">
        <ele>16.960000000000001</ele>
        <time>2025-05-07T15:03:13Z</time>
      </trkpt>
      <trkpt lat="37.364362981170416" lon="-6.011486034840345">
        <ele>17.920000000000002</ele>
        <time>2025-05-07T15:03:24Z</time>
      </trkpt>
      <trkpt lat="37.362915007397532" lon="-6.009752992540598">
        <ele>21.289999999999999</ele>
        <time>2025-05-07T15:03:35Z</time>
      </trkpt>
      <trkpt lat="37.361710024997592" lon="-6.008321028202772">
        <ele>22.25</ele>
        <time>2025-05-07T15:03:43Z</time>
      </trkpt>
      <trkpt lat="37.360254004597664" lon="-6.006540963426232">
        <ele>23.690000000000001</ele>
        <time>2025-05-07T15:03:54Z</time>
      </trkpt>
      <trkpt lat="37.35871902666986" lon="-6.004731981083751">
        <ele>23.690000000000001</ele>
        <time>2025-05-07T15:04:06Z</time>
      </trkpt>
      <trkpt lat="37.357540028169751" lon="-6.003306973725557">
        <ele>25.129999999999999</ele>
        <time>2025-05-07T15:04:15Z</time>
      </trkpt>
      <trkpt lat="37.356431018561125" lon="-6.002034014090896">
        <ele>28.98</ele>
        <time>2025-05-07T15:04:26Z</time>
      </trkpt>
      <trkpt lat="37.355576986446977" lon="-6.000941013917327">
        <ele>31.379999999999999</ele>
        <time>2025-05-07T15:04:35Z</time>
      </trkpt>
      <trkpt lat="37.354532014578581" lon="-5.999694038182497">
        <ele>32.82</ele>
        <time>2025-05-07T15:04:46Z</time>
      </trkpt>
      <trkpt lat="37.353467009961605" lon="-5.998416971415281">
        <ele>36.670000000000002</ele>
        <time>2025-05-07T15:04:57Z</time>
      </trkpt>
      <trkpt lat="37.352277031168342" lon="-5.996976960450411">
        <ele>42.920000000000002</ele>
        <time>2025-05-07T15:05:11Z</time>
      </trkpt>
      <trkpt lat="37.35141696408391" lon="-5.995981022715569">
        <ele>49.159999999999997</ele>
        <time>2025-05-07T15:05:21Z</time>
      </trkpt>
      <trkpt lat="37.350422032177448" lon="-5.994816021993756">
        <ele>55.409999999999997</ele>
        <time>2025-05-07T15:05:32Z</time>
      </trkpt>
      <trkpt lat="37.349487030878663" lon="-5.99370701238513">
        <ele>64.069999999999993</ele>
        <time>2025-05-07T15:05:42Z</time>
      </trkpt>
      <trkpt lat="37.348452033475041" lon="-5.992478979751468">
        <ele>67.909999999999997</ele>
        <time>2025-05-07T15:05:52Z</time>
      </trkpt>
      <trkpt lat="37.347587021067739" lon="-5.991454040631652">
        <ele>65.510000000000005</ele>
        <time>2025-05-07T15:06:00Z</time>
      </trkpt>
      <trkpt lat="37.346459990367293" lon="-5.990127017721534">
        <ele>59.259999999999998</ele>
        <time>2025-05-07T15:06:11Z</time>
      </trkpt>
      <trkpt lat="37.345293983817101" lon="-5.988799994811416">
        <ele>51.57</ele>
        <time>2025-05-07T15:06:22Z</time>
      </trkpt>
      <trkpt lat="37.344228979200125" lon="-5.987556958571076">
        <ele>44.359999999999999</ele>
        <time>2025-05-07T15:06:33Z</time>
      </trkpt>
      <trkpt lat="37.343323985114694" lon="-5.986496983096004">
        <ele>39.549999999999997</ele>
        <time>2025-05-07T15:06:41Z</time>
      </trkpt>
      <trkpt lat="37.342395018786192" lon="-5.985212959349155">
        <ele>33.299999999999997</ele>
        <time>2025-05-07T15:06:50Z</time>
      </trkpt>
      <trkpt lat="37.341755982488394" lon="-5.983700025826693">
        <ele>28.98</ele>
        <time>2025-05-07T15:06:57Z</time>
      </trkpt>
      <trkpt lat="37.341645006090403" lon="-5.983260981738567">
        <ele>26.57</ele>
        <time>2025-05-07T15:07:00Z</time>
      </trkpt>
      <trkpt lat="37.341082999482751" lon="-5.980512974783778">
        <ele>21.289999999999999</ele>
        <time>2025-05-07T15:07:11Z</time>
      </trkpt>
      <trkpt lat="37.340326029807329" lon="-5.976586975157261">
        <ele>14.08</ele>
        <time>2025-05-07T15:07:27Z</time>
      </trkpt>
      <trkpt lat="37.340138023719192" lon="-5.975248971953988">
        <ele>13.119999999999999</ele>
        <time>2025-05-07T15:07:32Z</time>
      </trkpt>
      <trkpt lat="37.340126037597656" lon="-5.975002963095903">
        <ele>12.630000000000001</ele>
        <time>2025-05-07T15:07:33Z</time>
      </trkpt>
      <trkpt lat="37.340338015928864" lon="-5.973305040970445">
        <ele>9.75</ele>
        <time>2025-05-07T15:07:40Z</time>
      </trkpt>
      <trkpt lat="37.340810000896454" lon="-5.972199970856309">
        <ele>9.27</ele>
        <time>2025-05-07T15:07:46Z</time>
      </trkpt>
      <trkpt lat="37.341808034107089" lon="-5.970304990187287">
        <ele>9.27</ele>
        <time>2025-05-07T15:07:54Z</time>
      </trkpt>
      <trkpt lat="37.343166992068291" lon="-5.968280006200075">
        <ele>6.39</ele>
        <time>2025-05-07T15:08:05Z</time>
      </trkpt>
      <trkpt lat="37.344393013045192" lon="-5.966748967766762">
        <ele>4.94</ele>
        <time>2025-05-07T15:08:14Z</time>
      </trkpt>
      <trkpt lat="37.345956992357969" lon="-5.964949959889054">
        <ele>2.54</ele>
        <time>2025-05-07T15:08:25Z</time>
      </trkpt>
      <trkpt lat="37.347982982173562" lon="-5.962966969236732">
        <ele>3.5</ele>
        <time>2025-05-07T15:08:38Z</time>
      </trkpt>
      <trkpt lat="37.349755000323057" lon="-5.961704989895225">
        <ele>5.42</ele>
        <time>2025-05-07T15:08:48Z</time>
      </trkpt>
      <trkpt lat="37.351884003728628" lon="-5.960504030808806">
        <ele>0.62</ele>
        <time>2025-05-07T15:09:00Z</time>
      </trkpt>
      <trkpt lat="37.354068998247385" lon="-5.959418993443251">
        <ele>3.5</ele>
        <time>2025-05-07T15:09:12Z</time>
      </trkpt>
      <trkpt lat="37.354609966278076" lon="-5.959139037877321">
        <ele>4.46</ele>
        <time>2025-05-07T15:09:15Z</time>
      </trkpt>
      <trkpt lat="37.354781962931156" lon="-5.959040969610214">
        <ele>4.46</ele>
        <time>2025-05-07T15:09:16Z</time>
      </trkpt>
      <trkpt lat="37.356564961373806" lon="-5.957781001925468">
        <ele>3.98</ele>
        <time>2025-05-07T15:09:27Z</time>
      </trkpt>
      <trkpt lat="37.357917968183756" lon="-5.95653897151351">
        <ele>4.94</ele>
        <time>2025-05-07T15:09:35Z</time>
      </trkpt>
      <trkpt lat="37.358770994469523" lon="-5.955674964934588">
        <ele>8.310000000000001</ele>
        <time>2025-05-07T15:09:42Z</time>
      </trkpt>
      <trkpt lat="37.359758969396353" lon="-5.954554975032806">
        <ele>9.75</ele>
        <time>2025-05-07T15:09:51Z</time>
      </trkpt>
      <trkpt lat="37.359983017668128" lon="-5.954268984496594">
        <ele>5.91</ele>
        <time>2025-05-07T15:10:00Z</time>
      </trkpt>
      <trkpt lat="37.360157025977969" lon="-5.953210014849901">
        <ele>5.42</ele>
        <time>2025-05-07T15:10:01Z</time>
      </trkpt>
      <trkpt lat="37.360086031258106" lon="-5.953129967674613">
        <ele>5.42</ele>
        <time>2025-05-07T15:10:02Z</time>
      </trkpt>
      <trkpt lat="37.359974971041083" lon="-5.953066013753414">
        <ele>4.94</ele>
        <time>2025-05-07T15:10:03Z</time>
      </trkpt>
      <trkpt lat="37.359862988814712" lon="-5.953045981004834">
        <ele>4.94</ele>
        <time>2025-05-07T15:10:04Z</time>
      </trkpt>
      <trkpt lat="37.359743965789676" lon="-5.953089985996485">
        <ele>4.94</ele>
        <time>2025-05-07T15:10:05Z</time>
      </trkpt>
      <trkpt lat="37.359613962471485" lon="-5.953146982938051">
        <ele>5.42</ele>
        <time>2025-05-07T15:10:06Z</time>
      </trkpt>
      <trkpt lat="37.359507009387016" lon="-5.953245973214507">
        <ele>5.42</ele>
        <time>2025-05-07T15:10:07Z</time>
      </trkpt>
      <trkpt lat="37.359397960826755" lon="-5.953347980976105">
        <ele>5.91</ele>
        <time>2025-05-07T15:10:08Z</time>
      </trkpt>
      <trkpt lat="37.359290001913905" lon="-5.953459041193128">
        <ele>5.91</ele>
        <time>2025-05-07T15:10:09Z</time>
      </trkpt>
      <trkpt lat="37.359195034950972" lon="-5.953571023419499">
        <ele>5.91</ele>
        <time>2025-05-07T15:10:10Z</time>
      </trkpt>
      <trkpt lat="37.359093027189374" lon="-5.953697003424168">
        <ele>6.39</ele>
        <time>2025-05-07T15:10:11Z</time>
      </trkpt>
      <trkpt lat="37.359058996662498" lon="-5.953833041712642">
        <ele>6.87</ele>
        <time>2025-05-07T15:10:12Z</time>
      </trkpt>
      <trkpt lat="37.359036030247808" lon="-5.95400202088058">
        <ele>7.35</ele>
        <time>2025-05-07T15:10:13Z</time>
      </trkpt>
      <trkpt lat="37.359051033854485" lon="-5.954149039462209">
        <ele>7.35</ele>
        <time>2025-05-07T15:10:14Z</time>
      </trkpt>
      <trkpt lat="37.359116999432445" lon="-5.954307038336992">
        <ele>7.35</ele>
        <time>2025-05-07T15:10:15Z</time>
      </trkpt>
      <trkpt lat="37.359181037172675" lon="-5.954451039433479">
        <ele>7.35</ele>
        <time>2025-05-07T15:10:16Z</time>
      </trkpt>
      <trkpt lat="37.359248008579016" lon="-5.954599985852838">
        <ele>7.35</ele>
        <time>2025-05-07T15:10:17Z</time>
      </trkpt>
      <trkpt lat="37.359396032989025" lon="-5.954912966117263">
        <ele>7.83</ele>
        <time>2025-05-07T15:10:19Z</time>
      </trkpt>
      <trkpt lat="37.360015958547592" lon="-5.956349037587643">
        <ele>8.789999999999999</ele>
        <time>2025-05-07T15:10:27Z</time>
      </trkpt>
      <trkpt lat="37.3605249915272" lon="-5.95780597999692">
        <ele>6.87</ele>
        <time>2025-05-07T15:10:36Z</time>
      </trkpt>
      <trkpt lat="37.360788015648723" lon="-5.958091970533133">
        <ele>6.39</ele>
        <time>2025-05-07T15:10:40Z</time>
      </trkpt>
      <trkpt lat="37.360838977620006" lon="-5.958204036578536">
        <ele>6.87</ele>
        <time>2025-05-07T15:10:41Z</time>
      </trkpt>
      <trkpt lat="37.360952971503139" lon="-5.958422971889377">
        <ele>7.35</ele>
        <time>2025-05-07T15:10:43Z</time>
      </trkpt>
      <trkpt lat="37.361189005896449" lon="-5.958761014044285">
        <ele>6.87</ele>
        <time>2025-05-07T15:10:47Z</time>
      </trkpt>
      <trkpt lat="37.361348010599613" lon="-5.958946002647281">
        <ele>5.91</ele>
        <time>2025-05-07T15:10:54Z</time>
      </trkpt>
      <trkpt lat="37.36136200837791" lon="-5.958995036780834">
        <ele>5.42</ele>
        <time>2025-05-07T15:11:13Z</time>
      </trkpt>
      <trkpt lat="37.361381035298109" lon="-5.959066031500697">
        <ele>4.94</ele>
        <time>2025-05-07T15:11:52Z</time>
      </trkpt>
      <trkpt lat="37.361367959529161" lon="-5.959282033145428">
        <ele>4.46</ele>
        <time>2025-05-07T15:11:57Z</time>
      </trkpt>
      <trkpt lat="37.361481031402946" lon="-5.959568023681641">
        <ele>4.46</ele>
        <time>2025-05-07T15:11:59Z</time>
      </trkpt>
      <trkpt lat="37.361527970060706" lon="-5.959627032279968">
        <ele>4.46</ele>
        <time>2025-05-07T15:12:00Z</time>
      </trkpt>
      <trkpt lat="37.361692003905773" lon="-5.959840016439557">
        <ele>3.98</ele>
        <time>2025-05-07T15:12:03Z</time>
      </trkpt>
      <trkpt lat="37.361742965877056" lon="-5.959905982017517">
        <ele>3.98</ele>
        <time>2025-05-07T15:12:04Z</time>
      </trkpt>
      <trkpt lat="37.362097017467022" lon="-5.959919979795814">
        <ele>3.98</ele>
        <time>2025-05-07T15:12:11Z</time>
      </trkpt>
      <trkpt lat="37.362121995538473" lon="-5.959913022816181">
        <ele>3.98</ele>
        <time>2025-05-07T15:12:12Z</time>
      </trkpt>
      <trkpt lat="37.362142028287053" lon="-5.959907993674278">
        <ele>3.5</ele>
        <time>2025-05-07T15:12:22Z</time>
      </trkpt>
      <trkpt lat="37.362142028287053" lon="-5.959907993674278">
        <ele>3.5</ele>
        <time>2025-05-07T15:12:29Z</time>
      </trkpt>
      <trkpt lat="37.362188966944814" lon="-5.959756029769778">
        <ele>3.02</ele>
        <time>2025-05-07T15:12:30Z</time>
      </trkpt>
      <trkpt lat="37.361975982785225" lon="-5.959476996213198">
        <ele>1.58</ele>
        <time>2025-05-07T15:12:39Z</time>
      </trkpt>
      <trkpt lat="37.36194396391511" lon="-5.959436008706689">
        <ele>-0.34</ele>
        <time>2025-05-07T15:12:49Z</time>
      </trkpt>
      <trkpt lat="37.36194396391511" lon="-5.959436008706689">
        <ele>-0.82</ele>
        <time>2025-05-07T15:12:50Z</time>
      </trkpt>
      <trkpt lat="37.361914040520787" lon="-5.959397032856941">
        <ele>-0.82</ele>
        <time>2025-05-07T15:12:53Z</time>
      </trkpt>
      <trkpt lat="37.362037003040314" lon="-5.959556959569454">
        <ele>-1.79</ele>
        <time>2025-05-07T15:13:03Z</time>
      </trkpt>
      <trkpt lat="37.362037003040314" lon="-5.959556959569454">
        <ele>-2.27</ele>
        <time>2025-05-07T15:13:25Z</time>
      </trkpt>
      <trkpt lat="37.362037003040314" lon="-5.959556959569454">
        <ele>-2.27</ele>
        <time>2025-05-07T15:13:39Z</time>
      </trkpt>
      <trkpt lat="37.362037003040314" lon="-5.959556959569454">
        <ele>-2.27</ele>
        <time>2025-05-07T15:14:10Z</time>
      </trkpt>
      <trkpt lat="37.362037003040314" lon="-5.959556959569454">
        <ele>-2.27</ele>
        <time>2025-05-07T15:14:28Z</time>
      </trkpt>
    </trkseg>
  </trk>

</gpx>